<?xml version="1.0" encoding="UTF-8" standalone="no" ?>
<gpx xmlns="http://www.topografix.com/GPX/1/1" xmlns:xsi="http://www.w3.org/2001/XMLSchema-instance" xsi:schemaLocation="http://www.topografix.com/GPX/1/1 http://www.topografix.com/GPX/1/1/gpx.xsd" version="1.1" creator="VisuGPX - https://www.visugpx.com">
  <metadata>
    <name>Col de l'homme mort</name>
    <desc><![CDATA[Aujourd'hui au départ de Laragne c'est un aller retour jusqu'au col de l'Homme Mort (altitude 1213 m). Le circuit est montant les premiers 45 km. Au col nous avons l'agréable surprise du passage des coureurs professionnels de la course du "Mont Ventoux Dénivelé". Au retour, un vent de face nous a accompagné dans les gorges de la Méouge.
C'est un joli circuit de 91 km avec un dénivelé de 1163 m et des paysages magnifiques.]]></desc>
  </metadata>
  <trk>
    <name><![CDATA[Col de l'homme mort]]></name>
    <trkseg>
      <trkpt lat="44.31597" lon="5.82968">
        <ele>583</ele>
        <time>2019-06-17T06:50:29Z</time>
      </trkpt>
      <trkpt lat="44.31584" lon="5.82935">
        <ele>577</ele>
        <time>2019-06-17T06:51:04Z</time>
      </trkpt>
      <trkpt lat="44.31581" lon="5.82932">
        <ele>577</ele>
        <time>2019-06-17T06:51:05Z</time>
      </trkpt>
      <trkpt lat="44.31578" lon="5.82929">
        <ele>576</ele>
        <time>2019-06-17T06:51:06Z</time>
      </trkpt>
      <trkpt lat="44.31574" lon="5.82927">
        <ele>576</ele>
        <time>2019-06-17T06:51:07Z</time>
      </trkpt>
      <trkpt lat="44.3157" lon="5.82924">
        <ele>576</ele>
        <time>2019-06-17T06:51:08Z</time>
      </trkpt>
      <trkpt lat="44.31567" lon="5.82922">
        <ele>576</ele>
        <time>2019-06-17T06:51:09Z</time>
      </trkpt>
      <trkpt lat="44.31562" lon="5.82919">
        <ele>575</ele>
        <time>2019-06-17T06:51:10Z</time>
      </trkpt>
      <trkpt lat="44.31559" lon="5.82916">
        <ele>575</ele>
        <time>2019-06-17T06:51:11Z</time>
      </trkpt>
      <trkpt lat="44.31556" lon="5.82914">
        <ele>575</ele>
        <time>2019-06-17T06:51:12Z</time>
      </trkpt>
      <trkpt lat="44.31552" lon="5.82912">
        <ele>575</ele>
        <time>2019-06-17T06:51:13Z</time>
      </trkpt>
      <trkpt lat="44.3155" lon="5.8291">
        <ele>575</ele>
        <time>2019-06-17T06:51:14Z</time>
      </trkpt>
      <trkpt lat="44.31547" lon="5.82908">
        <ele>575</ele>
        <time>2019-06-17T06:51:15Z</time>
      </trkpt>
      <trkpt lat="44.31544" lon="5.82906">
        <ele>575</ele>
        <time>2019-06-17T06:51:16Z</time>
      </trkpt>
      <trkpt lat="44.31541" lon="5.82903">
        <ele>575</ele>
        <time>2019-06-17T06:51:17Z</time>
      </trkpt>
      <trkpt lat="44.31538" lon="5.829">
        <ele>575</ele>
        <time>2019-06-17T06:51:18Z</time>
      </trkpt>
      <trkpt lat="44.31535" lon="5.82897">
        <ele>575</ele>
        <time>2019-06-17T06:51:19Z</time>
      </trkpt>
      <trkpt lat="44.31532" lon="5.82895">
        <ele>575</ele>
        <time>2019-06-17T06:51:20Z</time>
      </trkpt>
      <trkpt lat="44.31529" lon="5.82892">
        <ele>575</ele>
        <time>2019-06-17T06:51:21Z</time>
      </trkpt>
      <trkpt lat="44.31527" lon="5.8289">
        <ele>575</ele>
        <time>2019-06-17T06:51:22Z</time>
      </trkpt>
      <trkpt lat="44.31525" lon="5.82888">
        <ele>575</ele>
        <time>2019-06-17T06:51:23Z</time>
      </trkpt>
      <trkpt lat="44.31523" lon="5.82886">
        <ele>575</ele>
        <time>2019-06-17T06:51:24Z</time>
      </trkpt>
      <trkpt lat="44.31521" lon="5.82883">
        <ele>575</ele>
        <time>2019-06-17T06:51:25Z</time>
      </trkpt>
      <trkpt lat="44.31519" lon="5.82881">
        <ele>575</ele>
        <time>2019-06-17T06:51:26Z</time>
      </trkpt>
      <trkpt lat="44.31517" lon="5.82879">
        <ele>575</ele>
        <time>2019-06-17T06:51:27Z</time>
      </trkpt>
      <trkpt lat="44.31514" lon="5.82877">
        <ele>575</ele>
        <time>2019-06-17T06:51:28Z</time>
      </trkpt>
      <trkpt lat="44.31512" lon="5.82876">
        <ele>574</ele>
        <time>2019-06-17T06:51:29Z</time>
      </trkpt>
      <trkpt lat="44.31509" lon="5.82874">
        <ele>574</ele>
        <time>2019-06-17T06:51:30Z</time>
      </trkpt>
      <trkpt lat="44.31506" lon="5.82872">
        <ele>574</ele>
        <time>2019-06-17T06:51:31Z</time>
      </trkpt>
      <trkpt lat="44.31503" lon="5.82873">
        <ele>574</ele>
        <time>2019-06-17T06:51:32Z</time>
      </trkpt>
      <trkpt lat="44.31499" lon="5.82875">
        <ele>574</ele>
        <time>2019-06-17T06:51:33Z</time>
      </trkpt>
      <trkpt lat="44.31496" lon="5.82877">
        <ele>574</ele>
        <time>2019-06-17T06:51:34Z</time>
      </trkpt>
      <trkpt lat="44.31494" lon="5.8288">
        <ele>574</ele>
        <time>2019-06-17T06:51:35Z</time>
      </trkpt>
      <trkpt lat="44.31492" lon="5.82884">
        <ele>574</ele>
        <time>2019-06-17T06:51:36Z</time>
      </trkpt>
      <trkpt lat="44.3149" lon="5.82888">
        <ele>574</ele>
        <time>2019-06-17T06:51:37Z</time>
      </trkpt>
      <trkpt lat="44.31487" lon="5.82893">
        <ele>574</ele>
        <time>2019-06-17T06:51:38Z</time>
      </trkpt>
      <trkpt lat="44.31485" lon="5.82896">
        <ele>574</ele>
        <time>2019-06-17T06:51:39Z</time>
      </trkpt>
      <trkpt lat="44.31482" lon="5.829">
        <ele>574</ele>
        <time>2019-06-17T06:51:39Z</time>
      </trkpt>
      <trkpt lat="44.3148" lon="5.82904">
        <ele>574</ele>
        <time>2019-06-17T06:51:41Z</time>
      </trkpt>
      <trkpt lat="44.31477" lon="5.82908">
        <ele>574</ele>
        <time>2019-06-17T06:51:42Z</time>
      </trkpt>
      <trkpt lat="44.31475" lon="5.82912">
        <ele>574</ele>
        <time>2019-06-17T06:51:43Z</time>
      </trkpt>
      <trkpt lat="44.31473" lon="5.82916">
        <ele>574</ele>
        <time>2019-06-17T06:51:44Z</time>
      </trkpt>
      <trkpt lat="44.3147" lon="5.82918">
        <ele>574</ele>
        <time>2019-06-17T06:51:45Z</time>
      </trkpt>
      <trkpt lat="44.31468" lon="5.82921">
        <ele>574</ele>
        <time>2019-06-17T06:51:46Z</time>
      </trkpt>
      <trkpt lat="44.31465" lon="5.82925">
        <ele>574</ele>
        <time>2019-06-17T06:51:47Z</time>
      </trkpt>
      <trkpt lat="44.31463" lon="5.82929">
        <ele>574</ele>
        <time>2019-06-17T06:51:48Z</time>
      </trkpt>
      <trkpt lat="44.3146" lon="5.82934">
        <ele>574</ele>
        <time>2019-06-17T06:51:49Z</time>
      </trkpt>
      <trkpt lat="44.31457" lon="5.82938">
        <ele>574</ele>
        <time>2019-06-17T06:51:50Z</time>
      </trkpt>
      <trkpt lat="44.31454" lon="5.82941">
        <ele>574</ele>
        <time>2019-06-17T06:51:51Z</time>
      </trkpt>
      <trkpt lat="44.31451" lon="5.82946">
        <ele>574</ele>
        <time>2019-06-17T06:51:52Z</time>
      </trkpt>
      <trkpt lat="44.31448" lon="5.82951">
        <ele>574</ele>
        <time>2019-06-17T06:51:53Z</time>
      </trkpt>
      <trkpt lat="44.31445" lon="5.82955">
        <ele>574</ele>
        <time>2019-06-17T06:51:54Z</time>
      </trkpt>
      <trkpt lat="44.31441" lon="5.8296">
        <ele>574</ele>
        <time>2019-06-17T06:51:55Z</time>
      </trkpt>
      <trkpt lat="44.31438" lon="5.82964">
        <ele>574</ele>
        <time>2019-06-17T06:51:56Z</time>
      </trkpt>
      <trkpt lat="44.31435" lon="5.82968">
        <ele>574</ele>
        <time>2019-06-17T06:51:57Z</time>
      </trkpt>
      <trkpt lat="44.31432" lon="5.82973">
        <ele>574</ele>
        <time>2019-06-17T06:51:58Z</time>
      </trkpt>
      <trkpt lat="44.31429" lon="5.82978">
        <ele>574</ele>
        <time>2019-06-17T06:51:59Z</time>
      </trkpt>
      <trkpt lat="44.31426" lon="5.82983">
        <ele>574</ele>
        <time>2019-06-17T06:52:00Z</time>
      </trkpt>
      <trkpt lat="44.31422" lon="5.82987">
        <ele>574</ele>
        <time>2019-06-17T06:52:01Z</time>
      </trkpt>
      <trkpt lat="44.31419" lon="5.82991">
        <ele>574</ele>
        <time>2019-06-17T06:52:02Z</time>
      </trkpt>
      <trkpt lat="44.31416" lon="5.82996">
        <ele>574</ele>
        <time>2019-06-17T06:52:03Z</time>
      </trkpt>
      <trkpt lat="44.31413" lon="5.83001">
        <ele>574</ele>
        <time>2019-06-17T06:52:04Z</time>
      </trkpt>
      <trkpt lat="44.3141" lon="5.83006">
        <ele>574</ele>
        <time>2019-06-17T06:52:05Z</time>
      </trkpt>
      <trkpt lat="44.31407" lon="5.8301">
        <ele>574</ele>
        <time>2019-06-17T06:52:06Z</time>
      </trkpt>
      <trkpt lat="44.31404" lon="5.83015">
        <ele>574</ele>
        <time>2019-06-17T06:52:07Z</time>
      </trkpt>
      <trkpt lat="44.31401" lon="5.8302">
        <ele>574</ele>
        <time>2019-06-17T06:52:08Z</time>
      </trkpt>
      <trkpt lat="44.31398" lon="5.83024">
        <ele>574</ele>
        <time>2019-06-17T06:52:09Z</time>
      </trkpt>
      <trkpt lat="44.31395" lon="5.83028">
        <ele>574</ele>
        <time>2019-06-17T06:52:10Z</time>
      </trkpt>
      <trkpt lat="44.31391" lon="5.83032">
        <ele>574</ele>
        <time>2019-06-17T06:52:11Z</time>
      </trkpt>
      <trkpt lat="44.31388" lon="5.83036">
        <ele>574</ele>
        <time>2019-06-17T06:52:12Z</time>
      </trkpt>
      <trkpt lat="44.31386" lon="5.8304">
        <ele>574</ele>
        <time>2019-06-17T06:52:13Z</time>
      </trkpt>
      <trkpt lat="44.31383" lon="5.83043">
        <ele>574</ele>
        <time>2019-06-17T06:52:14Z</time>
      </trkpt>
      <trkpt lat="44.31381" lon="5.83047">
        <ele>574</ele>
        <time>2019-06-17T06:52:15Z</time>
      </trkpt>
      <trkpt lat="44.31378" lon="5.83051">
        <ele>574</ele>
        <time>2019-06-17T06:52:16Z</time>
      </trkpt>
      <trkpt lat="44.31376" lon="5.83055">
        <ele>574</ele>
        <time>2019-06-17T06:52:17Z</time>
      </trkpt>
      <trkpt lat="44.31374" lon="5.8306">
        <ele>574</ele>
        <time>2019-06-17T06:52:18Z</time>
      </trkpt>
      <trkpt lat="44.31372" lon="5.83064">
        <ele>574</ele>
        <time>2019-06-17T06:52:19Z</time>
      </trkpt>
      <trkpt lat="44.3137" lon="5.83068">
        <ele>574</ele>
        <time>2019-06-17T06:52:20Z</time>
      </trkpt>
      <trkpt lat="44.31368" lon="5.83071">
        <ele>574</ele>
        <time>2019-06-17T06:52:21Z</time>
      </trkpt>
      <trkpt lat="44.31366" lon="5.83075">
        <ele>574</ele>
        <time>2019-06-17T06:52:22Z</time>
      </trkpt>
      <trkpt lat="44.31365" lon="5.8308">
        <ele>574</ele>
        <time>2019-06-17T06:52:23Z</time>
      </trkpt>
      <trkpt lat="44.31364" lon="5.83084">
        <ele>574</ele>
        <time>2019-06-17T06:52:24Z</time>
      </trkpt>
      <trkpt lat="44.31362" lon="5.83089">
        <ele>574</ele>
        <time>2019-06-17T06:52:25Z</time>
      </trkpt>
      <trkpt lat="44.31361" lon="5.83094">
        <ele>574</ele>
        <time>2019-06-17T06:52:26Z</time>
      </trkpt>
      <trkpt lat="44.31359" lon="5.83098">
        <ele>574</ele>
        <time>2019-06-17T06:52:27Z</time>
      </trkpt>
      <trkpt lat="44.31357" lon="5.83101">
        <ele>574</ele>
        <time>2019-06-17T06:52:28Z</time>
      </trkpt>
      <trkpt lat="44.31355" lon="5.83102">
        <ele>574</ele>
        <time>2019-06-17T06:52:29Z</time>
      </trkpt>
      <trkpt lat="44.31352" lon="5.83102">
        <ele>574</ele>
        <time>2019-06-17T06:52:30Z</time>
      </trkpt>
      <trkpt lat="44.3135" lon="5.83101">
        <ele>574</ele>
        <time>2019-06-17T06:52:31Z</time>
      </trkpt>
      <trkpt lat="44.31348" lon="5.83099">
        <ele>574</ele>
        <time>2019-06-17T06:52:32Z</time>
      </trkpt>
      <trkpt lat="44.31347" lon="5.83095">
        <ele>574</ele>
        <time>2019-06-17T06:52:33Z</time>
      </trkpt>
      <trkpt lat="44.31346" lon="5.83091">
        <ele>574</ele>
        <time>2019-06-17T06:52:34Z</time>
      </trkpt>
      <trkpt lat="44.31346" lon="5.83086">
        <ele>574</ele>
        <time>2019-06-17T06:52:35Z</time>
      </trkpt>
      <trkpt lat="44.31346" lon="5.83082">
        <ele>574</ele>
        <time>2019-06-17T06:52:36Z</time>
      </trkpt>
      <trkpt lat="44.31346" lon="5.83077">
        <ele>574</ele>
        <time>2019-06-17T06:52:37Z</time>
      </trkpt>
      <trkpt lat="44.31347" lon="5.83073">
        <ele>574</ele>
        <time>2019-06-17T06:52:38Z</time>
      </trkpt>
      <trkpt lat="44.31348" lon="5.83068">
        <ele>574</ele>
        <time>2019-06-17T06:52:39Z</time>
      </trkpt>
      <trkpt lat="44.3135" lon="5.83063">
        <ele>574</ele>
        <time>2019-06-17T06:52:40Z</time>
      </trkpt>
      <trkpt lat="44.31351" lon="5.83058">
        <ele>574</ele>
        <time>2019-06-17T06:52:41Z</time>
      </trkpt>
      <trkpt lat="44.31353" lon="5.83052">
        <ele>574</ele>
        <time>2019-06-17T06:52:42Z</time>
      </trkpt>
      <trkpt lat="44.31354" lon="5.83047">
        <ele>574</ele>
        <time>2019-06-17T06:52:43Z</time>
      </trkpt>
      <trkpt lat="44.31355" lon="5.83041">
        <ele>574</ele>
        <time>2019-06-17T06:52:44Z</time>
      </trkpt>
      <trkpt lat="44.31355" lon="5.83035">
        <ele>574</ele>
        <time>2019-06-17T06:52:45Z</time>
      </trkpt>
      <trkpt lat="44.31356" lon="5.83029">
        <ele>574</ele>
        <time>2019-06-17T06:52:46Z</time>
      </trkpt>
      <trkpt lat="44.31357" lon="5.83023">
        <ele>574</ele>
        <time>2019-06-17T06:52:47Z</time>
      </trkpt>
      <trkpt lat="44.31359" lon="5.83017">
        <ele>574</ele>
        <time>2019-06-17T06:52:48Z</time>
      </trkpt>
      <trkpt lat="44.31359" lon="5.83009">
        <ele>574</ele>
        <time>2019-06-17T06:52:49Z</time>
      </trkpt>
      <trkpt lat="44.3136" lon="5.83003">
        <ele>574</ele>
        <time>2019-06-17T06:52:50Z</time>
      </trkpt>
      <trkpt lat="44.31361" lon="5.82996">
        <ele>574</ele>
        <time>2019-06-17T06:52:51Z</time>
      </trkpt>
      <trkpt lat="44.31361" lon="5.82989">
        <ele>574</ele>
        <time>2019-06-17T06:52:52Z</time>
      </trkpt>
      <trkpt lat="44.31362" lon="5.82982">
        <ele>574</ele>
        <time>2019-06-17T06:52:53Z</time>
      </trkpt>
      <trkpt lat="44.31363" lon="5.82974">
        <ele>574</ele>
        <time>2019-06-17T06:52:54Z</time>
      </trkpt>
      <trkpt lat="44.31364" lon="5.82966">
        <ele>574</ele>
        <time>2019-06-17T06:52:55Z</time>
      </trkpt>
      <trkpt lat="44.31365" lon="5.82958">
        <ele>574</ele>
        <time>2019-06-17T06:52:56Z</time>
      </trkpt>
      <trkpt lat="44.31366" lon="5.8295">
        <ele>574</ele>
        <time>2019-06-17T06:52:57Z</time>
      </trkpt>
      <trkpt lat="44.31366" lon="5.82942">
        <ele>574</ele>
        <time>2019-06-17T06:52:58Z</time>
      </trkpt>
      <trkpt lat="44.31367" lon="5.82934">
        <ele>574</ele>
        <time>2019-06-17T06:52:59Z</time>
      </trkpt>
      <trkpt lat="44.31368" lon="5.82926">
        <ele>574</ele>
        <time>2019-06-17T06:53:00Z</time>
      </trkpt>
      <trkpt lat="44.3137" lon="5.82918">
        <ele>574</ele>
        <time>2019-06-17T06:53:01Z</time>
      </trkpt>
      <trkpt lat="44.31372" lon="5.82911">
        <ele>574</ele>
        <time>2019-06-17T06:53:02Z</time>
      </trkpt>
      <trkpt lat="44.31372" lon="5.82903">
        <ele>573</ele>
        <time>2019-06-17T06:53:03Z</time>
      </trkpt>
      <trkpt lat="44.31373" lon="5.82896">
        <ele>573</ele>
        <time>2019-06-17T06:53:04Z</time>
      </trkpt>
      <trkpt lat="44.31374" lon="5.82888">
        <ele>572</ele>
        <time>2019-06-17T06:53:05Z</time>
      </trkpt>
      <trkpt lat="44.31375" lon="5.82881">
        <ele>572</ele>
        <time>2019-06-17T06:53:06Z</time>
      </trkpt>
      <trkpt lat="44.31375" lon="5.82872">
        <ele>571</ele>
        <time>2019-06-17T06:53:07Z</time>
      </trkpt>
      <trkpt lat="44.31376" lon="5.82865">
        <ele>571</ele>
        <time>2019-06-17T06:53:08Z</time>
      </trkpt>
      <trkpt lat="44.31377" lon="5.82857">
        <ele>571</ele>
        <time>2019-06-17T06:53:09Z</time>
      </trkpt>
      <trkpt lat="44.31378" lon="5.82849">
        <ele>571</ele>
        <time>2019-06-17T06:53:10Z</time>
      </trkpt>
      <trkpt lat="44.31378" lon="5.82841">
        <ele>571</ele>
        <time>2019-06-17T06:53:11Z</time>
      </trkpt>
      <trkpt lat="44.31379" lon="5.82834">
        <ele>571</ele>
        <time>2019-06-17T06:53:12Z</time>
      </trkpt>
      <trkpt lat="44.31379" lon="5.82827">
        <ele>571</ele>
        <time>2019-06-17T06:53:13Z</time>
      </trkpt>
      <trkpt lat="44.31379" lon="5.82819">
        <ele>571</ele>
        <time>2019-06-17T06:53:14Z</time>
      </trkpt>
      <trkpt lat="44.3138" lon="5.82811">
        <ele>571</ele>
        <time>2019-06-17T06:53:15Z</time>
      </trkpt>
      <trkpt lat="44.31381" lon="5.82804">
        <ele>571</ele>
        <time>2019-06-17T06:53:16Z</time>
      </trkpt>
      <trkpt lat="44.31381" lon="5.82796">
        <ele>571</ele>
        <time>2019-06-17T06:53:17Z</time>
      </trkpt>
      <trkpt lat="44.31381" lon="5.82789">
        <ele>571</ele>
        <time>2019-06-17T06:53:18Z</time>
      </trkpt>
      <trkpt lat="44.31381" lon="5.82782">
        <ele>571</ele>
        <time>2019-06-17T06:53:19Z</time>
      </trkpt>
      <trkpt lat="44.31381" lon="5.82774">
        <ele>571</ele>
        <time>2019-06-17T06:53:20Z</time>
      </trkpt>
      <trkpt lat="44.31381" lon="5.82766">
        <ele>571</ele>
        <time>2019-06-17T06:53:21Z</time>
      </trkpt>
      <trkpt lat="44.3138" lon="5.82759">
        <ele>571</ele>
        <time>2019-06-17T06:53:22Z</time>
      </trkpt>
      <trkpt lat="44.3138" lon="5.82752">
        <ele>571</ele>
        <time>2019-06-17T06:53:23Z</time>
      </trkpt>
      <trkpt lat="44.31379" lon="5.82744">
        <ele>571</ele>
        <time>2019-06-17T06:53:24Z</time>
      </trkpt>
      <trkpt lat="44.31379" lon="5.82737">
        <ele>571</ele>
        <time>2019-06-17T06:53:25Z</time>
      </trkpt>
      <trkpt lat="44.31378" lon="5.82729">
        <ele>571</ele>
        <time>2019-06-17T06:53:26Z</time>
      </trkpt>
      <trkpt lat="44.31377" lon="5.82723">
        <ele>571</ele>
        <time>2019-06-17T06:53:27Z</time>
      </trkpt>
      <trkpt lat="44.31377" lon="5.82717">
        <ele>571</ele>
        <time>2019-06-17T06:53:28Z</time>
      </trkpt>
      <trkpt lat="44.31376" lon="5.82713">
        <ele>571</ele>
        <time>2019-06-17T06:53:29Z</time>
      </trkpt>
      <trkpt lat="44.31376" lon="5.82709">
        <ele>571</ele>
        <time>2019-06-17T06:53:30Z</time>
      </trkpt>
      <trkpt lat="44.31376" lon="5.82704">
        <ele>571</ele>
        <time>2019-06-17T06:53:31Z</time>
      </trkpt>
      <trkpt lat="44.31375" lon="5.827">
        <ele>571</ele>
        <time>2019-06-17T06:53:32Z</time>
      </trkpt>
      <trkpt lat="44.31374" lon="5.82695">
        <ele>571</ele>
        <time>2019-06-17T06:53:33Z</time>
      </trkpt>
      <trkpt lat="44.31372" lon="5.82691">
        <ele>571</ele>
        <time>2019-06-17T06:53:34Z</time>
      </trkpt>
      <trkpt lat="44.31369" lon="5.82687">
        <ele>571</ele>
        <time>2019-06-17T06:53:35Z</time>
      </trkpt>
      <trkpt lat="44.31365" lon="5.82685">
        <ele>571</ele>
        <time>2019-06-17T06:53:35Z</time>
      </trkpt>
      <trkpt lat="44.31361" lon="5.82682">
        <ele>571</ele>
        <time>2019-06-17T06:53:37Z</time>
      </trkpt>
      <trkpt lat="44.31357" lon="5.8268">
        <ele>571</ele>
        <time>2019-06-17T06:53:38Z</time>
      </trkpt>
      <trkpt lat="44.31353" lon="5.82677">
        <ele>570</ele>
        <time>2019-06-17T06:53:39Z</time>
      </trkpt>
      <trkpt lat="44.31348" lon="5.82675">
        <ele>570</ele>
        <time>2019-06-17T06:53:39Z</time>
      </trkpt>
      <trkpt lat="44.31343" lon="5.82673">
        <ele>570</ele>
        <time>2019-06-17T06:53:41Z</time>
      </trkpt>
      <trkpt lat="44.31339" lon="5.8267">
        <ele>570</ele>
        <time>2019-06-17T06:53:42Z</time>
      </trkpt>
      <trkpt lat="44.31335" lon="5.82668">
        <ele>570</ele>
        <time>2019-06-17T06:53:43Z</time>
      </trkpt>
      <trkpt lat="44.3133" lon="5.82666">
        <ele>570</ele>
        <time>2019-06-17T06:53:43Z</time>
      </trkpt>
      <trkpt lat="44.31325" lon="5.82663">
        <ele>570</ele>
        <time>2019-06-17T06:53:45Z</time>
      </trkpt>
      <trkpt lat="44.3132" lon="5.8266">
        <ele>570</ele>
        <time>2019-06-17T06:53:46Z</time>
      </trkpt>
      <trkpt lat="44.31314" lon="5.82656">
        <ele>570</ele>
        <time>2019-06-17T06:53:47Z</time>
      </trkpt>
      <trkpt lat="44.31308" lon="5.82652">
        <ele>569</ele>
        <time>2019-06-17T06:53:48Z</time>
      </trkpt>
      <trkpt lat="44.31302" lon="5.82648">
        <ele>569</ele>
        <time>2019-06-17T06:53:49Z</time>
      </trkpt>
      <trkpt lat="44.31295" lon="5.82643">
        <ele>569</ele>
        <time>2019-06-17T06:53:50Z</time>
      </trkpt>
      <trkpt lat="44.31288" lon="5.82638">
        <ele>568</ele>
        <time>2019-06-17T06:53:51Z</time>
      </trkpt>
      <trkpt lat="44.31281" lon="5.82633">
        <ele>567</ele>
        <time>2019-06-17T06:53:52Z</time>
      </trkpt>
      <trkpt lat="44.31273" lon="5.82629">
        <ele>567</ele>
        <time>2019-06-17T06:53:53Z</time>
      </trkpt>
      <trkpt lat="44.31265" lon="5.82624">
        <ele>566</ele>
        <time>2019-06-17T06:53:54Z</time>
      </trkpt>
      <trkpt lat="44.31257" lon="5.8262">
        <ele>566</ele>
        <time>2019-06-17T06:53:55Z</time>
      </trkpt>
      <trkpt lat="44.31249" lon="5.82616">
        <ele>565</ele>
        <time>2019-06-17T06:53:56Z</time>
      </trkpt>
      <trkpt lat="44.31242" lon="5.82612">
        <ele>565</ele>
        <time>2019-06-17T06:53:57Z</time>
      </trkpt>
      <trkpt lat="44.31234" lon="5.82608">
        <ele>564</ele>
        <time>2019-06-17T06:53:58Z</time>
      </trkpt>
      <trkpt lat="44.31226" lon="5.82603">
        <ele>564</ele>
        <time>2019-06-17T06:53:59Z</time>
      </trkpt>
      <trkpt lat="44.31219" lon="5.82599">
        <ele>563</ele>
        <time>2019-06-17T06:54:00Z</time>
      </trkpt>
      <trkpt lat="44.31211" lon="5.82595">
        <ele>563</ele>
        <time>2019-06-17T06:54:01Z</time>
      </trkpt>
      <trkpt lat="44.31204" lon="5.82591">
        <ele>563</ele>
        <time>2019-06-17T06:54:02Z</time>
      </trkpt>
      <trkpt lat="44.31197" lon="5.82587">
        <ele>562</ele>
        <time>2019-06-17T06:54:03Z</time>
      </trkpt>
      <trkpt lat="44.3119" lon="5.82583">
        <ele>562</ele>
        <time>2019-06-17T06:54:04Z</time>
      </trkpt>
      <trkpt lat="44.31183" lon="5.82579">
        <ele>562</ele>
        <time>2019-06-17T06:54:05Z</time>
      </trkpt>
      <trkpt lat="44.31176" lon="5.82575">
        <ele>562</ele>
        <time>2019-06-17T06:54:06Z</time>
      </trkpt>
      <trkpt lat="44.31169" lon="5.82571">
        <ele>562</ele>
        <time>2019-06-17T06:54:07Z</time>
      </trkpt>
      <trkpt lat="44.31162" lon="5.82567">
        <ele>562</ele>
        <time>2019-06-17T06:54:07Z</time>
      </trkpt>
      <trkpt lat="44.31155" lon="5.82563">
        <ele>562</ele>
        <time>2019-06-17T06:54:09Z</time>
      </trkpt>
      <trkpt lat="44.31149" lon="5.8256">
        <ele>562</ele>
        <time>2019-06-17T06:54:10Z</time>
      </trkpt>
      <trkpt lat="44.31143" lon="5.82556">
        <ele>562</ele>
        <time>2019-06-17T06:54:11Z</time>
      </trkpt>
      <trkpt lat="44.31137" lon="5.82553">
        <ele>562</ele>
        <time>2019-06-17T06:54:11Z</time>
      </trkpt>
      <trkpt lat="44.31131" lon="5.82549">
        <ele>562</ele>
        <time>2019-06-17T06:54:13Z</time>
      </trkpt>
      <trkpt lat="44.31126" lon="5.82546">
        <ele>562</ele>
        <time>2019-06-17T06:54:14Z</time>
      </trkpt>
      <trkpt lat="44.3112" lon="5.82544">
        <ele>562</ele>
        <time>2019-06-17T06:54:15Z</time>
      </trkpt>
      <trkpt lat="44.31115" lon="5.82541">
        <ele>561</ele>
        <time>2019-06-17T06:54:15Z</time>
      </trkpt>
      <trkpt lat="44.3111" lon="5.82538">
        <ele>561</ele>
        <time>2019-06-17T06:54:17Z</time>
      </trkpt>
      <trkpt lat="44.31104" lon="5.82535">
        <ele>561</ele>
        <time>2019-06-17T06:54:18Z</time>
      </trkpt>
      <trkpt lat="44.31099" lon="5.82532">
        <ele>561</ele>
        <time>2019-06-17T06:54:18Z</time>
      </trkpt>
      <trkpt lat="44.31094" lon="5.82529">
        <ele>561</ele>
        <time>2019-06-17T06:54:20Z</time>
      </trkpt>
      <trkpt lat="44.3109" lon="5.82525">
        <ele>561</ele>
        <time>2019-06-17T06:54:20Z</time>
      </trkpt>
      <trkpt lat="44.31085" lon="5.82521">
        <ele>561</ele>
        <time>2019-06-17T06:54:22Z</time>
      </trkpt>
      <trkpt lat="44.31082" lon="5.82517">
        <ele>561</ele>
        <time>2019-06-17T06:54:23Z</time>
      </trkpt>
      <trkpt lat="44.31079" lon="5.82511">
        <ele>561</ele>
        <time>2019-06-17T06:54:24Z</time>
      </trkpt>
      <trkpt lat="44.31076" lon="5.82506">
        <ele>561</ele>
        <time>2019-06-17T06:54:25Z</time>
      </trkpt>
      <trkpt lat="44.31075" lon="5.82499">
        <ele>561</ele>
        <time>2019-06-17T06:54:26Z</time>
      </trkpt>
      <trkpt lat="44.31075" lon="5.82493">
        <ele>561</ele>
        <time>2019-06-17T06:54:27Z</time>
      </trkpt>
      <trkpt lat="44.31076" lon="5.82486">
        <ele>561</ele>
        <time>2019-06-17T06:54:27Z</time>
      </trkpt>
      <trkpt lat="44.31077" lon="5.8248">
        <ele>561</ele>
        <time>2019-06-17T06:54:29Z</time>
      </trkpt>
      <trkpt lat="44.31079" lon="5.82475">
        <ele>561</ele>
        <time>2019-06-17T06:54:30Z</time>
      </trkpt>
      <trkpt lat="44.31081" lon="5.8247">
        <ele>561</ele>
        <time>2019-06-17T06:54:31Z</time>
      </trkpt>
      <trkpt lat="44.31084" lon="5.82465">
        <ele>561</ele>
        <time>2019-06-17T06:54:32Z</time>
      </trkpt>
      <trkpt lat="44.31086" lon="5.8246">
        <ele>561</ele>
        <time>2019-06-17T06:54:33Z</time>
      </trkpt>
      <trkpt lat="44.31088" lon="5.82455">
        <ele>561</ele>
        <time>2019-06-17T06:54:34Z</time>
      </trkpt>
      <trkpt lat="44.31091" lon="5.8245">
        <ele>561</ele>
        <time>2019-06-17T06:54:35Z</time>
      </trkpt>
      <trkpt lat="44.31093" lon="5.82446">
        <ele>561</ele>
        <time>2019-06-17T06:54:36Z</time>
      </trkpt>
      <trkpt lat="44.31095" lon="5.82441">
        <ele>561</ele>
        <time>2019-06-17T06:54:37Z</time>
      </trkpt>
      <trkpt lat="44.31097" lon="5.82436">
        <ele>561</ele>
        <time>2019-06-17T06:54:38Z</time>
      </trkpt>
      <trkpt lat="44.311" lon="5.82431">
        <ele>561</ele>
        <time>2019-06-17T06:54:39Z</time>
      </trkpt>
      <trkpt lat="44.31103" lon="5.82425">
        <ele>561</ele>
        <time>2019-06-17T06:54:39Z</time>
      </trkpt>
      <trkpt lat="44.31105" lon="5.82418">
        <ele>560</ele>
        <time>2019-06-17T06:54:41Z</time>
      </trkpt>
      <trkpt lat="44.31107" lon="5.82411">
        <ele>560</ele>
        <time>2019-06-17T06:54:41Z</time>
      </trkpt>
      <trkpt lat="44.31109" lon="5.82404">
        <ele>560</ele>
        <time>2019-06-17T06:54:42Z</time>
      </trkpt>
      <trkpt lat="44.3111" lon="5.82395">
        <ele>559</ele>
        <time>2019-06-17T06:54:44Z</time>
      </trkpt>
      <trkpt lat="44.3111" lon="5.82387">
        <ele>559</ele>
        <time>2019-06-17T06:54:45Z</time>
      </trkpt>
      <trkpt lat="44.3111" lon="5.82378">
        <ele>559</ele>
        <time>2019-06-17T06:54:46Z</time>
      </trkpt>
      <trkpt lat="44.3111" lon="5.8237">
        <ele>559</ele>
        <time>2019-06-17T06:54:47Z</time>
      </trkpt>
      <trkpt lat="44.31112" lon="5.82362">
        <ele>559</ele>
        <time>2019-06-17T06:54:47Z</time>
      </trkpt>
      <trkpt lat="44.31115" lon="5.82355">
        <ele>559</ele>
        <time>2019-06-17T06:54:48Z</time>
      </trkpt>
      <trkpt lat="44.31119" lon="5.82349">
        <ele>559</ele>
        <time>2019-06-17T06:54:49Z</time>
      </trkpt>
      <trkpt lat="44.31123" lon="5.82343">
        <ele>559</ele>
        <time>2019-06-17T06:54:51Z</time>
      </trkpt>
      <trkpt lat="44.31128" lon="5.82338">
        <ele>558</ele>
        <time>2019-06-17T06:54:51Z</time>
      </trkpt>
      <trkpt lat="44.31131" lon="5.82333">
        <ele>558</ele>
        <time>2019-06-17T06:54:53Z</time>
      </trkpt>
      <trkpt lat="44.31135" lon="5.82328">
        <ele>558</ele>
        <time>2019-06-17T06:54:53Z</time>
      </trkpt>
      <trkpt lat="44.31139" lon="5.82323">
        <ele>558</ele>
        <time>2019-06-17T06:54:54Z</time>
      </trkpt>
      <trkpt lat="44.31142" lon="5.82318">
        <ele>558</ele>
        <time>2019-06-17T06:54:55Z</time>
      </trkpt>
      <trkpt lat="44.31145" lon="5.82314">
        <ele>558</ele>
        <time>2019-06-17T06:54:57Z</time>
      </trkpt>
      <trkpt lat="44.31148" lon="5.8231">
        <ele>558</ele>
        <time>2019-06-17T06:54:57Z</time>
      </trkpt>
      <trkpt lat="44.3115" lon="5.82306">
        <ele>558</ele>
        <time>2019-06-17T06:54:58Z</time>
      </trkpt>
      <trkpt lat="44.31152" lon="5.82302">
        <ele>558</ele>
        <time>2019-06-17T06:54:59Z</time>
      </trkpt>
      <trkpt lat="44.31152" lon="5.82297">
        <ele>558</ele>
        <time>2019-06-17T06:55:01Z</time>
      </trkpt>
      <trkpt lat="44.31152" lon="5.82293">
        <ele>558</ele>
        <time>2019-06-17T06:55:02Z</time>
      </trkpt>
      <trkpt lat="44.31152" lon="5.8229">
        <ele>558</ele>
        <time>2019-06-17T06:55:03Z</time>
      </trkpt>
      <trkpt lat="44.31151" lon="5.82288">
        <ele>558</ele>
        <time>2019-06-17T06:55:03Z</time>
      </trkpt>
      <trkpt lat="44.3115" lon="5.82285">
        <ele>558</ele>
        <time>2019-06-17T06:55:05Z</time>
      </trkpt>
      <trkpt lat="44.3115" lon="5.82283">
        <ele>558</ele>
        <time>2019-06-17T06:55:08Z</time>
      </trkpt>
      <trkpt lat="44.31149" lon="5.82282">
        <ele>558</ele>
        <time>2019-06-17T06:55:11Z</time>
      </trkpt>
      <trkpt lat="44.31149" lon="5.8228">
        <ele>558</ele>
        <time>2019-06-17T06:55:28Z</time>
      </trkpt>
      <trkpt lat="44.31148" lon="5.8228">
        <ele>563</ele>
        <time>2019-06-17T06:55:53Z</time>
      </trkpt>
      <trkpt lat="44.31149" lon="5.8228">
        <ele>564</ele>
        <time>2019-06-17T06:56:05Z</time>
      </trkpt>
      <trkpt lat="44.3115" lon="5.82278">
        <ele>564</ele>
        <time>2019-06-17T06:56:11Z</time>
      </trkpt>
      <trkpt lat="44.3115" lon="5.82277">
        <ele>560</ele>
        <time>2019-06-17T06:56:21Z</time>
      </trkpt>
      <trkpt lat="44.3115" lon="5.82278">
        <ele>559</ele>
        <time>2019-06-17T06:57:02Z</time>
      </trkpt>
      <trkpt lat="44.31149" lon="5.82279">
        <ele>560</ele>
        <time>2019-06-17T06:57:42Z</time>
      </trkpt>
      <trkpt lat="44.31147" lon="5.82278">
        <ele>560</ele>
        <time>2019-06-17T06:57:51Z</time>
      </trkpt>
      <trkpt lat="44.31146" lon="5.82279">
        <ele>560</ele>
        <time>2019-06-17T06:57:57Z</time>
      </trkpt>
      <trkpt lat="44.31145" lon="5.82279">
        <ele>560</ele>
        <time>2019-06-17T06:58:03Z</time>
      </trkpt>
      <trkpt lat="44.31144" lon="5.8228">
        <ele>560</ele>
        <time>2019-06-17T06:58:11Z</time>
      </trkpt>
      <trkpt lat="44.31146" lon="5.8228">
        <ele>560</ele>
        <time>2019-06-17T06:58:30Z</time>
      </trkpt>
      <trkpt lat="44.31147" lon="5.8228">
        <ele>560</ele>
        <time>2019-06-17T06:58:33Z</time>
      </trkpt>
      <trkpt lat="44.31148" lon="5.82279">
        <ele>560</ele>
        <time>2019-06-17T06:58:35Z</time>
      </trkpt>
      <trkpt lat="44.31149" lon="5.82279">
        <ele>560</ele>
        <time>2019-06-17T06:58:38Z</time>
      </trkpt>
      <trkpt lat="44.3115" lon="5.8228">
        <ele>560</ele>
        <time>2019-06-17T06:58:53Z</time>
      </trkpt>
      <trkpt lat="44.31152" lon="5.82281">
        <ele>564</ele>
        <time>2019-06-17T06:59:00Z</time>
      </trkpt>
      <trkpt lat="44.31152" lon="5.82282">
        <ele>565</ele>
        <time>2019-06-17T06:59:05Z</time>
      </trkpt>
      <trkpt lat="44.31152" lon="5.82281">
        <ele>564</ele>
        <time>2019-06-17T06:59:23Z</time>
      </trkpt>
      <trkpt lat="44.31151" lon="5.82281">
        <ele>562</ele>
        <time>2019-06-17T06:59:40Z</time>
      </trkpt>
      <trkpt lat="44.3115" lon="5.82282">
        <ele>562</ele>
        <time>2019-06-17T06:59:47Z</time>
      </trkpt>
      <trkpt lat="44.31149" lon="5.82281">
        <ele>562</ele>
        <time>2019-06-17T06:59:53Z</time>
      </trkpt>
      <trkpt lat="44.31149" lon="5.82283">
        <ele>562</ele>
        <time>2019-06-17T06:59:59Z</time>
      </trkpt>
      <trkpt lat="44.31148" lon="5.82284">
        <ele>562</ele>
        <time>2019-06-17T07:00:24Z</time>
      </trkpt>
      <trkpt lat="44.31147" lon="5.82284">
        <ele>562</ele>
        <time>2019-06-17T07:00:46Z</time>
      </trkpt>
      <trkpt lat="44.31148" lon="5.82283">
        <ele>562</ele>
        <time>2019-06-17T07:01:53Z</time>
      </trkpt>
      <trkpt lat="44.31149" lon="5.82283">
        <ele>560</ele>
        <time>2019-06-17T07:02:13Z</time>
      </trkpt>
      <trkpt lat="44.3115" lon="5.82285">
        <ele>560</ele>
        <time>2019-06-17T07:02:54Z</time>
      </trkpt>
      <trkpt lat="44.3115" lon="5.82286">
        <ele>560</ele>
        <time>2019-06-17T07:03:37Z</time>
      </trkpt>
      <trkpt lat="44.31149" lon="5.82287">
        <ele>560</ele>
        <time>2019-06-17T07:03:52Z</time>
      </trkpt>
      <trkpt lat="44.3115" lon="5.82287">
        <ele>560</ele>
        <time>2019-06-17T07:04:01Z</time>
      </trkpt>
      <trkpt lat="44.31149" lon="5.82286">
        <ele>560</ele>
        <time>2019-06-17T07:04:13Z</time>
      </trkpt>
      <trkpt lat="44.31148" lon="5.82285">
        <ele>560</ele>
        <time>2019-06-17T07:04:27Z</time>
      </trkpt>
      <trkpt lat="44.31147" lon="5.82285">
        <ele>562</ele>
        <time>2019-06-17T07:05:22Z</time>
      </trkpt>
      <trkpt lat="44.31148" lon="5.82286">
        <ele>562</ele>
        <time>2019-06-17T07:05:33Z</time>
      </trkpt>
      <trkpt lat="44.31147" lon="5.82285">
        <ele>562</ele>
        <time>2019-06-17T07:06:18Z</time>
      </trkpt>
      <trkpt lat="44.31145" lon="5.82285">
        <ele>563</ele>
        <time>2019-06-17T07:07:17Z</time>
      </trkpt>
      <trkpt lat="44.31147" lon="5.82285">
        <ele>563</ele>
        <time>2019-06-17T07:07:39Z</time>
      </trkpt>
      <trkpt lat="44.31147" lon="5.82283">
        <ele>560</ele>
        <time>2019-06-17T07:07:43Z</time>
      </trkpt>
      <trkpt lat="44.31147" lon="5.82285">
        <ele>553</ele>
        <time>2019-06-17T07:07:55Z</time>
      </trkpt>
      <trkpt lat="44.31146" lon="5.82285">
        <ele>552</ele>
        <time>2019-06-17T07:08:01Z</time>
      </trkpt>
      <trkpt lat="44.31145" lon="5.82287">
        <ele>552</ele>
        <time>2019-06-17T07:08:08Z</time>
      </trkpt>
      <trkpt lat="44.31144" lon="5.82287">
        <ele>552</ele>
        <time>2019-06-17T07:08:17Z</time>
      </trkpt>
      <trkpt lat="44.31144" lon="5.82285">
        <ele>555</ele>
        <time>2019-06-17T07:08:22Z</time>
      </trkpt>
      <trkpt lat="44.31145" lon="5.82284">
        <ele>558</ele>
        <time>2019-06-17T07:08:47Z</time>
      </trkpt>
      <trkpt lat="44.31147" lon="5.82284">
        <ele>558</ele>
        <time>2019-06-17T07:08:57Z</time>
      </trkpt>
      <trkpt lat="44.31147" lon="5.82282">
        <ele>558</ele>
        <time>2019-06-17T07:09:16Z</time>
      </trkpt>
      <trkpt lat="44.31148" lon="5.82282">
        <ele>561</ele>
        <time>2019-06-17T07:09:30Z</time>
      </trkpt>
      <trkpt lat="44.31149" lon="5.8228">
        <ele>561</ele>
        <time>2019-06-17T07:09:50Z</time>
      </trkpt>
      <trkpt lat="44.31149" lon="5.82278">
        <ele>561</ele>
        <time>2019-06-17T07:09:52Z</time>
      </trkpt>
      <trkpt lat="44.31149" lon="5.82275">
        <ele>561</ele>
        <time>2019-06-17T07:09:55Z</time>
      </trkpt>
      <trkpt lat="44.31148" lon="5.82273">
        <ele>561</ele>
        <time>2019-06-17T07:09:55Z</time>
      </trkpt>
      <trkpt lat="44.31148" lon="5.82271">
        <ele>561</ele>
        <time>2019-06-17T07:09:56Z</time>
      </trkpt>
      <trkpt lat="44.31146" lon="5.82268">
        <ele>561</ele>
        <time>2019-06-17T07:09:57Z</time>
      </trkpt>
      <trkpt lat="44.31144" lon="5.82265">
        <ele>561</ele>
        <time>2019-06-17T07:09:58Z</time>
      </trkpt>
      <trkpt lat="44.31142" lon="5.82262">
        <ele>561</ele>
        <time>2019-06-17T07:09:59Z</time>
      </trkpt>
      <trkpt lat="44.31139" lon="5.82258">
        <ele>561</ele>
        <time>2019-06-17T07:10:00Z</time>
      </trkpt>
      <trkpt lat="44.31136" lon="5.82255">
        <ele>561</ele>
        <time>2019-06-17T07:10:01Z</time>
      </trkpt>
      <trkpt lat="44.31133" lon="5.82251">
        <ele>561</ele>
        <time>2019-06-17T07:10:02Z</time>
      </trkpt>
      <trkpt lat="44.3113" lon="5.82247">
        <ele>561</ele>
        <time>2019-06-17T07:10:03Z</time>
      </trkpt>
      <trkpt lat="44.31127" lon="5.82242">
        <ele>561</ele>
        <time>2019-06-17T07:10:04Z</time>
      </trkpt>
      <trkpt lat="44.31124" lon="5.82238">
        <ele>560</ele>
        <time>2019-06-17T07:10:05Z</time>
      </trkpt>
      <trkpt lat="44.31121" lon="5.82234">
        <ele>560</ele>
        <time>2019-06-17T07:10:06Z</time>
      </trkpt>
      <trkpt lat="44.31117" lon="5.8223">
        <ele>560</ele>
        <time>2019-06-17T07:10:07Z</time>
      </trkpt>
      <trkpt lat="44.31113" lon="5.82225">
        <ele>560</ele>
        <time>2019-06-17T07:10:08Z</time>
      </trkpt>
      <trkpt lat="44.3111" lon="5.8222">
        <ele>560</ele>
        <time>2019-06-17T07:10:09Z</time>
      </trkpt>
      <trkpt lat="44.31107" lon="5.82215">
        <ele>560</ele>
        <time>2019-06-17T07:10:10Z</time>
      </trkpt>
      <trkpt lat="44.31104" lon="5.82211">
        <ele>560</ele>
        <time>2019-06-17T07:10:11Z</time>
      </trkpt>
      <trkpt lat="44.311" lon="5.82206">
        <ele>560</ele>
        <time>2019-06-17T07:10:12Z</time>
      </trkpt>
      <trkpt lat="44.31097" lon="5.82202">
        <ele>560</ele>
        <time>2019-06-17T07:10:13Z</time>
      </trkpt>
      <trkpt lat="44.31093" lon="5.82198">
        <ele>560</ele>
        <time>2019-06-17T07:10:14Z</time>
      </trkpt>
      <trkpt lat="44.31089" lon="5.82193">
        <ele>560</ele>
        <time>2019-06-17T07:10:15Z</time>
      </trkpt>
      <trkpt lat="44.31086" lon="5.82189">
        <ele>560</ele>
        <time>2019-06-17T07:10:16Z</time>
      </trkpt>
      <trkpt lat="44.31083" lon="5.82184">
        <ele>560</ele>
        <time>2019-06-17T07:10:17Z</time>
      </trkpt>
      <trkpt lat="44.3108" lon="5.8218">
        <ele>560</ele>
        <time>2019-06-17T07:10:18Z</time>
      </trkpt>
      <trkpt lat="44.31076" lon="5.82176">
        <ele>560</ele>
        <time>2019-06-17T07:10:19Z</time>
      </trkpt>
      <trkpt lat="44.31072" lon="5.82172">
        <ele>560</ele>
        <time>2019-06-17T07:10:20Z</time>
      </trkpt>
      <trkpt lat="44.31069" lon="5.82168">
        <ele>560</ele>
        <time>2019-06-17T07:10:21Z</time>
      </trkpt>
      <trkpt lat="44.31066" lon="5.82164">
        <ele>559</ele>
        <time>2019-06-17T07:10:22Z</time>
      </trkpt>
      <trkpt lat="44.31062" lon="5.8216">
        <ele>559</ele>
        <time>2019-06-17T07:10:23Z</time>
      </trkpt>
      <trkpt lat="44.31058" lon="5.82154">
        <ele>559</ele>
        <time>2019-06-17T07:10:24Z</time>
      </trkpt>
      <trkpt lat="44.31053" lon="5.82149">
        <ele>559</ele>
        <time>2019-06-17T07:10:25Z</time>
      </trkpt>
      <trkpt lat="44.31049" lon="5.82143">
        <ele>559</ele>
        <time>2019-06-17T07:10:26Z</time>
      </trkpt>
      <trkpt lat="44.31045" lon="5.82138">
        <ele>559</ele>
        <time>2019-06-17T07:10:27Z</time>
      </trkpt>
      <trkpt lat="44.3104" lon="5.82132">
        <ele>559</ele>
        <time>2019-06-17T07:10:28Z</time>
      </trkpt>
      <trkpt lat="44.31036" lon="5.82127">
        <ele>559</ele>
        <time>2019-06-17T07:10:30Z</time>
      </trkpt>
      <trkpt lat="44.31031" lon="5.82121">
        <ele>559</ele>
        <time>2019-06-17T07:10:30Z</time>
      </trkpt>
      <trkpt lat="44.31027" lon="5.82116">
        <ele>559</ele>
        <time>2019-06-17T07:10:31Z</time>
      </trkpt>
      <trkpt lat="44.31023" lon="5.8211">
        <ele>559</ele>
        <time>2019-06-17T07:10:32Z</time>
      </trkpt>
      <trkpt lat="44.31019" lon="5.82104">
        <ele>559</ele>
        <time>2019-06-17T07:10:33Z</time>
      </trkpt>
      <trkpt lat="44.31015" lon="5.82099">
        <ele>559</ele>
        <time>2019-06-17T07:10:34Z</time>
      </trkpt>
      <trkpt lat="44.3101" lon="5.82093">
        <ele>559</ele>
        <time>2019-06-17T07:10:35Z</time>
      </trkpt>
      <trkpt lat="44.31005" lon="5.82087">
        <ele>559</ele>
        <time>2019-06-17T07:10:36Z</time>
      </trkpt>
      <trkpt lat="44.31" lon="5.82081">
        <ele>559</ele>
        <time>2019-06-17T07:10:37Z</time>
      </trkpt>
      <trkpt lat="44.30995" lon="5.82076">
        <ele>559</ele>
        <time>2019-06-17T07:10:38Z</time>
      </trkpt>
      <trkpt lat="44.3099" lon="5.82071">
        <ele>559</ele>
        <time>2019-06-17T07:10:39Z</time>
      </trkpt>
      <trkpt lat="44.30985" lon="5.82067">
        <ele>559</ele>
        <time>2019-06-17T07:10:40Z</time>
      </trkpt>
      <trkpt lat="44.3098" lon="5.82062">
        <ele>559</ele>
        <time>2019-06-17T07:10:41Z</time>
      </trkpt>
      <trkpt lat="44.30974" lon="5.82058">
        <ele>559</ele>
        <time>2019-06-17T07:10:42Z</time>
      </trkpt>
      <trkpt lat="44.30968" lon="5.82054">
        <ele>559</ele>
        <time>2019-06-17T07:10:43Z</time>
      </trkpt>
      <trkpt lat="44.30962" lon="5.8205">
        <ele>559</ele>
        <time>2019-06-17T07:10:44Z</time>
      </trkpt>
      <trkpt lat="44.30956" lon="5.82046">
        <ele>559</ele>
        <time>2019-06-17T07:10:45Z</time>
      </trkpt>
      <trkpt lat="44.30949" lon="5.82043">
        <ele>559</ele>
        <time>2019-06-17T07:10:46Z</time>
      </trkpt>
      <trkpt lat="44.30943" lon="5.82041">
        <ele>559</ele>
        <time>2019-06-17T07:10:47Z</time>
      </trkpt>
      <trkpt lat="44.30937" lon="5.82039">
        <ele>559</ele>
        <time>2019-06-17T07:10:48Z</time>
      </trkpt>
      <trkpt lat="44.3093" lon="5.82038">
        <ele>559</ele>
        <time>2019-06-17T07:10:49Z</time>
      </trkpt>
      <trkpt lat="44.30924" lon="5.82038">
        <ele>559</ele>
        <time>2019-06-17T07:10:50Z</time>
      </trkpt>
      <trkpt lat="44.30918" lon="5.82038">
        <ele>559</ele>
        <time>2019-06-17T07:10:51Z</time>
      </trkpt>
      <trkpt lat="44.30912" lon="5.82039">
        <ele>559</ele>
        <time>2019-06-17T07:10:52Z</time>
      </trkpt>
      <trkpt lat="44.30906" lon="5.8204">
        <ele>559</ele>
        <time>2019-06-17T07:10:53Z</time>
      </trkpt>
      <trkpt lat="44.30901" lon="5.82041">
        <ele>559</ele>
        <time>2019-06-17T07:10:54Z</time>
      </trkpt>
      <trkpt lat="44.30895" lon="5.82042">
        <ele>559</ele>
        <time>2019-06-17T07:10:55Z</time>
      </trkpt>
      <trkpt lat="44.3089" lon="5.82044">
        <ele>559</ele>
        <time>2019-06-17T07:10:56Z</time>
      </trkpt>
      <trkpt lat="44.30885" lon="5.82046">
        <ele>559</ele>
        <time>2019-06-17T07:10:57Z</time>
      </trkpt>
      <trkpt lat="44.3088" lon="5.82047">
        <ele>559</ele>
        <time>2019-06-17T07:10:58Z</time>
      </trkpt>
      <trkpt lat="44.30875" lon="5.82049">
        <ele>559</ele>
        <time>2019-06-17T07:10:59Z</time>
      </trkpt>
      <trkpt lat="44.3087" lon="5.8205">
        <ele>559</ele>
        <time>2019-06-17T07:11:00Z</time>
      </trkpt>
      <trkpt lat="44.30865" lon="5.82052">
        <ele>559</ele>
        <time>2019-06-17T07:11:01Z</time>
      </trkpt>
      <trkpt lat="44.3086" lon="5.82054">
        <ele>559</ele>
        <time>2019-06-17T07:11:02Z</time>
      </trkpt>
      <trkpt lat="44.30855" lon="5.82055">
        <ele>559</ele>
        <time>2019-06-17T07:11:03Z</time>
      </trkpt>
      <trkpt lat="44.3085" lon="5.82057">
        <ele>559</ele>
        <time>2019-06-17T07:11:04Z</time>
      </trkpt>
      <trkpt lat="44.30845" lon="5.82058">
        <ele>559</ele>
        <time>2019-06-17T07:11:05Z</time>
      </trkpt>
      <trkpt lat="44.3084" lon="5.82059">
        <ele>559</ele>
        <time>2019-06-17T07:11:06Z</time>
      </trkpt>
      <trkpt lat="44.30835" lon="5.82061">
        <ele>559</ele>
        <time>2019-06-17T07:11:07Z</time>
      </trkpt>
      <trkpt lat="44.3083" lon="5.82063">
        <ele>559</ele>
        <time>2019-06-17T07:11:08Z</time>
      </trkpt>
      <trkpt lat="44.30825" lon="5.82065">
        <ele>559</ele>
        <time>2019-06-17T07:11:09Z</time>
      </trkpt>
      <trkpt lat="44.3082" lon="5.82066">
        <ele>559</ele>
        <time>2019-06-17T07:11:10Z</time>
      </trkpt>
      <trkpt lat="44.30815" lon="5.82067">
        <ele>559</ele>
        <time>2019-06-17T07:11:11Z</time>
      </trkpt>
      <trkpt lat="44.3081" lon="5.82068">
        <ele>559</ele>
        <time>2019-06-17T07:11:12Z</time>
      </trkpt>
      <trkpt lat="44.30805" lon="5.82069">
        <ele>559</ele>
        <time>2019-06-17T07:11:13Z</time>
      </trkpt>
      <trkpt lat="44.308" lon="5.8207">
        <ele>559</ele>
        <time>2019-06-17T07:11:14Z</time>
      </trkpt>
      <trkpt lat="44.30794" lon="5.82072">
        <ele>559</ele>
        <time>2019-06-17T07:11:15Z</time>
      </trkpt>
      <trkpt lat="44.30789" lon="5.82073">
        <ele>559</ele>
        <time>2019-06-17T07:11:16Z</time>
      </trkpt>
      <trkpt lat="44.30784" lon="5.82076">
        <ele>559</ele>
        <time>2019-06-17T07:11:17Z</time>
      </trkpt>
      <trkpt lat="44.30779" lon="5.82078">
        <ele>559</ele>
        <time>2019-06-17T07:11:18Z</time>
      </trkpt>
      <trkpt lat="44.30774" lon="5.82081">
        <ele>559</ele>
        <time>2019-06-17T07:11:19Z</time>
      </trkpt>
      <trkpt lat="44.30769" lon="5.82084">
        <ele>559</ele>
        <time>2019-06-17T07:11:20Z</time>
      </trkpt>
      <trkpt lat="44.30764" lon="5.82087">
        <ele>559</ele>
        <time>2019-06-17T07:11:21Z</time>
      </trkpt>
      <trkpt lat="44.30759" lon="5.82092">
        <ele>559</ele>
        <time>2019-06-17T07:11:22Z</time>
      </trkpt>
      <trkpt lat="44.30755" lon="5.82096">
        <ele>559</ele>
        <time>2019-06-17T07:11:23Z</time>
      </trkpt>
      <trkpt lat="44.30751" lon="5.82101">
        <ele>559</ele>
        <time>2019-06-17T07:11:24Z</time>
      </trkpt>
      <trkpt lat="44.30747" lon="5.82107">
        <ele>559</ele>
        <time>2019-06-17T07:11:25Z</time>
      </trkpt>
      <trkpt lat="44.30743" lon="5.82113">
        <ele>560</ele>
        <time>2019-06-17T07:11:26Z</time>
      </trkpt>
      <trkpt lat="44.3074" lon="5.8212">
        <ele>560</ele>
        <time>2019-06-17T07:11:27Z</time>
      </trkpt>
      <trkpt lat="44.30737" lon="5.82127">
        <ele>560</ele>
        <time>2019-06-17T07:11:28Z</time>
      </trkpt>
      <trkpt lat="44.30735" lon="5.82134">
        <ele>560</ele>
        <time>2019-06-17T07:11:30Z</time>
      </trkpt>
      <trkpt lat="44.30732" lon="5.82142">
        <ele>560</ele>
        <time>2019-06-17T07:11:30Z</time>
      </trkpt>
      <trkpt lat="44.3073" lon="5.8215">
        <ele>560</ele>
        <time>2019-06-17T07:11:31Z</time>
      </trkpt>
      <trkpt lat="44.30727" lon="5.82158">
        <ele>560</ele>
        <time>2019-06-17T07:11:32Z</time>
      </trkpt>
      <trkpt lat="44.30724" lon="5.82166">
        <ele>560</ele>
        <time>2019-06-17T07:11:33Z</time>
      </trkpt>
      <trkpt lat="44.30721" lon="5.82174">
        <ele>561</ele>
        <time>2019-06-17T07:11:34Z</time>
      </trkpt>
      <trkpt lat="44.30718" lon="5.82181">
        <ele>561</ele>
        <time>2019-06-17T07:11:35Z</time>
      </trkpt>
      <trkpt lat="44.30715" lon="5.82188">
        <ele>561</ele>
        <time>2019-06-17T07:11:36Z</time>
      </trkpt>
      <trkpt lat="44.30712" lon="5.82196">
        <ele>561</ele>
        <time>2019-06-17T07:11:37Z</time>
      </trkpt>
      <trkpt lat="44.30708" lon="5.82202">
        <ele>561</ele>
        <time>2019-06-17T07:11:38Z</time>
      </trkpt>
      <trkpt lat="44.30704" lon="5.82209">
        <ele>561</ele>
        <time>2019-06-17T07:11:39Z</time>
      </trkpt>
      <trkpt lat="44.30701" lon="5.82216">
        <ele>561</ele>
        <time>2019-06-17T07:11:40Z</time>
      </trkpt>
      <trkpt lat="44.30697" lon="5.82222">
        <ele>561</ele>
        <time>2019-06-17T07:11:41Z</time>
      </trkpt>
      <trkpt lat="44.30693" lon="5.82229">
        <ele>561</ele>
        <time>2019-06-17T07:11:42Z</time>
      </trkpt>
      <trkpt lat="44.30689" lon="5.82235">
        <ele>561</ele>
        <time>2019-06-17T07:11:43Z</time>
      </trkpt>
      <trkpt lat="44.30685" lon="5.82241">
        <ele>561</ele>
        <time>2019-06-17T07:11:44Z</time>
      </trkpt>
      <trkpt lat="44.3068" lon="5.82247">
        <ele>561</ele>
        <time>2019-06-17T07:11:45Z</time>
      </trkpt>
      <trkpt lat="44.30676" lon="5.82253">
        <ele>561</ele>
        <time>2019-06-17T07:11:46Z</time>
      </trkpt>
      <trkpt lat="44.30671" lon="5.82258">
        <ele>561</ele>
        <time>2019-06-17T07:11:47Z</time>
      </trkpt>
      <trkpt lat="44.30666" lon="5.82264">
        <ele>561</ele>
        <time>2019-06-17T07:11:48Z</time>
      </trkpt>
      <trkpt lat="44.30661" lon="5.82269">
        <ele>561</ele>
        <time>2019-06-17T07:11:49Z</time>
      </trkpt>
      <trkpt lat="44.30655" lon="5.82274">
        <ele>561</ele>
        <time>2019-06-17T07:11:50Z</time>
      </trkpt>
      <trkpt lat="44.30649" lon="5.82278">
        <ele>561</ele>
        <time>2019-06-17T07:11:51Z</time>
      </trkpt>
      <trkpt lat="44.30643" lon="5.82283">
        <ele>561</ele>
        <time>2019-06-17T07:11:52Z</time>
      </trkpt>
      <trkpt lat="44.30637" lon="5.82288">
        <ele>561</ele>
        <time>2019-06-17T07:11:53Z</time>
      </trkpt>
      <trkpt lat="44.30631" lon="5.82292">
        <ele>561</ele>
        <time>2019-06-17T07:11:54Z</time>
      </trkpt>
      <trkpt lat="44.30625" lon="5.82296">
        <ele>561</ele>
        <time>2019-06-17T07:11:55Z</time>
      </trkpt>
      <trkpt lat="44.30618" lon="5.82299">
        <ele>561</ele>
        <time>2019-06-17T07:11:56Z</time>
      </trkpt>
      <trkpt lat="44.30611" lon="5.82301">
        <ele>561</ele>
        <time>2019-06-17T07:11:57Z</time>
      </trkpt>
      <trkpt lat="44.30604" lon="5.82303">
        <ele>561</ele>
        <time>2019-06-17T07:11:58Z</time>
      </trkpt>
      <trkpt lat="44.30597" lon="5.82304">
        <ele>561</ele>
        <time>2019-06-17T07:11:59Z</time>
      </trkpt>
      <trkpt lat="44.3059" lon="5.82306">
        <ele>561</ele>
        <time>2019-06-17T07:12:00Z</time>
      </trkpt>
      <trkpt lat="44.30582" lon="5.82306">
        <ele>561</ele>
        <time>2019-06-17T07:12:01Z</time>
      </trkpt>
      <trkpt lat="44.30575" lon="5.82307">
        <ele>561</ele>
        <time>2019-06-17T07:12:02Z</time>
      </trkpt>
      <trkpt lat="44.30567" lon="5.82308">
        <ele>561</ele>
        <time>2019-06-17T07:12:03Z</time>
      </trkpt>
      <trkpt lat="44.3056" lon="5.82309">
        <ele>561</ele>
        <time>2019-06-17T07:12:04Z</time>
      </trkpt>
      <trkpt lat="44.30553" lon="5.8231">
        <ele>561</ele>
        <time>2019-06-17T07:12:05Z</time>
      </trkpt>
      <trkpt lat="44.30546" lon="5.82311">
        <ele>561</ele>
        <time>2019-06-17T07:12:06Z</time>
      </trkpt>
      <trkpt lat="44.30539" lon="5.82312">
        <ele>561</ele>
        <time>2019-06-17T07:12:07Z</time>
      </trkpt>
      <trkpt lat="44.30532" lon="5.82313">
        <ele>561</ele>
        <time>2019-06-17T07:12:08Z</time>
      </trkpt>
      <trkpt lat="44.30525" lon="5.82314">
        <ele>561</ele>
        <time>2019-06-17T07:12:09Z</time>
      </trkpt>
      <trkpt lat="44.30517" lon="5.82315">
        <ele>561</ele>
        <time>2019-06-17T07:12:10Z</time>
      </trkpt>
      <trkpt lat="44.3051" lon="5.82316">
        <ele>561</ele>
        <time>2019-06-17T07:12:11Z</time>
      </trkpt>
      <trkpt lat="44.30502" lon="5.82317">
        <ele>561</ele>
        <time>2019-06-17T07:12:12Z</time>
      </trkpt>
      <trkpt lat="44.30495" lon="5.82317">
        <ele>561</ele>
        <time>2019-06-17T07:12:13Z</time>
      </trkpt>
      <trkpt lat="44.30488" lon="5.82317">
        <ele>561</ele>
        <time>2019-06-17T07:12:14Z</time>
      </trkpt>
      <trkpt lat="44.30481" lon="5.82317">
        <ele>561</ele>
        <time>2019-06-17T07:12:15Z</time>
      </trkpt>
      <trkpt lat="44.30473" lon="5.82317">
        <ele>561</ele>
        <time>2019-06-17T07:12:16Z</time>
      </trkpt>
      <trkpt lat="44.30466" lon="5.82317">
        <ele>561</ele>
        <time>2019-06-17T07:12:17Z</time>
      </trkpt>
      <trkpt lat="44.30459" lon="5.82317">
        <ele>561</ele>
        <time>2019-06-17T07:12:18Z</time>
      </trkpt>
      <trkpt lat="44.30452" lon="5.82317">
        <ele>561</ele>
        <time>2019-06-17T07:12:19Z</time>
      </trkpt>
      <trkpt lat="44.30445" lon="5.82317">
        <ele>561</ele>
        <time>2019-06-17T07:12:20Z</time>
      </trkpt>
      <trkpt lat="44.30439" lon="5.82317">
        <ele>561</ele>
        <time>2019-06-17T07:12:21Z</time>
      </trkpt>
      <trkpt lat="44.30431" lon="5.82317">
        <ele>561</ele>
        <time>2019-06-17T07:12:22Z</time>
      </trkpt>
      <trkpt lat="44.30425" lon="5.82317">
        <ele>561</ele>
        <time>2019-06-17T07:12:23Z</time>
      </trkpt>
      <trkpt lat="44.30418" lon="5.82317">
        <ele>561</ele>
        <time>2019-06-17T07:12:24Z</time>
      </trkpt>
      <trkpt lat="44.30411" lon="5.82318">
        <ele>561</ele>
        <time>2019-06-17T07:12:25Z</time>
      </trkpt>
      <trkpt lat="44.30404" lon="5.82319">
        <ele>561</ele>
        <time>2019-06-17T07:12:26Z</time>
      </trkpt>
      <trkpt lat="44.30397" lon="5.82319">
        <ele>561</ele>
        <time>2019-06-17T07:12:27Z</time>
      </trkpt>
      <trkpt lat="44.30391" lon="5.8232">
        <ele>561</ele>
        <time>2019-06-17T07:12:28Z</time>
      </trkpt>
      <trkpt lat="44.30384" lon="5.82321">
        <ele>561</ele>
        <time>2019-06-17T07:12:30Z</time>
      </trkpt>
      <trkpt lat="44.30378" lon="5.82322">
        <ele>561</ele>
        <time>2019-06-17T07:12:30Z</time>
      </trkpt>
      <trkpt lat="44.30371" lon="5.82323">
        <ele>561</ele>
        <time>2019-06-17T07:12:31Z</time>
      </trkpt>
      <trkpt lat="44.30365" lon="5.82324">
        <ele>561</ele>
        <time>2019-06-17T07:12:32Z</time>
      </trkpt>
      <trkpt lat="44.30358" lon="5.82326">
        <ele>561</ele>
        <time>2019-06-17T07:12:33Z</time>
      </trkpt>
      <trkpt lat="44.30352" lon="5.82327">
        <ele>561</ele>
        <time>2019-06-17T07:12:34Z</time>
      </trkpt>
      <trkpt lat="44.30345" lon="5.82328">
        <ele>561</ele>
        <time>2019-06-17T07:12:35Z</time>
      </trkpt>
      <trkpt lat="44.30338" lon="5.8233">
        <ele>561</ele>
        <time>2019-06-17T07:12:36Z</time>
      </trkpt>
      <trkpt lat="44.30332" lon="5.82331">
        <ele>561</ele>
        <time>2019-06-17T07:12:37Z</time>
      </trkpt>
      <trkpt lat="44.30325" lon="5.82332">
        <ele>561</ele>
        <time>2019-06-17T07:12:38Z</time>
      </trkpt>
      <trkpt lat="44.30319" lon="5.82333">
        <ele>561</ele>
        <time>2019-06-17T07:12:39Z</time>
      </trkpt>
      <trkpt lat="44.30312" lon="5.82334">
        <ele>561</ele>
        <time>2019-06-17T07:12:40Z</time>
      </trkpt>
      <trkpt lat="44.30305" lon="5.82335">
        <ele>561</ele>
        <time>2019-06-17T07:12:41Z</time>
      </trkpt>
      <trkpt lat="44.30299" lon="5.82337">
        <ele>561</ele>
        <time>2019-06-17T07:12:42Z</time>
      </trkpt>
      <trkpt lat="44.30292" lon="5.82338">
        <ele>561</ele>
        <time>2019-06-17T07:12:43Z</time>
      </trkpt>
      <trkpt lat="44.30285" lon="5.82339">
        <ele>561</ele>
        <time>2019-06-17T07:12:44Z</time>
      </trkpt>
      <trkpt lat="44.30279" lon="5.8234">
        <ele>561</ele>
        <time>2019-06-17T07:12:45Z</time>
      </trkpt>
      <trkpt lat="44.30272" lon="5.82342">
        <ele>561</ele>
        <time>2019-06-17T07:12:46Z</time>
      </trkpt>
      <trkpt lat="44.30265" lon="5.82343">
        <ele>561</ele>
        <time>2019-06-17T07:12:47Z</time>
      </trkpt>
      <trkpt lat="44.30259" lon="5.82344">
        <ele>561</ele>
        <time>2019-06-17T07:12:48Z</time>
      </trkpt>
      <trkpt lat="44.30252" lon="5.82345">
        <ele>561</ele>
        <time>2019-06-17T07:12:49Z</time>
      </trkpt>
      <trkpt lat="44.30245" lon="5.82346">
        <ele>561</ele>
        <time>2019-06-17T07:12:50Z</time>
      </trkpt>
      <trkpt lat="44.30238" lon="5.82347">
        <ele>561</ele>
        <time>2019-06-17T07:12:52Z</time>
      </trkpt>
      <trkpt lat="44.30232" lon="5.82347">
        <ele>561</ele>
        <time>2019-06-17T07:12:52Z</time>
      </trkpt>
      <trkpt lat="44.30225" lon="5.82348">
        <ele>561</ele>
        <time>2019-06-17T07:12:53Z</time>
      </trkpt>
      <trkpt lat="44.30218" lon="5.82348">
        <ele>561</ele>
        <time>2019-06-17T07:12:54Z</time>
      </trkpt>
      <trkpt lat="44.30211" lon="5.82349">
        <ele>561</ele>
        <time>2019-06-17T07:12:55Z</time>
      </trkpt>
      <trkpt lat="44.30205" lon="5.82349">
        <ele>561</ele>
        <time>2019-06-17T07:12:56Z</time>
      </trkpt>
      <trkpt lat="44.30198" lon="5.82349">
        <ele>561</ele>
        <time>2019-06-17T07:12:57Z</time>
      </trkpt>
      <trkpt lat="44.30191" lon="5.82348">
        <ele>561</ele>
        <time>2019-06-17T07:12:58Z</time>
      </trkpt>
      <trkpt lat="44.30185" lon="5.82348">
        <ele>561</ele>
        <time>2019-06-17T07:12:59Z</time>
      </trkpt>
      <trkpt lat="44.30178" lon="5.82348">
        <ele>561</ele>
        <time>2019-06-17T07:13:00Z</time>
      </trkpt>
      <trkpt lat="44.30171" lon="5.82348">
        <ele>561</ele>
        <time>2019-06-17T07:13:01Z</time>
      </trkpt>
      <trkpt lat="44.30164" lon="5.82347">
        <ele>561</ele>
        <time>2019-06-17T07:13:02Z</time>
      </trkpt>
      <trkpt lat="44.30157" lon="5.82347">
        <ele>561</ele>
        <time>2019-06-17T07:13:03Z</time>
      </trkpt>
      <trkpt lat="44.3015" lon="5.82346">
        <ele>561</ele>
        <time>2019-06-17T07:13:04Z</time>
      </trkpt>
      <trkpt lat="44.30143" lon="5.82345">
        <ele>561</ele>
        <time>2019-06-17T07:13:05Z</time>
      </trkpt>
      <trkpt lat="44.30136" lon="5.82345">
        <ele>561</ele>
        <time>2019-06-17T07:13:06Z</time>
      </trkpt>
      <trkpt lat="44.30129" lon="5.82345">
        <ele>561</ele>
        <time>2019-06-17T07:13:07Z</time>
      </trkpt>
      <trkpt lat="44.30122" lon="5.82344">
        <ele>561</ele>
        <time>2019-06-17T07:13:08Z</time>
      </trkpt>
      <trkpt lat="44.30116" lon="5.82344">
        <ele>561</ele>
        <time>2019-06-17T07:13:09Z</time>
      </trkpt>
      <trkpt lat="44.30109" lon="5.82343">
        <ele>561</ele>
        <time>2019-06-17T07:13:10Z</time>
      </trkpt>
      <trkpt lat="44.30102" lon="5.82343">
        <ele>561</ele>
        <time>2019-06-17T07:13:11Z</time>
      </trkpt>
      <trkpt lat="44.30096" lon="5.82343">
        <ele>561</ele>
        <time>2019-06-17T07:13:12Z</time>
      </trkpt>
      <trkpt lat="44.30089" lon="5.82342">
        <ele>561</ele>
        <time>2019-06-17T07:13:13Z</time>
      </trkpt>
      <trkpt lat="44.30082" lon="5.82342">
        <ele>561</ele>
        <time>2019-06-17T07:13:14Z</time>
      </trkpt>
      <trkpt lat="44.30075" lon="5.82342">
        <ele>561</ele>
        <time>2019-06-17T07:13:15Z</time>
      </trkpt>
      <trkpt lat="44.30069" lon="5.82341">
        <ele>561</ele>
        <time>2019-06-17T07:13:16Z</time>
      </trkpt>
      <trkpt lat="44.30062" lon="5.8234">
        <ele>561</ele>
        <time>2019-06-17T07:13:17Z</time>
      </trkpt>
      <trkpt lat="44.30055" lon="5.82339">
        <ele>561</ele>
        <time>2019-06-17T07:13:18Z</time>
      </trkpt>
      <trkpt lat="44.30049" lon="5.82338">
        <ele>561</ele>
        <time>2019-06-17T07:13:19Z</time>
      </trkpt>
      <trkpt lat="44.30042" lon="5.82338">
        <ele>561</ele>
        <time>2019-06-17T07:13:20Z</time>
      </trkpt>
      <trkpt lat="44.30036" lon="5.82337">
        <ele>561</ele>
        <time>2019-06-17T07:13:21Z</time>
      </trkpt>
      <trkpt lat="44.3003" lon="5.82336">
        <ele>561</ele>
        <time>2019-06-17T07:13:22Z</time>
      </trkpt>
      <trkpt lat="44.30023" lon="5.82334">
        <ele>561</ele>
        <time>2019-06-17T07:13:23Z</time>
      </trkpt>
      <trkpt lat="44.30016" lon="5.82333">
        <ele>561</ele>
        <time>2019-06-17T07:13:24Z</time>
      </trkpt>
      <trkpt lat="44.3001" lon="5.82331">
        <ele>561</ele>
        <time>2019-06-17T07:13:25Z</time>
      </trkpt>
      <trkpt lat="44.30003" lon="5.8233">
        <ele>561</ele>
        <time>2019-06-17T07:13:26Z</time>
      </trkpt>
      <trkpt lat="44.29997" lon="5.82328">
        <ele>560</ele>
        <time>2019-06-17T07:13:27Z</time>
      </trkpt>
      <trkpt lat="44.2999" lon="5.82326">
        <ele>560</ele>
        <time>2019-06-17T07:13:28Z</time>
      </trkpt>
      <trkpt lat="44.29984" lon="5.82324">
        <ele>560</ele>
        <time>2019-06-17T07:13:30Z</time>
      </trkpt>
      <trkpt lat="44.29977" lon="5.82322">
        <ele>560</ele>
        <time>2019-06-17T07:13:30Z</time>
      </trkpt>
      <trkpt lat="44.29971" lon="5.82319">
        <ele>560</ele>
        <time>2019-06-17T07:13:31Z</time>
      </trkpt>
      <trkpt lat="44.29964" lon="5.82317">
        <ele>560</ele>
        <time>2019-06-17T07:13:32Z</time>
      </trkpt>
      <trkpt lat="44.29958" lon="5.82314">
        <ele>560</ele>
        <time>2019-06-17T07:13:33Z</time>
      </trkpt>
      <trkpt lat="44.29951" lon="5.82311">
        <ele>560</ele>
        <time>2019-06-17T07:13:34Z</time>
      </trkpt>
      <trkpt lat="44.29944" lon="5.82309">
        <ele>560</ele>
        <time>2019-06-17T07:13:35Z</time>
      </trkpt>
      <trkpt lat="44.29937" lon="5.82306">
        <ele>560</ele>
        <time>2019-06-17T07:13:36Z</time>
      </trkpt>
      <trkpt lat="44.29931" lon="5.82302">
        <ele>560</ele>
        <time>2019-06-17T07:13:37Z</time>
      </trkpt>
      <trkpt lat="44.29924" lon="5.82299">
        <ele>560</ele>
        <time>2019-06-17T07:13:38Z</time>
      </trkpt>
      <trkpt lat="44.29918" lon="5.82296">
        <ele>560</ele>
        <time>2019-06-17T07:13:39Z</time>
      </trkpt>
      <trkpt lat="44.29911" lon="5.82293">
        <ele>560</ele>
        <time>2019-06-17T07:13:40Z</time>
      </trkpt>
      <trkpt lat="44.29905" lon="5.82289">
        <ele>559</ele>
        <time>2019-06-17T07:13:41Z</time>
      </trkpt>
      <trkpt lat="44.29898" lon="5.82285">
        <ele>559</ele>
        <time>2019-06-17T07:13:42Z</time>
      </trkpt>
      <trkpt lat="44.29892" lon="5.82281">
        <ele>559</ele>
        <time>2019-06-17T07:13:43Z</time>
      </trkpt>
      <trkpt lat="44.29885" lon="5.82277">
        <ele>559</ele>
        <time>2019-06-17T07:13:44Z</time>
      </trkpt>
      <trkpt lat="44.29879" lon="5.82273">
        <ele>559</ele>
        <time>2019-06-17T07:13:45Z</time>
      </trkpt>
      <trkpt lat="44.29872" lon="5.8227">
        <ele>559</ele>
        <time>2019-06-17T07:13:46Z</time>
      </trkpt>
      <trkpt lat="44.29865" lon="5.82267">
        <ele>559</ele>
        <time>2019-06-17T07:13:47Z</time>
      </trkpt>
      <trkpt lat="44.29858" lon="5.82264">
        <ele>559</ele>
        <time>2019-06-17T07:13:48Z</time>
      </trkpt>
      <trkpt lat="44.29852" lon="5.82261">
        <ele>559</ele>
        <time>2019-06-17T07:13:49Z</time>
      </trkpt>
      <trkpt lat="44.29845" lon="5.82259">
        <ele>559</ele>
        <time>2019-06-17T07:13:50Z</time>
      </trkpt>
      <trkpt lat="44.29838" lon="5.82257">
        <ele>559</ele>
        <time>2019-06-17T07:13:51Z</time>
      </trkpt>
      <trkpt lat="44.29831" lon="5.82255">
        <ele>559</ele>
        <time>2019-06-17T07:13:52Z</time>
      </trkpt>
      <trkpt lat="44.29824" lon="5.82253">
        <ele>559</ele>
        <time>2019-06-17T07:13:53Z</time>
      </trkpt>
      <trkpt lat="44.29816" lon="5.82251">
        <ele>559</ele>
        <time>2019-06-17T07:13:54Z</time>
      </trkpt>
      <trkpt lat="44.2981" lon="5.8225">
        <ele>559</ele>
        <time>2019-06-17T07:13:55Z</time>
      </trkpt>
      <trkpt lat="44.29803" lon="5.82249">
        <ele>559</ele>
        <time>2019-06-17T07:13:56Z</time>
      </trkpt>
      <trkpt lat="44.29796" lon="5.82248">
        <ele>559</ele>
        <time>2019-06-17T07:13:57Z</time>
      </trkpt>
      <trkpt lat="44.29789" lon="5.82247">
        <ele>559</ele>
        <time>2019-06-17T07:13:58Z</time>
      </trkpt>
      <trkpt lat="44.29782" lon="5.82245">
        <ele>559</ele>
        <time>2019-06-17T07:13:59Z</time>
      </trkpt>
      <trkpt lat="44.29776" lon="5.82244">
        <ele>559</ele>
        <time>2019-06-17T07:14:00Z</time>
      </trkpt>
      <trkpt lat="44.29769" lon="5.82243">
        <ele>559</ele>
        <time>2019-06-17T07:14:01Z</time>
      </trkpt>
      <trkpt lat="44.29762" lon="5.82241">
        <ele>559</ele>
        <time>2019-06-17T07:14:02Z</time>
      </trkpt>
      <trkpt lat="44.29756" lon="5.82239">
        <ele>559</ele>
        <time>2019-06-17T07:14:03Z</time>
      </trkpt>
      <trkpt lat="44.29749" lon="5.82237">
        <ele>559</ele>
        <time>2019-06-17T07:14:04Z</time>
      </trkpt>
      <trkpt lat="44.29743" lon="5.82235">
        <ele>559</ele>
        <time>2019-06-17T07:14:05Z</time>
      </trkpt>
      <trkpt lat="44.29737" lon="5.82232">
        <ele>559</ele>
        <time>2019-06-17T07:14:06Z</time>
      </trkpt>
      <trkpt lat="44.2973" lon="5.82229">
        <ele>559</ele>
        <time>2019-06-17T07:14:07Z</time>
      </trkpt>
      <trkpt lat="44.29724" lon="5.82225">
        <ele>559</ele>
        <time>2019-06-17T07:14:08Z</time>
      </trkpt>
      <trkpt lat="44.29718" lon="5.82221">
        <ele>559</ele>
        <time>2019-06-17T07:14:09Z</time>
      </trkpt>
      <trkpt lat="44.29711" lon="5.82217">
        <ele>559</ele>
        <time>2019-06-17T07:14:10Z</time>
      </trkpt>
      <trkpt lat="44.29705" lon="5.82213">
        <ele>559</ele>
        <time>2019-06-17T07:14:11Z</time>
      </trkpt>
      <trkpt lat="44.29699" lon="5.82208">
        <ele>559</ele>
        <time>2019-06-17T07:14:12Z</time>
      </trkpt>
      <trkpt lat="44.29693" lon="5.82203">
        <ele>559</ele>
        <time>2019-06-17T07:14:13Z</time>
      </trkpt>
      <trkpt lat="44.29688" lon="5.82198">
        <ele>559</ele>
        <time>2019-06-17T07:14:14Z</time>
      </trkpt>
      <trkpt lat="44.29682" lon="5.82193">
        <ele>559</ele>
        <time>2019-06-17T07:14:15Z</time>
      </trkpt>
      <trkpt lat="44.29677" lon="5.82187">
        <ele>559</ele>
        <time>2019-06-17T07:14:16Z</time>
      </trkpt>
      <trkpt lat="44.29671" lon="5.82181">
        <ele>559</ele>
        <time>2019-06-17T07:14:17Z</time>
      </trkpt>
      <trkpt lat="44.29666" lon="5.82175">
        <ele>559</ele>
        <time>2019-06-17T07:14:18Z</time>
      </trkpt>
      <trkpt lat="44.2966" lon="5.8217">
        <ele>559</ele>
        <time>2019-06-17T07:14:19Z</time>
      </trkpt>
      <trkpt lat="44.29655" lon="5.82164">
        <ele>559</ele>
        <time>2019-06-17T07:14:20Z</time>
      </trkpt>
      <trkpt lat="44.2965" lon="5.82158">
        <ele>559</ele>
        <time>2019-06-17T07:14:21Z</time>
      </trkpt>
      <trkpt lat="44.29644" lon="5.82153">
        <ele>559</ele>
        <time>2019-06-17T07:14:22Z</time>
      </trkpt>
      <trkpt lat="44.29639" lon="5.82148">
        <ele>559</ele>
        <time>2019-06-17T07:14:23Z</time>
      </trkpt>
      <trkpt lat="44.29633" lon="5.82143">
        <ele>559</ele>
        <time>2019-06-17T07:14:24Z</time>
      </trkpt>
      <trkpt lat="44.29627" lon="5.82139">
        <ele>559</ele>
        <time>2019-06-17T07:14:25Z</time>
      </trkpt>
      <trkpt lat="44.29622" lon="5.82135">
        <ele>559</ele>
        <time>2019-06-17T07:14:26Z</time>
      </trkpt>
      <trkpt lat="44.29616" lon="5.82131">
        <ele>559</ele>
        <time>2019-06-17T07:14:27Z</time>
      </trkpt>
      <trkpt lat="44.2961" lon="5.82127">
        <ele>559</ele>
        <time>2019-06-17T07:14:28Z</time>
      </trkpt>
      <trkpt lat="44.29604" lon="5.82124">
        <ele>559</ele>
        <time>2019-06-17T07:14:30Z</time>
      </trkpt>
      <trkpt lat="44.29599" lon="5.8212">
        <ele>559</ele>
        <time>2019-06-17T07:14:30Z</time>
      </trkpt>
      <trkpt lat="44.29593" lon="5.82117">
        <ele>559</ele>
        <time>2019-06-17T07:14:31Z</time>
      </trkpt>
      <trkpt lat="44.29588" lon="5.82114">
        <ele>559</ele>
        <time>2019-06-17T07:14:32Z</time>
      </trkpt>
      <trkpt lat="44.29582" lon="5.82112">
        <ele>559</ele>
        <time>2019-06-17T07:14:33Z</time>
      </trkpt>
      <trkpt lat="44.29576" lon="5.82109">
        <ele>559</ele>
        <time>2019-06-17T07:14:34Z</time>
      </trkpt>
      <trkpt lat="44.2957" lon="5.82107">
        <ele>559</ele>
        <time>2019-06-17T07:14:35Z</time>
      </trkpt>
      <trkpt lat="44.29564" lon="5.82105">
        <ele>559</ele>
        <time>2019-06-17T07:14:36Z</time>
      </trkpt>
      <trkpt lat="44.29558" lon="5.82104">
        <ele>559</ele>
        <time>2019-06-17T07:14:37Z</time>
      </trkpt>
      <trkpt lat="44.29552" lon="5.82102">
        <ele>559</ele>
        <time>2019-06-17T07:14:38Z</time>
      </trkpt>
      <trkpt lat="44.29546" lon="5.82101">
        <ele>559</ele>
        <time>2019-06-17T07:14:39Z</time>
      </trkpt>
      <trkpt lat="44.2954" lon="5.821">
        <ele>559</ele>
        <time>2019-06-17T07:14:40Z</time>
      </trkpt>
      <trkpt lat="44.29534" lon="5.82099">
        <ele>559</ele>
        <time>2019-06-17T07:14:41Z</time>
      </trkpt>
      <trkpt lat="44.29529" lon="5.82098">
        <ele>559</ele>
        <time>2019-06-17T07:14:42Z</time>
      </trkpt>
      <trkpt lat="44.29523" lon="5.82097">
        <ele>559</ele>
        <time>2019-06-17T07:14:43Z</time>
      </trkpt>
      <trkpt lat="44.29517" lon="5.82097">
        <ele>559</ele>
        <time>2019-06-17T07:14:44Z</time>
      </trkpt>
      <trkpt lat="44.29511" lon="5.82096">
        <ele>559</ele>
        <time>2019-06-17T07:14:45Z</time>
      </trkpt>
      <trkpt lat="44.29506" lon="5.82095">
        <ele>559</ele>
        <time>2019-06-17T07:14:46Z</time>
      </trkpt>
      <trkpt lat="44.29499" lon="5.82095">
        <ele>559</ele>
        <time>2019-06-17T07:14:47Z</time>
      </trkpt>
      <trkpt lat="44.29494" lon="5.82095">
        <ele>559</ele>
        <time>2019-06-17T07:14:48Z</time>
      </trkpt>
      <trkpt lat="44.29488" lon="5.82096">
        <ele>559</ele>
        <time>2019-06-17T07:14:49Z</time>
      </trkpt>
      <trkpt lat="44.29482" lon="5.82097">
        <ele>560</ele>
        <time>2019-06-17T07:14:50Z</time>
      </trkpt>
      <trkpt lat="44.29476" lon="5.82099">
        <ele>560</ele>
        <time>2019-06-17T07:14:51Z</time>
      </trkpt>
      <trkpt lat="44.2947" lon="5.82101">
        <ele>560</ele>
        <time>2019-06-17T07:14:52Z</time>
      </trkpt>
      <trkpt lat="44.29464" lon="5.82104">
        <ele>560</ele>
        <time>2019-06-17T07:14:53Z</time>
      </trkpt>
      <trkpt lat="44.29458" lon="5.82107">
        <ele>560</ele>
        <time>2019-06-17T07:14:54Z</time>
      </trkpt>
      <trkpt lat="44.29453" lon="5.8211">
        <ele>560</ele>
        <time>2019-06-17T07:14:55Z</time>
      </trkpt>
      <trkpt lat="44.29447" lon="5.82114">
        <ele>560</ele>
        <time>2019-06-17T07:14:56Z</time>
      </trkpt>
      <trkpt lat="44.29441" lon="5.82118">
        <ele>560</ele>
        <time>2019-06-17T07:14:57Z</time>
      </trkpt>
      <trkpt lat="44.29436" lon="5.82123">
        <ele>560</ele>
        <time>2019-06-17T07:14:58Z</time>
      </trkpt>
      <trkpt lat="44.29431" lon="5.82128">
        <ele>560</ele>
        <time>2019-06-17T07:14:59Z</time>
      </trkpt>
      <trkpt lat="44.29426" lon="5.82133">
        <ele>560</ele>
        <time>2019-06-17T07:15:00Z</time>
      </trkpt>
      <trkpt lat="44.29421" lon="5.82139">
        <ele>560</ele>
        <time>2019-06-17T07:15:01Z</time>
      </trkpt>
      <trkpt lat="44.29416" lon="5.82144">
        <ele>560</ele>
        <time>2019-06-17T07:15:02Z</time>
      </trkpt>
      <trkpt lat="44.29411" lon="5.8215">
        <ele>560</ele>
        <time>2019-06-17T07:15:03Z</time>
      </trkpt>
      <trkpt lat="44.29406" lon="5.82156">
        <ele>560</ele>
        <time>2019-06-17T07:15:04Z</time>
      </trkpt>
      <trkpt lat="44.29401" lon="5.82161">
        <ele>560</ele>
        <time>2019-06-17T07:15:05Z</time>
      </trkpt>
      <trkpt lat="44.29396" lon="5.82167">
        <ele>560</ele>
        <time>2019-06-17T07:15:06Z</time>
      </trkpt>
      <trkpt lat="44.29392" lon="5.82172">
        <ele>560</ele>
        <time>2019-06-17T07:15:07Z</time>
      </trkpt>
      <trkpt lat="44.29387" lon="5.82178">
        <ele>560</ele>
        <time>2019-06-17T07:15:08Z</time>
      </trkpt>
      <trkpt lat="44.29383" lon="5.82183">
        <ele>560</ele>
        <time>2019-06-17T07:15:09Z</time>
      </trkpt>
      <trkpt lat="44.29378" lon="5.82188">
        <ele>561</ele>
        <time>2019-06-17T07:15:10Z</time>
      </trkpt>
      <trkpt lat="44.29374" lon="5.82193">
        <ele>561</ele>
        <time>2019-06-17T07:15:11Z</time>
      </trkpt>
      <trkpt lat="44.29369" lon="5.82198">
        <ele>561</ele>
        <time>2019-06-17T07:15:12Z</time>
      </trkpt>
      <trkpt lat="44.29364" lon="5.82202">
        <ele>561</ele>
        <time>2019-06-17T07:15:13Z</time>
      </trkpt>
      <trkpt lat="44.29358" lon="5.82206">
        <ele>562</ele>
        <time>2019-06-17T07:15:14Z</time>
      </trkpt>
      <trkpt lat="44.29353" lon="5.82209">
        <ele>562</ele>
        <time>2019-06-17T07:15:15Z</time>
      </trkpt>
      <trkpt lat="44.29348" lon="5.82212">
        <ele>562</ele>
        <time>2019-06-17T07:15:16Z</time>
      </trkpt>
      <trkpt lat="44.29342" lon="5.82215">
        <ele>562</ele>
        <time>2019-06-17T07:15:17Z</time>
      </trkpt>
      <trkpt lat="44.29337" lon="5.82218">
        <ele>562</ele>
        <time>2019-06-17T07:15:18Z</time>
      </trkpt>
      <trkpt lat="44.29331" lon="5.82221">
        <ele>562</ele>
        <time>2019-06-17T07:15:19Z</time>
      </trkpt>
      <trkpt lat="44.29325" lon="5.82224">
        <ele>562</ele>
        <time>2019-06-17T07:15:20Z</time>
      </trkpt>
      <trkpt lat="44.2932" lon="5.82226">
        <ele>562</ele>
        <time>2019-06-17T07:15:21Z</time>
      </trkpt>
      <trkpt lat="44.29314" lon="5.82229">
        <ele>562</ele>
        <time>2019-06-17T07:15:22Z</time>
      </trkpt>
      <trkpt lat="44.29308" lon="5.82232">
        <ele>562</ele>
        <time>2019-06-17T07:15:23Z</time>
      </trkpt>
      <trkpt lat="44.29302" lon="5.82235">
        <ele>562</ele>
        <time>2019-06-17T07:15:24Z</time>
      </trkpt>
      <trkpt lat="44.29296" lon="5.82237">
        <ele>562</ele>
        <time>2019-06-17T07:15:25Z</time>
      </trkpt>
      <trkpt lat="44.2929" lon="5.8224">
        <ele>562</ele>
        <time>2019-06-17T07:15:26Z</time>
      </trkpt>
      <trkpt lat="44.29283" lon="5.82243">
        <ele>562</ele>
        <time>2019-06-17T07:15:27Z</time>
      </trkpt>
      <trkpt lat="44.29276" lon="5.82245">
        <ele>562</ele>
        <time>2019-06-17T07:15:28Z</time>
      </trkpt>
      <trkpt lat="44.29269" lon="5.82248">
        <ele>562</ele>
        <time>2019-06-17T07:15:30Z</time>
      </trkpt>
      <trkpt lat="44.29263" lon="5.8225">
        <ele>562</ele>
        <time>2019-06-17T07:15:30Z</time>
      </trkpt>
      <trkpt lat="44.29256" lon="5.82252">
        <ele>562</ele>
        <time>2019-06-17T07:15:31Z</time>
      </trkpt>
      <trkpt lat="44.29249" lon="5.82254">
        <ele>562</ele>
        <time>2019-06-17T07:15:32Z</time>
      </trkpt>
      <trkpt lat="44.29242" lon="5.82255">
        <ele>562</ele>
        <time>2019-06-17T07:15:33Z</time>
      </trkpt>
      <trkpt lat="44.29235" lon="5.82256">
        <ele>562</ele>
        <time>2019-06-17T07:15:34Z</time>
      </trkpt>
      <trkpt lat="44.29228" lon="5.82257">
        <ele>562</ele>
        <time>2019-06-17T07:15:35Z</time>
      </trkpt>
      <trkpt lat="44.29221" lon="5.82258">
        <ele>562</ele>
        <time>2019-06-17T07:15:36Z</time>
      </trkpt>
      <trkpt lat="44.29214" lon="5.82258">
        <ele>562</ele>
        <time>2019-06-17T07:15:37Z</time>
      </trkpt>
      <trkpt lat="44.29207" lon="5.82259">
        <ele>562</ele>
        <time>2019-06-17T07:15:38Z</time>
      </trkpt>
      <trkpt lat="44.292" lon="5.82259">
        <ele>562</ele>
        <time>2019-06-17T07:15:39Z</time>
      </trkpt>
      <trkpt lat="44.29194" lon="5.8226">
        <ele>562</ele>
        <time>2019-06-17T07:15:40Z</time>
      </trkpt>
      <trkpt lat="44.29187" lon="5.82261">
        <ele>562</ele>
        <time>2019-06-17T07:15:41Z</time>
      </trkpt>
      <trkpt lat="44.29181" lon="5.82262">
        <ele>562</ele>
        <time>2019-06-17T07:15:42Z</time>
      </trkpt>
      <trkpt lat="44.29174" lon="5.82263">
        <ele>562</ele>
        <time>2019-06-17T07:15:43Z</time>
      </trkpt>
      <trkpt lat="44.29167" lon="5.82263">
        <ele>562</ele>
        <time>2019-06-17T07:15:44Z</time>
      </trkpt>
      <trkpt lat="44.2916" lon="5.82264">
        <ele>562</ele>
        <time>2019-06-17T07:15:45Z</time>
      </trkpt>
      <trkpt lat="44.29153" lon="5.82265">
        <ele>562</ele>
        <time>2019-06-17T07:15:46Z</time>
      </trkpt>
      <trkpt lat="44.29147" lon="5.82265">
        <ele>562</ele>
        <time>2019-06-17T07:15:47Z</time>
      </trkpt>
      <trkpt lat="44.2914" lon="5.82266">
        <ele>562</ele>
        <time>2019-06-17T07:15:48Z</time>
      </trkpt>
      <trkpt lat="44.29133" lon="5.82267">
        <ele>562</ele>
        <time>2019-06-17T07:15:49Z</time>
      </trkpt>
      <trkpt lat="44.29126" lon="5.82267">
        <ele>562</ele>
        <time>2019-06-17T07:15:50Z</time>
      </trkpt>
      <trkpt lat="44.29119" lon="5.82268">
        <ele>562</ele>
        <time>2019-06-17T07:15:51Z</time>
      </trkpt>
      <trkpt lat="44.29113" lon="5.82269">
        <ele>562</ele>
        <time>2019-06-17T07:15:52Z</time>
      </trkpt>
      <trkpt lat="44.29106" lon="5.8227">
        <ele>562</ele>
        <time>2019-06-17T07:15:53Z</time>
      </trkpt>
      <trkpt lat="44.29099" lon="5.82271">
        <ele>562</ele>
        <time>2019-06-17T07:15:54Z</time>
      </trkpt>
      <trkpt lat="44.29092" lon="5.82271">
        <ele>562</ele>
        <time>2019-06-17T07:15:55Z</time>
      </trkpt>
      <trkpt lat="44.29085" lon="5.82272">
        <ele>562</ele>
        <time>2019-06-17T07:15:56Z</time>
      </trkpt>
      <trkpt lat="44.29079" lon="5.82273">
        <ele>562</ele>
        <time>2019-06-17T07:15:57Z</time>
      </trkpt>
      <trkpt lat="44.29072" lon="5.82273">
        <ele>562</ele>
        <time>2019-06-17T07:15:58Z</time>
      </trkpt>
      <trkpt lat="44.29065" lon="5.82274">
        <ele>562</ele>
        <time>2019-06-17T07:15:59Z</time>
      </trkpt>
      <trkpt lat="44.29059" lon="5.82275">
        <ele>562</ele>
        <time>2019-06-17T07:16:00Z</time>
      </trkpt>
      <trkpt lat="44.29052" lon="5.82275">
        <ele>562</ele>
        <time>2019-06-17T07:16:01Z</time>
      </trkpt>
      <trkpt lat="44.29046" lon="5.82276">
        <ele>562</ele>
        <time>2019-06-17T07:16:02Z</time>
      </trkpt>
      <trkpt lat="44.29041" lon="5.82276">
        <ele>562</ele>
        <time>2019-06-17T07:16:03Z</time>
      </trkpt>
      <trkpt lat="44.29035" lon="5.82277">
        <ele>562</ele>
        <time>2019-06-17T07:16:04Z</time>
      </trkpt>
      <trkpt lat="44.29029" lon="5.82278">
        <ele>562</ele>
        <time>2019-06-17T07:16:05Z</time>
      </trkpt>
      <trkpt lat="44.29023" lon="5.82278">
        <ele>562</ele>
        <time>2019-06-17T07:16:06Z</time>
      </trkpt>
      <trkpt lat="44.29018" lon="5.82279">
        <ele>562</ele>
        <time>2019-06-17T07:16:07Z</time>
      </trkpt>
      <trkpt lat="44.29012" lon="5.82279">
        <ele>562</ele>
        <time>2019-06-17T07:16:08Z</time>
      </trkpt>
      <trkpt lat="44.29007" lon="5.82279">
        <ele>562</ele>
        <time>2019-06-17T07:16:09Z</time>
      </trkpt>
      <trkpt lat="44.29002" lon="5.8228">
        <ele>562</ele>
        <time>2019-06-17T07:16:10Z</time>
      </trkpt>
      <trkpt lat="44.28996" lon="5.82281">
        <ele>562</ele>
        <time>2019-06-17T07:16:11Z</time>
      </trkpt>
      <trkpt lat="44.28991" lon="5.82282">
        <ele>562</ele>
        <time>2019-06-17T07:16:12Z</time>
      </trkpt>
      <trkpt lat="44.28986" lon="5.82283">
        <ele>562</ele>
        <time>2019-06-17T07:16:13Z</time>
      </trkpt>
      <trkpt lat="44.2898" lon="5.82283">
        <ele>563</ele>
        <time>2019-06-17T07:16:14Z</time>
      </trkpt>
      <trkpt lat="44.28975" lon="5.82284">
        <ele>563</ele>
        <time>2019-06-17T07:16:15Z</time>
      </trkpt>
      <trkpt lat="44.2897" lon="5.82284">
        <ele>563</ele>
        <time>2019-06-17T07:16:16Z</time>
      </trkpt>
      <trkpt lat="44.28965" lon="5.82285">
        <ele>564</ele>
        <time>2019-06-17T07:16:17Z</time>
      </trkpt>
      <trkpt lat="44.2896" lon="5.82285">
        <ele>564</ele>
        <time>2019-06-17T07:16:18Z</time>
      </trkpt>
      <trkpt lat="44.28955" lon="5.82285">
        <ele>564</ele>
        <time>2019-06-17T07:16:19Z</time>
      </trkpt>
      <trkpt lat="44.2895" lon="5.82286">
        <ele>564</ele>
        <time>2019-06-17T07:16:20Z</time>
      </trkpt>
      <trkpt lat="44.28945" lon="5.82286">
        <ele>565</ele>
        <time>2019-06-17T07:16:21Z</time>
      </trkpt>
      <trkpt lat="44.2894" lon="5.82286">
        <ele>565</ele>
        <time>2019-06-17T07:16:22Z</time>
      </trkpt>
      <trkpt lat="44.28935" lon="5.82286">
        <ele>565</ele>
        <time>2019-06-17T07:16:23Z</time>
      </trkpt>
      <trkpt lat="44.2893" lon="5.82286">
        <ele>565</ele>
        <time>2019-06-17T07:16:24Z</time>
      </trkpt>
      <trkpt lat="44.28925" lon="5.82285">
        <ele>566</ele>
        <time>2019-06-17T07:16:25Z</time>
      </trkpt>
      <trkpt lat="44.2892" lon="5.82285">
        <ele>566</ele>
        <time>2019-06-17T07:16:26Z</time>
      </trkpt>
      <trkpt lat="44.28915" lon="5.82284">
        <ele>566</ele>
        <time>2019-06-17T07:16:27Z</time>
      </trkpt>
      <trkpt lat="44.2891" lon="5.82283">
        <ele>566</ele>
        <time>2019-06-17T07:16:28Z</time>
      </trkpt>
      <trkpt lat="44.28905" lon="5.82281">
        <ele>566</ele>
        <time>2019-06-17T07:16:30Z</time>
      </trkpt>
      <trkpt lat="44.289" lon="5.82279">
        <ele>566</ele>
        <time>2019-06-17T07:16:30Z</time>
      </trkpt>
      <trkpt lat="44.28896" lon="5.82277">
        <ele>566</ele>
        <time>2019-06-17T07:16:31Z</time>
      </trkpt>
      <trkpt lat="44.28891" lon="5.82274">
        <ele>566</ele>
        <time>2019-06-17T07:16:32Z</time>
      </trkpt>
      <trkpt lat="44.28886" lon="5.82271">
        <ele>566</ele>
        <time>2019-06-17T07:16:33Z</time>
      </trkpt>
      <trkpt lat="44.28881" lon="5.82268">
        <ele>566</ele>
        <time>2019-06-17T07:16:34Z</time>
      </trkpt>
      <trkpt lat="44.28877" lon="5.82264">
        <ele>566</ele>
        <time>2019-06-17T07:16:35Z</time>
      </trkpt>
      <trkpt lat="44.28872" lon="5.8226">
        <ele>566</ele>
        <time>2019-06-17T07:16:36Z</time>
      </trkpt>
      <trkpt lat="44.28868" lon="5.82256">
        <ele>566</ele>
        <time>2019-06-17T07:16:37Z</time>
      </trkpt>
      <trkpt lat="44.28863" lon="5.82252">
        <ele>566</ele>
        <time>2019-06-17T07:16:38Z</time>
      </trkpt>
      <trkpt lat="44.28859" lon="5.82247">
        <ele>566</ele>
        <time>2019-06-17T07:16:39Z</time>
      </trkpt>
      <trkpt lat="44.28854" lon="5.82243">
        <ele>566</ele>
        <time>2019-06-17T07:16:40Z</time>
      </trkpt>
      <trkpt lat="44.2885" lon="5.82238">
        <ele>566</ele>
        <time>2019-06-17T07:16:41Z</time>
      </trkpt>
      <trkpt lat="44.28845" lon="5.82234">
        <ele>566</ele>
        <time>2019-06-17T07:16:42Z</time>
      </trkpt>
      <trkpt lat="44.28841" lon="5.82229">
        <ele>566</ele>
        <time>2019-06-17T07:16:43Z</time>
      </trkpt>
      <trkpt lat="44.28836" lon="5.82225">
        <ele>566</ele>
        <time>2019-06-17T07:16:44Z</time>
      </trkpt>
      <trkpt lat="44.28831" lon="5.8222">
        <ele>566</ele>
        <time>2019-06-17T07:16:45Z</time>
      </trkpt>
      <trkpt lat="44.28827" lon="5.82216">
        <ele>566</ele>
        <time>2019-06-17T07:16:46Z</time>
      </trkpt>
      <trkpt lat="44.28822" lon="5.82212">
        <ele>566</ele>
        <time>2019-06-17T07:16:47Z</time>
      </trkpt>
      <trkpt lat="44.28816" lon="5.82208">
        <ele>566</ele>
        <time>2019-06-17T07:16:48Z</time>
      </trkpt>
      <trkpt lat="44.28811" lon="5.82204">
        <ele>566</ele>
        <time>2019-06-17T07:16:49Z</time>
      </trkpt>
      <trkpt lat="44.28806" lon="5.822">
        <ele>566</ele>
        <time>2019-06-17T07:16:50Z</time>
      </trkpt>
      <trkpt lat="44.288" lon="5.82195">
        <ele>566</ele>
        <time>2019-06-17T07:16:51Z</time>
      </trkpt>
      <trkpt lat="44.28794" lon="5.82191">
        <ele>566</ele>
        <time>2019-06-17T07:16:52Z</time>
      </trkpt>
      <trkpt lat="44.28788" lon="5.82187">
        <ele>566</ele>
        <time>2019-06-17T07:16:53Z</time>
      </trkpt>
      <trkpt lat="44.28782" lon="5.82183">
        <ele>566</ele>
        <time>2019-06-17T07:16:54Z</time>
      </trkpt>
      <trkpt lat="44.28776" lon="5.82179">
        <ele>566</ele>
        <time>2019-06-17T07:16:55Z</time>
      </trkpt>
      <trkpt lat="44.2877" lon="5.82175">
        <ele>566</ele>
        <time>2019-06-17T07:16:56Z</time>
      </trkpt>
      <trkpt lat="44.28763" lon="5.82171">
        <ele>566</ele>
        <time>2019-06-17T07:16:57Z</time>
      </trkpt>
      <trkpt lat="44.28756" lon="5.82167">
        <ele>566</ele>
        <time>2019-06-17T07:16:58Z</time>
      </trkpt>
      <trkpt lat="44.28749" lon="5.82164">
        <ele>566</ele>
        <time>2019-06-17T07:16:59Z</time>
      </trkpt>
      <trkpt lat="44.28742" lon="5.8216">
        <ele>566</ele>
        <time>2019-06-17T07:17:00Z</time>
      </trkpt>
      <trkpt lat="44.28735" lon="5.82156">
        <ele>566</ele>
        <time>2019-06-17T07:17:01Z</time>
      </trkpt>
      <trkpt lat="44.28727" lon="5.82152">
        <ele>566</ele>
        <time>2019-06-17T07:17:02Z</time>
      </trkpt>
      <trkpt lat="44.2872" lon="5.82149">
        <ele>566</ele>
        <time>2019-06-17T07:17:03Z</time>
      </trkpt>
      <trkpt lat="44.28712" lon="5.82146">
        <ele>566</ele>
        <time>2019-06-17T07:17:04Z</time>
      </trkpt>
      <trkpt lat="44.28704" lon="5.82143">
        <ele>566</ele>
        <time>2019-06-17T07:17:05Z</time>
      </trkpt>
      <trkpt lat="44.28696" lon="5.82141">
        <ele>566</ele>
        <time>2019-06-17T07:17:06Z</time>
      </trkpt>
      <trkpt lat="44.28688" lon="5.82138">
        <ele>566</ele>
        <time>2019-06-17T07:17:07Z</time>
      </trkpt>
      <trkpt lat="44.2868" lon="5.82136">
        <ele>566</ele>
        <time>2019-06-17T07:17:08Z</time>
      </trkpt>
      <trkpt lat="44.28672" lon="5.82133">
        <ele>565</ele>
        <time>2019-06-17T07:17:09Z</time>
      </trkpt>
      <trkpt lat="44.28664" lon="5.8213">
        <ele>565</ele>
        <time>2019-06-17T07:17:10Z</time>
      </trkpt>
      <trkpt lat="44.28655" lon="5.82128">
        <ele>564</ele>
        <time>2019-06-17T07:17:11Z</time>
      </trkpt>
      <trkpt lat="44.28646" lon="5.82126">
        <ele>564</ele>
        <time>2019-06-17T07:17:12Z</time>
      </trkpt>
      <trkpt lat="44.28638" lon="5.82123">
        <ele>563</ele>
        <time>2019-06-17T07:17:13Z</time>
      </trkpt>
      <trkpt lat="44.2863" lon="5.8212">
        <ele>563</ele>
        <time>2019-06-17T07:17:14Z</time>
      </trkpt>
      <trkpt lat="44.28621" lon="5.82117">
        <ele>562</ele>
        <time>2019-06-17T07:17:15Z</time>
      </trkpt>
      <trkpt lat="44.28612" lon="5.82115">
        <ele>562</ele>
        <time>2019-06-17T07:17:16Z</time>
      </trkpt>
      <trkpt lat="44.28603" lon="5.82111">
        <ele>562</ele>
        <time>2019-06-17T07:17:17Z</time>
      </trkpt>
      <trkpt lat="44.28595" lon="5.82108">
        <ele>562</ele>
        <time>2019-06-17T07:17:18Z</time>
      </trkpt>
      <trkpt lat="44.28586" lon="5.82104">
        <ele>561</ele>
        <time>2019-06-17T07:17:19Z</time>
      </trkpt>
      <trkpt lat="44.28577" lon="5.821">
        <ele>561</ele>
        <time>2019-06-17T07:17:20Z</time>
      </trkpt>
      <trkpt lat="44.28568" lon="5.82096">
        <ele>561</ele>
        <time>2019-06-17T07:17:21Z</time>
      </trkpt>
      <trkpt lat="44.28559" lon="5.82092">
        <ele>560</ele>
        <time>2019-06-17T07:17:22Z</time>
      </trkpt>
      <trkpt lat="44.2855" lon="5.82087">
        <ele>560</ele>
        <time>2019-06-17T07:17:23Z</time>
      </trkpt>
      <trkpt lat="44.28542" lon="5.82083">
        <ele>560</ele>
        <time>2019-06-17T07:17:24Z</time>
      </trkpt>
      <trkpt lat="44.28532" lon="5.82078">
        <ele>559</ele>
        <time>2019-06-17T07:17:25Z</time>
      </trkpt>
      <trkpt lat="44.28523" lon="5.82074">
        <ele>559</ele>
        <time>2019-06-17T07:17:26Z</time>
      </trkpt>
      <trkpt lat="44.28514" lon="5.82069">
        <ele>559</ele>
        <time>2019-06-17T07:17:27Z</time>
      </trkpt>
      <trkpt lat="44.28505" lon="5.82065">
        <ele>558</ele>
        <time>2019-06-17T07:17:28Z</time>
      </trkpt>
      <trkpt lat="44.28496" lon="5.8206">
        <ele>558</ele>
        <time>2019-06-17T07:17:30Z</time>
      </trkpt>
      <trkpt lat="44.28487" lon="5.82055">
        <ele>558</ele>
        <time>2019-06-17T07:17:30Z</time>
      </trkpt>
      <trkpt lat="44.28478" lon="5.82051">
        <ele>558</ele>
        <time>2019-06-17T07:17:31Z</time>
      </trkpt>
      <trkpt lat="44.28469" lon="5.82047">
        <ele>557</ele>
        <time>2019-06-17T07:17:32Z</time>
      </trkpt>
      <trkpt lat="44.2846" lon="5.82043">
        <ele>557</ele>
        <time>2019-06-17T07:17:33Z</time>
      </trkpt>
      <trkpt lat="44.28451" lon="5.82039">
        <ele>557</ele>
        <time>2019-06-17T07:17:34Z</time>
      </trkpt>
      <trkpt lat="44.28442" lon="5.82036">
        <ele>557</ele>
        <time>2019-06-17T07:17:35Z</time>
      </trkpt>
      <trkpt lat="44.28433" lon="5.82033">
        <ele>556</ele>
        <time>2019-06-17T07:17:36Z</time>
      </trkpt>
      <trkpt lat="44.28424" lon="5.8203">
        <ele>556</ele>
        <time>2019-06-17T07:17:37Z</time>
      </trkpt>
      <trkpt lat="44.28415" lon="5.82028">
        <ele>556</ele>
        <time>2019-06-17T07:17:38Z</time>
      </trkpt>
      <trkpt lat="44.28406" lon="5.82026">
        <ele>556</ele>
        <time>2019-06-17T07:17:39Z</time>
      </trkpt>
      <trkpt lat="44.28397" lon="5.82025">
        <ele>556</ele>
        <time>2019-06-17T07:17:40Z</time>
      </trkpt>
      <trkpt lat="44.28388" lon="5.82024">
        <ele>556</ele>
        <time>2019-06-17T07:17:41Z</time>
      </trkpt>
      <trkpt lat="44.28379" lon="5.82023">
        <ele>556</ele>
        <time>2019-06-17T07:17:42Z</time>
      </trkpt>
      <trkpt lat="44.2837" lon="5.82022">
        <ele>556</ele>
        <time>2019-06-17T07:17:44Z</time>
      </trkpt>
      <trkpt lat="44.28361" lon="5.82022">
        <ele>556</ele>
        <time>2019-06-17T07:17:44Z</time>
      </trkpt>
      <trkpt lat="44.28353" lon="5.82021">
        <ele>555</ele>
        <time>2019-06-17T07:17:45Z</time>
      </trkpt>
      <trkpt lat="44.28344" lon="5.82021">
        <ele>555</ele>
        <time>2019-06-17T07:17:46Z</time>
      </trkpt>
      <trkpt lat="44.28336" lon="5.82021">
        <ele>555</ele>
        <time>2019-06-17T07:17:47Z</time>
      </trkpt>
      <trkpt lat="44.28328" lon="5.82021">
        <ele>555</ele>
        <time>2019-06-17T07:17:48Z</time>
      </trkpt>
      <trkpt lat="44.28319" lon="5.82021">
        <ele>555</ele>
        <time>2019-06-17T07:17:49Z</time>
      </trkpt>
      <trkpt lat="44.28311" lon="5.82021">
        <ele>555</ele>
        <time>2019-06-17T07:17:50Z</time>
      </trkpt>
      <trkpt lat="44.28303" lon="5.8202">
        <ele>555</ele>
        <time>2019-06-17T07:17:51Z</time>
      </trkpt>
      <trkpt lat="44.28294" lon="5.8202">
        <ele>555</ele>
        <time>2019-06-17T07:17:52Z</time>
      </trkpt>
      <trkpt lat="44.28286" lon="5.82021">
        <ele>555</ele>
        <time>2019-06-17T07:17:53Z</time>
      </trkpt>
      <trkpt lat="44.28278" lon="5.8202">
        <ele>555</ele>
        <time>2019-06-17T07:17:54Z</time>
      </trkpt>
      <trkpt lat="44.2827" lon="5.8202">
        <ele>555</ele>
        <time>2019-06-17T07:17:55Z</time>
      </trkpt>
      <trkpt lat="44.28261" lon="5.82019">
        <ele>555</ele>
        <time>2019-06-17T07:17:56Z</time>
      </trkpt>
      <trkpt lat="44.28253" lon="5.82018">
        <ele>555</ele>
        <time>2019-06-17T07:17:57Z</time>
      </trkpt>
      <trkpt lat="44.28244" lon="5.82017">
        <ele>555</ele>
        <time>2019-06-17T07:17:58Z</time>
      </trkpt>
      <trkpt lat="44.28236" lon="5.82015">
        <ele>555</ele>
        <time>2019-06-17T07:17:59Z</time>
      </trkpt>
      <trkpt lat="44.28228" lon="5.82012">
        <ele>555</ele>
        <time>2019-06-17T07:18:00Z</time>
      </trkpt>
      <trkpt lat="44.2822" lon="5.82008">
        <ele>555</ele>
        <time>2019-06-17T07:18:01Z</time>
      </trkpt>
      <trkpt lat="44.28211" lon="5.82004">
        <ele>554</ele>
        <time>2019-06-17T07:18:02Z</time>
      </trkpt>
      <trkpt lat="44.28203" lon="5.82">
        <ele>554</ele>
        <time>2019-06-17T07:18:03Z</time>
      </trkpt>
      <trkpt lat="44.28196" lon="5.81995">
        <ele>554</ele>
        <time>2019-06-17T07:18:04Z</time>
      </trkpt>
      <trkpt lat="44.28188" lon="5.8199">
        <ele>554</ele>
        <time>2019-06-17T07:18:05Z</time>
      </trkpt>
      <trkpt lat="44.2818" lon="5.81985">
        <ele>554</ele>
        <time>2019-06-17T07:18:06Z</time>
      </trkpt>
      <trkpt lat="44.28172" lon="5.8198">
        <ele>554</ele>
        <time>2019-06-17T07:18:07Z</time>
      </trkpt>
      <trkpt lat="44.28165" lon="5.81975">
        <ele>554</ele>
        <time>2019-06-17T07:18:08Z</time>
      </trkpt>
      <trkpt lat="44.28157" lon="5.8197">
        <ele>554</ele>
        <time>2019-06-17T07:18:09Z</time>
      </trkpt>
      <trkpt lat="44.2815" lon="5.81965">
        <ele>554</ele>
        <time>2019-06-17T07:18:10Z</time>
      </trkpt>
      <trkpt lat="44.28143" lon="5.8196">
        <ele>553</ele>
        <time>2019-06-17T07:18:11Z</time>
      </trkpt>
      <trkpt lat="44.28136" lon="5.81956">
        <ele>553</ele>
        <time>2019-06-17T07:18:12Z</time>
      </trkpt>
      <trkpt lat="44.28129" lon="5.81951">
        <ele>553</ele>
        <time>2019-06-17T07:18:13Z</time>
      </trkpt>
      <trkpt lat="44.28121" lon="5.81946">
        <ele>553</ele>
        <time>2019-06-17T07:18:14Z</time>
      </trkpt>
      <trkpt lat="44.28114" lon="5.81942">
        <ele>553</ele>
        <time>2019-06-17T07:18:15Z</time>
      </trkpt>
      <trkpt lat="44.28107" lon="5.81938">
        <ele>553</ele>
        <time>2019-06-17T07:18:16Z</time>
      </trkpt>
      <trkpt lat="44.28099" lon="5.81933">
        <ele>553</ele>
        <time>2019-06-17T07:18:17Z</time>
      </trkpt>
      <trkpt lat="44.28091" lon="5.81928">
        <ele>553</ele>
        <time>2019-06-17T07:18:18Z</time>
      </trkpt>
      <trkpt lat="44.28084" lon="5.81924">
        <ele>553</ele>
        <time>2019-06-17T07:18:19Z</time>
      </trkpt>
      <trkpt lat="44.28077" lon="5.81919">
        <ele>552</ele>
        <time>2019-06-17T07:18:20Z</time>
      </trkpt>
      <trkpt lat="44.2807" lon="5.81914">
        <ele>552</ele>
        <time>2019-06-17T07:18:21Z</time>
      </trkpt>
      <trkpt lat="44.28062" lon="5.81909">
        <ele>552</ele>
        <time>2019-06-17T07:18:22Z</time>
      </trkpt>
      <trkpt lat="44.28055" lon="5.81905">
        <ele>552</ele>
        <time>2019-06-17T07:18:23Z</time>
      </trkpt>
      <trkpt lat="44.28048" lon="5.819">
        <ele>552</ele>
        <time>2019-06-17T07:18:24Z</time>
      </trkpt>
      <trkpt lat="44.28041" lon="5.81895">
        <ele>552</ele>
        <time>2019-06-17T07:18:25Z</time>
      </trkpt>
      <trkpt lat="44.28034" lon="5.81891">
        <ele>552</ele>
        <time>2019-06-17T07:18:26Z</time>
      </trkpt>
      <trkpt lat="44.28027" lon="5.81886">
        <ele>552</ele>
        <time>2019-06-17T07:18:27Z</time>
      </trkpt>
      <trkpt lat="44.28019" lon="5.81882">
        <ele>552</ele>
        <time>2019-06-17T07:18:28Z</time>
      </trkpt>
      <trkpt lat="44.28012" lon="5.81877">
        <ele>552</ele>
        <time>2019-06-17T07:18:29Z</time>
      </trkpt>
      <trkpt lat="44.28005" lon="5.81873">
        <ele>552</ele>
        <time>2019-06-17T07:18:30Z</time>
      </trkpt>
      <trkpt lat="44.27998" lon="5.81869">
        <ele>552</ele>
        <time>2019-06-17T07:18:31Z</time>
      </trkpt>
      <trkpt lat="44.27991" lon="5.81864">
        <ele>552</ele>
        <time>2019-06-17T07:18:32Z</time>
      </trkpt>
      <trkpt lat="44.27984" lon="5.8186">
        <ele>552</ele>
        <time>2019-06-17T07:18:33Z</time>
      </trkpt>
      <trkpt lat="44.27977" lon="5.81856">
        <ele>552</ele>
        <time>2019-06-17T07:18:34Z</time>
      </trkpt>
      <trkpt lat="44.2797" lon="5.81851">
        <ele>552</ele>
        <time>2019-06-17T07:18:35Z</time>
      </trkpt>
      <trkpt lat="44.27963" lon="5.81847">
        <ele>552</ele>
        <time>2019-06-17T07:18:36Z</time>
      </trkpt>
      <trkpt lat="44.27956" lon="5.81842">
        <ele>552</ele>
        <time>2019-06-17T07:18:37Z</time>
      </trkpt>
      <trkpt lat="44.2795" lon="5.81837">
        <ele>552</ele>
        <time>2019-06-17T07:18:38Z</time>
      </trkpt>
      <trkpt lat="44.27943" lon="5.81833">
        <ele>552</ele>
        <time>2019-06-17T07:18:39Z</time>
      </trkpt>
      <trkpt lat="44.27936" lon="5.81828">
        <ele>552</ele>
        <time>2019-06-17T07:18:40Z</time>
      </trkpt>
      <trkpt lat="44.27929" lon="5.81824">
        <ele>552</ele>
        <time>2019-06-17T07:18:41Z</time>
      </trkpt>
      <trkpt lat="44.27922" lon="5.81819">
        <ele>552</ele>
        <time>2019-06-17T07:18:42Z</time>
      </trkpt>
      <trkpt lat="44.27915" lon="5.81815">
        <ele>552</ele>
        <time>2019-06-17T07:18:43Z</time>
      </trkpt>
      <trkpt lat="44.27908" lon="5.8181">
        <ele>552</ele>
        <time>2019-06-17T07:18:44Z</time>
      </trkpt>
      <trkpt lat="44.27901" lon="5.81806">
        <ele>552</ele>
        <time>2019-06-17T07:18:45Z</time>
      </trkpt>
      <trkpt lat="44.27894" lon="5.81802">
        <ele>552</ele>
        <time>2019-06-17T07:18:46Z</time>
      </trkpt>
      <trkpt lat="44.27887" lon="5.81797">
        <ele>552</ele>
        <time>2019-06-17T07:18:47Z</time>
      </trkpt>
      <trkpt lat="44.2788" lon="5.81792">
        <ele>552</ele>
        <time>2019-06-17T07:18:48Z</time>
      </trkpt>
      <trkpt lat="44.27873" lon="5.81787">
        <ele>552</ele>
        <time>2019-06-17T07:18:49Z</time>
      </trkpt>
      <trkpt lat="44.27866" lon="5.81783">
        <ele>551</ele>
        <time>2019-06-17T07:18:50Z</time>
      </trkpt>
      <trkpt lat="44.27858" lon="5.81778">
        <ele>551</ele>
        <time>2019-06-17T07:18:51Z</time>
      </trkpt>
      <trkpt lat="44.27851" lon="5.81774">
        <ele>551</ele>
        <time>2019-06-17T07:18:52Z</time>
      </trkpt>
      <trkpt lat="44.27844" lon="5.81769">
        <ele>551</ele>
        <time>2019-06-17T07:18:53Z</time>
      </trkpt>
      <trkpt lat="44.27837" lon="5.81765">
        <ele>551</ele>
        <time>2019-06-17T07:18:54Z</time>
      </trkpt>
      <trkpt lat="44.27829" lon="5.8176">
        <ele>550</ele>
        <time>2019-06-17T07:18:55Z</time>
      </trkpt>
      <trkpt lat="44.27822" lon="5.81755">
        <ele>550</ele>
        <time>2019-06-17T07:18:56Z</time>
      </trkpt>
      <trkpt lat="44.27814" lon="5.8175">
        <ele>550</ele>
        <time>2019-06-17T07:18:57Z</time>
      </trkpt>
      <trkpt lat="44.27807" lon="5.81745">
        <ele>550</ele>
        <time>2019-06-17T07:18:58Z</time>
      </trkpt>
      <trkpt lat="44.27799" lon="5.8174">
        <ele>550</ele>
        <time>2019-06-17T07:18:59Z</time>
      </trkpt>
      <trkpt lat="44.27792" lon="5.81735">
        <ele>549</ele>
        <time>2019-06-17T07:19:00Z</time>
      </trkpt>
      <trkpt lat="44.27784" lon="5.8173">
        <ele>549</ele>
        <time>2019-06-17T07:19:01Z</time>
      </trkpt>
      <trkpt lat="44.27776" lon="5.81726">
        <ele>549</ele>
        <time>2019-06-17T07:19:02Z</time>
      </trkpt>
      <trkpt lat="44.27769" lon="5.81721">
        <ele>549</ele>
        <time>2019-06-17T07:19:03Z</time>
      </trkpt>
      <trkpt lat="44.27761" lon="5.81716">
        <ele>549</ele>
        <time>2019-06-17T07:19:04Z</time>
      </trkpt>
      <trkpt lat="44.27753" lon="5.8171">
        <ele>549</ele>
        <time>2019-06-17T07:19:05Z</time>
      </trkpt>
      <trkpt lat="44.27746" lon="5.81705">
        <ele>548</ele>
        <time>2019-06-17T07:19:06Z</time>
      </trkpt>
      <trkpt lat="44.27739" lon="5.81699">
        <ele>548</ele>
        <time>2019-06-17T07:19:07Z</time>
      </trkpt>
      <trkpt lat="44.27731" lon="5.81693">
        <ele>548</ele>
        <time>2019-06-17T07:19:08Z</time>
      </trkpt>
      <trkpt lat="44.27724" lon="5.81686">
        <ele>548</ele>
        <time>2019-06-17T07:19:09Z</time>
      </trkpt>
      <trkpt lat="44.27717" lon="5.81679">
        <ele>548</ele>
        <time>2019-06-17T07:19:10Z</time>
      </trkpt>
      <trkpt lat="44.2771" lon="5.81671">
        <ele>548</ele>
        <time>2019-06-17T07:19:11Z</time>
      </trkpt>
      <trkpt lat="44.27704" lon="5.81664">
        <ele>548</ele>
        <time>2019-06-17T07:19:12Z</time>
      </trkpt>
      <trkpt lat="44.27698" lon="5.81656">
        <ele>548</ele>
        <time>2019-06-17T07:19:13Z</time>
      </trkpt>
      <trkpt lat="44.27691" lon="5.81649">
        <ele>548</ele>
        <time>2019-06-17T07:19:14Z</time>
      </trkpt>
      <trkpt lat="44.27685" lon="5.81642">
        <ele>547</ele>
        <time>2019-06-17T07:19:15Z</time>
      </trkpt>
      <trkpt lat="44.27679" lon="5.81635">
        <ele>547</ele>
        <time>2019-06-17T07:19:16Z</time>
      </trkpt>
      <trkpt lat="44.27673" lon="5.81627">
        <ele>547</ele>
        <time>2019-06-17T07:19:17Z</time>
      </trkpt>
      <trkpt lat="44.27668" lon="5.8162">
        <ele>547</ele>
        <time>2019-06-17T07:19:18Z</time>
      </trkpt>
      <trkpt lat="44.27662" lon="5.81613">
        <ele>547</ele>
        <time>2019-06-17T07:19:19Z</time>
      </trkpt>
      <trkpt lat="44.27657" lon="5.81606">
        <ele>547</ele>
        <time>2019-06-17T07:19:20Z</time>
      </trkpt>
      <trkpt lat="44.27651" lon="5.816">
        <ele>547</ele>
        <time>2019-06-17T07:19:21Z</time>
      </trkpt>
      <trkpt lat="44.27646" lon="5.81593">
        <ele>547</ele>
        <time>2019-06-17T07:19:22Z</time>
      </trkpt>
      <trkpt lat="44.2764" lon="5.81586">
        <ele>547</ele>
        <time>2019-06-17T07:19:23Z</time>
      </trkpt>
      <trkpt lat="44.27635" lon="5.81579">
        <ele>547</ele>
        <time>2019-06-17T07:19:24Z</time>
      </trkpt>
      <trkpt lat="44.27629" lon="5.81572">
        <ele>547</ele>
        <time>2019-06-17T07:19:25Z</time>
      </trkpt>
      <trkpt lat="44.27624" lon="5.81565">
        <ele>547</ele>
        <time>2019-06-17T07:19:26Z</time>
      </trkpt>
      <trkpt lat="44.27618" lon="5.81557">
        <ele>547</ele>
        <time>2019-06-17T07:19:27Z</time>
      </trkpt>
      <trkpt lat="44.27613" lon="5.8155">
        <ele>546</ele>
        <time>2019-06-17T07:19:28Z</time>
      </trkpt>
      <trkpt lat="44.27607" lon="5.81542">
        <ele>546</ele>
        <time>2019-06-17T07:19:29Z</time>
      </trkpt>
      <trkpt lat="44.276" lon="5.81535">
        <ele>545</ele>
        <time>2019-06-17T07:19:30Z</time>
      </trkpt>
      <trkpt lat="44.27594" lon="5.81527">
        <ele>545</ele>
        <time>2019-06-17T07:19:31Z</time>
      </trkpt>
      <trkpt lat="44.27588" lon="5.8152">
        <ele>545</ele>
        <time>2019-06-17T07:19:32Z</time>
      </trkpt>
      <trkpt lat="44.27581" lon="5.81512">
        <ele>544</ele>
        <time>2019-06-17T07:19:33Z</time>
      </trkpt>
      <trkpt lat="44.27575" lon="5.81504">
        <ele>544</ele>
        <time>2019-06-17T07:19:34Z</time>
      </trkpt>
      <trkpt lat="44.27568" lon="5.81496">
        <ele>544</ele>
        <time>2019-06-17T07:19:35Z</time>
      </trkpt>
      <trkpt lat="44.27562" lon="5.81489">
        <ele>543</ele>
        <time>2019-06-17T07:19:36Z</time>
      </trkpt>
      <trkpt lat="44.27556" lon="5.81481">
        <ele>542</ele>
        <time>2019-06-17T07:19:37Z</time>
      </trkpt>
      <trkpt lat="44.2755" lon="5.81473">
        <ele>542</ele>
        <time>2019-06-17T07:19:38Z</time>
      </trkpt>
      <trkpt lat="44.27544" lon="5.81465">
        <ele>541</ele>
        <time>2019-06-17T07:19:39Z</time>
      </trkpt>
      <trkpt lat="44.27538" lon="5.81458">
        <ele>541</ele>
        <time>2019-06-17T07:19:40Z</time>
      </trkpt>
      <trkpt lat="44.27532" lon="5.8145">
        <ele>540</ele>
        <time>2019-06-17T07:19:41Z</time>
      </trkpt>
      <trkpt lat="44.27526" lon="5.81443">
        <ele>540</ele>
        <time>2019-06-17T07:19:42Z</time>
      </trkpt>
      <trkpt lat="44.2752" lon="5.81435">
        <ele>540</ele>
        <time>2019-06-17T07:19:43Z</time>
      </trkpt>
      <trkpt lat="44.27514" lon="5.81428">
        <ele>539</ele>
        <time>2019-06-17T07:19:44Z</time>
      </trkpt>
      <trkpt lat="44.27508" lon="5.81421">
        <ele>539</ele>
        <time>2019-06-17T07:19:45Z</time>
      </trkpt>
      <trkpt lat="44.27502" lon="5.81414">
        <ele>539</ele>
        <time>2019-06-17T07:19:46Z</time>
      </trkpt>
      <trkpt lat="44.27496" lon="5.81407">
        <ele>539</ele>
        <time>2019-06-17T07:19:47Z</time>
      </trkpt>
      <trkpt lat="44.2749" lon="5.814">
        <ele>539</ele>
        <time>2019-06-17T07:19:48Z</time>
      </trkpt>
      <trkpt lat="44.27483" lon="5.81394">
        <ele>539</ele>
        <time>2019-06-17T07:19:49Z</time>
      </trkpt>
      <trkpt lat="44.27477" lon="5.81388">
        <ele>539</ele>
        <time>2019-06-17T07:19:50Z</time>
      </trkpt>
      <trkpt lat="44.2747" lon="5.81382">
        <ele>539</ele>
        <time>2019-06-17T07:19:51Z</time>
      </trkpt>
      <trkpt lat="44.27464" lon="5.81377">
        <ele>539</ele>
        <time>2019-06-17T07:19:52Z</time>
      </trkpt>
      <trkpt lat="44.27457" lon="5.81373">
        <ele>539</ele>
        <time>2019-06-17T07:19:53Z</time>
      </trkpt>
      <trkpt lat="44.27451" lon="5.81368">
        <ele>539</ele>
        <time>2019-06-17T07:19:54Z</time>
      </trkpt>
      <trkpt lat="44.27444" lon="5.81364">
        <ele>539</ele>
        <time>2019-06-17T07:19:55Z</time>
      </trkpt>
      <trkpt lat="44.27438" lon="5.8136">
        <ele>539</ele>
        <time>2019-06-17T07:19:56Z</time>
      </trkpt>
      <trkpt lat="44.27431" lon="5.81356">
        <ele>539</ele>
        <time>2019-06-17T07:19:57Z</time>
      </trkpt>
      <trkpt lat="44.27425" lon="5.81352">
        <ele>539</ele>
        <time>2019-06-17T07:19:58Z</time>
      </trkpt>
      <trkpt lat="44.27419" lon="5.81348">
        <ele>539</ele>
        <time>2019-06-17T07:19:59Z</time>
      </trkpt>
      <trkpt lat="44.27412" lon="5.81344">
        <ele>539</ele>
        <time>2019-06-17T07:20:00Z</time>
      </trkpt>
      <trkpt lat="44.27406" lon="5.81341">
        <ele>539</ele>
        <time>2019-06-17T07:20:01Z</time>
      </trkpt>
      <trkpt lat="44.27401" lon="5.81337">
        <ele>539</ele>
        <time>2019-06-17T07:20:02Z</time>
      </trkpt>
      <trkpt lat="44.27395" lon="5.81333">
        <ele>539</ele>
        <time>2019-06-17T07:20:03Z</time>
      </trkpt>
      <trkpt lat="44.27389" lon="5.8133">
        <ele>539</ele>
        <time>2019-06-17T07:20:04Z</time>
      </trkpt>
      <trkpt lat="44.27383" lon="5.81326">
        <ele>539</ele>
        <time>2019-06-17T07:20:05Z</time>
      </trkpt>
      <trkpt lat="44.27377" lon="5.81322">
        <ele>539</ele>
        <time>2019-06-17T07:20:06Z</time>
      </trkpt>
      <trkpt lat="44.27372" lon="5.81319">
        <ele>539</ele>
        <time>2019-06-17T07:20:07Z</time>
      </trkpt>
      <trkpt lat="44.27366" lon="5.81315">
        <ele>539</ele>
        <time>2019-06-17T07:20:08Z</time>
      </trkpt>
      <trkpt lat="44.27361" lon="5.81311">
        <ele>539</ele>
        <time>2019-06-17T07:20:09Z</time>
      </trkpt>
      <trkpt lat="44.27356" lon="5.81307">
        <ele>539</ele>
        <time>2019-06-17T07:20:10Z</time>
      </trkpt>
      <trkpt lat="44.27351" lon="5.81303">
        <ele>539</ele>
        <time>2019-06-17T07:20:11Z</time>
      </trkpt>
      <trkpt lat="44.27346" lon="5.81298">
        <ele>539</ele>
        <time>2019-06-17T07:20:12Z</time>
      </trkpt>
      <trkpt lat="44.27341" lon="5.81294">
        <ele>539</ele>
        <time>2019-06-17T07:20:13Z</time>
      </trkpt>
      <trkpt lat="44.27337" lon="5.81289">
        <ele>539</ele>
        <time>2019-06-17T07:20:14Z</time>
      </trkpt>
      <trkpt lat="44.27333" lon="5.81284">
        <ele>539</ele>
        <time>2019-06-17T07:20:15Z</time>
      </trkpt>
      <trkpt lat="44.27329" lon="5.81279">
        <ele>539</ele>
        <time>2019-06-17T07:20:16Z</time>
      </trkpt>
      <trkpt lat="44.27325" lon="5.81273">
        <ele>539</ele>
        <time>2019-06-17T07:20:17Z</time>
      </trkpt>
      <trkpt lat="44.27321" lon="5.81267">
        <ele>539</ele>
        <time>2019-06-17T07:20:18Z</time>
      </trkpt>
      <trkpt lat="44.27317" lon="5.81262">
        <ele>539</ele>
        <time>2019-06-17T07:20:19Z</time>
      </trkpt>
      <trkpt lat="44.27313" lon="5.81256">
        <ele>539</ele>
        <time>2019-06-17T07:20:20Z</time>
      </trkpt>
      <trkpt lat="44.27309" lon="5.8125">
        <ele>539</ele>
        <time>2019-06-17T07:20:21Z</time>
      </trkpt>
      <trkpt lat="44.27306" lon="5.81245">
        <ele>539</ele>
        <time>2019-06-17T07:20:22Z</time>
      </trkpt>
      <trkpt lat="44.27301" lon="5.81238">
        <ele>539</ele>
        <time>2019-06-17T07:20:23Z</time>
      </trkpt>
      <trkpt lat="44.27298" lon="5.81232">
        <ele>539</ele>
        <time>2019-06-17T07:20:24Z</time>
      </trkpt>
      <trkpt lat="44.27293" lon="5.81226">
        <ele>539</ele>
        <time>2019-06-17T07:20:25Z</time>
      </trkpt>
      <trkpt lat="44.27289" lon="5.8122">
        <ele>539</ele>
        <time>2019-06-17T07:20:26Z</time>
      </trkpt>
      <trkpt lat="44.27285" lon="5.81215">
        <ele>539</ele>
        <time>2019-06-17T07:20:27Z</time>
      </trkpt>
      <trkpt lat="44.27281" lon="5.81209">
        <ele>539</ele>
        <time>2019-06-17T07:20:28Z</time>
      </trkpt>
      <trkpt lat="44.27276" lon="5.81204">
        <ele>539</ele>
        <time>2019-06-17T07:20:29Z</time>
      </trkpt>
      <trkpt lat="44.27272" lon="5.81198">
        <ele>539</ele>
        <time>2019-06-17T07:20:30Z</time>
      </trkpt>
      <trkpt lat="44.27268" lon="5.81193">
        <ele>539</ele>
        <time>2019-06-17T07:20:31Z</time>
      </trkpt>
      <trkpt lat="44.27263" lon="5.81188">
        <ele>539</ele>
        <time>2019-06-17T07:20:32Z</time>
      </trkpt>
      <trkpt lat="44.27258" lon="5.81183">
        <ele>539</ele>
        <time>2019-06-17T07:20:33Z</time>
      </trkpt>
      <trkpt lat="44.27252" lon="5.81179">
        <ele>539</ele>
        <time>2019-06-17T07:20:34Z</time>
      </trkpt>
      <trkpt lat="44.27247" lon="5.81174">
        <ele>539</ele>
        <time>2019-06-17T07:20:35Z</time>
      </trkpt>
      <trkpt lat="44.27243" lon="5.8117">
        <ele>539</ele>
        <time>2019-06-17T07:20:36Z</time>
      </trkpt>
      <trkpt lat="44.27239" lon="5.81166">
        <ele>539</ele>
        <time>2019-06-17T07:20:37Z</time>
      </trkpt>
      <trkpt lat="44.27235" lon="5.81163">
        <ele>539</ele>
        <time>2019-06-17T07:20:38Z</time>
      </trkpt>
      <trkpt lat="44.27231" lon="5.81159">
        <ele>539</ele>
        <time>2019-06-17T07:20:39Z</time>
      </trkpt>
      <trkpt lat="44.27228" lon="5.81155">
        <ele>539</ele>
        <time>2019-06-17T07:20:40Z</time>
      </trkpt>
      <trkpt lat="44.27226" lon="5.81149">
        <ele>539</ele>
        <time>2019-06-17T07:20:41Z</time>
      </trkpt>
      <trkpt lat="44.27224" lon="5.81143">
        <ele>539</ele>
        <time>2019-06-17T07:20:42Z</time>
      </trkpt>
      <trkpt lat="44.27224" lon="5.81136">
        <ele>539</ele>
        <time>2019-06-17T07:20:43Z</time>
      </trkpt>
      <trkpt lat="44.27225" lon="5.81129">
        <ele>539</ele>
        <time>2019-06-17T07:20:44Z</time>
      </trkpt>
      <trkpt lat="44.27224" lon="5.81121">
        <ele>539</ele>
        <time>2019-06-17T07:20:45Z</time>
      </trkpt>
      <trkpt lat="44.27224" lon="5.81113">
        <ele>539</ele>
        <time>2019-06-17T07:20:46Z</time>
      </trkpt>
      <trkpt lat="44.27224" lon="5.81105">
        <ele>539</ele>
        <time>2019-06-17T07:20:47Z</time>
      </trkpt>
      <trkpt lat="44.27223" lon="5.81096">
        <ele>539</ele>
        <time>2019-06-17T07:20:48Z</time>
      </trkpt>
      <trkpt lat="44.27223" lon="5.81087">
        <ele>539</ele>
        <time>2019-06-17T07:20:49Z</time>
      </trkpt>
      <trkpt lat="44.27223" lon="5.81078">
        <ele>539</ele>
        <time>2019-06-17T07:20:50Z</time>
      </trkpt>
      <trkpt lat="44.27223" lon="5.8107">
        <ele>539</ele>
        <time>2019-06-17T07:20:51Z</time>
      </trkpt>
      <trkpt lat="44.27222" lon="5.8106">
        <ele>539</ele>
        <time>2019-06-17T07:20:52Z</time>
      </trkpt>
      <trkpt lat="44.27223" lon="5.81051">
        <ele>539</ele>
        <time>2019-06-17T07:20:53Z</time>
      </trkpt>
      <trkpt lat="44.27224" lon="5.81042">
        <ele>539</ele>
        <time>2019-06-17T07:20:54Z</time>
      </trkpt>
      <trkpt lat="44.27225" lon="5.81034">
        <ele>539</ele>
        <time>2019-06-17T07:20:55Z</time>
      </trkpt>
      <trkpt lat="44.27227" lon="5.81025">
        <ele>539</ele>
        <time>2019-06-17T07:20:56Z</time>
      </trkpt>
      <trkpt lat="44.27228" lon="5.81016">
        <ele>539</ele>
        <time>2019-06-17T07:20:57Z</time>
      </trkpt>
      <trkpt lat="44.27229" lon="5.81007">
        <ele>539</ele>
        <time>2019-06-17T07:20:58Z</time>
      </trkpt>
      <trkpt lat="44.2723" lon="5.80999">
        <ele>539</ele>
        <time>2019-06-17T07:20:59Z</time>
      </trkpt>
      <trkpt lat="44.27232" lon="5.80991">
        <ele>539</ele>
        <time>2019-06-17T07:21:00Z</time>
      </trkpt>
      <trkpt lat="44.27234" lon="5.80983">
        <ele>539</ele>
        <time>2019-06-17T07:21:01Z</time>
      </trkpt>
      <trkpt lat="44.27236" lon="5.80975">
        <ele>539</ele>
        <time>2019-06-17T07:21:02Z</time>
      </trkpt>
      <trkpt lat="44.27238" lon="5.80967">
        <ele>539</ele>
        <time>2019-06-17T07:21:03Z</time>
      </trkpt>
      <trkpt lat="44.2724" lon="5.80959">
        <ele>539</ele>
        <time>2019-06-17T07:21:04Z</time>
      </trkpt>
      <trkpt lat="44.27242" lon="5.8095">
        <ele>539</ele>
        <time>2019-06-17T07:21:05Z</time>
      </trkpt>
      <trkpt lat="44.27245" lon="5.80942">
        <ele>539</ele>
        <time>2019-06-17T07:21:06Z</time>
      </trkpt>
      <trkpt lat="44.27247" lon="5.80934">
        <ele>539</ele>
        <time>2019-06-17T07:21:07Z</time>
      </trkpt>
      <trkpt lat="44.27249" lon="5.80926">
        <ele>539</ele>
        <time>2019-06-17T07:21:08Z</time>
      </trkpt>
      <trkpt lat="44.27251" lon="5.80917">
        <ele>539</ele>
        <time>2019-06-17T07:21:09Z</time>
      </trkpt>
      <trkpt lat="44.27254" lon="5.80909">
        <ele>539</ele>
        <time>2019-06-17T07:21:10Z</time>
      </trkpt>
      <trkpt lat="44.27256" lon="5.80901">
        <ele>539</ele>
        <time>2019-06-17T07:21:11Z</time>
      </trkpt>
      <trkpt lat="44.27258" lon="5.80893">
        <ele>539</ele>
        <time>2019-06-17T07:21:12Z</time>
      </trkpt>
      <trkpt lat="44.2726" lon="5.80885">
        <ele>539</ele>
        <time>2019-06-17T07:21:13Z</time>
      </trkpt>
      <trkpt lat="44.27262" lon="5.80877">
        <ele>539</ele>
        <time>2019-06-17T07:21:14Z</time>
      </trkpt>
      <trkpt lat="44.27264" lon="5.80869">
        <ele>539</ele>
        <time>2019-06-17T07:21:15Z</time>
      </trkpt>
      <trkpt lat="44.27266" lon="5.80861">
        <ele>539</ele>
        <time>2019-06-17T07:21:16Z</time>
      </trkpt>
      <trkpt lat="44.27268" lon="5.80854">
        <ele>539</ele>
        <time>2019-06-17T07:21:17Z</time>
      </trkpt>
      <trkpt lat="44.2727" lon="5.80846">
        <ele>539</ele>
        <time>2019-06-17T07:21:18Z</time>
      </trkpt>
      <trkpt lat="44.27272" lon="5.80837">
        <ele>539</ele>
        <time>2019-06-17T07:21:19Z</time>
      </trkpt>
      <trkpt lat="44.27274" lon="5.8083">
        <ele>539</ele>
        <time>2019-06-17T07:21:20Z</time>
      </trkpt>
      <trkpt lat="44.27276" lon="5.80823">
        <ele>539</ele>
        <time>2019-06-17T07:21:21Z</time>
      </trkpt>
      <trkpt lat="44.27279" lon="5.80815">
        <ele>539</ele>
        <time>2019-06-17T07:21:22Z</time>
      </trkpt>
      <trkpt lat="44.27281" lon="5.80807">
        <ele>539</ele>
        <time>2019-06-17T07:21:23Z</time>
      </trkpt>
      <trkpt lat="44.27283" lon="5.80799">
        <ele>539</ele>
        <time>2019-06-17T07:21:24Z</time>
      </trkpt>
      <trkpt lat="44.27286" lon="5.80791">
        <ele>539</ele>
        <time>2019-06-17T07:21:25Z</time>
      </trkpt>
      <trkpt lat="44.27288" lon="5.80784">
        <ele>539</ele>
        <time>2019-06-17T07:21:26Z</time>
      </trkpt>
      <trkpt lat="44.27291" lon="5.80776">
        <ele>539</ele>
        <time>2019-06-17T07:21:27Z</time>
      </trkpt>
      <trkpt lat="44.27293" lon="5.80768">
        <ele>539</ele>
        <time>2019-06-17T07:21:28Z</time>
      </trkpt>
      <trkpt lat="44.27296" lon="5.8076">
        <ele>539</ele>
        <time>2019-06-17T07:21:29Z</time>
      </trkpt>
      <trkpt lat="44.27298" lon="5.80752">
        <ele>539</ele>
        <time>2019-06-17T07:21:30Z</time>
      </trkpt>
      <trkpt lat="44.27301" lon="5.80745">
        <ele>539</ele>
        <time>2019-06-17T07:21:31Z</time>
      </trkpt>
      <trkpt lat="44.27303" lon="5.80737">
        <ele>539</ele>
        <time>2019-06-17T07:21:32Z</time>
      </trkpt>
      <trkpt lat="44.27306" lon="5.8073">
        <ele>539</ele>
        <time>2019-06-17T07:21:33Z</time>
      </trkpt>
      <trkpt lat="44.2731" lon="5.80723">
        <ele>539</ele>
        <time>2019-06-17T07:21:34Z</time>
      </trkpt>
      <trkpt lat="44.27314" lon="5.80716">
        <ele>539</ele>
        <time>2019-06-17T07:21:35Z</time>
      </trkpt>
      <trkpt lat="44.27318" lon="5.8071">
        <ele>539</ele>
        <time>2019-06-17T07:21:36Z</time>
      </trkpt>
      <trkpt lat="44.27322" lon="5.80704">
        <ele>539</ele>
        <time>2019-06-17T07:21:37Z</time>
      </trkpt>
      <trkpt lat="44.27325" lon="5.80698">
        <ele>540</ele>
        <time>2019-06-17T07:21:38Z</time>
      </trkpt>
      <trkpt lat="44.27328" lon="5.80692">
        <ele>540</ele>
        <time>2019-06-17T07:21:39Z</time>
      </trkpt>
      <trkpt lat="44.27331" lon="5.80686">
        <ele>540</ele>
        <time>2019-06-17T07:21:40Z</time>
      </trkpt>
      <trkpt lat="44.27333" lon="5.8068">
        <ele>541</ele>
        <time>2019-06-17T07:21:41Z</time>
      </trkpt>
      <trkpt lat="44.27335" lon="5.80673">
        <ele>541</ele>
        <time>2019-06-17T07:21:42Z</time>
      </trkpt>
      <trkpt lat="44.27335" lon="5.80667">
        <ele>541</ele>
        <time>2019-06-17T07:21:43Z</time>
      </trkpt>
      <trkpt lat="44.27336" lon="5.8066">
        <ele>541</ele>
        <time>2019-06-17T07:21:44Z</time>
      </trkpt>
      <trkpt lat="44.27336" lon="5.80653">
        <ele>542</ele>
        <time>2019-06-17T07:21:45Z</time>
      </trkpt>
      <trkpt lat="44.27336" lon="5.80647">
        <ele>542</ele>
        <time>2019-06-17T07:21:46Z</time>
      </trkpt>
      <trkpt lat="44.27335" lon="5.8064">
        <ele>542</ele>
        <time>2019-06-17T07:21:47Z</time>
      </trkpt>
      <trkpt lat="44.27335" lon="5.80633">
        <ele>542</ele>
        <time>2019-06-17T07:21:48Z</time>
      </trkpt>
      <trkpt lat="44.27335" lon="5.80626">
        <ele>543</ele>
        <time>2019-06-17T07:21:49Z</time>
      </trkpt>
      <trkpt lat="44.27334" lon="5.80619">
        <ele>543</ele>
        <time>2019-06-17T07:21:50Z</time>
      </trkpt>
      <trkpt lat="44.27335" lon="5.80612">
        <ele>543</ele>
        <time>2019-06-17T07:21:51Z</time>
      </trkpt>
      <trkpt lat="44.27336" lon="5.80604">
        <ele>543</ele>
        <time>2019-06-17T07:21:52Z</time>
      </trkpt>
      <trkpt lat="44.27337" lon="5.80597">
        <ele>544</ele>
        <time>2019-06-17T07:21:53Z</time>
      </trkpt>
      <trkpt lat="44.27339" lon="5.8059">
        <ele>544</ele>
        <time>2019-06-17T07:21:54Z</time>
      </trkpt>
      <trkpt lat="44.27341" lon="5.80584">
        <ele>544</ele>
        <time>2019-06-17T07:21:55Z</time>
      </trkpt>
      <trkpt lat="44.27343" lon="5.80578">
        <ele>544</ele>
        <time>2019-06-17T07:21:56Z</time>
      </trkpt>
      <trkpt lat="44.27346" lon="5.80571">
        <ele>544</ele>
        <time>2019-06-17T07:21:57Z</time>
      </trkpt>
      <trkpt lat="44.27349" lon="5.80565">
        <ele>544</ele>
        <time>2019-06-17T07:21:58Z</time>
      </trkpt>
      <trkpt lat="44.27353" lon="5.80559">
        <ele>544</ele>
        <time>2019-06-17T07:21:59Z</time>
      </trkpt>
      <trkpt lat="44.27357" lon="5.80554">
        <ele>544</ele>
        <time>2019-06-17T07:22:00Z</time>
      </trkpt>
      <trkpt lat="44.2736" lon="5.80548">
        <ele>545</ele>
        <time>2019-06-17T07:22:01Z</time>
      </trkpt>
      <trkpt lat="44.27364" lon="5.80542">
        <ele>545</ele>
        <time>2019-06-17T07:22:02Z</time>
      </trkpt>
      <trkpt lat="44.27367" lon="5.80537">
        <ele>545</ele>
        <time>2019-06-17T07:22:03Z</time>
      </trkpt>
      <trkpt lat="44.27371" lon="5.80531">
        <ele>545</ele>
        <time>2019-06-17T07:22:04Z</time>
      </trkpt>
      <trkpt lat="44.27375" lon="5.80525">
        <ele>545</ele>
        <time>2019-06-17T07:22:05Z</time>
      </trkpt>
      <trkpt lat="44.27378" lon="5.80518">
        <ele>545</ele>
        <time>2019-06-17T07:22:06Z</time>
      </trkpt>
      <trkpt lat="44.27381" lon="5.80512">
        <ele>545</ele>
        <time>2019-06-17T07:22:07Z</time>
      </trkpt>
      <trkpt lat="44.27385" lon="5.80505">
        <ele>545</ele>
        <time>2019-06-17T07:22:08Z</time>
      </trkpt>
      <trkpt lat="44.27388" lon="5.80499">
        <ele>545</ele>
        <time>2019-06-17T07:22:09Z</time>
      </trkpt>
      <trkpt lat="44.27391" lon="5.80492">
        <ele>545</ele>
        <time>2019-06-17T07:22:10Z</time>
      </trkpt>
      <trkpt lat="44.27394" lon="5.80485">
        <ele>545</ele>
        <time>2019-06-17T07:22:11Z</time>
      </trkpt>
      <trkpt lat="44.27398" lon="5.80478">
        <ele>545</ele>
        <time>2019-06-17T07:22:12Z</time>
      </trkpt>
      <trkpt lat="44.27401" lon="5.80472">
        <ele>546</ele>
        <time>2019-06-17T07:22:13Z</time>
      </trkpt>
      <trkpt lat="44.27404" lon="5.80465">
        <ele>546</ele>
        <time>2019-06-17T07:22:14Z</time>
      </trkpt>
      <trkpt lat="44.27407" lon="5.80458">
        <ele>546</ele>
        <time>2019-06-17T07:22:15Z</time>
      </trkpt>
      <trkpt lat="44.2741" lon="5.80451">
        <ele>546</ele>
        <time>2019-06-17T07:22:16Z</time>
      </trkpt>
      <trkpt lat="44.27412" lon="5.80444">
        <ele>546</ele>
        <time>2019-06-17T07:22:17Z</time>
      </trkpt>
      <trkpt lat="44.27415" lon="5.80436">
        <ele>546</ele>
        <time>2019-06-17T07:22:18Z</time>
      </trkpt>
      <trkpt lat="44.27418" lon="5.80429">
        <ele>546</ele>
        <time>2019-06-17T07:22:19Z</time>
      </trkpt>
      <trkpt lat="44.2742" lon="5.80421">
        <ele>546</ele>
        <time>2019-06-17T07:22:20Z</time>
      </trkpt>
      <trkpt lat="44.27423" lon="5.80413">
        <ele>546</ele>
        <time>2019-06-17T07:22:21Z</time>
      </trkpt>
      <trkpt lat="44.27425" lon="5.80405">
        <ele>546</ele>
        <time>2019-06-17T07:22:22Z</time>
      </trkpt>
      <trkpt lat="44.27428" lon="5.80397">
        <ele>546</ele>
        <time>2019-06-17T07:22:23Z</time>
      </trkpt>
      <trkpt lat="44.2743" lon="5.80389">
        <ele>546</ele>
        <time>2019-06-17T07:22:24Z</time>
      </trkpt>
      <trkpt lat="44.27433" lon="5.80381">
        <ele>546</ele>
        <time>2019-06-17T07:22:25Z</time>
      </trkpt>
      <trkpt lat="44.27435" lon="5.80373">
        <ele>546</ele>
        <time>2019-06-17T07:22:26Z</time>
      </trkpt>
      <trkpt lat="44.27438" lon="5.80366">
        <ele>546</ele>
        <time>2019-06-17T07:22:27Z</time>
      </trkpt>
      <trkpt lat="44.2744" lon="5.80358">
        <ele>546</ele>
        <time>2019-06-17T07:22:28Z</time>
      </trkpt>
      <trkpt lat="44.27442" lon="5.8035">
        <ele>546</ele>
        <time>2019-06-17T07:22:29Z</time>
      </trkpt>
      <trkpt lat="44.27444" lon="5.80343">
        <ele>546</ele>
        <time>2019-06-17T07:22:30Z</time>
      </trkpt>
      <trkpt lat="44.27446" lon="5.80336">
        <ele>546</ele>
        <time>2019-06-17T07:22:31Z</time>
      </trkpt>
      <trkpt lat="44.27448" lon="5.80328">
        <ele>546</ele>
        <time>2019-06-17T07:22:32Z</time>
      </trkpt>
      <trkpt lat="44.27451" lon="5.80321">
        <ele>546</ele>
        <time>2019-06-17T07:22:33Z</time>
      </trkpt>
      <trkpt lat="44.27453" lon="5.80314">
        <ele>547</ele>
        <time>2019-06-17T07:22:34Z</time>
      </trkpt>
      <trkpt lat="44.27455" lon="5.80308">
        <ele>547</ele>
        <time>2019-06-17T07:22:35Z</time>
      </trkpt>
      <trkpt lat="44.27457" lon="5.80301">
        <ele>548</ele>
        <time>2019-06-17T07:22:36Z</time>
      </trkpt>
      <trkpt lat="44.27459" lon="5.80294">
        <ele>548</ele>
        <time>2019-06-17T07:22:37Z</time>
      </trkpt>
      <trkpt lat="44.27461" lon="5.80288">
        <ele>549</ele>
        <time>2019-06-17T07:22:38Z</time>
      </trkpt>
      <trkpt lat="44.27463" lon="5.80282">
        <ele>549</ele>
        <time>2019-06-17T07:22:39Z</time>
      </trkpt>
      <trkpt lat="44.27466" lon="5.80276">
        <ele>550</ele>
        <time>2019-06-17T07:22:40Z</time>
      </trkpt>
      <trkpt lat="44.27468" lon="5.80271">
        <ele>550</ele>
        <time>2019-06-17T07:22:41Z</time>
      </trkpt>
      <trkpt lat="44.2747" lon="5.80265">
        <ele>551</ele>
        <time>2019-06-17T07:22:42Z</time>
      </trkpt>
      <trkpt lat="44.27473" lon="5.80259">
        <ele>551</ele>
        <time>2019-06-17T07:22:43Z</time>
      </trkpt>
      <trkpt lat="44.27475" lon="5.80253">
        <ele>551</ele>
        <time>2019-06-17T07:22:44Z</time>
      </trkpt>
      <trkpt lat="44.27477" lon="5.80248">
        <ele>552</ele>
        <time>2019-06-17T07:22:45Z</time>
      </trkpt>
      <trkpt lat="44.2748" lon="5.80242">
        <ele>552</ele>
        <time>2019-06-17T07:22:46Z</time>
      </trkpt>
      <trkpt lat="44.27482" lon="5.80236">
        <ele>552</ele>
        <time>2019-06-17T07:22:47Z</time>
      </trkpt>
      <trkpt lat="44.27485" lon="5.8023">
        <ele>553</ele>
        <time>2019-06-17T07:22:48Z</time>
      </trkpt>
      <trkpt lat="44.27488" lon="5.80225">
        <ele>553</ele>
        <time>2019-06-17T07:22:49Z</time>
      </trkpt>
      <trkpt lat="44.27491" lon="5.8022">
        <ele>553</ele>
        <time>2019-06-17T07:22:50Z</time>
      </trkpt>
      <trkpt lat="44.27495" lon="5.80214">
        <ele>553</ele>
        <time>2019-06-17T07:22:51Z</time>
      </trkpt>
      <trkpt lat="44.27498" lon="5.80209">
        <ele>553</ele>
        <time>2019-06-17T07:22:52Z</time>
      </trkpt>
      <trkpt lat="44.27502" lon="5.80204">
        <ele>553</ele>
        <time>2019-06-17T07:22:53Z</time>
      </trkpt>
      <trkpt lat="44.27505" lon="5.80199">
        <ele>553</ele>
        <time>2019-06-17T07:22:54Z</time>
      </trkpt>
      <trkpt lat="44.27508" lon="5.80194">
        <ele>553</ele>
        <time>2019-06-17T07:22:55Z</time>
      </trkpt>
      <trkpt lat="44.27512" lon="5.80188">
        <ele>553</ele>
        <time>2019-06-17T07:22:56Z</time>
      </trkpt>
      <trkpt lat="44.27515" lon="5.80183">
        <ele>553</ele>
        <time>2019-06-17T07:22:57Z</time>
      </trkpt>
      <trkpt lat="44.27518" lon="5.80177">
        <ele>553</ele>
        <time>2019-06-17T07:22:58Z</time>
      </trkpt>
      <trkpt lat="44.27522" lon="5.80172">
        <ele>553</ele>
        <time>2019-06-17T07:22:59Z</time>
      </trkpt>
      <trkpt lat="44.27525" lon="5.80167">
        <ele>553</ele>
        <time>2019-06-17T07:23:00Z</time>
      </trkpt>
      <trkpt lat="44.27528" lon="5.80162">
        <ele>553</ele>
        <time>2019-06-17T07:23:01Z</time>
      </trkpt>
      <trkpt lat="44.27531" lon="5.80157">
        <ele>553</ele>
        <time>2019-06-17T07:23:02Z</time>
      </trkpt>
      <trkpt lat="44.27535" lon="5.80152">
        <ele>553</ele>
        <time>2019-06-17T07:23:03Z</time>
      </trkpt>
      <trkpt lat="44.27538" lon="5.80147">
        <ele>553</ele>
        <time>2019-06-17T07:23:04Z</time>
      </trkpt>
      <trkpt lat="44.27541" lon="5.80142">
        <ele>553</ele>
        <time>2019-06-17T07:23:05Z</time>
      </trkpt>
      <trkpt lat="44.27544" lon="5.80138">
        <ele>553</ele>
        <time>2019-06-17T07:23:06Z</time>
      </trkpt>
      <trkpt lat="44.27546" lon="5.80132">
        <ele>553</ele>
        <time>2019-06-17T07:23:07Z</time>
      </trkpt>
      <trkpt lat="44.27549" lon="5.80127">
        <ele>553</ele>
        <time>2019-06-17T07:23:08Z</time>
      </trkpt>
      <trkpt lat="44.27551" lon="5.80123">
        <ele>553</ele>
        <time>2019-06-17T07:23:09Z</time>
      </trkpt>
      <trkpt lat="44.27554" lon="5.80118">
        <ele>553</ele>
        <time>2019-06-17T07:23:10Z</time>
      </trkpt>
      <trkpt lat="44.27556" lon="5.80112">
        <ele>554</ele>
        <time>2019-06-17T07:23:11Z</time>
      </trkpt>
      <trkpt lat="44.27559" lon="5.80108">
        <ele>554</ele>
        <time>2019-06-17T07:23:12Z</time>
      </trkpt>
      <trkpt lat="44.27561" lon="5.80102">
        <ele>554</ele>
        <time>2019-06-17T07:23:13Z</time>
      </trkpt>
      <trkpt lat="44.27563" lon="5.80098">
        <ele>554</ele>
        <time>2019-06-17T07:23:14Z</time>
      </trkpt>
      <trkpt lat="44.27566" lon="5.80092">
        <ele>554</ele>
        <time>2019-06-17T07:23:15Z</time>
      </trkpt>
      <trkpt lat="44.27568" lon="5.80087">
        <ele>554</ele>
        <time>2019-06-17T07:23:16Z</time>
      </trkpt>
      <trkpt lat="44.2757" lon="5.80081">
        <ele>555</ele>
        <time>2019-06-17T07:23:17Z</time>
      </trkpt>
      <trkpt lat="44.27572" lon="5.80076">
        <ele>555</ele>
        <time>2019-06-17T07:23:18Z</time>
      </trkpt>
      <trkpt lat="44.27575" lon="5.80071">
        <ele>555</ele>
        <time>2019-06-17T07:23:19Z</time>
      </trkpt>
      <trkpt lat="44.27578" lon="5.80067">
        <ele>556</ele>
        <time>2019-06-17T07:23:20Z</time>
      </trkpt>
      <trkpt lat="44.27582" lon="5.80063">
        <ele>556</ele>
        <time>2019-06-17T07:23:21Z</time>
      </trkpt>
      <trkpt lat="44.27585" lon="5.80058">
        <ele>556</ele>
        <time>2019-06-17T07:23:22Z</time>
      </trkpt>
      <trkpt lat="44.27588" lon="5.80053">
        <ele>556</ele>
        <time>2019-06-17T07:23:23Z</time>
      </trkpt>
      <trkpt lat="44.27591" lon="5.80048">
        <ele>556</ele>
        <time>2019-06-17T07:23:24Z</time>
      </trkpt>
      <trkpt lat="44.27594" lon="5.80042">
        <ele>556</ele>
        <time>2019-06-17T07:23:25Z</time>
      </trkpt>
      <trkpt lat="44.27596" lon="5.80036">
        <ele>556</ele>
        <time>2019-06-17T07:23:26Z</time>
      </trkpt>
      <trkpt lat="44.27599" lon="5.8003">
        <ele>556</ele>
        <time>2019-06-17T07:23:27Z</time>
      </trkpt>
      <trkpt lat="44.27602" lon="5.80023">
        <ele>556</ele>
        <time>2019-06-17T07:23:28Z</time>
      </trkpt>
      <trkpt lat="44.27604" lon="5.80017">
        <ele>556</ele>
        <time>2019-06-17T07:23:29Z</time>
      </trkpt>
      <trkpt lat="44.27607" lon="5.80011">
        <ele>556</ele>
        <time>2019-06-17T07:23:30Z</time>
      </trkpt>
      <trkpt lat="44.27609" lon="5.80005">
        <ele>556</ele>
        <time>2019-06-17T07:23:31Z</time>
      </trkpt>
      <trkpt lat="44.27612" lon="5.79998">
        <ele>556</ele>
        <time>2019-06-17T07:23:32Z</time>
      </trkpt>
      <trkpt lat="44.27614" lon="5.79992">
        <ele>556</ele>
        <time>2019-06-17T07:23:33Z</time>
      </trkpt>
      <trkpt lat="44.27616" lon="5.79985">
        <ele>556</ele>
        <time>2019-06-17T07:23:34Z</time>
      </trkpt>
      <trkpt lat="44.27618" lon="5.79979">
        <ele>556</ele>
        <time>2019-06-17T07:23:35Z</time>
      </trkpt>
      <trkpt lat="44.27619" lon="5.79972">
        <ele>556</ele>
        <time>2019-06-17T07:23:36Z</time>
      </trkpt>
      <trkpt lat="44.27621" lon="5.79965">
        <ele>556</ele>
        <time>2019-06-17T07:23:37Z</time>
      </trkpt>
      <trkpt lat="44.27623" lon="5.79958">
        <ele>556</ele>
        <time>2019-06-17T07:23:38Z</time>
      </trkpt>
      <trkpt lat="44.27624" lon="5.79951">
        <ele>556</ele>
        <time>2019-06-17T07:23:39Z</time>
      </trkpt>
      <trkpt lat="44.27626" lon="5.79944">
        <ele>556</ele>
        <time>2019-06-17T07:23:40Z</time>
      </trkpt>
      <trkpt lat="44.27628" lon="5.79937">
        <ele>556</ele>
        <time>2019-06-17T07:23:41Z</time>
      </trkpt>
      <trkpt lat="44.2763" lon="5.79929">
        <ele>556</ele>
        <time>2019-06-17T07:23:42Z</time>
      </trkpt>
      <trkpt lat="44.27631" lon="5.79922">
        <ele>556</ele>
        <time>2019-06-17T07:23:43Z</time>
      </trkpt>
      <trkpt lat="44.27633" lon="5.79915">
        <ele>556</ele>
        <time>2019-06-17T07:23:44Z</time>
      </trkpt>
      <trkpt lat="44.27634" lon="5.79907">
        <ele>556</ele>
        <time>2019-06-17T07:23:45Z</time>
      </trkpt>
      <trkpt lat="44.27636" lon="5.799">
        <ele>556</ele>
        <time>2019-06-17T07:23:46Z</time>
      </trkpt>
      <trkpt lat="44.27639" lon="5.79893">
        <ele>556</ele>
        <time>2019-06-17T07:23:47Z</time>
      </trkpt>
      <trkpt lat="44.27641" lon="5.79885">
        <ele>556</ele>
        <time>2019-06-17T07:23:48Z</time>
      </trkpt>
      <trkpt lat="44.27643" lon="5.79878">
        <ele>556</ele>
        <time>2019-06-17T07:23:49Z</time>
      </trkpt>
      <trkpt lat="44.27646" lon="5.79871">
        <ele>556</ele>
        <time>2019-06-17T07:23:50Z</time>
      </trkpt>
      <trkpt lat="44.27648" lon="5.79864">
        <ele>556</ele>
        <time>2019-06-17T07:23:51Z</time>
      </trkpt>
      <trkpt lat="44.2765" lon="5.79856">
        <ele>556</ele>
        <time>2019-06-17T07:23:52Z</time>
      </trkpt>
      <trkpt lat="44.27652" lon="5.79848">
        <ele>556</ele>
        <time>2019-06-17T07:23:53Z</time>
      </trkpt>
      <trkpt lat="44.27654" lon="5.79841">
        <ele>556</ele>
        <time>2019-06-17T07:23:54Z</time>
      </trkpt>
      <trkpt lat="44.27655" lon="5.79833">
        <ele>556</ele>
        <time>2019-06-17T07:23:55Z</time>
      </trkpt>
      <trkpt lat="44.27658" lon="5.79825">
        <ele>556</ele>
        <time>2019-06-17T07:23:56Z</time>
      </trkpt>
      <trkpt lat="44.2766" lon="5.79818">
        <ele>556</ele>
        <time>2019-06-17T07:23:57Z</time>
      </trkpt>
      <trkpt lat="44.27663" lon="5.7981">
        <ele>556</ele>
        <time>2019-06-17T07:23:58Z</time>
      </trkpt>
      <trkpt lat="44.27665" lon="5.79802">
        <ele>556</ele>
        <time>2019-06-17T07:23:59Z</time>
      </trkpt>
      <trkpt lat="44.27667" lon="5.79794">
        <ele>556</ele>
        <time>2019-06-17T07:24:00Z</time>
      </trkpt>
      <trkpt lat="44.2767" lon="5.79786">
        <ele>556</ele>
        <time>2019-06-17T07:24:01Z</time>
      </trkpt>
      <trkpt lat="44.27672" lon="5.79778">
        <ele>556</ele>
        <time>2019-06-17T07:24:02Z</time>
      </trkpt>
      <trkpt lat="44.27674" lon="5.79771">
        <ele>556</ele>
        <time>2019-06-17T07:24:03Z</time>
      </trkpt>
      <trkpt lat="44.27675" lon="5.79762">
        <ele>556</ele>
        <time>2019-06-17T07:24:04Z</time>
      </trkpt>
      <trkpt lat="44.27676" lon="5.79754">
        <ele>556</ele>
        <time>2019-06-17T07:24:05Z</time>
      </trkpt>
      <trkpt lat="44.27678" lon="5.79746">
        <ele>556</ele>
        <time>2019-06-17T07:24:06Z</time>
      </trkpt>
      <trkpt lat="44.27679" lon="5.79738">
        <ele>556</ele>
        <time>2019-06-17T07:24:07Z</time>
      </trkpt>
      <trkpt lat="44.27679" lon="5.79729">
        <ele>556</ele>
        <time>2019-06-17T07:24:08Z</time>
      </trkpt>
      <trkpt lat="44.27679" lon="5.7972">
        <ele>556</ele>
        <time>2019-06-17T07:24:09Z</time>
      </trkpt>
      <trkpt lat="44.27679" lon="5.79712">
        <ele>556</ele>
        <time>2019-06-17T07:24:10Z</time>
      </trkpt>
      <trkpt lat="44.27679" lon="5.79703">
        <ele>557</ele>
        <time>2019-06-17T07:24:11Z</time>
      </trkpt>
      <trkpt lat="44.27679" lon="5.79694">
        <ele>557</ele>
        <time>2019-06-17T07:24:12Z</time>
      </trkpt>
      <trkpt lat="44.27678" lon="5.79686">
        <ele>558</ele>
        <time>2019-06-17T07:24:13Z</time>
      </trkpt>
      <trkpt lat="44.27678" lon="5.79677">
        <ele>558</ele>
        <time>2019-06-17T07:24:14Z</time>
      </trkpt>
      <trkpt lat="44.27677" lon="5.79669">
        <ele>559</ele>
        <time>2019-06-17T07:24:15Z</time>
      </trkpt>
      <trkpt lat="44.27677" lon="5.79661">
        <ele>560</ele>
        <time>2019-06-17T07:24:16Z</time>
      </trkpt>
      <trkpt lat="44.27677" lon="5.79652">
        <ele>560</ele>
        <time>2019-06-17T07:24:17Z</time>
      </trkpt>
      <trkpt lat="44.27677" lon="5.79644">
        <ele>561</ele>
        <time>2019-06-17T07:24:18Z</time>
      </trkpt>
      <trkpt lat="44.27677" lon="5.79636">
        <ele>562</ele>
        <time>2019-06-17T07:24:19Z</time>
      </trkpt>
      <trkpt lat="44.27679" lon="5.79628">
        <ele>562</ele>
        <time>2019-06-17T07:24:20Z</time>
      </trkpt>
      <trkpt lat="44.27681" lon="5.7962">
        <ele>562</ele>
        <time>2019-06-17T07:24:21Z</time>
      </trkpt>
      <trkpt lat="44.27681" lon="5.79612">
        <ele>563</ele>
        <time>2019-06-17T07:24:22Z</time>
      </trkpt>
      <trkpt lat="44.27682" lon="5.79604">
        <ele>563</ele>
        <time>2019-06-17T07:24:23Z</time>
      </trkpt>
      <trkpt lat="44.27684" lon="5.79596">
        <ele>563</ele>
        <time>2019-06-17T07:24:24Z</time>
      </trkpt>
      <trkpt lat="44.27684" lon="5.79588">
        <ele>563</ele>
        <time>2019-06-17T07:24:25Z</time>
      </trkpt>
      <trkpt lat="44.27686" lon="5.7958">
        <ele>563</ele>
        <time>2019-06-17T07:24:26Z</time>
      </trkpt>
      <trkpt lat="44.27686" lon="5.79573">
        <ele>563</ele>
        <time>2019-06-17T07:24:27Z</time>
      </trkpt>
      <trkpt lat="44.27686" lon="5.79565">
        <ele>563</ele>
        <time>2019-06-17T07:24:28Z</time>
      </trkpt>
      <trkpt lat="44.27687" lon="5.79558">
        <ele>563</ele>
        <time>2019-06-17T07:24:29Z</time>
      </trkpt>
      <trkpt lat="44.27688" lon="5.79551">
        <ele>563</ele>
        <time>2019-06-17T07:24:30Z</time>
      </trkpt>
      <trkpt lat="44.27689" lon="5.79544">
        <ele>563</ele>
        <time>2019-06-17T07:24:31Z</time>
      </trkpt>
      <trkpt lat="44.27689" lon="5.79537">
        <ele>563</ele>
        <time>2019-06-17T07:24:32Z</time>
      </trkpt>
      <trkpt lat="44.2769" lon="5.7953">
        <ele>563</ele>
        <time>2019-06-17T07:24:33Z</time>
      </trkpt>
      <trkpt lat="44.2769" lon="5.79522">
        <ele>563</ele>
        <time>2019-06-17T07:24:34Z</time>
      </trkpt>
      <trkpt lat="44.27691" lon="5.79515">
        <ele>563</ele>
        <time>2019-06-17T07:24:35Z</time>
      </trkpt>
      <trkpt lat="44.27692" lon="5.79507">
        <ele>564</ele>
        <time>2019-06-17T07:24:36Z</time>
      </trkpt>
      <trkpt lat="44.27693" lon="5.795">
        <ele>564</ele>
        <time>2019-06-17T07:24:37Z</time>
      </trkpt>
      <trkpt lat="44.27694" lon="5.79493">
        <ele>565</ele>
        <time>2019-06-17T07:24:38Z</time>
      </trkpt>
      <trkpt lat="44.27694" lon="5.79486">
        <ele>566</ele>
        <time>2019-06-17T07:24:39Z</time>
      </trkpt>
      <trkpt lat="44.27695" lon="5.79478">
        <ele>566</ele>
        <time>2019-06-17T07:24:40Z</time>
      </trkpt>
      <trkpt lat="44.27697" lon="5.79471">
        <ele>566</ele>
        <time>2019-06-17T07:24:41Z</time>
      </trkpt>
      <trkpt lat="44.27699" lon="5.79463">
        <ele>566</ele>
        <time>2019-06-17T07:24:42Z</time>
      </trkpt>
      <trkpt lat="44.277" lon="5.79456">
        <ele>566</ele>
        <time>2019-06-17T07:24:43Z</time>
      </trkpt>
      <trkpt lat="44.277" lon="5.79449">
        <ele>566</ele>
        <time>2019-06-17T07:24:44Z</time>
      </trkpt>
      <trkpt lat="44.27703" lon="5.79441">
        <ele>566</ele>
        <time>2019-06-17T07:24:45Z</time>
      </trkpt>
      <trkpt lat="44.27705" lon="5.79434">
        <ele>566</ele>
        <time>2019-06-17T07:24:46Z</time>
      </trkpt>
      <trkpt lat="44.27708" lon="5.79428">
        <ele>566</ele>
        <time>2019-06-17T07:24:47Z</time>
      </trkpt>
      <trkpt lat="44.27711" lon="5.79422">
        <ele>566</ele>
        <time>2019-06-17T07:24:48Z</time>
      </trkpt>
      <trkpt lat="44.27713" lon="5.79415">
        <ele>566</ele>
        <time>2019-06-17T07:24:49Z</time>
      </trkpt>
      <trkpt lat="44.27716" lon="5.79409">
        <ele>566</ele>
        <time>2019-06-17T07:24:50Z</time>
      </trkpt>
      <trkpt lat="44.27719" lon="5.79404">
        <ele>566</ele>
        <time>2019-06-17T07:24:51Z</time>
      </trkpt>
      <trkpt lat="44.27721" lon="5.79398">
        <ele>566</ele>
        <time>2019-06-17T07:24:52Z</time>
      </trkpt>
      <trkpt lat="44.27724" lon="5.79393">
        <ele>566</ele>
        <time>2019-06-17T07:24:53Z</time>
      </trkpt>
      <trkpt lat="44.27727" lon="5.79387">
        <ele>566</ele>
        <time>2019-06-17T07:24:54Z</time>
      </trkpt>
      <trkpt lat="44.2773" lon="5.79382">
        <ele>566</ele>
        <time>2019-06-17T07:24:55Z</time>
      </trkpt>
      <trkpt lat="44.27733" lon="5.79376">
        <ele>566</ele>
        <time>2019-06-17T07:24:56Z</time>
      </trkpt>
      <trkpt lat="44.27736" lon="5.79371">
        <ele>566</ele>
        <time>2019-06-17T07:24:57Z</time>
      </trkpt>
      <trkpt lat="44.27738" lon="5.79365">
        <ele>566</ele>
        <time>2019-06-17T07:24:58Z</time>
      </trkpt>
      <trkpt lat="44.27742" lon="5.7936">
        <ele>566</ele>
        <time>2019-06-17T07:24:59Z</time>
      </trkpt>
      <trkpt lat="44.27745" lon="5.79356">
        <ele>566</ele>
        <time>2019-06-17T07:25:00Z</time>
      </trkpt>
      <trkpt lat="44.27749" lon="5.79352">
        <ele>566</ele>
        <time>2019-06-17T07:25:01Z</time>
      </trkpt>
      <trkpt lat="44.27753" lon="5.79349">
        <ele>566</ele>
        <time>2019-06-17T07:25:02Z</time>
      </trkpt>
      <trkpt lat="44.27758" lon="5.79345">
        <ele>566</ele>
        <time>2019-06-17T07:25:03Z</time>
      </trkpt>
      <trkpt lat="44.27763" lon="5.79342">
        <ele>566</ele>
        <time>2019-06-17T07:25:04Z</time>
      </trkpt>
      <trkpt lat="44.27767" lon="5.79339">
        <ele>566</ele>
        <time>2019-06-17T07:25:05Z</time>
      </trkpt>
      <trkpt lat="44.27771" lon="5.79337">
        <ele>567</ele>
        <time>2019-06-17T07:25:06Z</time>
      </trkpt>
      <trkpt lat="44.27776" lon="5.79334">
        <ele>567</ele>
        <time>2019-06-17T07:25:07Z</time>
      </trkpt>
      <trkpt lat="44.27781" lon="5.79333">
        <ele>568</ele>
        <time>2019-06-17T07:25:08Z</time>
      </trkpt>
      <trkpt lat="44.27785" lon="5.79332">
        <ele>568</ele>
        <time>2019-06-17T07:25:09Z</time>
      </trkpt>
      <trkpt lat="44.2779" lon="5.79331">
        <ele>568</ele>
        <time>2019-06-17T07:25:10Z</time>
      </trkpt>
      <trkpt lat="44.27795" lon="5.79331">
        <ele>569</ele>
        <time>2019-06-17T07:25:11Z</time>
      </trkpt>
      <trkpt lat="44.278" lon="5.7933">
        <ele>569</ele>
        <time>2019-06-17T07:25:12Z</time>
      </trkpt>
      <trkpt lat="44.27805" lon="5.79328">
        <ele>570</ele>
        <time>2019-06-17T07:25:13Z</time>
      </trkpt>
      <trkpt lat="44.2781" lon="5.79327">
        <ele>571</ele>
        <time>2019-06-17T07:25:14Z</time>
      </trkpt>
      <trkpt lat="44.27815" lon="5.79324">
        <ele>571</ele>
        <time>2019-06-17T07:25:15Z</time>
      </trkpt>
      <trkpt lat="44.27819" lon="5.7932">
        <ele>572</ele>
        <time>2019-06-17T07:25:16Z</time>
      </trkpt>
      <trkpt lat="44.27822" lon="5.79316">
        <ele>572</ele>
        <time>2019-06-17T07:25:17Z</time>
      </trkpt>
      <trkpt lat="44.27826" lon="5.79312">
        <ele>572</ele>
        <time>2019-06-17T07:25:18Z</time>
      </trkpt>
      <trkpt lat="44.27828" lon="5.79308">
        <ele>572</ele>
        <time>2019-06-17T07:25:19Z</time>
      </trkpt>
      <trkpt lat="44.27831" lon="5.79303">
        <ele>572</ele>
        <time>2019-06-17T07:25:20Z</time>
      </trkpt>
      <trkpt lat="44.27833" lon="5.79298">
        <ele>572</ele>
        <time>2019-06-17T07:25:21Z</time>
      </trkpt>
      <trkpt lat="44.27836" lon="5.79293">
        <ele>572</ele>
        <time>2019-06-17T07:25:22Z</time>
      </trkpt>
      <trkpt lat="44.27838" lon="5.79288">
        <ele>572</ele>
        <time>2019-06-17T07:25:23Z</time>
      </trkpt>
      <trkpt lat="44.27841" lon="5.79283">
        <ele>572</ele>
        <time>2019-06-17T07:25:24Z</time>
      </trkpt>
      <trkpt lat="44.27843" lon="5.79277">
        <ele>572</ele>
        <time>2019-06-17T07:25:25Z</time>
      </trkpt>
      <trkpt lat="44.27845" lon="5.79272">
        <ele>572</ele>
        <time>2019-06-17T07:25:26Z</time>
      </trkpt>
      <trkpt lat="44.27847" lon="5.79266">
        <ele>572</ele>
        <time>2019-06-17T07:25:27Z</time>
      </trkpt>
      <trkpt lat="44.27849" lon="5.7926">
        <ele>572</ele>
        <time>2019-06-17T07:25:28Z</time>
      </trkpt>
      <trkpt lat="44.27852" lon="5.79254">
        <ele>571</ele>
        <time>2019-06-17T07:25:29Z</time>
      </trkpt>
      <trkpt lat="44.27854" lon="5.79249">
        <ele>571</ele>
        <time>2019-06-17T07:25:30Z</time>
      </trkpt>
      <trkpt lat="44.27856" lon="5.79243">
        <ele>571</ele>
        <time>2019-06-17T07:25:31Z</time>
      </trkpt>
      <trkpt lat="44.27859" lon="5.79238">
        <ele>571</ele>
        <time>2019-06-17T07:25:32Z</time>
      </trkpt>
      <trkpt lat="44.27861" lon="5.79233">
        <ele>571</ele>
        <time>2019-06-17T07:25:33Z</time>
      </trkpt>
      <trkpt lat="44.27863" lon="5.79227">
        <ele>571</ele>
        <time>2019-06-17T07:25:34Z</time>
      </trkpt>
      <trkpt lat="44.27865" lon="5.79221">
        <ele>571</ele>
        <time>2019-06-17T07:25:35Z</time>
      </trkpt>
      <trkpt lat="44.27866" lon="5.79215">
        <ele>571</ele>
        <time>2019-06-17T07:25:36Z</time>
      </trkpt>
      <trkpt lat="44.27868" lon="5.79209">
        <ele>571</ele>
        <time>2019-06-17T07:25:37Z</time>
      </trkpt>
      <trkpt lat="44.27869" lon="5.79204">
        <ele>571</ele>
        <time>2019-06-17T07:25:38Z</time>
      </trkpt>
      <trkpt lat="44.27869" lon="5.79197">
        <ele>571</ele>
        <time>2019-06-17T07:25:39Z</time>
      </trkpt>
      <trkpt lat="44.27869" lon="5.7919">
        <ele>571</ele>
        <time>2019-06-17T07:25:40Z</time>
      </trkpt>
      <trkpt lat="44.27869" lon="5.79183">
        <ele>571</ele>
        <time>2019-06-17T07:25:41Z</time>
      </trkpt>
      <trkpt lat="44.27869" lon="5.79176">
        <ele>571</ele>
        <time>2019-06-17T07:25:42Z</time>
      </trkpt>
      <trkpt lat="44.27868" lon="5.7917">
        <ele>571</ele>
        <time>2019-06-17T07:25:43Z</time>
      </trkpt>
      <trkpt lat="44.27867" lon="5.79163">
        <ele>571</ele>
        <time>2019-06-17T07:25:44Z</time>
      </trkpt>
      <trkpt lat="44.27866" lon="5.79157">
        <ele>572</ele>
        <time>2019-06-17T07:25:45Z</time>
      </trkpt>
      <trkpt lat="44.27864" lon="5.79151">
        <ele>573</ele>
        <time>2019-06-17T07:25:46Z</time>
      </trkpt>
      <trkpt lat="44.27863" lon="5.79145">
        <ele>573</ele>
        <time>2019-06-17T07:25:47Z</time>
      </trkpt>
      <trkpt lat="44.27861" lon="5.79141">
        <ele>574</ele>
        <time>2019-06-17T07:25:48Z</time>
      </trkpt>
      <trkpt lat="44.27858" lon="5.79137">
        <ele>574</ele>
        <time>2019-06-17T07:25:49Z</time>
      </trkpt>
      <trkpt lat="44.27855" lon="5.79132">
        <ele>575</ele>
        <time>2019-06-17T07:25:50Z</time>
      </trkpt>
      <trkpt lat="44.27852" lon="5.79128">
        <ele>575</ele>
        <time>2019-06-17T07:25:51Z</time>
      </trkpt>
      <trkpt lat="44.27849" lon="5.79123">
        <ele>575</ele>
        <time>2019-06-17T07:25:52Z</time>
      </trkpt>
      <trkpt lat="44.27847" lon="5.79118">
        <ele>576</ele>
        <time>2019-06-17T07:25:53Z</time>
      </trkpt>
      <trkpt lat="44.27845" lon="5.79113">
        <ele>576</ele>
        <time>2019-06-17T07:25:54Z</time>
      </trkpt>
      <trkpt lat="44.27843" lon="5.79107">
        <ele>577</ele>
        <time>2019-06-17T07:25:55Z</time>
      </trkpt>
      <trkpt lat="44.27842" lon="5.79101">
        <ele>577</ele>
        <time>2019-06-17T07:25:56Z</time>
      </trkpt>
      <trkpt lat="44.2784" lon="5.79095">
        <ele>577</ele>
        <time>2019-06-17T07:25:57Z</time>
      </trkpt>
      <trkpt lat="44.27838" lon="5.7909">
        <ele>578</ele>
        <time>2019-06-17T07:25:58Z</time>
      </trkpt>
      <trkpt lat="44.27836" lon="5.79085">
        <ele>578</ele>
        <time>2019-06-17T07:25:59Z</time>
      </trkpt>
      <trkpt lat="44.27833" lon="5.7908">
        <ele>578</ele>
        <time>2019-06-17T07:26:00Z</time>
      </trkpt>
      <trkpt lat="44.2783" lon="5.79075">
        <ele>579</ele>
        <time>2019-06-17T07:26:01Z</time>
      </trkpt>
      <trkpt lat="44.27826" lon="5.79072">
        <ele>579</ele>
        <time>2019-06-17T07:26:02Z</time>
      </trkpt>
      <trkpt lat="44.27823" lon="5.79068">
        <ele>579</ele>
        <time>2019-06-17T07:26:03Z</time>
      </trkpt>
      <trkpt lat="44.2782" lon="5.79064">
        <ele>579</ele>
        <time>2019-06-17T07:26:04Z</time>
      </trkpt>
      <trkpt lat="44.27816" lon="5.7906">
        <ele>579</ele>
        <time>2019-06-17T07:26:05Z</time>
      </trkpt>
      <trkpt lat="44.27813" lon="5.79056">
        <ele>579</ele>
        <time>2019-06-17T07:26:06Z</time>
      </trkpt>
      <trkpt lat="44.2781" lon="5.79051">
        <ele>580</ele>
        <time>2019-06-17T07:26:07Z</time>
      </trkpt>
      <trkpt lat="44.27807" lon="5.79045">
        <ele>580</ele>
        <time>2019-06-17T07:26:08Z</time>
      </trkpt>
      <trkpt lat="44.27806" lon="5.79039">
        <ele>580</ele>
        <time>2019-06-17T07:26:09Z</time>
      </trkpt>
      <trkpt lat="44.27805" lon="5.79033">
        <ele>580</ele>
        <time>2019-06-17T07:26:10Z</time>
      </trkpt>
      <trkpt lat="44.27805" lon="5.79027">
        <ele>581</ele>
        <time>2019-06-17T07:26:11Z</time>
      </trkpt>
      <trkpt lat="44.27806" lon="5.7902">
        <ele>581</ele>
        <time>2019-06-17T07:26:12Z</time>
      </trkpt>
      <trkpt lat="44.27826" lon="5.78995">
        <ele>581</ele>
        <time>2019-06-17T07:26:18Z</time>
      </trkpt>
      <trkpt lat="44.27832" lon="5.78997">
        <ele>581</ele>
        <time>2019-06-17T07:26:19Z</time>
      </trkpt>
      <trkpt lat="44.27839" lon="5.78996">
        <ele>582</ele>
        <time>2019-06-17T07:26:20Z</time>
      </trkpt>
      <trkpt lat="44.2789" lon="5.79008">
        <ele>583</ele>
        <time>2019-06-17T07:26:28Z</time>
      </trkpt>
      <trkpt lat="44.27895" lon="5.79009">
        <ele>584</ele>
        <time>2019-06-17T07:26:29Z</time>
      </trkpt>
      <trkpt lat="44.27901" lon="5.7901">
        <ele>584</ele>
        <time>2019-06-17T07:26:30Z</time>
      </trkpt>
      <trkpt lat="44.27907" lon="5.79009">
        <ele>585</ele>
        <time>2019-06-17T07:26:31Z</time>
      </trkpt>
      <trkpt lat="44.27912" lon="5.79006">
        <ele>585</ele>
        <time>2019-06-17T07:26:32Z</time>
      </trkpt>
      <trkpt lat="44.27917" lon="5.79004">
        <ele>585</ele>
        <time>2019-06-17T07:26:33Z</time>
      </trkpt>
      <trkpt lat="44.27922" lon="5.79001">
        <ele>585</ele>
        <time>2019-06-17T07:26:34Z</time>
      </trkpt>
      <trkpt lat="44.27928" lon="5.78998">
        <ele>585</ele>
        <time>2019-06-17T07:26:35Z</time>
      </trkpt>
      <trkpt lat="44.27933" lon="5.78995">
        <ele>585</ele>
        <time>2019-06-17T07:26:36Z</time>
      </trkpt>
      <trkpt lat="44.27939" lon="5.78991">
        <ele>585</ele>
        <time>2019-06-17T07:26:37Z</time>
      </trkpt>
      <trkpt lat="44.27944" lon="5.78987">
        <ele>585</ele>
        <time>2019-06-17T07:26:38Z</time>
      </trkpt>
      <trkpt lat="44.27949" lon="5.78981">
        <ele>585</ele>
        <time>2019-06-17T07:26:39Z</time>
      </trkpt>
      <trkpt lat="44.27953" lon="5.78975">
        <ele>584</ele>
        <time>2019-06-17T07:26:40Z</time>
      </trkpt>
      <trkpt lat="44.27957" lon="5.78968">
        <ele>584</ele>
        <time>2019-06-17T07:26:41Z</time>
      </trkpt>
      <trkpt lat="44.2796" lon="5.78961">
        <ele>583</ele>
        <time>2019-06-17T07:26:42Z</time>
      </trkpt>
      <trkpt lat="44.27963" lon="5.78952">
        <ele>583</ele>
        <time>2019-06-17T07:26:43Z</time>
      </trkpt>
      <trkpt lat="44.27965" lon="5.78944">
        <ele>582</ele>
        <time>2019-06-17T07:26:44Z</time>
      </trkpt>
      <trkpt lat="44.27967" lon="5.78935">
        <ele>582</ele>
        <time>2019-06-17T07:26:45Z</time>
      </trkpt>
      <trkpt lat="44.27968" lon="5.78926">
        <ele>581</ele>
        <time>2019-06-17T07:26:46Z</time>
      </trkpt>
      <trkpt lat="44.27969" lon="5.78917">
        <ele>581</ele>
        <time>2019-06-17T07:26:47Z</time>
      </trkpt>
      <trkpt lat="44.27969" lon="5.78908">
        <ele>580</ele>
        <time>2019-06-17T07:26:48Z</time>
      </trkpt>
      <trkpt lat="44.2797" lon="5.78899">
        <ele>580</ele>
        <time>2019-06-17T07:26:49Z</time>
      </trkpt>
      <trkpt lat="44.2797" lon="5.78891">
        <ele>579</ele>
        <time>2019-06-17T07:26:50Z</time>
      </trkpt>
      <trkpt lat="44.2797" lon="5.78882">
        <ele>579</ele>
        <time>2019-06-17T07:26:51Z</time>
      </trkpt>
      <trkpt lat="44.27969" lon="5.78872">
        <ele>579</ele>
        <time>2019-06-17T07:26:52Z</time>
      </trkpt>
      <trkpt lat="44.27968" lon="5.78862">
        <ele>579</ele>
        <time>2019-06-17T07:26:53Z</time>
      </trkpt>
      <trkpt lat="44.27967" lon="5.78853">
        <ele>579</ele>
        <time>2019-06-17T07:26:54Z</time>
      </trkpt>
      <trkpt lat="44.27965" lon="5.78843">
        <ele>579</ele>
        <time>2019-06-17T07:26:55Z</time>
      </trkpt>
      <trkpt lat="44.27963" lon="5.78833">
        <ele>579</ele>
        <time>2019-06-17T07:26:56Z</time>
      </trkpt>
      <trkpt lat="44.27961" lon="5.78824">
        <ele>579</ele>
        <time>2019-06-17T07:26:57Z</time>
      </trkpt>
      <trkpt lat="44.27958" lon="5.78815">
        <ele>579</ele>
        <time>2019-06-17T07:26:58Z</time>
      </trkpt>
      <trkpt lat="44.27956" lon="5.78805">
        <ele>579</ele>
        <time>2019-06-17T07:26:59Z</time>
      </trkpt>
      <trkpt lat="44.27953" lon="5.78796">
        <ele>579</ele>
        <time>2019-06-17T07:27:00Z</time>
      </trkpt>
      <trkpt lat="44.27951" lon="5.78787">
        <ele>579</ele>
        <time>2019-06-17T07:27:01Z</time>
      </trkpt>
      <trkpt lat="44.27948" lon="5.78778">
        <ele>579</ele>
        <time>2019-06-17T07:27:02Z</time>
      </trkpt>
      <trkpt lat="44.27944" lon="5.78769">
        <ele>580</ele>
        <time>2019-06-17T07:27:03Z</time>
      </trkpt>
      <trkpt lat="44.27941" lon="5.7876">
        <ele>580</ele>
        <time>2019-06-17T07:27:04Z</time>
      </trkpt>
      <trkpt lat="44.27938" lon="5.78752">
        <ele>580</ele>
        <time>2019-06-17T07:27:05Z</time>
      </trkpt>
      <trkpt lat="44.27935" lon="5.78742">
        <ele>580</ele>
        <time>2019-06-17T07:27:06Z</time>
      </trkpt>
      <trkpt lat="44.27934" lon="5.78733">
        <ele>580</ele>
        <time>2019-06-17T07:27:07Z</time>
      </trkpt>
      <trkpt lat="44.27933" lon="5.78723">
        <ele>580</ele>
        <time>2019-06-17T07:27:08Z</time>
      </trkpt>
      <trkpt lat="44.27932" lon="5.78713">
        <ele>580</ele>
        <time>2019-06-17T07:27:09Z</time>
      </trkpt>
      <trkpt lat="44.27932" lon="5.78703">
        <ele>580</ele>
        <time>2019-06-17T07:27:10Z</time>
      </trkpt>
      <trkpt lat="44.27931" lon="5.78693">
        <ele>580</ele>
        <time>2019-06-17T07:27:11Z</time>
      </trkpt>
      <trkpt lat="44.27931" lon="5.78683">
        <ele>580</ele>
        <time>2019-06-17T07:27:12Z</time>
      </trkpt>
      <trkpt lat="44.27931" lon="5.78673">
        <ele>580</ele>
        <time>2019-06-17T07:27:13Z</time>
      </trkpt>
      <trkpt lat="44.27932" lon="5.78663">
        <ele>580</ele>
        <time>2019-06-17T07:27:14Z</time>
      </trkpt>
      <trkpt lat="44.27934" lon="5.78654">
        <ele>580</ele>
        <time>2019-06-17T07:27:15Z</time>
      </trkpt>
      <trkpt lat="44.27938" lon="5.78646">
        <ele>580</ele>
        <time>2019-06-17T07:27:16Z</time>
      </trkpt>
      <trkpt lat="44.27943" lon="5.78639">
        <ele>580</ele>
        <time>2019-06-17T07:27:17Z</time>
      </trkpt>
      <trkpt lat="44.27947" lon="5.78631">
        <ele>580</ele>
        <time>2019-06-17T07:27:18Z</time>
      </trkpt>
      <trkpt lat="44.27952" lon="5.78623">
        <ele>579</ele>
        <time>2019-06-17T07:27:19Z</time>
      </trkpt>
      <trkpt lat="44.27958" lon="5.78614">
        <ele>578</ele>
        <time>2019-06-17T07:27:20Z</time>
      </trkpt>
      <trkpt lat="44.27961" lon="5.78606">
        <ele>577</ele>
        <time>2019-06-17T07:27:21Z</time>
      </trkpt>
      <trkpt lat="44.27963" lon="5.78597">
        <ele>576</ele>
        <time>2019-06-17T07:27:22Z</time>
      </trkpt>
      <trkpt lat="44.27964" lon="5.78588">
        <ele>575</ele>
        <time>2019-06-17T07:27:23Z</time>
      </trkpt>
      <trkpt lat="44.27964" lon="5.78579">
        <ele>574</ele>
        <time>2019-06-17T07:27:24Z</time>
      </trkpt>
      <trkpt lat="44.27966" lon="5.7857">
        <ele>573</ele>
        <time>2019-06-17T07:27:25Z</time>
      </trkpt>
      <trkpt lat="44.27966" lon="5.7856">
        <ele>573</ele>
        <time>2019-06-17T07:27:26Z</time>
      </trkpt>
      <trkpt lat="44.27966" lon="5.78551">
        <ele>573</ele>
        <time>2019-06-17T07:27:27Z</time>
      </trkpt>
      <trkpt lat="44.27966" lon="5.78541">
        <ele>573</ele>
        <time>2019-06-17T07:27:28Z</time>
      </trkpt>
      <trkpt lat="44.27965" lon="5.78532">
        <ele>573</ele>
        <time>2019-06-17T07:27:29Z</time>
      </trkpt>
      <trkpt lat="44.27965" lon="5.78523">
        <ele>573</ele>
        <time>2019-06-17T07:27:30Z</time>
      </trkpt>
      <trkpt lat="44.27965" lon="5.78514">
        <ele>573</ele>
        <time>2019-06-17T07:27:31Z</time>
      </trkpt>
      <trkpt lat="44.27964" lon="5.78505">
        <ele>573</ele>
        <time>2019-06-17T07:27:32Z</time>
      </trkpt>
      <trkpt lat="44.27963" lon="5.78497">
        <ele>573</ele>
        <time>2019-06-17T07:27:33Z</time>
      </trkpt>
      <trkpt lat="44.27962" lon="5.78488">
        <ele>573</ele>
        <time>2019-06-17T07:27:34Z</time>
      </trkpt>
      <trkpt lat="44.27961" lon="5.78479">
        <ele>573</ele>
        <time>2019-06-17T07:27:35Z</time>
      </trkpt>
      <trkpt lat="44.2796" lon="5.7847">
        <ele>573</ele>
        <time>2019-06-17T07:27:36Z</time>
      </trkpt>
      <trkpt lat="44.27959" lon="5.78461">
        <ele>574</ele>
        <time>2019-06-17T07:27:37Z</time>
      </trkpt>
      <trkpt lat="44.27958" lon="5.78452">
        <ele>574</ele>
        <time>2019-06-17T07:27:38Z</time>
      </trkpt>
      <trkpt lat="44.27957" lon="5.78444">
        <ele>574</ele>
        <time>2019-06-17T07:27:39Z</time>
      </trkpt>
      <trkpt lat="44.27955" lon="5.78435">
        <ele>574</ele>
        <time>2019-06-17T07:27:40Z</time>
      </trkpt>
      <trkpt lat="44.27953" lon="5.78427">
        <ele>575</ele>
        <time>2019-06-17T07:27:41Z</time>
      </trkpt>
      <trkpt lat="44.27952" lon="5.78419">
        <ele>575</ele>
        <time>2019-06-17T07:27:42Z</time>
      </trkpt>
      <trkpt lat="44.2795" lon="5.78411">
        <ele>575</ele>
        <time>2019-06-17T07:27:43Z</time>
      </trkpt>
      <trkpt lat="44.27949" lon="5.78403">
        <ele>576</ele>
        <time>2019-06-17T07:27:44Z</time>
      </trkpt>
      <trkpt lat="44.27948" lon="5.78395">
        <ele>576</ele>
        <time>2019-06-17T07:27:45Z</time>
      </trkpt>
      <trkpt lat="44.27946" lon="5.78386">
        <ele>576</ele>
        <time>2019-06-17T07:27:46Z</time>
      </trkpt>
      <trkpt lat="44.27945" lon="5.78378">
        <ele>576</ele>
        <time>2019-06-17T07:27:48Z</time>
      </trkpt>
      <trkpt lat="44.27944" lon="5.78371">
        <ele>576</ele>
        <time>2019-06-17T07:27:48Z</time>
      </trkpt>
      <trkpt lat="44.27943" lon="5.78363">
        <ele>576</ele>
        <time>2019-06-17T07:27:49Z</time>
      </trkpt>
      <trkpt lat="44.27941" lon="5.78355">
        <ele>576</ele>
        <time>2019-06-17T07:27:50Z</time>
      </trkpt>
      <trkpt lat="44.27939" lon="5.78347">
        <ele>576</ele>
        <time>2019-06-17T07:27:51Z</time>
      </trkpt>
      <trkpt lat="44.27938" lon="5.78339">
        <ele>576</ele>
        <time>2019-06-17T07:27:52Z</time>
      </trkpt>
      <trkpt lat="44.27936" lon="5.7833">
        <ele>576</ele>
        <time>2019-06-17T07:27:53Z</time>
      </trkpt>
      <trkpt lat="44.27935" lon="5.78322">
        <ele>576</ele>
        <time>2019-06-17T07:27:54Z</time>
      </trkpt>
      <trkpt lat="44.27934" lon="5.78314">
        <ele>576</ele>
        <time>2019-06-17T07:27:55Z</time>
      </trkpt>
      <trkpt lat="44.27932" lon="5.78306">
        <ele>576</ele>
        <time>2019-06-17T07:27:56Z</time>
      </trkpt>
      <trkpt lat="44.2793" lon="5.78298">
        <ele>576</ele>
        <time>2019-06-17T07:27:57Z</time>
      </trkpt>
      <trkpt lat="44.27928" lon="5.78291">
        <ele>576</ele>
        <time>2019-06-17T07:27:58Z</time>
      </trkpt>
      <trkpt lat="44.27926" lon="5.78283">
        <ele>576</ele>
        <time>2019-06-17T07:27:59Z</time>
      </trkpt>
      <trkpt lat="44.27924" lon="5.78275">
        <ele>576</ele>
        <time>2019-06-17T07:28:00Z</time>
      </trkpt>
      <trkpt lat="44.27921" lon="5.78268">
        <ele>576</ele>
        <time>2019-06-17T07:28:01Z</time>
      </trkpt>
      <trkpt lat="44.27917" lon="5.78261">
        <ele>576</ele>
        <time>2019-06-17T07:28:02Z</time>
      </trkpt>
      <trkpt lat="44.27914" lon="5.78255">
        <ele>576</ele>
        <time>2019-06-17T07:28:03Z</time>
      </trkpt>
      <trkpt lat="44.2791" lon="5.78249">
        <ele>576</ele>
        <time>2019-06-17T07:28:04Z</time>
      </trkpt>
      <trkpt lat="44.27906" lon="5.78243">
        <ele>576</ele>
        <time>2019-06-17T07:28:05Z</time>
      </trkpt>
      <trkpt lat="44.27902" lon="5.78237">
        <ele>576</ele>
        <time>2019-06-17T07:28:06Z</time>
      </trkpt>
      <trkpt lat="44.27898" lon="5.78231">
        <ele>576</ele>
        <time>2019-06-17T07:28:07Z</time>
      </trkpt>
      <trkpt lat="44.27895" lon="5.78225">
        <ele>576</ele>
        <time>2019-06-17T07:28:08Z</time>
      </trkpt>
      <trkpt lat="44.27891" lon="5.78218">
        <ele>576</ele>
        <time>2019-06-17T07:28:09Z</time>
      </trkpt>
      <trkpt lat="44.27887" lon="5.78212">
        <ele>576</ele>
        <time>2019-06-17T07:28:10Z</time>
      </trkpt>
      <trkpt lat="44.27883" lon="5.78205">
        <ele>576</ele>
        <time>2019-06-17T07:28:11Z</time>
      </trkpt>
      <trkpt lat="44.27879" lon="5.782">
        <ele>576</ele>
        <time>2019-06-17T07:28:12Z</time>
      </trkpt>
      <trkpt lat="44.27875" lon="5.78195">
        <ele>577</ele>
        <time>2019-06-17T07:28:13Z</time>
      </trkpt>
      <trkpt lat="44.2787" lon="5.78192">
        <ele>577</ele>
        <time>2019-06-17T07:28:14Z</time>
      </trkpt>
      <trkpt lat="44.27865" lon="5.78189">
        <ele>577</ele>
        <time>2019-06-17T07:28:15Z</time>
      </trkpt>
      <trkpt lat="44.27859" lon="5.78187">
        <ele>578</ele>
        <time>2019-06-17T07:28:16Z</time>
      </trkpt>
      <trkpt lat="44.27854" lon="5.78186">
        <ele>578</ele>
        <time>2019-06-17T07:28:17Z</time>
      </trkpt>
      <trkpt lat="44.27849" lon="5.78185">
        <ele>578</ele>
        <time>2019-06-17T07:28:18Z</time>
      </trkpt>
      <trkpt lat="44.27843" lon="5.78185">
        <ele>578</ele>
        <time>2019-06-17T07:28:19Z</time>
      </trkpt>
      <trkpt lat="44.27838" lon="5.78185">
        <ele>579</ele>
        <time>2019-06-17T07:28:20Z</time>
      </trkpt>
      <trkpt lat="44.27832" lon="5.78186">
        <ele>579</ele>
        <time>2019-06-17T07:28:21Z</time>
      </trkpt>
      <trkpt lat="44.27827" lon="5.78188">
        <ele>579</ele>
        <time>2019-06-17T07:28:22Z</time>
      </trkpt>
      <trkpt lat="44.27822" lon="5.7819">
        <ele>579</ele>
        <time>2019-06-17T07:28:23Z</time>
      </trkpt>
      <trkpt lat="44.27817" lon="5.78193">
        <ele>579</ele>
        <time>2019-06-17T07:28:24Z</time>
      </trkpt>
      <trkpt lat="44.27812" lon="5.78196">
        <ele>579</ele>
        <time>2019-06-17T07:28:25Z</time>
      </trkpt>
      <trkpt lat="44.27807" lon="5.78199">
        <ele>579</ele>
        <time>2019-06-17T07:28:26Z</time>
      </trkpt>
      <trkpt lat="44.27802" lon="5.78201">
        <ele>579</ele>
        <time>2019-06-17T07:28:27Z</time>
      </trkpt>
      <trkpt lat="44.27797" lon="5.78205">
        <ele>579</ele>
        <time>2019-06-17T07:28:28Z</time>
      </trkpt>
      <trkpt lat="44.27792" lon="5.78208">
        <ele>579</ele>
        <time>2019-06-17T07:28:29Z</time>
      </trkpt>
      <trkpt lat="44.27787" lon="5.78213">
        <ele>579</ele>
        <time>2019-06-17T07:28:30Z</time>
      </trkpt>
      <trkpt lat="44.27783" lon="5.78218">
        <ele>579</ele>
        <time>2019-06-17T07:28:31Z</time>
      </trkpt>
      <trkpt lat="44.27778" lon="5.78222">
        <ele>579</ele>
        <time>2019-06-17T07:28:32Z</time>
      </trkpt>
      <trkpt lat="44.27774" lon="5.78227">
        <ele>579</ele>
        <time>2019-06-17T07:28:33Z</time>
      </trkpt>
      <trkpt lat="44.27769" lon="5.7823">
        <ele>579</ele>
        <time>2019-06-17T07:28:34Z</time>
      </trkpt>
      <trkpt lat="44.27765" lon="5.78235">
        <ele>579</ele>
        <time>2019-06-17T07:28:35Z</time>
      </trkpt>
      <trkpt lat="44.2776" lon="5.7824">
        <ele>579</ele>
        <time>2019-06-17T07:28:36Z</time>
      </trkpt>
      <trkpt lat="44.27755" lon="5.78244">
        <ele>579</ele>
        <time>2019-06-17T07:28:37Z</time>
      </trkpt>
      <trkpt lat="44.27751" lon="5.78249">
        <ele>579</ele>
        <time>2019-06-17T07:28:38Z</time>
      </trkpt>
      <trkpt lat="44.27746" lon="5.78254">
        <ele>579</ele>
        <time>2019-06-17T07:28:39Z</time>
      </trkpt>
      <trkpt lat="44.27741" lon="5.78259">
        <ele>579</ele>
        <time>2019-06-17T07:28:40Z</time>
      </trkpt>
      <trkpt lat="44.27736" lon="5.78264">
        <ele>579</ele>
        <time>2019-06-17T07:28:41Z</time>
      </trkpt>
      <trkpt lat="44.27731" lon="5.78268">
        <ele>579</ele>
        <time>2019-06-17T07:28:42Z</time>
      </trkpt>
      <trkpt lat="44.27727" lon="5.78273">
        <ele>579</ele>
        <time>2019-06-17T07:28:43Z</time>
      </trkpt>
      <trkpt lat="44.27722" lon="5.78278">
        <ele>579</ele>
        <time>2019-06-17T07:28:44Z</time>
      </trkpt>
      <trkpt lat="44.27718" lon="5.78283">
        <ele>579</ele>
        <time>2019-06-17T07:28:45Z</time>
      </trkpt>
      <trkpt lat="44.27714" lon="5.78289">
        <ele>579</ele>
        <time>2019-06-17T07:28:46Z</time>
      </trkpt>
      <trkpt lat="44.2771" lon="5.78294">
        <ele>579</ele>
        <time>2019-06-17T07:28:47Z</time>
      </trkpt>
      <trkpt lat="44.27706" lon="5.783">
        <ele>579</ele>
        <time>2019-06-17T07:28:48Z</time>
      </trkpt>
      <trkpt lat="44.27701" lon="5.78305">
        <ele>580</ele>
        <time>2019-06-17T07:28:49Z</time>
      </trkpt>
      <trkpt lat="44.27697" lon="5.7831">
        <ele>580</ele>
        <time>2019-06-17T07:28:50Z</time>
      </trkpt>
      <trkpt lat="44.27693" lon="5.78315">
        <ele>581</ele>
        <time>2019-06-17T07:28:51Z</time>
      </trkpt>
      <trkpt lat="44.27688" lon="5.7832">
        <ele>581</ele>
        <time>2019-06-17T07:28:52Z</time>
      </trkpt>
      <trkpt lat="44.27684" lon="5.78324">
        <ele>581</ele>
        <time>2019-06-17T07:28:53Z</time>
      </trkpt>
      <trkpt lat="44.27679" lon="5.7833">
        <ele>582</ele>
        <time>2019-06-17T07:28:54Z</time>
      </trkpt>
      <trkpt lat="44.27674" lon="5.78335">
        <ele>582</ele>
        <time>2019-06-17T07:28:55Z</time>
      </trkpt>
      <trkpt lat="44.2767" lon="5.7834">
        <ele>582</ele>
        <time>2019-06-17T07:28:56Z</time>
      </trkpt>
      <trkpt lat="44.27665" lon="5.78344">
        <ele>583</ele>
        <time>2019-06-17T07:28:57Z</time>
      </trkpt>
      <trkpt lat="44.2766" lon="5.78349">
        <ele>584</ele>
        <time>2019-06-17T07:28:58Z</time>
      </trkpt>
      <trkpt lat="44.27652" lon="5.78359">
        <ele>585</ele>
        <time>2019-06-17T07:29:00Z</time>
      </trkpt>
      <trkpt lat="44.27647" lon="5.78362">
        <ele>585</ele>
        <time>2019-06-17T07:29:01Z</time>
      </trkpt>
      <trkpt lat="44.27637" lon="5.78373">
        <ele>586</ele>
        <time>2019-06-17T07:29:03Z</time>
      </trkpt>
      <trkpt lat="44.27632" lon="5.78376">
        <ele>587</ele>
        <time>2019-06-17T07:29:04Z</time>
      </trkpt>
      <trkpt lat="44.27627" lon="5.7838">
        <ele>588</ele>
        <time>2019-06-17T07:29:05Z</time>
      </trkpt>
      <trkpt lat="44.27554" lon="5.78431">
        <ele>589</ele>
        <time>2019-06-17T07:29:20Z</time>
      </trkpt>
      <trkpt lat="44.27539" lon="5.78431">
        <ele>590</ele>
        <time>2019-06-17T07:29:23Z</time>
      </trkpt>
      <trkpt lat="44.27533" lon="5.78426">
        <ele>592</ele>
        <time>2019-06-17T07:29:24Z</time>
      </trkpt>
      <trkpt lat="44.27526" lon="5.78421">
        <ele>594</ele>
        <time>2019-06-17T07:29:25Z</time>
      </trkpt>
      <trkpt lat="44.27519" lon="5.78415">
        <ele>596</ele>
        <time>2019-06-17T07:29:26Z</time>
      </trkpt>
      <trkpt lat="44.27512" lon="5.78411">
        <ele>597</ele>
        <time>2019-06-17T07:29:27Z</time>
      </trkpt>
      <trkpt lat="44.27506" lon="5.78407">
        <ele>598</ele>
        <time>2019-06-17T07:29:28Z</time>
      </trkpt>
      <trkpt lat="44.275" lon="5.78402">
        <ele>599</ele>
        <time>2019-06-17T07:29:29Z</time>
      </trkpt>
      <trkpt lat="44.27495" lon="5.78398">
        <ele>600</ele>
        <time>2019-06-17T07:29:30Z</time>
      </trkpt>
      <trkpt lat="44.2749" lon="5.78393">
        <ele>601</ele>
        <time>2019-06-17T07:29:31Z</time>
      </trkpt>
      <trkpt lat="44.27485" lon="5.78388">
        <ele>601</ele>
        <time>2019-06-17T07:29:32Z</time>
      </trkpt>
      <trkpt lat="44.2748" lon="5.78382">
        <ele>601</ele>
        <time>2019-06-17T07:29:33Z</time>
      </trkpt>
      <trkpt lat="44.27475" lon="5.78376">
        <ele>601</ele>
        <time>2019-06-17T07:29:34Z</time>
      </trkpt>
      <trkpt lat="44.27471" lon="5.7837">
        <ele>601</ele>
        <time>2019-06-17T07:29:35Z</time>
      </trkpt>
      <trkpt lat="44.27468" lon="5.78362">
        <ele>601</ele>
        <time>2019-06-17T07:29:36Z</time>
      </trkpt>
      <trkpt lat="44.27467" lon="5.78355">
        <ele>601</ele>
        <time>2019-06-17T07:29:37Z</time>
      </trkpt>
      <trkpt lat="44.27466" lon="5.78347">
        <ele>601</ele>
        <time>2019-06-17T07:29:38Z</time>
      </trkpt>
      <trkpt lat="44.27468" lon="5.78339">
        <ele>601</ele>
        <time>2019-06-17T07:29:39Z</time>
      </trkpt>
      <trkpt lat="44.27473" lon="5.78333">
        <ele>601</ele>
        <time>2019-06-17T07:29:40Z</time>
      </trkpt>
      <trkpt lat="44.27477" lon="5.78328">
        <ele>601</ele>
        <time>2019-06-17T07:29:41Z</time>
      </trkpt>
      <trkpt lat="44.27482" lon="5.78323">
        <ele>600</ele>
        <time>2019-06-17T07:29:42Z</time>
      </trkpt>
      <trkpt lat="44.27487" lon="5.78318">
        <ele>599</ele>
        <time>2019-06-17T07:29:43Z</time>
      </trkpt>
      <trkpt lat="44.27491" lon="5.78313">
        <ele>598</ele>
        <time>2019-06-17T07:29:44Z</time>
      </trkpt>
      <trkpt lat="44.27496" lon="5.78309">
        <ele>597</ele>
        <time>2019-06-17T07:29:45Z</time>
      </trkpt>
      <trkpt lat="44.27501" lon="5.78305">
        <ele>596</ele>
        <time>2019-06-17T07:29:46Z</time>
      </trkpt>
      <trkpt lat="44.27506" lon="5.78301">
        <ele>595</ele>
        <time>2019-06-17T07:29:47Z</time>
      </trkpt>
      <trkpt lat="44.27511" lon="5.78297">
        <ele>594</ele>
        <time>2019-06-17T07:29:48Z</time>
      </trkpt>
      <trkpt lat="44.27517" lon="5.78294">
        <ele>593</ele>
        <time>2019-06-17T07:29:49Z</time>
      </trkpt>
      <trkpt lat="44.27523" lon="5.78291">
        <ele>592</ele>
        <time>2019-06-17T07:29:50Z</time>
      </trkpt>
      <trkpt lat="44.27528" lon="5.78287">
        <ele>591</ele>
        <time>2019-06-17T07:29:51Z</time>
      </trkpt>
      <trkpt lat="44.27533" lon="5.78284">
        <ele>590</ele>
        <time>2019-06-17T07:29:52Z</time>
      </trkpt>
      <trkpt lat="44.27539" lon="5.7828">
        <ele>590</ele>
        <time>2019-06-17T07:29:53Z</time>
      </trkpt>
      <trkpt lat="44.27544" lon="5.78275">
        <ele>590</ele>
        <time>2019-06-17T07:29:54Z</time>
      </trkpt>
      <trkpt lat="44.27548" lon="5.78271">
        <ele>589</ele>
        <time>2019-06-17T07:29:55Z</time>
      </trkpt>
      <trkpt lat="44.27551" lon="5.78265">
        <ele>589</ele>
        <time>2019-06-17T07:29:56Z</time>
      </trkpt>
      <trkpt lat="44.27554" lon="5.78258">
        <ele>589</ele>
        <time>2019-06-17T07:29:57Z</time>
      </trkpt>
      <trkpt lat="44.27555" lon="5.7825">
        <ele>589</ele>
        <time>2019-06-17T07:29:58Z</time>
      </trkpt>
      <trkpt lat="44.27556" lon="5.78242">
        <ele>589</ele>
        <time>2019-06-17T07:29:59Z</time>
      </trkpt>
      <trkpt lat="44.27556" lon="5.78233">
        <ele>589</ele>
        <time>2019-06-17T07:30:00Z</time>
      </trkpt>
      <trkpt lat="44.27556" lon="5.78225">
        <ele>589</ele>
        <time>2019-06-17T07:30:01Z</time>
      </trkpt>
      <trkpt lat="44.27555" lon="5.78216">
        <ele>589</ele>
        <time>2019-06-17T07:30:02Z</time>
      </trkpt>
      <trkpt lat="44.27553" lon="5.78207">
        <ele>589</ele>
        <time>2019-06-17T07:30:03Z</time>
      </trkpt>
      <trkpt lat="44.27551" lon="5.78199">
        <ele>589</ele>
        <time>2019-06-17T07:30:04Z</time>
      </trkpt>
      <trkpt lat="44.27549" lon="5.78191">
        <ele>589</ele>
        <time>2019-06-17T07:30:05Z</time>
      </trkpt>
      <trkpt lat="44.27546" lon="5.78185">
        <ele>589</ele>
        <time>2019-06-17T07:30:06Z</time>
      </trkpt>
      <trkpt lat="44.27542" lon="5.78178">
        <ele>589</ele>
        <time>2019-06-17T07:30:07Z</time>
      </trkpt>
      <trkpt lat="44.27538" lon="5.78172">
        <ele>589</ele>
        <time>2019-06-17T07:30:08Z</time>
      </trkpt>
      <trkpt lat="44.27533" lon="5.78165">
        <ele>589</ele>
        <time>2019-06-17T07:30:09Z</time>
      </trkpt>
      <trkpt lat="44.27528" lon="5.78159">
        <ele>589</ele>
        <time>2019-06-17T07:30:10Z</time>
      </trkpt>
      <trkpt lat="44.27523" lon="5.78153">
        <ele>589</ele>
        <time>2019-06-17T07:30:11Z</time>
      </trkpt>
      <trkpt lat="44.27519" lon="5.78148">
        <ele>589</ele>
        <time>2019-06-17T07:30:12Z</time>
      </trkpt>
      <trkpt lat="44.27514" lon="5.78142">
        <ele>589</ele>
        <time>2019-06-17T07:30:13Z</time>
      </trkpt>
      <trkpt lat="44.27509" lon="5.78136">
        <ele>589</ele>
        <time>2019-06-17T07:30:14Z</time>
      </trkpt>
      <trkpt lat="44.27504" lon="5.7813">
        <ele>589</ele>
        <time>2019-06-17T07:30:15Z</time>
      </trkpt>
      <trkpt lat="44.27499" lon="5.78125">
        <ele>589</ele>
        <time>2019-06-17T07:30:16Z</time>
      </trkpt>
      <trkpt lat="44.27494" lon="5.78119">
        <ele>589</ele>
        <time>2019-06-17T07:30:17Z</time>
      </trkpt>
      <trkpt lat="44.27489" lon="5.78113">
        <ele>589</ele>
        <time>2019-06-17T07:30:18Z</time>
      </trkpt>
      <trkpt lat="44.27484" lon="5.78108">
        <ele>589</ele>
        <time>2019-06-17T07:30:19Z</time>
      </trkpt>
      <trkpt lat="44.2748" lon="5.78102">
        <ele>589</ele>
        <time>2019-06-17T07:30:20Z</time>
      </trkpt>
      <trkpt lat="44.27474" lon="5.78096">
        <ele>589</ele>
        <time>2019-06-17T07:30:21Z</time>
      </trkpt>
      <trkpt lat="44.27469" lon="5.7809">
        <ele>589</ele>
        <time>2019-06-17T07:30:22Z</time>
      </trkpt>
      <trkpt lat="44.27465" lon="5.78085">
        <ele>589</ele>
        <time>2019-06-17T07:30:23Z</time>
      </trkpt>
      <trkpt lat="44.27459" lon="5.7808">
        <ele>589</ele>
        <time>2019-06-17T07:30:24Z</time>
      </trkpt>
      <trkpt lat="44.27455" lon="5.78075">
        <ele>589</ele>
        <time>2019-06-17T07:30:25Z</time>
      </trkpt>
      <trkpt lat="44.2745" lon="5.78069">
        <ele>589</ele>
        <time>2019-06-17T07:30:26Z</time>
      </trkpt>
      <trkpt lat="44.27446" lon="5.78064">
        <ele>589</ele>
        <time>2019-06-17T07:30:27Z</time>
      </trkpt>
      <trkpt lat="44.27441" lon="5.78059">
        <ele>589</ele>
        <time>2019-06-17T07:30:28Z</time>
      </trkpt>
      <trkpt lat="44.27436" lon="5.78053">
        <ele>589</ele>
        <time>2019-06-17T07:30:29Z</time>
      </trkpt>
      <trkpt lat="44.27431" lon="5.78047">
        <ele>589</ele>
        <time>2019-06-17T07:30:30Z</time>
      </trkpt>
      <trkpt lat="44.27427" lon="5.78041">
        <ele>589</ele>
        <time>2019-06-17T07:30:31Z</time>
      </trkpt>
      <trkpt lat="44.27423" lon="5.78034">
        <ele>589</ele>
        <time>2019-06-17T07:30:32Z</time>
      </trkpt>
      <trkpt lat="44.2742" lon="5.78026">
        <ele>589</ele>
        <time>2019-06-17T07:30:33Z</time>
      </trkpt>
      <trkpt lat="44.27417" lon="5.78019">
        <ele>589</ele>
        <time>2019-06-17T07:30:34Z</time>
      </trkpt>
      <trkpt lat="44.27414" lon="5.7801">
        <ele>589</ele>
        <time>2019-06-17T07:30:35Z</time>
      </trkpt>
      <trkpt lat="44.27413" lon="5.78002">
        <ele>589</ele>
        <time>2019-06-17T07:30:36Z</time>
      </trkpt>
      <trkpt lat="44.27412" lon="5.77994">
        <ele>589</ele>
        <time>2019-06-17T07:30:37Z</time>
      </trkpt>
      <trkpt lat="44.27411" lon="5.77985">
        <ele>589</ele>
        <time>2019-06-17T07:30:38Z</time>
      </trkpt>
      <trkpt lat="44.27411" lon="5.77977">
        <ele>589</ele>
        <time>2019-06-17T07:30:39Z</time>
      </trkpt>
      <trkpt lat="44.27412" lon="5.77968">
        <ele>589</ele>
        <time>2019-06-17T07:30:40Z</time>
      </trkpt>
      <trkpt lat="44.27412" lon="5.7796">
        <ele>590</ele>
        <time>2019-06-17T07:30:41Z</time>
      </trkpt>
      <trkpt lat="44.27411" lon="5.77951">
        <ele>590</ele>
        <time>2019-06-17T07:30:42Z</time>
      </trkpt>
      <trkpt lat="44.2741" lon="5.77942">
        <ele>590</ele>
        <time>2019-06-17T07:30:43Z</time>
      </trkpt>
      <trkpt lat="44.27409" lon="5.77934">
        <ele>590</ele>
        <time>2019-06-17T07:30:44Z</time>
      </trkpt>
      <trkpt lat="44.27406" lon="5.77926">
        <ele>590</ele>
        <time>2019-06-17T07:30:45Z</time>
      </trkpt>
      <trkpt lat="44.27404" lon="5.77918">
        <ele>591</ele>
        <time>2019-06-17T07:30:46Z</time>
      </trkpt>
      <trkpt lat="44.27401" lon="5.77911">
        <ele>591</ele>
        <time>2019-06-17T07:30:47Z</time>
      </trkpt>
      <trkpt lat="44.27398" lon="5.77905">
        <ele>591</ele>
        <time>2019-06-17T07:30:48Z</time>
      </trkpt>
      <trkpt lat="44.27394" lon="5.77898">
        <ele>591</ele>
        <time>2019-06-17T07:30:49Z</time>
      </trkpt>
      <trkpt lat="44.27389" lon="5.77892">
        <ele>591</ele>
        <time>2019-06-17T07:30:50Z</time>
      </trkpt>
      <trkpt lat="44.27385" lon="5.77887">
        <ele>591</ele>
        <time>2019-06-17T07:30:51Z</time>
      </trkpt>
      <trkpt lat="44.2738" lon="5.77881">
        <ele>591</ele>
        <time>2019-06-17T07:30:52Z</time>
      </trkpt>
      <trkpt lat="44.27376" lon="5.77876">
        <ele>591</ele>
        <time>2019-06-17T07:30:53Z</time>
      </trkpt>
      <trkpt lat="44.27371" lon="5.7787">
        <ele>591</ele>
        <time>2019-06-17T07:30:54Z</time>
      </trkpt>
      <trkpt lat="44.27367" lon="5.77865">
        <ele>591</ele>
        <time>2019-06-17T07:30:55Z</time>
      </trkpt>
      <trkpt lat="44.27363" lon="5.77859">
        <ele>591</ele>
        <time>2019-06-17T07:30:56Z</time>
      </trkpt>
      <trkpt lat="44.27359" lon="5.77854">
        <ele>591</ele>
        <time>2019-06-17T07:30:57Z</time>
      </trkpt>
      <trkpt lat="44.27354" lon="5.77849">
        <ele>591</ele>
        <time>2019-06-17T07:30:58Z</time>
      </trkpt>
      <trkpt lat="44.27349" lon="5.77844">
        <ele>591</ele>
        <time>2019-06-17T07:30:59Z</time>
      </trkpt>
      <trkpt lat="44.27344" lon="5.77839">
        <ele>592</ele>
        <time>2019-06-17T07:31:00Z</time>
      </trkpt>
      <trkpt lat="44.27339" lon="5.77835">
        <ele>592</ele>
        <time>2019-06-17T07:31:01Z</time>
      </trkpt>
      <trkpt lat="44.27334" lon="5.7783">
        <ele>592</ele>
        <time>2019-06-17T07:31:02Z</time>
      </trkpt>
      <trkpt lat="44.27329" lon="5.77826">
        <ele>592</ele>
        <time>2019-06-17T07:31:03Z</time>
      </trkpt>
      <trkpt lat="44.27324" lon="5.77821">
        <ele>592</ele>
        <time>2019-06-17T07:31:04Z</time>
      </trkpt>
      <trkpt lat="44.27319" lon="5.77816">
        <ele>592</ele>
        <time>2019-06-17T07:31:05Z</time>
      </trkpt>
      <trkpt lat="44.27314" lon="5.77812">
        <ele>592</ele>
        <time>2019-06-17T07:31:06Z</time>
      </trkpt>
      <trkpt lat="44.27308" lon="5.77807">
        <ele>592</ele>
        <time>2019-06-17T07:31:07Z</time>
      </trkpt>
      <trkpt lat="44.27304" lon="5.77801">
        <ele>592</ele>
        <time>2019-06-17T07:31:08Z</time>
      </trkpt>
      <trkpt lat="44.27301" lon="5.77794">
        <ele>592</ele>
        <time>2019-06-17T07:31:09Z</time>
      </trkpt>
      <trkpt lat="44.27299" lon="5.77786">
        <ele>592</ele>
        <time>2019-06-17T07:31:10Z</time>
      </trkpt>
      <trkpt lat="44.27298" lon="5.77777">
        <ele>592</ele>
        <time>2019-06-17T07:31:11Z</time>
      </trkpt>
      <trkpt lat="44.27298" lon="5.77768">
        <ele>592</ele>
        <time>2019-06-17T07:31:12Z</time>
      </trkpt>
      <trkpt lat="44.27298" lon="5.7776">
        <ele>592</ele>
        <time>2019-06-17T07:31:13Z</time>
      </trkpt>
      <trkpt lat="44.27296" lon="5.77751">
        <ele>592</ele>
        <time>2019-06-17T07:31:14Z</time>
      </trkpt>
      <trkpt lat="44.27293" lon="5.77744">
        <ele>592</ele>
        <time>2019-06-17T07:31:15Z</time>
      </trkpt>
      <trkpt lat="44.27288" lon="5.77738">
        <ele>593</ele>
        <time>2019-06-17T07:31:16Z</time>
      </trkpt>
      <trkpt lat="44.27283" lon="5.77735">
        <ele>593</ele>
        <time>2019-06-17T07:31:17Z</time>
      </trkpt>
      <trkpt lat="44.27277" lon="5.77733">
        <ele>593</ele>
        <time>2019-06-17T07:31:18Z</time>
      </trkpt>
      <trkpt lat="44.27272" lon="5.77732">
        <ele>593</ele>
        <time>2019-06-17T07:31:19Z</time>
      </trkpt>
      <trkpt lat="44.27266" lon="5.77733">
        <ele>593</ele>
        <time>2019-06-17T07:31:20Z</time>
      </trkpt>
      <trkpt lat="44.2726" lon="5.77734">
        <ele>593</ele>
        <time>2019-06-17T07:31:21Z</time>
      </trkpt>
      <trkpt lat="44.27255" lon="5.77736">
        <ele>593</ele>
        <time>2019-06-17T07:31:22Z</time>
      </trkpt>
      <trkpt lat="44.27249" lon="5.77739">
        <ele>593</ele>
        <time>2019-06-17T07:31:23Z</time>
      </trkpt>
      <trkpt lat="44.27244" lon="5.77741">
        <ele>593</ele>
        <time>2019-06-17T07:31:24Z</time>
      </trkpt>
      <trkpt lat="44.27239" lon="5.77743">
        <ele>593</ele>
        <time>2019-06-17T07:31:25Z</time>
      </trkpt>
      <trkpt lat="44.27233" lon="5.77746">
        <ele>593</ele>
        <time>2019-06-17T07:31:26Z</time>
      </trkpt>
      <trkpt lat="44.27228" lon="5.77747">
        <ele>593</ele>
        <time>2019-06-17T07:31:27Z</time>
      </trkpt>
      <trkpt lat="44.27222" lon="5.77747">
        <ele>594</ele>
        <time>2019-06-17T07:31:28Z</time>
      </trkpt>
      <trkpt lat="44.27216" lon="5.77745">
        <ele>594</ele>
        <time>2019-06-17T07:31:29Z</time>
      </trkpt>
      <trkpt lat="44.27211" lon="5.77742">
        <ele>594</ele>
        <time>2019-06-17T07:31:30Z</time>
      </trkpt>
      <trkpt lat="44.27206" lon="5.77739">
        <ele>594</ele>
        <time>2019-06-17T07:31:31Z</time>
      </trkpt>
      <trkpt lat="44.27201" lon="5.77736">
        <ele>595</ele>
        <time>2019-06-17T07:31:32Z</time>
      </trkpt>
      <trkpt lat="44.27197" lon="5.77732">
        <ele>595</ele>
        <time>2019-06-17T07:31:33Z</time>
      </trkpt>
      <trkpt lat="44.27192" lon="5.77729">
        <ele>595</ele>
        <time>2019-06-17T07:31:34Z</time>
      </trkpt>
      <trkpt lat="44.27187" lon="5.77725">
        <ele>595</ele>
        <time>2019-06-17T07:31:35Z</time>
      </trkpt>
      <trkpt lat="44.27182" lon="5.77722">
        <ele>595</ele>
        <time>2019-06-17T07:31:36Z</time>
      </trkpt>
      <trkpt lat="44.27177" lon="5.77718">
        <ele>595</ele>
        <time>2019-06-17T07:31:37Z</time>
      </trkpt>
      <trkpt lat="44.27172" lon="5.77714">
        <ele>595</ele>
        <time>2019-06-17T07:31:38Z</time>
      </trkpt>
      <trkpt lat="44.27167" lon="5.77711">
        <ele>595</ele>
        <time>2019-06-17T07:31:39Z</time>
      </trkpt>
      <trkpt lat="44.27162" lon="5.77707">
        <ele>595</ele>
        <time>2019-06-17T07:31:40Z</time>
      </trkpt>
      <trkpt lat="44.27157" lon="5.77704">
        <ele>595</ele>
        <time>2019-06-17T07:31:41Z</time>
      </trkpt>
      <trkpt lat="44.27153" lon="5.777">
        <ele>595</ele>
        <time>2019-06-17T07:31:42Z</time>
      </trkpt>
      <trkpt lat="44.27148" lon="5.77697">
        <ele>595</ele>
        <time>2019-06-17T07:31:43Z</time>
      </trkpt>
      <trkpt lat="44.27143" lon="5.77693">
        <ele>595</ele>
        <time>2019-06-17T07:31:44Z</time>
      </trkpt>
      <trkpt lat="44.27139" lon="5.77688">
        <ele>595</ele>
        <time>2019-06-17T07:31:45Z</time>
      </trkpt>
      <trkpt lat="44.27135" lon="5.77682">
        <ele>595</ele>
        <time>2019-06-17T07:31:46Z</time>
      </trkpt>
      <trkpt lat="44.27132" lon="5.77676">
        <ele>595</ele>
        <time>2019-06-17T07:31:47Z</time>
      </trkpt>
      <trkpt lat="44.27129" lon="5.77669">
        <ele>595</ele>
        <time>2019-06-17T07:31:48Z</time>
      </trkpt>
      <trkpt lat="44.27128" lon="5.77662">
        <ele>595</ele>
        <time>2019-06-17T07:31:49Z</time>
      </trkpt>
      <trkpt lat="44.27126" lon="5.77655">
        <ele>596</ele>
        <time>2019-06-17T07:31:50Z</time>
      </trkpt>
      <trkpt lat="44.27125" lon="5.77647">
        <ele>596</ele>
        <time>2019-06-17T07:31:51Z</time>
      </trkpt>
      <trkpt lat="44.27124" lon="5.7764">
        <ele>596</ele>
        <time>2019-06-17T07:31:52Z</time>
      </trkpt>
      <trkpt lat="44.27122" lon="5.77633">
        <ele>596</ele>
        <time>2019-06-17T07:31:53Z</time>
      </trkpt>
      <trkpt lat="44.27121" lon="5.77625">
        <ele>597</ele>
        <time>2019-06-17T07:31:54Z</time>
      </trkpt>
      <trkpt lat="44.2712" lon="5.77618">
        <ele>597</ele>
        <time>2019-06-17T07:31:55Z</time>
      </trkpt>
      <trkpt lat="44.27119" lon="5.7761">
        <ele>597</ele>
        <time>2019-06-17T07:31:56Z</time>
      </trkpt>
      <trkpt lat="44.27117" lon="5.77603">
        <ele>598</ele>
        <time>2019-06-17T07:31:57Z</time>
      </trkpt>
      <trkpt lat="44.27116" lon="5.77595">
        <ele>599</ele>
        <time>2019-06-17T07:31:58Z</time>
      </trkpt>
      <trkpt lat="44.27116" lon="5.77588">
        <ele>599</ele>
        <time>2019-06-17T07:31:59Z</time>
      </trkpt>
      <trkpt lat="44.27116" lon="5.7758">
        <ele>599</ele>
        <time>2019-06-17T07:32:00Z</time>
      </trkpt>
      <trkpt lat="44.27116" lon="5.77572">
        <ele>600</ele>
        <time>2019-06-17T07:32:01Z</time>
      </trkpt>
      <trkpt lat="44.27114" lon="5.77565">
        <ele>600</ele>
        <time>2019-06-17T07:32:02Z</time>
      </trkpt>
      <trkpt lat="44.27113" lon="5.77558">
        <ele>600</ele>
        <time>2019-06-17T07:32:03Z</time>
      </trkpt>
      <trkpt lat="44.2711" lon="5.77551">
        <ele>600</ele>
        <time>2019-06-17T07:32:04Z</time>
      </trkpt>
      <trkpt lat="44.27107" lon="5.77545">
        <ele>600</ele>
        <time>2019-06-17T07:32:05Z</time>
      </trkpt>
      <trkpt lat="44.27104" lon="5.7754">
        <ele>600</ele>
        <time>2019-06-17T07:32:06Z</time>
      </trkpt>
      <trkpt lat="44.27101" lon="5.77534">
        <ele>600</ele>
        <time>2019-06-17T07:32:07Z</time>
      </trkpt>
      <trkpt lat="44.27098" lon="5.77528">
        <ele>600</ele>
        <time>2019-06-17T07:32:08Z</time>
      </trkpt>
      <trkpt lat="44.27095" lon="5.77522">
        <ele>600</ele>
        <time>2019-06-17T07:32:09Z</time>
      </trkpt>
      <trkpt lat="44.27093" lon="5.77516">
        <ele>600</ele>
        <time>2019-06-17T07:32:10Z</time>
      </trkpt>
      <trkpt lat="44.27089" lon="5.7751">
        <ele>600</ele>
        <time>2019-06-17T07:32:11Z</time>
      </trkpt>
      <trkpt lat="44.27085" lon="5.77504">
        <ele>601</ele>
        <time>2019-06-17T07:32:12Z</time>
      </trkpt>
      <trkpt lat="44.27082" lon="5.77499">
        <ele>601</ele>
        <time>2019-06-17T07:32:13Z</time>
      </trkpt>
      <trkpt lat="44.27078" lon="5.77495">
        <ele>602</ele>
        <time>2019-06-17T07:32:14Z</time>
      </trkpt>
      <trkpt lat="44.27074" lon="5.77491">
        <ele>603</ele>
        <time>2019-06-17T07:32:15Z</time>
      </trkpt>
      <trkpt lat="44.27069" lon="5.77488">
        <ele>603</ele>
        <time>2019-06-17T07:32:16Z</time>
      </trkpt>
      <trkpt lat="44.27065" lon="5.77487">
        <ele>604</ele>
        <time>2019-06-17T07:32:17Z</time>
      </trkpt>
      <trkpt lat="44.2706" lon="5.77486">
        <ele>604</ele>
        <time>2019-06-17T07:32:18Z</time>
      </trkpt>
      <trkpt lat="44.27055" lon="5.77485">
        <ele>604</ele>
        <time>2019-06-17T07:32:19Z</time>
      </trkpt>
      <trkpt lat="44.2705" lon="5.77485">
        <ele>604</ele>
        <time>2019-06-17T07:32:20Z</time>
      </trkpt>
      <trkpt lat="44.27045" lon="5.77484">
        <ele>604</ele>
        <time>2019-06-17T07:32:21Z</time>
      </trkpt>
      <trkpt lat="44.27041" lon="5.77483">
        <ele>604</ele>
        <time>2019-06-17T07:32:22Z</time>
      </trkpt>
      <trkpt lat="44.27038" lon="5.77477">
        <ele>604</ele>
        <time>2019-06-17T07:32:23Z</time>
      </trkpt>
      <trkpt lat="44.27036" lon="5.77468">
        <ele>604</ele>
        <time>2019-06-17T07:32:24Z</time>
      </trkpt>
      <trkpt lat="44.27032" lon="5.77461">
        <ele>604</ele>
        <time>2019-06-17T07:32:25Z</time>
      </trkpt>
      <trkpt lat="44.27029" lon="5.77456">
        <ele>604</ele>
        <time>2019-06-17T07:32:26Z</time>
      </trkpt>
      <trkpt lat="44.27024" lon="5.77451">
        <ele>604</ele>
        <time>2019-06-17T07:32:27Z</time>
      </trkpt>
      <trkpt lat="44.27019" lon="5.77449">
        <ele>604</ele>
        <time>2019-06-17T07:32:28Z</time>
      </trkpt>
      <trkpt lat="44.27014" lon="5.77445">
        <ele>604</ele>
        <time>2019-06-17T07:32:29Z</time>
      </trkpt>
      <trkpt lat="44.27008" lon="5.77441">
        <ele>604</ele>
        <time>2019-06-17T07:32:30Z</time>
      </trkpt>
      <trkpt lat="44.27003" lon="5.77438">
        <ele>604</ele>
        <time>2019-06-17T07:32:31Z</time>
      </trkpt>
      <trkpt lat="44.26998" lon="5.77435">
        <ele>604</ele>
        <time>2019-06-17T07:32:32Z</time>
      </trkpt>
      <trkpt lat="44.26992" lon="5.77433">
        <ele>604</ele>
        <time>2019-06-17T07:32:33Z</time>
      </trkpt>
      <trkpt lat="44.26987" lon="5.77433">
        <ele>604</ele>
        <time>2019-06-17T07:32:34Z</time>
      </trkpt>
      <trkpt lat="44.26981" lon="5.77435">
        <ele>604</ele>
        <time>2019-06-17T07:32:35Z</time>
      </trkpt>
      <trkpt lat="44.26975" lon="5.77437">
        <ele>604</ele>
        <time>2019-06-17T07:32:36Z</time>
      </trkpt>
      <trkpt lat="44.2697" lon="5.7744">
        <ele>604</ele>
        <time>2019-06-17T07:32:37Z</time>
      </trkpt>
      <trkpt lat="44.26965" lon="5.77444">
        <ele>604</ele>
        <time>2019-06-17T07:32:38Z</time>
      </trkpt>
      <trkpt lat="44.26959" lon="5.77447">
        <ele>604</ele>
        <time>2019-06-17T07:32:39Z</time>
      </trkpt>
      <trkpt lat="44.26954" lon="5.77451">
        <ele>604</ele>
        <time>2019-06-17T07:32:40Z</time>
      </trkpt>
      <trkpt lat="44.26948" lon="5.77454">
        <ele>604</ele>
        <time>2019-06-17T07:32:41Z</time>
      </trkpt>
      <trkpt lat="44.26942" lon="5.77455">
        <ele>604</ele>
        <time>2019-06-17T07:32:42Z</time>
      </trkpt>
      <trkpt lat="44.26936" lon="5.77458">
        <ele>604</ele>
        <time>2019-06-17T07:32:43Z</time>
      </trkpt>
      <trkpt lat="44.2693" lon="5.77461">
        <ele>604</ele>
        <time>2019-06-17T07:32:44Z</time>
      </trkpt>
      <trkpt lat="44.26925" lon="5.77464">
        <ele>604</ele>
        <time>2019-06-17T07:32:45Z</time>
      </trkpt>
      <trkpt lat="44.26919" lon="5.77468">
        <ele>604</ele>
        <time>2019-06-17T07:32:46Z</time>
      </trkpt>
      <trkpt lat="44.26913" lon="5.7747">
        <ele>604</ele>
        <time>2019-06-17T07:32:47Z</time>
      </trkpt>
      <trkpt lat="44.26907" lon="5.77473">
        <ele>604</ele>
        <time>2019-06-17T07:32:48Z</time>
      </trkpt>
      <trkpt lat="44.26902" lon="5.77477">
        <ele>604</ele>
        <time>2019-06-17T07:32:49Z</time>
      </trkpt>
      <trkpt lat="44.26897" lon="5.77482">
        <ele>604</ele>
        <time>2019-06-17T07:32:50Z</time>
      </trkpt>
      <trkpt lat="44.26891" lon="5.77487">
        <ele>604</ele>
        <time>2019-06-17T07:32:51Z</time>
      </trkpt>
      <trkpt lat="44.26886" lon="5.77492">
        <ele>604</ele>
        <time>2019-06-17T07:32:52Z</time>
      </trkpt>
      <trkpt lat="44.2688" lon="5.77496">
        <ele>604</ele>
        <time>2019-06-17T07:32:53Z</time>
      </trkpt>
      <trkpt lat="44.26875" lon="5.77501">
        <ele>604</ele>
        <time>2019-06-17T07:32:54Z</time>
      </trkpt>
      <trkpt lat="44.2687" lon="5.77505">
        <ele>604</ele>
        <time>2019-06-17T07:32:55Z</time>
      </trkpt>
      <trkpt lat="44.26864" lon="5.7751">
        <ele>604</ele>
        <time>2019-06-17T07:32:56Z</time>
      </trkpt>
      <trkpt lat="44.2686" lon="5.77516">
        <ele>604</ele>
        <time>2019-06-17T07:32:57Z</time>
      </trkpt>
      <trkpt lat="44.26854" lon="5.77522">
        <ele>604</ele>
        <time>2019-06-17T07:32:58Z</time>
      </trkpt>
      <trkpt lat="44.26849" lon="5.77526">
        <ele>604</ele>
        <time>2019-06-17T07:32:59Z</time>
      </trkpt>
      <trkpt lat="44.26842" lon="5.7753">
        <ele>604</ele>
        <time>2019-06-17T07:33:00Z</time>
      </trkpt>
      <trkpt lat="44.26836" lon="5.77533">
        <ele>604</ele>
        <time>2019-06-17T07:33:01Z</time>
      </trkpt>
      <trkpt lat="44.26829" lon="5.77534">
        <ele>604</ele>
        <time>2019-06-17T07:33:02Z</time>
      </trkpt>
      <trkpt lat="44.26822" lon="5.77537">
        <ele>604</ele>
        <time>2019-06-17T07:33:03Z</time>
      </trkpt>
      <trkpt lat="44.26815" lon="5.7754">
        <ele>604</ele>
        <time>2019-06-17T07:33:04Z</time>
      </trkpt>
      <trkpt lat="44.26809" lon="5.77543">
        <ele>604</ele>
        <time>2019-06-17T07:33:05Z</time>
      </trkpt>
      <trkpt lat="44.26802" lon="5.77547">
        <ele>604</ele>
        <time>2019-06-17T07:33:06Z</time>
      </trkpt>
      <trkpt lat="44.26796" lon="5.77552">
        <ele>604</ele>
        <time>2019-06-17T07:33:07Z</time>
      </trkpt>
      <trkpt lat="44.26791" lon="5.77556">
        <ele>604</ele>
        <time>2019-06-17T07:33:08Z</time>
      </trkpt>
      <trkpt lat="44.26783" lon="5.77562">
        <ele>604</ele>
        <time>2019-06-17T07:33:10Z</time>
      </trkpt>
      <trkpt lat="44.26773" lon="5.77553">
        <ele>604</ele>
        <time>2019-06-17T07:33:12Z</time>
      </trkpt>
      <trkpt lat="44.26767" lon="5.77543">
        <ele>603</ele>
        <time>2019-06-17T07:33:13Z</time>
      </trkpt>
      <trkpt lat="44.26763" lon="5.77535">
        <ele>602</ele>
        <time>2019-06-17T07:33:14Z</time>
      </trkpt>
      <trkpt lat="44.26759" lon="5.77527">
        <ele>601</ele>
        <time>2019-06-17T07:33:15Z</time>
      </trkpt>
      <trkpt lat="44.26755" lon="5.77519">
        <ele>600</ele>
        <time>2019-06-17T07:33:16Z</time>
      </trkpt>
      <trkpt lat="44.26751" lon="5.77511">
        <ele>599</ele>
        <time>2019-06-17T07:33:17Z</time>
      </trkpt>
      <trkpt lat="44.26738" lon="5.7749">
        <ele>598</ele>
        <time>2019-06-17T07:33:20Z</time>
      </trkpt>
      <trkpt lat="44.26729" lon="5.77475">
        <ele>597</ele>
        <time>2019-06-17T07:33:22Z</time>
      </trkpt>
      <trkpt lat="44.26725" lon="5.77468">
        <ele>596</ele>
        <time>2019-06-17T07:33:23Z</time>
      </trkpt>
      <trkpt lat="44.26721" lon="5.77461">
        <ele>595</ele>
        <time>2019-06-17T07:33:24Z</time>
      </trkpt>
      <trkpt lat="44.26717" lon="5.77453">
        <ele>594</ele>
        <time>2019-06-17T07:33:25Z</time>
      </trkpt>
      <trkpt lat="44.26714" lon="5.77445">
        <ele>593</ele>
        <time>2019-06-17T07:33:26Z</time>
      </trkpt>
      <trkpt lat="44.2671" lon="5.77436">
        <ele>592</ele>
        <time>2019-06-17T07:33:27Z</time>
      </trkpt>
      <trkpt lat="44.26706" lon="5.77428">
        <ele>591</ele>
        <time>2019-06-17T07:33:28Z</time>
      </trkpt>
      <trkpt lat="44.26702" lon="5.7742">
        <ele>591</ele>
        <time>2019-06-17T07:33:29Z</time>
      </trkpt>
      <trkpt lat="44.26698" lon="5.77412">
        <ele>591</ele>
        <time>2019-06-17T07:33:30Z</time>
      </trkpt>
      <trkpt lat="44.26693" lon="5.77404">
        <ele>591</ele>
        <time>2019-06-17T07:33:31Z</time>
      </trkpt>
      <trkpt lat="44.2669" lon="5.77398">
        <ele>591</ele>
        <time>2019-06-17T07:33:32Z</time>
      </trkpt>
      <trkpt lat="44.26686" lon="5.7739">
        <ele>591</ele>
        <time>2019-06-17T07:33:33Z</time>
      </trkpt>
      <trkpt lat="44.26683" lon="5.7738">
        <ele>591</ele>
        <time>2019-06-17T07:33:34Z</time>
      </trkpt>
      <trkpt lat="44.26682" lon="5.77371">
        <ele>591</ele>
        <time>2019-06-17T07:33:35Z</time>
      </trkpt>
      <trkpt lat="44.26679" lon="5.77361">
        <ele>591</ele>
        <time>2019-06-17T07:33:36Z</time>
      </trkpt>
      <trkpt lat="44.26676" lon="5.77351">
        <ele>591</ele>
        <time>2019-06-17T07:33:37Z</time>
      </trkpt>
      <trkpt lat="44.2667" lon="5.7734">
        <ele>591</ele>
        <time>2019-06-17T07:33:38Z</time>
      </trkpt>
      <trkpt lat="44.26666" lon="5.77332">
        <ele>591</ele>
        <time>2019-06-17T07:33:39Z</time>
      </trkpt>
      <trkpt lat="44.26661" lon="5.77325">
        <ele>592</ele>
        <time>2019-06-17T07:33:40Z</time>
      </trkpt>
      <trkpt lat="44.26656" lon="5.77317">
        <ele>593</ele>
        <time>2019-06-17T07:33:41Z</time>
      </trkpt>
      <trkpt lat="44.2665" lon="5.77312">
        <ele>594</ele>
        <time>2019-06-17T07:33:42Z</time>
      </trkpt>
      <trkpt lat="44.26645" lon="5.77306">
        <ele>595</ele>
        <time>2019-06-17T07:33:43Z</time>
      </trkpt>
      <trkpt lat="44.2664" lon="5.77301">
        <ele>596</ele>
        <time>2019-06-17T07:33:44Z</time>
      </trkpt>
      <trkpt lat="44.26635" lon="5.77298">
        <ele>597</ele>
        <time>2019-06-17T07:33:45Z</time>
      </trkpt>
      <trkpt lat="44.2663" lon="5.77293">
        <ele>598</ele>
        <time>2019-06-17T07:33:46Z</time>
      </trkpt>
      <trkpt lat="44.26624" lon="5.77286">
        <ele>599</ele>
        <time>2019-06-17T07:33:47Z</time>
      </trkpt>
      <trkpt lat="44.26618" lon="5.77281">
        <ele>600</ele>
        <time>2019-06-17T07:33:48Z</time>
      </trkpt>
      <trkpt lat="44.26612" lon="5.77274">
        <ele>601</ele>
        <time>2019-06-17T07:33:49Z</time>
      </trkpt>
      <trkpt lat="44.26607" lon="5.77267">
        <ele>602</ele>
        <time>2019-06-17T07:33:50Z</time>
      </trkpt>
      <trkpt lat="44.26602" lon="5.7726">
        <ele>602</ele>
        <time>2019-06-17T07:33:51Z</time>
      </trkpt>
      <trkpt lat="44.26598" lon="5.77253">
        <ele>603</ele>
        <time>2019-06-17T07:33:52Z</time>
      </trkpt>
      <trkpt lat="44.26595" lon="5.77244">
        <ele>603</ele>
        <time>2019-06-17T07:33:53Z</time>
      </trkpt>
      <trkpt lat="44.26593" lon="5.77234">
        <ele>603</ele>
        <time>2019-06-17T07:33:54Z</time>
      </trkpt>
      <trkpt lat="44.26595" lon="5.77224">
        <ele>603</ele>
        <time>2019-06-17T07:33:55Z</time>
      </trkpt>
      <trkpt lat="44.26598" lon="5.77216">
        <ele>603</ele>
        <time>2019-06-17T07:33:56Z</time>
      </trkpt>
      <trkpt lat="44.26604" lon="5.7721">
        <ele>603</ele>
        <time>2019-06-17T07:33:57Z</time>
      </trkpt>
      <trkpt lat="44.26611" lon="5.77204">
        <ele>603</ele>
        <time>2019-06-17T07:33:58Z</time>
      </trkpt>
      <trkpt lat="44.26618" lon="5.77199">
        <ele>603</ele>
        <time>2019-06-17T07:33:59Z</time>
      </trkpt>
      <trkpt lat="44.26624" lon="5.77193">
        <ele>603</ele>
        <time>2019-06-17T07:34:00Z</time>
      </trkpt>
      <trkpt lat="44.26629" lon="5.77189">
        <ele>603</ele>
        <time>2019-06-17T07:34:01Z</time>
      </trkpt>
      <trkpt lat="44.26634" lon="5.77183">
        <ele>603</ele>
        <time>2019-06-17T07:34:02Z</time>
      </trkpt>
      <trkpt lat="44.26639" lon="5.77178">
        <ele>603</ele>
        <time>2019-06-17T07:34:03Z</time>
      </trkpt>
      <trkpt lat="44.26643" lon="5.77172">
        <ele>603</ele>
        <time>2019-06-17T07:34:04Z</time>
      </trkpt>
      <trkpt lat="44.26649" lon="5.77166">
        <ele>603</ele>
        <time>2019-06-17T07:34:05Z</time>
      </trkpt>
      <trkpt lat="44.26654" lon="5.77159">
        <ele>603</ele>
        <time>2019-06-17T07:34:06Z</time>
      </trkpt>
      <trkpt lat="44.26659" lon="5.77153">
        <ele>603</ele>
        <time>2019-06-17T07:34:07Z</time>
      </trkpt>
      <trkpt lat="44.26664" lon="5.77147">
        <ele>603</ele>
        <time>2019-06-17T07:34:08Z</time>
      </trkpt>
      <trkpt lat="44.26669" lon="5.77141">
        <ele>603</ele>
        <time>2019-06-17T07:34:09Z</time>
      </trkpt>
      <trkpt lat="44.26674" lon="5.77135">
        <ele>603</ele>
        <time>2019-06-17T07:34:10Z</time>
      </trkpt>
      <trkpt lat="44.26679" lon="5.77129">
        <ele>603</ele>
        <time>2019-06-17T07:34:11Z</time>
      </trkpt>
      <trkpt lat="44.26683" lon="5.77122">
        <ele>603</ele>
        <time>2019-06-17T07:34:12Z</time>
      </trkpt>
      <trkpt lat="44.26688" lon="5.77115">
        <ele>603</ele>
        <time>2019-06-17T07:34:13Z</time>
      </trkpt>
      <trkpt lat="44.26693" lon="5.77109">
        <ele>602</ele>
        <time>2019-06-17T07:34:14Z</time>
      </trkpt>
      <trkpt lat="44.26697" lon="5.77102">
        <ele>602</ele>
        <time>2019-06-17T07:34:15Z</time>
      </trkpt>
      <trkpt lat="44.26702" lon="5.77094">
        <ele>602</ele>
        <time>2019-06-17T07:34:16Z</time>
      </trkpt>
      <trkpt lat="44.26706" lon="5.77086">
        <ele>601</ele>
        <time>2019-06-17T07:34:17Z</time>
      </trkpt>
      <trkpt lat="44.2671" lon="5.77079">
        <ele>601</ele>
        <time>2019-06-17T07:34:18Z</time>
      </trkpt>
      <trkpt lat="44.26713" lon="5.7707">
        <ele>600</ele>
        <time>2019-06-17T07:34:19Z</time>
      </trkpt>
      <trkpt lat="44.26715" lon="5.77061">
        <ele>600</ele>
        <time>2019-06-17T07:34:20Z</time>
      </trkpt>
      <trkpt lat="44.26716" lon="5.77051">
        <ele>599</ele>
        <time>2019-06-17T07:34:21Z</time>
      </trkpt>
      <trkpt lat="44.26717" lon="5.77041">
        <ele>599</ele>
        <time>2019-06-17T07:34:22Z</time>
      </trkpt>
      <trkpt lat="44.26716" lon="5.77031">
        <ele>599</ele>
        <time>2019-06-17T07:34:23Z</time>
      </trkpt>
      <trkpt lat="44.26716" lon="5.77021">
        <ele>599</ele>
        <time>2019-06-17T07:34:24Z</time>
      </trkpt>
      <trkpt lat="44.26715" lon="5.77011">
        <ele>599</ele>
        <time>2019-06-17T07:34:25Z</time>
      </trkpt>
      <trkpt lat="44.26713" lon="5.77002">
        <ele>599</ele>
        <time>2019-06-17T07:34:26Z</time>
      </trkpt>
      <trkpt lat="44.26712" lon="5.76993">
        <ele>600</ele>
        <time>2019-06-17T07:34:27Z</time>
      </trkpt>
      <trkpt lat="44.2671" lon="5.76984">
        <ele>601</ele>
        <time>2019-06-17T07:34:28Z</time>
      </trkpt>
      <trkpt lat="44.26708" lon="5.76975">
        <ele>601</ele>
        <time>2019-06-17T07:34:29Z</time>
      </trkpt>
      <trkpt lat="44.26704" lon="5.76967">
        <ele>601</ele>
        <time>2019-06-17T07:34:30Z</time>
      </trkpt>
      <trkpt lat="44.267" lon="5.7696">
        <ele>601</ele>
        <time>2019-06-17T07:34:31Z</time>
      </trkpt>
      <trkpt lat="44.26695" lon="5.76953">
        <ele>601</ele>
        <time>2019-06-17T07:34:32Z</time>
      </trkpt>
      <trkpt lat="44.26689" lon="5.76946">
        <ele>601</ele>
        <time>2019-06-17T07:34:33Z</time>
      </trkpt>
      <trkpt lat="44.26683" lon="5.76942">
        <ele>601</ele>
        <time>2019-06-17T07:34:34Z</time>
      </trkpt>
      <trkpt lat="44.26677" lon="5.76937">
        <ele>601</ele>
        <time>2019-06-17T07:34:35Z</time>
      </trkpt>
      <trkpt lat="44.26671" lon="5.76933">
        <ele>602</ele>
        <time>2019-06-17T07:34:36Z</time>
      </trkpt>
      <trkpt lat="44.26664" lon="5.76929">
        <ele>602</ele>
        <time>2019-06-17T07:34:37Z</time>
      </trkpt>
      <trkpt lat="44.26658" lon="5.76926">
        <ele>602</ele>
        <time>2019-06-17T07:34:38Z</time>
      </trkpt>
      <trkpt lat="44.26652" lon="5.76924">
        <ele>602</ele>
        <time>2019-06-17T07:34:39Z</time>
      </trkpt>
      <trkpt lat="44.26645" lon="5.76923">
        <ele>602</ele>
        <time>2019-06-17T07:34:40Z</time>
      </trkpt>
      <trkpt lat="44.2664" lon="5.76921">
        <ele>602</ele>
        <time>2019-06-17T07:34:41Z</time>
      </trkpt>
      <trkpt lat="44.26633" lon="5.7692">
        <ele>602</ele>
        <time>2019-06-17T07:34:42Z</time>
      </trkpt>
      <trkpt lat="44.26627" lon="5.7692">
        <ele>602</ele>
        <time>2019-06-17T07:34:43Z</time>
      </trkpt>
      <trkpt lat="44.26621" lon="5.7692">
        <ele>602</ele>
        <time>2019-06-17T07:34:44Z</time>
      </trkpt>
      <trkpt lat="44.26614" lon="5.7692">
        <ele>602</ele>
        <time>2019-06-17T07:34:45Z</time>
      </trkpt>
      <trkpt lat="44.26609" lon="5.76922">
        <ele>603</ele>
        <time>2019-06-17T07:34:46Z</time>
      </trkpt>
      <trkpt lat="44.26603" lon="5.76924">
        <ele>604</ele>
        <time>2019-06-17T07:34:47Z</time>
      </trkpt>
      <trkpt lat="44.26597" lon="5.76925">
        <ele>605</ele>
        <time>2019-06-17T07:34:48Z</time>
      </trkpt>
      <trkpt lat="44.2659" lon="5.76926">
        <ele>606</ele>
        <time>2019-06-17T07:34:49Z</time>
      </trkpt>
      <trkpt lat="44.26584" lon="5.76926">
        <ele>607</ele>
        <time>2019-06-17T07:34:50Z</time>
      </trkpt>
      <trkpt lat="44.26578" lon="5.76925">
        <ele>608</ele>
        <time>2019-06-17T07:34:51Z</time>
      </trkpt>
      <trkpt lat="44.26572" lon="5.76924">
        <ele>609</ele>
        <time>2019-06-17T07:34:52Z</time>
      </trkpt>
      <trkpt lat="44.26566" lon="5.76923">
        <ele>610</ele>
        <time>2019-06-17T07:34:53Z</time>
      </trkpt>
      <trkpt lat="44.26561" lon="5.76922">
        <ele>611</ele>
        <time>2019-06-17T07:34:54Z</time>
      </trkpt>
      <trkpt lat="44.26555" lon="5.7692">
        <ele>612</ele>
        <time>2019-06-17T07:34:55Z</time>
      </trkpt>
      <trkpt lat="44.26549" lon="5.76919">
        <ele>613</ele>
        <time>2019-06-17T07:34:56Z</time>
      </trkpt>
      <trkpt lat="44.26544" lon="5.76917">
        <ele>614</ele>
        <time>2019-06-17T07:34:57Z</time>
      </trkpt>
      <trkpt lat="44.26539" lon="5.76915">
        <ele>615</ele>
        <time>2019-06-17T07:34:58Z</time>
      </trkpt>
      <trkpt lat="44.26534" lon="5.76913">
        <ele>615</ele>
        <time>2019-06-17T07:34:59Z</time>
      </trkpt>
      <trkpt lat="44.26528" lon="5.76911">
        <ele>615</ele>
        <time>2019-06-17T07:35:00Z</time>
      </trkpt>
      <trkpt lat="44.26523" lon="5.76909">
        <ele>616</ele>
        <time>2019-06-17T07:35:01Z</time>
      </trkpt>
      <trkpt lat="44.26518" lon="5.76907">
        <ele>616</ele>
        <time>2019-06-17T07:35:02Z</time>
      </trkpt>
      <trkpt lat="44.26478" lon="5.76885">
        <ele>616</ele>
        <time>2019-06-17T07:35:10Z</time>
      </trkpt>
      <trkpt lat="44.26472" lon="5.76882">
        <ele>616</ele>
        <time>2019-06-17T07:35:11Z</time>
      </trkpt>
      <trkpt lat="44.26468" lon="5.76878">
        <ele>616</ele>
        <time>2019-06-17T07:35:12Z</time>
      </trkpt>
      <trkpt lat="44.26464" lon="5.76875">
        <ele>616</ele>
        <time>2019-06-17T07:35:13Z</time>
      </trkpt>
      <trkpt lat="44.26464" lon="5.76885">
        <ele>617</ele>
        <time>2019-06-17T07:35:14Z</time>
      </trkpt>
      <trkpt lat="44.26462" lon="5.76878">
        <ele>618</ele>
        <time>2019-06-17T07:35:15Z</time>
      </trkpt>
      <trkpt lat="44.26461" lon="5.7687">
        <ele>619</ele>
        <time>2019-06-17T07:35:16Z</time>
      </trkpt>
      <trkpt lat="44.26461" lon="5.76862">
        <ele>619</ele>
        <time>2019-06-17T07:35:17Z</time>
      </trkpt>
      <trkpt lat="44.2646" lon="5.7686">
        <ele>620</ele>
        <time>2019-06-17T07:35:18Z</time>
      </trkpt>
      <trkpt lat="44.26463" lon="5.76858">
        <ele>621</ele>
        <time>2019-06-17T07:35:19Z</time>
      </trkpt>
      <trkpt lat="44.26468" lon="5.76856">
        <ele>622</ele>
        <time>2019-06-17T07:35:20Z</time>
      </trkpt>
      <trkpt lat="44.26471" lon="5.76853">
        <ele>623</ele>
        <time>2019-06-17T07:35:21Z</time>
      </trkpt>
      <trkpt lat="44.26475" lon="5.76851">
        <ele>625</ele>
        <time>2019-06-17T07:35:22Z</time>
      </trkpt>
      <trkpt lat="44.2648" lon="5.76848">
        <ele>627</ele>
        <time>2019-06-17T07:35:23Z</time>
      </trkpt>
      <trkpt lat="44.26485" lon="5.76845">
        <ele>629</ele>
        <time>2019-06-17T07:35:24Z</time>
      </trkpt>
      <trkpt lat="44.2649" lon="5.76843">
        <ele>631</ele>
        <time>2019-06-17T07:35:25Z</time>
      </trkpt>
      <trkpt lat="44.26495" lon="5.7684">
        <ele>633</ele>
        <time>2019-06-17T07:35:26Z</time>
      </trkpt>
      <trkpt lat="44.26499" lon="5.76837">
        <ele>635</ele>
        <time>2019-06-17T07:35:27Z</time>
      </trkpt>
      <trkpt lat="44.26503" lon="5.76835">
        <ele>636</ele>
        <time>2019-06-17T07:35:28Z</time>
      </trkpt>
      <trkpt lat="44.26507" lon="5.76832">
        <ele>637</ele>
        <time>2019-06-17T07:35:29Z</time>
      </trkpt>
      <trkpt lat="44.26511" lon="5.76829">
        <ele>638</ele>
        <time>2019-06-17T07:35:30Z</time>
      </trkpt>
      <trkpt lat="44.26515" lon="5.76826">
        <ele>639</ele>
        <time>2019-06-17T07:35:31Z</time>
      </trkpt>
      <trkpt lat="44.26519" lon="5.76822">
        <ele>640</ele>
        <time>2019-06-17T07:35:32Z</time>
      </trkpt>
      <trkpt lat="44.26523" lon="5.76818">
        <ele>641</ele>
        <time>2019-06-17T07:35:33Z</time>
      </trkpt>
      <trkpt lat="44.2653" lon="5.76811">
        <ele>641</ele>
        <time>2019-06-17T07:35:35Z</time>
      </trkpt>
      <trkpt lat="44.26534" lon="5.76806">
        <ele>641</ele>
        <time>2019-06-17T07:35:36Z</time>
      </trkpt>
      <trkpt lat="44.26537" lon="5.76801">
        <ele>641</ele>
        <time>2019-06-17T07:35:37Z</time>
      </trkpt>
      <trkpt lat="44.2654" lon="5.76795">
        <ele>641</ele>
        <time>2019-06-17T07:35:38Z</time>
      </trkpt>
      <trkpt lat="44.26542" lon="5.7679">
        <ele>641</ele>
        <time>2019-06-17T07:35:39Z</time>
      </trkpt>
      <trkpt lat="44.26544" lon="5.76784">
        <ele>641</ele>
        <time>2019-06-17T07:35:40Z</time>
      </trkpt>
      <trkpt lat="44.26546" lon="5.76778">
        <ele>641</ele>
        <time>2019-06-17T07:35:41Z</time>
      </trkpt>
      <trkpt lat="44.26548" lon="5.76772">
        <ele>641</ele>
        <time>2019-06-17T07:35:42Z</time>
      </trkpt>
      <trkpt lat="44.2655" lon="5.76766">
        <ele>641</ele>
        <time>2019-06-17T07:35:43Z</time>
      </trkpt>
      <trkpt lat="44.26552" lon="5.76762">
        <ele>641</ele>
        <time>2019-06-17T07:35:44Z</time>
      </trkpt>
      <trkpt lat="44.26554" lon="5.76757">
        <ele>641</ele>
        <time>2019-06-17T07:35:45Z</time>
      </trkpt>
      <trkpt lat="44.26556" lon="5.76754">
        <ele>641</ele>
        <time>2019-06-17T07:35:46Z</time>
      </trkpt>
      <trkpt lat="44.26559" lon="5.7675">
        <ele>641</ele>
        <time>2019-06-17T07:35:47Z</time>
      </trkpt>
      <trkpt lat="44.26562" lon="5.76747">
        <ele>640</ele>
        <time>2019-06-17T07:35:48Z</time>
      </trkpt>
      <trkpt lat="44.26565" lon="5.76743">
        <ele>639</ele>
        <time>2019-06-17T07:35:49Z</time>
      </trkpt>
      <trkpt lat="44.26568" lon="5.76739">
        <ele>638</ele>
        <time>2019-06-17T07:35:50Z</time>
      </trkpt>
      <trkpt lat="44.26571" lon="5.76734">
        <ele>637</ele>
        <time>2019-06-17T07:35:51Z</time>
      </trkpt>
      <trkpt lat="44.26574" lon="5.7673">
        <ele>636</ele>
        <time>2019-06-17T07:35:52Z</time>
      </trkpt>
      <trkpt lat="44.26577" lon="5.76726">
        <ele>635</ele>
        <time>2019-06-17T07:35:53Z</time>
      </trkpt>
      <trkpt lat="44.2658" lon="5.76722">
        <ele>634</ele>
        <time>2019-06-17T07:35:54Z</time>
      </trkpt>
      <trkpt lat="44.26583" lon="5.76718">
        <ele>633</ele>
        <time>2019-06-17T07:35:55Z</time>
      </trkpt>
      <trkpt lat="44.26586" lon="5.76715">
        <ele>632</ele>
        <time>2019-06-17T07:35:56Z</time>
      </trkpt>
      <trkpt lat="44.26589" lon="5.76711">
        <ele>631</ele>
        <time>2019-06-17T07:35:57Z</time>
      </trkpt>
      <trkpt lat="44.26593" lon="5.76708">
        <ele>630</ele>
        <time>2019-06-17T07:35:58Z</time>
      </trkpt>
      <trkpt lat="44.26596" lon="5.76705">
        <ele>629</ele>
        <time>2019-06-17T07:35:59Z</time>
      </trkpt>
      <trkpt lat="44.266" lon="5.76702">
        <ele>628</ele>
        <time>2019-06-17T07:36:00Z</time>
      </trkpt>
      <trkpt lat="44.26604" lon="5.76699">
        <ele>628</ele>
        <time>2019-06-17T07:36:01Z</time>
      </trkpt>
      <trkpt lat="44.26607" lon="5.76695">
        <ele>628</ele>
        <time>2019-06-17T07:36:02Z</time>
      </trkpt>
      <trkpt lat="44.2661" lon="5.76692">
        <ele>628</ele>
        <time>2019-06-17T07:36:03Z</time>
      </trkpt>
      <trkpt lat="44.26613" lon="5.76688">
        <ele>628</ele>
        <time>2019-06-17T07:36:04Z</time>
      </trkpt>
      <trkpt lat="44.26615" lon="5.76683">
        <ele>628</ele>
        <time>2019-06-17T07:36:05Z</time>
      </trkpt>
      <trkpt lat="44.26618" lon="5.76679">
        <ele>628</ele>
        <time>2019-06-17T07:36:06Z</time>
      </trkpt>
      <trkpt lat="44.26619" lon="5.76674">
        <ele>628</ele>
        <time>2019-06-17T07:36:07Z</time>
      </trkpt>
      <trkpt lat="44.26629" lon="5.76619">
        <ele>628</ele>
        <time>2019-06-17T07:36:17Z</time>
      </trkpt>
      <trkpt lat="44.2663" lon="5.76613">
        <ele>628</ele>
        <time>2019-06-17T07:36:18Z</time>
      </trkpt>
      <trkpt lat="44.26631" lon="5.76608">
        <ele>628</ele>
        <time>2019-06-17T07:36:19Z</time>
      </trkpt>
      <trkpt lat="44.26631" lon="5.76601">
        <ele>628</ele>
        <time>2019-06-17T07:36:20Z</time>
      </trkpt>
      <trkpt lat="44.26631" lon="5.76594">
        <ele>628</ele>
        <time>2019-06-17T07:36:21Z</time>
      </trkpt>
      <trkpt lat="44.2663" lon="5.76588">
        <ele>628</ele>
        <time>2019-06-17T07:36:22Z</time>
      </trkpt>
      <trkpt lat="44.26628" lon="5.76582">
        <ele>628</ele>
        <time>2019-06-17T07:36:23Z</time>
      </trkpt>
      <trkpt lat="44.26625" lon="5.76577">
        <ele>628</ele>
        <time>2019-06-17T07:36:24Z</time>
      </trkpt>
      <trkpt lat="44.26623" lon="5.76572">
        <ele>628</ele>
        <time>2019-06-17T07:36:25Z</time>
      </trkpt>
      <trkpt lat="44.26621" lon="5.76566">
        <ele>628</ele>
        <time>2019-06-17T07:36:26Z</time>
      </trkpt>
      <trkpt lat="44.26618" lon="5.7656">
        <ele>627</ele>
        <time>2019-06-17T07:36:27Z</time>
      </trkpt>
      <trkpt lat="44.26616" lon="5.76555">
        <ele>627</ele>
        <time>2019-06-17T07:36:28Z</time>
      </trkpt>
      <trkpt lat="44.26614" lon="5.76549">
        <ele>626</ele>
        <time>2019-06-17T07:36:29Z</time>
      </trkpt>
      <trkpt lat="44.26612" lon="5.76543">
        <ele>626</ele>
        <time>2019-06-17T07:36:30Z</time>
      </trkpt>
      <trkpt lat="44.26611" lon="5.76537">
        <ele>626</ele>
        <time>2019-06-17T07:36:31Z</time>
      </trkpt>
      <trkpt lat="44.26608" lon="5.76532">
        <ele>625</ele>
        <time>2019-06-17T07:36:32Z</time>
      </trkpt>
      <trkpt lat="44.26606" lon="5.76527">
        <ele>625</ele>
        <time>2019-06-17T07:36:33Z</time>
      </trkpt>
      <trkpt lat="44.26603" lon="5.76522">
        <ele>624</ele>
        <time>2019-06-17T07:36:34Z</time>
      </trkpt>
      <trkpt lat="44.26602" lon="5.76517">
        <ele>624</ele>
        <time>2019-06-17T07:36:35Z</time>
      </trkpt>
      <trkpt lat="44.26599" lon="5.76513">
        <ele>623</ele>
        <time>2019-06-17T07:36:36Z</time>
      </trkpt>
      <trkpt lat="44.26595" lon="5.76509">
        <ele>623</ele>
        <time>2019-06-17T07:36:37Z</time>
      </trkpt>
      <trkpt lat="44.26592" lon="5.76505">
        <ele>622</ele>
        <time>2019-06-17T07:36:38Z</time>
      </trkpt>
      <trkpt lat="44.26588" lon="5.76501">
        <ele>622</ele>
        <time>2019-06-17T07:36:39Z</time>
      </trkpt>
      <trkpt lat="44.26585" lon="5.76497">
        <ele>622</ele>
        <time>2019-06-17T07:36:40Z</time>
      </trkpt>
      <trkpt lat="44.2658" lon="5.76494">
        <ele>622</ele>
        <time>2019-06-17T07:36:41Z</time>
      </trkpt>
      <trkpt lat="44.26576" lon="5.76491">
        <ele>622</ele>
        <time>2019-06-17T07:36:42Z</time>
      </trkpt>
      <trkpt lat="44.26572" lon="5.76489">
        <ele>622</ele>
        <time>2019-06-17T07:36:43Z</time>
      </trkpt>
      <trkpt lat="44.26568" lon="5.76487">
        <ele>622</ele>
        <time>2019-06-17T07:36:44Z</time>
      </trkpt>
      <trkpt lat="44.26563" lon="5.76485">
        <ele>622</ele>
        <time>2019-06-17T07:36:45Z</time>
      </trkpt>
      <trkpt lat="44.26559" lon="5.76482">
        <ele>622</ele>
        <time>2019-06-17T07:36:46Z</time>
      </trkpt>
      <trkpt lat="44.26555" lon="5.7648">
        <ele>622</ele>
        <time>2019-06-17T07:36:47Z</time>
      </trkpt>
      <trkpt lat="44.26551" lon="5.76476">
        <ele>622</ele>
        <time>2019-06-17T07:36:48Z</time>
      </trkpt>
      <trkpt lat="44.26547" lon="5.76473">
        <ele>622</ele>
        <time>2019-06-17T07:36:49Z</time>
      </trkpt>
      <trkpt lat="44.26545" lon="5.76468">
        <ele>622</ele>
        <time>2019-06-17T07:36:50Z</time>
      </trkpt>
      <trkpt lat="44.26543" lon="5.76462">
        <ele>622</ele>
        <time>2019-06-17T07:36:51Z</time>
      </trkpt>
      <trkpt lat="44.26543" lon="5.76456">
        <ele>622</ele>
        <time>2019-06-17T07:36:52Z</time>
      </trkpt>
      <trkpt lat="44.26544" lon="5.76449">
        <ele>622</ele>
        <time>2019-06-17T07:36:53Z</time>
      </trkpt>
      <trkpt lat="44.26546" lon="5.76442">
        <ele>622</ele>
        <time>2019-06-17T07:36:54Z</time>
      </trkpt>
      <trkpt lat="44.26548" lon="5.76436">
        <ele>622</ele>
        <time>2019-06-17T07:36:55Z</time>
      </trkpt>
      <trkpt lat="44.2655" lon="5.7643">
        <ele>622</ele>
        <time>2019-06-17T07:36:56Z</time>
      </trkpt>
      <trkpt lat="44.26553" lon="5.76423">
        <ele>622</ele>
        <time>2019-06-17T07:36:57Z</time>
      </trkpt>
      <trkpt lat="44.26556" lon="5.76417">
        <ele>622</ele>
        <time>2019-06-17T07:36:58Z</time>
      </trkpt>
      <trkpt lat="44.26559" lon="5.76411">
        <ele>622</ele>
        <time>2019-06-17T07:36:59Z</time>
      </trkpt>
      <trkpt lat="44.26562" lon="5.76404">
        <ele>622</ele>
        <time>2019-06-17T07:37:00Z</time>
      </trkpt>
      <trkpt lat="44.26566" lon="5.76399">
        <ele>622</ele>
        <time>2019-06-17T07:37:01Z</time>
      </trkpt>
      <trkpt lat="44.2657" lon="5.76393">
        <ele>622</ele>
        <time>2019-06-17T07:37:02Z</time>
      </trkpt>
      <trkpt lat="44.26574" lon="5.76388">
        <ele>622</ele>
        <time>2019-06-17T07:37:03Z</time>
      </trkpt>
      <trkpt lat="44.2658" lon="5.76384">
        <ele>622</ele>
        <time>2019-06-17T07:37:04Z</time>
      </trkpt>
      <trkpt lat="44.26584" lon="5.76381">
        <ele>622</ele>
        <time>2019-06-17T07:37:05Z</time>
      </trkpt>
      <trkpt lat="44.2659" lon="5.76378">
        <ele>622</ele>
        <time>2019-06-17T07:37:06Z</time>
      </trkpt>
      <trkpt lat="44.26595" lon="5.76376">
        <ele>622</ele>
        <time>2019-06-17T07:37:07Z</time>
      </trkpt>
      <trkpt lat="44.26601" lon="5.76373">
        <ele>622</ele>
        <time>2019-06-17T07:37:08Z</time>
      </trkpt>
      <trkpt lat="44.26607" lon="5.76371">
        <ele>622</ele>
        <time>2019-06-17T07:37:09Z</time>
      </trkpt>
      <trkpt lat="44.26613" lon="5.76369">
        <ele>622</ele>
        <time>2019-06-17T07:37:10Z</time>
      </trkpt>
      <trkpt lat="44.26619" lon="5.76368">
        <ele>622</ele>
        <time>2019-06-17T07:37:11Z</time>
      </trkpt>
      <trkpt lat="44.26625" lon="5.76366">
        <ele>622</ele>
        <time>2019-06-17T07:37:12Z</time>
      </trkpt>
      <trkpt lat="44.2663" lon="5.76364">
        <ele>622</ele>
        <time>2019-06-17T07:37:13Z</time>
      </trkpt>
      <trkpt lat="44.26636" lon="5.76362">
        <ele>622</ele>
        <time>2019-06-17T07:37:14Z</time>
      </trkpt>
      <trkpt lat="44.26642" lon="5.7636">
        <ele>622</ele>
        <time>2019-06-17T07:37:15Z</time>
      </trkpt>
      <trkpt lat="44.26647" lon="5.76358">
        <ele>622</ele>
        <time>2019-06-17T07:37:16Z</time>
      </trkpt>
      <trkpt lat="44.26653" lon="5.76355">
        <ele>622</ele>
        <time>2019-06-17T07:37:17Z</time>
      </trkpt>
      <trkpt lat="44.26659" lon="5.76353">
        <ele>622</ele>
        <time>2019-06-17T07:37:18Z</time>
      </trkpt>
      <trkpt lat="44.26664" lon="5.76351">
        <ele>622</ele>
        <time>2019-06-17T07:37:19Z</time>
      </trkpt>
      <trkpt lat="44.2667" lon="5.76348">
        <ele>622</ele>
        <time>2019-06-17T07:37:20Z</time>
      </trkpt>
      <trkpt lat="44.26675" lon="5.76346">
        <ele>622</ele>
        <time>2019-06-17T07:37:21Z</time>
      </trkpt>
      <trkpt lat="44.26681" lon="5.76343">
        <ele>622</ele>
        <time>2019-06-17T07:37:22Z</time>
      </trkpt>
      <trkpt lat="44.26686" lon="5.7634">
        <ele>622</ele>
        <time>2019-06-17T07:37:23Z</time>
      </trkpt>
      <trkpt lat="44.26692" lon="5.76337">
        <ele>622</ele>
        <time>2019-06-17T07:37:24Z</time>
      </trkpt>
      <trkpt lat="44.26698" lon="5.76335">
        <ele>622</ele>
        <time>2019-06-17T07:37:25Z</time>
      </trkpt>
      <trkpt lat="44.26703" lon="5.76332">
        <ele>622</ele>
        <time>2019-06-17T07:37:26Z</time>
      </trkpt>
      <trkpt lat="44.26709" lon="5.76329">
        <ele>622</ele>
        <time>2019-06-17T07:37:27Z</time>
      </trkpt>
      <trkpt lat="44.26715" lon="5.76326">
        <ele>622</ele>
        <time>2019-06-17T07:37:28Z</time>
      </trkpt>
      <trkpt lat="44.26721" lon="5.76323">
        <ele>622</ele>
        <time>2019-06-17T07:37:29Z</time>
      </trkpt>
      <trkpt lat="44.26727" lon="5.7632">
        <ele>622</ele>
        <time>2019-06-17T07:37:30Z</time>
      </trkpt>
      <trkpt lat="44.26733" lon="5.76317">
        <ele>622</ele>
        <time>2019-06-17T07:37:31Z</time>
      </trkpt>
      <trkpt lat="44.26739" lon="5.76314">
        <ele>622</ele>
        <time>2019-06-17T07:37:32Z</time>
      </trkpt>
      <trkpt lat="44.26745" lon="5.76312">
        <ele>622</ele>
        <time>2019-06-17T07:37:33Z</time>
      </trkpt>
      <trkpt lat="44.26751" lon="5.76309">
        <ele>622</ele>
        <time>2019-06-17T07:37:34Z</time>
      </trkpt>
      <trkpt lat="44.26757" lon="5.76307">
        <ele>622</ele>
        <time>2019-06-17T07:37:35Z</time>
      </trkpt>
      <trkpt lat="44.26763" lon="5.76306">
        <ele>622</ele>
        <time>2019-06-17T07:37:36Z</time>
      </trkpt>
      <trkpt lat="44.26769" lon="5.76304">
        <ele>622</ele>
        <time>2019-06-17T07:37:37Z</time>
      </trkpt>
      <trkpt lat="44.26775" lon="5.76303">
        <ele>622</ele>
        <time>2019-06-17T07:37:38Z</time>
      </trkpt>
      <trkpt lat="44.26781" lon="5.76301">
        <ele>622</ele>
        <time>2019-06-17T07:37:39Z</time>
      </trkpt>
      <trkpt lat="44.26787" lon="5.76299">
        <ele>622</ele>
        <time>2019-06-17T07:37:40Z</time>
      </trkpt>
      <trkpt lat="44.26793" lon="5.76298">
        <ele>622</ele>
        <time>2019-06-17T07:37:41Z</time>
      </trkpt>
      <trkpt lat="44.26799" lon="5.76296">
        <ele>622</ele>
        <time>2019-06-17T07:37:42Z</time>
      </trkpt>
      <trkpt lat="44.26805" lon="5.76294">
        <ele>622</ele>
        <time>2019-06-17T07:37:43Z</time>
      </trkpt>
      <trkpt lat="44.26811" lon="5.76292">
        <ele>622</ele>
        <time>2019-06-17T07:37:44Z</time>
      </trkpt>
      <trkpt lat="44.26817" lon="5.7629">
        <ele>622</ele>
        <time>2019-06-17T07:37:45Z</time>
      </trkpt>
      <trkpt lat="44.26823" lon="5.76287">
        <ele>622</ele>
        <time>2019-06-17T07:37:46Z</time>
      </trkpt>
      <trkpt lat="44.26828" lon="5.76284">
        <ele>622</ele>
        <time>2019-06-17T07:37:47Z</time>
      </trkpt>
      <trkpt lat="44.26834" lon="5.7628">
        <ele>622</ele>
        <time>2019-06-17T07:37:48Z</time>
      </trkpt>
      <trkpt lat="44.26839" lon="5.76276">
        <ele>622</ele>
        <time>2019-06-17T07:37:49Z</time>
      </trkpt>
      <trkpt lat="44.26844" lon="5.76271">
        <ele>622</ele>
        <time>2019-06-17T07:37:50Z</time>
      </trkpt>
      <trkpt lat="44.26849" lon="5.76266">
        <ele>622</ele>
        <time>2019-06-17T07:37:51Z</time>
      </trkpt>
      <trkpt lat="44.26854" lon="5.7626">
        <ele>622</ele>
        <time>2019-06-17T07:37:52Z</time>
      </trkpt>
      <trkpt lat="44.26858" lon="5.76254">
        <ele>622</ele>
        <time>2019-06-17T07:37:53Z</time>
      </trkpt>
      <trkpt lat="44.26862" lon="5.76247">
        <ele>622</ele>
        <time>2019-06-17T07:37:54Z</time>
      </trkpt>
      <trkpt lat="44.26865" lon="5.76239">
        <ele>622</ele>
        <time>2019-06-17T07:37:55Z</time>
      </trkpt>
      <trkpt lat="44.26868" lon="5.76231">
        <ele>622</ele>
        <time>2019-06-17T07:37:56Z</time>
      </trkpt>
      <trkpt lat="44.2687" lon="5.76223">
        <ele>622</ele>
        <time>2019-06-17T07:37:57Z</time>
      </trkpt>
      <trkpt lat="44.26871" lon="5.76215">
        <ele>621</ele>
        <time>2019-06-17T07:37:58Z</time>
      </trkpt>
      <trkpt lat="44.26872" lon="5.76205">
        <ele>621</ele>
        <time>2019-06-17T07:37:59Z</time>
      </trkpt>
      <trkpt lat="44.26872" lon="5.76195">
        <ele>621</ele>
        <time>2019-06-17T07:38:00Z</time>
      </trkpt>
      <trkpt lat="44.26872" lon="5.76186">
        <ele>621</ele>
        <time>2019-06-17T07:38:01Z</time>
      </trkpt>
      <trkpt lat="44.2687" lon="5.76177">
        <ele>621</ele>
        <time>2019-06-17T07:38:02Z</time>
      </trkpt>
      <trkpt lat="44.26869" lon="5.76167">
        <ele>621</ele>
        <time>2019-06-17T07:38:03Z</time>
      </trkpt>
      <trkpt lat="44.26868" lon="5.76158">
        <ele>621</ele>
        <time>2019-06-17T07:38:04Z</time>
      </trkpt>
      <trkpt lat="44.26866" lon="5.76149">
        <ele>621</ele>
        <time>2019-06-17T07:38:05Z</time>
      </trkpt>
      <trkpt lat="44.26864" lon="5.7614">
        <ele>621</ele>
        <time>2019-06-17T07:38:06Z</time>
      </trkpt>
      <trkpt lat="44.26861" lon="5.76132">
        <ele>621</ele>
        <time>2019-06-17T07:38:07Z</time>
      </trkpt>
      <trkpt lat="44.26859" lon="5.76124">
        <ele>621</ele>
        <time>2019-06-17T07:38:08Z</time>
      </trkpt>
      <trkpt lat="44.26856" lon="5.76115">
        <ele>621</ele>
        <time>2019-06-17T07:38:09Z</time>
      </trkpt>
      <trkpt lat="44.26852" lon="5.76107">
        <ele>621</ele>
        <time>2019-06-17T07:38:10Z</time>
      </trkpt>
      <trkpt lat="44.26849" lon="5.76099">
        <ele>621</ele>
        <time>2019-06-17T07:38:11Z</time>
      </trkpt>
      <trkpt lat="44.26845" lon="5.76092">
        <ele>621</ele>
        <time>2019-06-17T07:38:12Z</time>
      </trkpt>
      <trkpt lat="44.26841" lon="5.76084">
        <ele>621</ele>
        <time>2019-06-17T07:38:13Z</time>
      </trkpt>
      <trkpt lat="44.26836" lon="5.76077">
        <ele>621</ele>
        <time>2019-06-17T07:38:14Z</time>
      </trkpt>
      <trkpt lat="44.26831" lon="5.7607">
        <ele>621</ele>
        <time>2019-06-17T07:38:15Z</time>
      </trkpt>
      <trkpt lat="44.26826" lon="5.76064">
        <ele>621</ele>
        <time>2019-06-17T07:38:16Z</time>
      </trkpt>
      <trkpt lat="44.26822" lon="5.76057">
        <ele>621</ele>
        <time>2019-06-17T07:38:17Z</time>
      </trkpt>
      <trkpt lat="44.26816" lon="5.76051">
        <ele>621</ele>
        <time>2019-06-17T07:38:18Z</time>
      </trkpt>
      <trkpt lat="44.26811" lon="5.76045">
        <ele>621</ele>
        <time>2019-06-17T07:38:19Z</time>
      </trkpt>
      <trkpt lat="44.26806" lon="5.76039">
        <ele>621</ele>
        <time>2019-06-17T07:38:20Z</time>
      </trkpt>
      <trkpt lat="44.26801" lon="5.76032">
        <ele>621</ele>
        <time>2019-06-17T07:38:21Z</time>
      </trkpt>
      <trkpt lat="44.26795" lon="5.76026">
        <ele>621</ele>
        <time>2019-06-17T07:38:22Z</time>
      </trkpt>
      <trkpt lat="44.2679" lon="5.76019">
        <ele>621</ele>
        <time>2019-06-17T07:38:23Z</time>
      </trkpt>
      <trkpt lat="44.26784" lon="5.76013">
        <ele>621</ele>
        <time>2019-06-17T07:38:24Z</time>
      </trkpt>
      <trkpt lat="44.26779" lon="5.76007">
        <ele>621</ele>
        <time>2019-06-17T07:38:25Z</time>
      </trkpt>
      <trkpt lat="44.26774" lon="5.76001">
        <ele>621</ele>
        <time>2019-06-17T07:38:26Z</time>
      </trkpt>
      <trkpt lat="44.26768" lon="5.75995">
        <ele>622</ele>
        <time>2019-06-17T07:38:27Z</time>
      </trkpt>
      <trkpt lat="44.26763" lon="5.75988">
        <ele>622</ele>
        <time>2019-06-17T07:38:28Z</time>
      </trkpt>
      <trkpt lat="44.26758" lon="5.75982">
        <ele>622</ele>
        <time>2019-06-17T07:38:29Z</time>
      </trkpt>
      <trkpt lat="44.26754" lon="5.75975">
        <ele>622</ele>
        <time>2019-06-17T07:38:30Z</time>
      </trkpt>
      <trkpt lat="44.26749" lon="5.75967">
        <ele>622</ele>
        <time>2019-06-17T07:38:31Z</time>
      </trkpt>
      <trkpt lat="44.26744" lon="5.75959">
        <ele>622</ele>
        <time>2019-06-17T07:38:32Z</time>
      </trkpt>
      <trkpt lat="44.2674" lon="5.75952">
        <ele>622</ele>
        <time>2019-06-17T07:38:33Z</time>
      </trkpt>
      <trkpt lat="44.26736" lon="5.75944">
        <ele>622</ele>
        <time>2019-06-17T07:38:34Z</time>
      </trkpt>
      <trkpt lat="44.26731" lon="5.75936">
        <ele>622</ele>
        <time>2019-06-17T07:38:35Z</time>
      </trkpt>
      <trkpt lat="44.26727" lon="5.75928">
        <ele>622</ele>
        <time>2019-06-17T07:38:36Z</time>
      </trkpt>
      <trkpt lat="44.26723" lon="5.75919">
        <ele>622</ele>
        <time>2019-06-17T07:38:37Z</time>
      </trkpt>
      <trkpt lat="44.2672" lon="5.75911">
        <ele>622</ele>
        <time>2019-06-17T07:38:38Z</time>
      </trkpt>
      <trkpt lat="44.26716" lon="5.75902">
        <ele>622</ele>
        <time>2019-06-17T07:38:39Z</time>
      </trkpt>
      <trkpt lat="44.26713" lon="5.75893">
        <ele>622</ele>
        <time>2019-06-17T07:38:40Z</time>
      </trkpt>
      <trkpt lat="44.2671" lon="5.75884">
        <ele>622</ele>
        <time>2019-06-17T07:38:41Z</time>
      </trkpt>
      <trkpt lat="44.26708" lon="5.75876">
        <ele>622</ele>
        <time>2019-06-17T07:38:42Z</time>
      </trkpt>
      <trkpt lat="44.26705" lon="5.75867">
        <ele>622</ele>
        <time>2019-06-17T07:38:43Z</time>
      </trkpt>
      <trkpt lat="44.26703" lon="5.75858">
        <ele>622</ele>
        <time>2019-06-17T07:38:44Z</time>
      </trkpt>
      <trkpt lat="44.267" lon="5.75849">
        <ele>622</ele>
        <time>2019-06-17T07:38:45Z</time>
      </trkpt>
      <trkpt lat="44.26698" lon="5.7584">
        <ele>622</ele>
        <time>2019-06-17T07:38:46Z</time>
      </trkpt>
      <trkpt lat="44.26696" lon="5.75831">
        <ele>622</ele>
        <time>2019-06-17T07:38:47Z</time>
      </trkpt>
      <trkpt lat="44.26695" lon="5.75822">
        <ele>622</ele>
        <time>2019-06-17T07:38:48Z</time>
      </trkpt>
      <trkpt lat="44.26693" lon="5.75814">
        <ele>622</ele>
        <time>2019-06-17T07:38:49Z</time>
      </trkpt>
      <trkpt lat="44.26693" lon="5.75805">
        <ele>622</ele>
        <time>2019-06-17T07:38:50Z</time>
      </trkpt>
      <trkpt lat="44.26692" lon="5.75796">
        <ele>622</ele>
        <time>2019-06-17T07:38:51Z</time>
      </trkpt>
      <trkpt lat="44.26691" lon="5.75787">
        <ele>622</ele>
        <time>2019-06-17T07:38:52Z</time>
      </trkpt>
      <trkpt lat="44.2669" lon="5.75778">
        <ele>622</ele>
        <time>2019-06-17T07:38:53Z</time>
      </trkpt>
      <trkpt lat="44.2669" lon="5.75769">
        <ele>622</ele>
        <time>2019-06-17T07:38:54Z</time>
      </trkpt>
      <trkpt lat="44.2669" lon="5.7576">
        <ele>622</ele>
        <time>2019-06-17T07:38:55Z</time>
      </trkpt>
      <trkpt lat="44.2669" lon="5.75751">
        <ele>622</ele>
        <time>2019-06-17T07:38:56Z</time>
      </trkpt>
      <trkpt lat="44.26691" lon="5.75743">
        <ele>622</ele>
        <time>2019-06-17T07:38:57Z</time>
      </trkpt>
      <trkpt lat="44.26693" lon="5.75735">
        <ele>622</ele>
        <time>2019-06-17T07:38:58Z</time>
      </trkpt>
      <trkpt lat="44.26695" lon="5.75727">
        <ele>622</ele>
        <time>2019-06-17T07:38:59Z</time>
      </trkpt>
      <trkpt lat="44.26697" lon="5.75719">
        <ele>622</ele>
        <time>2019-06-17T07:39:00Z</time>
      </trkpt>
      <trkpt lat="44.267" lon="5.75711">
        <ele>622</ele>
        <time>2019-06-17T07:39:01Z</time>
      </trkpt>
      <trkpt lat="44.26703" lon="5.75705">
        <ele>622</ele>
        <time>2019-06-17T07:39:02Z</time>
      </trkpt>
      <trkpt lat="44.26707" lon="5.75699">
        <ele>622</ele>
        <time>2019-06-17T07:39:03Z</time>
      </trkpt>
      <trkpt lat="44.26712" lon="5.75694">
        <ele>622</ele>
        <time>2019-06-17T07:39:04Z</time>
      </trkpt>
      <trkpt lat="44.26715" lon="5.75689">
        <ele>622</ele>
        <time>2019-06-17T07:39:05Z</time>
      </trkpt>
      <trkpt lat="44.26718" lon="5.75682">
        <ele>622</ele>
        <time>2019-06-17T07:39:06Z</time>
      </trkpt>
      <trkpt lat="44.26721" lon="5.75676">
        <ele>622</ele>
        <time>2019-06-17T07:39:07Z</time>
      </trkpt>
      <trkpt lat="44.26722" lon="5.75669">
        <ele>622</ele>
        <time>2019-06-17T07:39:08Z</time>
      </trkpt>
      <trkpt lat="44.26722" lon="5.75662">
        <ele>622</ele>
        <time>2019-06-17T07:39:09Z</time>
      </trkpt>
      <trkpt lat="44.2672" lon="5.75656">
        <ele>623</ele>
        <time>2019-06-17T07:39:10Z</time>
      </trkpt>
      <trkpt lat="44.26717" lon="5.75649">
        <ele>623</ele>
        <time>2019-06-17T07:39:11Z</time>
      </trkpt>
      <trkpt lat="44.26713" lon="5.75644">
        <ele>624</ele>
        <time>2019-06-17T07:39:12Z</time>
      </trkpt>
      <trkpt lat="44.26708" lon="5.75639">
        <ele>624</ele>
        <time>2019-06-17T07:39:13Z</time>
      </trkpt>
      <trkpt lat="44.26704" lon="5.75635">
        <ele>624</ele>
        <time>2019-06-17T07:39:14Z</time>
      </trkpt>
      <trkpt lat="44.26699" lon="5.75629">
        <ele>625</ele>
        <time>2019-06-17T07:39:15Z</time>
      </trkpt>
      <trkpt lat="44.26694" lon="5.75623">
        <ele>625</ele>
        <time>2019-06-17T07:39:16Z</time>
      </trkpt>
      <trkpt lat="44.26691" lon="5.75616">
        <ele>625</ele>
        <time>2019-06-17T07:39:17Z</time>
      </trkpt>
      <trkpt lat="44.26687" lon="5.75608">
        <ele>625</ele>
        <time>2019-06-17T07:39:18Z</time>
      </trkpt>
      <trkpt lat="44.26685" lon="5.75599">
        <ele>625</ele>
        <time>2019-06-17T07:39:19Z</time>
      </trkpt>
      <trkpt lat="44.26683" lon="5.75589">
        <ele>625</ele>
        <time>2019-06-17T07:39:20Z</time>
      </trkpt>
      <trkpt lat="44.26682" lon="5.7558">
        <ele>625</ele>
        <time>2019-06-17T07:39:21Z</time>
      </trkpt>
      <trkpt lat="44.2668" lon="5.7557">
        <ele>625</ele>
        <time>2019-06-17T07:39:22Z</time>
      </trkpt>
      <trkpt lat="44.26679" lon="5.7556">
        <ele>625</ele>
        <time>2019-06-17T07:39:23Z</time>
      </trkpt>
      <trkpt lat="44.26678" lon="5.7555">
        <ele>625</ele>
        <time>2019-06-17T07:39:24Z</time>
      </trkpt>
      <trkpt lat="44.26677" lon="5.7554">
        <ele>625</ele>
        <time>2019-06-17T07:39:25Z</time>
      </trkpt>
      <trkpt lat="44.26676" lon="5.75529">
        <ele>625</ele>
        <time>2019-06-17T07:39:26Z</time>
      </trkpt>
      <trkpt lat="44.26675" lon="5.75519">
        <ele>625</ele>
        <time>2019-06-17T07:39:27Z</time>
      </trkpt>
      <trkpt lat="44.26673" lon="5.75508">
        <ele>625</ele>
        <time>2019-06-17T07:39:28Z</time>
      </trkpt>
      <trkpt lat="44.26672" lon="5.75498">
        <ele>625</ele>
        <time>2019-06-17T07:39:29Z</time>
      </trkpt>
      <trkpt lat="44.26671" lon="5.75488">
        <ele>625</ele>
        <time>2019-06-17T07:39:30Z</time>
      </trkpt>
      <trkpt lat="44.2667" lon="5.75478">
        <ele>625</ele>
        <time>2019-06-17T07:39:31Z</time>
      </trkpt>
      <trkpt lat="44.26668" lon="5.75467">
        <ele>625</ele>
        <time>2019-06-17T07:39:32Z</time>
      </trkpt>
      <trkpt lat="44.26666" lon="5.75457">
        <ele>625</ele>
        <time>2019-06-17T07:39:33Z</time>
      </trkpt>
      <trkpt lat="44.26663" lon="5.75447">
        <ele>625</ele>
        <time>2019-06-17T07:39:34Z</time>
      </trkpt>
      <trkpt lat="44.26661" lon="5.75438">
        <ele>625</ele>
        <time>2019-06-17T07:39:35Z</time>
      </trkpt>
      <trkpt lat="44.26657" lon="5.75428">
        <ele>625</ele>
        <time>2019-06-17T07:39:36Z</time>
      </trkpt>
      <trkpt lat="44.26654" lon="5.7542">
        <ele>624</ele>
        <time>2019-06-17T07:39:37Z</time>
      </trkpt>
      <trkpt lat="44.2665" lon="5.75411">
        <ele>624</ele>
        <time>2019-06-17T07:39:38Z</time>
      </trkpt>
      <trkpt lat="44.26646" lon="5.75403">
        <ele>623</ele>
        <time>2019-06-17T07:39:39Z</time>
      </trkpt>
      <trkpt lat="44.26642" lon="5.75395">
        <ele>622</ele>
        <time>2019-06-17T07:39:40Z</time>
      </trkpt>
      <trkpt lat="44.26637" lon="5.75387">
        <ele>621</ele>
        <time>2019-06-17T07:39:41Z</time>
      </trkpt>
      <trkpt lat="44.26632" lon="5.75379">
        <ele>621</ele>
        <time>2019-06-17T07:39:42Z</time>
      </trkpt>
      <trkpt lat="44.26627" lon="5.75372">
        <ele>620</ele>
        <time>2019-06-17T07:39:43Z</time>
      </trkpt>
      <trkpt lat="44.26623" lon="5.75364">
        <ele>620</ele>
        <time>2019-06-17T07:39:44Z</time>
      </trkpt>
      <trkpt lat="44.26619" lon="5.75356">
        <ele>620</ele>
        <time>2019-06-17T07:39:45Z</time>
      </trkpt>
      <trkpt lat="44.26615" lon="5.75348">
        <ele>620</ele>
        <time>2019-06-17T07:39:46Z</time>
      </trkpt>
      <trkpt lat="44.26611" lon="5.7534">
        <ele>620</ele>
        <time>2019-06-17T07:39:47Z</time>
      </trkpt>
      <trkpt lat="44.26608" lon="5.75332">
        <ele>620</ele>
        <time>2019-06-17T07:39:48Z</time>
      </trkpt>
      <trkpt lat="44.26605" lon="5.75324">
        <ele>620</ele>
        <time>2019-06-17T07:39:49Z</time>
      </trkpt>
      <trkpt lat="44.26602" lon="5.75316">
        <ele>620</ele>
        <time>2019-06-17T07:39:50Z</time>
      </trkpt>
      <trkpt lat="44.26599" lon="5.75309">
        <ele>620</ele>
        <time>2019-06-17T07:39:51Z</time>
      </trkpt>
      <trkpt lat="44.26596" lon="5.75301">
        <ele>620</ele>
        <time>2019-06-17T07:39:52Z</time>
      </trkpt>
      <trkpt lat="44.26593" lon="5.75293">
        <ele>620</ele>
        <time>2019-06-17T07:39:53Z</time>
      </trkpt>
      <trkpt lat="44.2659" lon="5.75285">
        <ele>620</ele>
        <time>2019-06-17T07:39:54Z</time>
      </trkpt>
      <trkpt lat="44.26588" lon="5.75278">
        <ele>620</ele>
        <time>2019-06-17T07:39:55Z</time>
      </trkpt>
      <trkpt lat="44.26585" lon="5.7527">
        <ele>620</ele>
        <time>2019-06-17T07:39:56Z</time>
      </trkpt>
      <trkpt lat="44.26582" lon="5.75262">
        <ele>620</ele>
        <time>2019-06-17T07:39:57Z</time>
      </trkpt>
      <trkpt lat="44.2658" lon="5.75254">
        <ele>620</ele>
        <time>2019-06-17T07:39:58Z</time>
      </trkpt>
      <trkpt lat="44.26577" lon="5.75246">
        <ele>620</ele>
        <time>2019-06-17T07:39:59Z</time>
      </trkpt>
      <trkpt lat="44.26574" lon="5.75239">
        <ele>620</ele>
        <time>2019-06-17T07:40:00Z</time>
      </trkpt>
      <trkpt lat="44.2657" lon="5.75231">
        <ele>620</ele>
        <time>2019-06-17T07:40:01Z</time>
      </trkpt>
      <trkpt lat="44.26566" lon="5.75224">
        <ele>620</ele>
        <time>2019-06-17T07:40:02Z</time>
      </trkpt>
      <trkpt lat="44.26563" lon="5.75218">
        <ele>620</ele>
        <time>2019-06-17T07:40:03Z</time>
      </trkpt>
      <trkpt lat="44.26559" lon="5.75211">
        <ele>620</ele>
        <time>2019-06-17T07:40:04Z</time>
      </trkpt>
      <trkpt lat="44.26555" lon="5.75204">
        <ele>620</ele>
        <time>2019-06-17T07:40:05Z</time>
      </trkpt>
      <trkpt lat="44.26551" lon="5.75198">
        <ele>620</ele>
        <time>2019-06-17T07:40:06Z</time>
      </trkpt>
      <trkpt lat="44.26548" lon="5.75192">
        <ele>620</ele>
        <time>2019-06-17T07:40:07Z</time>
      </trkpt>
      <trkpt lat="44.26544" lon="5.75186">
        <ele>620</ele>
        <time>2019-06-17T07:40:08Z</time>
      </trkpt>
      <trkpt lat="44.2654" lon="5.7518">
        <ele>620</ele>
        <time>2019-06-17T07:40:09Z</time>
      </trkpt>
      <trkpt lat="44.26537" lon="5.75174">
        <ele>620</ele>
        <time>2019-06-17T07:40:10Z</time>
      </trkpt>
      <trkpt lat="44.26533" lon="5.75168">
        <ele>620</ele>
        <time>2019-06-17T07:40:11Z</time>
      </trkpt>
      <trkpt lat="44.2653" lon="5.75162">
        <ele>620</ele>
        <time>2019-06-17T07:40:12Z</time>
      </trkpt>
      <trkpt lat="44.26527" lon="5.75156">
        <ele>620</ele>
        <time>2019-06-17T07:40:13Z</time>
      </trkpt>
      <trkpt lat="44.26523" lon="5.7515">
        <ele>620</ele>
        <time>2019-06-17T07:40:14Z</time>
      </trkpt>
      <trkpt lat="44.26519" lon="5.75144">
        <ele>620</ele>
        <time>2019-06-17T07:40:15Z</time>
      </trkpt>
      <trkpt lat="44.26516" lon="5.75138">
        <ele>620</ele>
        <time>2019-06-17T07:40:16Z</time>
      </trkpt>
      <trkpt lat="44.26512" lon="5.75133">
        <ele>620</ele>
        <time>2019-06-17T07:40:17Z</time>
      </trkpt>
      <trkpt lat="44.26508" lon="5.75127">
        <ele>620</ele>
        <time>2019-06-17T07:40:18Z</time>
      </trkpt>
      <trkpt lat="44.26504" lon="5.75121">
        <ele>620</ele>
        <time>2019-06-17T07:40:19Z</time>
      </trkpt>
      <trkpt lat="44.265" lon="5.75115">
        <ele>620</ele>
        <time>2019-06-17T07:40:20Z</time>
      </trkpt>
      <trkpt lat="44.26496" lon="5.75108">
        <ele>620</ele>
        <time>2019-06-17T07:40:21Z</time>
      </trkpt>
      <trkpt lat="44.26492" lon="5.75102">
        <ele>621</ele>
        <time>2019-06-17T07:40:22Z</time>
      </trkpt>
      <trkpt lat="44.26488" lon="5.75096">
        <ele>621</ele>
        <time>2019-06-17T07:40:23Z</time>
      </trkpt>
      <trkpt lat="44.26484" lon="5.7509">
        <ele>621</ele>
        <time>2019-06-17T07:40:24Z</time>
      </trkpt>
      <trkpt lat="44.2648" lon="5.75083">
        <ele>621</ele>
        <time>2019-06-17T07:40:25Z</time>
      </trkpt>
      <trkpt lat="44.26476" lon="5.75076">
        <ele>621</ele>
        <time>2019-06-17T07:40:26Z</time>
      </trkpt>
      <trkpt lat="44.26472" lon="5.75069">
        <ele>621</ele>
        <time>2019-06-17T07:40:27Z</time>
      </trkpt>
      <trkpt lat="44.26469" lon="5.75062">
        <ele>621</ele>
        <time>2019-06-17T07:40:28Z</time>
      </trkpt>
      <trkpt lat="44.26465" lon="5.75055">
        <ele>621</ele>
        <time>2019-06-17T07:40:29Z</time>
      </trkpt>
      <trkpt lat="44.26461" lon="5.75048">
        <ele>621</ele>
        <time>2019-06-17T07:40:30Z</time>
      </trkpt>
      <trkpt lat="44.26457" lon="5.75041">
        <ele>621</ele>
        <time>2019-06-17T07:40:31Z</time>
      </trkpt>
      <trkpt lat="44.26453" lon="5.75035">
        <ele>621</ele>
        <time>2019-06-17T07:40:32Z</time>
      </trkpt>
      <trkpt lat="44.2645" lon="5.75028">
        <ele>621</ele>
        <time>2019-06-17T07:40:33Z</time>
      </trkpt>
      <trkpt lat="44.26445" lon="5.75021">
        <ele>621</ele>
        <time>2019-06-17T07:40:34Z</time>
      </trkpt>
      <trkpt lat="44.26442" lon="5.75015">
        <ele>621</ele>
        <time>2019-06-17T07:40:35Z</time>
      </trkpt>
      <trkpt lat="44.26438" lon="5.75008">
        <ele>621</ele>
        <time>2019-06-17T07:40:36Z</time>
      </trkpt>
      <trkpt lat="44.26434" lon="5.75001">
        <ele>621</ele>
        <time>2019-06-17T07:40:37Z</time>
      </trkpt>
      <trkpt lat="44.26431" lon="5.74994">
        <ele>621</ele>
        <time>2019-06-17T07:40:38Z</time>
      </trkpt>
      <trkpt lat="44.26427" lon="5.74987">
        <ele>621</ele>
        <time>2019-06-17T07:40:39Z</time>
      </trkpt>
      <trkpt lat="44.26423" lon="5.7498">
        <ele>621</ele>
        <time>2019-06-17T07:40:40Z</time>
      </trkpt>
      <trkpt lat="44.26419" lon="5.74973">
        <ele>621</ele>
        <time>2019-06-17T07:40:41Z</time>
      </trkpt>
      <trkpt lat="44.26416" lon="5.74965">
        <ele>621</ele>
        <time>2019-06-17T07:40:42Z</time>
      </trkpt>
      <trkpt lat="44.26413" lon="5.74958">
        <ele>621</ele>
        <time>2019-06-17T07:40:43Z</time>
      </trkpt>
      <trkpt lat="44.26409" lon="5.74951">
        <ele>621</ele>
        <time>2019-06-17T07:40:44Z</time>
      </trkpt>
      <trkpt lat="44.26406" lon="5.74944">
        <ele>621</ele>
        <time>2019-06-17T07:40:45Z</time>
      </trkpt>
      <trkpt lat="44.26403" lon="5.74937">
        <ele>621</ele>
        <time>2019-06-17T07:40:46Z</time>
      </trkpt>
      <trkpt lat="44.26401" lon="5.7493">
        <ele>621</ele>
        <time>2019-06-17T07:40:47Z</time>
      </trkpt>
      <trkpt lat="44.26399" lon="5.74922">
        <ele>621</ele>
        <time>2019-06-17T07:40:48Z</time>
      </trkpt>
      <trkpt lat="44.26397" lon="5.74916">
        <ele>622</ele>
        <time>2019-06-17T07:40:49Z</time>
      </trkpt>
      <trkpt lat="44.26395" lon="5.74909">
        <ele>622</ele>
        <time>2019-06-17T07:40:50Z</time>
      </trkpt>
      <trkpt lat="44.26394" lon="5.74902">
        <ele>622</ele>
        <time>2019-06-17T07:40:51Z</time>
      </trkpt>
      <trkpt lat="44.26392" lon="5.74895">
        <ele>622</ele>
        <time>2019-06-17T07:40:52Z</time>
      </trkpt>
      <trkpt lat="44.26391" lon="5.74889">
        <ele>622</ele>
        <time>2019-06-17T07:40:53Z</time>
      </trkpt>
      <trkpt lat="44.2639" lon="5.74882">
        <ele>622</ele>
        <time>2019-06-17T07:40:54Z</time>
      </trkpt>
      <trkpt lat="44.26388" lon="5.74875">
        <ele>622</ele>
        <time>2019-06-17T07:40:55Z</time>
      </trkpt>
      <trkpt lat="44.26387" lon="5.74869">
        <ele>622</ele>
        <time>2019-06-17T07:40:56Z</time>
      </trkpt>
      <trkpt lat="44.26385" lon="5.74862">
        <ele>622</ele>
        <time>2019-06-17T07:40:57Z</time>
      </trkpt>
      <trkpt lat="44.26382" lon="5.74856">
        <ele>622</ele>
        <time>2019-06-17T07:40:58Z</time>
      </trkpt>
      <trkpt lat="44.2638" lon="5.7485">
        <ele>623</ele>
        <time>2019-06-17T07:40:59Z</time>
      </trkpt>
      <trkpt lat="44.26377" lon="5.74844">
        <ele>623</ele>
        <time>2019-06-17T07:41:00Z</time>
      </trkpt>
      <trkpt lat="44.26374" lon="5.74838">
        <ele>623</ele>
        <time>2019-06-17T07:41:01Z</time>
      </trkpt>
      <trkpt lat="44.26371" lon="5.74833">
        <ele>624</ele>
        <time>2019-06-17T07:41:02Z</time>
      </trkpt>
      <trkpt lat="44.26368" lon="5.74828">
        <ele>624</ele>
        <time>2019-06-17T07:41:03Z</time>
      </trkpt>
      <trkpt lat="44.26365" lon="5.74823">
        <ele>625</ele>
        <time>2019-06-17T07:41:04Z</time>
      </trkpt>
      <trkpt lat="44.26361" lon="5.74818">
        <ele>625</ele>
        <time>2019-06-17T07:41:05Z</time>
      </trkpt>
      <trkpt lat="44.26358" lon="5.74813">
        <ele>626</ele>
        <time>2019-06-17T07:41:06Z</time>
      </trkpt>
      <trkpt lat="44.26355" lon="5.74808">
        <ele>626</ele>
        <time>2019-06-17T07:41:07Z</time>
      </trkpt>
      <trkpt lat="44.26352" lon="5.74803">
        <ele>627</ele>
        <time>2019-06-17T07:41:08Z</time>
      </trkpt>
      <trkpt lat="44.26349" lon="5.74797">
        <ele>627</ele>
        <time>2019-06-17T07:41:09Z</time>
      </trkpt>
      <trkpt lat="44.26346" lon="5.74792">
        <ele>627</ele>
        <time>2019-06-17T07:41:10Z</time>
      </trkpt>
      <trkpt lat="44.26343" lon="5.74787">
        <ele>628</ele>
        <time>2019-06-17T07:41:11Z</time>
      </trkpt>
      <trkpt lat="44.2634" lon="5.74782">
        <ele>628</ele>
        <time>2019-06-17T07:41:12Z</time>
      </trkpt>
      <trkpt lat="44.26337" lon="5.74776">
        <ele>629</ele>
        <time>2019-06-17T07:41:13Z</time>
      </trkpt>
      <trkpt lat="44.26334" lon="5.7477">
        <ele>629</ele>
        <time>2019-06-17T07:41:14Z</time>
      </trkpt>
      <trkpt lat="44.26332" lon="5.74765">
        <ele>629</ele>
        <time>2019-06-17T07:41:15Z</time>
      </trkpt>
      <trkpt lat="44.26329" lon="5.74759">
        <ele>630</ele>
        <time>2019-06-17T07:41:16Z</time>
      </trkpt>
      <trkpt lat="44.26327" lon="5.74753">
        <ele>630</ele>
        <time>2019-06-17T07:41:17Z</time>
      </trkpt>
      <trkpt lat="44.26325" lon="5.74748">
        <ele>631</ele>
        <time>2019-06-17T07:41:18Z</time>
      </trkpt>
      <trkpt lat="44.26323" lon="5.74742">
        <ele>631</ele>
        <time>2019-06-17T07:41:19Z</time>
      </trkpt>
      <trkpt lat="44.2632" lon="5.74736">
        <ele>631</ele>
        <time>2019-06-17T07:41:20Z</time>
      </trkpt>
      <trkpt lat="44.26318" lon="5.7473">
        <ele>631</ele>
        <time>2019-06-17T07:41:21Z</time>
      </trkpt>
      <trkpt lat="44.26316" lon="5.74725">
        <ele>632</ele>
        <time>2019-06-17T07:41:22Z</time>
      </trkpt>
      <trkpt lat="44.26314" lon="5.74719">
        <ele>632</ele>
        <time>2019-06-17T07:41:23Z</time>
      </trkpt>
      <trkpt lat="44.26311" lon="5.74714">
        <ele>632</ele>
        <time>2019-06-17T07:41:24Z</time>
      </trkpt>
      <trkpt lat="44.26309" lon="5.74709">
        <ele>633</ele>
        <time>2019-06-17T07:41:25Z</time>
      </trkpt>
      <trkpt lat="44.26307" lon="5.74703">
        <ele>633</ele>
        <time>2019-06-17T07:41:26Z</time>
      </trkpt>
      <trkpt lat="44.26305" lon="5.74698">
        <ele>633</ele>
        <time>2019-06-17T07:41:27Z</time>
      </trkpt>
      <trkpt lat="44.26302" lon="5.74693">
        <ele>633</ele>
        <time>2019-06-17T07:41:28Z</time>
      </trkpt>
      <trkpt lat="44.263" lon="5.74688">
        <ele>634</ele>
        <time>2019-06-17T07:41:29Z</time>
      </trkpt>
      <trkpt lat="44.26298" lon="5.74682">
        <ele>634</ele>
        <time>2019-06-17T07:41:30Z</time>
      </trkpt>
      <trkpt lat="44.26296" lon="5.74677">
        <ele>634</ele>
        <time>2019-06-17T07:41:31Z</time>
      </trkpt>
      <trkpt lat="44.26294" lon="5.74672">
        <ele>634</ele>
        <time>2019-06-17T07:41:32Z</time>
      </trkpt>
      <trkpt lat="44.26291" lon="5.74666">
        <ele>635</ele>
        <time>2019-06-17T07:41:33Z</time>
      </trkpt>
      <trkpt lat="44.26289" lon="5.74661">
        <ele>635</ele>
        <time>2019-06-17T07:41:34Z</time>
      </trkpt>
      <trkpt lat="44.26287" lon="5.74655">
        <ele>635</ele>
        <time>2019-06-17T07:41:35Z</time>
      </trkpt>
      <trkpt lat="44.26285" lon="5.74649">
        <ele>636</ele>
        <time>2019-06-17T07:41:36Z</time>
      </trkpt>
      <trkpt lat="44.26283" lon="5.74643">
        <ele>636</ele>
        <time>2019-06-17T07:41:37Z</time>
      </trkpt>
      <trkpt lat="44.26282" lon="5.74637">
        <ele>636</ele>
        <time>2019-06-17T07:41:38Z</time>
      </trkpt>
      <trkpt lat="44.26281" lon="5.74631">
        <ele>636</ele>
        <time>2019-06-17T07:41:39Z</time>
      </trkpt>
      <trkpt lat="44.26281" lon="5.74625">
        <ele>637</ele>
        <time>2019-06-17T07:41:40Z</time>
      </trkpt>
      <trkpt lat="44.26281" lon="5.74619">
        <ele>637</ele>
        <time>2019-06-17T07:41:41Z</time>
      </trkpt>
      <trkpt lat="44.26282" lon="5.74613">
        <ele>637</ele>
        <time>2019-06-17T07:41:42Z</time>
      </trkpt>
      <trkpt lat="44.26283" lon="5.74607">
        <ele>637</ele>
        <time>2019-06-17T07:41:43Z</time>
      </trkpt>
      <trkpt lat="44.26285" lon="5.74601">
        <ele>637</ele>
        <time>2019-06-17T07:41:44Z</time>
      </trkpt>
      <trkpt lat="44.26287" lon="5.74595">
        <ele>637</ele>
        <time>2019-06-17T07:41:45Z</time>
      </trkpt>
      <trkpt lat="44.26289" lon="5.74589">
        <ele>637</ele>
        <time>2019-06-17T07:41:46Z</time>
      </trkpt>
      <trkpt lat="44.26291" lon="5.74583">
        <ele>637</ele>
        <time>2019-06-17T07:41:47Z</time>
      </trkpt>
      <trkpt lat="44.26294" lon="5.74578">
        <ele>637</ele>
        <time>2019-06-17T07:41:48Z</time>
      </trkpt>
      <trkpt lat="44.26296" lon="5.74572">
        <ele>637</ele>
        <time>2019-06-17T07:41:49Z</time>
      </trkpt>
      <trkpt lat="44.26299" lon="5.74566">
        <ele>637</ele>
        <time>2019-06-17T07:41:50Z</time>
      </trkpt>
      <trkpt lat="44.26302" lon="5.7456">
        <ele>637</ele>
        <time>2019-06-17T07:41:51Z</time>
      </trkpt>
      <trkpt lat="44.26305" lon="5.74554">
        <ele>637</ele>
        <time>2019-06-17T07:41:52Z</time>
      </trkpt>
      <trkpt lat="44.26307" lon="5.74548">
        <ele>637</ele>
        <time>2019-06-17T07:41:53Z</time>
      </trkpt>
      <trkpt lat="44.2631" lon="5.74543">
        <ele>637</ele>
        <time>2019-06-17T07:41:54Z</time>
      </trkpt>
      <trkpt lat="44.26313" lon="5.74537">
        <ele>637</ele>
        <time>2019-06-17T07:41:55Z</time>
      </trkpt>
      <trkpt lat="44.26315" lon="5.74531">
        <ele>637</ele>
        <time>2019-06-17T07:41:56Z</time>
      </trkpt>
      <trkpt lat="44.26318" lon="5.74524">
        <ele>637</ele>
        <time>2019-06-17T07:41:57Z</time>
      </trkpt>
      <trkpt lat="44.2632" lon="5.74518">
        <ele>637</ele>
        <time>2019-06-17T07:41:58Z</time>
      </trkpt>
      <trkpt lat="44.26323" lon="5.74512">
        <ele>637</ele>
        <time>2019-06-17T07:41:59Z</time>
      </trkpt>
      <trkpt lat="44.26326" lon="5.74506">
        <ele>637</ele>
        <time>2019-06-17T07:42:00Z</time>
      </trkpt>
      <trkpt lat="44.26329" lon="5.745">
        <ele>637</ele>
        <time>2019-06-17T07:42:01Z</time>
      </trkpt>
      <trkpt lat="44.26332" lon="5.74494">
        <ele>637</ele>
        <time>2019-06-17T07:42:02Z</time>
      </trkpt>
      <trkpt lat="44.26335" lon="5.74488">
        <ele>637</ele>
        <time>2019-06-17T07:42:03Z</time>
      </trkpt>
      <trkpt lat="44.26339" lon="5.74482">
        <ele>637</ele>
        <time>2019-06-17T07:42:04Z</time>
      </trkpt>
      <trkpt lat="44.26342" lon="5.74476">
        <ele>637</ele>
        <time>2019-06-17T07:42:05Z</time>
      </trkpt>
      <trkpt lat="44.26347" lon="5.7447">
        <ele>637</ele>
        <time>2019-06-17T07:42:06Z</time>
      </trkpt>
      <trkpt lat="44.26351" lon="5.74465">
        <ele>637</ele>
        <time>2019-06-17T07:42:07Z</time>
      </trkpt>
      <trkpt lat="44.26355" lon="5.74459">
        <ele>637</ele>
        <time>2019-06-17T07:42:08Z</time>
      </trkpt>
      <trkpt lat="44.26358" lon="5.74453">
        <ele>637</ele>
        <time>2019-06-17T07:42:09Z</time>
      </trkpt>
      <trkpt lat="44.26361" lon="5.74446">
        <ele>637</ele>
        <time>2019-06-17T07:42:10Z</time>
      </trkpt>
      <trkpt lat="44.26364" lon="5.74439">
        <ele>637</ele>
        <time>2019-06-17T07:42:11Z</time>
      </trkpt>
      <trkpt lat="44.26365" lon="5.74433">
        <ele>637</ele>
        <time>2019-06-17T07:42:12Z</time>
      </trkpt>
      <trkpt lat="44.26366" lon="5.74426">
        <ele>637</ele>
        <time>2019-06-17T07:42:13Z</time>
      </trkpt>
      <trkpt lat="44.26366" lon="5.74419">
        <ele>637</ele>
        <time>2019-06-17T07:42:14Z</time>
      </trkpt>
      <trkpt lat="44.26366" lon="5.74412">
        <ele>637</ele>
        <time>2019-06-17T07:42:15Z</time>
      </trkpt>
      <trkpt lat="44.26365" lon="5.74405">
        <ele>637</ele>
        <time>2019-06-17T07:42:16Z</time>
      </trkpt>
      <trkpt lat="44.26364" lon="5.744">
        <ele>637</ele>
        <time>2019-06-17T07:42:17Z</time>
      </trkpt>
      <trkpt lat="44.26362" lon="5.74394">
        <ele>638</ele>
        <time>2019-06-17T07:42:18Z</time>
      </trkpt>
      <trkpt lat="44.26361" lon="5.74388">
        <ele>638</ele>
        <time>2019-06-17T07:42:19Z</time>
      </trkpt>
      <trkpt lat="44.26359" lon="5.74382">
        <ele>639</ele>
        <time>2019-06-17T07:42:20Z</time>
      </trkpt>
      <trkpt lat="44.26358" lon="5.74375">
        <ele>640</ele>
        <time>2019-06-17T07:42:21Z</time>
      </trkpt>
      <trkpt lat="44.26356" lon="5.74369">
        <ele>641</ele>
        <time>2019-06-17T07:42:22Z</time>
      </trkpt>
      <trkpt lat="44.26355" lon="5.74363">
        <ele>641</ele>
        <time>2019-06-17T07:42:23Z</time>
      </trkpt>
      <trkpt lat="44.26353" lon="5.74357">
        <ele>642</ele>
        <time>2019-06-17T07:42:24Z</time>
      </trkpt>
      <trkpt lat="44.26351" lon="5.7435">
        <ele>642</ele>
        <time>2019-06-17T07:42:25Z</time>
      </trkpt>
      <trkpt lat="44.2635" lon="5.74344">
        <ele>642</ele>
        <time>2019-06-17T07:42:26Z</time>
      </trkpt>
      <trkpt lat="44.26348" lon="5.74337">
        <ele>643</ele>
        <time>2019-06-17T07:42:27Z</time>
      </trkpt>
      <trkpt lat="44.26347" lon="5.74331">
        <ele>644</ele>
        <time>2019-06-17T07:42:28Z</time>
      </trkpt>
      <trkpt lat="44.26347" lon="5.74325">
        <ele>644</ele>
        <time>2019-06-17T07:42:29Z</time>
      </trkpt>
      <trkpt lat="44.26346" lon="5.74319">
        <ele>644</ele>
        <time>2019-06-17T07:42:30Z</time>
      </trkpt>
      <trkpt lat="44.26345" lon="5.74312">
        <ele>645</ele>
        <time>2019-06-17T07:42:31Z</time>
      </trkpt>
      <trkpt lat="44.26345" lon="5.74306">
        <ele>645</ele>
        <time>2019-06-17T07:42:32Z</time>
      </trkpt>
      <trkpt lat="44.26345" lon="5.743">
        <ele>645</ele>
        <time>2019-06-17T07:42:33Z</time>
      </trkpt>
      <trkpt lat="44.26344" lon="5.74293">
        <ele>645</ele>
        <time>2019-06-17T07:42:34Z</time>
      </trkpt>
      <trkpt lat="44.26344" lon="5.74287">
        <ele>645</ele>
        <time>2019-06-17T07:42:35Z</time>
      </trkpt>
      <trkpt lat="44.26343" lon="5.7428">
        <ele>645</ele>
        <time>2019-06-17T07:42:36Z</time>
      </trkpt>
      <trkpt lat="44.26342" lon="5.74273">
        <ele>645</ele>
        <time>2019-06-17T07:42:37Z</time>
      </trkpt>
      <trkpt lat="44.26342" lon="5.74266">
        <ele>645</ele>
        <time>2019-06-17T07:42:38Z</time>
      </trkpt>
      <trkpt lat="44.26342" lon="5.74259">
        <ele>645</ele>
        <time>2019-06-17T07:42:39Z</time>
      </trkpt>
      <trkpt lat="44.26341" lon="5.74252">
        <ele>645</ele>
        <time>2019-06-17T07:42:40Z</time>
      </trkpt>
      <trkpt lat="44.26341" lon="5.74244">
        <ele>645</ele>
        <time>2019-06-17T07:42:41Z</time>
      </trkpt>
      <trkpt lat="44.2634" lon="5.74237">
        <ele>645</ele>
        <time>2019-06-17T07:42:42Z</time>
      </trkpt>
      <trkpt lat="44.2634" lon="5.7423">
        <ele>645</ele>
        <time>2019-06-17T07:42:43Z</time>
      </trkpt>
      <trkpt lat="44.26339" lon="5.74223">
        <ele>645</ele>
        <time>2019-06-17T07:42:44Z</time>
      </trkpt>
      <trkpt lat="44.26339" lon="5.74215">
        <ele>646</ele>
        <time>2019-06-17T07:42:45Z</time>
      </trkpt>
      <trkpt lat="44.26339" lon="5.74207">
        <ele>646</ele>
        <time>2019-06-17T07:42:46Z</time>
      </trkpt>
      <trkpt lat="44.26339" lon="5.742">
        <ele>646</ele>
        <time>2019-06-17T07:42:47Z</time>
      </trkpt>
      <trkpt lat="44.26338" lon="5.74192">
        <ele>646</ele>
        <time>2019-06-17T07:42:48Z</time>
      </trkpt>
      <trkpt lat="44.26338" lon="5.74184">
        <ele>646</ele>
        <time>2019-06-17T07:42:49Z</time>
      </trkpt>
      <trkpt lat="44.26337" lon="5.74176">
        <ele>646</ele>
        <time>2019-06-17T07:42:50Z</time>
      </trkpt>
      <trkpt lat="44.26337" lon="5.74168">
        <ele>646</ele>
        <time>2019-06-17T07:42:51Z</time>
      </trkpt>
      <trkpt lat="44.26337" lon="5.7416">
        <ele>646</ele>
        <time>2019-06-17T07:42:52Z</time>
      </trkpt>
      <trkpt lat="44.26336" lon="5.74153">
        <ele>646</ele>
        <time>2019-06-17T07:42:53Z</time>
      </trkpt>
      <trkpt lat="44.26336" lon="5.74145">
        <ele>646</ele>
        <time>2019-06-17T07:42:54Z</time>
      </trkpt>
      <trkpt lat="44.26335" lon="5.74137">
        <ele>646</ele>
        <time>2019-06-17T07:42:55Z</time>
      </trkpt>
      <trkpt lat="44.26335" lon="5.74129">
        <ele>646</ele>
        <time>2019-06-17T07:42:56Z</time>
      </trkpt>
      <trkpt lat="44.26335" lon="5.74122">
        <ele>646</ele>
        <time>2019-06-17T07:42:57Z</time>
      </trkpt>
      <trkpt lat="44.26334" lon="5.74114">
        <ele>646</ele>
        <time>2019-06-17T07:42:58Z</time>
      </trkpt>
      <trkpt lat="44.26333" lon="5.74106">
        <ele>646</ele>
        <time>2019-06-17T07:42:59Z</time>
      </trkpt>
      <trkpt lat="44.26333" lon="5.74099">
        <ele>646</ele>
        <time>2019-06-17T07:43:00Z</time>
      </trkpt>
      <trkpt lat="44.26333" lon="5.74091">
        <ele>646</ele>
        <time>2019-06-17T07:43:01Z</time>
      </trkpt>
      <trkpt lat="44.26332" lon="5.74084">
        <ele>646</ele>
        <time>2019-06-17T07:43:02Z</time>
      </trkpt>
      <trkpt lat="44.26332" lon="5.74077">
        <ele>646</ele>
        <time>2019-06-17T07:43:03Z</time>
      </trkpt>
      <trkpt lat="44.26332" lon="5.74069">
        <ele>646</ele>
        <time>2019-06-17T07:43:04Z</time>
      </trkpt>
      <trkpt lat="44.26331" lon="5.74062">
        <ele>646</ele>
        <time>2019-06-17T07:43:05Z</time>
      </trkpt>
      <trkpt lat="44.26331" lon="5.74054">
        <ele>646</ele>
        <time>2019-06-17T07:43:06Z</time>
      </trkpt>
      <trkpt lat="44.26331" lon="5.74047">
        <ele>646</ele>
        <time>2019-06-17T07:43:07Z</time>
      </trkpt>
      <trkpt lat="44.2633" lon="5.74039">
        <ele>646</ele>
        <time>2019-06-17T07:43:08Z</time>
      </trkpt>
      <trkpt lat="44.2633" lon="5.74032">
        <ele>646</ele>
        <time>2019-06-17T07:43:09Z</time>
      </trkpt>
      <trkpt lat="44.26329" lon="5.74025">
        <ele>646</ele>
        <time>2019-06-17T07:43:10Z</time>
      </trkpt>
      <trkpt lat="44.26329" lon="5.74017">
        <ele>646</ele>
        <time>2019-06-17T07:43:11Z</time>
      </trkpt>
      <trkpt lat="44.26329" lon="5.7401">
        <ele>646</ele>
        <time>2019-06-17T07:43:12Z</time>
      </trkpt>
      <trkpt lat="44.26328" lon="5.74003">
        <ele>647</ele>
        <time>2019-06-17T07:43:13Z</time>
      </trkpt>
      <trkpt lat="44.26328" lon="5.73996">
        <ele>647</ele>
        <time>2019-06-17T07:43:14Z</time>
      </trkpt>
      <trkpt lat="44.26327" lon="5.73988">
        <ele>647</ele>
        <time>2019-06-17T07:43:15Z</time>
      </trkpt>
      <trkpt lat="44.26327" lon="5.73981">
        <ele>647</ele>
        <time>2019-06-17T07:43:16Z</time>
      </trkpt>
      <trkpt lat="44.26326" lon="5.73974">
        <ele>647</ele>
        <time>2019-06-17T07:43:17Z</time>
      </trkpt>
      <trkpt lat="44.26326" lon="5.73966">
        <ele>647</ele>
        <time>2019-06-17T07:43:18Z</time>
      </trkpt>
      <trkpt lat="44.26326" lon="5.73958">
        <ele>647</ele>
        <time>2019-06-17T07:43:19Z</time>
      </trkpt>
      <trkpt lat="44.26325" lon="5.7395">
        <ele>647</ele>
        <time>2019-06-17T07:43:20Z</time>
      </trkpt>
      <trkpt lat="44.26325" lon="5.73942">
        <ele>647</ele>
        <time>2019-06-17T07:43:21Z</time>
      </trkpt>
      <trkpt lat="44.26324" lon="5.73934">
        <ele>647</ele>
        <time>2019-06-17T07:43:22Z</time>
      </trkpt>
      <trkpt lat="44.26324" lon="5.73926">
        <ele>647</ele>
        <time>2019-06-17T07:43:23Z</time>
      </trkpt>
      <trkpt lat="44.26324" lon="5.73917">
        <ele>647</ele>
        <time>2019-06-17T07:43:24Z</time>
      </trkpt>
      <trkpt lat="44.26323" lon="5.73909">
        <ele>647</ele>
        <time>2019-06-17T07:43:25Z</time>
      </trkpt>
      <trkpt lat="44.26323" lon="5.739">
        <ele>647</ele>
        <time>2019-06-17T07:43:26Z</time>
      </trkpt>
      <trkpt lat="44.26323" lon="5.73891">
        <ele>647</ele>
        <time>2019-06-17T07:43:27Z</time>
      </trkpt>
      <trkpt lat="44.26322" lon="5.73882">
        <ele>647</ele>
        <time>2019-06-17T07:43:28Z</time>
      </trkpt>
      <trkpt lat="44.26322" lon="5.73873">
        <ele>647</ele>
        <time>2019-06-17T07:43:29Z</time>
      </trkpt>
      <trkpt lat="44.26321" lon="5.73863">
        <ele>647</ele>
        <time>2019-06-17T07:43:30Z</time>
      </trkpt>
      <trkpt lat="44.2632" lon="5.73854">
        <ele>647</ele>
        <time>2019-06-17T07:43:31Z</time>
      </trkpt>
      <trkpt lat="44.2632" lon="5.73844">
        <ele>647</ele>
        <time>2019-06-17T07:43:32Z</time>
      </trkpt>
      <trkpt lat="44.26319" lon="5.73835">
        <ele>647</ele>
        <time>2019-06-17T07:43:33Z</time>
      </trkpt>
      <trkpt lat="44.26318" lon="5.73825">
        <ele>647</ele>
        <time>2019-06-17T07:43:34Z</time>
      </trkpt>
      <trkpt lat="44.26318" lon="5.73815">
        <ele>647</ele>
        <time>2019-06-17T07:43:35Z</time>
      </trkpt>
      <trkpt lat="44.26317" lon="5.73806">
        <ele>647</ele>
        <time>2019-06-17T07:43:36Z</time>
      </trkpt>
      <trkpt lat="44.26316" lon="5.73796">
        <ele>647</ele>
        <time>2019-06-17T07:43:37Z</time>
      </trkpt>
      <trkpt lat="44.26314" lon="5.73787">
        <ele>647</ele>
        <time>2019-06-17T07:43:38Z</time>
      </trkpt>
      <trkpt lat="44.26313" lon="5.73777">
        <ele>647</ele>
        <time>2019-06-17T07:43:39Z</time>
      </trkpt>
      <trkpt lat="44.26312" lon="5.73768">
        <ele>647</ele>
        <time>2019-06-17T07:43:40Z</time>
      </trkpt>
      <trkpt lat="44.2631" lon="5.73759">
        <ele>647</ele>
        <time>2019-06-17T07:43:41Z</time>
      </trkpt>
      <trkpt lat="44.26309" lon="5.73749">
        <ele>647</ele>
        <time>2019-06-17T07:43:42Z</time>
      </trkpt>
      <trkpt lat="44.26308" lon="5.7374">
        <ele>647</ele>
        <time>2019-06-17T07:43:43Z</time>
      </trkpt>
      <trkpt lat="44.26307" lon="5.7373">
        <ele>647</ele>
        <time>2019-06-17T07:43:44Z</time>
      </trkpt>
      <trkpt lat="44.26305" lon="5.73721">
        <ele>647</ele>
        <time>2019-06-17T07:43:45Z</time>
      </trkpt>
      <trkpt lat="44.26304" lon="5.73712">
        <ele>647</ele>
        <time>2019-06-17T07:43:46Z</time>
      </trkpt>
      <trkpt lat="44.26303" lon="5.73702">
        <ele>647</ele>
        <time>2019-06-17T07:43:47Z</time>
      </trkpt>
      <trkpt lat="44.26301" lon="5.73693">
        <ele>646</ele>
        <time>2019-06-17T07:43:48Z</time>
      </trkpt>
      <trkpt lat="44.263" lon="5.73684">
        <ele>646</ele>
        <time>2019-06-17T07:43:49Z</time>
      </trkpt>
      <trkpt lat="44.26298" lon="5.73675">
        <ele>646</ele>
        <time>2019-06-17T07:43:50Z</time>
      </trkpt>
      <trkpt lat="44.26297" lon="5.73667">
        <ele>646</ele>
        <time>2019-06-17T07:43:51Z</time>
      </trkpt>
      <trkpt lat="44.26295" lon="5.73658">
        <ele>646</ele>
        <time>2019-06-17T07:43:52Z</time>
      </trkpt>
      <trkpt lat="44.26294" lon="5.7365">
        <ele>646</ele>
        <time>2019-06-17T07:43:53Z</time>
      </trkpt>
      <trkpt lat="44.26293" lon="5.73641">
        <ele>646</ele>
        <time>2019-06-17T07:43:54Z</time>
      </trkpt>
      <trkpt lat="44.26292" lon="5.73633">
        <ele>646</ele>
        <time>2019-06-17T07:43:55Z</time>
      </trkpt>
      <trkpt lat="44.2629" lon="5.73625">
        <ele>646</ele>
        <time>2019-06-17T07:43:56Z</time>
      </trkpt>
      <trkpt lat="44.26289" lon="5.73616">
        <ele>646</ele>
        <time>2019-06-17T07:43:57Z</time>
      </trkpt>
      <trkpt lat="44.26288" lon="5.73608">
        <ele>646</ele>
        <time>2019-06-17T07:43:58Z</time>
      </trkpt>
      <trkpt lat="44.26287" lon="5.736">
        <ele>646</ele>
        <time>2019-06-17T07:43:59Z</time>
      </trkpt>
      <trkpt lat="44.26286" lon="5.73591">
        <ele>646</ele>
        <time>2019-06-17T07:44:00Z</time>
      </trkpt>
      <trkpt lat="44.26284" lon="5.73583">
        <ele>646</ele>
        <time>2019-06-17T07:44:01Z</time>
      </trkpt>
      <trkpt lat="44.26283" lon="5.73574">
        <ele>646</ele>
        <time>2019-06-17T07:44:02Z</time>
      </trkpt>
      <trkpt lat="44.26282" lon="5.73565">
        <ele>646</ele>
        <time>2019-06-17T07:44:03Z</time>
      </trkpt>
      <trkpt lat="44.26281" lon="5.73557">
        <ele>646</ele>
        <time>2019-06-17T07:44:04Z</time>
      </trkpt>
      <trkpt lat="44.2628" lon="5.73548">
        <ele>646</ele>
        <time>2019-06-17T07:44:05Z</time>
      </trkpt>
      <trkpt lat="44.26279" lon="5.73539">
        <ele>646</ele>
        <time>2019-06-17T07:44:06Z</time>
      </trkpt>
      <trkpt lat="44.26278" lon="5.73531">
        <ele>646</ele>
        <time>2019-06-17T07:44:07Z</time>
      </trkpt>
      <trkpt lat="44.26277" lon="5.73523">
        <ele>646</ele>
        <time>2019-06-17T07:44:08Z</time>
      </trkpt>
      <trkpt lat="44.26276" lon="5.73514">
        <ele>646</ele>
        <time>2019-06-17T07:44:09Z</time>
      </trkpt>
      <trkpt lat="44.26274" lon="5.73506">
        <ele>646</ele>
        <time>2019-06-17T07:44:10Z</time>
      </trkpt>
      <trkpt lat="44.26273" lon="5.73497">
        <ele>646</ele>
        <time>2019-06-17T07:44:11Z</time>
      </trkpt>
      <trkpt lat="44.26271" lon="5.7349">
        <ele>646</ele>
        <time>2019-06-17T07:44:12Z</time>
      </trkpt>
      <trkpt lat="44.2627" lon="5.73482">
        <ele>646</ele>
        <time>2019-06-17T07:44:13Z</time>
      </trkpt>
      <trkpt lat="44.2627" lon="5.73475">
        <ele>646</ele>
        <time>2019-06-17T07:44:14Z</time>
      </trkpt>
      <trkpt lat="44.26269" lon="5.73468">
        <ele>646</ele>
        <time>2019-06-17T07:44:15Z</time>
      </trkpt>
      <trkpt lat="44.26268" lon="5.7346">
        <ele>646</ele>
        <time>2019-06-17T07:44:16Z</time>
      </trkpt>
      <trkpt lat="44.26266" lon="5.73453">
        <ele>646</ele>
        <time>2019-06-17T07:44:17Z</time>
      </trkpt>
      <trkpt lat="44.26265" lon="5.73446">
        <ele>646</ele>
        <time>2019-06-17T07:44:18Z</time>
      </trkpt>
      <trkpt lat="44.26263" lon="5.73438">
        <ele>646</ele>
        <time>2019-06-17T07:44:19Z</time>
      </trkpt>
      <trkpt lat="44.26261" lon="5.7343">
        <ele>646</ele>
        <time>2019-06-17T07:44:20Z</time>
      </trkpt>
      <trkpt lat="44.2626" lon="5.73423">
        <ele>646</ele>
        <time>2019-06-17T07:44:21Z</time>
      </trkpt>
      <trkpt lat="44.26258" lon="5.73416">
        <ele>646</ele>
        <time>2019-06-17T07:44:22Z</time>
      </trkpt>
      <trkpt lat="44.26257" lon="5.7341">
        <ele>646</ele>
        <time>2019-06-17T07:44:23Z</time>
      </trkpt>
      <trkpt lat="44.26255" lon="5.73403">
        <ele>646</ele>
        <time>2019-06-17T07:44:24Z</time>
      </trkpt>
      <trkpt lat="44.26253" lon="5.73396">
        <ele>646</ele>
        <time>2019-06-17T07:44:25Z</time>
      </trkpt>
      <trkpt lat="44.26251" lon="5.7339">
        <ele>646</ele>
        <time>2019-06-17T07:44:26Z</time>
      </trkpt>
      <trkpt lat="44.26249" lon="5.73383">
        <ele>646</ele>
        <time>2019-06-17T07:44:27Z</time>
      </trkpt>
      <trkpt lat="44.26247" lon="5.73377">
        <ele>646</ele>
        <time>2019-06-17T07:44:28Z</time>
      </trkpt>
      <trkpt lat="44.26245" lon="5.73371">
        <ele>646</ele>
        <time>2019-06-17T07:44:29Z</time>
      </trkpt>
      <trkpt lat="44.26243" lon="5.73364">
        <ele>646</ele>
        <time>2019-06-17T07:44:30Z</time>
      </trkpt>
      <trkpt lat="44.26241" lon="5.73358">
        <ele>646</ele>
        <time>2019-06-17T07:44:31Z</time>
      </trkpt>
      <trkpt lat="44.26239" lon="5.73352">
        <ele>646</ele>
        <time>2019-06-17T07:44:32Z</time>
      </trkpt>
      <trkpt lat="44.26236" lon="5.73346">
        <ele>646</ele>
        <time>2019-06-17T07:44:33Z</time>
      </trkpt>
      <trkpt lat="44.26234" lon="5.73339">
        <ele>646</ele>
        <time>2019-06-17T07:44:34Z</time>
      </trkpt>
      <trkpt lat="44.26232" lon="5.73333">
        <ele>646</ele>
        <time>2019-06-17T07:44:35Z</time>
      </trkpt>
      <trkpt lat="44.2623" lon="5.73326">
        <ele>646</ele>
        <time>2019-06-17T07:44:36Z</time>
      </trkpt>
      <trkpt lat="44.26227" lon="5.73318">
        <ele>646</ele>
        <time>2019-06-17T07:44:37Z</time>
      </trkpt>
      <trkpt lat="44.26225" lon="5.73312">
        <ele>646</ele>
        <time>2019-06-17T07:44:38Z</time>
      </trkpt>
      <trkpt lat="44.26223" lon="5.73305">
        <ele>646</ele>
        <time>2019-06-17T07:44:39Z</time>
      </trkpt>
      <trkpt lat="44.26221" lon="5.73298">
        <ele>646</ele>
        <time>2019-06-17T07:44:40Z</time>
      </trkpt>
      <trkpt lat="44.26218" lon="5.73291">
        <ele>646</ele>
        <time>2019-06-17T07:44:41Z</time>
      </trkpt>
      <trkpt lat="44.26216" lon="5.73284">
        <ele>646</ele>
        <time>2019-06-17T07:44:42Z</time>
      </trkpt>
      <trkpt lat="44.26214" lon="5.73277">
        <ele>646</ele>
        <time>2019-06-17T07:44:43Z</time>
      </trkpt>
      <trkpt lat="44.26211" lon="5.73271">
        <ele>646</ele>
        <time>2019-06-17T07:44:44Z</time>
      </trkpt>
      <trkpt lat="44.26209" lon="5.73264">
        <ele>646</ele>
        <time>2019-06-17T07:44:45Z</time>
      </trkpt>
      <trkpt lat="44.26207" lon="5.73257">
        <ele>646</ele>
        <time>2019-06-17T07:44:46Z</time>
      </trkpt>
      <trkpt lat="44.26205" lon="5.7325">
        <ele>646</ele>
        <time>2019-06-17T07:44:47Z</time>
      </trkpt>
      <trkpt lat="44.26202" lon="5.73243">
        <ele>646</ele>
        <time>2019-06-17T07:44:48Z</time>
      </trkpt>
      <trkpt lat="44.26199" lon="5.73236">
        <ele>646</ele>
        <time>2019-06-17T07:44:49Z</time>
      </trkpt>
      <trkpt lat="44.26196" lon="5.73229">
        <ele>646</ele>
        <time>2019-06-17T07:44:50Z</time>
      </trkpt>
      <trkpt lat="44.26193" lon="5.73222">
        <ele>646</ele>
        <time>2019-06-17T07:44:51Z</time>
      </trkpt>
      <trkpt lat="44.2619" lon="5.73214">
        <ele>646</ele>
        <time>2019-06-17T07:44:52Z</time>
      </trkpt>
      <trkpt lat="44.26188" lon="5.73207">
        <ele>646</ele>
        <time>2019-06-17T07:44:53Z</time>
      </trkpt>
      <trkpt lat="44.26185" lon="5.732">
        <ele>647</ele>
        <time>2019-06-17T07:44:54Z</time>
      </trkpt>
      <trkpt lat="44.26184" lon="5.73193">
        <ele>648</ele>
        <time>2019-06-17T07:44:55Z</time>
      </trkpt>
      <trkpt lat="44.26181" lon="5.73185">
        <ele>649</ele>
        <time>2019-06-17T07:44:56Z</time>
      </trkpt>
      <trkpt lat="44.26179" lon="5.73178">
        <ele>649</ele>
        <time>2019-06-17T07:44:57Z</time>
      </trkpt>
      <trkpt lat="44.26176" lon="5.73171">
        <ele>650</ele>
        <time>2019-06-17T07:44:58Z</time>
      </trkpt>
      <trkpt lat="44.26174" lon="5.73164">
        <ele>651</ele>
        <time>2019-06-17T07:44:59Z</time>
      </trkpt>
      <trkpt lat="44.26171" lon="5.73156">
        <ele>652</ele>
        <time>2019-06-17T07:45:00Z</time>
      </trkpt>
      <trkpt lat="44.26169" lon="5.73148">
        <ele>652</ele>
        <time>2019-06-17T07:45:01Z</time>
      </trkpt>
      <trkpt lat="44.26167" lon="5.73139">
        <ele>652</ele>
        <time>2019-06-17T07:45:02Z</time>
      </trkpt>
      <trkpt lat="44.26165" lon="5.73132">
        <ele>653</ele>
        <time>2019-06-17T07:45:03Z</time>
      </trkpt>
      <trkpt lat="44.26162" lon="5.73124">
        <ele>653</ele>
        <time>2019-06-17T07:45:04Z</time>
      </trkpt>
      <trkpt lat="44.2616" lon="5.73116">
        <ele>653</ele>
        <time>2019-06-17T07:45:05Z</time>
      </trkpt>
      <trkpt lat="44.26159" lon="5.73108">
        <ele>653</ele>
        <time>2019-06-17T07:45:06Z</time>
      </trkpt>
      <trkpt lat="44.26157" lon="5.731">
        <ele>653</ele>
        <time>2019-06-17T07:45:07Z</time>
      </trkpt>
      <trkpt lat="44.26156" lon="5.73092">
        <ele>653</ele>
        <time>2019-06-17T07:45:08Z</time>
      </trkpt>
      <trkpt lat="44.26155" lon="5.73084">
        <ele>654</ele>
        <time>2019-06-17T07:45:09Z</time>
      </trkpt>
      <trkpt lat="44.26155" lon="5.73076">
        <ele>654</ele>
        <time>2019-06-17T07:45:10Z</time>
      </trkpt>
      <trkpt lat="44.26154" lon="5.73069">
        <ele>654</ele>
        <time>2019-06-17T07:45:11Z</time>
      </trkpt>
      <trkpt lat="44.26155" lon="5.73061">
        <ele>654</ele>
        <time>2019-06-17T07:45:12Z</time>
      </trkpt>
      <trkpt lat="44.26155" lon="5.73054">
        <ele>654</ele>
        <time>2019-06-17T07:45:13Z</time>
      </trkpt>
      <trkpt lat="44.26155" lon="5.73047">
        <ele>654</ele>
        <time>2019-06-17T07:45:14Z</time>
      </trkpt>
      <trkpt lat="44.26155" lon="5.7304">
        <ele>654</ele>
        <time>2019-06-17T07:45:15Z</time>
      </trkpt>
      <trkpt lat="44.26155" lon="5.73034">
        <ele>654</ele>
        <time>2019-06-17T07:45:16Z</time>
      </trkpt>
      <trkpt lat="44.26155" lon="5.73028">
        <ele>654</ele>
        <time>2019-06-17T07:45:17Z</time>
      </trkpt>
      <trkpt lat="44.26155" lon="5.73021">
        <ele>654</ele>
        <time>2019-06-17T07:45:18Z</time>
      </trkpt>
      <trkpt lat="44.26155" lon="5.73015">
        <ele>654</ele>
        <time>2019-06-17T07:45:19Z</time>
      </trkpt>
      <trkpt lat="44.26155" lon="5.73008">
        <ele>654</ele>
        <time>2019-06-17T07:45:20Z</time>
      </trkpt>
      <trkpt lat="44.26156" lon="5.73002">
        <ele>654</ele>
        <time>2019-06-17T07:45:21Z</time>
      </trkpt>
      <trkpt lat="44.26156" lon="5.72996">
        <ele>654</ele>
        <time>2019-06-17T07:45:22Z</time>
      </trkpt>
      <trkpt lat="44.26156" lon="5.72989">
        <ele>654</ele>
        <time>2019-06-17T07:45:23Z</time>
      </trkpt>
      <trkpt lat="44.26156" lon="5.72982">
        <ele>654</ele>
        <time>2019-06-17T07:45:24Z</time>
      </trkpt>
      <trkpt lat="44.26157" lon="5.72976">
        <ele>654</ele>
        <time>2019-06-17T07:45:25Z</time>
      </trkpt>
      <trkpt lat="44.26157" lon="5.72969">
        <ele>654</ele>
        <time>2019-06-17T07:45:26Z</time>
      </trkpt>
      <trkpt lat="44.26157" lon="5.72963">
        <ele>655</ele>
        <time>2019-06-17T07:45:27Z</time>
      </trkpt>
      <trkpt lat="44.26157" lon="5.72957">
        <ele>655</ele>
        <time>2019-06-17T07:45:28Z</time>
      </trkpt>
      <trkpt lat="44.26157" lon="5.7295">
        <ele>655</ele>
        <time>2019-06-17T07:45:29Z</time>
      </trkpt>
      <trkpt lat="44.26157" lon="5.72944">
        <ele>655</ele>
        <time>2019-06-17T07:45:30Z</time>
      </trkpt>
      <trkpt lat="44.26157" lon="5.72937">
        <ele>656</ele>
        <time>2019-06-17T07:45:31Z</time>
      </trkpt>
      <trkpt lat="44.26157" lon="5.72931">
        <ele>656</ele>
        <time>2019-06-17T07:45:32Z</time>
      </trkpt>
      <trkpt lat="44.26158" lon="5.72925">
        <ele>656</ele>
        <time>2019-06-17T07:45:33Z</time>
      </trkpt>
      <trkpt lat="44.26158" lon="5.72919">
        <ele>656</ele>
        <time>2019-06-17T07:45:34Z</time>
      </trkpt>
      <trkpt lat="44.26159" lon="5.72912">
        <ele>656</ele>
        <time>2019-06-17T07:45:35Z</time>
      </trkpt>
      <trkpt lat="44.26159" lon="5.72906">
        <ele>656</ele>
        <time>2019-06-17T07:45:36Z</time>
      </trkpt>
      <trkpt lat="44.2616" lon="5.729">
        <ele>656</ele>
        <time>2019-06-17T07:45:37Z</time>
      </trkpt>
      <trkpt lat="44.2616" lon="5.72894">
        <ele>656</ele>
        <time>2019-06-17T07:45:38Z</time>
      </trkpt>
      <trkpt lat="44.2616" lon="5.72888">
        <ele>656</ele>
        <time>2019-06-17T07:45:39Z</time>
      </trkpt>
      <trkpt lat="44.2616" lon="5.72882">
        <ele>656</ele>
        <time>2019-06-17T07:45:40Z</time>
      </trkpt>
      <trkpt lat="44.2616" lon="5.72875">
        <ele>656</ele>
        <time>2019-06-17T07:45:41Z</time>
      </trkpt>
      <trkpt lat="44.26161" lon="5.72869">
        <ele>657</ele>
        <time>2019-06-17T07:45:42Z</time>
      </trkpt>
      <trkpt lat="44.26161" lon="5.72863">
        <ele>657</ele>
        <time>2019-06-17T07:45:43Z</time>
      </trkpt>
      <trkpt lat="44.26161" lon="5.72857">
        <ele>657</ele>
        <time>2019-06-17T07:45:44Z</time>
      </trkpt>
      <trkpt lat="44.26161" lon="5.72851">
        <ele>657</ele>
        <time>2019-06-17T07:45:45Z</time>
      </trkpt>
      <trkpt lat="44.26161" lon="5.72845">
        <ele>658</ele>
        <time>2019-06-17T07:45:46Z</time>
      </trkpt>
      <trkpt lat="44.26161" lon="5.72839">
        <ele>658</ele>
        <time>2019-06-17T07:45:47Z</time>
      </trkpt>
      <trkpt lat="44.26161" lon="5.72833">
        <ele>659</ele>
        <time>2019-06-17T07:45:48Z</time>
      </trkpt>
      <trkpt lat="44.26161" lon="5.72827">
        <ele>659</ele>
        <time>2019-06-17T07:45:49Z</time>
      </trkpt>
      <trkpt lat="44.26161" lon="5.72821">
        <ele>659</ele>
        <time>2019-06-17T07:45:50Z</time>
      </trkpt>
      <trkpt lat="44.26162" lon="5.72815">
        <ele>660</ele>
        <time>2019-06-17T07:45:51Z</time>
      </trkpt>
      <trkpt lat="44.26162" lon="5.72809">
        <ele>660</ele>
        <time>2019-06-17T07:45:52Z</time>
      </trkpt>
      <trkpt lat="44.26161" lon="5.72802">
        <ele>660</ele>
        <time>2019-06-17T07:45:53Z</time>
      </trkpt>
      <trkpt lat="44.26161" lon="5.72796">
        <ele>660</ele>
        <time>2019-06-17T07:45:54Z</time>
      </trkpt>
      <trkpt lat="44.26161" lon="5.7279">
        <ele>660</ele>
        <time>2019-06-17T07:45:55Z</time>
      </trkpt>
      <trkpt lat="44.26161" lon="5.72784">
        <ele>660</ele>
        <time>2019-06-17T07:45:56Z</time>
      </trkpt>
      <trkpt lat="44.2616" lon="5.72777">
        <ele>661</ele>
        <time>2019-06-17T07:45:57Z</time>
      </trkpt>
      <trkpt lat="44.2616" lon="5.72771">
        <ele>661</ele>
        <time>2019-06-17T07:45:58Z</time>
      </trkpt>
      <trkpt lat="44.26159" lon="5.72765">
        <ele>661</ele>
        <time>2019-06-17T07:45:59Z</time>
      </trkpt>
      <trkpt lat="44.26158" lon="5.72758">
        <ele>661</ele>
        <time>2019-06-17T07:46:00Z</time>
      </trkpt>
      <trkpt lat="44.26157" lon="5.72752">
        <ele>661</ele>
        <time>2019-06-17T07:46:01Z</time>
      </trkpt>
      <trkpt lat="44.26156" lon="5.72746">
        <ele>661</ele>
        <time>2019-06-17T07:46:02Z</time>
      </trkpt>
      <trkpt lat="44.26155" lon="5.7274">
        <ele>661</ele>
        <time>2019-06-17T07:46:03Z</time>
      </trkpt>
      <trkpt lat="44.26154" lon="5.72734">
        <ele>662</ele>
        <time>2019-06-17T07:46:04Z</time>
      </trkpt>
      <trkpt lat="44.26152" lon="5.72727">
        <ele>662</ele>
        <time>2019-06-17T07:46:05Z</time>
      </trkpt>
      <trkpt lat="44.2615" lon="5.72721">
        <ele>662</ele>
        <time>2019-06-17T07:46:06Z</time>
      </trkpt>
      <trkpt lat="44.26149" lon="5.72715">
        <ele>662</ele>
        <time>2019-06-17T07:46:07Z</time>
      </trkpt>
      <trkpt lat="44.26147" lon="5.72709">
        <ele>663</ele>
        <time>2019-06-17T07:46:08Z</time>
      </trkpt>
      <trkpt lat="44.26146" lon="5.72703">
        <ele>663</ele>
        <time>2019-06-17T07:46:09Z</time>
      </trkpt>
      <trkpt lat="44.26144" lon="5.72697">
        <ele>663</ele>
        <time>2019-06-17T07:46:10Z</time>
      </trkpt>
      <trkpt lat="44.26143" lon="5.72691">
        <ele>663</ele>
        <time>2019-06-17T07:46:11Z</time>
      </trkpt>
      <trkpt lat="44.26141" lon="5.72685">
        <ele>664</ele>
        <time>2019-06-17T07:46:12Z</time>
      </trkpt>
      <trkpt lat="44.2614" lon="5.72679">
        <ele>664</ele>
        <time>2019-06-17T07:46:13Z</time>
      </trkpt>
      <trkpt lat="44.26139" lon="5.72673">
        <ele>664</ele>
        <time>2019-06-17T07:46:14Z</time>
      </trkpt>
      <trkpt lat="44.26137" lon="5.72667">
        <ele>664</ele>
        <time>2019-06-17T07:46:15Z</time>
      </trkpt>
      <trkpt lat="44.26136" lon="5.72661">
        <ele>665</ele>
        <time>2019-06-17T07:46:16Z</time>
      </trkpt>
      <trkpt lat="44.26134" lon="5.72656">
        <ele>665</ele>
        <time>2019-06-17T07:46:17Z</time>
      </trkpt>
      <trkpt lat="44.26133" lon="5.7265">
        <ele>665</ele>
        <time>2019-06-17T07:46:18Z</time>
      </trkpt>
      <trkpt lat="44.26132" lon="5.72645">
        <ele>665</ele>
        <time>2019-06-17T07:46:19Z</time>
      </trkpt>
      <trkpt lat="44.2613" lon="5.7264">
        <ele>665</ele>
        <time>2019-06-17T07:46:20Z</time>
      </trkpt>
      <trkpt lat="44.26129" lon="5.72634">
        <ele>665</ele>
        <time>2019-06-17T07:46:21Z</time>
      </trkpt>
      <trkpt lat="44.26127" lon="5.72628">
        <ele>665</ele>
        <time>2019-06-17T07:46:22Z</time>
      </trkpt>
      <trkpt lat="44.26125" lon="5.72623">
        <ele>665</ele>
        <time>2019-06-17T07:46:23Z</time>
      </trkpt>
      <trkpt lat="44.26124" lon="5.72617">
        <ele>665</ele>
        <time>2019-06-17T07:46:24Z</time>
      </trkpt>
      <trkpt lat="44.26122" lon="5.72611">
        <ele>666</ele>
        <time>2019-06-17T07:46:25Z</time>
      </trkpt>
      <trkpt lat="44.26121" lon="5.72605">
        <ele>666</ele>
        <time>2019-06-17T07:46:26Z</time>
      </trkpt>
      <trkpt lat="44.26119" lon="5.72599">
        <ele>666</ele>
        <time>2019-06-17T07:46:27Z</time>
      </trkpt>
      <trkpt lat="44.26118" lon="5.72592">
        <ele>666</ele>
        <time>2019-06-17T07:46:28Z</time>
      </trkpt>
      <trkpt lat="44.26116" lon="5.72586">
        <ele>667</ele>
        <time>2019-06-17T07:46:29Z</time>
      </trkpt>
      <trkpt lat="44.26115" lon="5.72579">
        <ele>667</ele>
        <time>2019-06-17T07:46:30Z</time>
      </trkpt>
      <trkpt lat="44.26114" lon="5.72572">
        <ele>667</ele>
        <time>2019-06-17T07:46:31Z</time>
      </trkpt>
      <trkpt lat="44.26112" lon="5.72565">
        <ele>667</ele>
        <time>2019-06-17T07:46:32Z</time>
      </trkpt>
      <trkpt lat="44.2611" lon="5.72557">
        <ele>667</ele>
        <time>2019-06-17T07:46:33Z</time>
      </trkpt>
      <trkpt lat="44.26109" lon="5.72549">
        <ele>667</ele>
        <time>2019-06-17T07:46:34Z</time>
      </trkpt>
      <trkpt lat="44.26107" lon="5.72542">
        <ele>667</ele>
        <time>2019-06-17T07:46:35Z</time>
      </trkpt>
      <trkpt lat="44.26105" lon="5.72534">
        <ele>667</ele>
        <time>2019-06-17T07:46:36Z</time>
      </trkpt>
      <trkpt lat="44.26103" lon="5.72526">
        <ele>667</ele>
        <time>2019-06-17T07:46:37Z</time>
      </trkpt>
      <trkpt lat="44.26102" lon="5.72517">
        <ele>667</ele>
        <time>2019-06-17T07:46:38Z</time>
      </trkpt>
      <trkpt lat="44.261" lon="5.72509">
        <ele>667</ele>
        <time>2019-06-17T07:46:39Z</time>
      </trkpt>
      <trkpt lat="44.26098" lon="5.72501">
        <ele>667</ele>
        <time>2019-06-17T07:46:40Z</time>
      </trkpt>
      <trkpt lat="44.26096" lon="5.72493">
        <ele>667</ele>
        <time>2019-06-17T07:46:41Z</time>
      </trkpt>
      <trkpt lat="44.26094" lon="5.72484">
        <ele>667</ele>
        <time>2019-06-17T07:46:42Z</time>
      </trkpt>
      <trkpt lat="44.26091" lon="5.72476">
        <ele>667</ele>
        <time>2019-06-17T07:46:43Z</time>
      </trkpt>
      <trkpt lat="44.26089" lon="5.72467">
        <ele>666</ele>
        <time>2019-06-17T07:46:44Z</time>
      </trkpt>
      <trkpt lat="44.26087" lon="5.72459">
        <ele>665</ele>
        <time>2019-06-17T07:46:45Z</time>
      </trkpt>
      <trkpt lat="44.26085" lon="5.7245">
        <ele>665</ele>
        <time>2019-06-17T07:46:46Z</time>
      </trkpt>
      <trkpt lat="44.26083" lon="5.72442">
        <ele>664</ele>
        <time>2019-06-17T07:46:47Z</time>
      </trkpt>
      <trkpt lat="44.26081" lon="5.72433">
        <ele>664</ele>
        <time>2019-06-17T07:46:48Z</time>
      </trkpt>
      <trkpt lat="44.26079" lon="5.72425">
        <ele>664</ele>
        <time>2019-06-17T07:46:49Z</time>
      </trkpt>
      <trkpt lat="44.26076" lon="5.72416">
        <ele>664</ele>
        <time>2019-06-17T07:46:50Z</time>
      </trkpt>
      <trkpt lat="44.26073" lon="5.72408">
        <ele>664</ele>
        <time>2019-06-17T07:46:51Z</time>
      </trkpt>
      <trkpt lat="44.2607" lon="5.724">
        <ele>664</ele>
        <time>2019-06-17T07:46:52Z</time>
      </trkpt>
      <trkpt lat="44.26067" lon="5.72392">
        <ele>664</ele>
        <time>2019-06-17T07:46:53Z</time>
      </trkpt>
      <trkpt lat="44.26064" lon="5.72384">
        <ele>664</ele>
        <time>2019-06-17T07:46:54Z</time>
      </trkpt>
      <trkpt lat="44.2606" lon="5.72376">
        <ele>664</ele>
        <time>2019-06-17T07:46:55Z</time>
      </trkpt>
      <trkpt lat="44.26056" lon="5.72369">
        <ele>664</ele>
        <time>2019-06-17T07:46:56Z</time>
      </trkpt>
      <trkpt lat="44.26052" lon="5.72361">
        <ele>664</ele>
        <time>2019-06-17T07:46:57Z</time>
      </trkpt>
      <trkpt lat="44.26049" lon="5.72354">
        <ele>664</ele>
        <time>2019-06-17T07:46:58Z</time>
      </trkpt>
      <trkpt lat="44.26045" lon="5.72346">
        <ele>664</ele>
        <time>2019-06-17T07:46:59Z</time>
      </trkpt>
      <trkpt lat="44.26042" lon="5.72339">
        <ele>664</ele>
        <time>2019-06-17T07:47:00Z</time>
      </trkpt>
      <trkpt lat="44.26038" lon="5.72332">
        <ele>664</ele>
        <time>2019-06-17T07:47:01Z</time>
      </trkpt>
      <trkpt lat="44.26034" lon="5.72325">
        <ele>664</ele>
        <time>2019-06-17T07:47:02Z</time>
      </trkpt>
      <trkpt lat="44.26031" lon="5.72318">
        <ele>664</ele>
        <time>2019-06-17T07:47:03Z</time>
      </trkpt>
      <trkpt lat="44.26027" lon="5.72311">
        <ele>664</ele>
        <time>2019-06-17T07:47:04Z</time>
      </trkpt>
      <trkpt lat="44.26024" lon="5.72305">
        <ele>664</ele>
        <time>2019-06-17T07:47:05Z</time>
      </trkpt>
      <trkpt lat="44.2602" lon="5.72298">
        <ele>664</ele>
        <time>2019-06-17T07:47:06Z</time>
      </trkpt>
      <trkpt lat="44.26017" lon="5.72291">
        <ele>664</ele>
        <time>2019-06-17T07:47:07Z</time>
      </trkpt>
      <trkpt lat="44.26013" lon="5.72285">
        <ele>664</ele>
        <time>2019-06-17T07:47:08Z</time>
      </trkpt>
      <trkpt lat="44.2601" lon="5.72277">
        <ele>664</ele>
        <time>2019-06-17T07:47:09Z</time>
      </trkpt>
      <trkpt lat="44.26007" lon="5.7227">
        <ele>664</ele>
        <time>2019-06-17T07:47:10Z</time>
      </trkpt>
      <trkpt lat="44.26004" lon="5.72263">
        <ele>664</ele>
        <time>2019-06-17T07:47:11Z</time>
      </trkpt>
      <trkpt lat="44.26001" lon="5.72256">
        <ele>664</ele>
        <time>2019-06-17T07:47:12Z</time>
      </trkpt>
      <trkpt lat="44.25997" lon="5.72249">
        <ele>664</ele>
        <time>2019-06-17T07:47:13Z</time>
      </trkpt>
      <trkpt lat="44.25994" lon="5.72241">
        <ele>664</ele>
        <time>2019-06-17T07:47:14Z</time>
      </trkpt>
      <trkpt lat="44.25991" lon="5.72234">
        <ele>664</ele>
        <time>2019-06-17T07:47:15Z</time>
      </trkpt>
      <trkpt lat="44.25987" lon="5.72227">
        <ele>664</ele>
        <time>2019-06-17T07:47:16Z</time>
      </trkpt>
      <trkpt lat="44.25984" lon="5.7222">
        <ele>664</ele>
        <time>2019-06-17T07:47:17Z</time>
      </trkpt>
      <trkpt lat="44.25981" lon="5.72214">
        <ele>664</ele>
        <time>2019-06-17T07:47:18Z</time>
      </trkpt>
      <trkpt lat="44.25977" lon="5.72207">
        <ele>664</ele>
        <time>2019-06-17T07:47:19Z</time>
      </trkpt>
      <trkpt lat="44.25974" lon="5.722">
        <ele>664</ele>
        <time>2019-06-17T07:47:20Z</time>
      </trkpt>
      <trkpt lat="44.25971" lon="5.72194">
        <ele>664</ele>
        <time>2019-06-17T07:47:21Z</time>
      </trkpt>
      <trkpt lat="44.25967" lon="5.72187">
        <ele>664</ele>
        <time>2019-06-17T07:47:22Z</time>
      </trkpt>
      <trkpt lat="44.25964" lon="5.7218">
        <ele>664</ele>
        <time>2019-06-17T07:47:23Z</time>
      </trkpt>
      <trkpt lat="44.2596" lon="5.72173">
        <ele>664</ele>
        <time>2019-06-17T07:47:24Z</time>
      </trkpt>
      <trkpt lat="44.25956" lon="5.72165">
        <ele>664</ele>
        <time>2019-06-17T07:47:25Z</time>
      </trkpt>
      <trkpt lat="44.25952" lon="5.72157">
        <ele>664</ele>
        <time>2019-06-17T07:47:26Z</time>
      </trkpt>
      <trkpt lat="44.25948" lon="5.72149">
        <ele>664</ele>
        <time>2019-06-17T07:47:27Z</time>
      </trkpt>
      <trkpt lat="44.25944" lon="5.72142">
        <ele>664</ele>
        <time>2019-06-17T07:47:28Z</time>
      </trkpt>
      <trkpt lat="44.2594" lon="5.72134">
        <ele>664</ele>
        <time>2019-06-17T07:47:29Z</time>
      </trkpt>
      <trkpt lat="44.25935" lon="5.72127">
        <ele>664</ele>
        <time>2019-06-17T07:47:30Z</time>
      </trkpt>
      <trkpt lat="44.2593" lon="5.7212">
        <ele>664</ele>
        <time>2019-06-17T07:47:31Z</time>
      </trkpt>
      <trkpt lat="44.25926" lon="5.72112">
        <ele>664</ele>
        <time>2019-06-17T07:47:32Z</time>
      </trkpt>
      <trkpt lat="44.25921" lon="5.72105">
        <ele>664</ele>
        <time>2019-06-17T07:47:33Z</time>
      </trkpt>
      <trkpt lat="44.25916" lon="5.72097">
        <ele>664</ele>
        <time>2019-06-17T07:47:34Z</time>
      </trkpt>
      <trkpt lat="44.2591" lon="5.72089">
        <ele>663</ele>
        <time>2019-06-17T07:47:35Z</time>
      </trkpt>
      <trkpt lat="44.25905" lon="5.72082">
        <ele>663</ele>
        <time>2019-06-17T07:47:36Z</time>
      </trkpt>
      <trkpt lat="44.259" lon="5.72075">
        <ele>663</ele>
        <time>2019-06-17T07:47:37Z</time>
      </trkpt>
      <trkpt lat="44.25894" lon="5.72068">
        <ele>663</ele>
        <time>2019-06-17T07:47:38Z</time>
      </trkpt>
      <trkpt lat="44.25888" lon="5.72062">
        <ele>663</ele>
        <time>2019-06-17T07:47:39Z</time>
      </trkpt>
      <trkpt lat="44.25881" lon="5.72057">
        <ele>663</ele>
        <time>2019-06-17T07:47:40Z</time>
      </trkpt>
      <trkpt lat="44.25875" lon="5.72052">
        <ele>663</ele>
        <time>2019-06-17T07:47:41Z</time>
      </trkpt>
      <trkpt lat="44.25869" lon="5.72048">
        <ele>663</ele>
        <time>2019-06-17T07:47:42Z</time>
      </trkpt>
      <trkpt lat="44.25862" lon="5.72044">
        <ele>663</ele>
        <time>2019-06-17T07:47:43Z</time>
      </trkpt>
      <trkpt lat="44.25856" lon="5.7204">
        <ele>663</ele>
        <time>2019-06-17T07:47:44Z</time>
      </trkpt>
      <trkpt lat="44.2585" lon="5.72036">
        <ele>663</ele>
        <time>2019-06-17T07:47:45Z</time>
      </trkpt>
      <trkpt lat="44.25844" lon="5.72031">
        <ele>663</ele>
        <time>2019-06-17T07:47:46Z</time>
      </trkpt>
      <trkpt lat="44.25837" lon="5.72027">
        <ele>663</ele>
        <time>2019-06-17T07:47:47Z</time>
      </trkpt>
      <trkpt lat="44.25831" lon="5.72023">
        <ele>663</ele>
        <time>2019-06-17T07:47:48Z</time>
      </trkpt>
      <trkpt lat="44.25825" lon="5.72019">
        <ele>663</ele>
        <time>2019-06-17T07:47:49Z</time>
      </trkpt>
      <trkpt lat="44.25819" lon="5.72015">
        <ele>663</ele>
        <time>2019-06-17T07:47:50Z</time>
      </trkpt>
      <trkpt lat="44.25813" lon="5.7201">
        <ele>663</ele>
        <time>2019-06-17T07:47:51Z</time>
      </trkpt>
      <trkpt lat="44.25807" lon="5.72006">
        <ele>663</ele>
        <time>2019-06-17T07:47:52Z</time>
      </trkpt>
      <trkpt lat="44.25801" lon="5.72002">
        <ele>663</ele>
        <time>2019-06-17T07:47:53Z</time>
      </trkpt>
      <trkpt lat="44.25795" lon="5.71998">
        <ele>663</ele>
        <time>2019-06-17T07:47:54Z</time>
      </trkpt>
      <trkpt lat="44.2579" lon="5.71994">
        <ele>663</ele>
        <time>2019-06-17T07:47:55Z</time>
      </trkpt>
      <trkpt lat="44.25784" lon="5.7199">
        <ele>663</ele>
        <time>2019-06-17T07:47:56Z</time>
      </trkpt>
      <trkpt lat="44.25778" lon="5.71986">
        <ele>663</ele>
        <time>2019-06-17T07:47:57Z</time>
      </trkpt>
      <trkpt lat="44.25772" lon="5.71982">
        <ele>663</ele>
        <time>2019-06-17T07:47:58Z</time>
      </trkpt>
      <trkpt lat="44.25767" lon="5.71978">
        <ele>663</ele>
        <time>2019-06-17T07:47:59Z</time>
      </trkpt>
      <trkpt lat="44.25761" lon="5.71974">
        <ele>663</ele>
        <time>2019-06-17T07:48:00Z</time>
      </trkpt>
      <trkpt lat="44.25756" lon="5.7197">
        <ele>663</ele>
        <time>2019-06-17T07:48:01Z</time>
      </trkpt>
      <trkpt lat="44.25751" lon="5.71966">
        <ele>663</ele>
        <time>2019-06-17T07:48:02Z</time>
      </trkpt>
      <trkpt lat="44.25746" lon="5.71962">
        <ele>663</ele>
        <time>2019-06-17T07:48:03Z</time>
      </trkpt>
      <trkpt lat="44.2574" lon="5.71958">
        <ele>663</ele>
        <time>2019-06-17T07:48:04Z</time>
      </trkpt>
      <trkpt lat="44.25735" lon="5.71953">
        <ele>663</ele>
        <time>2019-06-17T07:48:05Z</time>
      </trkpt>
      <trkpt lat="44.2573" lon="5.71949">
        <ele>663</ele>
        <time>2019-06-17T07:48:06Z</time>
      </trkpt>
      <trkpt lat="44.25725" lon="5.71944">
        <ele>663</ele>
        <time>2019-06-17T07:48:07Z</time>
      </trkpt>
      <trkpt lat="44.2572" lon="5.71939">
        <ele>663</ele>
        <time>2019-06-17T07:48:08Z</time>
      </trkpt>
      <trkpt lat="44.25715" lon="5.71935">
        <ele>663</ele>
        <time>2019-06-17T07:48:09Z</time>
      </trkpt>
      <trkpt lat="44.2571" lon="5.7193">
        <ele>663</ele>
        <time>2019-06-17T07:48:10Z</time>
      </trkpt>
      <trkpt lat="44.25705" lon="5.71925">
        <ele>663</ele>
        <time>2019-06-17T07:48:11Z</time>
      </trkpt>
      <trkpt lat="44.257" lon="5.71921">
        <ele>663</ele>
        <time>2019-06-17T07:48:12Z</time>
      </trkpt>
      <trkpt lat="44.25694" lon="5.71917">
        <ele>663</ele>
        <time>2019-06-17T07:48:13Z</time>
      </trkpt>
      <trkpt lat="44.25689" lon="5.71914">
        <ele>663</ele>
        <time>2019-06-17T07:48:14Z</time>
      </trkpt>
      <trkpt lat="44.25683" lon="5.71911">
        <ele>663</ele>
        <time>2019-06-17T07:48:15Z</time>
      </trkpt>
      <trkpt lat="44.25677" lon="5.71909">
        <ele>663</ele>
        <time>2019-06-17T07:48:16Z</time>
      </trkpt>
      <trkpt lat="44.25672" lon="5.71907">
        <ele>663</ele>
        <time>2019-06-17T07:48:17Z</time>
      </trkpt>
      <trkpt lat="44.25666" lon="5.71904">
        <ele>663</ele>
        <time>2019-06-17T07:48:18Z</time>
      </trkpt>
      <trkpt lat="44.2566" lon="5.71902">
        <ele>663</ele>
        <time>2019-06-17T07:48:19Z</time>
      </trkpt>
      <trkpt lat="44.25655" lon="5.71899">
        <ele>663</ele>
        <time>2019-06-17T07:48:20Z</time>
      </trkpt>
      <trkpt lat="44.25649" lon="5.71896">
        <ele>663</ele>
        <time>2019-06-17T07:48:21Z</time>
      </trkpt>
      <trkpt lat="44.25644" lon="5.71892">
        <ele>663</ele>
        <time>2019-06-17T07:48:22Z</time>
      </trkpt>
      <trkpt lat="44.25638" lon="5.71888">
        <ele>663</ele>
        <time>2019-06-17T07:48:23Z</time>
      </trkpt>
      <trkpt lat="44.25632" lon="5.71885">
        <ele>663</ele>
        <time>2019-06-17T07:48:24Z</time>
      </trkpt>
      <trkpt lat="44.25627" lon="5.7188">
        <ele>663</ele>
        <time>2019-06-17T07:48:25Z</time>
      </trkpt>
      <trkpt lat="44.25622" lon="5.71876">
        <ele>663</ele>
        <time>2019-06-17T07:48:26Z</time>
      </trkpt>
      <trkpt lat="44.25617" lon="5.71872">
        <ele>663</ele>
        <time>2019-06-17T07:48:27Z</time>
      </trkpt>
      <trkpt lat="44.25612" lon="5.71867">
        <ele>663</ele>
        <time>2019-06-17T07:48:28Z</time>
      </trkpt>
      <trkpt lat="44.25607" lon="5.71862">
        <ele>663</ele>
        <time>2019-06-17T07:48:29Z</time>
      </trkpt>
      <trkpt lat="44.25602" lon="5.71858">
        <ele>663</ele>
        <time>2019-06-17T07:48:30Z</time>
      </trkpt>
      <trkpt lat="44.25597" lon="5.71853">
        <ele>663</ele>
        <time>2019-06-17T07:48:31Z</time>
      </trkpt>
      <trkpt lat="44.25592" lon="5.71849">
        <ele>663</ele>
        <time>2019-06-17T07:48:32Z</time>
      </trkpt>
      <trkpt lat="44.25587" lon="5.71844">
        <ele>663</ele>
        <time>2019-06-17T07:48:33Z</time>
      </trkpt>
      <trkpt lat="44.25583" lon="5.7184">
        <ele>663</ele>
        <time>2019-06-17T07:48:34Z</time>
      </trkpt>
      <trkpt lat="44.25578" lon="5.71835">
        <ele>663</ele>
        <time>2019-06-17T07:48:35Z</time>
      </trkpt>
      <trkpt lat="44.25573" lon="5.71831">
        <ele>663</ele>
        <time>2019-06-17T07:48:36Z</time>
      </trkpt>
      <trkpt lat="44.25568" lon="5.71826">
        <ele>663</ele>
        <time>2019-06-17T07:48:37Z</time>
      </trkpt>
      <trkpt lat="44.25563" lon="5.71821">
        <ele>663</ele>
        <time>2019-06-17T07:48:38Z</time>
      </trkpt>
      <trkpt lat="44.25558" lon="5.71817">
        <ele>663</ele>
        <time>2019-06-17T07:48:39Z</time>
      </trkpt>
      <trkpt lat="44.25554" lon="5.71812">
        <ele>663</ele>
        <time>2019-06-17T07:48:40Z</time>
      </trkpt>
      <trkpt lat="44.25548" lon="5.71807">
        <ele>663</ele>
        <time>2019-06-17T07:48:41Z</time>
      </trkpt>
      <trkpt lat="44.25543" lon="5.71803">
        <ele>663</ele>
        <time>2019-06-17T07:48:42Z</time>
      </trkpt>
      <trkpt lat="44.25538" lon="5.71798">
        <ele>663</ele>
        <time>2019-06-17T07:48:43Z</time>
      </trkpt>
      <trkpt lat="44.25532" lon="5.71794">
        <ele>663</ele>
        <time>2019-06-17T07:48:44Z</time>
      </trkpt>
      <trkpt lat="44.25527" lon="5.7179">
        <ele>663</ele>
        <time>2019-06-17T07:48:45Z</time>
      </trkpt>
      <trkpt lat="44.25521" lon="5.71787">
        <ele>663</ele>
        <time>2019-06-17T07:48:46Z</time>
      </trkpt>
      <trkpt lat="44.25515" lon="5.71783">
        <ele>664</ele>
        <time>2019-06-17T07:48:47Z</time>
      </trkpt>
      <trkpt lat="44.2551" lon="5.7178">
        <ele>664</ele>
        <time>2019-06-17T07:48:48Z</time>
      </trkpt>
      <trkpt lat="44.25504" lon="5.71776">
        <ele>664</ele>
        <time>2019-06-17T07:48:49Z</time>
      </trkpt>
      <trkpt lat="44.25498" lon="5.71773">
        <ele>664</ele>
        <time>2019-06-17T07:48:50Z</time>
      </trkpt>
      <trkpt lat="44.25492" lon="5.71769">
        <ele>664</ele>
        <time>2019-06-17T07:48:51Z</time>
      </trkpt>
      <trkpt lat="44.25486" lon="5.71766">
        <ele>664</ele>
        <time>2019-06-17T07:48:52Z</time>
      </trkpt>
      <trkpt lat="44.25481" lon="5.71762">
        <ele>664</ele>
        <time>2019-06-17T07:48:53Z</time>
      </trkpt>
      <trkpt lat="44.25475" lon="5.71758">
        <ele>664</ele>
        <time>2019-06-17T07:48:54Z</time>
      </trkpt>
      <trkpt lat="44.25469" lon="5.71755">
        <ele>664</ele>
        <time>2019-06-17T07:48:56Z</time>
      </trkpt>
      <trkpt lat="44.25463" lon="5.7175">
        <ele>664</ele>
        <time>2019-06-17T07:48:56Z</time>
      </trkpt>
      <trkpt lat="44.25457" lon="5.71746">
        <ele>664</ele>
        <time>2019-06-17T07:48:57Z</time>
      </trkpt>
      <trkpt lat="44.25451" lon="5.71742">
        <ele>664</ele>
        <time>2019-06-17T07:48:58Z</time>
      </trkpt>
      <trkpt lat="44.25445" lon="5.71738">
        <ele>664</ele>
        <time>2019-06-17T07:48:59Z</time>
      </trkpt>
      <trkpt lat="44.25439" lon="5.71735">
        <ele>664</ele>
        <time>2019-06-17T07:49:00Z</time>
      </trkpt>
      <trkpt lat="44.25433" lon="5.71731">
        <ele>664</ele>
        <time>2019-06-17T07:49:01Z</time>
      </trkpt>
      <trkpt lat="44.25426" lon="5.71728">
        <ele>664</ele>
        <time>2019-06-17T07:49:02Z</time>
      </trkpt>
      <trkpt lat="44.2542" lon="5.71725">
        <ele>664</ele>
        <time>2019-06-17T07:49:03Z</time>
      </trkpt>
      <trkpt lat="44.25414" lon="5.71721">
        <ele>664</ele>
        <time>2019-06-17T07:49:04Z</time>
      </trkpt>
      <trkpt lat="44.25408" lon="5.71718">
        <ele>664</ele>
        <time>2019-06-17T07:49:05Z</time>
      </trkpt>
      <trkpt lat="44.25402" lon="5.71714">
        <ele>664</ele>
        <time>2019-06-17T07:49:06Z</time>
      </trkpt>
      <trkpt lat="44.25396" lon="5.7171">
        <ele>664</ele>
        <time>2019-06-17T07:49:07Z</time>
      </trkpt>
      <trkpt lat="44.25391" lon="5.71706">
        <ele>664</ele>
        <time>2019-06-17T07:49:08Z</time>
      </trkpt>
      <trkpt lat="44.25385" lon="5.71702">
        <ele>664</ele>
        <time>2019-06-17T07:49:09Z</time>
      </trkpt>
      <trkpt lat="44.25378" lon="5.71699">
        <ele>664</ele>
        <time>2019-06-17T07:49:10Z</time>
      </trkpt>
      <trkpt lat="44.25372" lon="5.71695">
        <ele>664</ele>
        <time>2019-06-17T07:49:11Z</time>
      </trkpt>
      <trkpt lat="44.25366" lon="5.71692">
        <ele>664</ele>
        <time>2019-06-17T07:49:12Z</time>
      </trkpt>
      <trkpt lat="44.2536" lon="5.71687">
        <ele>664</ele>
        <time>2019-06-17T07:49:13Z</time>
      </trkpt>
      <trkpt lat="44.25354" lon="5.71682">
        <ele>664</ele>
        <time>2019-06-17T07:49:14Z</time>
      </trkpt>
      <trkpt lat="44.25349" lon="5.71677">
        <ele>664</ele>
        <time>2019-06-17T07:49:15Z</time>
      </trkpt>
      <trkpt lat="44.25343" lon="5.71672">
        <ele>664</ele>
        <time>2019-06-17T07:49:16Z</time>
      </trkpt>
      <trkpt lat="44.25338" lon="5.71667">
        <ele>664</ele>
        <time>2019-06-17T07:49:17Z</time>
      </trkpt>
      <trkpt lat="44.25333" lon="5.71661">
        <ele>664</ele>
        <time>2019-06-17T07:49:18Z</time>
      </trkpt>
      <trkpt lat="44.25327" lon="5.71655">
        <ele>664</ele>
        <time>2019-06-17T07:49:19Z</time>
      </trkpt>
      <trkpt lat="44.25322" lon="5.71649">
        <ele>664</ele>
        <time>2019-06-17T07:49:20Z</time>
      </trkpt>
      <trkpt lat="44.25317" lon="5.71643">
        <ele>664</ele>
        <time>2019-06-17T07:49:21Z</time>
      </trkpt>
      <trkpt lat="44.25312" lon="5.71637">
        <ele>664</ele>
        <time>2019-06-17T07:49:22Z</time>
      </trkpt>
      <trkpt lat="44.25306" lon="5.71631">
        <ele>664</ele>
        <time>2019-06-17T07:49:23Z</time>
      </trkpt>
      <trkpt lat="44.25301" lon="5.71625">
        <ele>664</ele>
        <time>2019-06-17T07:49:24Z</time>
      </trkpt>
      <trkpt lat="44.25296" lon="5.71619">
        <ele>664</ele>
        <time>2019-06-17T07:49:25Z</time>
      </trkpt>
      <trkpt lat="44.25291" lon="5.71613">
        <ele>664</ele>
        <time>2019-06-17T07:49:26Z</time>
      </trkpt>
      <trkpt lat="44.25286" lon="5.71607">
        <ele>664</ele>
        <time>2019-06-17T07:49:27Z</time>
      </trkpt>
      <trkpt lat="44.25281" lon="5.71601">
        <ele>664</ele>
        <time>2019-06-17T07:49:28Z</time>
      </trkpt>
      <trkpt lat="44.25276" lon="5.71595">
        <ele>664</ele>
        <time>2019-06-17T07:49:29Z</time>
      </trkpt>
      <trkpt lat="44.25271" lon="5.71589">
        <ele>664</ele>
        <time>2019-06-17T07:49:30Z</time>
      </trkpt>
      <trkpt lat="44.25266" lon="5.71583">
        <ele>664</ele>
        <time>2019-06-17T07:49:31Z</time>
      </trkpt>
      <trkpt lat="44.25261" lon="5.71578">
        <ele>664</ele>
        <time>2019-06-17T07:49:32Z</time>
      </trkpt>
      <trkpt lat="44.25256" lon="5.71572">
        <ele>664</ele>
        <time>2019-06-17T07:49:33Z</time>
      </trkpt>
      <trkpt lat="44.25251" lon="5.71566">
        <ele>664</ele>
        <time>2019-06-17T07:49:34Z</time>
      </trkpt>
      <trkpt lat="44.25246" lon="5.71561">
        <ele>664</ele>
        <time>2019-06-17T07:49:35Z</time>
      </trkpt>
      <trkpt lat="44.25241" lon="5.71555">
        <ele>664</ele>
        <time>2019-06-17T07:49:36Z</time>
      </trkpt>
      <trkpt lat="44.25236" lon="5.7155">
        <ele>665</ele>
        <time>2019-06-17T07:49:37Z</time>
      </trkpt>
      <trkpt lat="44.25231" lon="5.71545">
        <ele>665</ele>
        <time>2019-06-17T07:49:38Z</time>
      </trkpt>
      <trkpt lat="44.25226" lon="5.7154">
        <ele>665</ele>
        <time>2019-06-17T07:49:39Z</time>
      </trkpt>
      <trkpt lat="44.25221" lon="5.71534">
        <ele>665</ele>
        <time>2019-06-17T07:49:40Z</time>
      </trkpt>
      <trkpt lat="44.25215" lon="5.71529">
        <ele>666</ele>
        <time>2019-06-17T07:49:41Z</time>
      </trkpt>
      <trkpt lat="44.2521" lon="5.71524">
        <ele>666</ele>
        <time>2019-06-17T07:49:42Z</time>
      </trkpt>
      <trkpt lat="44.25205" lon="5.71519">
        <ele>666</ele>
        <time>2019-06-17T07:49:43Z</time>
      </trkpt>
      <trkpt lat="44.252" lon="5.71513">
        <ele>666</ele>
        <time>2019-06-17T07:49:44Z</time>
      </trkpt>
      <trkpt lat="44.25195" lon="5.71508">
        <ele>667</ele>
        <time>2019-06-17T07:49:45Z</time>
      </trkpt>
      <trkpt lat="44.2519" lon="5.71502">
        <ele>667</ele>
        <time>2019-06-17T07:49:46Z</time>
      </trkpt>
      <trkpt lat="44.25184" lon="5.71497">
        <ele>667</ele>
        <time>2019-06-17T07:49:47Z</time>
      </trkpt>
      <trkpt lat="44.25179" lon="5.71491">
        <ele>667</ele>
        <time>2019-06-17T07:49:48Z</time>
      </trkpt>
      <trkpt lat="44.25174" lon="5.71486">
        <ele>667</ele>
        <time>2019-06-17T07:49:49Z</time>
      </trkpt>
      <trkpt lat="44.25168" lon="5.71481">
        <ele>667</ele>
        <time>2019-06-17T07:49:50Z</time>
      </trkpt>
      <trkpt lat="44.25163" lon="5.71476">
        <ele>668</ele>
        <time>2019-06-17T07:49:51Z</time>
      </trkpt>
      <trkpt lat="44.25158" lon="5.7147">
        <ele>668</ele>
        <time>2019-06-17T07:49:52Z</time>
      </trkpt>
      <trkpt lat="44.25152" lon="5.71465">
        <ele>668</ele>
        <time>2019-06-17T07:49:53Z</time>
      </trkpt>
      <trkpt lat="44.25147" lon="5.71459">
        <ele>668</ele>
        <time>2019-06-17T07:49:54Z</time>
      </trkpt>
      <trkpt lat="44.25142" lon="5.71454">
        <ele>668</ele>
        <time>2019-06-17T07:49:55Z</time>
      </trkpt>
      <trkpt lat="44.25136" lon="5.71448">
        <ele>668</ele>
        <time>2019-06-17T07:49:56Z</time>
      </trkpt>
      <trkpt lat="44.25131" lon="5.71442">
        <ele>668</ele>
        <time>2019-06-17T07:49:57Z</time>
      </trkpt>
      <trkpt lat="44.25126" lon="5.71436">
        <ele>668</ele>
        <time>2019-06-17T07:49:58Z</time>
      </trkpt>
      <trkpt lat="44.25121" lon="5.71428">
        <ele>668</ele>
        <time>2019-06-17T07:49:59Z</time>
      </trkpt>
      <trkpt lat="44.25116" lon="5.71421">
        <ele>668</ele>
        <time>2019-06-17T07:50:00Z</time>
      </trkpt>
      <trkpt lat="44.25111" lon="5.71412">
        <ele>668</ele>
        <time>2019-06-17T07:50:01Z</time>
      </trkpt>
      <trkpt lat="44.25107" lon="5.71403">
        <ele>668</ele>
        <time>2019-06-17T07:50:02Z</time>
      </trkpt>
      <trkpt lat="44.25103" lon="5.71393">
        <ele>668</ele>
        <time>2019-06-17T07:50:03Z</time>
      </trkpt>
      <trkpt lat="44.25099" lon="5.71383">
        <ele>668</ele>
        <time>2019-06-17T07:50:04Z</time>
      </trkpt>
      <trkpt lat="44.25094" lon="5.71372">
        <ele>668</ele>
        <time>2019-06-17T07:50:05Z</time>
      </trkpt>
      <trkpt lat="44.2509" lon="5.71362">
        <ele>668</ele>
        <time>2019-06-17T07:50:06Z</time>
      </trkpt>
      <trkpt lat="44.25085" lon="5.71351">
        <ele>668</ele>
        <time>2019-06-17T07:50:07Z</time>
      </trkpt>
      <trkpt lat="44.2508" lon="5.71341">
        <ele>668</ele>
        <time>2019-06-17T07:50:08Z</time>
      </trkpt>
      <trkpt lat="44.25076" lon="5.71331">
        <ele>668</ele>
        <time>2019-06-17T07:50:09Z</time>
      </trkpt>
      <trkpt lat="44.25072" lon="5.7132">
        <ele>668</ele>
        <time>2019-06-17T07:50:10Z</time>
      </trkpt>
      <trkpt lat="44.25068" lon="5.71311">
        <ele>668</ele>
        <time>2019-06-17T07:50:11Z</time>
      </trkpt>
      <trkpt lat="44.25063" lon="5.71301">
        <ele>668</ele>
        <time>2019-06-17T07:50:12Z</time>
      </trkpt>
      <trkpt lat="44.25059" lon="5.71292">
        <ele>668</ele>
        <time>2019-06-17T07:50:13Z</time>
      </trkpt>
      <trkpt lat="44.25055" lon="5.71283">
        <ele>668</ele>
        <time>2019-06-17T07:50:14Z</time>
      </trkpt>
      <trkpt lat="44.25051" lon="5.71274">
        <ele>668</ele>
        <time>2019-06-17T07:50:15Z</time>
      </trkpt>
      <trkpt lat="44.25048" lon="5.71265">
        <ele>668</ele>
        <time>2019-06-17T07:50:16Z</time>
      </trkpt>
      <trkpt lat="44.25045" lon="5.71256">
        <ele>668</ele>
        <time>2019-06-17T07:50:17Z</time>
      </trkpt>
      <trkpt lat="44.25042" lon="5.71247">
        <ele>668</ele>
        <time>2019-06-17T07:50:18Z</time>
      </trkpt>
      <trkpt lat="44.25039" lon="5.71239">
        <ele>668</ele>
        <time>2019-06-17T07:50:19Z</time>
      </trkpt>
      <trkpt lat="44.25036" lon="5.71231">
        <ele>668</ele>
        <time>2019-06-17T07:50:20Z</time>
      </trkpt>
      <trkpt lat="44.25032" lon="5.71223">
        <ele>668</ele>
        <time>2019-06-17T07:50:21Z</time>
      </trkpt>
      <trkpt lat="44.25029" lon="5.71215">
        <ele>668</ele>
        <time>2019-06-17T07:50:22Z</time>
      </trkpt>
      <trkpt lat="44.25025" lon="5.71208">
        <ele>668</ele>
        <time>2019-06-17T07:50:23Z</time>
      </trkpt>
      <trkpt lat="44.25021" lon="5.71202">
        <ele>668</ele>
        <time>2019-06-17T07:50:24Z</time>
      </trkpt>
      <trkpt lat="44.25017" lon="5.71196">
        <ele>668</ele>
        <time>2019-06-17T07:50:25Z</time>
      </trkpt>
      <trkpt lat="44.25013" lon="5.71189">
        <ele>668</ele>
        <time>2019-06-17T07:50:26Z</time>
      </trkpt>
      <trkpt lat="44.25009" lon="5.71183">
        <ele>668</ele>
        <time>2019-06-17T07:50:27Z</time>
      </trkpt>
      <trkpt lat="44.25005" lon="5.71177">
        <ele>668</ele>
        <time>2019-06-17T07:50:28Z</time>
      </trkpt>
      <trkpt lat="44.25002" lon="5.71172">
        <ele>668</ele>
        <time>2019-06-17T07:50:29Z</time>
      </trkpt>
      <trkpt lat="44.24997" lon="5.71166">
        <ele>668</ele>
        <time>2019-06-17T07:50:30Z</time>
      </trkpt>
      <trkpt lat="44.24994" lon="5.71161">
        <ele>669</ele>
        <time>2019-06-17T07:50:31Z</time>
      </trkpt>
      <trkpt lat="44.2499" lon="5.71155">
        <ele>669</ele>
        <time>2019-06-17T07:50:32Z</time>
      </trkpt>
      <trkpt lat="44.24986" lon="5.7115">
        <ele>669</ele>
        <time>2019-06-17T07:50:33Z</time>
      </trkpt>
      <trkpt lat="44.24982" lon="5.71145">
        <ele>669</ele>
        <time>2019-06-17T07:50:34Z</time>
      </trkpt>
      <trkpt lat="44.24978" lon="5.7114">
        <ele>670</ele>
        <time>2019-06-17T07:50:35Z</time>
      </trkpt>
      <trkpt lat="44.24974" lon="5.71135">
        <ele>670</ele>
        <time>2019-06-17T07:50:36Z</time>
      </trkpt>
      <trkpt lat="44.24971" lon="5.7113">
        <ele>670</ele>
        <time>2019-06-17T07:50:37Z</time>
      </trkpt>
      <trkpt lat="44.24967" lon="5.71125">
        <ele>670</ele>
        <time>2019-06-17T07:50:38Z</time>
      </trkpt>
      <trkpt lat="44.24964" lon="5.7112">
        <ele>671</ele>
        <time>2019-06-17T07:50:39Z</time>
      </trkpt>
      <trkpt lat="44.2496" lon="5.71115">
        <ele>671</ele>
        <time>2019-06-17T07:50:40Z</time>
      </trkpt>
      <trkpt lat="44.24957" lon="5.71109">
        <ele>671</ele>
        <time>2019-06-17T07:50:41Z</time>
      </trkpt>
      <trkpt lat="44.24954" lon="5.71104">
        <ele>671</ele>
        <time>2019-06-17T07:50:42Z</time>
      </trkpt>
      <trkpt lat="44.2495" lon="5.71098">
        <ele>671</ele>
        <time>2019-06-17T07:50:43Z</time>
      </trkpt>
      <trkpt lat="44.24947" lon="5.71093">
        <ele>671</ele>
        <time>2019-06-17T07:50:44Z</time>
      </trkpt>
      <trkpt lat="44.24943" lon="5.71087">
        <ele>671</ele>
        <time>2019-06-17T07:50:45Z</time>
      </trkpt>
      <trkpt lat="44.24939" lon="5.71082">
        <ele>671</ele>
        <time>2019-06-17T07:50:46Z</time>
      </trkpt>
      <trkpt lat="44.24936" lon="5.71078">
        <ele>671</ele>
        <time>2019-06-17T07:50:47Z</time>
      </trkpt>
      <trkpt lat="44.24933" lon="5.71073">
        <ele>671</ele>
        <time>2019-06-17T07:50:48Z</time>
      </trkpt>
      <trkpt lat="44.24929" lon="5.71069">
        <ele>671</ele>
        <time>2019-06-17T07:50:49Z</time>
      </trkpt>
      <trkpt lat="44.24926" lon="5.71065">
        <ele>671</ele>
        <time>2019-06-17T07:50:50Z</time>
      </trkpt>
      <trkpt lat="44.24923" lon="5.71061">
        <ele>671</ele>
        <time>2019-06-17T07:50:51Z</time>
      </trkpt>
      <trkpt lat="44.2492" lon="5.71056">
        <ele>671</ele>
        <time>2019-06-17T07:50:52Z</time>
      </trkpt>
      <trkpt lat="44.24918" lon="5.71052">
        <ele>671</ele>
        <time>2019-06-17T07:50:53Z</time>
      </trkpt>
      <trkpt lat="44.24915" lon="5.71048">
        <ele>671</ele>
        <time>2019-06-17T07:50:54Z</time>
      </trkpt>
      <trkpt lat="44.24911" lon="5.71044">
        <ele>671</ele>
        <time>2019-06-17T07:50:55Z</time>
      </trkpt>
      <trkpt lat="44.24908" lon="5.71039">
        <ele>671</ele>
        <time>2019-06-17T07:50:56Z</time>
      </trkpt>
      <trkpt lat="44.24906" lon="5.71035">
        <ele>671</ele>
        <time>2019-06-17T07:50:57Z</time>
      </trkpt>
      <trkpt lat="44.24903" lon="5.71031">
        <ele>671</ele>
        <time>2019-06-17T07:50:58Z</time>
      </trkpt>
      <trkpt lat="44.249" lon="5.71026">
        <ele>671</ele>
        <time>2019-06-17T07:50:59Z</time>
      </trkpt>
      <trkpt lat="44.24897" lon="5.71022">
        <ele>671</ele>
        <time>2019-06-17T07:51:00Z</time>
      </trkpt>
      <trkpt lat="44.24894" lon="5.71018">
        <ele>671</ele>
        <time>2019-06-17T07:51:01Z</time>
      </trkpt>
      <trkpt lat="44.24891" lon="5.71013">
        <ele>671</ele>
        <time>2019-06-17T07:51:02Z</time>
      </trkpt>
      <trkpt lat="44.24888" lon="5.71009">
        <ele>671</ele>
        <time>2019-06-17T07:51:03Z</time>
      </trkpt>
      <trkpt lat="44.24884" lon="5.71004">
        <ele>671</ele>
        <time>2019-06-17T07:51:04Z</time>
      </trkpt>
      <trkpt lat="44.24881" lon="5.71">
        <ele>671</ele>
        <time>2019-06-17T07:51:05Z</time>
      </trkpt>
      <trkpt lat="44.24877" lon="5.70996">
        <ele>671</ele>
        <time>2019-06-17T07:51:06Z</time>
      </trkpt>
      <trkpt lat="44.24873" lon="5.70991">
        <ele>671</ele>
        <time>2019-06-17T07:51:07Z</time>
      </trkpt>
      <trkpt lat="44.24869" lon="5.70987">
        <ele>671</ele>
        <time>2019-06-17T07:51:08Z</time>
      </trkpt>
      <trkpt lat="44.24865" lon="5.70983">
        <ele>671</ele>
        <time>2019-06-17T07:51:09Z</time>
      </trkpt>
      <trkpt lat="44.24862" lon="5.70978">
        <ele>671</ele>
        <time>2019-06-17T07:51:10Z</time>
      </trkpt>
      <trkpt lat="44.24858" lon="5.70974">
        <ele>671</ele>
        <time>2019-06-17T07:51:11Z</time>
      </trkpt>
      <trkpt lat="44.24854" lon="5.7097">
        <ele>671</ele>
        <time>2019-06-17T07:51:12Z</time>
      </trkpt>
      <trkpt lat="44.24851" lon="5.70966">
        <ele>671</ele>
        <time>2019-06-17T07:51:13Z</time>
      </trkpt>
      <trkpt lat="44.24847" lon="5.70962">
        <ele>671</ele>
        <time>2019-06-17T07:51:14Z</time>
      </trkpt>
      <trkpt lat="44.24843" lon="5.70958">
        <ele>671</ele>
        <time>2019-06-17T07:51:15Z</time>
      </trkpt>
      <trkpt lat="44.24839" lon="5.70954">
        <ele>671</ele>
        <time>2019-06-17T07:51:16Z</time>
      </trkpt>
      <trkpt lat="44.24835" lon="5.7095">
        <ele>671</ele>
        <time>2019-06-17T07:51:17Z</time>
      </trkpt>
      <trkpt lat="44.24831" lon="5.70946">
        <ele>671</ele>
        <time>2019-06-17T07:51:18Z</time>
      </trkpt>
      <trkpt lat="44.24827" lon="5.70941">
        <ele>671</ele>
        <time>2019-06-17T07:51:19Z</time>
      </trkpt>
      <trkpt lat="44.24823" lon="5.70936">
        <ele>671</ele>
        <time>2019-06-17T07:51:20Z</time>
      </trkpt>
      <trkpt lat="44.24818" lon="5.70932">
        <ele>671</ele>
        <time>2019-06-17T07:51:21Z</time>
      </trkpt>
      <trkpt lat="44.24815" lon="5.70927">
        <ele>671</ele>
        <time>2019-06-17T07:51:22Z</time>
      </trkpt>
      <trkpt lat="44.2481" lon="5.70922">
        <ele>671</ele>
        <time>2019-06-17T07:51:23Z</time>
      </trkpt>
      <trkpt lat="44.24806" lon="5.70917">
        <ele>671</ele>
        <time>2019-06-17T07:51:24Z</time>
      </trkpt>
      <trkpt lat="44.24802" lon="5.70912">
        <ele>671</ele>
        <time>2019-06-17T07:51:25Z</time>
      </trkpt>
      <trkpt lat="44.24798" lon="5.70907">
        <ele>671</ele>
        <time>2019-06-17T07:51:26Z</time>
      </trkpt>
      <trkpt lat="44.24794" lon="5.70902">
        <ele>671</ele>
        <time>2019-06-17T07:51:27Z</time>
      </trkpt>
      <trkpt lat="44.2479" lon="5.70897">
        <ele>671</ele>
        <time>2019-06-17T07:51:28Z</time>
      </trkpt>
      <trkpt lat="44.24786" lon="5.70892">
        <ele>671</ele>
        <time>2019-06-17T07:51:29Z</time>
      </trkpt>
      <trkpt lat="44.24781" lon="5.70888">
        <ele>671</ele>
        <time>2019-06-17T07:51:30Z</time>
      </trkpt>
      <trkpt lat="44.24776" lon="5.70883">
        <ele>671</ele>
        <time>2019-06-17T07:51:31Z</time>
      </trkpt>
      <trkpt lat="44.24772" lon="5.70879">
        <ele>671</ele>
        <time>2019-06-17T07:51:32Z</time>
      </trkpt>
      <trkpt lat="44.24767" lon="5.70875">
        <ele>671</ele>
        <time>2019-06-17T07:51:33Z</time>
      </trkpt>
      <trkpt lat="44.24762" lon="5.70871">
        <ele>671</ele>
        <time>2019-06-17T07:51:34Z</time>
      </trkpt>
      <trkpt lat="44.24758" lon="5.70867">
        <ele>671</ele>
        <time>2019-06-17T07:51:35Z</time>
      </trkpt>
      <trkpt lat="44.24753" lon="5.70864">
        <ele>671</ele>
        <time>2019-06-17T07:51:36Z</time>
      </trkpt>
      <trkpt lat="44.24748" lon="5.70861">
        <ele>671</ele>
        <time>2019-06-17T07:51:37Z</time>
      </trkpt>
      <trkpt lat="44.24744" lon="5.70857">
        <ele>671</ele>
        <time>2019-06-17T07:51:38Z</time>
      </trkpt>
      <trkpt lat="44.24739" lon="5.70854">
        <ele>671</ele>
        <time>2019-06-17T07:51:39Z</time>
      </trkpt>
      <trkpt lat="44.24734" lon="5.70851">
        <ele>671</ele>
        <time>2019-06-17T07:51:40Z</time>
      </trkpt>
      <trkpt lat="44.2473" lon="5.70848">
        <ele>671</ele>
        <time>2019-06-17T07:51:41Z</time>
      </trkpt>
      <trkpt lat="44.24725" lon="5.70845">
        <ele>671</ele>
        <time>2019-06-17T07:51:42Z</time>
      </trkpt>
      <trkpt lat="44.24721" lon="5.70842">
        <ele>671</ele>
        <time>2019-06-17T07:51:43Z</time>
      </trkpt>
      <trkpt lat="44.24716" lon="5.70839">
        <ele>671</ele>
        <time>2019-06-17T07:51:44Z</time>
      </trkpt>
      <trkpt lat="44.24712" lon="5.70836">
        <ele>671</ele>
        <time>2019-06-17T07:51:45Z</time>
      </trkpt>
      <trkpt lat="44.24707" lon="5.70834">
        <ele>671</ele>
        <time>2019-06-17T07:51:46Z</time>
      </trkpt>
      <trkpt lat="44.24702" lon="5.70831">
        <ele>671</ele>
        <time>2019-06-17T07:51:47Z</time>
      </trkpt>
      <trkpt lat="44.24698" lon="5.70829">
        <ele>671</ele>
        <time>2019-06-17T07:51:48Z</time>
      </trkpt>
      <trkpt lat="44.24694" lon="5.70826">
        <ele>671</ele>
        <time>2019-06-17T07:51:49Z</time>
      </trkpt>
      <trkpt lat="44.24689" lon="5.70823">
        <ele>671</ele>
        <time>2019-06-17T07:51:50Z</time>
      </trkpt>
      <trkpt lat="44.24685" lon="5.7082">
        <ele>671</ele>
        <time>2019-06-17T07:51:51Z</time>
      </trkpt>
      <trkpt lat="44.24681" lon="5.70817">
        <ele>671</ele>
        <time>2019-06-17T07:51:52Z</time>
      </trkpt>
      <trkpt lat="44.24677" lon="5.70814">
        <ele>671</ele>
        <time>2019-06-17T07:51:53Z</time>
      </trkpt>
      <trkpt lat="44.24673" lon="5.70811">
        <ele>671</ele>
        <time>2019-06-17T07:51:54Z</time>
      </trkpt>
      <trkpt lat="44.2467" lon="5.70806">
        <ele>671</ele>
        <time>2019-06-17T07:51:55Z</time>
      </trkpt>
      <trkpt lat="44.24666" lon="5.70802">
        <ele>671</ele>
        <time>2019-06-17T07:51:56Z</time>
      </trkpt>
      <trkpt lat="44.24663" lon="5.70797">
        <ele>671</ele>
        <time>2019-06-17T07:51:57Z</time>
      </trkpt>
      <trkpt lat="44.2466" lon="5.70792">
        <ele>671</ele>
        <time>2019-06-17T07:51:58Z</time>
      </trkpt>
      <trkpt lat="44.24657" lon="5.70787">
        <ele>672</ele>
        <time>2019-06-17T07:51:59Z</time>
      </trkpt>
      <trkpt lat="44.24655" lon="5.70782">
        <ele>672</ele>
        <time>2019-06-17T07:52:00Z</time>
      </trkpt>
      <trkpt lat="44.24652" lon="5.70776">
        <ele>673</ele>
        <time>2019-06-17T07:52:01Z</time>
      </trkpt>
      <trkpt lat="44.24649" lon="5.7077">
        <ele>673</ele>
        <time>2019-06-17T07:52:02Z</time>
      </trkpt>
      <trkpt lat="44.24647" lon="5.70764">
        <ele>673</ele>
        <time>2019-06-17T07:52:03Z</time>
      </trkpt>
      <trkpt lat="44.24644" lon="5.70758">
        <ele>673</ele>
        <time>2019-06-17T07:52:04Z</time>
      </trkpt>
      <trkpt lat="44.24641" lon="5.70752">
        <ele>674</ele>
        <time>2019-06-17T07:52:05Z</time>
      </trkpt>
      <trkpt lat="44.24638" lon="5.70745">
        <ele>674</ele>
        <time>2019-06-17T07:52:06Z</time>
      </trkpt>
      <trkpt lat="44.24635" lon="5.70738">
        <ele>674</ele>
        <time>2019-06-17T07:52:07Z</time>
      </trkpt>
      <trkpt lat="44.24631" lon="5.70731">
        <ele>674</ele>
        <time>2019-06-17T07:52:08Z</time>
      </trkpt>
      <trkpt lat="44.24627" lon="5.70724">
        <ele>674</ele>
        <time>2019-06-17T07:52:09Z</time>
      </trkpt>
      <trkpt lat="44.24625" lon="5.70717">
        <ele>674</ele>
        <time>2019-06-17T07:52:10Z</time>
      </trkpt>
      <trkpt lat="44.24624" lon="5.7071">
        <ele>674</ele>
        <time>2019-06-17T07:52:11Z</time>
      </trkpt>
      <trkpt lat="44.24625" lon="5.70703">
        <ele>674</ele>
        <time>2019-06-17T07:52:12Z</time>
      </trkpt>
      <trkpt lat="44.24629" lon="5.70697">
        <ele>674</ele>
        <time>2019-06-17T07:52:13Z</time>
      </trkpt>
      <trkpt lat="44.24635" lon="5.70694">
        <ele>674</ele>
        <time>2019-06-17T07:52:14Z</time>
      </trkpt>
      <trkpt lat="44.24642" lon="5.70692">
        <ele>674</ele>
        <time>2019-06-17T07:52:15Z</time>
      </trkpt>
      <trkpt lat="44.2465" lon="5.70692">
        <ele>674</ele>
        <time>2019-06-17T07:52:16Z</time>
      </trkpt>
      <trkpt lat="44.24657" lon="5.70692">
        <ele>674</ele>
        <time>2019-06-17T07:52:17Z</time>
      </trkpt>
      <trkpt lat="44.24665" lon="5.70692">
        <ele>674</ele>
        <time>2019-06-17T07:52:18Z</time>
      </trkpt>
      <trkpt lat="44.24674" lon="5.70691">
        <ele>674</ele>
        <time>2019-06-17T07:52:19Z</time>
      </trkpt>
      <trkpt lat="44.24682" lon="5.7069">
        <ele>674</ele>
        <time>2019-06-17T07:52:20Z</time>
      </trkpt>
      <trkpt lat="44.24691" lon="5.7069">
        <ele>674</ele>
        <time>2019-06-17T07:52:21Z</time>
      </trkpt>
      <trkpt lat="44.247" lon="5.70688">
        <ele>674</ele>
        <time>2019-06-17T07:52:22Z</time>
      </trkpt>
      <trkpt lat="44.24709" lon="5.70687">
        <ele>674</ele>
        <time>2019-06-17T07:52:23Z</time>
      </trkpt>
      <trkpt lat="44.24717" lon="5.70686">
        <ele>674</ele>
        <time>2019-06-17T07:52:24Z</time>
      </trkpt>
      <trkpt lat="44.24726" lon="5.70684">
        <ele>674</ele>
        <time>2019-06-17T07:52:25Z</time>
      </trkpt>
      <trkpt lat="44.24734" lon="5.70683">
        <ele>673</ele>
        <time>2019-06-17T07:52:26Z</time>
      </trkpt>
      <trkpt lat="44.24741" lon="5.70682">
        <ele>673</ele>
        <time>2019-06-17T07:52:27Z</time>
      </trkpt>
      <trkpt lat="44.24747" lon="5.70679">
        <ele>673</ele>
        <time>2019-06-17T07:52:28Z</time>
      </trkpt>
      <trkpt lat="44.24752" lon="5.70675">
        <ele>672</ele>
        <time>2019-06-17T07:52:29Z</time>
      </trkpt>
      <trkpt lat="44.24756" lon="5.70668">
        <ele>672</ele>
        <time>2019-06-17T07:52:30Z</time>
      </trkpt>
      <trkpt lat="44.24757" lon="5.70658">
        <ele>671</ele>
        <time>2019-06-17T07:52:31Z</time>
      </trkpt>
      <trkpt lat="44.24755" lon="5.70649">
        <ele>670</ele>
        <time>2019-06-17T07:52:32Z</time>
      </trkpt>
      <trkpt lat="44.24752" lon="5.70639">
        <ele>670</ele>
        <time>2019-06-17T07:52:33Z</time>
      </trkpt>
      <trkpt lat="44.2475" lon="5.7063">
        <ele>669</ele>
        <time>2019-06-17T07:52:34Z</time>
      </trkpt>
      <trkpt lat="44.24746" lon="5.7062">
        <ele>668</ele>
        <time>2019-06-17T07:52:35Z</time>
      </trkpt>
      <trkpt lat="44.24741" lon="5.70611">
        <ele>667</ele>
        <time>2019-06-17T07:52:36Z</time>
      </trkpt>
      <trkpt lat="44.24736" lon="5.70604">
        <ele>667</ele>
        <time>2019-06-17T07:52:37Z</time>
      </trkpt>
      <trkpt lat="44.24729" lon="5.70598">
        <ele>667</ele>
        <time>2019-06-17T07:52:38Z</time>
      </trkpt>
      <trkpt lat="44.24723" lon="5.70594">
        <ele>667</ele>
        <time>2019-06-17T07:52:39Z</time>
      </trkpt>
      <trkpt lat="44.24716" lon="5.70591">
        <ele>666</ele>
        <time>2019-06-17T07:52:40Z</time>
      </trkpt>
      <trkpt lat="44.24709" lon="5.70587">
        <ele>666</ele>
        <time>2019-06-17T07:52:41Z</time>
      </trkpt>
      <trkpt lat="44.24702" lon="5.70584">
        <ele>666</ele>
        <time>2019-06-17T07:52:42Z</time>
      </trkpt>
      <trkpt lat="44.24697" lon="5.7058">
        <ele>666</ele>
        <time>2019-06-17T07:52:43Z</time>
      </trkpt>
      <trkpt lat="44.24694" lon="5.70573">
        <ele>666</ele>
        <time>2019-06-17T07:52:44Z</time>
      </trkpt>
      <trkpt lat="44.24693" lon="5.70564">
        <ele>666</ele>
        <time>2019-06-17T07:52:45Z</time>
      </trkpt>
      <trkpt lat="44.24694" lon="5.70555">
        <ele>666</ele>
        <time>2019-06-17T07:52:46Z</time>
      </trkpt>
      <trkpt lat="44.24698" lon="5.70546">
        <ele>665</ele>
        <time>2019-06-17T07:52:47Z</time>
      </trkpt>
      <trkpt lat="44.24703" lon="5.70539">
        <ele>665</ele>
        <time>2019-06-17T07:52:48Z</time>
      </trkpt>
      <trkpt lat="44.24708" lon="5.70533">
        <ele>665</ele>
        <time>2019-06-17T07:52:49Z</time>
      </trkpt>
      <trkpt lat="44.24713" lon="5.70527">
        <ele>664</ele>
        <time>2019-06-17T07:52:50Z</time>
      </trkpt>
      <trkpt lat="44.24719" lon="5.70521">
        <ele>664</ele>
        <time>2019-06-17T07:52:51Z</time>
      </trkpt>
      <trkpt lat="44.24724" lon="5.70515">
        <ele>663</ele>
        <time>2019-06-17T07:52:52Z</time>
      </trkpt>
      <trkpt lat="44.24729" lon="5.70509">
        <ele>663</ele>
        <time>2019-06-17T07:52:53Z</time>
      </trkpt>
      <trkpt lat="44.24734" lon="5.70504">
        <ele>663</ele>
        <time>2019-06-17T07:52:54Z</time>
      </trkpt>
      <trkpt lat="44.2474" lon="5.70498">
        <ele>662</ele>
        <time>2019-06-17T07:52:55Z</time>
      </trkpt>
      <trkpt lat="44.24745" lon="5.70493">
        <ele>662</ele>
        <time>2019-06-17T07:52:56Z</time>
      </trkpt>
      <trkpt lat="44.24751" lon="5.70486">
        <ele>662</ele>
        <time>2019-06-17T07:52:57Z</time>
      </trkpt>
      <trkpt lat="44.24756" lon="5.70479">
        <ele>662</ele>
        <time>2019-06-17T07:52:58Z</time>
      </trkpt>
      <trkpt lat="44.24761" lon="5.70473">
        <ele>661</ele>
        <time>2019-06-17T07:52:59Z</time>
      </trkpt>
      <trkpt lat="44.24767" lon="5.70467">
        <ele>661</ele>
        <time>2019-06-17T07:53:00Z</time>
      </trkpt>
      <trkpt lat="44.24771" lon="5.7046">
        <ele>661</ele>
        <time>2019-06-17T07:53:01Z</time>
      </trkpt>
      <trkpt lat="44.24776" lon="5.70452">
        <ele>661</ele>
        <time>2019-06-17T07:53:02Z</time>
      </trkpt>
      <trkpt lat="44.24781" lon="5.70444">
        <ele>660</ele>
        <time>2019-06-17T07:53:03Z</time>
      </trkpt>
      <trkpt lat="44.24784" lon="5.70435">
        <ele>660</ele>
        <time>2019-06-17T07:53:04Z</time>
      </trkpt>
      <trkpt lat="44.24787" lon="5.70427">
        <ele>660</ele>
        <time>2019-06-17T07:53:05Z</time>
      </trkpt>
      <trkpt lat="44.2479" lon="5.70416">
        <ele>660</ele>
        <time>2019-06-17T07:53:06Z</time>
      </trkpt>
      <trkpt lat="44.24791" lon="5.70406">
        <ele>660</ele>
        <time>2019-06-17T07:53:07Z</time>
      </trkpt>
      <trkpt lat="44.24793" lon="5.70397">
        <ele>660</ele>
        <time>2019-06-17T07:53:08Z</time>
      </trkpt>
      <trkpt lat="44.24794" lon="5.70387">
        <ele>660</ele>
        <time>2019-06-17T07:53:09Z</time>
      </trkpt>
      <trkpt lat="44.24796" lon="5.70378">
        <ele>660</ele>
        <time>2019-06-17T07:53:10Z</time>
      </trkpt>
      <trkpt lat="44.24799" lon="5.70369">
        <ele>660</ele>
        <time>2019-06-17T07:53:11Z</time>
      </trkpt>
      <trkpt lat="44.24802" lon="5.70361">
        <ele>660</ele>
        <time>2019-06-17T07:53:12Z</time>
      </trkpt>
      <trkpt lat="44.24806" lon="5.70353">
        <ele>660</ele>
        <time>2019-06-17T07:53:13Z</time>
      </trkpt>
      <trkpt lat="44.2481" lon="5.70345">
        <ele>660</ele>
        <time>2019-06-17T07:53:14Z</time>
      </trkpt>
      <trkpt lat="44.24815" lon="5.70338">
        <ele>660</ele>
        <time>2019-06-17T07:53:15Z</time>
      </trkpt>
      <trkpt lat="44.24819" lon="5.70331">
        <ele>660</ele>
        <time>2019-06-17T07:53:16Z</time>
      </trkpt>
      <trkpt lat="44.24823" lon="5.70324">
        <ele>660</ele>
        <time>2019-06-17T07:53:17Z</time>
      </trkpt>
      <trkpt lat="44.24828" lon="5.70316">
        <ele>660</ele>
        <time>2019-06-17T07:53:18Z</time>
      </trkpt>
      <trkpt lat="44.24832" lon="5.70308">
        <ele>660</ele>
        <time>2019-06-17T07:53:19Z</time>
      </trkpt>
      <trkpt lat="44.24835" lon="5.70301">
        <ele>660</ele>
        <time>2019-06-17T07:53:20Z</time>
      </trkpt>
      <trkpt lat="44.24839" lon="5.70293">
        <ele>660</ele>
        <time>2019-06-17T07:53:21Z</time>
      </trkpt>
      <trkpt lat="44.24842" lon="5.70285">
        <ele>660</ele>
        <time>2019-06-17T07:53:22Z</time>
      </trkpt>
      <trkpt lat="44.24844" lon="5.70277">
        <ele>660</ele>
        <time>2019-06-17T07:53:23Z</time>
      </trkpt>
      <trkpt lat="44.24846" lon="5.70268">
        <ele>660</ele>
        <time>2019-06-17T07:53:24Z</time>
      </trkpt>
      <trkpt lat="44.24848" lon="5.7026">
        <ele>660</ele>
        <time>2019-06-17T07:53:25Z</time>
      </trkpt>
      <trkpt lat="44.2485" lon="5.70252">
        <ele>660</ele>
        <time>2019-06-17T07:53:26Z</time>
      </trkpt>
      <trkpt lat="44.24851" lon="5.70244">
        <ele>660</ele>
        <time>2019-06-17T07:53:27Z</time>
      </trkpt>
      <trkpt lat="44.24853" lon="5.70236">
        <ele>660</ele>
        <time>2019-06-17T07:53:28Z</time>
      </trkpt>
      <trkpt lat="44.24854" lon="5.70227">
        <ele>660</ele>
        <time>2019-06-17T07:53:29Z</time>
      </trkpt>
      <trkpt lat="44.24854" lon="5.70219">
        <ele>660</ele>
        <time>2019-06-17T07:53:30Z</time>
      </trkpt>
      <trkpt lat="44.24854" lon="5.70211">
        <ele>660</ele>
        <time>2019-06-17T07:53:31Z</time>
      </trkpt>
      <trkpt lat="44.24854" lon="5.70201">
        <ele>660</ele>
        <time>2019-06-17T07:53:32Z</time>
      </trkpt>
      <trkpt lat="44.24853" lon="5.70192">
        <ele>660</ele>
        <time>2019-06-17T07:53:33Z</time>
      </trkpt>
      <trkpt lat="44.24853" lon="5.70184">
        <ele>660</ele>
        <time>2019-06-17T07:53:34Z</time>
      </trkpt>
      <trkpt lat="44.24852" lon="5.70175">
        <ele>660</ele>
        <time>2019-06-17T07:53:35Z</time>
      </trkpt>
      <trkpt lat="44.24852" lon="5.70167">
        <ele>660</ele>
        <time>2019-06-17T07:53:36Z</time>
      </trkpt>
      <trkpt lat="44.24852" lon="5.70159">
        <ele>660</ele>
        <time>2019-06-17T07:53:37Z</time>
      </trkpt>
      <trkpt lat="44.24852" lon="5.7015">
        <ele>660</ele>
        <time>2019-06-17T07:53:38Z</time>
      </trkpt>
      <trkpt lat="44.24851" lon="5.70142">
        <ele>660</ele>
        <time>2019-06-17T07:53:39Z</time>
      </trkpt>
      <trkpt lat="44.2485" lon="5.70133">
        <ele>660</ele>
        <time>2019-06-17T07:53:40Z</time>
      </trkpt>
      <trkpt lat="44.24848" lon="5.70125">
        <ele>660</ele>
        <time>2019-06-17T07:53:41Z</time>
      </trkpt>
      <trkpt lat="44.24846" lon="5.70117">
        <ele>660</ele>
        <time>2019-06-17T07:53:42Z</time>
      </trkpt>
      <trkpt lat="44.24844" lon="5.7011">
        <ele>660</ele>
        <time>2019-06-17T07:53:43Z</time>
      </trkpt>
      <trkpt lat="44.24842" lon="5.70103">
        <ele>660</ele>
        <time>2019-06-17T07:53:44Z</time>
      </trkpt>
      <trkpt lat="44.24839" lon="5.70097">
        <ele>660</ele>
        <time>2019-06-17T07:53:45Z</time>
      </trkpt>
      <trkpt lat="44.24835" lon="5.70091">
        <ele>660</ele>
        <time>2019-06-17T07:53:46Z</time>
      </trkpt>
      <trkpt lat="44.24831" lon="5.70085">
        <ele>660</ele>
        <time>2019-06-17T07:53:47Z</time>
      </trkpt>
      <trkpt lat="44.24827" lon="5.7008">
        <ele>660</ele>
        <time>2019-06-17T07:53:48Z</time>
      </trkpt>
      <trkpt lat="44.24823" lon="5.70074">
        <ele>660</ele>
        <time>2019-06-17T07:53:49Z</time>
      </trkpt>
      <trkpt lat="44.24819" lon="5.70069">
        <ele>660</ele>
        <time>2019-06-17T07:53:50Z</time>
      </trkpt>
      <trkpt lat="44.24815" lon="5.70063">
        <ele>660</ele>
        <time>2019-06-17T07:53:51Z</time>
      </trkpt>
      <trkpt lat="44.24811" lon="5.70058">
        <ele>660</ele>
        <time>2019-06-17T07:53:52Z</time>
      </trkpt>
      <trkpt lat="44.24806" lon="5.70053">
        <ele>660</ele>
        <time>2019-06-17T07:53:53Z</time>
      </trkpt>
      <trkpt lat="44.24802" lon="5.70048">
        <ele>660</ele>
        <time>2019-06-17T07:53:54Z</time>
      </trkpt>
      <trkpt lat="44.24797" lon="5.70043">
        <ele>660</ele>
        <time>2019-06-17T07:53:55Z</time>
      </trkpt>
      <trkpt lat="44.24793" lon="5.70038">
        <ele>660</ele>
        <time>2019-06-17T07:53:56Z</time>
      </trkpt>
      <trkpt lat="44.24788" lon="5.70032">
        <ele>660</ele>
        <time>2019-06-17T07:53:57Z</time>
      </trkpt>
      <trkpt lat="44.24783" lon="5.70026">
        <ele>660</ele>
        <time>2019-06-17T07:53:58Z</time>
      </trkpt>
      <trkpt lat="44.24779" lon="5.70021">
        <ele>660</ele>
        <time>2019-06-17T07:53:59Z</time>
      </trkpt>
      <trkpt lat="44.24775" lon="5.70015">
        <ele>660</ele>
        <time>2019-06-17T07:54:00Z</time>
      </trkpt>
      <trkpt lat="44.24771" lon="5.70009">
        <ele>660</ele>
        <time>2019-06-17T07:54:01Z</time>
      </trkpt>
      <trkpt lat="44.24767" lon="5.70003">
        <ele>660</ele>
        <time>2019-06-17T07:54:02Z</time>
      </trkpt>
      <trkpt lat="44.24764" lon="5.69997">
        <ele>660</ele>
        <time>2019-06-17T07:54:03Z</time>
      </trkpt>
      <trkpt lat="44.2476" lon="5.6999">
        <ele>660</ele>
        <time>2019-06-17T07:54:04Z</time>
      </trkpt>
      <trkpt lat="44.24757" lon="5.69984">
        <ele>660</ele>
        <time>2019-06-17T07:54:05Z</time>
      </trkpt>
      <trkpt lat="44.24754" lon="5.69977">
        <ele>660</ele>
        <time>2019-06-17T07:54:06Z</time>
      </trkpt>
      <trkpt lat="44.24751" lon="5.6997">
        <ele>660</ele>
        <time>2019-06-17T07:54:07Z</time>
      </trkpt>
      <trkpt lat="44.24748" lon="5.69964">
        <ele>660</ele>
        <time>2019-06-17T07:54:08Z</time>
      </trkpt>
      <trkpt lat="44.24745" lon="5.69957">
        <ele>660</ele>
        <time>2019-06-17T07:54:09Z</time>
      </trkpt>
      <trkpt lat="44.24742" lon="5.6995">
        <ele>660</ele>
        <time>2019-06-17T07:54:10Z</time>
      </trkpt>
      <trkpt lat="44.24739" lon="5.69943">
        <ele>660</ele>
        <time>2019-06-17T07:54:11Z</time>
      </trkpt>
      <trkpt lat="44.24736" lon="5.69936">
        <ele>660</ele>
        <time>2019-06-17T07:54:12Z</time>
      </trkpt>
      <trkpt lat="44.24734" lon="5.69929">
        <ele>660</ele>
        <time>2019-06-17T07:54:13Z</time>
      </trkpt>
      <trkpt lat="44.24731" lon="5.69922">
        <ele>660</ele>
        <time>2019-06-17T07:54:14Z</time>
      </trkpt>
      <trkpt lat="44.24728" lon="5.69916">
        <ele>660</ele>
        <time>2019-06-17T07:54:15Z</time>
      </trkpt>
      <trkpt lat="44.24726" lon="5.69909">
        <ele>660</ele>
        <time>2019-06-17T07:54:16Z</time>
      </trkpt>
      <trkpt lat="44.24723" lon="5.69902">
        <ele>660</ele>
        <time>2019-06-17T07:54:17Z</time>
      </trkpt>
      <trkpt lat="44.24721" lon="5.69895">
        <ele>660</ele>
        <time>2019-06-17T07:54:18Z</time>
      </trkpt>
      <trkpt lat="44.24718" lon="5.69887">
        <ele>660</ele>
        <time>2019-06-17T07:54:19Z</time>
      </trkpt>
      <trkpt lat="44.24717" lon="5.6988">
        <ele>660</ele>
        <time>2019-06-17T07:54:20Z</time>
      </trkpt>
      <trkpt lat="44.24716" lon="5.69871">
        <ele>660</ele>
        <time>2019-06-17T07:54:21Z</time>
      </trkpt>
      <trkpt lat="44.24716" lon="5.69863">
        <ele>660</ele>
        <time>2019-06-17T07:54:22Z</time>
      </trkpt>
      <trkpt lat="44.24716" lon="5.69854">
        <ele>660</ele>
        <time>2019-06-17T07:54:23Z</time>
      </trkpt>
      <trkpt lat="44.24717" lon="5.69846">
        <ele>660</ele>
        <time>2019-06-17T07:54:24Z</time>
      </trkpt>
      <trkpt lat="44.24718" lon="5.69838">
        <ele>660</ele>
        <time>2019-06-17T07:54:25Z</time>
      </trkpt>
      <trkpt lat="44.2472" lon="5.6983">
        <ele>660</ele>
        <time>2019-06-17T07:54:26Z</time>
      </trkpt>
      <trkpt lat="44.24721" lon="5.69821">
        <ele>660</ele>
        <time>2019-06-17T07:54:27Z</time>
      </trkpt>
      <trkpt lat="44.24723" lon="5.69813">
        <ele>660</ele>
        <time>2019-06-17T07:54:28Z</time>
      </trkpt>
      <trkpt lat="44.24725" lon="5.69804">
        <ele>660</ele>
        <time>2019-06-17T07:54:29Z</time>
      </trkpt>
      <trkpt lat="44.24726" lon="5.69796">
        <ele>660</ele>
        <time>2019-06-17T07:54:30Z</time>
      </trkpt>
      <trkpt lat="44.24728" lon="5.69788">
        <ele>660</ele>
        <time>2019-06-17T07:54:31Z</time>
      </trkpt>
      <trkpt lat="44.24729" lon="5.69779">
        <ele>660</ele>
        <time>2019-06-17T07:54:32Z</time>
      </trkpt>
      <trkpt lat="44.2473" lon="5.6977">
        <ele>660</ele>
        <time>2019-06-17T07:54:33Z</time>
      </trkpt>
      <trkpt lat="44.24731" lon="5.69762">
        <ele>660</ele>
        <time>2019-06-17T07:54:34Z</time>
      </trkpt>
      <trkpt lat="44.24733" lon="5.69753">
        <ele>660</ele>
        <time>2019-06-17T07:54:35Z</time>
      </trkpt>
      <trkpt lat="44.24734" lon="5.69745">
        <ele>660</ele>
        <time>2019-06-17T07:54:36Z</time>
      </trkpt>
      <trkpt lat="44.24736" lon="5.69737">
        <ele>660</ele>
        <time>2019-06-17T07:54:37Z</time>
      </trkpt>
      <trkpt lat="44.24738" lon="5.69728">
        <ele>660</ele>
        <time>2019-06-17T07:54:38Z</time>
      </trkpt>
      <trkpt lat="44.24739" lon="5.6972">
        <ele>660</ele>
        <time>2019-06-17T07:54:39Z</time>
      </trkpt>
      <trkpt lat="44.24741" lon="5.69712">
        <ele>660</ele>
        <time>2019-06-17T07:54:40Z</time>
      </trkpt>
      <trkpt lat="44.24744" lon="5.69704">
        <ele>660</ele>
        <time>2019-06-17T07:54:41Z</time>
      </trkpt>
      <trkpt lat="44.24746" lon="5.69696">
        <ele>660</ele>
        <time>2019-06-17T07:54:42Z</time>
      </trkpt>
      <trkpt lat="44.24749" lon="5.69687">
        <ele>660</ele>
        <time>2019-06-17T07:54:43Z</time>
      </trkpt>
      <trkpt lat="44.24752" lon="5.69679">
        <ele>660</ele>
        <time>2019-06-17T07:54:44Z</time>
      </trkpt>
      <trkpt lat="44.24755" lon="5.69672">
        <ele>660</ele>
        <time>2019-06-17T07:54:45Z</time>
      </trkpt>
      <trkpt lat="44.24758" lon="5.69665">
        <ele>660</ele>
        <time>2019-06-17T07:54:46Z</time>
      </trkpt>
      <trkpt lat="44.24761" lon="5.69657">
        <ele>659</ele>
        <time>2019-06-17T07:54:47Z</time>
      </trkpt>
      <trkpt lat="44.24764" lon="5.69649">
        <ele>659</ele>
        <time>2019-06-17T07:54:48Z</time>
      </trkpt>
      <trkpt lat="44.24767" lon="5.69641">
        <ele>659</ele>
        <time>2019-06-17T07:54:49Z</time>
      </trkpt>
      <trkpt lat="44.2477" lon="5.69632">
        <ele>659</ele>
        <time>2019-06-17T07:54:50Z</time>
      </trkpt>
      <trkpt lat="44.24772" lon="5.69624">
        <ele>658</ele>
        <time>2019-06-17T07:54:51Z</time>
      </trkpt>
      <trkpt lat="44.24774" lon="5.69616">
        <ele>658</ele>
        <time>2019-06-17T07:54:52Z</time>
      </trkpt>
      <trkpt lat="44.24776" lon="5.69608">
        <ele>658</ele>
        <time>2019-06-17T07:54:53Z</time>
      </trkpt>
      <trkpt lat="44.24778" lon="5.696">
        <ele>658</ele>
        <time>2019-06-17T07:54:54Z</time>
      </trkpt>
      <trkpt lat="44.24781" lon="5.69592">
        <ele>658</ele>
        <time>2019-06-17T07:54:55Z</time>
      </trkpt>
      <trkpt lat="44.24783" lon="5.69584">
        <ele>658</ele>
        <time>2019-06-17T07:54:56Z</time>
      </trkpt>
      <trkpt lat="44.24785" lon="5.69575">
        <ele>658</ele>
        <time>2019-06-17T07:54:57Z</time>
      </trkpt>
      <trkpt lat="44.24787" lon="5.69567">
        <ele>658</ele>
        <time>2019-06-17T07:54:58Z</time>
      </trkpt>
      <trkpt lat="44.24789" lon="5.69559">
        <ele>658</ele>
        <time>2019-06-17T07:54:59Z</time>
      </trkpt>
      <trkpt lat="44.24791" lon="5.69551">
        <ele>658</ele>
        <time>2019-06-17T07:55:00Z</time>
      </trkpt>
      <trkpt lat="44.24792" lon="5.69543">
        <ele>658</ele>
        <time>2019-06-17T07:55:01Z</time>
      </trkpt>
      <trkpt lat="44.24794" lon="5.69535">
        <ele>658</ele>
        <time>2019-06-17T07:55:02Z</time>
      </trkpt>
      <trkpt lat="44.24796" lon="5.69526">
        <ele>658</ele>
        <time>2019-06-17T07:55:03Z</time>
      </trkpt>
      <trkpt lat="44.24797" lon="5.69518">
        <ele>658</ele>
        <time>2019-06-17T07:55:04Z</time>
      </trkpt>
      <trkpt lat="44.24798" lon="5.6951">
        <ele>658</ele>
        <time>2019-06-17T07:55:05Z</time>
      </trkpt>
      <trkpt lat="44.24798" lon="5.69503">
        <ele>658</ele>
        <time>2019-06-17T07:55:06Z</time>
      </trkpt>
      <trkpt lat="44.24799" lon="5.69495">
        <ele>658</ele>
        <time>2019-06-17T07:55:07Z</time>
      </trkpt>
      <trkpt lat="44.24799" lon="5.69487">
        <ele>658</ele>
        <time>2019-06-17T07:55:08Z</time>
      </trkpt>
      <trkpt lat="44.248" lon="5.6948">
        <ele>658</ele>
        <time>2019-06-17T07:55:09Z</time>
      </trkpt>
      <trkpt lat="44.248" lon="5.69472">
        <ele>658</ele>
        <time>2019-06-17T07:55:10Z</time>
      </trkpt>
      <trkpt lat="44.24799" lon="5.69464">
        <ele>658</ele>
        <time>2019-06-17T07:55:11Z</time>
      </trkpt>
      <trkpt lat="44.24798" lon="5.69457">
        <ele>658</ele>
        <time>2019-06-17T07:55:12Z</time>
      </trkpt>
      <trkpt lat="44.24797" lon="5.6945">
        <ele>658</ele>
        <time>2019-06-17T07:55:13Z</time>
      </trkpt>
      <trkpt lat="44.24796" lon="5.69443">
        <ele>659</ele>
        <time>2019-06-17T07:55:14Z</time>
      </trkpt>
      <trkpt lat="44.24794" lon="5.69436">
        <ele>659</ele>
        <time>2019-06-17T07:55:15Z</time>
      </trkpt>
      <trkpt lat="44.24793" lon="5.69428">
        <ele>659</ele>
        <time>2019-06-17T07:55:16Z</time>
      </trkpt>
      <trkpt lat="44.24791" lon="5.6942">
        <ele>659</ele>
        <time>2019-06-17T07:55:17Z</time>
      </trkpt>
      <trkpt lat="44.2479" lon="5.69412">
        <ele>659</ele>
        <time>2019-06-17T07:55:18Z</time>
      </trkpt>
      <trkpt lat="44.24788" lon="5.69404">
        <ele>659</ele>
        <time>2019-06-17T07:55:19Z</time>
      </trkpt>
      <trkpt lat="44.24786" lon="5.69395">
        <ele>660</ele>
        <time>2019-06-17T07:55:20Z</time>
      </trkpt>
      <trkpt lat="44.24783" lon="5.69387">
        <ele>660</ele>
        <time>2019-06-17T07:55:21Z</time>
      </trkpt>
      <trkpt lat="44.24781" lon="5.69379">
        <ele>660</ele>
        <time>2019-06-17T07:55:22Z</time>
      </trkpt>
      <trkpt lat="44.24778" lon="5.6937">
        <ele>661</ele>
        <time>2019-06-17T07:55:23Z</time>
      </trkpt>
      <trkpt lat="44.24776" lon="5.69361">
        <ele>662</ele>
        <time>2019-06-17T07:55:24Z</time>
      </trkpt>
      <trkpt lat="44.24774" lon="5.69353">
        <ele>662</ele>
        <time>2019-06-17T07:55:25Z</time>
      </trkpt>
      <trkpt lat="44.24771" lon="5.69344">
        <ele>663</ele>
        <time>2019-06-17T07:55:26Z</time>
      </trkpt>
      <trkpt lat="44.24768" lon="5.69336">
        <ele>664</ele>
        <time>2019-06-17T07:55:27Z</time>
      </trkpt>
      <trkpt lat="44.24765" lon="5.69327">
        <ele>664</ele>
        <time>2019-06-17T07:55:28Z</time>
      </trkpt>
      <trkpt lat="44.24761" lon="5.69319">
        <ele>664</ele>
        <time>2019-06-17T07:55:29Z</time>
      </trkpt>
      <trkpt lat="44.24757" lon="5.69311">
        <ele>665</ele>
        <time>2019-06-17T07:55:30Z</time>
      </trkpt>
      <trkpt lat="44.24754" lon="5.69303">
        <ele>665</ele>
        <time>2019-06-17T07:55:31Z</time>
      </trkpt>
      <trkpt lat="44.24751" lon="5.69295">
        <ele>665</ele>
        <time>2019-06-17T07:55:32Z</time>
      </trkpt>
      <trkpt lat="44.24747" lon="5.69287">
        <ele>665</ele>
        <time>2019-06-17T07:55:33Z</time>
      </trkpt>
      <trkpt lat="44.24743" lon="5.69279">
        <ele>666</ele>
        <time>2019-06-17T07:55:34Z</time>
      </trkpt>
      <trkpt lat="44.24739" lon="5.69271">
        <ele>666</ele>
        <time>2019-06-17T07:55:35Z</time>
      </trkpt>
      <trkpt lat="44.24736" lon="5.69263">
        <ele>667</ele>
        <time>2019-06-17T07:55:36Z</time>
      </trkpt>
      <trkpt lat="44.24732" lon="5.69254">
        <ele>667</ele>
        <time>2019-06-17T07:55:37Z</time>
      </trkpt>
      <trkpt lat="44.24729" lon="5.69246">
        <ele>668</ele>
        <time>2019-06-17T07:55:38Z</time>
      </trkpt>
      <trkpt lat="44.24725" lon="5.69239">
        <ele>668</ele>
        <time>2019-06-17T07:55:39Z</time>
      </trkpt>
      <trkpt lat="44.24722" lon="5.69231">
        <ele>668</ele>
        <time>2019-06-17T07:55:40Z</time>
      </trkpt>
      <trkpt lat="44.24718" lon="5.69223">
        <ele>668</ele>
        <time>2019-06-17T07:55:41Z</time>
      </trkpt>
      <trkpt lat="44.24714" lon="5.69216">
        <ele>668</ele>
        <time>2019-06-17T07:55:42Z</time>
      </trkpt>
      <trkpt lat="44.2471" lon="5.69208">
        <ele>668</ele>
        <time>2019-06-17T07:55:43Z</time>
      </trkpt>
      <trkpt lat="44.24707" lon="5.692">
        <ele>668</ele>
        <time>2019-06-17T07:55:44Z</time>
      </trkpt>
      <trkpt lat="44.24704" lon="5.69192">
        <ele>668</ele>
        <time>2019-06-17T07:55:45Z</time>
      </trkpt>
      <trkpt lat="44.247" lon="5.69185">
        <ele>668</ele>
        <time>2019-06-17T07:55:46Z</time>
      </trkpt>
      <trkpt lat="44.24696" lon="5.69177">
        <ele>668</ele>
        <time>2019-06-17T07:55:47Z</time>
      </trkpt>
      <trkpt lat="44.24693" lon="5.69169">
        <ele>668</ele>
        <time>2019-06-17T07:55:48Z</time>
      </trkpt>
      <trkpt lat="44.24689" lon="5.69161">
        <ele>668</ele>
        <time>2019-06-17T07:55:49Z</time>
      </trkpt>
      <trkpt lat="44.24686" lon="5.69152">
        <ele>668</ele>
        <time>2019-06-17T07:55:50Z</time>
      </trkpt>
      <trkpt lat="44.24683" lon="5.69143">
        <ele>668</ele>
        <time>2019-06-17T07:55:51Z</time>
      </trkpt>
      <trkpt lat="44.2468" lon="5.69134">
        <ele>668</ele>
        <time>2019-06-17T07:55:52Z</time>
      </trkpt>
      <trkpt lat="44.24678" lon="5.69125">
        <ele>668</ele>
        <time>2019-06-17T07:55:53Z</time>
      </trkpt>
      <trkpt lat="44.24676" lon="5.69116">
        <ele>668</ele>
        <time>2019-06-17T07:55:54Z</time>
      </trkpt>
      <trkpt lat="44.24674" lon="5.69106">
        <ele>668</ele>
        <time>2019-06-17T07:55:55Z</time>
      </trkpt>
      <trkpt lat="44.24672" lon="5.69097">
        <ele>668</ele>
        <time>2019-06-17T07:55:56Z</time>
      </trkpt>
      <trkpt lat="44.24671" lon="5.69087">
        <ele>668</ele>
        <time>2019-06-17T07:55:57Z</time>
      </trkpt>
      <trkpt lat="44.24669" lon="5.69078">
        <ele>668</ele>
        <time>2019-06-17T07:55:58Z</time>
      </trkpt>
      <trkpt lat="44.24668" lon="5.69068">
        <ele>668</ele>
        <time>2019-06-17T07:55:59Z</time>
      </trkpt>
      <trkpt lat="44.24667" lon="5.69059">
        <ele>668</ele>
        <time>2019-06-17T07:56:00Z</time>
      </trkpt>
      <trkpt lat="44.24665" lon="5.69049">
        <ele>668</ele>
        <time>2019-06-17T07:56:01Z</time>
      </trkpt>
      <trkpt lat="44.24664" lon="5.69039">
        <ele>668</ele>
        <time>2019-06-17T07:56:02Z</time>
      </trkpt>
      <trkpt lat="44.24663" lon="5.6903">
        <ele>668</ele>
        <time>2019-06-17T07:56:03Z</time>
      </trkpt>
      <trkpt lat="44.24662" lon="5.69021">
        <ele>668</ele>
        <time>2019-06-17T07:56:04Z</time>
      </trkpt>
      <trkpt lat="44.2466" lon="5.69011">
        <ele>668</ele>
        <time>2019-06-17T07:56:05Z</time>
      </trkpt>
      <trkpt lat="44.24659" lon="5.69002">
        <ele>668</ele>
        <time>2019-06-17T07:56:06Z</time>
      </trkpt>
      <trkpt lat="44.24659" lon="5.68992">
        <ele>668</ele>
        <time>2019-06-17T07:56:07Z</time>
      </trkpt>
      <trkpt lat="44.24657" lon="5.68983">
        <ele>668</ele>
        <time>2019-06-17T07:56:08Z</time>
      </trkpt>
      <trkpt lat="44.24657" lon="5.68973">
        <ele>668</ele>
        <time>2019-06-17T07:56:09Z</time>
      </trkpt>
      <trkpt lat="44.24656" lon="5.68963">
        <ele>668</ele>
        <time>2019-06-17T07:56:10Z</time>
      </trkpt>
      <trkpt lat="44.24655" lon="5.68954">
        <ele>668</ele>
        <time>2019-06-17T07:56:11Z</time>
      </trkpt>
      <trkpt lat="44.24654" lon="5.68944">
        <ele>668</ele>
        <time>2019-06-17T07:56:12Z</time>
      </trkpt>
      <trkpt lat="44.24653" lon="5.68934">
        <ele>668</ele>
        <time>2019-06-17T07:56:13Z</time>
      </trkpt>
      <trkpt lat="44.24652" lon="5.68925">
        <ele>668</ele>
        <time>2019-06-17T07:56:14Z</time>
      </trkpt>
      <trkpt lat="44.24651" lon="5.68915">
        <ele>668</ele>
        <time>2019-06-17T07:56:15Z</time>
      </trkpt>
      <trkpt lat="44.2465" lon="5.68905">
        <ele>668</ele>
        <time>2019-06-17T07:56:16Z</time>
      </trkpt>
      <trkpt lat="44.24649" lon="5.68896">
        <ele>668</ele>
        <time>2019-06-17T07:56:17Z</time>
      </trkpt>
      <trkpt lat="44.24648" lon="5.68887">
        <ele>668</ele>
        <time>2019-06-17T07:56:18Z</time>
      </trkpt>
      <trkpt lat="44.24647" lon="5.68878">
        <ele>668</ele>
        <time>2019-06-17T07:56:19Z</time>
      </trkpt>
      <trkpt lat="44.24646" lon="5.68868">
        <ele>668</ele>
        <time>2019-06-17T07:56:20Z</time>
      </trkpt>
      <trkpt lat="44.24645" lon="5.68859">
        <ele>668</ele>
        <time>2019-06-17T07:56:21Z</time>
      </trkpt>
      <trkpt lat="44.24644" lon="5.68849">
        <ele>668</ele>
        <time>2019-06-17T07:56:22Z</time>
      </trkpt>
      <trkpt lat="44.24643" lon="5.6884">
        <ele>668</ele>
        <time>2019-06-17T07:56:23Z</time>
      </trkpt>
      <trkpt lat="44.24642" lon="5.6883">
        <ele>668</ele>
        <time>2019-06-17T07:56:24Z</time>
      </trkpt>
      <trkpt lat="44.24641" lon="5.6882">
        <ele>668</ele>
        <time>2019-06-17T07:56:25Z</time>
      </trkpt>
      <trkpt lat="44.2464" lon="5.6881">
        <ele>668</ele>
        <time>2019-06-17T07:56:26Z</time>
      </trkpt>
      <trkpt lat="44.24639" lon="5.688">
        <ele>668</ele>
        <time>2019-06-17T07:56:27Z</time>
      </trkpt>
      <trkpt lat="44.24638" lon="5.6879">
        <ele>668</ele>
        <time>2019-06-17T07:56:28Z</time>
      </trkpt>
      <trkpt lat="44.24637" lon="5.68781">
        <ele>668</ele>
        <time>2019-06-17T07:56:29Z</time>
      </trkpt>
      <trkpt lat="44.24636" lon="5.68771">
        <ele>668</ele>
        <time>2019-06-17T07:56:30Z</time>
      </trkpt>
      <trkpt lat="44.24635" lon="5.68761">
        <ele>668</ele>
        <time>2019-06-17T07:56:31Z</time>
      </trkpt>
      <trkpt lat="44.24633" lon="5.68751">
        <ele>668</ele>
        <time>2019-06-17T07:56:32Z</time>
      </trkpt>
      <trkpt lat="44.24632" lon="5.68742">
        <ele>668</ele>
        <time>2019-06-17T07:56:33Z</time>
      </trkpt>
      <trkpt lat="44.24631" lon="5.68732">
        <ele>668</ele>
        <time>2019-06-17T07:56:34Z</time>
      </trkpt>
      <trkpt lat="44.2463" lon="5.68722">
        <ele>668</ele>
        <time>2019-06-17T07:56:35Z</time>
      </trkpt>
      <trkpt lat="44.24629" lon="5.68712">
        <ele>668</ele>
        <time>2019-06-17T07:56:36Z</time>
      </trkpt>
      <trkpt lat="44.24628" lon="5.68702">
        <ele>668</ele>
        <time>2019-06-17T07:56:37Z</time>
      </trkpt>
      <trkpt lat="44.24627" lon="5.68692">
        <ele>668</ele>
        <time>2019-06-17T07:56:38Z</time>
      </trkpt>
      <trkpt lat="44.24625" lon="5.68683">
        <ele>668</ele>
        <time>2019-06-17T07:56:39Z</time>
      </trkpt>
      <trkpt lat="44.24625" lon="5.68673">
        <ele>668</ele>
        <time>2019-06-17T07:56:40Z</time>
      </trkpt>
      <trkpt lat="44.24623" lon="5.68664">
        <ele>668</ele>
        <time>2019-06-17T07:56:41Z</time>
      </trkpt>
      <trkpt lat="44.24623" lon="5.68654">
        <ele>668</ele>
        <time>2019-06-17T07:56:42Z</time>
      </trkpt>
      <trkpt lat="44.24622" lon="5.68644">
        <ele>668</ele>
        <time>2019-06-17T07:56:43Z</time>
      </trkpt>
      <trkpt lat="44.24622" lon="5.68635">
        <ele>668</ele>
        <time>2019-06-17T07:56:44Z</time>
      </trkpt>
      <trkpt lat="44.24621" lon="5.68625">
        <ele>668</ele>
        <time>2019-06-17T07:56:45Z</time>
      </trkpt>
      <trkpt lat="44.24621" lon="5.68616">
        <ele>668</ele>
        <time>2019-06-17T07:56:46Z</time>
      </trkpt>
      <trkpt lat="44.2462" lon="5.68607">
        <ele>668</ele>
        <time>2019-06-17T07:56:47Z</time>
      </trkpt>
      <trkpt lat="44.2462" lon="5.68598">
        <ele>668</ele>
        <time>2019-06-17T07:56:48Z</time>
      </trkpt>
      <trkpt lat="44.2462" lon="5.68589">
        <ele>668</ele>
        <time>2019-06-17T07:56:49Z</time>
      </trkpt>
      <trkpt lat="44.24619" lon="5.68581">
        <ele>668</ele>
        <time>2019-06-17T07:56:50Z</time>
      </trkpt>
      <trkpt lat="44.24619" lon="5.68573">
        <ele>668</ele>
        <time>2019-06-17T07:56:51Z</time>
      </trkpt>
      <trkpt lat="44.24619" lon="5.68564">
        <ele>668</ele>
        <time>2019-06-17T07:56:52Z</time>
      </trkpt>
      <trkpt lat="44.24618" lon="5.68555">
        <ele>668</ele>
        <time>2019-06-17T07:56:53Z</time>
      </trkpt>
      <trkpt lat="44.24618" lon="5.68547">
        <ele>668</ele>
        <time>2019-06-17T07:56:54Z</time>
      </trkpt>
      <trkpt lat="44.24618" lon="5.68538">
        <ele>668</ele>
        <time>2019-06-17T07:56:55Z</time>
      </trkpt>
      <trkpt lat="44.24617" lon="5.6853">
        <ele>668</ele>
        <time>2019-06-17T07:56:56Z</time>
      </trkpt>
      <trkpt lat="44.24617" lon="5.68522">
        <ele>668</ele>
        <time>2019-06-17T07:56:57Z</time>
      </trkpt>
      <trkpt lat="44.24617" lon="5.68514">
        <ele>668</ele>
        <time>2019-06-17T07:56:58Z</time>
      </trkpt>
      <trkpt lat="44.24617" lon="5.68506">
        <ele>668</ele>
        <time>2019-06-17T07:56:59Z</time>
      </trkpt>
      <trkpt lat="44.24617" lon="5.68498">
        <ele>668</ele>
        <time>2019-06-17T07:57:00Z</time>
      </trkpt>
      <trkpt lat="44.24616" lon="5.6849">
        <ele>668</ele>
        <time>2019-06-17T07:57:01Z</time>
      </trkpt>
      <trkpt lat="44.24615" lon="5.68482">
        <ele>668</ele>
        <time>2019-06-17T07:57:02Z</time>
      </trkpt>
      <trkpt lat="44.24615" lon="5.68474">
        <ele>668</ele>
        <time>2019-06-17T07:57:03Z</time>
      </trkpt>
      <trkpt lat="44.24614" lon="5.68466">
        <ele>669</ele>
        <time>2019-06-17T07:57:04Z</time>
      </trkpt>
      <trkpt lat="44.24614" lon="5.68458">
        <ele>669</ele>
        <time>2019-06-17T07:57:05Z</time>
      </trkpt>
      <trkpt lat="44.24613" lon="5.68449">
        <ele>669</ele>
        <time>2019-06-17T07:57:06Z</time>
      </trkpt>
      <trkpt lat="44.24612" lon="5.68441">
        <ele>669</ele>
        <time>2019-06-17T07:57:07Z</time>
      </trkpt>
      <trkpt lat="44.24611" lon="5.68433">
        <ele>669</ele>
        <time>2019-06-17T07:57:08Z</time>
      </trkpt>
      <trkpt lat="44.24609" lon="5.68424">
        <ele>669</ele>
        <time>2019-06-17T07:57:09Z</time>
      </trkpt>
      <trkpt lat="44.24607" lon="5.68416">
        <ele>669</ele>
        <time>2019-06-17T07:57:10Z</time>
      </trkpt>
      <trkpt lat="44.24606" lon="5.68408">
        <ele>669</ele>
        <time>2019-06-17T07:57:11Z</time>
      </trkpt>
      <trkpt lat="44.24604" lon="5.684">
        <ele>669</ele>
        <time>2019-06-17T07:57:12Z</time>
      </trkpt>
      <trkpt lat="44.24601" lon="5.68392">
        <ele>670</ele>
        <time>2019-06-17T07:57:13Z</time>
      </trkpt>
      <trkpt lat="44.24599" lon="5.68384">
        <ele>670</ele>
        <time>2019-06-17T07:57:14Z</time>
      </trkpt>
      <trkpt lat="44.24597" lon="5.68375">
        <ele>671</ele>
        <time>2019-06-17T07:57:15Z</time>
      </trkpt>
      <trkpt lat="44.24595" lon="5.68367">
        <ele>671</ele>
        <time>2019-06-17T07:57:16Z</time>
      </trkpt>
      <trkpt lat="44.24593" lon="5.68359">
        <ele>671</ele>
        <time>2019-06-17T07:57:17Z</time>
      </trkpt>
      <trkpt lat="44.24591" lon="5.68351">
        <ele>672</ele>
        <time>2019-06-17T07:57:18Z</time>
      </trkpt>
      <trkpt lat="44.2459" lon="5.68342">
        <ele>672</ele>
        <time>2019-06-17T07:57:19Z</time>
      </trkpt>
      <trkpt lat="44.24588" lon="5.68334">
        <ele>672</ele>
        <time>2019-06-17T07:57:20Z</time>
      </trkpt>
      <trkpt lat="44.24586" lon="5.68326">
        <ele>672</ele>
        <time>2019-06-17T07:57:21Z</time>
      </trkpt>
      <trkpt lat="44.24584" lon="5.68317">
        <ele>672</ele>
        <time>2019-06-17T07:57:22Z</time>
      </trkpt>
      <trkpt lat="44.24582" lon="5.68308">
        <ele>673</ele>
        <time>2019-06-17T07:57:23Z</time>
      </trkpt>
      <trkpt lat="44.2458" lon="5.683">
        <ele>673</ele>
        <time>2019-06-17T07:57:24Z</time>
      </trkpt>
      <trkpt lat="44.24578" lon="5.68292">
        <ele>673</ele>
        <time>2019-06-17T07:57:25Z</time>
      </trkpt>
      <trkpt lat="44.24576" lon="5.68283">
        <ele>674</ele>
        <time>2019-06-17T07:57:26Z</time>
      </trkpt>
      <trkpt lat="44.24574" lon="5.68275">
        <ele>674</ele>
        <time>2019-06-17T07:57:27Z</time>
      </trkpt>
      <trkpt lat="44.24572" lon="5.68266">
        <ele>674</ele>
        <time>2019-06-17T07:57:28Z</time>
      </trkpt>
      <trkpt lat="44.2457" lon="5.68258">
        <ele>675</ele>
        <time>2019-06-17T07:57:29Z</time>
      </trkpt>
      <trkpt lat="44.24569" lon="5.68249">
        <ele>675</ele>
        <time>2019-06-17T07:57:30Z</time>
      </trkpt>
      <trkpt lat="44.24567" lon="5.6824">
        <ele>675</ele>
        <time>2019-06-17T07:57:31Z</time>
      </trkpt>
      <trkpt lat="44.24565" lon="5.68232">
        <ele>675</ele>
        <time>2019-06-17T07:57:32Z</time>
      </trkpt>
      <trkpt lat="44.24563" lon="5.68224">
        <ele>675</ele>
        <time>2019-06-17T07:57:33Z</time>
      </trkpt>
      <trkpt lat="44.24561" lon="5.68216">
        <ele>675</ele>
        <time>2019-06-17T07:57:34Z</time>
      </trkpt>
      <trkpt lat="44.24559" lon="5.68207">
        <ele>675</ele>
        <time>2019-06-17T07:57:35Z</time>
      </trkpt>
      <trkpt lat="44.24556" lon="5.68199">
        <ele>675</ele>
        <time>2019-06-17T07:57:36Z</time>
      </trkpt>
      <trkpt lat="44.24554" lon="5.68191">
        <ele>675</ele>
        <time>2019-06-17T07:57:37Z</time>
      </trkpt>
      <trkpt lat="44.24553" lon="5.68183">
        <ele>675</ele>
        <time>2019-06-17T07:57:38Z</time>
      </trkpt>
      <trkpt lat="44.24551" lon="5.68176">
        <ele>675</ele>
        <time>2019-06-17T07:57:39Z</time>
      </trkpt>
      <trkpt lat="44.24548" lon="5.68167">
        <ele>675</ele>
        <time>2019-06-17T07:57:40Z</time>
      </trkpt>
      <trkpt lat="44.24546" lon="5.68159">
        <ele>675</ele>
        <time>2019-06-17T07:57:41Z</time>
      </trkpt>
      <trkpt lat="44.24544" lon="5.68152">
        <ele>675</ele>
        <time>2019-06-17T07:57:42Z</time>
      </trkpt>
      <trkpt lat="44.24542" lon="5.68144">
        <ele>675</ele>
        <time>2019-06-17T07:57:43Z</time>
      </trkpt>
      <trkpt lat="44.24541" lon="5.68136">
        <ele>675</ele>
        <time>2019-06-17T07:57:44Z</time>
      </trkpt>
      <trkpt lat="44.24539" lon="5.68127">
        <ele>675</ele>
        <time>2019-06-17T07:57:45Z</time>
      </trkpt>
      <trkpt lat="44.24537" lon="5.68119">
        <ele>675</ele>
        <time>2019-06-17T07:57:46Z</time>
      </trkpt>
      <trkpt lat="44.24535" lon="5.68111">
        <ele>675</ele>
        <time>2019-06-17T07:57:47Z</time>
      </trkpt>
      <trkpt lat="44.24533" lon="5.68102">
        <ele>675</ele>
        <time>2019-06-17T07:57:48Z</time>
      </trkpt>
      <trkpt lat="44.24531" lon="5.68094">
        <ele>674</ele>
        <time>2019-06-17T07:57:49Z</time>
      </trkpt>
      <trkpt lat="44.24529" lon="5.68085">
        <ele>674</ele>
        <time>2019-06-17T07:57:50Z</time>
      </trkpt>
      <trkpt lat="44.24527" lon="5.68076">
        <ele>673</ele>
        <time>2019-06-17T07:57:51Z</time>
      </trkpt>
      <trkpt lat="44.24526" lon="5.68067">
        <ele>673</ele>
        <time>2019-06-17T07:57:52Z</time>
      </trkpt>
      <trkpt lat="44.24525" lon="5.68057">
        <ele>673</ele>
        <time>2019-06-17T07:57:53Z</time>
      </trkpt>
      <trkpt lat="44.24524" lon="5.68048">
        <ele>672</ele>
        <time>2019-06-17T07:57:54Z</time>
      </trkpt>
      <trkpt lat="44.24524" lon="5.68039">
        <ele>672</ele>
        <time>2019-06-17T07:57:55Z</time>
      </trkpt>
      <trkpt lat="44.24524" lon="5.68029">
        <ele>672</ele>
        <time>2019-06-17T07:57:56Z</time>
      </trkpt>
      <trkpt lat="44.24523" lon="5.6802">
        <ele>672</ele>
        <time>2019-06-17T07:57:57Z</time>
      </trkpt>
      <trkpt lat="44.24523" lon="5.68012">
        <ele>672</ele>
        <time>2019-06-17T07:57:58Z</time>
      </trkpt>
      <trkpt lat="44.24523" lon="5.68003">
        <ele>672</ele>
        <time>2019-06-17T07:57:59Z</time>
      </trkpt>
      <trkpt lat="44.24522" lon="5.67994">
        <ele>672</ele>
        <time>2019-06-17T07:58:00Z</time>
      </trkpt>
      <trkpt lat="44.24522" lon="5.67985">
        <ele>672</ele>
        <time>2019-06-17T07:58:01Z</time>
      </trkpt>
      <trkpt lat="44.24522" lon="5.67976">
        <ele>672</ele>
        <time>2019-06-17T07:58:02Z</time>
      </trkpt>
      <trkpt lat="44.24522" lon="5.67967">
        <ele>672</ele>
        <time>2019-06-17T07:58:03Z</time>
      </trkpt>
      <trkpt lat="44.24522" lon="5.67958">
        <ele>672</ele>
        <time>2019-06-17T07:58:04Z</time>
      </trkpt>
      <trkpt lat="44.24522" lon="5.67949">
        <ele>672</ele>
        <time>2019-06-17T07:58:05Z</time>
      </trkpt>
      <trkpt lat="44.24522" lon="5.6794">
        <ele>672</ele>
        <time>2019-06-17T07:58:06Z</time>
      </trkpt>
      <trkpt lat="44.24521" lon="5.67931">
        <ele>672</ele>
        <time>2019-06-17T07:58:07Z</time>
      </trkpt>
      <trkpt lat="44.24521" lon="5.67922">
        <ele>672</ele>
        <time>2019-06-17T07:58:08Z</time>
      </trkpt>
      <trkpt lat="44.24521" lon="5.67914">
        <ele>672</ele>
        <time>2019-06-17T07:58:09Z</time>
      </trkpt>
      <trkpt lat="44.2452" lon="5.67905">
        <ele>672</ele>
        <time>2019-06-17T07:58:10Z</time>
      </trkpt>
      <trkpt lat="44.2452" lon="5.67896">
        <ele>672</ele>
        <time>2019-06-17T07:58:11Z</time>
      </trkpt>
      <trkpt lat="44.2452" lon="5.67887">
        <ele>672</ele>
        <time>2019-06-17T07:58:12Z</time>
      </trkpt>
      <trkpt lat="44.24519" lon="5.67878">
        <ele>672</ele>
        <time>2019-06-17T07:58:13Z</time>
      </trkpt>
      <trkpt lat="44.24519" lon="5.6787">
        <ele>672</ele>
        <time>2019-06-17T07:58:14Z</time>
      </trkpt>
      <trkpt lat="44.24519" lon="5.67861">
        <ele>672</ele>
        <time>2019-06-17T07:58:15Z</time>
      </trkpt>
      <trkpt lat="44.24519" lon="5.67852">
        <ele>672</ele>
        <time>2019-06-17T07:58:16Z</time>
      </trkpt>
      <trkpt lat="44.24519" lon="5.67843">
        <ele>672</ele>
        <time>2019-06-17T07:58:17Z</time>
      </trkpt>
      <trkpt lat="44.24519" lon="5.67835">
        <ele>672</ele>
        <time>2019-06-17T07:58:18Z</time>
      </trkpt>
      <trkpt lat="44.24519" lon="5.67827">
        <ele>672</ele>
        <time>2019-06-17T07:58:19Z</time>
      </trkpt>
      <trkpt lat="44.24519" lon="5.67818">
        <ele>672</ele>
        <time>2019-06-17T07:58:20Z</time>
      </trkpt>
      <trkpt lat="44.24519" lon="5.6781">
        <ele>672</ele>
        <time>2019-06-17T07:58:21Z</time>
      </trkpt>
      <trkpt lat="44.2452" lon="5.67801">
        <ele>672</ele>
        <time>2019-06-17T07:58:22Z</time>
      </trkpt>
      <trkpt lat="44.2452" lon="5.67793">
        <ele>672</ele>
        <time>2019-06-17T07:58:23Z</time>
      </trkpt>
      <trkpt lat="44.24522" lon="5.67784">
        <ele>672</ele>
        <time>2019-06-17T07:58:24Z</time>
      </trkpt>
      <trkpt lat="44.24522" lon="5.67776">
        <ele>672</ele>
        <time>2019-06-17T07:58:25Z</time>
      </trkpt>
      <trkpt lat="44.24524" lon="5.67767">
        <ele>672</ele>
        <time>2019-06-17T07:58:26Z</time>
      </trkpt>
      <trkpt lat="44.24525" lon="5.67758">
        <ele>672</ele>
        <time>2019-06-17T07:58:27Z</time>
      </trkpt>
      <trkpt lat="44.24527" lon="5.6775">
        <ele>672</ele>
        <time>2019-06-17T07:58:28Z</time>
      </trkpt>
      <trkpt lat="44.24528" lon="5.6774">
        <ele>672</ele>
        <time>2019-06-17T07:58:29Z</time>
      </trkpt>
      <trkpt lat="44.24529" lon="5.67732">
        <ele>672</ele>
        <time>2019-06-17T07:58:30Z</time>
      </trkpt>
      <trkpt lat="44.24531" lon="5.67722">
        <ele>672</ele>
        <time>2019-06-17T07:58:31Z</time>
      </trkpt>
      <trkpt lat="44.24532" lon="5.67713">
        <ele>672</ele>
        <time>2019-06-17T07:58:32Z</time>
      </trkpt>
      <trkpt lat="44.24534" lon="5.67703">
        <ele>672</ele>
        <time>2019-06-17T07:58:33Z</time>
      </trkpt>
      <trkpt lat="44.24536" lon="5.67694">
        <ele>672</ele>
        <time>2019-06-17T07:58:34Z</time>
      </trkpt>
      <trkpt lat="44.24538" lon="5.67684">
        <ele>672</ele>
        <time>2019-06-17T07:58:35Z</time>
      </trkpt>
      <trkpt lat="44.2454" lon="5.67675">
        <ele>672</ele>
        <time>2019-06-17T07:58:36Z</time>
      </trkpt>
      <trkpt lat="44.24541" lon="5.67665">
        <ele>672</ele>
        <time>2019-06-17T07:58:37Z</time>
      </trkpt>
      <trkpt lat="44.24543" lon="5.67656">
        <ele>672</ele>
        <time>2019-06-17T07:58:38Z</time>
      </trkpt>
      <trkpt lat="44.24544" lon="5.67647">
        <ele>672</ele>
        <time>2019-06-17T07:58:39Z</time>
      </trkpt>
      <trkpt lat="44.24545" lon="5.67637">
        <ele>672</ele>
        <time>2019-06-17T07:58:40Z</time>
      </trkpt>
      <trkpt lat="44.24546" lon="5.67627">
        <ele>672</ele>
        <time>2019-06-17T07:58:41Z</time>
      </trkpt>
      <trkpt lat="44.24546" lon="5.67618">
        <ele>672</ele>
        <time>2019-06-17T07:58:42Z</time>
      </trkpt>
      <trkpt lat="44.24546" lon="5.67608">
        <ele>672</ele>
        <time>2019-06-17T07:58:43Z</time>
      </trkpt>
      <trkpt lat="44.24545" lon="5.67599">
        <ele>672</ele>
        <time>2019-06-17T07:58:44Z</time>
      </trkpt>
      <trkpt lat="44.24545" lon="5.67589">
        <ele>672</ele>
        <time>2019-06-17T07:58:45Z</time>
      </trkpt>
      <trkpt lat="44.24544" lon="5.6758">
        <ele>672</ele>
        <time>2019-06-17T07:58:46Z</time>
      </trkpt>
      <trkpt lat="44.24543" lon="5.67571">
        <ele>672</ele>
        <time>2019-06-17T07:58:47Z</time>
      </trkpt>
      <trkpt lat="44.24542" lon="5.67561">
        <ele>672</ele>
        <time>2019-06-17T07:58:48Z</time>
      </trkpt>
      <trkpt lat="44.24542" lon="5.67552">
        <ele>672</ele>
        <time>2019-06-17T07:58:49Z</time>
      </trkpt>
      <trkpt lat="44.24542" lon="5.67543">
        <ele>672</ele>
        <time>2019-06-17T07:58:50Z</time>
      </trkpt>
      <trkpt lat="44.24543" lon="5.67535">
        <ele>672</ele>
        <time>2019-06-17T07:58:51Z</time>
      </trkpt>
      <trkpt lat="44.24545" lon="5.67526">
        <ele>672</ele>
        <time>2019-06-17T07:58:52Z</time>
      </trkpt>
      <trkpt lat="44.24546" lon="5.67518">
        <ele>672</ele>
        <time>2019-06-17T07:58:53Z</time>
      </trkpt>
      <trkpt lat="44.24549" lon="5.6751">
        <ele>672</ele>
        <time>2019-06-17T07:58:54Z</time>
      </trkpt>
      <trkpt lat="44.24551" lon="5.67502">
        <ele>672</ele>
        <time>2019-06-17T07:58:55Z</time>
      </trkpt>
      <trkpt lat="44.24555" lon="5.67494">
        <ele>672</ele>
        <time>2019-06-17T07:58:56Z</time>
      </trkpt>
      <trkpt lat="44.24559" lon="5.67486">
        <ele>672</ele>
        <time>2019-06-17T07:58:57Z</time>
      </trkpt>
      <trkpt lat="44.24563" lon="5.67479">
        <ele>673</ele>
        <time>2019-06-17T07:58:58Z</time>
      </trkpt>
      <trkpt lat="44.24567" lon="5.67471">
        <ele>673</ele>
        <time>2019-06-17T07:58:59Z</time>
      </trkpt>
      <trkpt lat="44.24571" lon="5.67464">
        <ele>673</ele>
        <time>2019-06-17T07:59:00Z</time>
      </trkpt>
      <trkpt lat="44.24576" lon="5.67456">
        <ele>673</ele>
        <time>2019-06-17T07:59:01Z</time>
      </trkpt>
      <trkpt lat="44.2458" lon="5.67449">
        <ele>673</ele>
        <time>2019-06-17T07:59:02Z</time>
      </trkpt>
      <trkpt lat="44.24585" lon="5.67441">
        <ele>673</ele>
        <time>2019-06-17T07:59:03Z</time>
      </trkpt>
      <trkpt lat="44.2459" lon="5.67433">
        <ele>673</ele>
        <time>2019-06-17T07:59:04Z</time>
      </trkpt>
      <trkpt lat="44.24594" lon="5.67425">
        <ele>673</ele>
        <time>2019-06-17T07:59:05Z</time>
      </trkpt>
      <trkpt lat="44.24598" lon="5.67418">
        <ele>673</ele>
        <time>2019-06-17T07:59:06Z</time>
      </trkpt>
      <trkpt lat="44.24603" lon="5.6741">
        <ele>673</ele>
        <time>2019-06-17T07:59:07Z</time>
      </trkpt>
      <trkpt lat="44.24607" lon="5.67403">
        <ele>673</ele>
        <time>2019-06-17T07:59:08Z</time>
      </trkpt>
      <trkpt lat="44.24612" lon="5.67395">
        <ele>673</ele>
        <time>2019-06-17T07:59:09Z</time>
      </trkpt>
      <trkpt lat="44.24616" lon="5.67387">
        <ele>673</ele>
        <time>2019-06-17T07:59:10Z</time>
      </trkpt>
      <trkpt lat="44.2462" lon="5.67379">
        <ele>673</ele>
        <time>2019-06-17T07:59:11Z</time>
      </trkpt>
      <trkpt lat="44.24624" lon="5.6737">
        <ele>673</ele>
        <time>2019-06-17T07:59:12Z</time>
      </trkpt>
      <trkpt lat="44.24627" lon="5.6736">
        <ele>673</ele>
        <time>2019-06-17T07:59:13Z</time>
      </trkpt>
      <trkpt lat="44.24629" lon="5.67351">
        <ele>673</ele>
        <time>2019-06-17T07:59:14Z</time>
      </trkpt>
      <trkpt lat="44.24632" lon="5.67342">
        <ele>673</ele>
        <time>2019-06-17T07:59:15Z</time>
      </trkpt>
      <trkpt lat="44.24634" lon="5.67332">
        <ele>673</ele>
        <time>2019-06-17T07:59:16Z</time>
      </trkpt>
      <trkpt lat="44.24636" lon="5.67323">
        <ele>673</ele>
        <time>2019-06-17T07:59:17Z</time>
      </trkpt>
      <trkpt lat="44.24637" lon="5.67313">
        <ele>673</ele>
        <time>2019-06-17T07:59:18Z</time>
      </trkpt>
      <trkpt lat="44.24639" lon="5.67304">
        <ele>673</ele>
        <time>2019-06-17T07:59:19Z</time>
      </trkpt>
      <trkpt lat="44.24641" lon="5.67295">
        <ele>673</ele>
        <time>2019-06-17T07:59:20Z</time>
      </trkpt>
      <trkpt lat="44.24642" lon="5.67286">
        <ele>673</ele>
        <time>2019-06-17T07:59:21Z</time>
      </trkpt>
      <trkpt lat="44.24644" lon="5.67277">
        <ele>673</ele>
        <time>2019-06-17T07:59:22Z</time>
      </trkpt>
      <trkpt lat="44.24646" lon="5.67268">
        <ele>673</ele>
        <time>2019-06-17T07:59:23Z</time>
      </trkpt>
      <trkpt lat="44.24648" lon="5.67259">
        <ele>673</ele>
        <time>2019-06-17T07:59:24Z</time>
      </trkpt>
      <trkpt lat="44.24651" lon="5.6725">
        <ele>673</ele>
        <time>2019-06-17T07:59:25Z</time>
      </trkpt>
      <trkpt lat="44.24654" lon="5.67242">
        <ele>673</ele>
        <time>2019-06-17T07:59:26Z</time>
      </trkpt>
      <trkpt lat="44.24657" lon="5.67233">
        <ele>673</ele>
        <time>2019-06-17T07:59:27Z</time>
      </trkpt>
      <trkpt lat="44.2466" lon="5.67225">
        <ele>673</ele>
        <time>2019-06-17T07:59:28Z</time>
      </trkpt>
      <trkpt lat="44.24664" lon="5.67217">
        <ele>673</ele>
        <time>2019-06-17T07:59:29Z</time>
      </trkpt>
      <trkpt lat="44.24668" lon="5.67209">
        <ele>673</ele>
        <time>2019-06-17T07:59:30Z</time>
      </trkpt>
      <trkpt lat="44.24672" lon="5.67202">
        <ele>673</ele>
        <time>2019-06-17T07:59:31Z</time>
      </trkpt>
      <trkpt lat="44.24676" lon="5.67194">
        <ele>673</ele>
        <time>2019-06-17T07:59:32Z</time>
      </trkpt>
      <trkpt lat="44.2468" lon="5.67187">
        <ele>674</ele>
        <time>2019-06-17T07:59:33Z</time>
      </trkpt>
      <trkpt lat="44.24685" lon="5.6718">
        <ele>674</ele>
        <time>2019-06-17T07:59:34Z</time>
      </trkpt>
      <trkpt lat="44.24689" lon="5.67172">
        <ele>674</ele>
        <time>2019-06-17T07:59:35Z</time>
      </trkpt>
      <trkpt lat="44.24693" lon="5.67165">
        <ele>674</ele>
        <time>2019-06-17T07:59:36Z</time>
      </trkpt>
      <trkpt lat="44.24696" lon="5.67157">
        <ele>674</ele>
        <time>2019-06-17T07:59:37Z</time>
      </trkpt>
      <trkpt lat="44.24699" lon="5.67149">
        <ele>674</ele>
        <time>2019-06-17T07:59:38Z</time>
      </trkpt>
      <trkpt lat="44.24702" lon="5.6714">
        <ele>674</ele>
        <time>2019-06-17T07:59:39Z</time>
      </trkpt>
      <trkpt lat="44.24704" lon="5.67131">
        <ele>674</ele>
        <time>2019-06-17T07:59:40Z</time>
      </trkpt>
      <trkpt lat="44.24705" lon="5.67122">
        <ele>674</ele>
        <time>2019-06-17T07:59:41Z</time>
      </trkpt>
      <trkpt lat="44.24706" lon="5.67113">
        <ele>674</ele>
        <time>2019-06-17T07:59:42Z</time>
      </trkpt>
      <trkpt lat="44.24707" lon="5.67104">
        <ele>674</ele>
        <time>2019-06-17T07:59:43Z</time>
      </trkpt>
      <trkpt lat="44.24707" lon="5.67095">
        <ele>674</ele>
        <time>2019-06-17T07:59:44Z</time>
      </trkpt>
      <trkpt lat="44.24708" lon="5.67086">
        <ele>674</ele>
        <time>2019-06-17T07:59:45Z</time>
      </trkpt>
      <trkpt lat="44.24709" lon="5.67077">
        <ele>675</ele>
        <time>2019-06-17T07:59:46Z</time>
      </trkpt>
      <trkpt lat="44.2471" lon="5.67067">
        <ele>675</ele>
        <time>2019-06-17T07:59:47Z</time>
      </trkpt>
      <trkpt lat="44.24711" lon="5.67058">
        <ele>675</ele>
        <time>2019-06-17T07:59:48Z</time>
      </trkpt>
      <trkpt lat="44.24712" lon="5.67049">
        <ele>675</ele>
        <time>2019-06-17T07:59:49Z</time>
      </trkpt>
      <trkpt lat="44.24713" lon="5.67039">
        <ele>675</ele>
        <time>2019-06-17T07:59:50Z</time>
      </trkpt>
      <trkpt lat="44.24714" lon="5.6703">
        <ele>675</ele>
        <time>2019-06-17T07:59:51Z</time>
      </trkpt>
      <trkpt lat="44.24716" lon="5.67021">
        <ele>675</ele>
        <time>2019-06-17T07:59:52Z</time>
      </trkpt>
      <trkpt lat="44.24717" lon="5.67011">
        <ele>675</ele>
        <time>2019-06-17T07:59:53Z</time>
      </trkpt>
      <trkpt lat="44.2472" lon="5.67003">
        <ele>675</ele>
        <time>2019-06-17T07:59:54Z</time>
      </trkpt>
      <trkpt lat="44.24722" lon="5.66994">
        <ele>675</ele>
        <time>2019-06-17T07:59:55Z</time>
      </trkpt>
      <trkpt lat="44.24724" lon="5.66985">
        <ele>675</ele>
        <time>2019-06-17T07:59:56Z</time>
      </trkpt>
      <trkpt lat="44.24727" lon="5.66977">
        <ele>675</ele>
        <time>2019-06-17T07:59:57Z</time>
      </trkpt>
      <trkpt lat="44.2473" lon="5.66968">
        <ele>675</ele>
        <time>2019-06-17T07:59:58Z</time>
      </trkpt>
      <trkpt lat="44.24733" lon="5.6696">
        <ele>675</ele>
        <time>2019-06-17T07:59:59Z</time>
      </trkpt>
      <trkpt lat="44.24736" lon="5.66953">
        <ele>675</ele>
        <time>2019-06-17T08:00:00Z</time>
      </trkpt>
      <trkpt lat="44.24739" lon="5.66945">
        <ele>675</ele>
        <time>2019-06-17T08:00:01Z</time>
      </trkpt>
      <trkpt lat="44.24742" lon="5.66937">
        <ele>675</ele>
        <time>2019-06-17T08:00:02Z</time>
      </trkpt>
      <trkpt lat="44.24746" lon="5.6693">
        <ele>675</ele>
        <time>2019-06-17T08:00:03Z</time>
      </trkpt>
      <trkpt lat="44.24749" lon="5.66922">
        <ele>675</ele>
        <time>2019-06-17T08:00:04Z</time>
      </trkpt>
      <trkpt lat="44.24752" lon="5.66914">
        <ele>675</ele>
        <time>2019-06-17T08:00:05Z</time>
      </trkpt>
      <trkpt lat="44.24755" lon="5.66907">
        <ele>675</ele>
        <time>2019-06-17T08:00:06Z</time>
      </trkpt>
      <trkpt lat="44.24758" lon="5.66899">
        <ele>675</ele>
        <time>2019-06-17T08:00:07Z</time>
      </trkpt>
      <trkpt lat="44.24761" lon="5.66892">
        <ele>675</ele>
        <time>2019-06-17T08:00:08Z</time>
      </trkpt>
      <trkpt lat="44.24764" lon="5.66884">
        <ele>675</ele>
        <time>2019-06-17T08:00:09Z</time>
      </trkpt>
      <trkpt lat="44.24767" lon="5.66877">
        <ele>675</ele>
        <time>2019-06-17T08:00:10Z</time>
      </trkpt>
      <trkpt lat="44.2477" lon="5.66869">
        <ele>675</ele>
        <time>2019-06-17T08:00:11Z</time>
      </trkpt>
      <trkpt lat="44.24773" lon="5.66862">
        <ele>675</ele>
        <time>2019-06-17T08:00:12Z</time>
      </trkpt>
      <trkpt lat="44.24776" lon="5.66854">
        <ele>675</ele>
        <time>2019-06-17T08:00:13Z</time>
      </trkpt>
      <trkpt lat="44.24778" lon="5.66847">
        <ele>675</ele>
        <time>2019-06-17T08:00:14Z</time>
      </trkpt>
      <trkpt lat="44.24781" lon="5.66839">
        <ele>675</ele>
        <time>2019-06-17T08:00:15Z</time>
      </trkpt>
      <trkpt lat="44.24783" lon="5.66832">
        <ele>675</ele>
        <time>2019-06-17T08:00:16Z</time>
      </trkpt>
      <trkpt lat="44.24786" lon="5.66824">
        <ele>675</ele>
        <time>2019-06-17T08:00:17Z</time>
      </trkpt>
      <trkpt lat="44.24788" lon="5.66816">
        <ele>675</ele>
        <time>2019-06-17T08:00:18Z</time>
      </trkpt>
      <trkpt lat="44.24789" lon="5.66808">
        <ele>675</ele>
        <time>2019-06-17T08:00:19Z</time>
      </trkpt>
      <trkpt lat="44.2479" lon="5.668">
        <ele>675</ele>
        <time>2019-06-17T08:00:20Z</time>
      </trkpt>
      <trkpt lat="44.24791" lon="5.66791">
        <ele>675</ele>
        <time>2019-06-17T08:00:21Z</time>
      </trkpt>
      <trkpt lat="44.24792" lon="5.66784">
        <ele>675</ele>
        <time>2019-06-17T08:00:22Z</time>
      </trkpt>
      <trkpt lat="44.24792" lon="5.66775">
        <ele>675</ele>
        <time>2019-06-17T08:00:23Z</time>
      </trkpt>
      <trkpt lat="44.24791" lon="5.66766">
        <ele>675</ele>
        <time>2019-06-17T08:00:24Z</time>
      </trkpt>
      <trkpt lat="44.24791" lon="5.66758">
        <ele>675</ele>
        <time>2019-06-17T08:00:25Z</time>
      </trkpt>
      <trkpt lat="44.24789" lon="5.66749">
        <ele>675</ele>
        <time>2019-06-17T08:00:26Z</time>
      </trkpt>
      <trkpt lat="44.24787" lon="5.66741">
        <ele>675</ele>
        <time>2019-06-17T08:00:27Z</time>
      </trkpt>
      <trkpt lat="44.24785" lon="5.66734">
        <ele>675</ele>
        <time>2019-06-17T08:00:28Z</time>
      </trkpt>
      <trkpt lat="44.24783" lon="5.66726">
        <ele>675</ele>
        <time>2019-06-17T08:00:29Z</time>
      </trkpt>
      <trkpt lat="44.24779" lon="5.66719">
        <ele>675</ele>
        <time>2019-06-17T08:00:30Z</time>
      </trkpt>
      <trkpt lat="44.24776" lon="5.66713">
        <ele>675</ele>
        <time>2019-06-17T08:00:31Z</time>
      </trkpt>
      <trkpt lat="44.24772" lon="5.66706">
        <ele>675</ele>
        <time>2019-06-17T08:00:32Z</time>
      </trkpt>
      <trkpt lat="44.24768" lon="5.667">
        <ele>675</ele>
        <time>2019-06-17T08:00:33Z</time>
      </trkpt>
      <trkpt lat="44.24763" lon="5.66694">
        <ele>675</ele>
        <time>2019-06-17T08:00:34Z</time>
      </trkpt>
      <trkpt lat="44.24759" lon="5.66689">
        <ele>676</ele>
        <time>2019-06-17T08:00:35Z</time>
      </trkpt>
      <trkpt lat="44.24754" lon="5.66685">
        <ele>676</ele>
        <time>2019-06-17T08:00:36Z</time>
      </trkpt>
      <trkpt lat="44.24748" lon="5.66681">
        <ele>676</ele>
        <time>2019-06-17T08:00:37Z</time>
      </trkpt>
      <trkpt lat="44.24743" lon="5.66678">
        <ele>677</ele>
        <time>2019-06-17T08:00:38Z</time>
      </trkpt>
      <trkpt lat="44.24737" lon="5.66675">
        <ele>677</ele>
        <time>2019-06-17T08:00:39Z</time>
      </trkpt>
      <trkpt lat="44.24732" lon="5.66673">
        <ele>677</ele>
        <time>2019-06-17T08:00:40Z</time>
      </trkpt>
      <trkpt lat="44.24726" lon="5.66671">
        <ele>677</ele>
        <time>2019-06-17T08:00:41Z</time>
      </trkpt>
      <trkpt lat="44.2472" lon="5.66669">
        <ele>677</ele>
        <time>2019-06-17T08:00:42Z</time>
      </trkpt>
      <trkpt lat="44.24714" lon="5.66668">
        <ele>677</ele>
        <time>2019-06-17T08:00:43Z</time>
      </trkpt>
      <trkpt lat="44.24707" lon="5.66667">
        <ele>677</ele>
        <time>2019-06-17T08:00:44Z</time>
      </trkpt>
      <trkpt lat="44.24701" lon="5.66666">
        <ele>677</ele>
        <time>2019-06-17T08:00:45Z</time>
      </trkpt>
      <trkpt lat="44.24695" lon="5.66664">
        <ele>677</ele>
        <time>2019-06-17T08:00:46Z</time>
      </trkpt>
      <trkpt lat="44.24689" lon="5.66663">
        <ele>677</ele>
        <time>2019-06-17T08:00:47Z</time>
      </trkpt>
      <trkpt lat="44.24682" lon="5.66662">
        <ele>677</ele>
        <time>2019-06-17T08:00:48Z</time>
      </trkpt>
      <trkpt lat="44.24676" lon="5.6666">
        <ele>677</ele>
        <time>2019-06-17T08:00:49Z</time>
      </trkpt>
      <trkpt lat="44.2467" lon="5.66658">
        <ele>677</ele>
        <time>2019-06-17T08:00:50Z</time>
      </trkpt>
      <trkpt lat="44.24663" lon="5.66656">
        <ele>677</ele>
        <time>2019-06-17T08:00:51Z</time>
      </trkpt>
      <trkpt lat="44.24657" lon="5.66653">
        <ele>677</ele>
        <time>2019-06-17T08:00:52Z</time>
      </trkpt>
      <trkpt lat="44.2465" lon="5.6665">
        <ele>677</ele>
        <time>2019-06-17T08:00:53Z</time>
      </trkpt>
      <trkpt lat="44.24645" lon="5.66644">
        <ele>677</ele>
        <time>2019-06-17T08:00:54Z</time>
      </trkpt>
      <trkpt lat="44.24641" lon="5.66636">
        <ele>677</ele>
        <time>2019-06-17T08:00:55Z</time>
      </trkpt>
      <trkpt lat="44.2464" lon="5.66627">
        <ele>677</ele>
        <time>2019-06-17T08:00:56Z</time>
      </trkpt>
      <trkpt lat="44.24641" lon="5.66618">
        <ele>677</ele>
        <time>2019-06-17T08:00:57Z</time>
      </trkpt>
      <trkpt lat="44.24643" lon="5.66609">
        <ele>677</ele>
        <time>2019-06-17T08:00:58Z</time>
      </trkpt>
      <trkpt lat="44.24647" lon="5.66602">
        <ele>677</ele>
        <time>2019-06-17T08:00:59Z</time>
      </trkpt>
      <trkpt lat="44.24651" lon="5.66595">
        <ele>677</ele>
        <time>2019-06-17T08:01:00Z</time>
      </trkpt>
      <trkpt lat="44.24656" lon="5.66588">
        <ele>677</ele>
        <time>2019-06-17T08:01:01Z</time>
      </trkpt>
      <trkpt lat="44.2466" lon="5.66582">
        <ele>677</ele>
        <time>2019-06-17T08:01:02Z</time>
      </trkpt>
      <trkpt lat="44.24665" lon="5.66575">
        <ele>677</ele>
        <time>2019-06-17T08:01:03Z</time>
      </trkpt>
      <trkpt lat="44.2467" lon="5.66568">
        <ele>677</ele>
        <time>2019-06-17T08:01:04Z</time>
      </trkpt>
      <trkpt lat="44.24674" lon="5.66561">
        <ele>677</ele>
        <time>2019-06-17T08:01:05Z</time>
      </trkpt>
      <trkpt lat="44.24679" lon="5.66555">
        <ele>677</ele>
        <time>2019-06-17T08:01:06Z</time>
      </trkpt>
      <trkpt lat="44.24683" lon="5.66548">
        <ele>677</ele>
        <time>2019-06-17T08:01:07Z</time>
      </trkpt>
      <trkpt lat="44.24687" lon="5.6654">
        <ele>677</ele>
        <time>2019-06-17T08:01:08Z</time>
      </trkpt>
      <trkpt lat="44.2469" lon="5.66533">
        <ele>677</ele>
        <time>2019-06-17T08:01:09Z</time>
      </trkpt>
      <trkpt lat="44.24694" lon="5.66525">
        <ele>677</ele>
        <time>2019-06-17T08:01:10Z</time>
      </trkpt>
      <trkpt lat="44.24697" lon="5.66518">
        <ele>677</ele>
        <time>2019-06-17T08:01:11Z</time>
      </trkpt>
      <trkpt lat="44.24699" lon="5.6651">
        <ele>677</ele>
        <time>2019-06-17T08:01:12Z</time>
      </trkpt>
      <trkpt lat="44.24702" lon="5.66502">
        <ele>677</ele>
        <time>2019-06-17T08:01:13Z</time>
      </trkpt>
      <trkpt lat="44.24704" lon="5.66494">
        <ele>677</ele>
        <time>2019-06-17T08:01:14Z</time>
      </trkpt>
      <trkpt lat="44.24706" lon="5.66486">
        <ele>677</ele>
        <time>2019-06-17T08:01:15Z</time>
      </trkpt>
      <trkpt lat="44.24707" lon="5.66477">
        <ele>677</ele>
        <time>2019-06-17T08:01:16Z</time>
      </trkpt>
      <trkpt lat="44.24708" lon="5.66469">
        <ele>677</ele>
        <time>2019-06-17T08:01:17Z</time>
      </trkpt>
      <trkpt lat="44.24708" lon="5.66461">
        <ele>677</ele>
        <time>2019-06-17T08:01:18Z</time>
      </trkpt>
      <trkpt lat="44.24708" lon="5.66452">
        <ele>677</ele>
        <time>2019-06-17T08:01:19Z</time>
      </trkpt>
      <trkpt lat="44.24707" lon="5.66442">
        <ele>677</ele>
        <time>2019-06-17T08:01:20Z</time>
      </trkpt>
      <trkpt lat="44.24707" lon="5.66434">
        <ele>678</ele>
        <time>2019-06-17T08:01:21Z</time>
      </trkpt>
      <trkpt lat="44.24706" lon="5.66426">
        <ele>678</ele>
        <time>2019-06-17T08:01:22Z</time>
      </trkpt>
      <trkpt lat="44.24704" lon="5.66419">
        <ele>678</ele>
        <time>2019-06-17T08:01:23Z</time>
      </trkpt>
      <trkpt lat="44.24703" lon="5.66411">
        <ele>678</ele>
        <time>2019-06-17T08:01:24Z</time>
      </trkpt>
      <trkpt lat="44.24701" lon="5.66404">
        <ele>678</ele>
        <time>2019-06-17T08:01:25Z</time>
      </trkpt>
      <trkpt lat="44.24697" lon="5.66396">
        <ele>678</ele>
        <time>2019-06-17T08:01:26Z</time>
      </trkpt>
      <trkpt lat="44.24694" lon="5.6639">
        <ele>678</ele>
        <time>2019-06-17T08:01:27Z</time>
      </trkpt>
      <trkpt lat="44.24689" lon="5.66384">
        <ele>678</ele>
        <time>2019-06-17T08:01:28Z</time>
      </trkpt>
      <trkpt lat="44.24685" lon="5.66378">
        <ele>678</ele>
        <time>2019-06-17T08:01:29Z</time>
      </trkpt>
      <trkpt lat="44.24679" lon="5.66373">
        <ele>678</ele>
        <time>2019-06-17T08:01:30Z</time>
      </trkpt>
      <trkpt lat="44.24673" lon="5.66369">
        <ele>678</ele>
        <time>2019-06-17T08:01:31Z</time>
      </trkpt>
      <trkpt lat="44.24667" lon="5.66365">
        <ele>678</ele>
        <time>2019-06-17T08:01:32Z</time>
      </trkpt>
      <trkpt lat="44.24661" lon="5.66363">
        <ele>678</ele>
        <time>2019-06-17T08:01:33Z</time>
      </trkpt>
      <trkpt lat="44.24655" lon="5.66362">
        <ele>678</ele>
        <time>2019-06-17T08:01:34Z</time>
      </trkpt>
      <trkpt lat="44.24649" lon="5.66361">
        <ele>678</ele>
        <time>2019-06-17T08:01:35Z</time>
      </trkpt>
      <trkpt lat="44.24643" lon="5.66361">
        <ele>678</ele>
        <time>2019-06-17T08:01:36Z</time>
      </trkpt>
      <trkpt lat="44.24636" lon="5.66361">
        <ele>679</ele>
        <time>2019-06-17T08:01:37Z</time>
      </trkpt>
      <trkpt lat="44.2463" lon="5.66361">
        <ele>679</ele>
        <time>2019-06-17T08:01:38Z</time>
      </trkpt>
      <trkpt lat="44.24624" lon="5.66361">
        <ele>679</ele>
        <time>2019-06-17T08:01:39Z</time>
      </trkpt>
      <trkpt lat="44.24617" lon="5.66362">
        <ele>679</ele>
        <time>2019-06-17T08:01:40Z</time>
      </trkpt>
      <trkpt lat="44.24611" lon="5.66362">
        <ele>679</ele>
        <time>2019-06-17T08:01:41Z</time>
      </trkpt>
      <trkpt lat="44.24604" lon="5.66363">
        <ele>680</ele>
        <time>2019-06-17T08:01:42Z</time>
      </trkpt>
      <trkpt lat="44.24598" lon="5.66363">
        <ele>680</ele>
        <time>2019-06-17T08:01:43Z</time>
      </trkpt>
      <trkpt lat="44.24592" lon="5.66364">
        <ele>680</ele>
        <time>2019-06-17T08:01:44Z</time>
      </trkpt>
      <trkpt lat="44.24586" lon="5.66364">
        <ele>680</ele>
        <time>2019-06-17T08:01:45Z</time>
      </trkpt>
      <trkpt lat="44.2458" lon="5.66364">
        <ele>680</ele>
        <time>2019-06-17T08:01:46Z</time>
      </trkpt>
      <trkpt lat="44.24574" lon="5.66363">
        <ele>680</ele>
        <time>2019-06-17T08:01:47Z</time>
      </trkpt>
      <trkpt lat="44.24567" lon="5.66363">
        <ele>680</ele>
        <time>2019-06-17T08:01:48Z</time>
      </trkpt>
      <trkpt lat="44.24561" lon="5.66362">
        <ele>680</ele>
        <time>2019-06-17T08:01:49Z</time>
      </trkpt>
      <trkpt lat="44.24555" lon="5.6636">
        <ele>680</ele>
        <time>2019-06-17T08:01:50Z</time>
      </trkpt>
      <trkpt lat="44.24549" lon="5.66358">
        <ele>680</ele>
        <time>2019-06-17T08:01:51Z</time>
      </trkpt>
      <trkpt lat="44.24543" lon="5.66355">
        <ele>680</ele>
        <time>2019-06-17T08:01:52Z</time>
      </trkpt>
      <trkpt lat="44.24538" lon="5.66351">
        <ele>681</ele>
        <time>2019-06-17T08:01:53Z</time>
      </trkpt>
      <trkpt lat="44.24532" lon="5.66347">
        <ele>681</ele>
        <time>2019-06-17T08:01:54Z</time>
      </trkpt>
      <trkpt lat="44.24527" lon="5.66342">
        <ele>681</ele>
        <time>2019-06-17T08:01:55Z</time>
      </trkpt>
      <trkpt lat="44.24521" lon="5.66337">
        <ele>681</ele>
        <time>2019-06-17T08:01:56Z</time>
      </trkpt>
      <trkpt lat="44.24516" lon="5.66331">
        <ele>681</ele>
        <time>2019-06-17T08:01:57Z</time>
      </trkpt>
      <trkpt lat="44.24512" lon="5.66325">
        <ele>681</ele>
        <time>2019-06-17T08:01:58Z</time>
      </trkpt>
      <trkpt lat="44.24507" lon="5.66319">
        <ele>681</ele>
        <time>2019-06-17T08:01:59Z</time>
      </trkpt>
      <trkpt lat="44.24503" lon="5.66312">
        <ele>681</ele>
        <time>2019-06-17T08:02:00Z</time>
      </trkpt>
      <trkpt lat="44.24499" lon="5.66305">
        <ele>681</ele>
        <time>2019-06-17T08:02:01Z</time>
      </trkpt>
      <trkpt lat="44.24495" lon="5.66298">
        <ele>681</ele>
        <time>2019-06-17T08:02:02Z</time>
      </trkpt>
      <trkpt lat="44.2449" lon="5.66291">
        <ele>682</ele>
        <time>2019-06-17T08:02:03Z</time>
      </trkpt>
      <trkpt lat="44.24486" lon="5.66284">
        <ele>682</ele>
        <time>2019-06-17T08:02:04Z</time>
      </trkpt>
      <trkpt lat="44.24482" lon="5.66277">
        <ele>682</ele>
        <time>2019-06-17T08:02:05Z</time>
      </trkpt>
      <trkpt lat="44.24477" lon="5.6627">
        <ele>683</ele>
        <time>2019-06-17T08:02:06Z</time>
      </trkpt>
      <trkpt lat="44.24474" lon="5.66263">
        <ele>683</ele>
        <time>2019-06-17T08:02:07Z</time>
      </trkpt>
      <trkpt lat="44.24469" lon="5.66256">
        <ele>684</ele>
        <time>2019-06-17T08:02:08Z</time>
      </trkpt>
      <trkpt lat="44.24465" lon="5.66249">
        <ele>685</ele>
        <time>2019-06-17T08:02:09Z</time>
      </trkpt>
      <trkpt lat="44.24461" lon="5.66242">
        <ele>685</ele>
        <time>2019-06-17T08:02:10Z</time>
      </trkpt>
      <trkpt lat="44.24457" lon="5.66235">
        <ele>685</ele>
        <time>2019-06-17T08:02:11Z</time>
      </trkpt>
      <trkpt lat="44.24453" lon="5.66228">
        <ele>686</ele>
        <time>2019-06-17T08:02:12Z</time>
      </trkpt>
      <trkpt lat="44.24449" lon="5.66221">
        <ele>686</ele>
        <time>2019-06-17T08:02:13Z</time>
      </trkpt>
      <trkpt lat="44.24445" lon="5.66214">
        <ele>687</ele>
        <time>2019-06-17T08:02:14Z</time>
      </trkpt>
      <trkpt lat="44.24441" lon="5.66207">
        <ele>687</ele>
        <time>2019-06-17T08:02:15Z</time>
      </trkpt>
      <trkpt lat="44.24437" lon="5.66199">
        <ele>687</ele>
        <time>2019-06-17T08:02:16Z</time>
      </trkpt>
      <trkpt lat="44.24433" lon="5.66192">
        <ele>688</ele>
        <time>2019-06-17T08:02:17Z</time>
      </trkpt>
      <trkpt lat="44.2443" lon="5.66185">
        <ele>688</ele>
        <time>2019-06-17T08:02:18Z</time>
      </trkpt>
      <trkpt lat="44.24427" lon="5.66177">
        <ele>688</ele>
        <time>2019-06-17T08:02:19Z</time>
      </trkpt>
      <trkpt lat="44.24424" lon="5.66168">
        <ele>688</ele>
        <time>2019-06-17T08:02:20Z</time>
      </trkpt>
      <trkpt lat="44.24422" lon="5.6616">
        <ele>689</ele>
        <time>2019-06-17T08:02:21Z</time>
      </trkpt>
      <trkpt lat="44.24421" lon="5.66151">
        <ele>689</ele>
        <time>2019-06-17T08:02:22Z</time>
      </trkpt>
      <trkpt lat="44.24421" lon="5.66141">
        <ele>689</ele>
        <time>2019-06-17T08:02:23Z</time>
      </trkpt>
      <trkpt lat="44.2442" lon="5.66132">
        <ele>689</ele>
        <time>2019-06-17T08:02:24Z</time>
      </trkpt>
      <trkpt lat="44.2442" lon="5.66123">
        <ele>689</ele>
        <time>2019-06-17T08:02:25Z</time>
      </trkpt>
      <trkpt lat="44.2442" lon="5.66113">
        <ele>689</ele>
        <time>2019-06-17T08:02:26Z</time>
      </trkpt>
      <trkpt lat="44.24419" lon="5.66104">
        <ele>689</ele>
        <time>2019-06-17T08:02:27Z</time>
      </trkpt>
      <trkpt lat="44.24419" lon="5.66095">
        <ele>689</ele>
        <time>2019-06-17T08:02:28Z</time>
      </trkpt>
      <trkpt lat="44.24419" lon="5.66085">
        <ele>689</ele>
        <time>2019-06-17T08:02:29Z</time>
      </trkpt>
      <trkpt lat="44.24419" lon="5.66076">
        <ele>689</ele>
        <time>2019-06-17T08:02:30Z</time>
      </trkpt>
      <trkpt lat="44.24418" lon="5.66067">
        <ele>689</ele>
        <time>2019-06-17T08:02:31Z</time>
      </trkpt>
      <trkpt lat="44.24416" lon="5.66059">
        <ele>689</ele>
        <time>2019-06-17T08:02:32Z</time>
      </trkpt>
      <trkpt lat="44.24415" lon="5.6605">
        <ele>689</ele>
        <time>2019-06-17T08:02:33Z</time>
      </trkpt>
      <trkpt lat="44.24413" lon="5.66042">
        <ele>689</ele>
        <time>2019-06-17T08:02:34Z</time>
      </trkpt>
      <trkpt lat="44.2441" lon="5.66035">
        <ele>689</ele>
        <time>2019-06-17T08:02:35Z</time>
      </trkpt>
      <trkpt lat="44.24406" lon="5.66027">
        <ele>689</ele>
        <time>2019-06-17T08:02:36Z</time>
      </trkpt>
      <trkpt lat="44.24403" lon="5.6602">
        <ele>689</ele>
        <time>2019-06-17T08:02:37Z</time>
      </trkpt>
      <trkpt lat="44.244" lon="5.66014">
        <ele>689</ele>
        <time>2019-06-17T08:02:38Z</time>
      </trkpt>
      <trkpt lat="44.24396" lon="5.66008">
        <ele>689</ele>
        <time>2019-06-17T08:02:39Z</time>
      </trkpt>
      <trkpt lat="44.24392" lon="5.66002">
        <ele>689</ele>
        <time>2019-06-17T08:02:40Z</time>
      </trkpt>
      <trkpt lat="44.24388" lon="5.65995">
        <ele>689</ele>
        <time>2019-06-17T08:02:41Z</time>
      </trkpt>
      <trkpt lat="44.24384" lon="5.65988">
        <ele>689</ele>
        <time>2019-06-17T08:02:42Z</time>
      </trkpt>
      <trkpt lat="44.24381" lon="5.65981">
        <ele>689</ele>
        <time>2019-06-17T08:02:43Z</time>
      </trkpt>
      <trkpt lat="44.24377" lon="5.65975">
        <ele>689</ele>
        <time>2019-06-17T08:02:44Z</time>
      </trkpt>
      <trkpt lat="44.24374" lon="5.65968">
        <ele>689</ele>
        <time>2019-06-17T08:02:45Z</time>
      </trkpt>
      <trkpt lat="44.24372" lon="5.65961">
        <ele>689</ele>
        <time>2019-06-17T08:02:46Z</time>
      </trkpt>
      <trkpt lat="44.2437" lon="5.65954">
        <ele>689</ele>
        <time>2019-06-17T08:02:47Z</time>
      </trkpt>
      <trkpt lat="44.24368" lon="5.65946">
        <ele>689</ele>
        <time>2019-06-17T08:02:48Z</time>
      </trkpt>
      <trkpt lat="44.24367" lon="5.65939">
        <ele>689</ele>
        <time>2019-06-17T08:02:49Z</time>
      </trkpt>
      <trkpt lat="44.24368" lon="5.65931">
        <ele>689</ele>
        <time>2019-06-17T08:02:50Z</time>
      </trkpt>
      <trkpt lat="44.24368" lon="5.65924">
        <ele>690</ele>
        <time>2019-06-17T08:02:51Z</time>
      </trkpt>
      <trkpt lat="44.24369" lon="5.65916">
        <ele>690</ele>
        <time>2019-06-17T08:02:52Z</time>
      </trkpt>
      <trkpt lat="44.2437" lon="5.65909">
        <ele>690</ele>
        <time>2019-06-17T08:02:53Z</time>
      </trkpt>
      <trkpt lat="44.24372" lon="5.65901">
        <ele>690</ele>
        <time>2019-06-17T08:02:54Z</time>
      </trkpt>
      <trkpt lat="44.24374" lon="5.65894">
        <ele>690</ele>
        <time>2019-06-17T08:02:55Z</time>
      </trkpt>
      <trkpt lat="44.24377" lon="5.65887">
        <ele>690</ele>
        <time>2019-06-17T08:02:56Z</time>
      </trkpt>
      <trkpt lat="44.2438" lon="5.65881">
        <ele>690</ele>
        <time>2019-06-17T08:02:57Z</time>
      </trkpt>
      <trkpt lat="44.24383" lon="5.65875">
        <ele>690</ele>
        <time>2019-06-17T08:02:58Z</time>
      </trkpt>
      <trkpt lat="44.24387" lon="5.65869">
        <ele>690</ele>
        <time>2019-06-17T08:02:59Z</time>
      </trkpt>
      <trkpt lat="44.2439" lon="5.65863">
        <ele>690</ele>
        <time>2019-06-17T08:03:00Z</time>
      </trkpt>
      <trkpt lat="44.24394" lon="5.65858">
        <ele>690</ele>
        <time>2019-06-17T08:03:01Z</time>
      </trkpt>
      <trkpt lat="44.24398" lon="5.65853">
        <ele>690</ele>
        <time>2019-06-17T08:03:02Z</time>
      </trkpt>
      <trkpt lat="44.24403" lon="5.65849">
        <ele>689</ele>
        <time>2019-06-17T08:03:03Z</time>
      </trkpt>
      <trkpt lat="44.24407" lon="5.65844">
        <ele>689</ele>
        <time>2019-06-17T08:03:04Z</time>
      </trkpt>
      <trkpt lat="44.24412" lon="5.6584">
        <ele>689</ele>
        <time>2019-06-17T08:03:05Z</time>
      </trkpt>
      <trkpt lat="44.24417" lon="5.65836">
        <ele>688</ele>
        <time>2019-06-17T08:03:06Z</time>
      </trkpt>
      <trkpt lat="44.24422" lon="5.65832">
        <ele>688</ele>
        <time>2019-06-17T08:03:07Z</time>
      </trkpt>
      <trkpt lat="44.24427" lon="5.65828">
        <ele>688</ele>
        <time>2019-06-17T08:03:08Z</time>
      </trkpt>
      <trkpt lat="44.24432" lon="5.65823">
        <ele>688</ele>
        <time>2019-06-17T08:03:09Z</time>
      </trkpt>
      <trkpt lat="44.24436" lon="5.65818">
        <ele>688</ele>
        <time>2019-06-17T08:03:10Z</time>
      </trkpt>
      <trkpt lat="44.2444" lon="5.65813">
        <ele>687</ele>
        <time>2019-06-17T08:03:11Z</time>
      </trkpt>
      <trkpt lat="44.24445" lon="5.65808">
        <ele>687</ele>
        <time>2019-06-17T08:03:12Z</time>
      </trkpt>
      <trkpt lat="44.24449" lon="5.65803">
        <ele>687</ele>
        <time>2019-06-17T08:03:13Z</time>
      </trkpt>
      <trkpt lat="44.24453" lon="5.65798">
        <ele>687</ele>
        <time>2019-06-17T08:03:14Z</time>
      </trkpt>
      <trkpt lat="44.24458" lon="5.65792">
        <ele>687</ele>
        <time>2019-06-17T08:03:15Z</time>
      </trkpt>
      <trkpt lat="44.24461" lon="5.65787">
        <ele>687</ele>
        <time>2019-06-17T08:03:16Z</time>
      </trkpt>
      <trkpt lat="44.24466" lon="5.65781">
        <ele>687</ele>
        <time>2019-06-17T08:03:17Z</time>
      </trkpt>
      <trkpt lat="44.2447" lon="5.65775">
        <ele>687</ele>
        <time>2019-06-17T08:03:18Z</time>
      </trkpt>
      <trkpt lat="44.24474" lon="5.65769">
        <ele>687</ele>
        <time>2019-06-17T08:03:19Z</time>
      </trkpt>
      <trkpt lat="44.24477" lon="5.65763">
        <ele>687</ele>
        <time>2019-06-17T08:03:20Z</time>
      </trkpt>
      <trkpt lat="44.24481" lon="5.65757">
        <ele>687</ele>
        <time>2019-06-17T08:03:21Z</time>
      </trkpt>
      <trkpt lat="44.24484" lon="5.6575">
        <ele>687</ele>
        <time>2019-06-17T08:03:22Z</time>
      </trkpt>
      <trkpt lat="44.24487" lon="5.65743">
        <ele>687</ele>
        <time>2019-06-17T08:03:23Z</time>
      </trkpt>
      <trkpt lat="44.24488" lon="5.65736">
        <ele>687</ele>
        <time>2019-06-17T08:03:24Z</time>
      </trkpt>
      <trkpt lat="44.2449" lon="5.65728">
        <ele>687</ele>
        <time>2019-06-17T08:03:25Z</time>
      </trkpt>
      <trkpt lat="44.2449" lon="5.6572">
        <ele>687</ele>
        <time>2019-06-17T08:03:26Z</time>
      </trkpt>
      <trkpt lat="44.24489" lon="5.65712">
        <ele>687</ele>
        <time>2019-06-17T08:03:27Z</time>
      </trkpt>
      <trkpt lat="44.24488" lon="5.65704">
        <ele>687</ele>
        <time>2019-06-17T08:03:28Z</time>
      </trkpt>
      <trkpt lat="44.24487" lon="5.65697">
        <ele>687</ele>
        <time>2019-06-17T08:03:29Z</time>
      </trkpt>
      <trkpt lat="44.24485" lon="5.6569">
        <ele>687</ele>
        <time>2019-06-17T08:03:30Z</time>
      </trkpt>
      <trkpt lat="44.24483" lon="5.65683">
        <ele>687</ele>
        <time>2019-06-17T08:03:31Z</time>
      </trkpt>
      <trkpt lat="44.24481" lon="5.65676">
        <ele>687</ele>
        <time>2019-06-17T08:03:32Z</time>
      </trkpt>
      <trkpt lat="44.2448" lon="5.65668">
        <ele>687</ele>
        <time>2019-06-17T08:03:33Z</time>
      </trkpt>
      <trkpt lat="44.24477" lon="5.65661">
        <ele>687</ele>
        <time>2019-06-17T08:03:34Z</time>
      </trkpt>
      <trkpt lat="44.24476" lon="5.65653">
        <ele>687</ele>
        <time>2019-06-17T08:03:35Z</time>
      </trkpt>
      <trkpt lat="44.24474" lon="5.65646">
        <ele>687</ele>
        <time>2019-06-17T08:03:36Z</time>
      </trkpt>
      <trkpt lat="44.24472" lon="5.65639">
        <ele>687</ele>
        <time>2019-06-17T08:03:37Z</time>
      </trkpt>
      <trkpt lat="44.24469" lon="5.65631">
        <ele>688</ele>
        <time>2019-06-17T08:03:38Z</time>
      </trkpt>
      <trkpt lat="44.24467" lon="5.65624">
        <ele>688</ele>
        <time>2019-06-17T08:03:39Z</time>
      </trkpt>
      <trkpt lat="44.24464" lon="5.65617">
        <ele>689</ele>
        <time>2019-06-17T08:03:40Z</time>
      </trkpt>
      <trkpt lat="44.24461" lon="5.6561">
        <ele>690</ele>
        <time>2019-06-17T08:03:41Z</time>
      </trkpt>
      <trkpt lat="44.24458" lon="5.65603">
        <ele>690</ele>
        <time>2019-06-17T08:03:42Z</time>
      </trkpt>
      <trkpt lat="44.24455" lon="5.65596">
        <ele>691</ele>
        <time>2019-06-17T08:03:43Z</time>
      </trkpt>
      <trkpt lat="44.24452" lon="5.6559">
        <ele>692</ele>
        <time>2019-06-17T08:03:44Z</time>
      </trkpt>
      <trkpt lat="44.24449" lon="5.65583">
        <ele>692</ele>
        <time>2019-06-17T08:03:45Z</time>
      </trkpt>
      <trkpt lat="44.24445" lon="5.65576">
        <ele>693</ele>
        <time>2019-06-17T08:03:46Z</time>
      </trkpt>
      <trkpt lat="44.24442" lon="5.65569">
        <ele>694</ele>
        <time>2019-06-17T08:03:47Z</time>
      </trkpt>
      <trkpt lat="44.24439" lon="5.65563">
        <ele>694</ele>
        <time>2019-06-17T08:03:48Z</time>
      </trkpt>
      <trkpt lat="44.24435" lon="5.65556">
        <ele>695</ele>
        <time>2019-06-17T08:03:49Z</time>
      </trkpt>
      <trkpt lat="44.24432" lon="5.65549">
        <ele>695</ele>
        <time>2019-06-17T08:03:50Z</time>
      </trkpt>
      <trkpt lat="44.24429" lon="5.65542">
        <ele>695</ele>
        <time>2019-06-17T08:03:51Z</time>
      </trkpt>
      <trkpt lat="44.24425" lon="5.65535">
        <ele>695</ele>
        <time>2019-06-17T08:03:52Z</time>
      </trkpt>
      <trkpt lat="44.24422" lon="5.65528">
        <ele>696</ele>
        <time>2019-06-17T08:03:53Z</time>
      </trkpt>
      <trkpt lat="44.24418" lon="5.65522">
        <ele>696</ele>
        <time>2019-06-17T08:03:54Z</time>
      </trkpt>
      <trkpt lat="44.24415" lon="5.65515">
        <ele>696</ele>
        <time>2019-06-17T08:03:55Z</time>
      </trkpt>
      <trkpt lat="44.24411" lon="5.65508">
        <ele>696</ele>
        <time>2019-06-17T08:03:56Z</time>
      </trkpt>
      <trkpt lat="44.24408" lon="5.65501">
        <ele>697</ele>
        <time>2019-06-17T08:03:57Z</time>
      </trkpt>
      <trkpt lat="44.24404" lon="5.65494">
        <ele>697</ele>
        <time>2019-06-17T08:03:58Z</time>
      </trkpt>
      <trkpt lat="44.24401" lon="5.65487">
        <ele>697</ele>
        <time>2019-06-17T08:03:59Z</time>
      </trkpt>
      <trkpt lat="44.24397" lon="5.6548">
        <ele>698</ele>
        <time>2019-06-17T08:04:00Z</time>
      </trkpt>
      <trkpt lat="44.24394" lon="5.65472">
        <ele>698</ele>
        <time>2019-06-17T08:04:01Z</time>
      </trkpt>
      <trkpt lat="44.2439" lon="5.65465">
        <ele>698</ele>
        <time>2019-06-17T08:04:02Z</time>
      </trkpt>
      <trkpt lat="44.24387" lon="5.65458">
        <ele>698</ele>
        <time>2019-06-17T08:04:03Z</time>
      </trkpt>
      <trkpt lat="44.24383" lon="5.65451">
        <ele>699</ele>
        <time>2019-06-17T08:04:04Z</time>
      </trkpt>
      <trkpt lat="44.24379" lon="5.65444">
        <ele>699</ele>
        <time>2019-06-17T08:04:05Z</time>
      </trkpt>
      <trkpt lat="44.24376" lon="5.65437">
        <ele>699</ele>
        <time>2019-06-17T08:04:06Z</time>
      </trkpt>
      <trkpt lat="44.24372" lon="5.65429">
        <ele>699</ele>
        <time>2019-06-17T08:04:07Z</time>
      </trkpt>
      <trkpt lat="44.24369" lon="5.65422">
        <ele>699</ele>
        <time>2019-06-17T08:04:08Z</time>
      </trkpt>
      <trkpt lat="44.24365" lon="5.65415">
        <ele>700</ele>
        <time>2019-06-17T08:04:09Z</time>
      </trkpt>
      <trkpt lat="44.24361" lon="5.65407">
        <ele>700</ele>
        <time>2019-06-17T08:04:10Z</time>
      </trkpt>
      <trkpt lat="44.24358" lon="5.654">
        <ele>700</ele>
        <time>2019-06-17T08:04:11Z</time>
      </trkpt>
      <trkpt lat="44.24354" lon="5.65393">
        <ele>700</ele>
        <time>2019-06-17T08:04:12Z</time>
      </trkpt>
      <trkpt lat="44.2435" lon="5.65386">
        <ele>700</ele>
        <time>2019-06-17T08:04:13Z</time>
      </trkpt>
      <trkpt lat="44.24347" lon="5.65378">
        <ele>700</ele>
        <time>2019-06-17T08:04:14Z</time>
      </trkpt>
      <trkpt lat="44.24343" lon="5.65371">
        <ele>700</ele>
        <time>2019-06-17T08:04:15Z</time>
      </trkpt>
      <trkpt lat="44.2434" lon="5.65364">
        <ele>700</ele>
        <time>2019-06-17T08:04:16Z</time>
      </trkpt>
      <trkpt lat="44.24337" lon="5.65356">
        <ele>700</ele>
        <time>2019-06-17T08:04:17Z</time>
      </trkpt>
      <trkpt lat="44.24334" lon="5.65349">
        <ele>700</ele>
        <time>2019-06-17T08:04:18Z</time>
      </trkpt>
      <trkpt lat="44.24331" lon="5.65341">
        <ele>700</ele>
        <time>2019-06-17T08:04:19Z</time>
      </trkpt>
      <trkpt lat="44.24329" lon="5.65333">
        <ele>700</ele>
        <time>2019-06-17T08:04:20Z</time>
      </trkpt>
      <trkpt lat="44.24327" lon="5.65325">
        <ele>700</ele>
        <time>2019-06-17T08:04:21Z</time>
      </trkpt>
      <trkpt lat="44.24327" lon="5.65316">
        <ele>700</ele>
        <time>2019-06-17T08:04:22Z</time>
      </trkpt>
      <trkpt lat="44.24327" lon="5.65308">
        <ele>700</ele>
        <time>2019-06-17T08:04:23Z</time>
      </trkpt>
      <trkpt lat="44.24327" lon="5.65299">
        <ele>700</ele>
        <time>2019-06-17T08:04:24Z</time>
      </trkpt>
      <trkpt lat="44.24328" lon="5.65291">
        <ele>700</ele>
        <time>2019-06-17T08:04:25Z</time>
      </trkpt>
      <trkpt lat="44.24329" lon="5.65283">
        <ele>700</ele>
        <time>2019-06-17T08:04:26Z</time>
      </trkpt>
      <trkpt lat="44.24329" lon="5.65275">
        <ele>700</ele>
        <time>2019-06-17T08:04:27Z</time>
      </trkpt>
      <trkpt lat="44.2433" lon="5.65267">
        <ele>700</ele>
        <time>2019-06-17T08:04:28Z</time>
      </trkpt>
      <trkpt lat="44.24332" lon="5.65259">
        <ele>700</ele>
        <time>2019-06-17T08:04:29Z</time>
      </trkpt>
      <trkpt lat="44.24332" lon="5.65251">
        <ele>700</ele>
        <time>2019-06-17T08:04:30Z</time>
      </trkpt>
      <trkpt lat="44.24334" lon="5.65243">
        <ele>700</ele>
        <time>2019-06-17T08:04:31Z</time>
      </trkpt>
      <trkpt lat="44.24335" lon="5.65235">
        <ele>700</ele>
        <time>2019-06-17T08:04:32Z</time>
      </trkpt>
      <trkpt lat="44.24337" lon="5.65227">
        <ele>700</ele>
        <time>2019-06-17T08:04:33Z</time>
      </trkpt>
      <trkpt lat="44.24339" lon="5.65219">
        <ele>700</ele>
        <time>2019-06-17T08:04:34Z</time>
      </trkpt>
      <trkpt lat="44.24342" lon="5.65211">
        <ele>700</ele>
        <time>2019-06-17T08:04:35Z</time>
      </trkpt>
      <trkpt lat="44.24343" lon="5.65203">
        <ele>700</ele>
        <time>2019-06-17T08:04:36Z</time>
      </trkpt>
      <trkpt lat="44.24345" lon="5.65195">
        <ele>700</ele>
        <time>2019-06-17T08:04:37Z</time>
      </trkpt>
      <trkpt lat="44.24347" lon="5.65187">
        <ele>700</ele>
        <time>2019-06-17T08:04:38Z</time>
      </trkpt>
      <trkpt lat="44.24348" lon="5.65178">
        <ele>700</ele>
        <time>2019-06-17T08:04:39Z</time>
      </trkpt>
      <trkpt lat="44.24349" lon="5.65169">
        <ele>700</ele>
        <time>2019-06-17T08:04:40Z</time>
      </trkpt>
      <trkpt lat="44.2435" lon="5.6516">
        <ele>700</ele>
        <time>2019-06-17T08:04:41Z</time>
      </trkpt>
      <trkpt lat="44.24351" lon="5.65152">
        <ele>700</ele>
        <time>2019-06-17T08:04:42Z</time>
      </trkpt>
      <trkpt lat="44.24352" lon="5.65143">
        <ele>700</ele>
        <time>2019-06-17T08:04:43Z</time>
      </trkpt>
      <trkpt lat="44.24353" lon="5.65133">
        <ele>700</ele>
        <time>2019-06-17T08:04:44Z</time>
      </trkpt>
      <trkpt lat="44.24353" lon="5.65125">
        <ele>700</ele>
        <time>2019-06-17T08:04:45Z</time>
      </trkpt>
      <trkpt lat="44.24354" lon="5.65116">
        <ele>700</ele>
        <time>2019-06-17T08:04:46Z</time>
      </trkpt>
      <trkpt lat="44.24354" lon="5.65107">
        <ele>700</ele>
        <time>2019-06-17T08:04:47Z</time>
      </trkpt>
      <trkpt lat="44.24354" lon="5.65098">
        <ele>700</ele>
        <time>2019-06-17T08:04:48Z</time>
      </trkpt>
      <trkpt lat="44.24354" lon="5.65088">
        <ele>700</ele>
        <time>2019-06-17T08:04:49Z</time>
      </trkpt>
      <trkpt lat="44.24354" lon="5.65079">
        <ele>700</ele>
        <time>2019-06-17T08:04:50Z</time>
      </trkpt>
      <trkpt lat="44.24354" lon="5.6507">
        <ele>700</ele>
        <time>2019-06-17T08:04:51Z</time>
      </trkpt>
      <trkpt lat="44.24353" lon="5.65061">
        <ele>700</ele>
        <time>2019-06-17T08:04:52Z</time>
      </trkpt>
      <trkpt lat="44.24352" lon="5.65052">
        <ele>700</ele>
        <time>2019-06-17T08:04:53Z</time>
      </trkpt>
      <trkpt lat="44.24351" lon="5.65043">
        <ele>700</ele>
        <time>2019-06-17T08:04:54Z</time>
      </trkpt>
      <trkpt lat="44.24349" lon="5.65034">
        <ele>700</ele>
        <time>2019-06-17T08:04:55Z</time>
      </trkpt>
      <trkpt lat="44.24347" lon="5.65026">
        <ele>700</ele>
        <time>2019-06-17T08:04:56Z</time>
      </trkpt>
      <trkpt lat="44.24345" lon="5.65017">
        <ele>700</ele>
        <time>2019-06-17T08:04:57Z</time>
      </trkpt>
      <trkpt lat="44.24343" lon="5.65008">
        <ele>700</ele>
        <time>2019-06-17T08:04:58Z</time>
      </trkpt>
      <trkpt lat="44.2434" lon="5.64999">
        <ele>700</ele>
        <time>2019-06-17T08:04:59Z</time>
      </trkpt>
      <trkpt lat="44.24338" lon="5.64991">
        <ele>700</ele>
        <time>2019-06-17T08:05:00Z</time>
      </trkpt>
      <trkpt lat="44.24336" lon="5.64982">
        <ele>701</ele>
        <time>2019-06-17T08:05:01Z</time>
      </trkpt>
      <trkpt lat="44.24333" lon="5.64974">
        <ele>702</ele>
        <time>2019-06-17T08:05:02Z</time>
      </trkpt>
      <trkpt lat="44.2433" lon="5.64965">
        <ele>703</ele>
        <time>2019-06-17T08:05:03Z</time>
      </trkpt>
      <trkpt lat="44.24327" lon="5.64957">
        <ele>703</ele>
        <time>2019-06-17T08:05:04Z</time>
      </trkpt>
      <trkpt lat="44.24324" lon="5.64949">
        <ele>704</ele>
        <time>2019-06-17T08:05:05Z</time>
      </trkpt>
      <trkpt lat="44.24322" lon="5.64941">
        <ele>705</ele>
        <time>2019-06-17T08:05:06Z</time>
      </trkpt>
      <trkpt lat="44.24319" lon="5.64932">
        <ele>705</ele>
        <time>2019-06-17T08:05:07Z</time>
      </trkpt>
      <trkpt lat="44.24316" lon="5.64924">
        <ele>705</ele>
        <time>2019-06-17T08:05:08Z</time>
      </trkpt>
      <trkpt lat="44.24313" lon="5.64916">
        <ele>706</ele>
        <time>2019-06-17T08:05:09Z</time>
      </trkpt>
      <trkpt lat="44.2431" lon="5.64907">
        <ele>706</ele>
        <time>2019-06-17T08:05:10Z</time>
      </trkpt>
      <trkpt lat="44.24307" lon="5.64899">
        <ele>706</ele>
        <time>2019-06-17T08:05:11Z</time>
      </trkpt>
      <trkpt lat="44.24304" lon="5.6489">
        <ele>706</ele>
        <time>2019-06-17T08:05:12Z</time>
      </trkpt>
      <trkpt lat="44.24301" lon="5.64882">
        <ele>706</ele>
        <time>2019-06-17T08:05:13Z</time>
      </trkpt>
      <trkpt lat="44.24297" lon="5.64873">
        <ele>706</ele>
        <time>2019-06-17T08:05:14Z</time>
      </trkpt>
      <trkpt lat="44.24294" lon="5.64865">
        <ele>706</ele>
        <time>2019-06-17T08:05:15Z</time>
      </trkpt>
      <trkpt lat="44.2429" lon="5.64857">
        <ele>706</ele>
        <time>2019-06-17T08:05:16Z</time>
      </trkpt>
      <trkpt lat="44.24286" lon="5.64849">
        <ele>706</ele>
        <time>2019-06-17T08:05:17Z</time>
      </trkpt>
      <trkpt lat="44.24281" lon="5.64842">
        <ele>706</ele>
        <time>2019-06-17T08:05:18Z</time>
      </trkpt>
      <trkpt lat="44.24276" lon="5.64835">
        <ele>706</ele>
        <time>2019-06-17T08:05:19Z</time>
      </trkpt>
      <trkpt lat="44.24271" lon="5.64828">
        <ele>706</ele>
        <time>2019-06-17T08:05:20Z</time>
      </trkpt>
      <trkpt lat="44.24266" lon="5.6482">
        <ele>706</ele>
        <time>2019-06-17T08:05:21Z</time>
      </trkpt>
      <trkpt lat="44.24262" lon="5.64812">
        <ele>706</ele>
        <time>2019-06-17T08:05:22Z</time>
      </trkpt>
      <trkpt lat="44.24259" lon="5.64803">
        <ele>706</ele>
        <time>2019-06-17T08:05:23Z</time>
      </trkpt>
      <trkpt lat="44.24256" lon="5.64793">
        <ele>706</ele>
        <time>2019-06-17T08:05:24Z</time>
      </trkpt>
      <trkpt lat="44.24254" lon="5.64783">
        <ele>706</ele>
        <time>2019-06-17T08:05:25Z</time>
      </trkpt>
      <trkpt lat="44.24252" lon="5.64774">
        <ele>706</ele>
        <time>2019-06-17T08:05:26Z</time>
      </trkpt>
      <trkpt lat="44.24251" lon="5.64764">
        <ele>706</ele>
        <time>2019-06-17T08:05:27Z</time>
      </trkpt>
      <trkpt lat="44.24251" lon="5.64754">
        <ele>706</ele>
        <time>2019-06-17T08:05:28Z</time>
      </trkpt>
      <trkpt lat="44.2425" lon="5.64744">
        <ele>706</ele>
        <time>2019-06-17T08:05:29Z</time>
      </trkpt>
      <trkpt lat="44.2425" lon="5.64735">
        <ele>706</ele>
        <time>2019-06-17T08:05:30Z</time>
      </trkpt>
      <trkpt lat="44.2425" lon="5.64725">
        <ele>706</ele>
        <time>2019-06-17T08:05:31Z</time>
      </trkpt>
      <trkpt lat="44.24249" lon="5.64717">
        <ele>706</ele>
        <time>2019-06-17T08:05:32Z</time>
      </trkpt>
      <trkpt lat="44.24249" lon="5.64708">
        <ele>706</ele>
        <time>2019-06-17T08:05:33Z</time>
      </trkpt>
      <trkpt lat="44.24247" lon="5.647">
        <ele>706</ele>
        <time>2019-06-17T08:05:34Z</time>
      </trkpt>
      <trkpt lat="44.24246" lon="5.64691">
        <ele>706</ele>
        <time>2019-06-17T08:05:35Z</time>
      </trkpt>
      <trkpt lat="44.24244" lon="5.64682">
        <ele>706</ele>
        <time>2019-06-17T08:05:36Z</time>
      </trkpt>
      <trkpt lat="44.24241" lon="5.64673">
        <ele>706</ele>
        <time>2019-06-17T08:05:37Z</time>
      </trkpt>
      <trkpt lat="44.24239" lon="5.64665">
        <ele>706</ele>
        <time>2019-06-17T08:05:38Z</time>
      </trkpt>
      <trkpt lat="44.24236" lon="5.64656">
        <ele>706</ele>
        <time>2019-06-17T08:05:39Z</time>
      </trkpt>
      <trkpt lat="44.24232" lon="5.64648">
        <ele>706</ele>
        <time>2019-06-17T08:05:40Z</time>
      </trkpt>
      <trkpt lat="44.24229" lon="5.6464">
        <ele>705</ele>
        <time>2019-06-17T08:05:41Z</time>
      </trkpt>
      <trkpt lat="44.24226" lon="5.64632">
        <ele>704</ele>
        <time>2019-06-17T08:05:42Z</time>
      </trkpt>
      <trkpt lat="44.24223" lon="5.64623">
        <ele>703</ele>
        <time>2019-06-17T08:05:43Z</time>
      </trkpt>
      <trkpt lat="44.2422" lon="5.64614">
        <ele>703</ele>
        <time>2019-06-17T08:05:44Z</time>
      </trkpt>
      <trkpt lat="44.24216" lon="5.64605">
        <ele>703</ele>
        <time>2019-06-17T08:05:45Z</time>
      </trkpt>
      <trkpt lat="44.24213" lon="5.64597">
        <ele>703</ele>
        <time>2019-06-17T08:05:46Z</time>
      </trkpt>
      <trkpt lat="44.24209" lon="5.64588">
        <ele>702</ele>
        <time>2019-06-17T08:05:47Z</time>
      </trkpt>
      <trkpt lat="44.24205" lon="5.6458">
        <ele>702</ele>
        <time>2019-06-17T08:05:48Z</time>
      </trkpt>
      <trkpt lat="44.242" lon="5.64572">
        <ele>702</ele>
        <time>2019-06-17T08:05:49Z</time>
      </trkpt>
      <trkpt lat="44.24196" lon="5.64565">
        <ele>702</ele>
        <time>2019-06-17T08:05:50Z</time>
      </trkpt>
      <trkpt lat="44.24191" lon="5.64558">
        <ele>702</ele>
        <time>2019-06-17T08:05:51Z</time>
      </trkpt>
      <trkpt lat="44.24186" lon="5.64551">
        <ele>702</ele>
        <time>2019-06-17T08:05:52Z</time>
      </trkpt>
      <trkpt lat="44.24181" lon="5.64544">
        <ele>702</ele>
        <time>2019-06-17T08:05:53Z</time>
      </trkpt>
      <trkpt lat="44.24176" lon="5.64538">
        <ele>702</ele>
        <time>2019-06-17T08:05:54Z</time>
      </trkpt>
      <trkpt lat="44.24171" lon="5.64532">
        <ele>702</ele>
        <time>2019-06-17T08:05:55Z</time>
      </trkpt>
      <trkpt lat="44.24166" lon="5.64525">
        <ele>702</ele>
        <time>2019-06-17T08:05:56Z</time>
      </trkpt>
      <trkpt lat="44.24161" lon="5.64519">
        <ele>702</ele>
        <time>2019-06-17T08:05:57Z</time>
      </trkpt>
      <trkpt lat="44.24156" lon="5.64512">
        <ele>702</ele>
        <time>2019-06-17T08:05:58Z</time>
      </trkpt>
      <trkpt lat="44.24152" lon="5.64505">
        <ele>702</ele>
        <time>2019-06-17T08:05:59Z</time>
      </trkpt>
      <trkpt lat="44.24147" lon="5.64499">
        <ele>702</ele>
        <time>2019-06-17T08:06:00Z</time>
      </trkpt>
      <trkpt lat="44.24142" lon="5.64492">
        <ele>702</ele>
        <time>2019-06-17T08:06:01Z</time>
      </trkpt>
      <trkpt lat="44.24136" lon="5.64486">
        <ele>702</ele>
        <time>2019-06-17T08:06:02Z</time>
      </trkpt>
      <trkpt lat="44.24131" lon="5.6448">
        <ele>702</ele>
        <time>2019-06-17T08:06:03Z</time>
      </trkpt>
      <trkpt lat="44.24126" lon="5.64474">
        <ele>702</ele>
        <time>2019-06-17T08:06:04Z</time>
      </trkpt>
      <trkpt lat="44.2412" lon="5.64468">
        <ele>702</ele>
        <time>2019-06-17T08:06:05Z</time>
      </trkpt>
      <trkpt lat="44.24114" lon="5.64463">
        <ele>702</ele>
        <time>2019-06-17T08:06:06Z</time>
      </trkpt>
      <trkpt lat="44.24109" lon="5.64457">
        <ele>702</ele>
        <time>2019-06-17T08:06:07Z</time>
      </trkpt>
      <trkpt lat="44.24104" lon="5.64451">
        <ele>702</ele>
        <time>2019-06-17T08:06:08Z</time>
      </trkpt>
      <trkpt lat="44.24098" lon="5.64445">
        <ele>702</ele>
        <time>2019-06-17T08:06:09Z</time>
      </trkpt>
      <trkpt lat="44.24093" lon="5.64439">
        <ele>702</ele>
        <time>2019-06-17T08:06:10Z</time>
      </trkpt>
      <trkpt lat="44.24087" lon="5.64432">
        <ele>702</ele>
        <time>2019-06-17T08:06:11Z</time>
      </trkpt>
      <trkpt lat="44.24082" lon="5.64426">
        <ele>702</ele>
        <time>2019-06-17T08:06:12Z</time>
      </trkpt>
      <trkpt lat="44.24077" lon="5.64419">
        <ele>702</ele>
        <time>2019-06-17T08:06:13Z</time>
      </trkpt>
      <trkpt lat="44.24073" lon="5.64411">
        <ele>702</ele>
        <time>2019-06-17T08:06:14Z</time>
      </trkpt>
      <trkpt lat="44.24068" lon="5.64404">
        <ele>702</ele>
        <time>2019-06-17T08:06:15Z</time>
      </trkpt>
      <trkpt lat="44.24063" lon="5.64397">
        <ele>702</ele>
        <time>2019-06-17T08:06:16Z</time>
      </trkpt>
      <trkpt lat="44.24059" lon="5.64389">
        <ele>702</ele>
        <time>2019-06-17T08:06:17Z</time>
      </trkpt>
      <trkpt lat="44.24055" lon="5.64382">
        <ele>702</ele>
        <time>2019-06-17T08:06:18Z</time>
      </trkpt>
      <trkpt lat="44.24052" lon="5.64373">
        <ele>702</ele>
        <time>2019-06-17T08:06:19Z</time>
      </trkpt>
      <trkpt lat="44.24049" lon="5.64364">
        <ele>702</ele>
        <time>2019-06-17T08:06:20Z</time>
      </trkpt>
      <trkpt lat="44.24046" lon="5.64356">
        <ele>702</ele>
        <time>2019-06-17T08:06:21Z</time>
      </trkpt>
      <trkpt lat="44.24044" lon="5.64347">
        <ele>702</ele>
        <time>2019-06-17T08:06:22Z</time>
      </trkpt>
      <trkpt lat="44.24041" lon="5.64338">
        <ele>702</ele>
        <time>2019-06-17T08:06:23Z</time>
      </trkpt>
      <trkpt lat="44.24038" lon="5.64329">
        <ele>702</ele>
        <time>2019-06-17T08:06:24Z</time>
      </trkpt>
      <trkpt lat="44.24036" lon="5.6432">
        <ele>702</ele>
        <time>2019-06-17T08:06:25Z</time>
      </trkpt>
      <trkpt lat="44.24033" lon="5.64311">
        <ele>702</ele>
        <time>2019-06-17T08:06:26Z</time>
      </trkpt>
      <trkpt lat="44.24031" lon="5.64302">
        <ele>702</ele>
        <time>2019-06-17T08:06:27Z</time>
      </trkpt>
      <trkpt lat="44.24029" lon="5.64293">
        <ele>702</ele>
        <time>2019-06-17T08:06:28Z</time>
      </trkpt>
      <trkpt lat="44.24027" lon="5.64283">
        <ele>702</ele>
        <time>2019-06-17T08:06:29Z</time>
      </trkpt>
      <trkpt lat="44.24026" lon="5.64273">
        <ele>702</ele>
        <time>2019-06-17T08:06:30Z</time>
      </trkpt>
      <trkpt lat="44.24025" lon="5.64263">
        <ele>702</ele>
        <time>2019-06-17T08:06:31Z</time>
      </trkpt>
      <trkpt lat="44.24024" lon="5.64253">
        <ele>702</ele>
        <time>2019-06-17T08:06:32Z</time>
      </trkpt>
      <trkpt lat="44.24025" lon="5.64243">
        <ele>702</ele>
        <time>2019-06-17T08:06:33Z</time>
      </trkpt>
      <trkpt lat="44.24026" lon="5.64233">
        <ele>702</ele>
        <time>2019-06-17T08:06:34Z</time>
      </trkpt>
      <trkpt lat="44.24029" lon="5.64223">
        <ele>702</ele>
        <time>2019-06-17T08:06:35Z</time>
      </trkpt>
      <trkpt lat="44.24032" lon="5.64214">
        <ele>702</ele>
        <time>2019-06-17T08:06:36Z</time>
      </trkpt>
      <trkpt lat="44.24036" lon="5.64205">
        <ele>702</ele>
        <time>2019-06-17T08:06:37Z</time>
      </trkpt>
      <trkpt lat="44.2404" lon="5.64196">
        <ele>702</ele>
        <time>2019-06-17T08:06:38Z</time>
      </trkpt>
      <trkpt lat="44.24044" lon="5.64188">
        <ele>702</ele>
        <time>2019-06-17T08:06:39Z</time>
      </trkpt>
      <trkpt lat="44.24049" lon="5.6418">
        <ele>702</ele>
        <time>2019-06-17T08:06:40Z</time>
      </trkpt>
      <trkpt lat="44.24053" lon="5.64171">
        <ele>702</ele>
        <time>2019-06-17T08:06:41Z</time>
      </trkpt>
      <trkpt lat="44.24057" lon="5.64162">
        <ele>702</ele>
        <time>2019-06-17T08:06:42Z</time>
      </trkpt>
      <trkpt lat="44.2406" lon="5.64154">
        <ele>702</ele>
        <time>2019-06-17T08:06:43Z</time>
      </trkpt>
      <trkpt lat="44.24064" lon="5.64145">
        <ele>702</ele>
        <time>2019-06-17T08:06:44Z</time>
      </trkpt>
      <trkpt lat="44.24068" lon="5.64136">
        <ele>702</ele>
        <time>2019-06-17T08:06:45Z</time>
      </trkpt>
      <trkpt lat="44.24072" lon="5.64127">
        <ele>702</ele>
        <time>2019-06-17T08:06:46Z</time>
      </trkpt>
      <trkpt lat="44.24075" lon="5.64117">
        <ele>702</ele>
        <time>2019-06-17T08:06:47Z</time>
      </trkpt>
      <trkpt lat="44.24079" lon="5.64108">
        <ele>702</ele>
        <time>2019-06-17T08:06:48Z</time>
      </trkpt>
      <trkpt lat="44.24082" lon="5.64099">
        <ele>702</ele>
        <time>2019-06-17T08:06:49Z</time>
      </trkpt>
      <trkpt lat="44.24086" lon="5.64089">
        <ele>702</ele>
        <time>2019-06-17T08:06:50Z</time>
      </trkpt>
      <trkpt lat="44.24089" lon="5.6408">
        <ele>702</ele>
        <time>2019-06-17T08:06:51Z</time>
      </trkpt>
      <trkpt lat="44.24092" lon="5.64071">
        <ele>702</ele>
        <time>2019-06-17T08:06:52Z</time>
      </trkpt>
      <trkpt lat="44.24096" lon="5.64063">
        <ele>702</ele>
        <time>2019-06-17T08:06:53Z</time>
      </trkpt>
      <trkpt lat="44.24099" lon="5.64053">
        <ele>702</ele>
        <time>2019-06-17T08:06:54Z</time>
      </trkpt>
      <trkpt lat="44.24103" lon="5.64045">
        <ele>702</ele>
        <time>2019-06-17T08:06:55Z</time>
      </trkpt>
      <trkpt lat="44.24106" lon="5.64035">
        <ele>702</ele>
        <time>2019-06-17T08:06:56Z</time>
      </trkpt>
      <trkpt lat="44.24109" lon="5.64026">
        <ele>702</ele>
        <time>2019-06-17T08:06:57Z</time>
      </trkpt>
      <trkpt lat="44.24112" lon="5.64017">
        <ele>702</ele>
        <time>2019-06-17T08:06:58Z</time>
      </trkpt>
      <trkpt lat="44.24116" lon="5.64009">
        <ele>702</ele>
        <time>2019-06-17T08:06:59Z</time>
      </trkpt>
      <trkpt lat="44.24119" lon="5.64">
        <ele>702</ele>
        <time>2019-06-17T08:07:00Z</time>
      </trkpt>
      <trkpt lat="44.24123" lon="5.63992">
        <ele>702</ele>
        <time>2019-06-17T08:07:01Z</time>
      </trkpt>
      <trkpt lat="44.24127" lon="5.63984">
        <ele>702</ele>
        <time>2019-06-17T08:07:02Z</time>
      </trkpt>
      <trkpt lat="44.24131" lon="5.63976">
        <ele>702</ele>
        <time>2019-06-17T08:07:03Z</time>
      </trkpt>
      <trkpt lat="44.24135" lon="5.63969">
        <ele>702</ele>
        <time>2019-06-17T08:07:04Z</time>
      </trkpt>
      <trkpt lat="44.24139" lon="5.63962">
        <ele>702</ele>
        <time>2019-06-17T08:07:05Z</time>
      </trkpt>
      <trkpt lat="44.24143" lon="5.63955">
        <ele>702</ele>
        <time>2019-06-17T08:07:06Z</time>
      </trkpt>
      <trkpt lat="44.24147" lon="5.63949">
        <ele>702</ele>
        <time>2019-06-17T08:07:07Z</time>
      </trkpt>
      <trkpt lat="44.24152" lon="5.63943">
        <ele>702</ele>
        <time>2019-06-17T08:07:08Z</time>
      </trkpt>
      <trkpt lat="44.24156" lon="5.63937">
        <ele>702</ele>
        <time>2019-06-17T08:07:09Z</time>
      </trkpt>
      <trkpt lat="44.24161" lon="5.63931">
        <ele>702</ele>
        <time>2019-06-17T08:07:10Z</time>
      </trkpt>
      <trkpt lat="44.24165" lon="5.63924">
        <ele>702</ele>
        <time>2019-06-17T08:07:11Z</time>
      </trkpt>
      <trkpt lat="44.24169" lon="5.63918">
        <ele>702</ele>
        <time>2019-06-17T08:07:12Z</time>
      </trkpt>
      <trkpt lat="44.24173" lon="5.63911">
        <ele>702</ele>
        <time>2019-06-17T08:07:13Z</time>
      </trkpt>
      <trkpt lat="44.24178" lon="5.63904">
        <ele>702</ele>
        <time>2019-06-17T08:07:14Z</time>
      </trkpt>
      <trkpt lat="44.24181" lon="5.63898">
        <ele>702</ele>
        <time>2019-06-17T08:07:15Z</time>
      </trkpt>
      <trkpt lat="44.24185" lon="5.6389">
        <ele>702</ele>
        <time>2019-06-17T08:07:16Z</time>
      </trkpt>
      <trkpt lat="44.24188" lon="5.63883">
        <ele>702</ele>
        <time>2019-06-17T08:07:17Z</time>
      </trkpt>
      <trkpt lat="44.24191" lon="5.63875">
        <ele>702</ele>
        <time>2019-06-17T08:07:18Z</time>
      </trkpt>
      <trkpt lat="44.24194" lon="5.63867">
        <ele>702</ele>
        <time>2019-06-17T08:07:19Z</time>
      </trkpt>
      <trkpt lat="44.24197" lon="5.63859">
        <ele>702</ele>
        <time>2019-06-17T08:07:20Z</time>
      </trkpt>
      <trkpt lat="44.24199" lon="5.63851">
        <ele>702</ele>
        <time>2019-06-17T08:07:21Z</time>
      </trkpt>
      <trkpt lat="44.242" lon="5.63842">
        <ele>702</ele>
        <time>2019-06-17T08:07:22Z</time>
      </trkpt>
      <trkpt lat="44.242" lon="5.63833">
        <ele>702</ele>
        <time>2019-06-17T08:07:23Z</time>
      </trkpt>
      <trkpt lat="44.24199" lon="5.63824">
        <ele>702</ele>
        <time>2019-06-17T08:07:24Z</time>
      </trkpt>
      <trkpt lat="44.24197" lon="5.63816">
        <ele>702</ele>
        <time>2019-06-17T08:07:25Z</time>
      </trkpt>
      <trkpt lat="44.24196" lon="5.63807">
        <ele>702</ele>
        <time>2019-06-17T08:07:26Z</time>
      </trkpt>
      <trkpt lat="44.24194" lon="5.63799">
        <ele>702</ele>
        <time>2019-06-17T08:07:27Z</time>
      </trkpt>
      <trkpt lat="44.24192" lon="5.63791">
        <ele>702</ele>
        <time>2019-06-17T08:07:28Z</time>
      </trkpt>
      <trkpt lat="44.2419" lon="5.63783">
        <ele>702</ele>
        <time>2019-06-17T08:07:29Z</time>
      </trkpt>
      <trkpt lat="44.24187" lon="5.63774">
        <ele>702</ele>
        <time>2019-06-17T08:07:30Z</time>
      </trkpt>
      <trkpt lat="44.24184" lon="5.63766">
        <ele>703</ele>
        <time>2019-06-17T08:07:31Z</time>
      </trkpt>
      <trkpt lat="44.24181" lon="5.63758">
        <ele>703</ele>
        <time>2019-06-17T08:07:32Z</time>
      </trkpt>
      <trkpt lat="44.24178" lon="5.6375">
        <ele>703</ele>
        <time>2019-06-17T08:07:33Z</time>
      </trkpt>
      <trkpt lat="44.24175" lon="5.63742">
        <ele>704</ele>
        <time>2019-06-17T08:07:34Z</time>
      </trkpt>
      <trkpt lat="44.24172" lon="5.63734">
        <ele>704</ele>
        <time>2019-06-17T08:07:35Z</time>
      </trkpt>
      <trkpt lat="44.24169" lon="5.63726">
        <ele>704</ele>
        <time>2019-06-17T08:07:36Z</time>
      </trkpt>
      <trkpt lat="44.24166" lon="5.63718">
        <ele>704</ele>
        <time>2019-06-17T08:07:37Z</time>
      </trkpt>
      <trkpt lat="44.24163" lon="5.6371">
        <ele>704</ele>
        <time>2019-06-17T08:07:38Z</time>
      </trkpt>
      <trkpt lat="44.2416" lon="5.63702">
        <ele>705</ele>
        <time>2019-06-17T08:07:39Z</time>
      </trkpt>
      <trkpt lat="44.24158" lon="5.63694">
        <ele>705</ele>
        <time>2019-06-17T08:07:40Z</time>
      </trkpt>
      <trkpt lat="44.24155" lon="5.63687">
        <ele>705</ele>
        <time>2019-06-17T08:07:41Z</time>
      </trkpt>
      <trkpt lat="44.24152" lon="5.63679">
        <ele>705</ele>
        <time>2019-06-17T08:07:42Z</time>
      </trkpt>
      <trkpt lat="44.24149" lon="5.63671">
        <ele>705</ele>
        <time>2019-06-17T08:07:43Z</time>
      </trkpt>
      <trkpt lat="44.24146" lon="5.63663">
        <ele>706</ele>
        <time>2019-06-17T08:07:44Z</time>
      </trkpt>
      <trkpt lat="44.24143" lon="5.63655">
        <ele>706</ele>
        <time>2019-06-17T08:07:45Z</time>
      </trkpt>
      <trkpt lat="44.24139" lon="5.63646">
        <ele>706</ele>
        <time>2019-06-17T08:07:46Z</time>
      </trkpt>
      <trkpt lat="44.24136" lon="5.63638">
        <ele>706</ele>
        <time>2019-06-17T08:07:47Z</time>
      </trkpt>
      <trkpt lat="44.24132" lon="5.6363">
        <ele>706</ele>
        <time>2019-06-17T08:07:48Z</time>
      </trkpt>
      <trkpt lat="44.24127" lon="5.63622">
        <ele>706</ele>
        <time>2019-06-17T08:07:49Z</time>
      </trkpt>
      <trkpt lat="44.24123" lon="5.63615">
        <ele>706</ele>
        <time>2019-06-17T08:07:50Z</time>
      </trkpt>
      <trkpt lat="44.24118" lon="5.63608">
        <ele>706</ele>
        <time>2019-06-17T08:07:51Z</time>
      </trkpt>
      <trkpt lat="44.24113" lon="5.63601">
        <ele>706</ele>
        <time>2019-06-17T08:07:52Z</time>
      </trkpt>
      <trkpt lat="44.24108" lon="5.63594">
        <ele>706</ele>
        <time>2019-06-17T08:07:53Z</time>
      </trkpt>
      <trkpt lat="44.24103" lon="5.63588">
        <ele>706</ele>
        <time>2019-06-17T08:07:54Z</time>
      </trkpt>
      <trkpt lat="44.24098" lon="5.63581">
        <ele>706</ele>
        <time>2019-06-17T08:07:55Z</time>
      </trkpt>
      <trkpt lat="44.24092" lon="5.63575">
        <ele>706</ele>
        <time>2019-06-17T08:07:56Z</time>
      </trkpt>
      <trkpt lat="44.24087" lon="5.63568">
        <ele>706</ele>
        <time>2019-06-17T08:07:57Z</time>
      </trkpt>
      <trkpt lat="44.24081" lon="5.63562">
        <ele>706</ele>
        <time>2019-06-17T08:07:58Z</time>
      </trkpt>
      <trkpt lat="44.24075" lon="5.63556">
        <ele>706</ele>
        <time>2019-06-17T08:07:59Z</time>
      </trkpt>
      <trkpt lat="44.24068" lon="5.63549">
        <ele>706</ele>
        <time>2019-06-17T08:08:00Z</time>
      </trkpt>
      <trkpt lat="44.24062" lon="5.63543">
        <ele>706</ele>
        <time>2019-06-17T08:08:01Z</time>
      </trkpt>
      <trkpt lat="44.24055" lon="5.63536">
        <ele>706</ele>
        <time>2019-06-17T08:08:02Z</time>
      </trkpt>
      <trkpt lat="44.24049" lon="5.6353">
        <ele>706</ele>
        <time>2019-06-17T08:08:03Z</time>
      </trkpt>
      <trkpt lat="44.24043" lon="5.63524">
        <ele>706</ele>
        <time>2019-06-17T08:08:04Z</time>
      </trkpt>
      <trkpt lat="44.24036" lon="5.63518">
        <ele>706</ele>
        <time>2019-06-17T08:08:05Z</time>
      </trkpt>
      <trkpt lat="44.24031" lon="5.63511">
        <ele>706</ele>
        <time>2019-06-17T08:08:06Z</time>
      </trkpt>
      <trkpt lat="44.24025" lon="5.63505">
        <ele>706</ele>
        <time>2019-06-17T08:08:07Z</time>
      </trkpt>
      <trkpt lat="44.24019" lon="5.63499">
        <ele>706</ele>
        <time>2019-06-17T08:08:08Z</time>
      </trkpt>
      <trkpt lat="44.24014" lon="5.63493">
        <ele>706</ele>
        <time>2019-06-17T08:08:09Z</time>
      </trkpt>
      <trkpt lat="44.24008" lon="5.63487">
        <ele>706</ele>
        <time>2019-06-17T08:08:10Z</time>
      </trkpt>
      <trkpt lat="44.24002" lon="5.63481">
        <ele>706</ele>
        <time>2019-06-17T08:08:11Z</time>
      </trkpt>
      <trkpt lat="44.23997" lon="5.63475">
        <ele>706</ele>
        <time>2019-06-17T08:08:12Z</time>
      </trkpt>
      <trkpt lat="44.23991" lon="5.63469">
        <ele>706</ele>
        <time>2019-06-17T08:08:13Z</time>
      </trkpt>
      <trkpt lat="44.23985" lon="5.63463">
        <ele>705</ele>
        <time>2019-06-17T08:08:14Z</time>
      </trkpt>
      <trkpt lat="44.2398" lon="5.63457">
        <ele>705</ele>
        <time>2019-06-17T08:08:15Z</time>
      </trkpt>
      <trkpt lat="44.23974" lon="5.63451">
        <ele>705</ele>
        <time>2019-06-17T08:08:16Z</time>
      </trkpt>
      <trkpt lat="44.23969" lon="5.63446">
        <ele>704</ele>
        <time>2019-06-17T08:08:17Z</time>
      </trkpt>
      <trkpt lat="44.23963" lon="5.6344">
        <ele>704</ele>
        <time>2019-06-17T08:08:18Z</time>
      </trkpt>
      <trkpt lat="44.23957" lon="5.63434">
        <ele>704</ele>
        <time>2019-06-17T08:08:19Z</time>
      </trkpt>
      <trkpt lat="44.23952" lon="5.63428">
        <ele>703</ele>
        <time>2019-06-17T08:08:20Z</time>
      </trkpt>
      <trkpt lat="44.23946" lon="5.63423">
        <ele>703</ele>
        <time>2019-06-17T08:08:21Z</time>
      </trkpt>
      <trkpt lat="44.23941" lon="5.63417">
        <ele>703</ele>
        <time>2019-06-17T08:08:22Z</time>
      </trkpt>
      <trkpt lat="44.23935" lon="5.63412">
        <ele>702</ele>
        <time>2019-06-17T08:08:23Z</time>
      </trkpt>
      <trkpt lat="44.2393" lon="5.63406">
        <ele>702</ele>
        <time>2019-06-17T08:08:24Z</time>
      </trkpt>
      <trkpt lat="44.23925" lon="5.634">
        <ele>702</ele>
        <time>2019-06-17T08:08:25Z</time>
      </trkpt>
      <trkpt lat="44.2392" lon="5.63394">
        <ele>701</ele>
        <time>2019-06-17T08:08:26Z</time>
      </trkpt>
      <trkpt lat="44.23914" lon="5.63389">
        <ele>701</ele>
        <time>2019-06-17T08:08:27Z</time>
      </trkpt>
      <trkpt lat="44.23909" lon="5.63383">
        <ele>701</ele>
        <time>2019-06-17T08:08:28Z</time>
      </trkpt>
      <trkpt lat="44.23904" lon="5.63377">
        <ele>701</ele>
        <time>2019-06-17T08:08:29Z</time>
      </trkpt>
      <trkpt lat="44.23898" lon="5.63372">
        <ele>701</ele>
        <time>2019-06-17T08:08:30Z</time>
      </trkpt>
      <trkpt lat="44.23893" lon="5.63366">
        <ele>701</ele>
        <time>2019-06-17T08:08:31Z</time>
      </trkpt>
      <trkpt lat="44.23887" lon="5.63361">
        <ele>700</ele>
        <time>2019-06-17T08:08:32Z</time>
      </trkpt>
      <trkpt lat="44.23882" lon="5.63355">
        <ele>700</ele>
        <time>2019-06-17T08:08:33Z</time>
      </trkpt>
      <trkpt lat="44.23876" lon="5.6335">
        <ele>700</ele>
        <time>2019-06-17T08:08:34Z</time>
      </trkpt>
      <trkpt lat="44.23871" lon="5.63344">
        <ele>700</ele>
        <time>2019-06-17T08:08:35Z</time>
      </trkpt>
      <trkpt lat="44.23866" lon="5.63338">
        <ele>700</ele>
        <time>2019-06-17T08:08:36Z</time>
      </trkpt>
      <trkpt lat="44.2386" lon="5.63332">
        <ele>699</ele>
        <time>2019-06-17T08:08:37Z</time>
      </trkpt>
      <trkpt lat="44.23854" lon="5.63327">
        <ele>699</ele>
        <time>2019-06-17T08:08:38Z</time>
      </trkpt>
      <trkpt lat="44.23849" lon="5.6332">
        <ele>699</ele>
        <time>2019-06-17T08:08:39Z</time>
      </trkpt>
      <trkpt lat="44.23843" lon="5.63315">
        <ele>699</ele>
        <time>2019-06-17T08:08:40Z</time>
      </trkpt>
      <trkpt lat="44.23837" lon="5.63309">
        <ele>699</ele>
        <time>2019-06-17T08:08:41Z</time>
      </trkpt>
      <trkpt lat="44.23832" lon="5.63302">
        <ele>699</ele>
        <time>2019-06-17T08:08:42Z</time>
      </trkpt>
      <trkpt lat="44.23825" lon="5.63297">
        <ele>699</ele>
        <time>2019-06-17T08:08:43Z</time>
      </trkpt>
      <trkpt lat="44.23819" lon="5.63291">
        <ele>699</ele>
        <time>2019-06-17T08:08:44Z</time>
      </trkpt>
      <trkpt lat="44.23814" lon="5.63286">
        <ele>699</ele>
        <time>2019-06-17T08:08:45Z</time>
      </trkpt>
      <trkpt lat="44.23808" lon="5.6328">
        <ele>699</ele>
        <time>2019-06-17T08:08:46Z</time>
      </trkpt>
      <trkpt lat="44.23802" lon="5.63274">
        <ele>699</ele>
        <time>2019-06-17T08:08:47Z</time>
      </trkpt>
      <trkpt lat="44.23796" lon="5.63269">
        <ele>699</ele>
        <time>2019-06-17T08:08:48Z</time>
      </trkpt>
      <trkpt lat="44.2379" lon="5.63263">
        <ele>699</ele>
        <time>2019-06-17T08:08:49Z</time>
      </trkpt>
      <trkpt lat="44.23784" lon="5.63258">
        <ele>699</ele>
        <time>2019-06-17T08:08:50Z</time>
      </trkpt>
      <trkpt lat="44.23778" lon="5.63253">
        <ele>699</ele>
        <time>2019-06-17T08:08:51Z</time>
      </trkpt>
      <trkpt lat="44.23772" lon="5.63248">
        <ele>700</ele>
        <time>2019-06-17T08:08:52Z</time>
      </trkpt>
      <trkpt lat="44.23766" lon="5.63244">
        <ele>701</ele>
        <time>2019-06-17T08:08:53Z</time>
      </trkpt>
      <trkpt lat="44.2376" lon="5.6324">
        <ele>702</ele>
        <time>2019-06-17T08:08:54Z</time>
      </trkpt>
      <trkpt lat="44.23753" lon="5.63236">
        <ele>703</ele>
        <time>2019-06-17T08:08:55Z</time>
      </trkpt>
      <trkpt lat="44.23748" lon="5.63233">
        <ele>704</ele>
        <time>2019-06-17T08:08:56Z</time>
      </trkpt>
      <trkpt lat="44.23742" lon="5.63229">
        <ele>705</ele>
        <time>2019-06-17T08:08:57Z</time>
      </trkpt>
      <trkpt lat="44.23736" lon="5.63226">
        <ele>706</ele>
        <time>2019-06-17T08:08:58Z</time>
      </trkpt>
      <trkpt lat="44.2373" lon="5.63223">
        <ele>707</ele>
        <time>2019-06-17T08:08:59Z</time>
      </trkpt>
      <trkpt lat="44.23724" lon="5.63221">
        <ele>708</ele>
        <time>2019-06-17T08:09:00Z</time>
      </trkpt>
      <trkpt lat="44.23719" lon="5.63218">
        <ele>709</ele>
        <time>2019-06-17T08:09:01Z</time>
      </trkpt>
      <trkpt lat="44.23713" lon="5.63215">
        <ele>710</ele>
        <time>2019-06-17T08:09:02Z</time>
      </trkpt>
      <trkpt lat="44.23708" lon="5.63213">
        <ele>710</ele>
        <time>2019-06-17T08:09:03Z</time>
      </trkpt>
      <trkpt lat="44.23702" lon="5.63211">
        <ele>710</ele>
        <time>2019-06-17T08:09:04Z</time>
      </trkpt>
      <trkpt lat="44.23696" lon="5.63209">
        <ele>710</ele>
        <time>2019-06-17T08:09:05Z</time>
      </trkpt>
      <trkpt lat="44.2369" lon="5.63207">
        <ele>710</ele>
        <time>2019-06-17T08:09:06Z</time>
      </trkpt>
      <trkpt lat="44.23684" lon="5.63206">
        <ele>710</ele>
        <time>2019-06-17T08:09:07Z</time>
      </trkpt>
      <trkpt lat="44.23678" lon="5.63205">
        <ele>710</ele>
        <time>2019-06-17T08:09:08Z</time>
      </trkpt>
      <trkpt lat="44.23672" lon="5.63203">
        <ele>710</ele>
        <time>2019-06-17T08:09:09Z</time>
      </trkpt>
      <trkpt lat="44.23666" lon="5.63202">
        <ele>710</ele>
        <time>2019-06-17T08:09:10Z</time>
      </trkpt>
      <trkpt lat="44.23659" lon="5.632">
        <ele>710</ele>
        <time>2019-06-17T08:09:11Z</time>
      </trkpt>
      <trkpt lat="44.23652" lon="5.63198">
        <ele>710</ele>
        <time>2019-06-17T08:09:12Z</time>
      </trkpt>
      <trkpt lat="44.23645" lon="5.63196">
        <ele>710</ele>
        <time>2019-06-17T08:09:13Z</time>
      </trkpt>
      <trkpt lat="44.23638" lon="5.63194">
        <ele>710</ele>
        <time>2019-06-17T08:09:14Z</time>
      </trkpt>
      <trkpt lat="44.23631" lon="5.63193">
        <ele>710</ele>
        <time>2019-06-17T08:09:15Z</time>
      </trkpt>
      <trkpt lat="44.23624" lon="5.63191">
        <ele>710</ele>
        <time>2019-06-17T08:09:16Z</time>
      </trkpt>
      <trkpt lat="44.23617" lon="5.63189">
        <ele>710</ele>
        <time>2019-06-17T08:09:17Z</time>
      </trkpt>
      <trkpt lat="44.23611" lon="5.63188">
        <ele>710</ele>
        <time>2019-06-17T08:09:18Z</time>
      </trkpt>
      <trkpt lat="44.23604" lon="5.63186">
        <ele>710</ele>
        <time>2019-06-17T08:09:19Z</time>
      </trkpt>
      <trkpt lat="44.23597" lon="5.63184">
        <ele>710</ele>
        <time>2019-06-17T08:09:20Z</time>
      </trkpt>
      <trkpt lat="44.23591" lon="5.63183">
        <ele>710</ele>
        <time>2019-06-17T08:09:21Z</time>
      </trkpt>
      <trkpt lat="44.23585" lon="5.63181">
        <ele>710</ele>
        <time>2019-06-17T08:09:22Z</time>
      </trkpt>
      <trkpt lat="44.23578" lon="5.6318">
        <ele>710</ele>
        <time>2019-06-17T08:09:23Z</time>
      </trkpt>
      <trkpt lat="44.23572" lon="5.63178">
        <ele>710</ele>
        <time>2019-06-17T08:09:24Z</time>
      </trkpt>
      <trkpt lat="44.23566" lon="5.63177">
        <ele>710</ele>
        <time>2019-06-17T08:09:25Z</time>
      </trkpt>
      <trkpt lat="44.2356" lon="5.63176">
        <ele>710</ele>
        <time>2019-06-17T08:09:26Z</time>
      </trkpt>
      <trkpt lat="44.23554" lon="5.63174">
        <ele>710</ele>
        <time>2019-06-17T08:09:27Z</time>
      </trkpt>
      <trkpt lat="44.23548" lon="5.63173">
        <ele>710</ele>
        <time>2019-06-17T08:09:28Z</time>
      </trkpt>
      <trkpt lat="44.23542" lon="5.63171">
        <ele>710</ele>
        <time>2019-06-17T08:09:29Z</time>
      </trkpt>
      <trkpt lat="44.23535" lon="5.6317">
        <ele>710</ele>
        <time>2019-06-17T08:09:30Z</time>
      </trkpt>
      <trkpt lat="44.23529" lon="5.63168">
        <ele>710</ele>
        <time>2019-06-17T08:09:31Z</time>
      </trkpt>
      <trkpt lat="44.23523" lon="5.63167">
        <ele>710</ele>
        <time>2019-06-17T08:09:32Z</time>
      </trkpt>
      <trkpt lat="44.23518" lon="5.63165">
        <ele>710</ele>
        <time>2019-06-17T08:09:33Z</time>
      </trkpt>
      <trkpt lat="44.23511" lon="5.63164">
        <ele>710</ele>
        <time>2019-06-17T08:09:34Z</time>
      </trkpt>
      <trkpt lat="44.23505" lon="5.63163">
        <ele>710</ele>
        <time>2019-06-17T08:09:35Z</time>
      </trkpt>
      <trkpt lat="44.23498" lon="5.63161">
        <ele>710</ele>
        <time>2019-06-17T08:09:36Z</time>
      </trkpt>
      <trkpt lat="44.23491" lon="5.6316">
        <ele>710</ele>
        <time>2019-06-17T08:09:37Z</time>
      </trkpt>
      <trkpt lat="44.23483" lon="5.63158">
        <ele>710</ele>
        <time>2019-06-17T08:09:38Z</time>
      </trkpt>
      <trkpt lat="44.23476" lon="5.63156">
        <ele>710</ele>
        <time>2019-06-17T08:09:39Z</time>
      </trkpt>
      <trkpt lat="44.23468" lon="5.63154">
        <ele>710</ele>
        <time>2019-06-17T08:09:40Z</time>
      </trkpt>
      <trkpt lat="44.2346" lon="5.63152">
        <ele>710</ele>
        <time>2019-06-17T08:09:41Z</time>
      </trkpt>
      <trkpt lat="44.23452" lon="5.6315">
        <ele>710</ele>
        <time>2019-06-17T08:09:42Z</time>
      </trkpt>
      <trkpt lat="44.23445" lon="5.63148">
        <ele>710</ele>
        <time>2019-06-17T08:09:43Z</time>
      </trkpt>
      <trkpt lat="44.23437" lon="5.63147">
        <ele>710</ele>
        <time>2019-06-17T08:09:44Z</time>
      </trkpt>
      <trkpt lat="44.23429" lon="5.63145">
        <ele>710</ele>
        <time>2019-06-17T08:09:45Z</time>
      </trkpt>
      <trkpt lat="44.23421" lon="5.63143">
        <ele>710</ele>
        <time>2019-06-17T08:09:46Z</time>
      </trkpt>
      <trkpt lat="44.23413" lon="5.63141">
        <ele>710</ele>
        <time>2019-06-17T08:09:47Z</time>
      </trkpt>
      <trkpt lat="44.23406" lon="5.6314">
        <ele>710</ele>
        <time>2019-06-17T08:09:48Z</time>
      </trkpt>
      <trkpt lat="44.23399" lon="5.63138">
        <ele>710</ele>
        <time>2019-06-17T08:09:49Z</time>
      </trkpt>
      <trkpt lat="44.23391" lon="5.63137">
        <ele>710</ele>
        <time>2019-06-17T08:09:50Z</time>
      </trkpt>
      <trkpt lat="44.23383" lon="5.63136">
        <ele>710</ele>
        <time>2019-06-17T08:09:51Z</time>
      </trkpt>
      <trkpt lat="44.23376" lon="5.63134">
        <ele>710</ele>
        <time>2019-06-17T08:09:52Z</time>
      </trkpt>
      <trkpt lat="44.23368" lon="5.63132">
        <ele>710</ele>
        <time>2019-06-17T08:09:53Z</time>
      </trkpt>
      <trkpt lat="44.23361" lon="5.6313">
        <ele>710</ele>
        <time>2019-06-17T08:09:54Z</time>
      </trkpt>
      <trkpt lat="44.23354" lon="5.63128">
        <ele>710</ele>
        <time>2019-06-17T08:09:55Z</time>
      </trkpt>
      <trkpt lat="44.23346" lon="5.63126">
        <ele>710</ele>
        <time>2019-06-17T08:09:56Z</time>
      </trkpt>
      <trkpt lat="44.23339" lon="5.63124">
        <ele>710</ele>
        <time>2019-06-17T08:09:57Z</time>
      </trkpt>
      <trkpt lat="44.23331" lon="5.63123">
        <ele>710</ele>
        <time>2019-06-17T08:09:58Z</time>
      </trkpt>
      <trkpt lat="44.23324" lon="5.63121">
        <ele>710</ele>
        <time>2019-06-17T08:09:59Z</time>
      </trkpt>
      <trkpt lat="44.23317" lon="5.63119">
        <ele>710</ele>
        <time>2019-06-17T08:10:00Z</time>
      </trkpt>
      <trkpt lat="44.23309" lon="5.63118">
        <ele>710</ele>
        <time>2019-06-17T08:10:01Z</time>
      </trkpt>
      <trkpt lat="44.23302" lon="5.63116">
        <ele>710</ele>
        <time>2019-06-17T08:10:02Z</time>
      </trkpt>
      <trkpt lat="44.23294" lon="5.63114">
        <ele>710</ele>
        <time>2019-06-17T08:10:03Z</time>
      </trkpt>
      <trkpt lat="44.23287" lon="5.63112">
        <ele>710</ele>
        <time>2019-06-17T08:10:04Z</time>
      </trkpt>
      <trkpt lat="44.2328" lon="5.6311">
        <ele>710</ele>
        <time>2019-06-17T08:10:05Z</time>
      </trkpt>
      <trkpt lat="44.23273" lon="5.63108">
        <ele>710</ele>
        <time>2019-06-17T08:10:06Z</time>
      </trkpt>
      <trkpt lat="44.23265" lon="5.63106">
        <ele>710</ele>
        <time>2019-06-17T08:10:07Z</time>
      </trkpt>
      <trkpt lat="44.23258" lon="5.63105">
        <ele>710</ele>
        <time>2019-06-17T08:10:08Z</time>
      </trkpt>
      <trkpt lat="44.23251" lon="5.63103">
        <ele>710</ele>
        <time>2019-06-17T08:10:09Z</time>
      </trkpt>
      <trkpt lat="44.23244" lon="5.63101">
        <ele>710</ele>
        <time>2019-06-17T08:10:10Z</time>
      </trkpt>
      <trkpt lat="44.23237" lon="5.63099">
        <ele>710</ele>
        <time>2019-06-17T08:10:11Z</time>
      </trkpt>
      <trkpt lat="44.2323" lon="5.63098">
        <ele>710</ele>
        <time>2019-06-17T08:10:12Z</time>
      </trkpt>
      <trkpt lat="44.23223" lon="5.63096">
        <ele>710</ele>
        <time>2019-06-17T08:10:13Z</time>
      </trkpt>
      <trkpt lat="44.23216" lon="5.63094">
        <ele>710</ele>
        <time>2019-06-17T08:10:14Z</time>
      </trkpt>
      <trkpt lat="44.23209" lon="5.63093">
        <ele>710</ele>
        <time>2019-06-17T08:10:15Z</time>
      </trkpt>
      <trkpt lat="44.23201" lon="5.63091">
        <ele>710</ele>
        <time>2019-06-17T08:10:16Z</time>
      </trkpt>
      <trkpt lat="44.23195" lon="5.63089">
        <ele>710</ele>
        <time>2019-06-17T08:10:17Z</time>
      </trkpt>
      <trkpt lat="44.23188" lon="5.63088">
        <ele>710</ele>
        <time>2019-06-17T08:10:18Z</time>
      </trkpt>
      <trkpt lat="44.2318" lon="5.63086">
        <ele>710</ele>
        <time>2019-06-17T08:10:19Z</time>
      </trkpt>
      <trkpt lat="44.23173" lon="5.63084">
        <ele>710</ele>
        <time>2019-06-17T08:10:20Z</time>
      </trkpt>
      <trkpt lat="44.23166" lon="5.63083">
        <ele>710</ele>
        <time>2019-06-17T08:10:21Z</time>
      </trkpt>
      <trkpt lat="44.23159" lon="5.63081">
        <ele>710</ele>
        <time>2019-06-17T08:10:22Z</time>
      </trkpt>
      <trkpt lat="44.23152" lon="5.6308">
        <ele>710</ele>
        <time>2019-06-17T08:10:23Z</time>
      </trkpt>
      <trkpt lat="44.23145" lon="5.63078">
        <ele>710</ele>
        <time>2019-06-17T08:10:24Z</time>
      </trkpt>
      <trkpt lat="44.23138" lon="5.63076">
        <ele>710</ele>
        <time>2019-06-17T08:10:25Z</time>
      </trkpt>
      <trkpt lat="44.23131" lon="5.63075">
        <ele>710</ele>
        <time>2019-06-17T08:10:26Z</time>
      </trkpt>
      <trkpt lat="44.23124" lon="5.63073">
        <ele>710</ele>
        <time>2019-06-17T08:10:27Z</time>
      </trkpt>
      <trkpt lat="44.23117" lon="5.63071">
        <ele>710</ele>
        <time>2019-06-17T08:10:28Z</time>
      </trkpt>
      <trkpt lat="44.23111" lon="5.6307">
        <ele>710</ele>
        <time>2019-06-17T08:10:29Z</time>
      </trkpt>
      <trkpt lat="44.23104" lon="5.63068">
        <ele>710</ele>
        <time>2019-06-17T08:10:30Z</time>
      </trkpt>
      <trkpt lat="44.23098" lon="5.63066">
        <ele>710</ele>
        <time>2019-06-17T08:10:31Z</time>
      </trkpt>
      <trkpt lat="44.23092" lon="5.63064">
        <ele>710</ele>
        <time>2019-06-17T08:10:32Z</time>
      </trkpt>
      <trkpt lat="44.23085" lon="5.63061">
        <ele>710</ele>
        <time>2019-06-17T08:10:33Z</time>
      </trkpt>
      <trkpt lat="44.23079" lon="5.63057">
        <ele>710</ele>
        <time>2019-06-17T08:10:34Z</time>
      </trkpt>
      <trkpt lat="44.23073" lon="5.63053">
        <ele>710</ele>
        <time>2019-06-17T08:10:35Z</time>
      </trkpt>
      <trkpt lat="44.23067" lon="5.63049">
        <ele>710</ele>
        <time>2019-06-17T08:10:36Z</time>
      </trkpt>
      <trkpt lat="44.23061" lon="5.63046">
        <ele>710</ele>
        <time>2019-06-17T08:10:37Z</time>
      </trkpt>
      <trkpt lat="44.23056" lon="5.63042">
        <ele>710</ele>
        <time>2019-06-17T08:10:38Z</time>
      </trkpt>
      <trkpt lat="44.23051" lon="5.63037">
        <ele>710</ele>
        <time>2019-06-17T08:10:39Z</time>
      </trkpt>
      <trkpt lat="44.23046" lon="5.63033">
        <ele>711</ele>
        <time>2019-06-17T08:10:40Z</time>
      </trkpt>
      <trkpt lat="44.23042" lon="5.63028">
        <ele>711</ele>
        <time>2019-06-17T08:10:41Z</time>
      </trkpt>
      <trkpt lat="44.23037" lon="5.63023">
        <ele>712</ele>
        <time>2019-06-17T08:10:42Z</time>
      </trkpt>
      <trkpt lat="44.23032" lon="5.63018">
        <ele>712</ele>
        <time>2019-06-17T08:10:43Z</time>
      </trkpt>
      <trkpt lat="44.23028" lon="5.63013">
        <ele>713</ele>
        <time>2019-06-17T08:10:44Z</time>
      </trkpt>
      <trkpt lat="44.23024" lon="5.63007">
        <ele>713</ele>
        <time>2019-06-17T08:10:45Z</time>
      </trkpt>
      <trkpt lat="44.2302" lon="5.63002">
        <ele>713</ele>
        <time>2019-06-17T08:10:46Z</time>
      </trkpt>
      <trkpt lat="44.23016" lon="5.62998">
        <ele>714</ele>
        <time>2019-06-17T08:10:47Z</time>
      </trkpt>
      <trkpt lat="44.23012" lon="5.62993">
        <ele>714</ele>
        <time>2019-06-17T08:10:48Z</time>
      </trkpt>
      <trkpt lat="44.23008" lon="5.62989">
        <ele>715</ele>
        <time>2019-06-17T08:10:49Z</time>
      </trkpt>
      <trkpt lat="44.23004" lon="5.62985">
        <ele>716</ele>
        <time>2019-06-17T08:10:50Z</time>
      </trkpt>
      <trkpt lat="44.23" lon="5.6298">
        <ele>716</ele>
        <time>2019-06-17T08:10:51Z</time>
      </trkpt>
      <trkpt lat="44.22996" lon="5.62977">
        <ele>717</ele>
        <time>2019-06-17T08:10:52Z</time>
      </trkpt>
      <trkpt lat="44.22992" lon="5.62973">
        <ele>718</ele>
        <time>2019-06-17T08:10:53Z</time>
      </trkpt>
      <trkpt lat="44.22987" lon="5.62969">
        <ele>718</ele>
        <time>2019-06-17T08:10:54Z</time>
      </trkpt>
      <trkpt lat="44.22983" lon="5.62966">
        <ele>718</ele>
        <time>2019-06-17T08:10:55Z</time>
      </trkpt>
      <trkpt lat="44.22979" lon="5.62962">
        <ele>719</ele>
        <time>2019-06-17T08:10:56Z</time>
      </trkpt>
      <trkpt lat="44.22974" lon="5.62959">
        <ele>719</ele>
        <time>2019-06-17T08:10:57Z</time>
      </trkpt>
      <trkpt lat="44.2297" lon="5.62957">
        <ele>719</ele>
        <time>2019-06-17T08:10:58Z</time>
      </trkpt>
      <trkpt lat="44.22966" lon="5.62954">
        <ele>719</ele>
        <time>2019-06-17T08:10:59Z</time>
      </trkpt>
      <trkpt lat="44.22961" lon="5.62952">
        <ele>719</ele>
        <time>2019-06-17T08:11:00Z</time>
      </trkpt>
      <trkpt lat="44.22957" lon="5.62949">
        <ele>719</ele>
        <time>2019-06-17T08:11:01Z</time>
      </trkpt>
      <trkpt lat="44.22952" lon="5.62946">
        <ele>719</ele>
        <time>2019-06-17T08:11:02Z</time>
      </trkpt>
      <trkpt lat="44.22948" lon="5.62943">
        <ele>719</ele>
        <time>2019-06-17T08:11:03Z</time>
      </trkpt>
      <trkpt lat="44.22943" lon="5.6294">
        <ele>719</ele>
        <time>2019-06-17T08:11:04Z</time>
      </trkpt>
      <trkpt lat="44.22938" lon="5.62936">
        <ele>719</ele>
        <time>2019-06-17T08:11:05Z</time>
      </trkpt>
      <trkpt lat="44.22934" lon="5.62932">
        <ele>719</ele>
        <time>2019-06-17T08:11:06Z</time>
      </trkpt>
      <trkpt lat="44.2293" lon="5.62928">
        <ele>719</ele>
        <time>2019-06-17T08:11:07Z</time>
      </trkpt>
      <trkpt lat="44.22926" lon="5.62924">
        <ele>719</ele>
        <time>2019-06-17T08:11:08Z</time>
      </trkpt>
      <trkpt lat="44.22923" lon="5.62921">
        <ele>719</ele>
        <time>2019-06-17T08:11:09Z</time>
      </trkpt>
      <trkpt lat="44.22919" lon="5.62917">
        <ele>720</ele>
        <time>2019-06-17T08:11:10Z</time>
      </trkpt>
      <trkpt lat="44.22916" lon="5.62913">
        <ele>720</ele>
        <time>2019-06-17T08:11:11Z</time>
      </trkpt>
      <trkpt lat="44.22912" lon="5.62909">
        <ele>720</ele>
        <time>2019-06-17T08:11:12Z</time>
      </trkpt>
      <trkpt lat="44.22908" lon="5.62905">
        <ele>721</ele>
        <time>2019-06-17T08:11:13Z</time>
      </trkpt>
      <trkpt lat="44.22905" lon="5.62901">
        <ele>721</ele>
        <time>2019-06-17T08:11:14Z</time>
      </trkpt>
      <trkpt lat="44.22901" lon="5.62897">
        <ele>722</ele>
        <time>2019-06-17T08:11:15Z</time>
      </trkpt>
      <trkpt lat="44.22897" lon="5.62893">
        <ele>722</ele>
        <time>2019-06-17T08:11:16Z</time>
      </trkpt>
      <trkpt lat="44.22894" lon="5.62889">
        <ele>723</ele>
        <time>2019-06-17T08:11:17Z</time>
      </trkpt>
      <trkpt lat="44.2289" lon="5.62885">
        <ele>723</ele>
        <time>2019-06-17T08:11:18Z</time>
      </trkpt>
      <trkpt lat="44.22887" lon="5.62882">
        <ele>723</ele>
        <time>2019-06-17T08:11:19Z</time>
      </trkpt>
      <trkpt lat="44.22883" lon="5.62878">
        <ele>724</ele>
        <time>2019-06-17T08:11:20Z</time>
      </trkpt>
      <trkpt lat="44.2288" lon="5.62874">
        <ele>724</ele>
        <time>2019-06-17T08:11:21Z</time>
      </trkpt>
      <trkpt lat="44.22876" lon="5.6287">
        <ele>724</ele>
        <time>2019-06-17T08:11:22Z</time>
      </trkpt>
      <trkpt lat="44.22873" lon="5.62865">
        <ele>724</ele>
        <time>2019-06-17T08:11:23Z</time>
      </trkpt>
      <trkpt lat="44.22869" lon="5.62861">
        <ele>724</ele>
        <time>2019-06-17T08:11:24Z</time>
      </trkpt>
      <trkpt lat="44.22866" lon="5.62857">
        <ele>724</ele>
        <time>2019-06-17T08:11:25Z</time>
      </trkpt>
      <trkpt lat="44.22862" lon="5.62853">
        <ele>724</ele>
        <time>2019-06-17T08:11:26Z</time>
      </trkpt>
      <trkpt lat="44.22859" lon="5.62849">
        <ele>725</ele>
        <time>2019-06-17T08:11:27Z</time>
      </trkpt>
      <trkpt lat="44.22856" lon="5.62845">
        <ele>725</ele>
        <time>2019-06-17T08:11:28Z</time>
      </trkpt>
      <trkpt lat="44.22852" lon="5.62841">
        <ele>725</ele>
        <time>2019-06-17T08:11:29Z</time>
      </trkpt>
      <trkpt lat="44.22849" lon="5.62837">
        <ele>725</ele>
        <time>2019-06-17T08:11:30Z</time>
      </trkpt>
      <trkpt lat="44.22846" lon="5.62832">
        <ele>725</ele>
        <time>2019-06-17T08:11:31Z</time>
      </trkpt>
      <trkpt lat="44.22843" lon="5.62828">
        <ele>726</ele>
        <time>2019-06-17T08:11:32Z</time>
      </trkpt>
      <trkpt lat="44.22839" lon="5.62824">
        <ele>726</ele>
        <time>2019-06-17T08:11:33Z</time>
      </trkpt>
      <trkpt lat="44.22835" lon="5.62819">
        <ele>727</ele>
        <time>2019-06-17T08:11:34Z</time>
      </trkpt>
      <trkpt lat="44.22831" lon="5.62815">
        <ele>727</ele>
        <time>2019-06-17T08:11:35Z</time>
      </trkpt>
      <trkpt lat="44.22828" lon="5.6281">
        <ele>728</ele>
        <time>2019-06-17T08:11:36Z</time>
      </trkpt>
      <trkpt lat="44.22824" lon="5.62806">
        <ele>728</ele>
        <time>2019-06-17T08:11:37Z</time>
      </trkpt>
      <trkpt lat="44.2282" lon="5.62802">
        <ele>728</ele>
        <time>2019-06-17T08:11:38Z</time>
      </trkpt>
      <trkpt lat="44.22816" lon="5.62797">
        <ele>729</ele>
        <time>2019-06-17T08:11:39Z</time>
      </trkpt>
      <trkpt lat="44.22812" lon="5.62793">
        <ele>729</ele>
        <time>2019-06-17T08:11:40Z</time>
      </trkpt>
      <trkpt lat="44.22808" lon="5.62788">
        <ele>729</ele>
        <time>2019-06-17T08:11:41Z</time>
      </trkpt>
      <trkpt lat="44.22804" lon="5.62783">
        <ele>729</ele>
        <time>2019-06-17T08:11:42Z</time>
      </trkpt>
      <trkpt lat="44.228" lon="5.6278">
        <ele>729</ele>
        <time>2019-06-17T08:11:43Z</time>
      </trkpt>
      <trkpt lat="44.22795" lon="5.62776">
        <ele>730</ele>
        <time>2019-06-17T08:11:44Z</time>
      </trkpt>
      <trkpt lat="44.22791" lon="5.62771">
        <ele>730</ele>
        <time>2019-06-17T08:11:45Z</time>
      </trkpt>
      <trkpt lat="44.22787" lon="5.62767">
        <ele>730</ele>
        <time>2019-06-17T08:11:46Z</time>
      </trkpt>
      <trkpt lat="44.22782" lon="5.62762">
        <ele>731</ele>
        <time>2019-06-17T08:11:47Z</time>
      </trkpt>
      <trkpt lat="44.22778" lon="5.62758">
        <ele>731</ele>
        <time>2019-06-17T08:11:48Z</time>
      </trkpt>
      <trkpt lat="44.22774" lon="5.62754">
        <ele>731</ele>
        <time>2019-06-17T08:11:49Z</time>
      </trkpt>
      <trkpt lat="44.22769" lon="5.62749">
        <ele>731</ele>
        <time>2019-06-17T08:11:50Z</time>
      </trkpt>
      <trkpt lat="44.22765" lon="5.62745">
        <ele>732</ele>
        <time>2019-06-17T08:11:51Z</time>
      </trkpt>
      <trkpt lat="44.2276" lon="5.6274">
        <ele>733</ele>
        <time>2019-06-17T08:11:52Z</time>
      </trkpt>
      <trkpt lat="44.22756" lon="5.62735">
        <ele>733</ele>
        <time>2019-06-17T08:11:53Z</time>
      </trkpt>
      <trkpt lat="44.22752" lon="5.6273">
        <ele>733</ele>
        <time>2019-06-17T08:11:54Z</time>
      </trkpt>
      <trkpt lat="44.22748" lon="5.62724">
        <ele>733</ele>
        <time>2019-06-17T08:11:55Z</time>
      </trkpt>
      <trkpt lat="44.22744" lon="5.62718">
        <ele>733</ele>
        <time>2019-06-17T08:11:56Z</time>
      </trkpt>
      <trkpt lat="44.2274" lon="5.62713">
        <ele>733</ele>
        <time>2019-06-17T08:11:57Z</time>
      </trkpt>
      <trkpt lat="44.22736" lon="5.62707">
        <ele>733</ele>
        <time>2019-06-17T08:11:58Z</time>
      </trkpt>
      <trkpt lat="44.22732" lon="5.62701">
        <ele>733</ele>
        <time>2019-06-17T08:11:59Z</time>
      </trkpt>
      <trkpt lat="44.22728" lon="5.62695">
        <ele>734</ele>
        <time>2019-06-17T08:12:00Z</time>
      </trkpt>
      <trkpt lat="44.22724" lon="5.62688">
        <ele>734</ele>
        <time>2019-06-17T08:12:01Z</time>
      </trkpt>
      <trkpt lat="44.2272" lon="5.62682">
        <ele>734</ele>
        <time>2019-06-17T08:12:02Z</time>
      </trkpt>
      <trkpt lat="44.22717" lon="5.62676">
        <ele>734</ele>
        <time>2019-06-17T08:12:03Z</time>
      </trkpt>
      <trkpt lat="44.22712" lon="5.6267">
        <ele>735</ele>
        <time>2019-06-17T08:12:04Z</time>
      </trkpt>
      <trkpt lat="44.22709" lon="5.62664">
        <ele>736</ele>
        <time>2019-06-17T08:12:05Z</time>
      </trkpt>
      <trkpt lat="44.22705" lon="5.62658">
        <ele>737</ele>
        <time>2019-06-17T08:12:06Z</time>
      </trkpt>
      <trkpt lat="44.22701" lon="5.62652">
        <ele>738</ele>
        <time>2019-06-17T08:12:07Z</time>
      </trkpt>
      <trkpt lat="44.22697" lon="5.62645">
        <ele>739</ele>
        <time>2019-06-17T08:12:08Z</time>
      </trkpt>
      <trkpt lat="44.22694" lon="5.62639">
        <ele>739</ele>
        <time>2019-06-17T08:12:09Z</time>
      </trkpt>
      <trkpt lat="44.22691" lon="5.62632">
        <ele>739</ele>
        <time>2019-06-17T08:12:10Z</time>
      </trkpt>
      <trkpt lat="44.22687" lon="5.62626">
        <ele>739</ele>
        <time>2019-06-17T08:12:11Z</time>
      </trkpt>
      <trkpt lat="44.22683" lon="5.62619">
        <ele>739</ele>
        <time>2019-06-17T08:12:12Z</time>
      </trkpt>
      <trkpt lat="44.2268" lon="5.62612">
        <ele>739</ele>
        <time>2019-06-17T08:12:13Z</time>
      </trkpt>
      <trkpt lat="44.22676" lon="5.62606">
        <ele>739</ele>
        <time>2019-06-17T08:12:14Z</time>
      </trkpt>
      <trkpt lat="44.22672" lon="5.626">
        <ele>739</ele>
        <time>2019-06-17T08:12:15Z</time>
      </trkpt>
      <trkpt lat="44.22668" lon="5.62593">
        <ele>739</ele>
        <time>2019-06-17T08:12:16Z</time>
      </trkpt>
      <trkpt lat="44.22664" lon="5.62586">
        <ele>739</ele>
        <time>2019-06-17T08:12:17Z</time>
      </trkpt>
      <trkpt lat="44.2266" lon="5.62579">
        <ele>739</ele>
        <time>2019-06-17T08:12:18Z</time>
      </trkpt>
      <trkpt lat="44.22657" lon="5.62572">
        <ele>739</ele>
        <time>2019-06-17T08:12:19Z</time>
      </trkpt>
      <trkpt lat="44.22653" lon="5.62565">
        <ele>738</ele>
        <time>2019-06-17T08:12:20Z</time>
      </trkpt>
      <trkpt lat="44.22649" lon="5.62557">
        <ele>737</ele>
        <time>2019-06-17T08:12:21Z</time>
      </trkpt>
      <trkpt lat="44.22645" lon="5.6255">
        <ele>737</ele>
        <time>2019-06-17T08:12:22Z</time>
      </trkpt>
      <trkpt lat="44.22641" lon="5.62543">
        <ele>736</ele>
        <time>2019-06-17T08:12:23Z</time>
      </trkpt>
      <trkpt lat="44.22636" lon="5.62536">
        <ele>735</ele>
        <time>2019-06-17T08:12:24Z</time>
      </trkpt>
      <trkpt lat="44.22632" lon="5.62529">
        <ele>735</ele>
        <time>2019-06-17T08:12:25Z</time>
      </trkpt>
      <trkpt lat="44.22628" lon="5.62522">
        <ele>734</ele>
        <time>2019-06-17T08:12:26Z</time>
      </trkpt>
      <trkpt lat="44.22624" lon="5.62515">
        <ele>733</ele>
        <time>2019-06-17T08:12:27Z</time>
      </trkpt>
      <trkpt lat="44.2262" lon="5.62508">
        <ele>733</ele>
        <time>2019-06-17T08:12:28Z</time>
      </trkpt>
      <trkpt lat="44.22616" lon="5.62501">
        <ele>732</ele>
        <time>2019-06-17T08:12:29Z</time>
      </trkpt>
      <trkpt lat="44.22612" lon="5.62494">
        <ele>732</ele>
        <time>2019-06-17T08:12:30Z</time>
      </trkpt>
      <trkpt lat="44.22607" lon="5.62486">
        <ele>732</ele>
        <time>2019-06-17T08:12:31Z</time>
      </trkpt>
      <trkpt lat="44.22603" lon="5.62479">
        <ele>732</ele>
        <time>2019-06-17T08:12:32Z</time>
      </trkpt>
      <trkpt lat="44.22599" lon="5.62471">
        <ele>732</ele>
        <time>2019-06-17T08:12:33Z</time>
      </trkpt>
      <trkpt lat="44.22595" lon="5.62464">
        <ele>732</ele>
        <time>2019-06-17T08:12:34Z</time>
      </trkpt>
      <trkpt lat="44.22591" lon="5.62456">
        <ele>732</ele>
        <time>2019-06-17T08:12:35Z</time>
      </trkpt>
      <trkpt lat="44.22586" lon="5.62448">
        <ele>732</ele>
        <time>2019-06-17T08:12:36Z</time>
      </trkpt>
      <trkpt lat="44.22583" lon="5.6244">
        <ele>732</ele>
        <time>2019-06-17T08:12:37Z</time>
      </trkpt>
      <trkpt lat="44.22579" lon="5.62432">
        <ele>732</ele>
        <time>2019-06-17T08:12:38Z</time>
      </trkpt>
      <trkpt lat="44.22575" lon="5.62424">
        <ele>732</ele>
        <time>2019-06-17T08:12:39Z</time>
      </trkpt>
      <trkpt lat="44.22571" lon="5.62415">
        <ele>732</ele>
        <time>2019-06-17T08:12:40Z</time>
      </trkpt>
      <trkpt lat="44.22568" lon="5.62407">
        <ele>732</ele>
        <time>2019-06-17T08:12:41Z</time>
      </trkpt>
      <trkpt lat="44.22564" lon="5.62398">
        <ele>732</ele>
        <time>2019-06-17T08:12:42Z</time>
      </trkpt>
      <trkpt lat="44.22561" lon="5.6239">
        <ele>732</ele>
        <time>2019-06-17T08:12:43Z</time>
      </trkpt>
      <trkpt lat="44.22557" lon="5.62381">
        <ele>732</ele>
        <time>2019-06-17T08:12:44Z</time>
      </trkpt>
      <trkpt lat="44.22554" lon="5.62373">
        <ele>732</ele>
        <time>2019-06-17T08:12:45Z</time>
      </trkpt>
      <trkpt lat="44.22551" lon="5.62364">
        <ele>732</ele>
        <time>2019-06-17T08:12:46Z</time>
      </trkpt>
      <trkpt lat="44.22548" lon="5.62355">
        <ele>732</ele>
        <time>2019-06-17T08:12:47Z</time>
      </trkpt>
      <trkpt lat="44.22545" lon="5.62346">
        <ele>732</ele>
        <time>2019-06-17T08:12:48Z</time>
      </trkpt>
      <trkpt lat="44.22542" lon="5.62337">
        <ele>732</ele>
        <time>2019-06-17T08:12:49Z</time>
      </trkpt>
      <trkpt lat="44.2254" lon="5.62328">
        <ele>732</ele>
        <time>2019-06-17T08:12:50Z</time>
      </trkpt>
      <trkpt lat="44.22538" lon="5.62318">
        <ele>732</ele>
        <time>2019-06-17T08:12:51Z</time>
      </trkpt>
      <trkpt lat="44.22536" lon="5.62308">
        <ele>732</ele>
        <time>2019-06-17T08:12:52Z</time>
      </trkpt>
      <trkpt lat="44.22534" lon="5.62298">
        <ele>731</ele>
        <time>2019-06-17T08:12:53Z</time>
      </trkpt>
      <trkpt lat="44.22533" lon="5.62288">
        <ele>730</ele>
        <time>2019-06-17T08:12:54Z</time>
      </trkpt>
      <trkpt lat="44.22532" lon="5.62278">
        <ele>730</ele>
        <time>2019-06-17T08:12:55Z</time>
      </trkpt>
      <trkpt lat="44.22531" lon="5.62268">
        <ele>729</ele>
        <time>2019-06-17T08:12:56Z</time>
      </trkpt>
      <trkpt lat="44.2253" lon="5.62258">
        <ele>728</ele>
        <time>2019-06-17T08:12:57Z</time>
      </trkpt>
      <trkpt lat="44.2253" lon="5.62249">
        <ele>728</ele>
        <time>2019-06-17T08:12:58Z</time>
      </trkpt>
      <trkpt lat="44.22529" lon="5.62239">
        <ele>727</ele>
        <time>2019-06-17T08:12:59Z</time>
      </trkpt>
      <trkpt lat="44.22529" lon="5.62229">
        <ele>726</ele>
        <time>2019-06-17T08:13:00Z</time>
      </trkpt>
      <trkpt lat="44.22528" lon="5.62219">
        <ele>725</ele>
        <time>2019-06-17T08:13:01Z</time>
      </trkpt>
      <trkpt lat="44.22528" lon="5.6221">
        <ele>724</ele>
        <time>2019-06-17T08:13:02Z</time>
      </trkpt>
      <trkpt lat="44.22527" lon="5.622">
        <ele>723</ele>
        <time>2019-06-17T08:13:03Z</time>
      </trkpt>
      <trkpt lat="44.22527" lon="5.6219">
        <ele>723</ele>
        <time>2019-06-17T08:13:04Z</time>
      </trkpt>
      <trkpt lat="44.22526" lon="5.6218">
        <ele>722</ele>
        <time>2019-06-17T08:13:05Z</time>
      </trkpt>
      <trkpt lat="44.22525" lon="5.6217">
        <ele>721</ele>
        <time>2019-06-17T08:13:06Z</time>
      </trkpt>
      <trkpt lat="44.22523" lon="5.6216">
        <ele>721</ele>
        <time>2019-06-17T08:13:07Z</time>
      </trkpt>
      <trkpt lat="44.22521" lon="5.6215">
        <ele>721</ele>
        <time>2019-06-17T08:13:08Z</time>
      </trkpt>
      <trkpt lat="44.22518" lon="5.62141">
        <ele>720</ele>
        <time>2019-06-17T08:13:09Z</time>
      </trkpt>
      <trkpt lat="44.22515" lon="5.62132">
        <ele>720</ele>
        <time>2019-06-17T08:13:10Z</time>
      </trkpt>
      <trkpt lat="44.22512" lon="5.62122">
        <ele>720</ele>
        <time>2019-06-17T08:13:11Z</time>
      </trkpt>
      <trkpt lat="44.22508" lon="5.62114">
        <ele>720</ele>
        <time>2019-06-17T08:13:12Z</time>
      </trkpt>
      <trkpt lat="44.22504" lon="5.62106">
        <ele>720</ele>
        <time>2019-06-17T08:13:13Z</time>
      </trkpt>
      <trkpt lat="44.225" lon="5.62098">
        <ele>720</ele>
        <time>2019-06-17T08:13:14Z</time>
      </trkpt>
      <trkpt lat="44.22496" lon="5.62089">
        <ele>720</ele>
        <time>2019-06-17T08:13:15Z</time>
      </trkpt>
      <trkpt lat="44.22492" lon="5.6208">
        <ele>720</ele>
        <time>2019-06-17T08:13:16Z</time>
      </trkpt>
      <trkpt lat="44.22488" lon="5.62072">
        <ele>720</ele>
        <time>2019-06-17T08:13:17Z</time>
      </trkpt>
      <trkpt lat="44.22483" lon="5.62064">
        <ele>720</ele>
        <time>2019-06-17T08:13:18Z</time>
      </trkpt>
      <trkpt lat="44.22479" lon="5.62055">
        <ele>721</ele>
        <time>2019-06-17T08:13:19Z</time>
      </trkpt>
      <trkpt lat="44.22475" lon="5.62046">
        <ele>722</ele>
        <time>2019-06-17T08:13:20Z</time>
      </trkpt>
      <trkpt lat="44.22471" lon="5.62037">
        <ele>723</ele>
        <time>2019-06-17T08:13:21Z</time>
      </trkpt>
      <trkpt lat="44.22467" lon="5.62029">
        <ele>724</ele>
        <time>2019-06-17T08:13:22Z</time>
      </trkpt>
      <trkpt lat="44.22462" lon="5.6202">
        <ele>724</ele>
        <time>2019-06-17T08:13:23Z</time>
      </trkpt>
      <trkpt lat="44.22458" lon="5.62012">
        <ele>725</ele>
        <time>2019-06-17T08:13:24Z</time>
      </trkpt>
      <trkpt lat="44.22454" lon="5.62003">
        <ele>725</ele>
        <time>2019-06-17T08:13:25Z</time>
      </trkpt>
      <trkpt lat="44.2245" lon="5.61995">
        <ele>726</ele>
        <time>2019-06-17T08:13:26Z</time>
      </trkpt>
      <trkpt lat="44.22446" lon="5.61986">
        <ele>726</ele>
        <time>2019-06-17T08:13:27Z</time>
      </trkpt>
      <trkpt lat="44.22442" lon="5.61977">
        <ele>726</ele>
        <time>2019-06-17T08:13:28Z</time>
      </trkpt>
      <trkpt lat="44.22438" lon="5.61968">
        <ele>726</ele>
        <time>2019-06-17T08:13:29Z</time>
      </trkpt>
      <trkpt lat="44.22434" lon="5.6196">
        <ele>726</ele>
        <time>2019-06-17T08:13:30Z</time>
      </trkpt>
      <trkpt lat="44.2243" lon="5.61951">
        <ele>726</ele>
        <time>2019-06-17T08:13:31Z</time>
      </trkpt>
      <trkpt lat="44.22426" lon="5.61943">
        <ele>726</ele>
        <time>2019-06-17T08:13:32Z</time>
      </trkpt>
      <trkpt lat="44.22422" lon="5.61935">
        <ele>727</ele>
        <time>2019-06-17T08:13:33Z</time>
      </trkpt>
      <trkpt lat="44.22418" lon="5.61926">
        <ele>727</ele>
        <time>2019-06-17T08:13:34Z</time>
      </trkpt>
      <trkpt lat="44.22414" lon="5.61918">
        <ele>727</ele>
        <time>2019-06-17T08:13:35Z</time>
      </trkpt>
      <trkpt lat="44.2241" lon="5.61909">
        <ele>727</ele>
        <time>2019-06-17T08:13:36Z</time>
      </trkpt>
      <trkpt lat="44.22407" lon="5.61901">
        <ele>727</ele>
        <time>2019-06-17T08:13:37Z</time>
      </trkpt>
      <trkpt lat="44.22403" lon="5.61892">
        <ele>727</ele>
        <time>2019-06-17T08:13:38Z</time>
      </trkpt>
      <trkpt lat="44.224" lon="5.61882">
        <ele>727</ele>
        <time>2019-06-17T08:13:39Z</time>
      </trkpt>
      <trkpt lat="44.22398" lon="5.61873">
        <ele>727</ele>
        <time>2019-06-17T08:13:40Z</time>
      </trkpt>
      <trkpt lat="44.22395" lon="5.61863">
        <ele>727</ele>
        <time>2019-06-17T08:13:41Z</time>
      </trkpt>
      <trkpt lat="44.22393" lon="5.61854">
        <ele>727</ele>
        <time>2019-06-17T08:13:42Z</time>
      </trkpt>
      <trkpt lat="44.22391" lon="5.61844">
        <ele>727</ele>
        <time>2019-06-17T08:13:43Z</time>
      </trkpt>
      <trkpt lat="44.22389" lon="5.61834">
        <ele>727</ele>
        <time>2019-06-17T08:13:44Z</time>
      </trkpt>
      <trkpt lat="44.22387" lon="5.61825">
        <ele>727</ele>
        <time>2019-06-17T08:13:45Z</time>
      </trkpt>
      <trkpt lat="44.22384" lon="5.61816">
        <ele>727</ele>
        <time>2019-06-17T08:13:46Z</time>
      </trkpt>
      <trkpt lat="44.22381" lon="5.61806">
        <ele>727</ele>
        <time>2019-06-17T08:13:47Z</time>
      </trkpt>
      <trkpt lat="44.22378" lon="5.61797">
        <ele>727</ele>
        <time>2019-06-17T08:13:48Z</time>
      </trkpt>
      <trkpt lat="44.22375" lon="5.61788">
        <ele>727</ele>
        <time>2019-06-17T08:13:49Z</time>
      </trkpt>
      <trkpt lat="44.22372" lon="5.61779">
        <ele>727</ele>
        <time>2019-06-17T08:13:50Z</time>
      </trkpt>
      <trkpt lat="44.22369" lon="5.6177">
        <ele>727</ele>
        <time>2019-06-17T08:13:51Z</time>
      </trkpt>
      <trkpt lat="44.22365" lon="5.61762">
        <ele>727</ele>
        <time>2019-06-17T08:13:52Z</time>
      </trkpt>
      <trkpt lat="44.22362" lon="5.61753">
        <ele>727</ele>
        <time>2019-06-17T08:13:53Z</time>
      </trkpt>
      <trkpt lat="44.22358" lon="5.61745">
        <ele>727</ele>
        <time>2019-06-17T08:13:54Z</time>
      </trkpt>
      <trkpt lat="44.22355" lon="5.61737">
        <ele>727</ele>
        <time>2019-06-17T08:13:55Z</time>
      </trkpt>
      <trkpt lat="44.22352" lon="5.61729">
        <ele>727</ele>
        <time>2019-06-17T08:13:56Z</time>
      </trkpt>
      <trkpt lat="44.22349" lon="5.61721">
        <ele>727</ele>
        <time>2019-06-17T08:13:57Z</time>
      </trkpt>
      <trkpt lat="44.22346" lon="5.61713">
        <ele>727</ele>
        <time>2019-06-17T08:13:58Z</time>
      </trkpt>
      <trkpt lat="44.22342" lon="5.61705">
        <ele>727</ele>
        <time>2019-06-17T08:13:59Z</time>
      </trkpt>
      <trkpt lat="44.22339" lon="5.61698">
        <ele>727</ele>
        <time>2019-06-17T08:14:00Z</time>
      </trkpt>
      <trkpt lat="44.22336" lon="5.6169">
        <ele>727</ele>
        <time>2019-06-17T08:14:01Z</time>
      </trkpt>
      <trkpt lat="44.22333" lon="5.61682">
        <ele>727</ele>
        <time>2019-06-17T08:14:02Z</time>
      </trkpt>
      <trkpt lat="44.22329" lon="5.61675">
        <ele>727</ele>
        <time>2019-06-17T08:14:03Z</time>
      </trkpt>
      <trkpt lat="44.22326" lon="5.61667">
        <ele>728</ele>
        <time>2019-06-17T08:14:04Z</time>
      </trkpt>
      <trkpt lat="44.22323" lon="5.61659">
        <ele>728</ele>
        <time>2019-06-17T08:14:05Z</time>
      </trkpt>
      <trkpt lat="44.2232" lon="5.61652">
        <ele>728</ele>
        <time>2019-06-17T08:14:06Z</time>
      </trkpt>
      <trkpt lat="44.22316" lon="5.61644">
        <ele>728</ele>
        <time>2019-06-17T08:14:07Z</time>
      </trkpt>
      <trkpt lat="44.22313" lon="5.61636">
        <ele>728</ele>
        <time>2019-06-17T08:14:08Z</time>
      </trkpt>
      <trkpt lat="44.2231" lon="5.61629">
        <ele>728</ele>
        <time>2019-06-17T08:14:09Z</time>
      </trkpt>
      <trkpt lat="44.22307" lon="5.61622">
        <ele>728</ele>
        <time>2019-06-17T08:14:10Z</time>
      </trkpt>
      <trkpt lat="44.22304" lon="5.61614">
        <ele>728</ele>
        <time>2019-06-17T08:14:11Z</time>
      </trkpt>
      <trkpt lat="44.22301" lon="5.61607">
        <ele>728</ele>
        <time>2019-06-17T08:14:12Z</time>
      </trkpt>
      <trkpt lat="44.22298" lon="5.61599">
        <ele>728</ele>
        <time>2019-06-17T08:14:13Z</time>
      </trkpt>
      <trkpt lat="44.22295" lon="5.61591">
        <ele>728</ele>
        <time>2019-06-17T08:14:14Z</time>
      </trkpt>
      <trkpt lat="44.22292" lon="5.61584">
        <ele>728</ele>
        <time>2019-06-17T08:14:15Z</time>
      </trkpt>
      <trkpt lat="44.22289" lon="5.61577">
        <ele>728</ele>
        <time>2019-06-17T08:14:16Z</time>
      </trkpt>
      <trkpt lat="44.22286" lon="5.61569">
        <ele>728</ele>
        <time>2019-06-17T08:14:17Z</time>
      </trkpt>
      <trkpt lat="44.22283" lon="5.61562">
        <ele>728</ele>
        <time>2019-06-17T08:14:18Z</time>
      </trkpt>
      <trkpt lat="44.2228" lon="5.61555">
        <ele>729</ele>
        <time>2019-06-17T08:14:19Z</time>
      </trkpt>
      <trkpt lat="44.22277" lon="5.61547">
        <ele>729</ele>
        <time>2019-06-17T08:14:20Z</time>
      </trkpt>
      <trkpt lat="44.22274" lon="5.61539">
        <ele>729</ele>
        <time>2019-06-17T08:14:21Z</time>
      </trkpt>
      <trkpt lat="44.22271" lon="5.61531">
        <ele>729</ele>
        <time>2019-06-17T08:14:22Z</time>
      </trkpt>
      <trkpt lat="44.22269" lon="5.61523">
        <ele>729</ele>
        <time>2019-06-17T08:14:23Z</time>
      </trkpt>
      <trkpt lat="44.22266" lon="5.61515">
        <ele>729</ele>
        <time>2019-06-17T08:14:24Z</time>
      </trkpt>
      <trkpt lat="44.22264" lon="5.61507">
        <ele>729</ele>
        <time>2019-06-17T08:14:25Z</time>
      </trkpt>
      <trkpt lat="44.22262" lon="5.61498">
        <ele>729</ele>
        <time>2019-06-17T08:14:26Z</time>
      </trkpt>
      <trkpt lat="44.22259" lon="5.6149">
        <ele>729</ele>
        <time>2019-06-17T08:14:27Z</time>
      </trkpt>
      <trkpt lat="44.22257" lon="5.61481">
        <ele>729</ele>
        <time>2019-06-17T08:14:28Z</time>
      </trkpt>
      <trkpt lat="44.22255" lon="5.61472">
        <ele>729</ele>
        <time>2019-06-17T08:14:29Z</time>
      </trkpt>
      <trkpt lat="44.22253" lon="5.61463">
        <ele>729</ele>
        <time>2019-06-17T08:14:30Z</time>
      </trkpt>
      <trkpt lat="44.22251" lon="5.61453">
        <ele>729</ele>
        <time>2019-06-17T08:14:31Z</time>
      </trkpt>
      <trkpt lat="44.22248" lon="5.61444">
        <ele>729</ele>
        <time>2019-06-17T08:14:32Z</time>
      </trkpt>
      <trkpt lat="44.22246" lon="5.61435">
        <ele>729</ele>
        <time>2019-06-17T08:14:33Z</time>
      </trkpt>
      <trkpt lat="44.22244" lon="5.61425">
        <ele>729</ele>
        <time>2019-06-17T08:14:34Z</time>
      </trkpt>
      <trkpt lat="44.22242" lon="5.61415">
        <ele>729</ele>
        <time>2019-06-17T08:14:35Z</time>
      </trkpt>
      <trkpt lat="44.22239" lon="5.61406">
        <ele>729</ele>
        <time>2019-06-17T08:14:36Z</time>
      </trkpt>
      <trkpt lat="44.22237" lon="5.61396">
        <ele>729</ele>
        <time>2019-06-17T08:14:37Z</time>
      </trkpt>
      <trkpt lat="44.22235" lon="5.61386">
        <ele>729</ele>
        <time>2019-06-17T08:14:38Z</time>
      </trkpt>
      <trkpt lat="44.22232" lon="5.61376">
        <ele>729</ele>
        <time>2019-06-17T08:14:39Z</time>
      </trkpt>
      <trkpt lat="44.22229" lon="5.61367">
        <ele>729</ele>
        <time>2019-06-17T08:14:40Z</time>
      </trkpt>
      <trkpt lat="44.22227" lon="5.61358">
        <ele>729</ele>
        <time>2019-06-17T08:14:41Z</time>
      </trkpt>
      <trkpt lat="44.22224" lon="5.61348">
        <ele>729</ele>
        <time>2019-06-17T08:14:42Z</time>
      </trkpt>
      <trkpt lat="44.22222" lon="5.61339">
        <ele>729</ele>
        <time>2019-06-17T08:14:43Z</time>
      </trkpt>
      <trkpt lat="44.2222" lon="5.6133">
        <ele>729</ele>
        <time>2019-06-17T08:14:44Z</time>
      </trkpt>
      <trkpt lat="44.22218" lon="5.61321">
        <ele>729</ele>
        <time>2019-06-17T08:14:45Z</time>
      </trkpt>
      <trkpt lat="44.22216" lon="5.61312">
        <ele>729</ele>
        <time>2019-06-17T08:14:46Z</time>
      </trkpt>
      <trkpt lat="44.22214" lon="5.61303">
        <ele>729</ele>
        <time>2019-06-17T08:14:47Z</time>
      </trkpt>
      <trkpt lat="44.22212" lon="5.61295">
        <ele>729</ele>
        <time>2019-06-17T08:14:48Z</time>
      </trkpt>
      <trkpt lat="44.2221" lon="5.61286">
        <ele>729</ele>
        <time>2019-06-17T08:14:49Z</time>
      </trkpt>
      <trkpt lat="44.22208" lon="5.61278">
        <ele>729</ele>
        <time>2019-06-17T08:14:50Z</time>
      </trkpt>
      <trkpt lat="44.22206" lon="5.6127">
        <ele>729</ele>
        <time>2019-06-17T08:14:51Z</time>
      </trkpt>
      <trkpt lat="44.22204" lon="5.61262">
        <ele>729</ele>
        <time>2019-06-17T08:14:52Z</time>
      </trkpt>
      <trkpt lat="44.22202" lon="5.61254">
        <ele>729</ele>
        <time>2019-06-17T08:14:53Z</time>
      </trkpt>
      <trkpt lat="44.222" lon="5.61245">
        <ele>729</ele>
        <time>2019-06-17T08:14:54Z</time>
      </trkpt>
      <trkpt lat="44.22198" lon="5.61237">
        <ele>729</ele>
        <time>2019-06-17T08:14:55Z</time>
      </trkpt>
      <trkpt lat="44.22196" lon="5.61229">
        <ele>729</ele>
        <time>2019-06-17T08:14:56Z</time>
      </trkpt>
      <trkpt lat="44.22194" lon="5.61221">
        <ele>729</ele>
        <time>2019-06-17T08:14:57Z</time>
      </trkpt>
      <trkpt lat="44.22192" lon="5.61213">
        <ele>729</ele>
        <time>2019-06-17T08:14:58Z</time>
      </trkpt>
      <trkpt lat="44.2219" lon="5.61204">
        <ele>729</ele>
        <time>2019-06-17T08:14:59Z</time>
      </trkpt>
      <trkpt lat="44.22189" lon="5.61196">
        <ele>729</ele>
        <time>2019-06-17T08:15:00Z</time>
      </trkpt>
      <trkpt lat="44.22187" lon="5.61188">
        <ele>729</ele>
        <time>2019-06-17T08:15:01Z</time>
      </trkpt>
      <trkpt lat="44.22185" lon="5.6118">
        <ele>729</ele>
        <time>2019-06-17T08:15:02Z</time>
      </trkpt>
      <trkpt lat="44.22183" lon="5.61171">
        <ele>729</ele>
        <time>2019-06-17T08:15:03Z</time>
      </trkpt>
      <trkpt lat="44.22182" lon="5.61163">
        <ele>729</ele>
        <time>2019-06-17T08:15:04Z</time>
      </trkpt>
      <trkpt lat="44.2218" lon="5.61155">
        <ele>729</ele>
        <time>2019-06-17T08:15:05Z</time>
      </trkpt>
      <trkpt lat="44.22179" lon="5.61146">
        <ele>729</ele>
        <time>2019-06-17T08:15:06Z</time>
      </trkpt>
      <trkpt lat="44.22177" lon="5.61138">
        <ele>729</ele>
        <time>2019-06-17T08:15:07Z</time>
      </trkpt>
      <trkpt lat="44.22176" lon="5.61129">
        <ele>729</ele>
        <time>2019-06-17T08:15:08Z</time>
      </trkpt>
      <trkpt lat="44.22174" lon="5.61121">
        <ele>729</ele>
        <time>2019-06-17T08:15:09Z</time>
      </trkpt>
      <trkpt lat="44.22173" lon="5.61112">
        <ele>729</ele>
        <time>2019-06-17T08:15:10Z</time>
      </trkpt>
      <trkpt lat="44.22172" lon="5.61103">
        <ele>729</ele>
        <time>2019-06-17T08:15:11Z</time>
      </trkpt>
      <trkpt lat="44.22171" lon="5.61094">
        <ele>729</ele>
        <time>2019-06-17T08:15:12Z</time>
      </trkpt>
      <trkpt lat="44.22169" lon="5.61085">
        <ele>729</ele>
        <time>2019-06-17T08:15:13Z</time>
      </trkpt>
      <trkpt lat="44.22168" lon="5.61076">
        <ele>729</ele>
        <time>2019-06-17T08:15:14Z</time>
      </trkpt>
      <trkpt lat="44.22167" lon="5.61067">
        <ele>729</ele>
        <time>2019-06-17T08:15:15Z</time>
      </trkpt>
      <trkpt lat="44.22165" lon="5.61058">
        <ele>729</ele>
        <time>2019-06-17T08:15:16Z</time>
      </trkpt>
      <trkpt lat="44.22164" lon="5.61049">
        <ele>729</ele>
        <time>2019-06-17T08:15:17Z</time>
      </trkpt>
      <trkpt lat="44.22163" lon="5.61039">
        <ele>729</ele>
        <time>2019-06-17T08:15:18Z</time>
      </trkpt>
      <trkpt lat="44.22162" lon="5.6103">
        <ele>729</ele>
        <time>2019-06-17T08:15:19Z</time>
      </trkpt>
      <trkpt lat="44.2216" lon="5.61021">
        <ele>729</ele>
        <time>2019-06-17T08:15:20Z</time>
      </trkpt>
      <trkpt lat="44.22159" lon="5.61012">
        <ele>729</ele>
        <time>2019-06-17T08:15:21Z</time>
      </trkpt>
      <trkpt lat="44.22158" lon="5.61003">
        <ele>729</ele>
        <time>2019-06-17T08:15:22Z</time>
      </trkpt>
      <trkpt lat="44.22157" lon="5.60994">
        <ele>729</ele>
        <time>2019-06-17T08:15:23Z</time>
      </trkpt>
      <trkpt lat="44.22155" lon="5.60985">
        <ele>729</ele>
        <time>2019-06-17T08:15:24Z</time>
      </trkpt>
      <trkpt lat="44.22154" lon="5.60975">
        <ele>729</ele>
        <time>2019-06-17T08:15:25Z</time>
      </trkpt>
      <trkpt lat="44.22152" lon="5.60965">
        <ele>729</ele>
        <time>2019-06-17T08:15:26Z</time>
      </trkpt>
      <trkpt lat="44.2215" lon="5.60956">
        <ele>729</ele>
        <time>2019-06-17T08:15:27Z</time>
      </trkpt>
      <trkpt lat="44.22149" lon="5.60946">
        <ele>729</ele>
        <time>2019-06-17T08:15:28Z</time>
      </trkpt>
      <trkpt lat="44.22147" lon="5.60937">
        <ele>729</ele>
        <time>2019-06-17T08:15:29Z</time>
      </trkpt>
      <trkpt lat="44.22145" lon="5.60927">
        <ele>729</ele>
        <time>2019-06-17T08:15:30Z</time>
      </trkpt>
      <trkpt lat="44.22143" lon="5.60918">
        <ele>729</ele>
        <time>2019-06-17T08:15:31Z</time>
      </trkpt>
      <trkpt lat="44.22141" lon="5.60909">
        <ele>729</ele>
        <time>2019-06-17T08:15:32Z</time>
      </trkpt>
      <trkpt lat="44.22138" lon="5.609">
        <ele>729</ele>
        <time>2019-06-17T08:15:33Z</time>
      </trkpt>
      <trkpt lat="44.22136" lon="5.60891">
        <ele>729</ele>
        <time>2019-06-17T08:15:34Z</time>
      </trkpt>
      <trkpt lat="44.22134" lon="5.60882">
        <ele>729</ele>
        <time>2019-06-17T08:15:35Z</time>
      </trkpt>
      <trkpt lat="44.22131" lon="5.60872">
        <ele>729</ele>
        <time>2019-06-17T08:15:36Z</time>
      </trkpt>
      <trkpt lat="44.22128" lon="5.60863">
        <ele>729</ele>
        <time>2019-06-17T08:15:37Z</time>
      </trkpt>
      <trkpt lat="44.22125" lon="5.60854">
        <ele>728</ele>
        <time>2019-06-17T08:15:38Z</time>
      </trkpt>
      <trkpt lat="44.22122" lon="5.60845">
        <ele>728</ele>
        <time>2019-06-17T08:15:39Z</time>
      </trkpt>
      <trkpt lat="44.2212" lon="5.60835">
        <ele>728</ele>
        <time>2019-06-17T08:15:40Z</time>
      </trkpt>
      <trkpt lat="44.22117" lon="5.60825">
        <ele>727</ele>
        <time>2019-06-17T08:15:41Z</time>
      </trkpt>
      <trkpt lat="44.22115" lon="5.60815">
        <ele>726</ele>
        <time>2019-06-17T08:15:42Z</time>
      </trkpt>
      <trkpt lat="44.22113" lon="5.60805">
        <ele>725</ele>
        <time>2019-06-17T08:15:43Z</time>
      </trkpt>
      <trkpt lat="44.22112" lon="5.60795">
        <ele>725</ele>
        <time>2019-06-17T08:15:44Z</time>
      </trkpt>
      <trkpt lat="44.2211" lon="5.60785">
        <ele>724</ele>
        <time>2019-06-17T08:15:45Z</time>
      </trkpt>
      <trkpt lat="44.22109" lon="5.60775">
        <ele>723</ele>
        <time>2019-06-17T08:15:46Z</time>
      </trkpt>
      <trkpt lat="44.22109" lon="5.60764">
        <ele>723</ele>
        <time>2019-06-17T08:15:47Z</time>
      </trkpt>
      <trkpt lat="44.22109" lon="5.60754">
        <ele>723</ele>
        <time>2019-06-17T08:15:48Z</time>
      </trkpt>
      <trkpt lat="44.2211" lon="5.60744">
        <ele>722</ele>
        <time>2019-06-17T08:15:49Z</time>
      </trkpt>
      <trkpt lat="44.22111" lon="5.60734">
        <ele>722</ele>
        <time>2019-06-17T08:15:50Z</time>
      </trkpt>
      <trkpt lat="44.22113" lon="5.60724">
        <ele>722</ele>
        <time>2019-06-17T08:15:51Z</time>
      </trkpt>
      <trkpt lat="44.22115" lon="5.60714">
        <ele>721</ele>
        <time>2019-06-17T08:15:52Z</time>
      </trkpt>
      <trkpt lat="44.22117" lon="5.60704">
        <ele>721</ele>
        <time>2019-06-17T08:15:53Z</time>
      </trkpt>
      <trkpt lat="44.22118" lon="5.60694">
        <ele>721</ele>
        <time>2019-06-17T08:15:54Z</time>
      </trkpt>
      <trkpt lat="44.22121" lon="5.60684">
        <ele>721</ele>
        <time>2019-06-17T08:15:55Z</time>
      </trkpt>
      <trkpt lat="44.22122" lon="5.60675">
        <ele>721</ele>
        <time>2019-06-17T08:15:56Z</time>
      </trkpt>
      <trkpt lat="44.22124" lon="5.60665">
        <ele>721</ele>
        <time>2019-06-17T08:15:57Z</time>
      </trkpt>
      <trkpt lat="44.22126" lon="5.60655">
        <ele>720</ele>
        <time>2019-06-17T08:15:58Z</time>
      </trkpt>
      <trkpt lat="44.22128" lon="5.60645">
        <ele>720</ele>
        <time>2019-06-17T08:15:59Z</time>
      </trkpt>
      <trkpt lat="44.22129" lon="5.60636">
        <ele>720</ele>
        <time>2019-06-17T08:16:00Z</time>
      </trkpt>
      <trkpt lat="44.22131" lon="5.60626">
        <ele>720</ele>
        <time>2019-06-17T08:16:01Z</time>
      </trkpt>
      <trkpt lat="44.22132" lon="5.60616">
        <ele>720</ele>
        <time>2019-06-17T08:16:02Z</time>
      </trkpt>
      <trkpt lat="44.22134" lon="5.60606">
        <ele>720</ele>
        <time>2019-06-17T08:16:03Z</time>
      </trkpt>
      <trkpt lat="44.22135" lon="5.60596">
        <ele>720</ele>
        <time>2019-06-17T08:16:04Z</time>
      </trkpt>
      <trkpt lat="44.22136" lon="5.60586">
        <ele>720</ele>
        <time>2019-06-17T08:16:05Z</time>
      </trkpt>
      <trkpt lat="44.22137" lon="5.60576">
        <ele>720</ele>
        <time>2019-06-17T08:16:06Z</time>
      </trkpt>
      <trkpt lat="44.22138" lon="5.60567">
        <ele>720</ele>
        <time>2019-06-17T08:16:07Z</time>
      </trkpt>
      <trkpt lat="44.22139" lon="5.60557">
        <ele>720</ele>
        <time>2019-06-17T08:16:08Z</time>
      </trkpt>
      <trkpt lat="44.22139" lon="5.60547">
        <ele>719</ele>
        <time>2019-06-17T08:16:09Z</time>
      </trkpt>
      <trkpt lat="44.2214" lon="5.60537">
        <ele>719</ele>
        <time>2019-06-17T08:16:10Z</time>
      </trkpt>
      <trkpt lat="44.2214" lon="5.60527">
        <ele>719</ele>
        <time>2019-06-17T08:16:11Z</time>
      </trkpt>
      <trkpt lat="44.22141" lon="5.60518">
        <ele>719</ele>
        <time>2019-06-17T08:16:12Z</time>
      </trkpt>
      <trkpt lat="44.22141" lon="5.60508">
        <ele>719</ele>
        <time>2019-06-17T08:16:13Z</time>
      </trkpt>
      <trkpt lat="44.22141" lon="5.60498">
        <ele>719</ele>
        <time>2019-06-17T08:16:14Z</time>
      </trkpt>
      <trkpt lat="44.2214" lon="5.60489">
        <ele>719</ele>
        <time>2019-06-17T08:16:15Z</time>
      </trkpt>
      <trkpt lat="44.22139" lon="5.60479">
        <ele>719</ele>
        <time>2019-06-17T08:16:16Z</time>
      </trkpt>
      <trkpt lat="44.22138" lon="5.60469">
        <ele>719</ele>
        <time>2019-06-17T08:16:17Z</time>
      </trkpt>
      <trkpt lat="44.22137" lon="5.6046">
        <ele>719</ele>
        <time>2019-06-17T08:16:18Z</time>
      </trkpt>
      <trkpt lat="44.22136" lon="5.6045">
        <ele>719</ele>
        <time>2019-06-17T08:16:19Z</time>
      </trkpt>
      <trkpt lat="44.22134" lon="5.60441">
        <ele>719</ele>
        <time>2019-06-17T08:16:20Z</time>
      </trkpt>
      <trkpt lat="44.22133" lon="5.60431">
        <ele>719</ele>
        <time>2019-06-17T08:16:21Z</time>
      </trkpt>
      <trkpt lat="44.22131" lon="5.60422">
        <ele>719</ele>
        <time>2019-06-17T08:16:22Z</time>
      </trkpt>
      <trkpt lat="44.22129" lon="5.60413">
        <ele>719</ele>
        <time>2019-06-17T08:16:23Z</time>
      </trkpt>
      <trkpt lat="44.22128" lon="5.60404">
        <ele>719</ele>
        <time>2019-06-17T08:16:24Z</time>
      </trkpt>
      <trkpt lat="44.22126" lon="5.60395">
        <ele>719</ele>
        <time>2019-06-17T08:16:25Z</time>
      </trkpt>
      <trkpt lat="44.22124" lon="5.60387">
        <ele>719</ele>
        <time>2019-06-17T08:16:26Z</time>
      </trkpt>
      <trkpt lat="44.22123" lon="5.60378">
        <ele>719</ele>
        <time>2019-06-17T08:16:27Z</time>
      </trkpt>
      <trkpt lat="44.22121" lon="5.60369">
        <ele>719</ele>
        <time>2019-06-17T08:16:28Z</time>
      </trkpt>
      <trkpt lat="44.22121" lon="5.6036">
        <ele>719</ele>
        <time>2019-06-17T08:16:29Z</time>
      </trkpt>
      <trkpt lat="44.2212" lon="5.60351">
        <ele>719</ele>
        <time>2019-06-17T08:16:30Z</time>
      </trkpt>
      <trkpt lat="44.2212" lon="5.60342">
        <ele>719</ele>
        <time>2019-06-17T08:16:31Z</time>
      </trkpt>
      <trkpt lat="44.2212" lon="5.60332">
        <ele>719</ele>
        <time>2019-06-17T08:16:32Z</time>
      </trkpt>
      <trkpt lat="44.2212" lon="5.60323">
        <ele>719</ele>
        <time>2019-06-17T08:16:33Z</time>
      </trkpt>
      <trkpt lat="44.22121" lon="5.60315">
        <ele>719</ele>
        <time>2019-06-17T08:16:34Z</time>
      </trkpt>
      <trkpt lat="44.22121" lon="5.60306">
        <ele>719</ele>
        <time>2019-06-17T08:16:35Z</time>
      </trkpt>
      <trkpt lat="44.22122" lon="5.60297">
        <ele>719</ele>
        <time>2019-06-17T08:16:36Z</time>
      </trkpt>
      <trkpt lat="44.22123" lon="5.60288">
        <ele>719</ele>
        <time>2019-06-17T08:16:37Z</time>
      </trkpt>
      <trkpt lat="44.22124" lon="5.60279">
        <ele>719</ele>
        <time>2019-06-17T08:16:38Z</time>
      </trkpt>
      <trkpt lat="44.22126" lon="5.6027">
        <ele>719</ele>
        <time>2019-06-17T08:16:39Z</time>
      </trkpt>
      <trkpt lat="44.22127" lon="5.60261">
        <ele>719</ele>
        <time>2019-06-17T08:16:40Z</time>
      </trkpt>
      <trkpt lat="44.22128" lon="5.60252">
        <ele>719</ele>
        <time>2019-06-17T08:16:41Z</time>
      </trkpt>
      <trkpt lat="44.22129" lon="5.60243">
        <ele>719</ele>
        <time>2019-06-17T08:16:42Z</time>
      </trkpt>
      <trkpt lat="44.2213" lon="5.60234">
        <ele>719</ele>
        <time>2019-06-17T08:16:43Z</time>
      </trkpt>
      <trkpt lat="44.22131" lon="5.60225">
        <ele>719</ele>
        <time>2019-06-17T08:16:44Z</time>
      </trkpt>
      <trkpt lat="44.22131" lon="5.60215">
        <ele>719</ele>
        <time>2019-06-17T08:16:45Z</time>
      </trkpt>
      <trkpt lat="44.22132" lon="5.60206">
        <ele>719</ele>
        <time>2019-06-17T08:16:46Z</time>
      </trkpt>
      <trkpt lat="44.22133" lon="5.60197">
        <ele>719</ele>
        <time>2019-06-17T08:16:47Z</time>
      </trkpt>
      <trkpt lat="44.22134" lon="5.60188">
        <ele>719</ele>
        <time>2019-06-17T08:16:48Z</time>
      </trkpt>
      <trkpt lat="44.22134" lon="5.60179">
        <ele>719</ele>
        <time>2019-06-17T08:16:49Z</time>
      </trkpt>
      <trkpt lat="44.22135" lon="5.6017">
        <ele>719</ele>
        <time>2019-06-17T08:16:50Z</time>
      </trkpt>
      <trkpt lat="44.22136" lon="5.60161">
        <ele>719</ele>
        <time>2019-06-17T08:16:51Z</time>
      </trkpt>
      <trkpt lat="44.22136" lon="5.60151">
        <ele>719</ele>
        <time>2019-06-17T08:16:52Z</time>
      </trkpt>
      <trkpt lat="44.22137" lon="5.60143">
        <ele>719</ele>
        <time>2019-06-17T08:16:53Z</time>
      </trkpt>
      <trkpt lat="44.22137" lon="5.60133">
        <ele>719</ele>
        <time>2019-06-17T08:16:54Z</time>
      </trkpt>
      <trkpt lat="44.22138" lon="5.60124">
        <ele>719</ele>
        <time>2019-06-17T08:16:55Z</time>
      </trkpt>
      <trkpt lat="44.22138" lon="5.60115">
        <ele>719</ele>
        <time>2019-06-17T08:16:56Z</time>
      </trkpt>
      <trkpt lat="44.22139" lon="5.60106">
        <ele>719</ele>
        <time>2019-06-17T08:16:57Z</time>
      </trkpt>
      <trkpt lat="44.22139" lon="5.60097">
        <ele>719</ele>
        <time>2019-06-17T08:16:58Z</time>
      </trkpt>
      <trkpt lat="44.22139" lon="5.60087">
        <ele>719</ele>
        <time>2019-06-17T08:16:59Z</time>
      </trkpt>
      <trkpt lat="44.2214" lon="5.60078">
        <ele>719</ele>
        <time>2019-06-17T08:17:00Z</time>
      </trkpt>
      <trkpt lat="44.2214" lon="5.60069">
        <ele>719</ele>
        <time>2019-06-17T08:17:01Z</time>
      </trkpt>
      <trkpt lat="44.2214" lon="5.60059">
        <ele>719</ele>
        <time>2019-06-17T08:17:02Z</time>
      </trkpt>
      <trkpt lat="44.2214" lon="5.6005">
        <ele>719</ele>
        <time>2019-06-17T08:17:03Z</time>
      </trkpt>
      <trkpt lat="44.2214" lon="5.60041">
        <ele>719</ele>
        <time>2019-06-17T08:17:04Z</time>
      </trkpt>
      <trkpt lat="44.2214" lon="5.60031">
        <ele>719</ele>
        <time>2019-06-17T08:17:05Z</time>
      </trkpt>
      <trkpt lat="44.2214" lon="5.60021">
        <ele>720</ele>
        <time>2019-06-17T08:17:06Z</time>
      </trkpt>
      <trkpt lat="44.22141" lon="5.60012">
        <ele>720</ele>
        <time>2019-06-17T08:17:07Z</time>
      </trkpt>
      <trkpt lat="44.22141" lon="5.60003">
        <ele>720</ele>
        <time>2019-06-17T08:17:08Z</time>
      </trkpt>
      <trkpt lat="44.22141" lon="5.59993">
        <ele>720</ele>
        <time>2019-06-17T08:17:09Z</time>
      </trkpt>
      <trkpt lat="44.22141" lon="5.59983">
        <ele>721</ele>
        <time>2019-06-17T08:17:10Z</time>
      </trkpt>
      <trkpt lat="44.22141" lon="5.59974">
        <ele>721</ele>
        <time>2019-06-17T08:17:11Z</time>
      </trkpt>
      <trkpt lat="44.22141" lon="5.59964">
        <ele>721</ele>
        <time>2019-06-17T08:17:12Z</time>
      </trkpt>
      <trkpt lat="44.22141" lon="5.59954">
        <ele>721</ele>
        <time>2019-06-17T08:17:13Z</time>
      </trkpt>
      <trkpt lat="44.22142" lon="5.59944">
        <ele>721</ele>
        <time>2019-06-17T08:17:14Z</time>
      </trkpt>
      <trkpt lat="44.22142" lon="5.59935">
        <ele>722</ele>
        <time>2019-06-17T08:17:15Z</time>
      </trkpt>
      <trkpt lat="44.22141" lon="5.59925">
        <ele>722</ele>
        <time>2019-06-17T08:17:16Z</time>
      </trkpt>
      <trkpt lat="44.22141" lon="5.59915">
        <ele>722</ele>
        <time>2019-06-17T08:17:17Z</time>
      </trkpt>
      <trkpt lat="44.22141" lon="5.59906">
        <ele>722</ele>
        <time>2019-06-17T08:17:18Z</time>
      </trkpt>
      <trkpt lat="44.2214" lon="5.59896">
        <ele>723</ele>
        <time>2019-06-17T08:17:19Z</time>
      </trkpt>
      <trkpt lat="44.22139" lon="5.59886">
        <ele>723</ele>
        <time>2019-06-17T08:17:20Z</time>
      </trkpt>
      <trkpt lat="44.22139" lon="5.59876">
        <ele>723</ele>
        <time>2019-06-17T08:17:21Z</time>
      </trkpt>
      <trkpt lat="44.22138" lon="5.59866">
        <ele>723</ele>
        <time>2019-06-17T08:17:22Z</time>
      </trkpt>
      <trkpt lat="44.22138" lon="5.59856">
        <ele>723</ele>
        <time>2019-06-17T08:17:23Z</time>
      </trkpt>
      <trkpt lat="44.22137" lon="5.59846">
        <ele>723</ele>
        <time>2019-06-17T08:17:24Z</time>
      </trkpt>
      <trkpt lat="44.22137" lon="5.59836">
        <ele>723</ele>
        <time>2019-06-17T08:17:25Z</time>
      </trkpt>
      <trkpt lat="44.22136" lon="5.59826">
        <ele>723</ele>
        <time>2019-06-17T08:17:26Z</time>
      </trkpt>
      <trkpt lat="44.22136" lon="5.59816">
        <ele>723</ele>
        <time>2019-06-17T08:17:27Z</time>
      </trkpt>
      <trkpt lat="44.22136" lon="5.59805">
        <ele>723</ele>
        <time>2019-06-17T08:17:28Z</time>
      </trkpt>
      <trkpt lat="44.22136" lon="5.59795">
        <ele>723</ele>
        <time>2019-06-17T08:17:29Z</time>
      </trkpt>
      <trkpt lat="44.22136" lon="5.59785">
        <ele>724</ele>
        <time>2019-06-17T08:17:30Z</time>
      </trkpt>
      <trkpt lat="44.22136" lon="5.59775">
        <ele>724</ele>
        <time>2019-06-17T08:17:31Z</time>
      </trkpt>
      <trkpt lat="44.22137" lon="5.59765">
        <ele>724</ele>
        <time>2019-06-17T08:17:32Z</time>
      </trkpt>
      <trkpt lat="44.22138" lon="5.59755">
        <ele>724</ele>
        <time>2019-06-17T08:17:33Z</time>
      </trkpt>
      <trkpt lat="44.22139" lon="5.59745">
        <ele>724</ele>
        <time>2019-06-17T08:17:34Z</time>
      </trkpt>
      <trkpt lat="44.2214" lon="5.59735">
        <ele>724</ele>
        <time>2019-06-17T08:17:35Z</time>
      </trkpt>
      <trkpt lat="44.22141" lon="5.59725">
        <ele>724</ele>
        <time>2019-06-17T08:17:36Z</time>
      </trkpt>
      <trkpt lat="44.22142" lon="5.59716">
        <ele>724</ele>
        <time>2019-06-17T08:17:37Z</time>
      </trkpt>
      <trkpt lat="44.22144" lon="5.59706">
        <ele>724</ele>
        <time>2019-06-17T08:17:38Z</time>
      </trkpt>
      <trkpt lat="44.22145" lon="5.59696">
        <ele>724</ele>
        <time>2019-06-17T08:17:39Z</time>
      </trkpt>
      <trkpt lat="44.22147" lon="5.59687">
        <ele>724</ele>
        <time>2019-06-17T08:17:40Z</time>
      </trkpt>
      <trkpt lat="44.22148" lon="5.59677">
        <ele>724</ele>
        <time>2019-06-17T08:17:41Z</time>
      </trkpt>
      <trkpt lat="44.2215" lon="5.59667">
        <ele>724</ele>
        <time>2019-06-17T08:17:42Z</time>
      </trkpt>
      <trkpt lat="44.2215" lon="5.59658">
        <ele>724</ele>
        <time>2019-06-17T08:17:43Z</time>
      </trkpt>
      <trkpt lat="44.22151" lon="5.59648">
        <ele>724</ele>
        <time>2019-06-17T08:17:44Z</time>
      </trkpt>
      <trkpt lat="44.22152" lon="5.59638">
        <ele>724</ele>
        <time>2019-06-17T08:17:45Z</time>
      </trkpt>
      <trkpt lat="44.22151" lon="5.59628">
        <ele>724</ele>
        <time>2019-06-17T08:17:46Z</time>
      </trkpt>
      <trkpt lat="44.2215" lon="5.59619">
        <ele>724</ele>
        <time>2019-06-17T08:17:47Z</time>
      </trkpt>
      <trkpt lat="44.2215" lon="5.59609">
        <ele>724</ele>
        <time>2019-06-17T08:17:48Z</time>
      </trkpt>
      <trkpt lat="44.22148" lon="5.59599">
        <ele>724</ele>
        <time>2019-06-17T08:17:49Z</time>
      </trkpt>
      <trkpt lat="44.22147" lon="5.5959">
        <ele>724</ele>
        <time>2019-06-17T08:17:50Z</time>
      </trkpt>
      <trkpt lat="44.22145" lon="5.5958">
        <ele>724</ele>
        <time>2019-06-17T08:17:51Z</time>
      </trkpt>
      <trkpt lat="44.22144" lon="5.59571">
        <ele>724</ele>
        <time>2019-06-17T08:17:52Z</time>
      </trkpt>
      <trkpt lat="44.22142" lon="5.59561">
        <ele>724</ele>
        <time>2019-06-17T08:17:53Z</time>
      </trkpt>
      <trkpt lat="44.2214" lon="5.59551">
        <ele>724</ele>
        <time>2019-06-17T08:17:54Z</time>
      </trkpt>
      <trkpt lat="44.22139" lon="5.59542">
        <ele>724</ele>
        <time>2019-06-17T08:17:55Z</time>
      </trkpt>
      <trkpt lat="44.22137" lon="5.59532">
        <ele>724</ele>
        <time>2019-06-17T08:17:56Z</time>
      </trkpt>
      <trkpt lat="44.22135" lon="5.59523">
        <ele>724</ele>
        <time>2019-06-17T08:17:57Z</time>
      </trkpt>
      <trkpt lat="44.22133" lon="5.59513">
        <ele>724</ele>
        <time>2019-06-17T08:17:58Z</time>
      </trkpt>
      <trkpt lat="44.22132" lon="5.59504">
        <ele>724</ele>
        <time>2019-06-17T08:17:59Z</time>
      </trkpt>
      <trkpt lat="44.2213" lon="5.59495">
        <ele>724</ele>
        <time>2019-06-17T08:18:00Z</time>
      </trkpt>
      <trkpt lat="44.22129" lon="5.59486">
        <ele>724</ele>
        <time>2019-06-17T08:18:01Z</time>
      </trkpt>
      <trkpt lat="44.22127" lon="5.59478">
        <ele>724</ele>
        <time>2019-06-17T08:18:02Z</time>
      </trkpt>
      <trkpt lat="44.22126" lon="5.59469">
        <ele>725</ele>
        <time>2019-06-17T08:18:03Z</time>
      </trkpt>
      <trkpt lat="44.22124" lon="5.5946">
        <ele>725</ele>
        <time>2019-06-17T08:18:04Z</time>
      </trkpt>
      <trkpt lat="44.22123" lon="5.59452">
        <ele>725</ele>
        <time>2019-06-17T08:18:05Z</time>
      </trkpt>
      <trkpt lat="44.22121" lon="5.59444">
        <ele>725</ele>
        <time>2019-06-17T08:18:06Z</time>
      </trkpt>
      <trkpt lat="44.2212" lon="5.59435">
        <ele>725</ele>
        <time>2019-06-17T08:18:07Z</time>
      </trkpt>
      <trkpt lat="44.22118" lon="5.59427">
        <ele>725</ele>
        <time>2019-06-17T08:18:08Z</time>
      </trkpt>
      <trkpt lat="44.22117" lon="5.59419">
        <ele>726</ele>
        <time>2019-06-17T08:18:09Z</time>
      </trkpt>
      <trkpt lat="44.22115" lon="5.59411">
        <ele>726</ele>
        <time>2019-06-17T08:18:10Z</time>
      </trkpt>
      <trkpt lat="44.22114" lon="5.59402">
        <ele>726</ele>
        <time>2019-06-17T08:18:11Z</time>
      </trkpt>
      <trkpt lat="44.22112" lon="5.59394">
        <ele>726</ele>
        <time>2019-06-17T08:18:12Z</time>
      </trkpt>
      <trkpt lat="44.2211" lon="5.59385">
        <ele>726</ele>
        <time>2019-06-17T08:18:13Z</time>
      </trkpt>
      <trkpt lat="44.22109" lon="5.59377">
        <ele>727</ele>
        <time>2019-06-17T08:18:14Z</time>
      </trkpt>
      <trkpt lat="44.22107" lon="5.59368">
        <ele>727</ele>
        <time>2019-06-17T08:18:15Z</time>
      </trkpt>
      <trkpt lat="44.22106" lon="5.59359">
        <ele>727</ele>
        <time>2019-06-17T08:18:16Z</time>
      </trkpt>
      <trkpt lat="44.22104" lon="5.5935">
        <ele>727</ele>
        <time>2019-06-17T08:18:17Z</time>
      </trkpt>
      <trkpt lat="44.22103" lon="5.5934">
        <ele>727</ele>
        <time>2019-06-17T08:18:18Z</time>
      </trkpt>
      <trkpt lat="44.22101" lon="5.59332">
        <ele>727</ele>
        <time>2019-06-17T08:18:19Z</time>
      </trkpt>
      <trkpt lat="44.221" lon="5.59322">
        <ele>727</ele>
        <time>2019-06-17T08:18:20Z</time>
      </trkpt>
      <trkpt lat="44.22098" lon="5.59313">
        <ele>728</ele>
        <time>2019-06-17T08:18:21Z</time>
      </trkpt>
      <trkpt lat="44.22097" lon="5.59304">
        <ele>728</ele>
        <time>2019-06-17T08:18:22Z</time>
      </trkpt>
      <trkpt lat="44.22095" lon="5.59296">
        <ele>728</ele>
        <time>2019-06-17T08:18:23Z</time>
      </trkpt>
      <trkpt lat="44.22094" lon="5.59287">
        <ele>728</ele>
        <time>2019-06-17T08:18:24Z</time>
      </trkpt>
      <trkpt lat="44.22092" lon="5.59278">
        <ele>728</ele>
        <time>2019-06-17T08:18:25Z</time>
      </trkpt>
      <trkpt lat="44.22091" lon="5.59269">
        <ele>728</ele>
        <time>2019-06-17T08:18:26Z</time>
      </trkpt>
      <trkpt lat="44.22089" lon="5.59261">
        <ele>728</ele>
        <time>2019-06-17T08:18:27Z</time>
      </trkpt>
      <trkpt lat="44.22088" lon="5.59252">
        <ele>728</ele>
        <time>2019-06-17T08:18:28Z</time>
      </trkpt>
      <trkpt lat="44.22087" lon="5.59244">
        <ele>728</ele>
        <time>2019-06-17T08:18:29Z</time>
      </trkpt>
      <trkpt lat="44.22086" lon="5.59236">
        <ele>729</ele>
        <time>2019-06-17T08:18:30Z</time>
      </trkpt>
      <trkpt lat="44.22084" lon="5.59227">
        <ele>729</ele>
        <time>2019-06-17T08:18:31Z</time>
      </trkpt>
      <trkpt lat="44.22083" lon="5.59219">
        <ele>729</ele>
        <time>2019-06-17T08:18:32Z</time>
      </trkpt>
      <trkpt lat="44.22082" lon="5.59211">
        <ele>729</ele>
        <time>2019-06-17T08:18:33Z</time>
      </trkpt>
      <trkpt lat="44.22081" lon="5.59203">
        <ele>729</ele>
        <time>2019-06-17T08:18:34Z</time>
      </trkpt>
      <trkpt lat="44.2208" lon="5.59194">
        <ele>730</ele>
        <time>2019-06-17T08:18:35Z</time>
      </trkpt>
      <trkpt lat="44.22079" lon="5.59186">
        <ele>730</ele>
        <time>2019-06-17T08:18:36Z</time>
      </trkpt>
      <trkpt lat="44.22078" lon="5.59178">
        <ele>730</ele>
        <time>2019-06-17T08:18:37Z</time>
      </trkpt>
      <trkpt lat="44.22078" lon="5.5917">
        <ele>730</ele>
        <time>2019-06-17T08:18:38Z</time>
      </trkpt>
      <trkpt lat="44.22078" lon="5.59162">
        <ele>730</ele>
        <time>2019-06-17T08:18:39Z</time>
      </trkpt>
      <trkpt lat="44.22077" lon="5.59155">
        <ele>731</ele>
        <time>2019-06-17T08:18:40Z</time>
      </trkpt>
      <trkpt lat="44.22078" lon="5.59146">
        <ele>731</ele>
        <time>2019-06-17T08:18:41Z</time>
      </trkpt>
      <trkpt lat="44.22078" lon="5.59139">
        <ele>731</ele>
        <time>2019-06-17T08:18:42Z</time>
      </trkpt>
      <trkpt lat="44.22078" lon="5.59131">
        <ele>731</ele>
        <time>2019-06-17T08:18:43Z</time>
      </trkpt>
      <trkpt lat="44.22078" lon="5.59123">
        <ele>732</ele>
        <time>2019-06-17T08:18:44Z</time>
      </trkpt>
      <trkpt lat="44.22079" lon="5.59115">
        <ele>732</ele>
        <time>2019-06-17T08:18:45Z</time>
      </trkpt>
      <trkpt lat="44.2208" lon="5.59107">
        <ele>732</ele>
        <time>2019-06-17T08:18:46Z</time>
      </trkpt>
      <trkpt lat="44.22081" lon="5.59099">
        <ele>732</ele>
        <time>2019-06-17T08:18:47Z</time>
      </trkpt>
      <trkpt lat="44.22081" lon="5.59092">
        <ele>733</ele>
        <time>2019-06-17T08:18:48Z</time>
      </trkpt>
      <trkpt lat="44.22083" lon="5.59084">
        <ele>733</ele>
        <time>2019-06-17T08:18:49Z</time>
      </trkpt>
      <trkpt lat="44.22084" lon="5.59076">
        <ele>733</ele>
        <time>2019-06-17T08:18:50Z</time>
      </trkpt>
      <trkpt lat="44.22086" lon="5.59068">
        <ele>733</ele>
        <time>2019-06-17T08:18:51Z</time>
      </trkpt>
      <trkpt lat="44.22088" lon="5.5906">
        <ele>733</ele>
        <time>2019-06-17T08:18:52Z</time>
      </trkpt>
      <trkpt lat="44.2209" lon="5.59052">
        <ele>734</ele>
        <time>2019-06-17T08:18:53Z</time>
      </trkpt>
      <trkpt lat="44.22091" lon="5.59044">
        <ele>734</ele>
        <time>2019-06-17T08:18:54Z</time>
      </trkpt>
      <trkpt lat="44.22093" lon="5.59036">
        <ele>734</ele>
        <time>2019-06-17T08:18:55Z</time>
      </trkpt>
      <trkpt lat="44.22095" lon="5.59028">
        <ele>734</ele>
        <time>2019-06-17T08:18:56Z</time>
      </trkpt>
      <trkpt lat="44.22097" lon="5.5902">
        <ele>734</ele>
        <time>2019-06-17T08:18:57Z</time>
      </trkpt>
      <trkpt lat="44.22099" lon="5.59013">
        <ele>735</ele>
        <time>2019-06-17T08:18:58Z</time>
      </trkpt>
      <trkpt lat="44.221" lon="5.59004">
        <ele>735</ele>
        <time>2019-06-17T08:18:59Z</time>
      </trkpt>
      <trkpt lat="44.22102" lon="5.58996">
        <ele>735</ele>
        <time>2019-06-17T08:19:00Z</time>
      </trkpt>
      <trkpt lat="44.22103" lon="5.58988">
        <ele>735</ele>
        <time>2019-06-17T08:19:01Z</time>
      </trkpt>
      <trkpt lat="44.22104" lon="5.5898">
        <ele>735</ele>
        <time>2019-06-17T08:19:02Z</time>
      </trkpt>
      <trkpt lat="44.22105" lon="5.58972">
        <ele>735</ele>
        <time>2019-06-17T08:19:03Z</time>
      </trkpt>
      <trkpt lat="44.22105" lon="5.58963">
        <ele>735</ele>
        <time>2019-06-17T08:19:04Z</time>
      </trkpt>
      <trkpt lat="44.22106" lon="5.58955">
        <ele>736</ele>
        <time>2019-06-17T08:19:05Z</time>
      </trkpt>
      <trkpt lat="44.22106" lon="5.58947">
        <ele>736</ele>
        <time>2019-06-17T08:19:06Z</time>
      </trkpt>
      <trkpt lat="44.22107" lon="5.58939">
        <ele>736</ele>
        <time>2019-06-17T08:19:07Z</time>
      </trkpt>
      <trkpt lat="44.22107" lon="5.5893">
        <ele>736</ele>
        <time>2019-06-17T08:19:08Z</time>
      </trkpt>
      <trkpt lat="44.22107" lon="5.58922">
        <ele>736</ele>
        <time>2019-06-17T08:19:09Z</time>
      </trkpt>
      <trkpt lat="44.22107" lon="5.58913">
        <ele>736</ele>
        <time>2019-06-17T08:19:10Z</time>
      </trkpt>
      <trkpt lat="44.22107" lon="5.58905">
        <ele>736</ele>
        <time>2019-06-17T08:19:11Z</time>
      </trkpt>
      <trkpt lat="44.22107" lon="5.58897">
        <ele>736</ele>
        <time>2019-06-17T08:19:12Z</time>
      </trkpt>
      <trkpt lat="44.22108" lon="5.58889">
        <ele>736</ele>
        <time>2019-06-17T08:19:13Z</time>
      </trkpt>
      <trkpt lat="44.22108" lon="5.58881">
        <ele>737</ele>
        <time>2019-06-17T08:19:14Z</time>
      </trkpt>
      <trkpt lat="44.22108" lon="5.58873">
        <ele>737</ele>
        <time>2019-06-17T08:19:15Z</time>
      </trkpt>
      <trkpt lat="44.22108" lon="5.58864">
        <ele>737</ele>
        <time>2019-06-17T08:19:16Z</time>
      </trkpt>
      <trkpt lat="44.22107" lon="5.58856">
        <ele>737</ele>
        <time>2019-06-17T08:19:17Z</time>
      </trkpt>
      <trkpt lat="44.22107" lon="5.58848">
        <ele>737</ele>
        <time>2019-06-17T08:19:18Z</time>
      </trkpt>
      <trkpt lat="44.22107" lon="5.5884">
        <ele>737</ele>
        <time>2019-06-17T08:19:19Z</time>
      </trkpt>
      <trkpt lat="44.22107" lon="5.58832">
        <ele>737</ele>
        <time>2019-06-17T08:19:20Z</time>
      </trkpt>
      <trkpt lat="44.22107" lon="5.58824">
        <ele>737</ele>
        <time>2019-06-17T08:19:21Z</time>
      </trkpt>
      <trkpt lat="44.22107" lon="5.58816">
        <ele>738</ele>
        <time>2019-06-17T08:19:22Z</time>
      </trkpt>
      <trkpt lat="44.22107" lon="5.58808">
        <ele>738</ele>
        <time>2019-06-17T08:19:23Z</time>
      </trkpt>
      <trkpt lat="44.22107" lon="5.588">
        <ele>738</ele>
        <time>2019-06-17T08:19:24Z</time>
      </trkpt>
      <trkpt lat="44.22107" lon="5.58792">
        <ele>738</ele>
        <time>2019-06-17T08:19:25Z</time>
      </trkpt>
      <trkpt lat="44.22107" lon="5.58784">
        <ele>738</ele>
        <time>2019-06-17T08:19:26Z</time>
      </trkpt>
      <trkpt lat="44.22107" lon="5.58776">
        <ele>738</ele>
        <time>2019-06-17T08:19:27Z</time>
      </trkpt>
      <trkpt lat="44.22107" lon="5.58767">
        <ele>738</ele>
        <time>2019-06-17T08:19:28Z</time>
      </trkpt>
      <trkpt lat="44.22107" lon="5.58759">
        <ele>738</ele>
        <time>2019-06-17T08:19:29Z</time>
      </trkpt>
      <trkpt lat="44.22107" lon="5.58751">
        <ele>739</ele>
        <time>2019-06-17T08:19:30Z</time>
      </trkpt>
      <trkpt lat="44.22107" lon="5.58742">
        <ele>739</ele>
        <time>2019-06-17T08:19:31Z</time>
      </trkpt>
      <trkpt lat="44.22107" lon="5.58734">
        <ele>739</ele>
        <time>2019-06-17T08:19:32Z</time>
      </trkpt>
      <trkpt lat="44.22107" lon="5.58725">
        <ele>739</ele>
        <time>2019-06-17T08:19:33Z</time>
      </trkpt>
      <trkpt lat="44.22106" lon="5.58717">
        <ele>739</ele>
        <time>2019-06-17T08:19:34Z</time>
      </trkpt>
      <trkpt lat="44.22106" lon="5.58709">
        <ele>739</ele>
        <time>2019-06-17T08:19:35Z</time>
      </trkpt>
      <trkpt lat="44.22106" lon="5.58701">
        <ele>739</ele>
        <time>2019-06-17T08:19:36Z</time>
      </trkpt>
      <trkpt lat="44.22106" lon="5.58693">
        <ele>739</ele>
        <time>2019-06-17T08:19:37Z</time>
      </trkpt>
      <trkpt lat="44.22106" lon="5.58685">
        <ele>739</ele>
        <time>2019-06-17T08:19:38Z</time>
      </trkpt>
      <trkpt lat="44.22106" lon="5.58677">
        <ele>739</ele>
        <time>2019-06-17T08:19:39Z</time>
      </trkpt>
      <trkpt lat="44.22106" lon="5.58669">
        <ele>739</ele>
        <time>2019-06-17T08:19:40Z</time>
      </trkpt>
      <trkpt lat="44.22106" lon="5.58661">
        <ele>739</ele>
        <time>2019-06-17T08:19:41Z</time>
      </trkpt>
      <trkpt lat="44.22106" lon="5.58652">
        <ele>739</ele>
        <time>2019-06-17T08:19:42Z</time>
      </trkpt>
      <trkpt lat="44.22105" lon="5.58644">
        <ele>740</ele>
        <time>2019-06-17T08:19:43Z</time>
      </trkpt>
      <trkpt lat="44.22105" lon="5.58636">
        <ele>740</ele>
        <time>2019-06-17T08:19:44Z</time>
      </trkpt>
      <trkpt lat="44.22105" lon="5.58629">
        <ele>740</ele>
        <time>2019-06-17T08:19:45Z</time>
      </trkpt>
      <trkpt lat="44.22105" lon="5.58622">
        <ele>741</ele>
        <time>2019-06-17T08:19:46Z</time>
      </trkpt>
      <trkpt lat="44.22105" lon="5.58614">
        <ele>741</ele>
        <time>2019-06-17T08:19:47Z</time>
      </trkpt>
      <trkpt lat="44.22105" lon="5.58606">
        <ele>742</ele>
        <time>2019-06-17T08:19:48Z</time>
      </trkpt>
      <trkpt lat="44.22105" lon="5.58599">
        <ele>742</ele>
        <time>2019-06-17T08:19:49Z</time>
      </trkpt>
      <trkpt lat="44.22104" lon="5.58591">
        <ele>742</ele>
        <time>2019-06-17T08:19:50Z</time>
      </trkpt>
      <trkpt lat="44.22104" lon="5.58583">
        <ele>742</ele>
        <time>2019-06-17T08:19:51Z</time>
      </trkpt>
      <trkpt lat="44.22104" lon="5.58575">
        <ele>743</ele>
        <time>2019-06-17T08:19:52Z</time>
      </trkpt>
      <trkpt lat="44.22104" lon="5.58567">
        <ele>743</ele>
        <time>2019-06-17T08:19:53Z</time>
      </trkpt>
      <trkpt lat="44.22104" lon="5.58559">
        <ele>743</ele>
        <time>2019-06-17T08:19:54Z</time>
      </trkpt>
      <trkpt lat="44.22104" lon="5.58551">
        <ele>743</ele>
        <time>2019-06-17T08:19:55Z</time>
      </trkpt>
      <trkpt lat="44.22104" lon="5.58542">
        <ele>743</ele>
        <time>2019-06-17T08:19:56Z</time>
      </trkpt>
      <trkpt lat="44.22104" lon="5.58534">
        <ele>743</ele>
        <time>2019-06-17T08:19:57Z</time>
      </trkpt>
      <trkpt lat="44.22104" lon="5.58526">
        <ele>743</ele>
        <time>2019-06-17T08:19:58Z</time>
      </trkpt>
      <trkpt lat="44.22104" lon="5.58518">
        <ele>743</ele>
        <time>2019-06-17T08:19:59Z</time>
      </trkpt>
      <trkpt lat="44.22104" lon="5.58509">
        <ele>743</ele>
        <time>2019-06-17T08:20:00Z</time>
      </trkpt>
      <trkpt lat="44.22103" lon="5.58501">
        <ele>743</ele>
        <time>2019-06-17T08:20:01Z</time>
      </trkpt>
      <trkpt lat="44.22103" lon="5.58493">
        <ele>743</ele>
        <time>2019-06-17T08:20:02Z</time>
      </trkpt>
      <trkpt lat="44.22103" lon="5.58485">
        <ele>743</ele>
        <time>2019-06-17T08:20:03Z</time>
      </trkpt>
      <trkpt lat="44.22103" lon="5.58477">
        <ele>743</ele>
        <time>2019-06-17T08:20:04Z</time>
      </trkpt>
      <trkpt lat="44.22103" lon="5.58468">
        <ele>743</ele>
        <time>2019-06-17T08:20:05Z</time>
      </trkpt>
      <trkpt lat="44.22103" lon="5.58461">
        <ele>743</ele>
        <time>2019-06-17T08:20:06Z</time>
      </trkpt>
      <trkpt lat="44.22103" lon="5.58453">
        <ele>744</ele>
        <time>2019-06-17T08:20:07Z</time>
      </trkpt>
      <trkpt lat="44.22103" lon="5.58445">
        <ele>744</ele>
        <time>2019-06-17T08:20:08Z</time>
      </trkpt>
      <trkpt lat="44.22103" lon="5.58437">
        <ele>744</ele>
        <time>2019-06-17T08:20:09Z</time>
      </trkpt>
      <trkpt lat="44.22102" lon="5.5843">
        <ele>744</ele>
        <time>2019-06-17T08:20:10Z</time>
      </trkpt>
      <trkpt lat="44.22102" lon="5.58423">
        <ele>744</ele>
        <time>2019-06-17T08:20:11Z</time>
      </trkpt>
      <trkpt lat="44.22102" lon="5.58415">
        <ele>744</ele>
        <time>2019-06-17T08:20:12Z</time>
      </trkpt>
      <trkpt lat="44.22102" lon="5.58408">
        <ele>745</ele>
        <time>2019-06-17T08:20:13Z</time>
      </trkpt>
      <trkpt lat="44.22102" lon="5.584">
        <ele>745</ele>
        <time>2019-06-17T08:20:14Z</time>
      </trkpt>
      <trkpt lat="44.22102" lon="5.58393">
        <ele>745</ele>
        <time>2019-06-17T08:20:15Z</time>
      </trkpt>
      <trkpt lat="44.22102" lon="5.58386">
        <ele>745</ele>
        <time>2019-06-17T08:20:16Z</time>
      </trkpt>
      <trkpt lat="44.22102" lon="5.58378">
        <ele>745</ele>
        <time>2019-06-17T08:20:17Z</time>
      </trkpt>
      <trkpt lat="44.22102" lon="5.58371">
        <ele>746</ele>
        <time>2019-06-17T08:20:18Z</time>
      </trkpt>
      <trkpt lat="44.22102" lon="5.58363">
        <ele>746</ele>
        <time>2019-06-17T08:20:19Z</time>
      </trkpt>
      <trkpt lat="44.22102" lon="5.58356">
        <ele>746</ele>
        <time>2019-06-17T08:20:20Z</time>
      </trkpt>
      <trkpt lat="44.22102" lon="5.58349">
        <ele>746</ele>
        <time>2019-06-17T08:20:21Z</time>
      </trkpt>
      <trkpt lat="44.22101" lon="5.58342">
        <ele>746</ele>
        <time>2019-06-17T08:20:22Z</time>
      </trkpt>
      <trkpt lat="44.22101" lon="5.58335">
        <ele>746</ele>
        <time>2019-06-17T08:20:23Z</time>
      </trkpt>
      <trkpt lat="44.22101" lon="5.58327">
        <ele>747</ele>
        <time>2019-06-17T08:20:24Z</time>
      </trkpt>
      <trkpt lat="44.22101" lon="5.5832">
        <ele>747</ele>
        <time>2019-06-17T08:20:25Z</time>
      </trkpt>
      <trkpt lat="44.22101" lon="5.58312">
        <ele>747</ele>
        <time>2019-06-17T08:20:26Z</time>
      </trkpt>
      <trkpt lat="44.22101" lon="5.58304">
        <ele>747</ele>
        <time>2019-06-17T08:20:27Z</time>
      </trkpt>
      <trkpt lat="44.22101" lon="5.58296">
        <ele>747</ele>
        <time>2019-06-17T08:20:28Z</time>
      </trkpt>
      <trkpt lat="44.22101" lon="5.58288">
        <ele>748</ele>
        <time>2019-06-17T08:20:29Z</time>
      </trkpt>
      <trkpt lat="44.22101" lon="5.5828">
        <ele>748</ele>
        <time>2019-06-17T08:20:30Z</time>
      </trkpt>
      <trkpt lat="44.22101" lon="5.58271">
        <ele>748</ele>
        <time>2019-06-17T08:20:31Z</time>
      </trkpt>
      <trkpt lat="44.22101" lon="5.58262">
        <ele>748</ele>
        <time>2019-06-17T08:20:32Z</time>
      </trkpt>
      <trkpt lat="44.22101" lon="5.58254">
        <ele>748</ele>
        <time>2019-06-17T08:20:33Z</time>
      </trkpt>
      <trkpt lat="44.22101" lon="5.58245">
        <ele>748</ele>
        <time>2019-06-17T08:20:34Z</time>
      </trkpt>
      <trkpt lat="44.22102" lon="5.58236">
        <ele>748</ele>
        <time>2019-06-17T08:20:35Z</time>
      </trkpt>
      <trkpt lat="44.22102" lon="5.58226">
        <ele>748</ele>
        <time>2019-06-17T08:20:36Z</time>
      </trkpt>
      <trkpt lat="44.22103" lon="5.58217">
        <ele>748</ele>
        <time>2019-06-17T08:20:37Z</time>
      </trkpt>
      <trkpt lat="44.22104" lon="5.58208">
        <ele>748</ele>
        <time>2019-06-17T08:20:38Z</time>
      </trkpt>
      <trkpt lat="44.22105" lon="5.58198">
        <ele>748</ele>
        <time>2019-06-17T08:20:39Z</time>
      </trkpt>
      <trkpt lat="44.22107" lon="5.58188">
        <ele>748</ele>
        <time>2019-06-17T08:20:40Z</time>
      </trkpt>
      <trkpt lat="44.22107" lon="5.58179">
        <ele>748</ele>
        <time>2019-06-17T08:20:41Z</time>
      </trkpt>
      <trkpt lat="44.22108" lon="5.5817">
        <ele>748</ele>
        <time>2019-06-17T08:20:42Z</time>
      </trkpt>
      <trkpt lat="44.2211" lon="5.5816">
        <ele>748</ele>
        <time>2019-06-17T08:20:43Z</time>
      </trkpt>
      <trkpt lat="44.22111" lon="5.5815">
        <ele>748</ele>
        <time>2019-06-17T08:20:44Z</time>
      </trkpt>
      <trkpt lat="44.22112" lon="5.58141">
        <ele>748</ele>
        <time>2019-06-17T08:20:45Z</time>
      </trkpt>
      <trkpt lat="44.22113" lon="5.58131">
        <ele>748</ele>
        <time>2019-06-17T08:20:46Z</time>
      </trkpt>
      <trkpt lat="44.22114" lon="5.58122">
        <ele>748</ele>
        <time>2019-06-17T08:20:47Z</time>
      </trkpt>
      <trkpt lat="44.22115" lon="5.58112">
        <ele>748</ele>
        <time>2019-06-17T08:20:48Z</time>
      </trkpt>
      <trkpt lat="44.22116" lon="5.58103">
        <ele>748</ele>
        <time>2019-06-17T08:20:49Z</time>
      </trkpt>
      <trkpt lat="44.22117" lon="5.58093">
        <ele>748</ele>
        <time>2019-06-17T08:20:50Z</time>
      </trkpt>
      <trkpt lat="44.22118" lon="5.58083">
        <ele>748</ele>
        <time>2019-06-17T08:20:51Z</time>
      </trkpt>
      <trkpt lat="44.2212" lon="5.58073">
        <ele>748</ele>
        <time>2019-06-17T08:20:52Z</time>
      </trkpt>
      <trkpt lat="44.22121" lon="5.58063">
        <ele>748</ele>
        <time>2019-06-17T08:20:53Z</time>
      </trkpt>
      <trkpt lat="44.22122" lon="5.58053">
        <ele>748</ele>
        <time>2019-06-17T08:20:54Z</time>
      </trkpt>
      <trkpt lat="44.22123" lon="5.58043">
        <ele>748</ele>
        <time>2019-06-17T08:20:55Z</time>
      </trkpt>
      <trkpt lat="44.22125" lon="5.58033">
        <ele>748</ele>
        <time>2019-06-17T08:20:56Z</time>
      </trkpt>
      <trkpt lat="44.22126" lon="5.58022">
        <ele>748</ele>
        <time>2019-06-17T08:20:57Z</time>
      </trkpt>
      <trkpt lat="44.22127" lon="5.58012">
        <ele>748</ele>
        <time>2019-06-17T08:20:58Z</time>
      </trkpt>
      <trkpt lat="44.22128" lon="5.58001">
        <ele>749</ele>
        <time>2019-06-17T08:20:59Z</time>
      </trkpt>
      <trkpt lat="44.22129" lon="5.57991">
        <ele>749</ele>
        <time>2019-06-17T08:21:00Z</time>
      </trkpt>
      <trkpt lat="44.2213" lon="5.5798">
        <ele>749</ele>
        <time>2019-06-17T08:21:01Z</time>
      </trkpt>
      <trkpt lat="44.22131" lon="5.5797">
        <ele>749</ele>
        <time>2019-06-17T08:21:02Z</time>
      </trkpt>
      <trkpt lat="44.22132" lon="5.57959">
        <ele>749</ele>
        <time>2019-06-17T08:21:03Z</time>
      </trkpt>
      <trkpt lat="44.22133" lon="5.57948">
        <ele>749</ele>
        <time>2019-06-17T08:21:04Z</time>
      </trkpt>
      <trkpt lat="44.22135" lon="5.57938">
        <ele>749</ele>
        <time>2019-06-17T08:21:05Z</time>
      </trkpt>
      <trkpt lat="44.22136" lon="5.57928">
        <ele>749</ele>
        <time>2019-06-17T08:21:06Z</time>
      </trkpt>
      <trkpt lat="44.22137" lon="5.57917">
        <ele>749</ele>
        <time>2019-06-17T08:21:07Z</time>
      </trkpt>
      <trkpt lat="44.22138" lon="5.57907">
        <ele>749</ele>
        <time>2019-06-17T08:21:08Z</time>
      </trkpt>
      <trkpt lat="44.22139" lon="5.57896">
        <ele>749</ele>
        <time>2019-06-17T08:21:09Z</time>
      </trkpt>
      <trkpt lat="44.2214" lon="5.57886">
        <ele>749</ele>
        <time>2019-06-17T08:21:10Z</time>
      </trkpt>
      <trkpt lat="44.22141" lon="5.57876">
        <ele>749</ele>
        <time>2019-06-17T08:21:11Z</time>
      </trkpt>
      <trkpt lat="44.22142" lon="5.57866">
        <ele>749</ele>
        <time>2019-06-17T08:21:12Z</time>
      </trkpt>
      <trkpt lat="44.22143" lon="5.57856">
        <ele>749</ele>
        <time>2019-06-17T08:21:13Z</time>
      </trkpt>
      <trkpt lat="44.22144" lon="5.57846">
        <ele>749</ele>
        <time>2019-06-17T08:21:14Z</time>
      </trkpt>
      <trkpt lat="44.22145" lon="5.57836">
        <ele>749</ele>
        <time>2019-06-17T08:21:15Z</time>
      </trkpt>
      <trkpt lat="44.22146" lon="5.57827">
        <ele>749</ele>
        <time>2019-06-17T08:21:16Z</time>
      </trkpt>
      <trkpt lat="44.22147" lon="5.57818">
        <ele>750</ele>
        <time>2019-06-17T08:21:17Z</time>
      </trkpt>
      <trkpt lat="44.22147" lon="5.57809">
        <ele>750</ele>
        <time>2019-06-17T08:21:18Z</time>
      </trkpt>
      <trkpt lat="44.22147" lon="5.578">
        <ele>750</ele>
        <time>2019-06-17T08:21:19Z</time>
      </trkpt>
      <trkpt lat="44.22147" lon="5.57792">
        <ele>750</ele>
        <time>2019-06-17T08:21:20Z</time>
      </trkpt>
      <trkpt lat="44.22147" lon="5.57783">
        <ele>750</ele>
        <time>2019-06-17T08:21:21Z</time>
      </trkpt>
      <trkpt lat="44.22147" lon="5.57775">
        <ele>750</ele>
        <time>2019-06-17T08:21:22Z</time>
      </trkpt>
      <trkpt lat="44.22147" lon="5.57766">
        <ele>750</ele>
        <time>2019-06-17T08:21:23Z</time>
      </trkpt>
      <trkpt lat="44.22146" lon="5.57758">
        <ele>750</ele>
        <time>2019-06-17T08:21:24Z</time>
      </trkpt>
      <trkpt lat="44.22146" lon="5.57749">
        <ele>751</ele>
        <time>2019-06-17T08:21:25Z</time>
      </trkpt>
      <trkpt lat="44.22145" lon="5.57741">
        <ele>751</ele>
        <time>2019-06-17T08:21:26Z</time>
      </trkpt>
      <trkpt lat="44.22145" lon="5.57733">
        <ele>751</ele>
        <time>2019-06-17T08:21:27Z</time>
      </trkpt>
      <trkpt lat="44.22145" lon="5.57724">
        <ele>751</ele>
        <time>2019-06-17T08:21:28Z</time>
      </trkpt>
      <trkpt lat="44.22144" lon="5.57716">
        <ele>751</ele>
        <time>2019-06-17T08:21:29Z</time>
      </trkpt>
      <trkpt lat="44.22144" lon="5.57707">
        <ele>751</ele>
        <time>2019-06-17T08:21:30Z</time>
      </trkpt>
      <trkpt lat="44.22144" lon="5.57698">
        <ele>752</ele>
        <time>2019-06-17T08:21:31Z</time>
      </trkpt>
      <trkpt lat="44.22143" lon="5.5769">
        <ele>752</ele>
        <time>2019-06-17T08:21:32Z</time>
      </trkpt>
      <trkpt lat="44.22143" lon="5.57681">
        <ele>752</ele>
        <time>2019-06-17T08:21:33Z</time>
      </trkpt>
      <trkpt lat="44.22142" lon="5.57672">
        <ele>752</ele>
        <time>2019-06-17T08:21:34Z</time>
      </trkpt>
      <trkpt lat="44.22142" lon="5.57663">
        <ele>752</ele>
        <time>2019-06-17T08:21:35Z</time>
      </trkpt>
      <trkpt lat="44.22142" lon="5.57655">
        <ele>752</ele>
        <time>2019-06-17T08:21:36Z</time>
      </trkpt>
      <trkpt lat="44.22141" lon="5.57646">
        <ele>752</ele>
        <time>2019-06-17T08:21:37Z</time>
      </trkpt>
      <trkpt lat="44.22141" lon="5.57638">
        <ele>752</ele>
        <time>2019-06-17T08:21:38Z</time>
      </trkpt>
      <trkpt lat="44.22141" lon="5.57629">
        <ele>752</ele>
        <time>2019-06-17T08:21:39Z</time>
      </trkpt>
      <trkpt lat="44.2214" lon="5.5762">
        <ele>752</ele>
        <time>2019-06-17T08:21:40Z</time>
      </trkpt>
      <trkpt lat="44.2214" lon="5.57612">
        <ele>752</ele>
        <time>2019-06-17T08:21:41Z</time>
      </trkpt>
      <trkpt lat="44.2214" lon="5.57603">
        <ele>752</ele>
        <time>2019-06-17T08:21:42Z</time>
      </trkpt>
      <trkpt lat="44.2214" lon="5.57594">
        <ele>752</ele>
        <time>2019-06-17T08:21:43Z</time>
      </trkpt>
      <trkpt lat="44.22139" lon="5.57586">
        <ele>752</ele>
        <time>2019-06-17T08:21:44Z</time>
      </trkpt>
      <trkpt lat="44.22139" lon="5.57577">
        <ele>752</ele>
        <time>2019-06-17T08:21:45Z</time>
      </trkpt>
      <trkpt lat="44.22139" lon="5.57568">
        <ele>753</ele>
        <time>2019-06-17T08:21:46Z</time>
      </trkpt>
      <trkpt lat="44.22139" lon="5.57559">
        <ele>753</ele>
        <time>2019-06-17T08:21:47Z</time>
      </trkpt>
      <trkpt lat="44.22138" lon="5.57551">
        <ele>753</ele>
        <time>2019-06-17T08:21:48Z</time>
      </trkpt>
      <trkpt lat="44.22138" lon="5.57542">
        <ele>753</ele>
        <time>2019-06-17T08:21:49Z</time>
      </trkpt>
      <trkpt lat="44.22138" lon="5.57533">
        <ele>753</ele>
        <time>2019-06-17T08:21:50Z</time>
      </trkpt>
      <trkpt lat="44.22138" lon="5.57524">
        <ele>753</ele>
        <time>2019-06-17T08:21:51Z</time>
      </trkpt>
      <trkpt lat="44.22138" lon="5.57516">
        <ele>753</ele>
        <time>2019-06-17T08:21:52Z</time>
      </trkpt>
      <trkpt lat="44.22137" lon="5.57507">
        <ele>753</ele>
        <time>2019-06-17T08:21:53Z</time>
      </trkpt>
      <trkpt lat="44.22137" lon="5.57498">
        <ele>753</ele>
        <time>2019-06-17T08:21:54Z</time>
      </trkpt>
      <trkpt lat="44.22137" lon="5.57489">
        <ele>753</ele>
        <time>2019-06-17T08:21:55Z</time>
      </trkpt>
      <trkpt lat="44.22137" lon="5.5748">
        <ele>753</ele>
        <time>2019-06-17T08:21:56Z</time>
      </trkpt>
      <trkpt lat="44.22137" lon="5.57472">
        <ele>753</ele>
        <time>2019-06-17T08:21:57Z</time>
      </trkpt>
      <trkpt lat="44.22136" lon="5.57463">
        <ele>753</ele>
        <time>2019-06-17T08:21:58Z</time>
      </trkpt>
      <trkpt lat="44.22136" lon="5.57454">
        <ele>753</ele>
        <time>2019-06-17T08:21:59Z</time>
      </trkpt>
      <trkpt lat="44.22136" lon="5.57445">
        <ele>753</ele>
        <time>2019-06-17T08:22:00Z</time>
      </trkpt>
      <trkpt lat="44.22135" lon="5.57436">
        <ele>753</ele>
        <time>2019-06-17T08:22:01Z</time>
      </trkpt>
      <trkpt lat="44.22135" lon="5.57428">
        <ele>753</ele>
        <time>2019-06-17T08:22:02Z</time>
      </trkpt>
      <trkpt lat="44.22135" lon="5.57419">
        <ele>753</ele>
        <time>2019-06-17T08:22:03Z</time>
      </trkpt>
      <trkpt lat="44.22135" lon="5.5741">
        <ele>753</ele>
        <time>2019-06-17T08:22:04Z</time>
      </trkpt>
      <trkpt lat="44.22134" lon="5.57401">
        <ele>753</ele>
        <time>2019-06-17T08:22:05Z</time>
      </trkpt>
      <trkpt lat="44.22134" lon="5.57392">
        <ele>753</ele>
        <time>2019-06-17T08:22:06Z</time>
      </trkpt>
      <trkpt lat="44.22134" lon="5.57384">
        <ele>753</ele>
        <time>2019-06-17T08:22:07Z</time>
      </trkpt>
      <trkpt lat="44.22133" lon="5.57375">
        <ele>753</ele>
        <time>2019-06-17T08:22:08Z</time>
      </trkpt>
      <trkpt lat="44.22133" lon="5.57366">
        <ele>753</ele>
        <time>2019-06-17T08:22:09Z</time>
      </trkpt>
      <trkpt lat="44.22133" lon="5.57358">
        <ele>753</ele>
        <time>2019-06-17T08:22:10Z</time>
      </trkpt>
      <trkpt lat="44.22132" lon="5.57349">
        <ele>753</ele>
        <time>2019-06-17T08:22:11Z</time>
      </trkpt>
      <trkpt lat="44.22132" lon="5.57341">
        <ele>753</ele>
        <time>2019-06-17T08:22:12Z</time>
      </trkpt>
      <trkpt lat="44.22132" lon="5.57333">
        <ele>753</ele>
        <time>2019-06-17T08:22:13Z</time>
      </trkpt>
      <trkpt lat="44.22132" lon="5.57324">
        <ele>753</ele>
        <time>2019-06-17T08:22:14Z</time>
      </trkpt>
      <trkpt lat="44.22131" lon="5.57316">
        <ele>753</ele>
        <time>2019-06-17T08:22:15Z</time>
      </trkpt>
      <trkpt lat="44.22131" lon="5.57308">
        <ele>753</ele>
        <time>2019-06-17T08:22:16Z</time>
      </trkpt>
      <trkpt lat="44.22131" lon="5.573">
        <ele>754</ele>
        <time>2019-06-17T08:22:17Z</time>
      </trkpt>
      <trkpt lat="44.22131" lon="5.57291">
        <ele>754</ele>
        <time>2019-06-17T08:22:18Z</time>
      </trkpt>
      <trkpt lat="44.22131" lon="5.57283">
        <ele>754</ele>
        <time>2019-06-17T08:22:19Z</time>
      </trkpt>
      <trkpt lat="44.2213" lon="5.57274">
        <ele>754</ele>
        <time>2019-06-17T08:22:20Z</time>
      </trkpt>
      <trkpt lat="44.2213" lon="5.57266">
        <ele>754</ele>
        <time>2019-06-17T08:22:21Z</time>
      </trkpt>
      <trkpt lat="44.2213" lon="5.57257">
        <ele>754</ele>
        <time>2019-06-17T08:22:22Z</time>
      </trkpt>
      <trkpt lat="44.2213" lon="5.57248">
        <ele>754</ele>
        <time>2019-06-17T08:22:23Z</time>
      </trkpt>
      <trkpt lat="44.2213" lon="5.57239">
        <ele>754</ele>
        <time>2019-06-17T08:22:24Z</time>
      </trkpt>
      <trkpt lat="44.22129" lon="5.57231">
        <ele>754</ele>
        <time>2019-06-17T08:22:25Z</time>
      </trkpt>
      <trkpt lat="44.22129" lon="5.57221">
        <ele>754</ele>
        <time>2019-06-17T08:22:26Z</time>
      </trkpt>
      <trkpt lat="44.22129" lon="5.57212">
        <ele>754</ele>
        <time>2019-06-17T08:22:27Z</time>
      </trkpt>
      <trkpt lat="44.22129" lon="5.57203">
        <ele>754</ele>
        <time>2019-06-17T08:22:28Z</time>
      </trkpt>
      <trkpt lat="44.22128" lon="5.57193">
        <ele>754</ele>
        <time>2019-06-17T08:22:29Z</time>
      </trkpt>
      <trkpt lat="44.22128" lon="5.57184">
        <ele>754</ele>
        <time>2019-06-17T08:22:30Z</time>
      </trkpt>
      <trkpt lat="44.22128" lon="5.57174">
        <ele>754</ele>
        <time>2019-06-17T08:22:31Z</time>
      </trkpt>
      <trkpt lat="44.22128" lon="5.57165">
        <ele>754</ele>
        <time>2019-06-17T08:22:32Z</time>
      </trkpt>
      <trkpt lat="44.22127" lon="5.57156">
        <ele>754</ele>
        <time>2019-06-17T08:22:33Z</time>
      </trkpt>
      <trkpt lat="44.22127" lon="5.57146">
        <ele>754</ele>
        <time>2019-06-17T08:22:34Z</time>
      </trkpt>
      <trkpt lat="44.22127" lon="5.57137">
        <ele>754</ele>
        <time>2019-06-17T08:22:35Z</time>
      </trkpt>
      <trkpt lat="44.22127" lon="5.57128">
        <ele>754</ele>
        <time>2019-06-17T08:22:36Z</time>
      </trkpt>
      <trkpt lat="44.22126" lon="5.57119">
        <ele>754</ele>
        <time>2019-06-17T08:22:37Z</time>
      </trkpt>
      <trkpt lat="44.22126" lon="5.5711">
        <ele>754</ele>
        <time>2019-06-17T08:22:38Z</time>
      </trkpt>
      <trkpt lat="44.22126" lon="5.57101">
        <ele>755</ele>
        <time>2019-06-17T08:22:39Z</time>
      </trkpt>
      <trkpt lat="44.22126" lon="5.57092">
        <ele>755</ele>
        <time>2019-06-17T08:22:40Z</time>
      </trkpt>
      <trkpt lat="44.22126" lon="5.57084">
        <ele>755</ele>
        <time>2019-06-17T08:22:41Z</time>
      </trkpt>
      <trkpt lat="44.22125" lon="5.57075">
        <ele>755</ele>
        <time>2019-06-17T08:22:42Z</time>
      </trkpt>
      <trkpt lat="44.22125" lon="5.57066">
        <ele>755</ele>
        <time>2019-06-17T08:22:43Z</time>
      </trkpt>
      <trkpt lat="44.22125" lon="5.57058">
        <ele>755</ele>
        <time>2019-06-17T08:22:44Z</time>
      </trkpt>
      <trkpt lat="44.22124" lon="5.57049">
        <ele>755</ele>
        <time>2019-06-17T08:22:45Z</time>
      </trkpt>
      <trkpt lat="44.22124" lon="5.57041">
        <ele>755</ele>
        <time>2019-06-17T08:22:46Z</time>
      </trkpt>
      <trkpt lat="44.22124" lon="5.57032">
        <ele>755</ele>
        <time>2019-06-17T08:22:47Z</time>
      </trkpt>
      <trkpt lat="44.22124" lon="5.57024">
        <ele>755</ele>
        <time>2019-06-17T08:22:48Z</time>
      </trkpt>
      <trkpt lat="44.22124" lon="5.57016">
        <ele>755</ele>
        <time>2019-06-17T08:22:49Z</time>
      </trkpt>
      <trkpt lat="44.22124" lon="5.57008">
        <ele>755</ele>
        <time>2019-06-17T08:22:50Z</time>
      </trkpt>
      <trkpt lat="44.22123" lon="5.57">
        <ele>755</ele>
        <time>2019-06-17T08:22:51Z</time>
      </trkpt>
      <trkpt lat="44.22123" lon="5.56992">
        <ele>755</ele>
        <time>2019-06-17T08:22:52Z</time>
      </trkpt>
      <trkpt lat="44.22123" lon="5.56984">
        <ele>755</ele>
        <time>2019-06-17T08:22:53Z</time>
      </trkpt>
      <trkpt lat="44.22123" lon="5.56976">
        <ele>755</ele>
        <time>2019-06-17T08:22:54Z</time>
      </trkpt>
      <trkpt lat="44.22123" lon="5.56967">
        <ele>755</ele>
        <time>2019-06-17T08:22:55Z</time>
      </trkpt>
      <trkpt lat="44.22122" lon="5.56959">
        <ele>755</ele>
        <time>2019-06-17T08:22:56Z</time>
      </trkpt>
      <trkpt lat="44.22122" lon="5.56951">
        <ele>755</ele>
        <time>2019-06-17T08:22:57Z</time>
      </trkpt>
      <trkpt lat="44.22122" lon="5.56943">
        <ele>756</ele>
        <time>2019-06-17T08:22:58Z</time>
      </trkpt>
      <trkpt lat="44.22121" lon="5.56935">
        <ele>756</ele>
        <time>2019-06-17T08:22:59Z</time>
      </trkpt>
      <trkpt lat="44.22121" lon="5.56927">
        <ele>756</ele>
        <time>2019-06-17T08:23:00Z</time>
      </trkpt>
      <trkpt lat="44.22121" lon="5.56919">
        <ele>756</ele>
        <time>2019-06-17T08:23:01Z</time>
      </trkpt>
      <trkpt lat="44.22121" lon="5.56911">
        <ele>756</ele>
        <time>2019-06-17T08:23:02Z</time>
      </trkpt>
      <trkpt lat="44.2212" lon="5.56903">
        <ele>756</ele>
        <time>2019-06-17T08:23:03Z</time>
      </trkpt>
      <trkpt lat="44.2212" lon="5.56895">
        <ele>756</ele>
        <time>2019-06-17T08:23:04Z</time>
      </trkpt>
      <trkpt lat="44.2212" lon="5.56888">
        <ele>756</ele>
        <time>2019-06-17T08:23:05Z</time>
      </trkpt>
      <trkpt lat="44.2212" lon="5.5688">
        <ele>756</ele>
        <time>2019-06-17T08:23:06Z</time>
      </trkpt>
      <trkpt lat="44.2212" lon="5.56873">
        <ele>756</ele>
        <time>2019-06-17T08:23:07Z</time>
      </trkpt>
      <trkpt lat="44.2212" lon="5.56865">
        <ele>756</ele>
        <time>2019-06-17T08:23:08Z</time>
      </trkpt>
      <trkpt lat="44.2212" lon="5.56857">
        <ele>756</ele>
        <time>2019-06-17T08:23:09Z</time>
      </trkpt>
      <trkpt lat="44.22119" lon="5.5685">
        <ele>757</ele>
        <time>2019-06-17T08:23:10Z</time>
      </trkpt>
      <trkpt lat="44.22119" lon="5.56842">
        <ele>757</ele>
        <time>2019-06-17T08:23:11Z</time>
      </trkpt>
      <trkpt lat="44.22119" lon="5.56834">
        <ele>757</ele>
        <time>2019-06-17T08:23:12Z</time>
      </trkpt>
      <trkpt lat="44.22118" lon="5.56826">
        <ele>757</ele>
        <time>2019-06-17T08:23:13Z</time>
      </trkpt>
      <trkpt lat="44.22118" lon="5.56818">
        <ele>757</ele>
        <time>2019-06-17T08:23:14Z</time>
      </trkpt>
      <trkpt lat="44.22118" lon="5.5681">
        <ele>757</ele>
        <time>2019-06-17T08:23:15Z</time>
      </trkpt>
      <trkpt lat="44.22118" lon="5.56802">
        <ele>757</ele>
        <time>2019-06-17T08:23:16Z</time>
      </trkpt>
      <trkpt lat="44.22118" lon="5.56794">
        <ele>757</ele>
        <time>2019-06-17T08:23:17Z</time>
      </trkpt>
      <trkpt lat="44.22118" lon="5.56785">
        <ele>757</ele>
        <time>2019-06-17T08:23:18Z</time>
      </trkpt>
      <trkpt lat="44.22117" lon="5.56777">
        <ele>757</ele>
        <time>2019-06-17T08:23:19Z</time>
      </trkpt>
      <trkpt lat="44.22117" lon="5.56769">
        <ele>757</ele>
        <time>2019-06-17T08:23:20Z</time>
      </trkpt>
      <trkpt lat="44.22116" lon="5.56761">
        <ele>758</ele>
        <time>2019-06-17T08:23:21Z</time>
      </trkpt>
      <trkpt lat="44.22116" lon="5.56752">
        <ele>758</ele>
        <time>2019-06-17T08:23:22Z</time>
      </trkpt>
      <trkpt lat="44.22116" lon="5.56744">
        <ele>758</ele>
        <time>2019-06-17T08:23:23Z</time>
      </trkpt>
      <trkpt lat="44.22116" lon="5.56736">
        <ele>758</ele>
        <time>2019-06-17T08:23:24Z</time>
      </trkpt>
      <trkpt lat="44.22116" lon="5.56728">
        <ele>758</ele>
        <time>2019-06-17T08:23:25Z</time>
      </trkpt>
      <trkpt lat="44.22116" lon="5.5672">
        <ele>758</ele>
        <time>2019-06-17T08:23:26Z</time>
      </trkpt>
      <trkpt lat="44.22115" lon="5.56712">
        <ele>758</ele>
        <time>2019-06-17T08:23:27Z</time>
      </trkpt>
      <trkpt lat="44.22115" lon="5.56704">
        <ele>758</ele>
        <time>2019-06-17T08:23:28Z</time>
      </trkpt>
      <trkpt lat="44.22115" lon="5.56696">
        <ele>758</ele>
        <time>2019-06-17T08:23:29Z</time>
      </trkpt>
      <trkpt lat="44.22115" lon="5.56688">
        <ele>758</ele>
        <time>2019-06-17T08:23:30Z</time>
      </trkpt>
      <trkpt lat="44.22114" lon="5.5668">
        <ele>758</ele>
        <time>2019-06-17T08:23:31Z</time>
      </trkpt>
      <trkpt lat="44.22114" lon="5.56673">
        <ele>758</ele>
        <time>2019-06-17T08:23:32Z</time>
      </trkpt>
      <trkpt lat="44.22114" lon="5.56665">
        <ele>758</ele>
        <time>2019-06-17T08:23:33Z</time>
      </trkpt>
      <trkpt lat="44.22114" lon="5.56657">
        <ele>759</ele>
        <time>2019-06-17T08:23:34Z</time>
      </trkpt>
      <trkpt lat="44.22114" lon="5.56649">
        <ele>759</ele>
        <time>2019-06-17T08:23:35Z</time>
      </trkpt>
      <trkpt lat="44.22113" lon="5.56641">
        <ele>759</ele>
        <time>2019-06-17T08:23:36Z</time>
      </trkpt>
      <trkpt lat="44.22113" lon="5.56633">
        <ele>759</ele>
        <time>2019-06-17T08:23:37Z</time>
      </trkpt>
      <trkpt lat="44.22113" lon="5.56624">
        <ele>759</ele>
        <time>2019-06-17T08:23:38Z</time>
      </trkpt>
      <trkpt lat="44.22113" lon="5.56616">
        <ele>759</ele>
        <time>2019-06-17T08:23:39Z</time>
      </trkpt>
      <trkpt lat="44.22112" lon="5.56608">
        <ele>759</ele>
        <time>2019-06-17T08:23:40Z</time>
      </trkpt>
      <trkpt lat="44.22112" lon="5.56599">
        <ele>759</ele>
        <time>2019-06-17T08:23:41Z</time>
      </trkpt>
      <trkpt lat="44.22112" lon="5.56591">
        <ele>760</ele>
        <time>2019-06-17T08:23:42Z</time>
      </trkpt>
      <trkpt lat="44.22111" lon="5.56582">
        <ele>760</ele>
        <time>2019-06-17T08:23:43Z</time>
      </trkpt>
      <trkpt lat="44.22111" lon="5.56574">
        <ele>760</ele>
        <time>2019-06-17T08:23:44Z</time>
      </trkpt>
      <trkpt lat="44.22111" lon="5.56566">
        <ele>760</ele>
        <time>2019-06-17T08:23:45Z</time>
      </trkpt>
      <trkpt lat="44.22111" lon="5.56558">
        <ele>760</ele>
        <time>2019-06-17T08:23:46Z</time>
      </trkpt>
      <trkpt lat="44.22111" lon="5.5655">
        <ele>760</ele>
        <time>2019-06-17T08:23:47Z</time>
      </trkpt>
      <trkpt lat="44.22111" lon="5.56542">
        <ele>760</ele>
        <time>2019-06-17T08:23:48Z</time>
      </trkpt>
      <trkpt lat="44.22111" lon="5.56534">
        <ele>760</ele>
        <time>2019-06-17T08:23:49Z</time>
      </trkpt>
      <trkpt lat="44.22111" lon="5.56526">
        <ele>760</ele>
        <time>2019-06-17T08:23:50Z</time>
      </trkpt>
      <trkpt lat="44.2211" lon="5.56517">
        <ele>760</ele>
        <time>2019-06-17T08:23:51Z</time>
      </trkpt>
      <trkpt lat="44.2211" lon="5.56509">
        <ele>760</ele>
        <time>2019-06-17T08:23:52Z</time>
      </trkpt>
      <trkpt lat="44.2211" lon="5.565">
        <ele>760</ele>
        <time>2019-06-17T08:23:53Z</time>
      </trkpt>
      <trkpt lat="44.2211" lon="5.56492">
        <ele>760</ele>
        <time>2019-06-17T08:23:54Z</time>
      </trkpt>
      <trkpt lat="44.22109" lon="5.56484">
        <ele>760</ele>
        <time>2019-06-17T08:23:55Z</time>
      </trkpt>
      <trkpt lat="44.22109" lon="5.56475">
        <ele>760</ele>
        <time>2019-06-17T08:23:56Z</time>
      </trkpt>
      <trkpt lat="44.22108" lon="5.56466">
        <ele>760</ele>
        <time>2019-06-17T08:23:57Z</time>
      </trkpt>
      <trkpt lat="44.22108" lon="5.56457">
        <ele>760</ele>
        <time>2019-06-17T08:23:58Z</time>
      </trkpt>
      <trkpt lat="44.22107" lon="5.56449">
        <ele>760</ele>
        <time>2019-06-17T08:23:59Z</time>
      </trkpt>
      <trkpt lat="44.22107" lon="5.56439">
        <ele>760</ele>
        <time>2019-06-17T08:24:00Z</time>
      </trkpt>
      <trkpt lat="44.22106" lon="5.5643">
        <ele>760</ele>
        <time>2019-06-17T08:24:01Z</time>
      </trkpt>
      <trkpt lat="44.22105" lon="5.56422">
        <ele>760</ele>
        <time>2019-06-17T08:24:02Z</time>
      </trkpt>
      <trkpt lat="44.22104" lon="5.56413">
        <ele>760</ele>
        <time>2019-06-17T08:24:03Z</time>
      </trkpt>
      <trkpt lat="44.22103" lon="5.56404">
        <ele>761</ele>
        <time>2019-06-17T08:24:04Z</time>
      </trkpt>
      <trkpt lat="44.22102" lon="5.56395">
        <ele>761</ele>
        <time>2019-06-17T08:24:05Z</time>
      </trkpt>
      <trkpt lat="44.22101" lon="5.56387">
        <ele>761</ele>
        <time>2019-06-17T08:24:06Z</time>
      </trkpt>
      <trkpt lat="44.221" lon="5.56379">
        <ele>761</ele>
        <time>2019-06-17T08:24:07Z</time>
      </trkpt>
      <trkpt lat="44.22099" lon="5.56371">
        <ele>761</ele>
        <time>2019-06-17T08:24:08Z</time>
      </trkpt>
      <trkpt lat="44.22099" lon="5.56363">
        <ele>761</ele>
        <time>2019-06-17T08:24:09Z</time>
      </trkpt>
      <trkpt lat="44.22098" lon="5.56354">
        <ele>761</ele>
        <time>2019-06-17T08:24:10Z</time>
      </trkpt>
      <trkpt lat="44.22097" lon="5.56346">
        <ele>762</ele>
        <time>2019-06-17T08:24:11Z</time>
      </trkpt>
      <trkpt lat="44.22096" lon="5.56338">
        <ele>762</ele>
        <time>2019-06-17T08:24:12Z</time>
      </trkpt>
      <trkpt lat="44.22095" lon="5.56329">
        <ele>762</ele>
        <time>2019-06-17T08:24:13Z</time>
      </trkpt>
      <trkpt lat="44.22094" lon="5.56321">
        <ele>762</ele>
        <time>2019-06-17T08:24:14Z</time>
      </trkpt>
      <trkpt lat="44.22094" lon="5.56312">
        <ele>762</ele>
        <time>2019-06-17T08:24:15Z</time>
      </trkpt>
      <trkpt lat="44.22093" lon="5.56304">
        <ele>763</ele>
        <time>2019-06-17T08:24:16Z</time>
      </trkpt>
      <trkpt lat="44.22092" lon="5.56295">
        <ele>763</ele>
        <time>2019-06-17T08:24:17Z</time>
      </trkpt>
      <trkpt lat="44.22091" lon="5.56286">
        <ele>763</ele>
        <time>2019-06-17T08:24:18Z</time>
      </trkpt>
      <trkpt lat="44.2209" lon="5.56277">
        <ele>763</ele>
        <time>2019-06-17T08:24:19Z</time>
      </trkpt>
      <trkpt lat="44.22089" lon="5.56268">
        <ele>763</ele>
        <time>2019-06-17T08:24:20Z</time>
      </trkpt>
      <trkpt lat="44.22088" lon="5.56259">
        <ele>763</ele>
        <time>2019-06-17T08:24:21Z</time>
      </trkpt>
      <trkpt lat="44.22087" lon="5.5625">
        <ele>763</ele>
        <time>2019-06-17T08:24:22Z</time>
      </trkpt>
      <trkpt lat="44.22086" lon="5.56241">
        <ele>763</ele>
        <time>2019-06-17T08:24:23Z</time>
      </trkpt>
      <trkpt lat="44.22085" lon="5.56232">
        <ele>763</ele>
        <time>2019-06-17T08:24:24Z</time>
      </trkpt>
      <trkpt lat="44.22084" lon="5.56223">
        <ele>763</ele>
        <time>2019-06-17T08:24:25Z</time>
      </trkpt>
      <trkpt lat="44.22083" lon="5.56214">
        <ele>763</ele>
        <time>2019-06-17T08:24:26Z</time>
      </trkpt>
      <trkpt lat="44.22082" lon="5.56205">
        <ele>763</ele>
        <time>2019-06-17T08:24:27Z</time>
      </trkpt>
      <trkpt lat="44.22081" lon="5.56196">
        <ele>763</ele>
        <time>2019-06-17T08:24:28Z</time>
      </trkpt>
      <trkpt lat="44.2208" lon="5.56187">
        <ele>763</ele>
        <time>2019-06-17T08:24:29Z</time>
      </trkpt>
      <trkpt lat="44.22079" lon="5.56178">
        <ele>763</ele>
        <time>2019-06-17T08:24:30Z</time>
      </trkpt>
      <trkpt lat="44.22078" lon="5.56169">
        <ele>763</ele>
        <time>2019-06-17T08:24:31Z</time>
      </trkpt>
      <trkpt lat="44.22077" lon="5.56159">
        <ele>763</ele>
        <time>2019-06-17T08:24:32Z</time>
      </trkpt>
      <trkpt lat="44.22076" lon="5.5615">
        <ele>763</ele>
        <time>2019-06-17T08:24:33Z</time>
      </trkpt>
      <trkpt lat="44.22075" lon="5.5614">
        <ele>763</ele>
        <time>2019-06-17T08:24:34Z</time>
      </trkpt>
      <trkpt lat="44.22074" lon="5.56131">
        <ele>763</ele>
        <time>2019-06-17T08:24:35Z</time>
      </trkpt>
      <trkpt lat="44.22073" lon="5.56121">
        <ele>763</ele>
        <time>2019-06-17T08:24:36Z</time>
      </trkpt>
      <trkpt lat="44.22072" lon="5.56111">
        <ele>763</ele>
        <time>2019-06-17T08:24:37Z</time>
      </trkpt>
      <trkpt lat="44.22071" lon="5.56101">
        <ele>763</ele>
        <time>2019-06-17T08:24:38Z</time>
      </trkpt>
      <trkpt lat="44.2207" lon="5.56091">
        <ele>763</ele>
        <time>2019-06-17T08:24:39Z</time>
      </trkpt>
      <trkpt lat="44.22069" lon="5.56081">
        <ele>763</ele>
        <time>2019-06-17T08:24:40Z</time>
      </trkpt>
      <trkpt lat="44.22068" lon="5.56071">
        <ele>763</ele>
        <time>2019-06-17T08:24:41Z</time>
      </trkpt>
      <trkpt lat="44.22067" lon="5.56062">
        <ele>763</ele>
        <time>2019-06-17T08:24:42Z</time>
      </trkpt>
      <trkpt lat="44.22066" lon="5.56051">
        <ele>763</ele>
        <time>2019-06-17T08:24:43Z</time>
      </trkpt>
      <trkpt lat="44.22065" lon="5.56041">
        <ele>763</ele>
        <time>2019-06-17T08:24:44Z</time>
      </trkpt>
      <trkpt lat="44.22064" lon="5.56031">
        <ele>763</ele>
        <time>2019-06-17T08:24:45Z</time>
      </trkpt>
      <trkpt lat="44.22063" lon="5.56021">
        <ele>763</ele>
        <time>2019-06-17T08:24:46Z</time>
      </trkpt>
      <trkpt lat="44.22062" lon="5.56011">
        <ele>763</ele>
        <time>2019-06-17T08:24:47Z</time>
      </trkpt>
      <trkpt lat="44.22061" lon="5.56001">
        <ele>763</ele>
        <time>2019-06-17T08:24:48Z</time>
      </trkpt>
      <trkpt lat="44.2206" lon="5.55991">
        <ele>763</ele>
        <time>2019-06-17T08:24:49Z</time>
      </trkpt>
      <trkpt lat="44.22059" lon="5.55981">
        <ele>763</ele>
        <time>2019-06-17T08:24:50Z</time>
      </trkpt>
      <trkpt lat="44.22057" lon="5.55971">
        <ele>763</ele>
        <time>2019-06-17T08:24:51Z</time>
      </trkpt>
      <trkpt lat="44.22057" lon="5.55961">
        <ele>763</ele>
        <time>2019-06-17T08:24:52Z</time>
      </trkpt>
      <trkpt lat="44.22055" lon="5.55952">
        <ele>763</ele>
        <time>2019-06-17T08:24:53Z</time>
      </trkpt>
      <trkpt lat="44.22055" lon="5.55942">
        <ele>763</ele>
        <time>2019-06-17T08:24:54Z</time>
      </trkpt>
      <trkpt lat="44.22054" lon="5.55932">
        <ele>763</ele>
        <time>2019-06-17T08:24:55Z</time>
      </trkpt>
      <trkpt lat="44.22052" lon="5.55923">
        <ele>763</ele>
        <time>2019-06-17T08:24:56Z</time>
      </trkpt>
      <trkpt lat="44.22051" lon="5.55913">
        <ele>763</ele>
        <time>2019-06-17T08:24:57Z</time>
      </trkpt>
      <trkpt lat="44.2205" lon="5.55904">
        <ele>763</ele>
        <time>2019-06-17T08:24:58Z</time>
      </trkpt>
      <trkpt lat="44.22049" lon="5.55894">
        <ele>763</ele>
        <time>2019-06-17T08:24:59Z</time>
      </trkpt>
      <trkpt lat="44.22048" lon="5.55885">
        <ele>763</ele>
        <time>2019-06-17T08:25:00Z</time>
      </trkpt>
      <trkpt lat="44.22047" lon="5.55875">
        <ele>763</ele>
        <time>2019-06-17T08:25:01Z</time>
      </trkpt>
      <trkpt lat="44.22046" lon="5.55866">
        <ele>763</ele>
        <time>2019-06-17T08:25:02Z</time>
      </trkpt>
      <trkpt lat="44.22045" lon="5.55857">
        <ele>763</ele>
        <time>2019-06-17T08:25:03Z</time>
      </trkpt>
      <trkpt lat="44.22044" lon="5.55847">
        <ele>763</ele>
        <time>2019-06-17T08:25:04Z</time>
      </trkpt>
      <trkpt lat="44.22043" lon="5.55837">
        <ele>763</ele>
        <time>2019-06-17T08:25:05Z</time>
      </trkpt>
      <trkpt lat="44.22042" lon="5.55828">
        <ele>763</ele>
        <time>2019-06-17T08:25:06Z</time>
      </trkpt>
      <trkpt lat="44.22041" lon="5.55818">
        <ele>763</ele>
        <time>2019-06-17T08:25:07Z</time>
      </trkpt>
      <trkpt lat="44.2204" lon="5.55809">
        <ele>763</ele>
        <time>2019-06-17T08:25:08Z</time>
      </trkpt>
      <trkpt lat="44.22039" lon="5.55799">
        <ele>763</ele>
        <time>2019-06-17T08:25:09Z</time>
      </trkpt>
      <trkpt lat="44.22038" lon="5.5579">
        <ele>763</ele>
        <time>2019-06-17T08:25:10Z</time>
      </trkpt>
      <trkpt lat="44.22037" lon="5.5578">
        <ele>763</ele>
        <time>2019-06-17T08:25:11Z</time>
      </trkpt>
      <trkpt lat="44.22036" lon="5.5577">
        <ele>763</ele>
        <time>2019-06-17T08:25:12Z</time>
      </trkpt>
      <trkpt lat="44.22035" lon="5.55761">
        <ele>763</ele>
        <time>2019-06-17T08:25:13Z</time>
      </trkpt>
      <trkpt lat="44.22034" lon="5.55751">
        <ele>763</ele>
        <time>2019-06-17T08:25:14Z</time>
      </trkpt>
      <trkpt lat="44.22033" lon="5.55741">
        <ele>763</ele>
        <time>2019-06-17T08:25:15Z</time>
      </trkpt>
      <trkpt lat="44.22032" lon="5.55732">
        <ele>763</ele>
        <time>2019-06-17T08:25:16Z</time>
      </trkpt>
      <trkpt lat="44.22031" lon="5.55722">
        <ele>763</ele>
        <time>2019-06-17T08:25:17Z</time>
      </trkpt>
      <trkpt lat="44.2203" lon="5.55712">
        <ele>763</ele>
        <time>2019-06-17T08:25:18Z</time>
      </trkpt>
      <trkpt lat="44.22029" lon="5.55703">
        <ele>763</ele>
        <time>2019-06-17T08:25:19Z</time>
      </trkpt>
      <trkpt lat="44.22028" lon="5.55693">
        <ele>763</ele>
        <time>2019-06-17T08:25:20Z</time>
      </trkpt>
      <trkpt lat="44.22027" lon="5.55683">
        <ele>763</ele>
        <time>2019-06-17T08:25:21Z</time>
      </trkpt>
      <trkpt lat="44.22026" lon="5.55673">
        <ele>763</ele>
        <time>2019-06-17T08:25:22Z</time>
      </trkpt>
      <trkpt lat="44.22025" lon="5.55663">
        <ele>763</ele>
        <time>2019-06-17T08:25:23Z</time>
      </trkpt>
      <trkpt lat="44.22024" lon="5.55653">
        <ele>763</ele>
        <time>2019-06-17T08:25:24Z</time>
      </trkpt>
      <trkpt lat="44.22023" lon="5.55643">
        <ele>763</ele>
        <time>2019-06-17T08:25:25Z</time>
      </trkpt>
      <trkpt lat="44.22022" lon="5.55633">
        <ele>763</ele>
        <time>2019-06-17T08:25:26Z</time>
      </trkpt>
      <trkpt lat="44.22021" lon="5.55623">
        <ele>763</ele>
        <time>2019-06-17T08:25:27Z</time>
      </trkpt>
      <trkpt lat="44.2202" lon="5.55614">
        <ele>763</ele>
        <time>2019-06-17T08:25:28Z</time>
      </trkpt>
      <trkpt lat="44.22019" lon="5.55604">
        <ele>763</ele>
        <time>2019-06-17T08:25:29Z</time>
      </trkpt>
      <trkpt lat="44.22018" lon="5.55595">
        <ele>763</ele>
        <time>2019-06-17T08:25:30Z</time>
      </trkpt>
      <trkpt lat="44.22017" lon="5.55585">
        <ele>763</ele>
        <time>2019-06-17T08:25:31Z</time>
      </trkpt>
      <trkpt lat="44.22016" lon="5.55576">
        <ele>763</ele>
        <time>2019-06-17T08:25:32Z</time>
      </trkpt>
      <trkpt lat="44.22015" lon="5.55566">
        <ele>763</ele>
        <time>2019-06-17T08:25:33Z</time>
      </trkpt>
      <trkpt lat="44.22014" lon="5.55557">
        <ele>763</ele>
        <time>2019-06-17T08:25:34Z</time>
      </trkpt>
      <trkpt lat="44.22013" lon="5.55548">
        <ele>763</ele>
        <time>2019-06-17T08:25:35Z</time>
      </trkpt>
      <trkpt lat="44.22012" lon="5.55538">
        <ele>763</ele>
        <time>2019-06-17T08:25:36Z</time>
      </trkpt>
      <trkpt lat="44.22011" lon="5.55529">
        <ele>763</ele>
        <time>2019-06-17T08:25:37Z</time>
      </trkpt>
      <trkpt lat="44.2201" lon="5.5552">
        <ele>763</ele>
        <time>2019-06-17T08:25:38Z</time>
      </trkpt>
      <trkpt lat="44.22009" lon="5.55511">
        <ele>763</ele>
        <time>2019-06-17T08:25:39Z</time>
      </trkpt>
      <trkpt lat="44.22008" lon="5.55501">
        <ele>763</ele>
        <time>2019-06-17T08:25:40Z</time>
      </trkpt>
      <trkpt lat="44.22007" lon="5.55492">
        <ele>763</ele>
        <time>2019-06-17T08:25:41Z</time>
      </trkpt>
      <trkpt lat="44.22007" lon="5.55482">
        <ele>763</ele>
        <time>2019-06-17T08:25:42Z</time>
      </trkpt>
      <trkpt lat="44.22005" lon="5.55473">
        <ele>763</ele>
        <time>2019-06-17T08:25:43Z</time>
      </trkpt>
      <trkpt lat="44.22004" lon="5.55463">
        <ele>763</ele>
        <time>2019-06-17T08:25:44Z</time>
      </trkpt>
      <trkpt lat="44.22003" lon="5.55453">
        <ele>763</ele>
        <time>2019-06-17T08:25:45Z</time>
      </trkpt>
      <trkpt lat="44.22002" lon="5.55443">
        <ele>763</ele>
        <time>2019-06-17T08:25:46Z</time>
      </trkpt>
      <trkpt lat="44.22001" lon="5.55434">
        <ele>763</ele>
        <time>2019-06-17T08:25:47Z</time>
      </trkpt>
      <trkpt lat="44.22" lon="5.55424">
        <ele>763</ele>
        <time>2019-06-17T08:25:48Z</time>
      </trkpt>
      <trkpt lat="44.21999" lon="5.55414">
        <ele>763</ele>
        <time>2019-06-17T08:25:49Z</time>
      </trkpt>
      <trkpt lat="44.21998" lon="5.55405">
        <ele>763</ele>
        <time>2019-06-17T08:25:50Z</time>
      </trkpt>
      <trkpt lat="44.21997" lon="5.55395">
        <ele>763</ele>
        <time>2019-06-17T08:25:51Z</time>
      </trkpt>
      <trkpt lat="44.21996" lon="5.55386">
        <ele>763</ele>
        <time>2019-06-17T08:25:52Z</time>
      </trkpt>
      <trkpt lat="44.21995" lon="5.55376">
        <ele>763</ele>
        <time>2019-06-17T08:25:53Z</time>
      </trkpt>
      <trkpt lat="44.21994" lon="5.55367">
        <ele>763</ele>
        <time>2019-06-17T08:25:54Z</time>
      </trkpt>
      <trkpt lat="44.21993" lon="5.55357">
        <ele>764</ele>
        <time>2019-06-17T08:25:55Z</time>
      </trkpt>
      <trkpt lat="44.21992" lon="5.55347">
        <ele>764</ele>
        <time>2019-06-17T08:25:56Z</time>
      </trkpt>
      <trkpt lat="44.21991" lon="5.55338">
        <ele>764</ele>
        <time>2019-06-17T08:25:57Z</time>
      </trkpt>
      <trkpt lat="44.2199" lon="5.55329">
        <ele>764</ele>
        <time>2019-06-17T08:25:58Z</time>
      </trkpt>
      <trkpt lat="44.21989" lon="5.55319">
        <ele>764</ele>
        <time>2019-06-17T08:25:59Z</time>
      </trkpt>
      <trkpt lat="44.21988" lon="5.55309">
        <ele>764</ele>
        <time>2019-06-17T08:26:00Z</time>
      </trkpt>
      <trkpt lat="44.21987" lon="5.553">
        <ele>764</ele>
        <time>2019-06-17T08:26:01Z</time>
      </trkpt>
      <trkpt lat="44.21986" lon="5.55291">
        <ele>764</ele>
        <time>2019-06-17T08:26:02Z</time>
      </trkpt>
      <trkpt lat="44.21985" lon="5.55281">
        <ele>765</ele>
        <time>2019-06-17T08:26:03Z</time>
      </trkpt>
      <trkpt lat="44.21984" lon="5.55271">
        <ele>765</ele>
        <time>2019-06-17T08:26:04Z</time>
      </trkpt>
      <trkpt lat="44.21983" lon="5.55263">
        <ele>765</ele>
        <time>2019-06-17T08:26:05Z</time>
      </trkpt>
      <trkpt lat="44.21983" lon="5.55254">
        <ele>765</ele>
        <time>2019-06-17T08:26:06Z</time>
      </trkpt>
      <trkpt lat="44.21981" lon="5.55245">
        <ele>765</ele>
        <time>2019-06-17T08:26:07Z</time>
      </trkpt>
      <trkpt lat="44.21981" lon="5.55237">
        <ele>765</ele>
        <time>2019-06-17T08:26:08Z</time>
      </trkpt>
      <trkpt lat="44.2198" lon="5.55229">
        <ele>765</ele>
        <time>2019-06-17T08:26:09Z</time>
      </trkpt>
      <trkpt lat="44.21979" lon="5.5522">
        <ele>765</ele>
        <time>2019-06-17T08:26:10Z</time>
      </trkpt>
      <trkpt lat="44.21978" lon="5.55212">
        <ele>765</ele>
        <time>2019-06-17T08:26:11Z</time>
      </trkpt>
      <trkpt lat="44.21976" lon="5.55204">
        <ele>765</ele>
        <time>2019-06-17T08:26:12Z</time>
      </trkpt>
      <trkpt lat="44.21975" lon="5.55196">
        <ele>765</ele>
        <time>2019-06-17T08:26:13Z</time>
      </trkpt>
      <trkpt lat="44.21973" lon="5.55188">
        <ele>765</ele>
        <time>2019-06-17T08:26:14Z</time>
      </trkpt>
      <trkpt lat="44.21972" lon="5.5518">
        <ele>765</ele>
        <time>2019-06-17T08:26:15Z</time>
      </trkpt>
      <trkpt lat="44.2197" lon="5.55173">
        <ele>766</ele>
        <time>2019-06-17T08:26:16Z</time>
      </trkpt>
      <trkpt lat="44.21968" lon="5.55165">
        <ele>766</ele>
        <time>2019-06-17T08:26:17Z</time>
      </trkpt>
      <trkpt lat="44.21967" lon="5.55158">
        <ele>766</ele>
        <time>2019-06-17T08:26:18Z</time>
      </trkpt>
      <trkpt lat="44.21965" lon="5.55151">
        <ele>766</ele>
        <time>2019-06-17T08:26:19Z</time>
      </trkpt>
      <trkpt lat="44.21962" lon="5.55144">
        <ele>766</ele>
        <time>2019-06-17T08:26:20Z</time>
      </trkpt>
      <trkpt lat="44.21961" lon="5.55137">
        <ele>767</ele>
        <time>2019-06-17T08:26:21Z</time>
      </trkpt>
      <trkpt lat="44.21959" lon="5.5513">
        <ele>767</ele>
        <time>2019-06-17T08:26:22Z</time>
      </trkpt>
      <trkpt lat="44.21956" lon="5.55124">
        <ele>767</ele>
        <time>2019-06-17T08:26:23Z</time>
      </trkpt>
      <trkpt lat="44.21954" lon="5.55117">
        <ele>767</ele>
        <time>2019-06-17T08:26:24Z</time>
      </trkpt>
      <trkpt lat="44.21951" lon="5.5511">
        <ele>768</ele>
        <time>2019-06-17T08:26:25Z</time>
      </trkpt>
      <trkpt lat="44.21949" lon="5.55103">
        <ele>768</ele>
        <time>2019-06-17T08:26:26Z</time>
      </trkpt>
      <trkpt lat="44.21946" lon="5.55097">
        <ele>768</ele>
        <time>2019-06-17T08:26:27Z</time>
      </trkpt>
      <trkpt lat="44.21944" lon="5.5509">
        <ele>769</ele>
        <time>2019-06-17T08:26:28Z</time>
      </trkpt>
      <trkpt lat="44.21942" lon="5.55085">
        <ele>769</ele>
        <time>2019-06-17T08:26:29Z</time>
      </trkpt>
      <trkpt lat="44.21939" lon="5.55079">
        <ele>770</ele>
        <time>2019-06-17T08:26:30Z</time>
      </trkpt>
      <trkpt lat="44.21936" lon="5.55072">
        <ele>770</ele>
        <time>2019-06-17T08:26:31Z</time>
      </trkpt>
      <trkpt lat="44.21934" lon="5.55066">
        <ele>771</ele>
        <time>2019-06-17T08:26:32Z</time>
      </trkpt>
      <trkpt lat="44.21932" lon="5.5506">
        <ele>771</ele>
        <time>2019-06-17T08:26:33Z</time>
      </trkpt>
      <trkpt lat="44.2193" lon="5.55054">
        <ele>771</ele>
        <time>2019-06-17T08:26:34Z</time>
      </trkpt>
      <trkpt lat="44.21927" lon="5.55048">
        <ele>772</ele>
        <time>2019-06-17T08:26:35Z</time>
      </trkpt>
      <trkpt lat="44.21925" lon="5.55042">
        <ele>772</ele>
        <time>2019-06-17T08:26:36Z</time>
      </trkpt>
      <trkpt lat="44.21923" lon="5.55036">
        <ele>773</ele>
        <time>2019-06-17T08:26:37Z</time>
      </trkpt>
      <trkpt lat="44.21921" lon="5.5503">
        <ele>773</ele>
        <time>2019-06-17T08:26:38Z</time>
      </trkpt>
      <trkpt lat="44.21918" lon="5.55024">
        <ele>773</ele>
        <time>2019-06-17T08:26:39Z</time>
      </trkpt>
      <trkpt lat="44.21916" lon="5.55018">
        <ele>774</ele>
        <time>2019-06-17T08:26:40Z</time>
      </trkpt>
      <trkpt lat="44.21914" lon="5.55013">
        <ele>774</ele>
        <time>2019-06-17T08:26:41Z</time>
      </trkpt>
      <trkpt lat="44.21912" lon="5.55007">
        <ele>774</ele>
        <time>2019-06-17T08:26:43Z</time>
      </trkpt>
      <trkpt lat="44.2191" lon="5.55001">
        <ele>774</ele>
        <time>2019-06-17T08:26:43Z</time>
      </trkpt>
      <trkpt lat="44.21908" lon="5.54994">
        <ele>774</ele>
        <time>2019-06-17T08:26:44Z</time>
      </trkpt>
      <trkpt lat="44.21905" lon="5.54988">
        <ele>775</ele>
        <time>2019-06-17T08:26:45Z</time>
      </trkpt>
      <trkpt lat="44.21903" lon="5.54982">
        <ele>775</ele>
        <time>2019-06-17T08:26:46Z</time>
      </trkpt>
      <trkpt lat="44.21901" lon="5.54976">
        <ele>775</ele>
        <time>2019-06-17T08:26:47Z</time>
      </trkpt>
      <trkpt lat="44.21899" lon="5.5497">
        <ele>775</ele>
        <time>2019-06-17T08:26:48Z</time>
      </trkpt>
      <trkpt lat="44.21896" lon="5.54964">
        <ele>776</ele>
        <time>2019-06-17T08:26:49Z</time>
      </trkpt>
      <trkpt lat="44.21894" lon="5.54957">
        <ele>776</ele>
        <time>2019-06-17T08:26:50Z</time>
      </trkpt>
      <trkpt lat="44.21892" lon="5.54951">
        <ele>776</ele>
        <time>2019-06-17T08:26:51Z</time>
      </trkpt>
      <trkpt lat="44.21889" lon="5.54945">
        <ele>776</ele>
        <time>2019-06-17T08:26:52Z</time>
      </trkpt>
      <trkpt lat="44.21887" lon="5.54938">
        <ele>776</ele>
        <time>2019-06-17T08:26:53Z</time>
      </trkpt>
      <trkpt lat="44.21884" lon="5.54931">
        <ele>776</ele>
        <time>2019-06-17T08:26:54Z</time>
      </trkpt>
      <trkpt lat="44.21882" lon="5.54925">
        <ele>777</ele>
        <time>2019-06-17T08:26:55Z</time>
      </trkpt>
      <trkpt lat="44.2188" lon="5.54919">
        <ele>777</ele>
        <time>2019-06-17T08:26:56Z</time>
      </trkpt>
      <trkpt lat="44.21877" lon="5.54913">
        <ele>777</ele>
        <time>2019-06-17T08:26:57Z</time>
      </trkpt>
      <trkpt lat="44.21875" lon="5.54907">
        <ele>777</ele>
        <time>2019-06-17T08:26:58Z</time>
      </trkpt>
      <trkpt lat="44.21873" lon="5.549">
        <ele>777</ele>
        <time>2019-06-17T08:26:59Z</time>
      </trkpt>
      <trkpt lat="44.2187" lon="5.54894">
        <ele>777</ele>
        <time>2019-06-17T08:27:00Z</time>
      </trkpt>
      <trkpt lat="44.21868" lon="5.54888">
        <ele>777</ele>
        <time>2019-06-17T08:27:01Z</time>
      </trkpt>
      <trkpt lat="44.21866" lon="5.54882">
        <ele>778</ele>
        <time>2019-06-17T08:27:02Z</time>
      </trkpt>
      <trkpt lat="44.21864" lon="5.54876">
        <ele>778</ele>
        <time>2019-06-17T08:27:03Z</time>
      </trkpt>
      <trkpt lat="44.21861" lon="5.5487">
        <ele>778</ele>
        <time>2019-06-17T08:27:04Z</time>
      </trkpt>
      <trkpt lat="44.21859" lon="5.54864">
        <ele>778</ele>
        <time>2019-06-17T08:27:05Z</time>
      </trkpt>
      <trkpt lat="44.21857" lon="5.54859">
        <ele>778</ele>
        <time>2019-06-17T08:27:06Z</time>
      </trkpt>
      <trkpt lat="44.21855" lon="5.54853">
        <ele>778</ele>
        <time>2019-06-17T08:27:07Z</time>
      </trkpt>
      <trkpt lat="44.21853" lon="5.54848">
        <ele>779</ele>
        <time>2019-06-17T08:27:08Z</time>
      </trkpt>
      <trkpt lat="44.21851" lon="5.54843">
        <ele>779</ele>
        <time>2019-06-17T08:27:09Z</time>
      </trkpt>
      <trkpt lat="44.21849" lon="5.54837">
        <ele>779</ele>
        <time>2019-06-17T08:27:10Z</time>
      </trkpt>
      <trkpt lat="44.21847" lon="5.54831">
        <ele>779</ele>
        <time>2019-06-17T08:27:11Z</time>
      </trkpt>
      <trkpt lat="44.21845" lon="5.54826">
        <ele>779</ele>
        <time>2019-06-17T08:27:12Z</time>
      </trkpt>
      <trkpt lat="44.21843" lon="5.5482">
        <ele>779</ele>
        <time>2019-06-17T08:27:13Z</time>
      </trkpt>
      <trkpt lat="44.2184" lon="5.54814">
        <ele>779</ele>
        <time>2019-06-17T08:27:14Z</time>
      </trkpt>
      <trkpt lat="44.21838" lon="5.54809">
        <ele>779</ele>
        <time>2019-06-17T08:27:15Z</time>
      </trkpt>
      <trkpt lat="44.21836" lon="5.54803">
        <ele>779</ele>
        <time>2019-06-17T08:27:16Z</time>
      </trkpt>
      <trkpt lat="44.21834" lon="5.54797">
        <ele>779</ele>
        <time>2019-06-17T08:27:17Z</time>
      </trkpt>
      <trkpt lat="44.21832" lon="5.54791">
        <ele>779</ele>
        <time>2019-06-17T08:27:18Z</time>
      </trkpt>
      <trkpt lat="44.21829" lon="5.54785">
        <ele>779</ele>
        <time>2019-06-17T08:27:19Z</time>
      </trkpt>
      <trkpt lat="44.21827" lon="5.54778">
        <ele>779</ele>
        <time>2019-06-17T08:27:20Z</time>
      </trkpt>
      <trkpt lat="44.21825" lon="5.54772">
        <ele>779</ele>
        <time>2019-06-17T08:27:21Z</time>
      </trkpt>
      <trkpt lat="44.21822" lon="5.54765">
        <ele>779</ele>
        <time>2019-06-17T08:27:22Z</time>
      </trkpt>
      <trkpt lat="44.2182" lon="5.54758">
        <ele>779</ele>
        <time>2019-06-17T08:27:23Z</time>
      </trkpt>
      <trkpt lat="44.21817" lon="5.54751">
        <ele>779</ele>
        <time>2019-06-17T08:27:24Z</time>
      </trkpt>
      <trkpt lat="44.21814" lon="5.54744">
        <ele>779</ele>
        <time>2019-06-17T08:27:25Z</time>
      </trkpt>
      <trkpt lat="44.21811" lon="5.54737">
        <ele>779</ele>
        <time>2019-06-17T08:27:26Z</time>
      </trkpt>
      <trkpt lat="44.21809" lon="5.54729">
        <ele>779</ele>
        <time>2019-06-17T08:27:27Z</time>
      </trkpt>
      <trkpt lat="44.21806" lon="5.54721">
        <ele>779</ele>
        <time>2019-06-17T08:27:28Z</time>
      </trkpt>
      <trkpt lat="44.21803" lon="5.54713">
        <ele>779</ele>
        <time>2019-06-17T08:27:29Z</time>
      </trkpt>
      <trkpt lat="44.218" lon="5.54705">
        <ele>779</ele>
        <time>2019-06-17T08:27:30Z</time>
      </trkpt>
      <trkpt lat="44.21797" lon="5.54697">
        <ele>779</ele>
        <time>2019-06-17T08:27:31Z</time>
      </trkpt>
      <trkpt lat="44.21794" lon="5.54689">
        <ele>779</ele>
        <time>2019-06-17T08:27:32Z</time>
      </trkpt>
      <trkpt lat="44.21791" lon="5.5468">
        <ele>779</ele>
        <time>2019-06-17T08:27:33Z</time>
      </trkpt>
      <trkpt lat="44.21787" lon="5.54672">
        <ele>779</ele>
        <time>2019-06-17T08:27:34Z</time>
      </trkpt>
      <trkpt lat="44.21784" lon="5.54663">
        <ele>779</ele>
        <time>2019-06-17T08:27:35Z</time>
      </trkpt>
      <trkpt lat="44.21781" lon="5.54655">
        <ele>779</ele>
        <time>2019-06-17T08:27:36Z</time>
      </trkpt>
      <trkpt lat="44.21777" lon="5.54646">
        <ele>779</ele>
        <time>2019-06-17T08:27:37Z</time>
      </trkpt>
      <trkpt lat="44.21774" lon="5.54637">
        <ele>779</ele>
        <time>2019-06-17T08:27:38Z</time>
      </trkpt>
      <trkpt lat="44.21771" lon="5.54629">
        <ele>779</ele>
        <time>2019-06-17T08:27:39Z</time>
      </trkpt>
      <trkpt lat="44.21768" lon="5.5462">
        <ele>779</ele>
        <time>2019-06-17T08:27:40Z</time>
      </trkpt>
      <trkpt lat="44.21764" lon="5.54611">
        <ele>779</ele>
        <time>2019-06-17T08:27:41Z</time>
      </trkpt>
      <trkpt lat="44.21761" lon="5.54601">
        <ele>779</ele>
        <time>2019-06-17T08:27:42Z</time>
      </trkpt>
      <trkpt lat="44.21757" lon="5.54593">
        <ele>779</ele>
        <time>2019-06-17T08:27:43Z</time>
      </trkpt>
      <trkpt lat="44.21753" lon="5.54584">
        <ele>779</ele>
        <time>2019-06-17T08:27:44Z</time>
      </trkpt>
      <trkpt lat="44.2175" lon="5.54575">
        <ele>779</ele>
        <time>2019-06-17T08:27:45Z</time>
      </trkpt>
      <trkpt lat="44.21746" lon="5.54566">
        <ele>779</ele>
        <time>2019-06-17T08:27:46Z</time>
      </trkpt>
      <trkpt lat="44.21743" lon="5.54558">
        <ele>779</ele>
        <time>2019-06-17T08:27:47Z</time>
      </trkpt>
      <trkpt lat="44.2174" lon="5.54549">
        <ele>779</ele>
        <time>2019-06-17T08:27:48Z</time>
      </trkpt>
      <trkpt lat="44.21737" lon="5.5454">
        <ele>779</ele>
        <time>2019-06-17T08:27:49Z</time>
      </trkpt>
      <trkpt lat="44.21733" lon="5.54531">
        <ele>779</ele>
        <time>2019-06-17T08:27:50Z</time>
      </trkpt>
      <trkpt lat="44.2173" lon="5.54522">
        <ele>779</ele>
        <time>2019-06-17T08:27:51Z</time>
      </trkpt>
      <trkpt lat="44.21727" lon="5.54513">
        <ele>779</ele>
        <time>2019-06-17T08:27:52Z</time>
      </trkpt>
      <trkpt lat="44.21723" lon="5.54504">
        <ele>779</ele>
        <time>2019-06-17T08:27:53Z</time>
      </trkpt>
      <trkpt lat="44.2172" lon="5.54494">
        <ele>779</ele>
        <time>2019-06-17T08:27:54Z</time>
      </trkpt>
      <trkpt lat="44.21717" lon="5.54486">
        <ele>779</ele>
        <time>2019-06-17T08:27:55Z</time>
      </trkpt>
      <trkpt lat="44.21713" lon="5.54478">
        <ele>779</ele>
        <time>2019-06-17T08:27:56Z</time>
      </trkpt>
      <trkpt lat="44.21709" lon="5.54469">
        <ele>779</ele>
        <time>2019-06-17T08:27:57Z</time>
      </trkpt>
      <trkpt lat="44.21706" lon="5.5446">
        <ele>779</ele>
        <time>2019-06-17T08:27:58Z</time>
      </trkpt>
      <trkpt lat="44.21702" lon="5.54452">
        <ele>780</ele>
        <time>2019-06-17T08:27:59Z</time>
      </trkpt>
      <trkpt lat="44.21698" lon="5.54444">
        <ele>781</ele>
        <time>2019-06-17T08:28:00Z</time>
      </trkpt>
      <trkpt lat="44.21695" lon="5.54435">
        <ele>782</ele>
        <time>2019-06-17T08:28:01Z</time>
      </trkpt>
      <trkpt lat="44.21691" lon="5.54427">
        <ele>782</ele>
        <time>2019-06-17T08:28:02Z</time>
      </trkpt>
      <trkpt lat="44.21687" lon="5.5442">
        <ele>782</ele>
        <time>2019-06-17T08:28:03Z</time>
      </trkpt>
      <trkpt lat="44.21682" lon="5.54412">
        <ele>782</ele>
        <time>2019-06-17T08:28:04Z</time>
      </trkpt>
      <trkpt lat="44.21678" lon="5.54406">
        <ele>782</ele>
        <time>2019-06-17T08:28:05Z</time>
      </trkpt>
      <trkpt lat="44.21673" lon="5.544">
        <ele>782</ele>
        <time>2019-06-17T08:28:06Z</time>
      </trkpt>
      <trkpt lat="44.21669" lon="5.54393">
        <ele>782</ele>
        <time>2019-06-17T08:28:07Z</time>
      </trkpt>
      <trkpt lat="44.21664" lon="5.54388">
        <ele>782</ele>
        <time>2019-06-17T08:28:08Z</time>
      </trkpt>
      <trkpt lat="44.21658" lon="5.54383">
        <ele>783</ele>
        <time>2019-06-17T08:28:09Z</time>
      </trkpt>
      <trkpt lat="44.21653" lon="5.54378">
        <ele>783</ele>
        <time>2019-06-17T08:28:10Z</time>
      </trkpt>
      <trkpt lat="44.21648" lon="5.54374">
        <ele>783</ele>
        <time>2019-06-17T08:28:11Z</time>
      </trkpt>
      <trkpt lat="44.21642" lon="5.5437">
        <ele>783</ele>
        <time>2019-06-17T08:28:12Z</time>
      </trkpt>
      <trkpt lat="44.21637" lon="5.54366">
        <ele>783</ele>
        <time>2019-06-17T08:28:13Z</time>
      </trkpt>
      <trkpt lat="44.21631" lon="5.54363">
        <ele>783</ele>
        <time>2019-06-17T08:28:14Z</time>
      </trkpt>
      <trkpt lat="44.21625" lon="5.54361">
        <ele>783</ele>
        <time>2019-06-17T08:28:15Z</time>
      </trkpt>
      <trkpt lat="44.21619" lon="5.54358">
        <ele>783</ele>
        <time>2019-06-17T08:28:16Z</time>
      </trkpt>
      <trkpt lat="44.21614" lon="5.54356">
        <ele>783</ele>
        <time>2019-06-17T08:28:17Z</time>
      </trkpt>
      <trkpt lat="44.21608" lon="5.54353">
        <ele>783</ele>
        <time>2019-06-17T08:28:18Z</time>
      </trkpt>
      <trkpt lat="44.21602" lon="5.5435">
        <ele>783</ele>
        <time>2019-06-17T08:28:19Z</time>
      </trkpt>
      <trkpt lat="44.21596" lon="5.54347">
        <ele>783</ele>
        <time>2019-06-17T08:28:20Z</time>
      </trkpt>
      <trkpt lat="44.21591" lon="5.54343">
        <ele>783</ele>
        <time>2019-06-17T08:28:21Z</time>
      </trkpt>
      <trkpt lat="44.21586" lon="5.54339">
        <ele>783</ele>
        <time>2019-06-17T08:28:22Z</time>
      </trkpt>
      <trkpt lat="44.21581" lon="5.54334">
        <ele>783</ele>
        <time>2019-06-17T08:28:23Z</time>
      </trkpt>
      <trkpt lat="44.21575" lon="5.5433">
        <ele>783</ele>
        <time>2019-06-17T08:28:24Z</time>
      </trkpt>
      <trkpt lat="44.21569" lon="5.54326">
        <ele>783</ele>
        <time>2019-06-17T08:28:25Z</time>
      </trkpt>
      <trkpt lat="44.21564" lon="5.54321">
        <ele>783</ele>
        <time>2019-06-17T08:28:26Z</time>
      </trkpt>
      <trkpt lat="44.2156" lon="5.54316">
        <ele>783</ele>
        <time>2019-06-17T08:28:27Z</time>
      </trkpt>
      <trkpt lat="44.21555" lon="5.5431">
        <ele>783</ele>
        <time>2019-06-17T08:28:28Z</time>
      </trkpt>
      <trkpt lat="44.2155" lon="5.54305">
        <ele>783</ele>
        <time>2019-06-17T08:28:29Z</time>
      </trkpt>
      <trkpt lat="44.21545" lon="5.543">
        <ele>783</ele>
        <time>2019-06-17T08:28:30Z</time>
      </trkpt>
      <trkpt lat="44.2154" lon="5.54294">
        <ele>783</ele>
        <time>2019-06-17T08:28:31Z</time>
      </trkpt>
      <trkpt lat="44.21536" lon="5.54289">
        <ele>783</ele>
        <time>2019-06-17T08:28:32Z</time>
      </trkpt>
      <trkpt lat="44.21531" lon="5.54283">
        <ele>783</ele>
        <time>2019-06-17T08:28:33Z</time>
      </trkpt>
      <trkpt lat="44.21526" lon="5.54278">
        <ele>783</ele>
        <time>2019-06-17T08:28:34Z</time>
      </trkpt>
      <trkpt lat="44.21521" lon="5.54272">
        <ele>783</ele>
        <time>2019-06-17T08:28:35Z</time>
      </trkpt>
      <trkpt lat="44.21516" lon="5.54267">
        <ele>783</ele>
        <time>2019-06-17T08:28:36Z</time>
      </trkpt>
      <trkpt lat="44.21512" lon="5.54261">
        <ele>783</ele>
        <time>2019-06-17T08:28:37Z</time>
      </trkpt>
      <trkpt lat="44.21507" lon="5.54255">
        <ele>783</ele>
        <time>2019-06-17T08:28:38Z</time>
      </trkpt>
      <trkpt lat="44.21502" lon="5.5425">
        <ele>783</ele>
        <time>2019-06-17T08:28:39Z</time>
      </trkpt>
      <trkpt lat="44.21497" lon="5.54245">
        <ele>783</ele>
        <time>2019-06-17T08:28:40Z</time>
      </trkpt>
      <trkpt lat="44.21492" lon="5.54239">
        <ele>783</ele>
        <time>2019-06-17T08:28:41Z</time>
      </trkpt>
      <trkpt lat="44.21486" lon="5.54234">
        <ele>783</ele>
        <time>2019-06-17T08:28:42Z</time>
      </trkpt>
      <trkpt lat="44.21481" lon="5.54228">
        <ele>783</ele>
        <time>2019-06-17T08:28:43Z</time>
      </trkpt>
      <trkpt lat="44.21476" lon="5.54223">
        <ele>783</ele>
        <time>2019-06-17T08:28:44Z</time>
      </trkpt>
      <trkpt lat="44.21471" lon="5.54217">
        <ele>783</ele>
        <time>2019-06-17T08:28:45Z</time>
      </trkpt>
      <trkpt lat="44.21466" lon="5.54211">
        <ele>783</ele>
        <time>2019-06-17T08:28:46Z</time>
      </trkpt>
      <trkpt lat="44.21461" lon="5.54205">
        <ele>783</ele>
        <time>2019-06-17T08:28:47Z</time>
      </trkpt>
      <trkpt lat="44.21456" lon="5.54199">
        <ele>783</ele>
        <time>2019-06-17T08:28:48Z</time>
      </trkpt>
      <trkpt lat="44.21451" lon="5.54192">
        <ele>783</ele>
        <time>2019-06-17T08:28:49Z</time>
      </trkpt>
      <trkpt lat="44.21446" lon="5.54186">
        <ele>783</ele>
        <time>2019-06-17T08:28:50Z</time>
      </trkpt>
      <trkpt lat="44.21441" lon="5.54181">
        <ele>783</ele>
        <time>2019-06-17T08:28:51Z</time>
      </trkpt>
      <trkpt lat="44.21436" lon="5.54175">
        <ele>783</ele>
        <time>2019-06-17T08:28:52Z</time>
      </trkpt>
      <trkpt lat="44.21431" lon="5.5417">
        <ele>783</ele>
        <time>2019-06-17T08:28:53Z</time>
      </trkpt>
      <trkpt lat="44.21426" lon="5.54164">
        <ele>783</ele>
        <time>2019-06-17T08:28:54Z</time>
      </trkpt>
      <trkpt lat="44.21421" lon="5.54158">
        <ele>783</ele>
        <time>2019-06-17T08:28:55Z</time>
      </trkpt>
      <trkpt lat="44.21416" lon="5.54153">
        <ele>783</ele>
        <time>2019-06-17T08:28:56Z</time>
      </trkpt>
      <trkpt lat="44.21412" lon="5.54147">
        <ele>783</ele>
        <time>2019-06-17T08:28:57Z</time>
      </trkpt>
      <trkpt lat="44.21407" lon="5.54142">
        <ele>783</ele>
        <time>2019-06-17T08:28:58Z</time>
      </trkpt>
      <trkpt lat="44.21402" lon="5.54136">
        <ele>783</ele>
        <time>2019-06-17T08:28:59Z</time>
      </trkpt>
      <trkpt lat="44.21397" lon="5.54131">
        <ele>783</ele>
        <time>2019-06-17T08:29:00Z</time>
      </trkpt>
      <trkpt lat="44.21392" lon="5.54125">
        <ele>783</ele>
        <time>2019-06-17T08:29:01Z</time>
      </trkpt>
      <trkpt lat="44.21388" lon="5.5412">
        <ele>783</ele>
        <time>2019-06-17T08:29:02Z</time>
      </trkpt>
      <trkpt lat="44.21383" lon="5.54114">
        <ele>783</ele>
        <time>2019-06-17T08:29:03Z</time>
      </trkpt>
      <trkpt lat="44.21378" lon="5.54109">
        <ele>783</ele>
        <time>2019-06-17T08:29:04Z</time>
      </trkpt>
      <trkpt lat="44.21374" lon="5.54104">
        <ele>783</ele>
        <time>2019-06-17T08:29:05Z</time>
      </trkpt>
      <trkpt lat="44.21369" lon="5.54098">
        <ele>783</ele>
        <time>2019-06-17T08:29:06Z</time>
      </trkpt>
      <trkpt lat="44.21365" lon="5.54093">
        <ele>783</ele>
        <time>2019-06-17T08:29:07Z</time>
      </trkpt>
      <trkpt lat="44.2136" lon="5.54087">
        <ele>783</ele>
        <time>2019-06-17T08:29:08Z</time>
      </trkpt>
      <trkpt lat="44.21355" lon="5.54082">
        <ele>783</ele>
        <time>2019-06-17T08:29:09Z</time>
      </trkpt>
      <trkpt lat="44.21351" lon="5.54077">
        <ele>783</ele>
        <time>2019-06-17T08:29:10Z</time>
      </trkpt>
      <trkpt lat="44.21346" lon="5.54072">
        <ele>783</ele>
        <time>2019-06-17T08:29:11Z</time>
      </trkpt>
      <trkpt lat="44.21342" lon="5.54067">
        <ele>783</ele>
        <time>2019-06-17T08:29:12Z</time>
      </trkpt>
      <trkpt lat="44.21337" lon="5.54062">
        <ele>783</ele>
        <time>2019-06-17T08:29:13Z</time>
      </trkpt>
      <trkpt lat="44.21332" lon="5.54057">
        <ele>783</ele>
        <time>2019-06-17T08:29:14Z</time>
      </trkpt>
      <trkpt lat="44.21327" lon="5.54052">
        <ele>783</ele>
        <time>2019-06-17T08:29:15Z</time>
      </trkpt>
      <trkpt lat="44.21323" lon="5.54048">
        <ele>783</ele>
        <time>2019-06-17T08:29:16Z</time>
      </trkpt>
      <trkpt lat="44.21318" lon="5.54044">
        <ele>783</ele>
        <time>2019-06-17T08:29:17Z</time>
      </trkpt>
      <trkpt lat="44.21313" lon="5.5404">
        <ele>783</ele>
        <time>2019-06-17T08:29:18Z</time>
      </trkpt>
      <trkpt lat="44.21308" lon="5.54036">
        <ele>783</ele>
        <time>2019-06-17T08:29:19Z</time>
      </trkpt>
      <trkpt lat="44.21303" lon="5.54033">
        <ele>783</ele>
        <time>2019-06-17T08:29:20Z</time>
      </trkpt>
      <trkpt lat="44.21298" lon="5.54029">
        <ele>783</ele>
        <time>2019-06-17T08:29:21Z</time>
      </trkpt>
      <trkpt lat="44.21293" lon="5.54025">
        <ele>783</ele>
        <time>2019-06-17T08:29:22Z</time>
      </trkpt>
      <trkpt lat="44.21288" lon="5.54022">
        <ele>783</ele>
        <time>2019-06-17T08:29:23Z</time>
      </trkpt>
      <trkpt lat="44.21283" lon="5.54018">
        <ele>784</ele>
        <time>2019-06-17T08:29:24Z</time>
      </trkpt>
      <trkpt lat="44.21278" lon="5.54015">
        <ele>784</ele>
        <time>2019-06-17T08:29:25Z</time>
      </trkpt>
      <trkpt lat="44.21273" lon="5.54012">
        <ele>784</ele>
        <time>2019-06-17T08:29:26Z</time>
      </trkpt>
      <trkpt lat="44.21268" lon="5.54009">
        <ele>784</ele>
        <time>2019-06-17T08:29:27Z</time>
      </trkpt>
      <trkpt lat="44.21263" lon="5.54006">
        <ele>784</ele>
        <time>2019-06-17T08:29:28Z</time>
      </trkpt>
      <trkpt lat="44.21257" lon="5.54003">
        <ele>784</ele>
        <time>2019-06-17T08:29:29Z</time>
      </trkpt>
      <trkpt lat="44.21252" lon="5.54">
        <ele>784</ele>
        <time>2019-06-17T08:29:30Z</time>
      </trkpt>
      <trkpt lat="44.21247" lon="5.53997">
        <ele>784</ele>
        <time>2019-06-17T08:29:31Z</time>
      </trkpt>
      <trkpt lat="44.21242" lon="5.53994">
        <ele>784</ele>
        <time>2019-06-17T08:29:32Z</time>
      </trkpt>
      <trkpt lat="44.21237" lon="5.53991">
        <ele>784</ele>
        <time>2019-06-17T08:29:33Z</time>
      </trkpt>
      <trkpt lat="44.21231" lon="5.53988">
        <ele>785</ele>
        <time>2019-06-17T08:29:34Z</time>
      </trkpt>
      <trkpt lat="44.21226" lon="5.53985">
        <ele>785</ele>
        <time>2019-06-17T08:29:35Z</time>
      </trkpt>
      <trkpt lat="44.21221" lon="5.53982">
        <ele>785</ele>
        <time>2019-06-17T08:29:36Z</time>
      </trkpt>
      <trkpt lat="44.21215" lon="5.5398">
        <ele>785</ele>
        <time>2019-06-17T08:29:37Z</time>
      </trkpt>
      <trkpt lat="44.2121" lon="5.53977">
        <ele>785</ele>
        <time>2019-06-17T08:29:38Z</time>
      </trkpt>
      <trkpt lat="44.21205" lon="5.53974">
        <ele>785</ele>
        <time>2019-06-17T08:29:39Z</time>
      </trkpt>
      <trkpt lat="44.21199" lon="5.53971">
        <ele>785</ele>
        <time>2019-06-17T08:29:40Z</time>
      </trkpt>
      <trkpt lat="44.21194" lon="5.53968">
        <ele>785</ele>
        <time>2019-06-17T08:29:41Z</time>
      </trkpt>
      <trkpt lat="44.21188" lon="5.53966">
        <ele>785</ele>
        <time>2019-06-17T08:29:42Z</time>
      </trkpt>
      <trkpt lat="44.21183" lon="5.53963">
        <ele>785</ele>
        <time>2019-06-17T08:29:43Z</time>
      </trkpt>
      <trkpt lat="44.21178" lon="5.53959">
        <ele>785</ele>
        <time>2019-06-17T08:29:44Z</time>
      </trkpt>
      <trkpt lat="44.21172" lon="5.53956">
        <ele>785</ele>
        <time>2019-06-17T08:29:45Z</time>
      </trkpt>
      <trkpt lat="44.21167" lon="5.53953">
        <ele>786</ele>
        <time>2019-06-17T08:29:46Z</time>
      </trkpt>
      <trkpt lat="44.21162" lon="5.5395">
        <ele>786</ele>
        <time>2019-06-17T08:29:47Z</time>
      </trkpt>
      <trkpt lat="44.21156" lon="5.53947">
        <ele>786</ele>
        <time>2019-06-17T08:29:48Z</time>
      </trkpt>
      <trkpt lat="44.21152" lon="5.53944">
        <ele>786</ele>
        <time>2019-06-17T08:29:49Z</time>
      </trkpt>
      <trkpt lat="44.21147" lon="5.53941">
        <ele>786</ele>
        <time>2019-06-17T08:29:50Z</time>
      </trkpt>
      <trkpt lat="44.21142" lon="5.53939">
        <ele>786</ele>
        <time>2019-06-17T08:29:51Z</time>
      </trkpt>
      <trkpt lat="44.21137" lon="5.53936">
        <ele>786</ele>
        <time>2019-06-17T08:29:52Z</time>
      </trkpt>
      <trkpt lat="44.21132" lon="5.53934">
        <ele>786</ele>
        <time>2019-06-17T08:29:53Z</time>
      </trkpt>
      <trkpt lat="44.21127" lon="5.53932">
        <ele>786</ele>
        <time>2019-06-17T08:29:54Z</time>
      </trkpt>
      <trkpt lat="44.21122" lon="5.53929">
        <ele>786</ele>
        <time>2019-06-17T08:29:55Z</time>
      </trkpt>
      <trkpt lat="44.21118" lon="5.53927">
        <ele>786</ele>
        <time>2019-06-17T08:29:56Z</time>
      </trkpt>
      <trkpt lat="44.21114" lon="5.53924">
        <ele>787</ele>
        <time>2019-06-17T08:29:57Z</time>
      </trkpt>
      <trkpt lat="44.21109" lon="5.53922">
        <ele>787</ele>
        <time>2019-06-17T08:29:58Z</time>
      </trkpt>
      <trkpt lat="44.21105" lon="5.53919">
        <ele>787</ele>
        <time>2019-06-17T08:29:59Z</time>
      </trkpt>
      <trkpt lat="44.21101" lon="5.53916">
        <ele>787</ele>
        <time>2019-06-17T08:30:00Z</time>
      </trkpt>
      <trkpt lat="44.21096" lon="5.53913">
        <ele>787</ele>
        <time>2019-06-17T08:30:01Z</time>
      </trkpt>
      <trkpt lat="44.21092" lon="5.5391">
        <ele>787</ele>
        <time>2019-06-17T08:30:02Z</time>
      </trkpt>
      <trkpt lat="44.21087" lon="5.53908">
        <ele>787</ele>
        <time>2019-06-17T08:30:03Z</time>
      </trkpt>
      <trkpt lat="44.21083" lon="5.53905">
        <ele>787</ele>
        <time>2019-06-17T08:30:04Z</time>
      </trkpt>
      <trkpt lat="44.21078" lon="5.53902">
        <ele>787</ele>
        <time>2019-06-17T08:30:05Z</time>
      </trkpt>
      <trkpt lat="44.21074" lon="5.53899">
        <ele>787</ele>
        <time>2019-06-17T08:30:06Z</time>
      </trkpt>
      <trkpt lat="44.21069" lon="5.53896">
        <ele>787</ele>
        <time>2019-06-17T08:30:07Z</time>
      </trkpt>
      <trkpt lat="44.21064" lon="5.53893">
        <ele>787</ele>
        <time>2019-06-17T08:30:08Z</time>
      </trkpt>
      <trkpt lat="44.21059" lon="5.5389">
        <ele>787</ele>
        <time>2019-06-17T08:30:09Z</time>
      </trkpt>
      <trkpt lat="44.21055" lon="5.53886">
        <ele>787</ele>
        <time>2019-06-17T08:30:10Z</time>
      </trkpt>
      <trkpt lat="44.2105" lon="5.53882">
        <ele>788</ele>
        <time>2019-06-17T08:30:11Z</time>
      </trkpt>
      <trkpt lat="44.21046" lon="5.53878">
        <ele>788</ele>
        <time>2019-06-17T08:30:12Z</time>
      </trkpt>
      <trkpt lat="44.21041" lon="5.53874">
        <ele>788</ele>
        <time>2019-06-17T08:30:13Z</time>
      </trkpt>
      <trkpt lat="44.21037" lon="5.53869">
        <ele>788</ele>
        <time>2019-06-17T08:30:14Z</time>
      </trkpt>
      <trkpt lat="44.21032" lon="5.53865">
        <ele>789</ele>
        <time>2019-06-17T08:30:15Z</time>
      </trkpt>
      <trkpt lat="44.21028" lon="5.53861">
        <ele>789</ele>
        <time>2019-06-17T08:30:16Z</time>
      </trkpt>
      <trkpt lat="44.21023" lon="5.53856">
        <ele>789</ele>
        <time>2019-06-17T08:30:17Z</time>
      </trkpt>
      <trkpt lat="44.21019" lon="5.53851">
        <ele>790</ele>
        <time>2019-06-17T08:30:18Z</time>
      </trkpt>
      <trkpt lat="44.21015" lon="5.53846">
        <ele>790</ele>
        <time>2019-06-17T08:30:19Z</time>
      </trkpt>
      <trkpt lat="44.21011" lon="5.5384">
        <ele>790</ele>
        <time>2019-06-17T08:30:20Z</time>
      </trkpt>
      <trkpt lat="44.21006" lon="5.53835">
        <ele>790</ele>
        <time>2019-06-17T08:30:21Z</time>
      </trkpt>
      <trkpt lat="44.21003" lon="5.53829">
        <ele>791</ele>
        <time>2019-06-17T08:30:22Z</time>
      </trkpt>
      <trkpt lat="44.20998" lon="5.53823">
        <ele>791</ele>
        <time>2019-06-17T08:30:23Z</time>
      </trkpt>
      <trkpt lat="44.20995" lon="5.53817">
        <ele>791</ele>
        <time>2019-06-17T08:30:24Z</time>
      </trkpt>
      <trkpt lat="44.2099" lon="5.53811">
        <ele>791</ele>
        <time>2019-06-17T08:30:25Z</time>
      </trkpt>
      <trkpt lat="44.20987" lon="5.53805">
        <ele>792</ele>
        <time>2019-06-17T08:30:26Z</time>
      </trkpt>
      <trkpt lat="44.20983" lon="5.53798">
        <ele>792</ele>
        <time>2019-06-17T08:30:27Z</time>
      </trkpt>
      <trkpt lat="44.20979" lon="5.53792">
        <ele>792</ele>
        <time>2019-06-17T08:30:28Z</time>
      </trkpt>
      <trkpt lat="44.20976" lon="5.53784">
        <ele>792</ele>
        <time>2019-06-17T08:30:29Z</time>
      </trkpt>
      <trkpt lat="44.20973" lon="5.53777">
        <ele>792</ele>
        <time>2019-06-17T08:30:30Z</time>
      </trkpt>
      <trkpt lat="44.2097" lon="5.53769">
        <ele>793</ele>
        <time>2019-06-17T08:30:31Z</time>
      </trkpt>
      <trkpt lat="44.20967" lon="5.53762">
        <ele>793</ele>
        <time>2019-06-17T08:30:32Z</time>
      </trkpt>
      <trkpt lat="44.20964" lon="5.53755">
        <ele>793</ele>
        <time>2019-06-17T08:30:33Z</time>
      </trkpt>
      <trkpt lat="44.20961" lon="5.53747">
        <ele>793</ele>
        <time>2019-06-17T08:30:34Z</time>
      </trkpt>
      <trkpt lat="44.20958" lon="5.5374">
        <ele>793</ele>
        <time>2019-06-17T08:30:35Z</time>
      </trkpt>
      <trkpt lat="44.20956" lon="5.53732">
        <ele>793</ele>
        <time>2019-06-17T08:30:36Z</time>
      </trkpt>
      <trkpt lat="44.20953" lon="5.53724">
        <ele>794</ele>
        <time>2019-06-17T08:30:37Z</time>
      </trkpt>
      <trkpt lat="44.2095" lon="5.53717">
        <ele>794</ele>
        <time>2019-06-17T08:30:38Z</time>
      </trkpt>
      <trkpt lat="44.20948" lon="5.53709">
        <ele>794</ele>
        <time>2019-06-17T08:30:39Z</time>
      </trkpt>
      <trkpt lat="44.20945" lon="5.53701">
        <ele>794</ele>
        <time>2019-06-17T08:30:40Z</time>
      </trkpt>
      <trkpt lat="44.20942" lon="5.53694">
        <ele>794</ele>
        <time>2019-06-17T08:30:41Z</time>
      </trkpt>
      <trkpt lat="44.20939" lon="5.53686">
        <ele>794</ele>
        <time>2019-06-17T08:30:42Z</time>
      </trkpt>
      <trkpt lat="44.20935" lon="5.53679">
        <ele>794</ele>
        <time>2019-06-17T08:30:43Z</time>
      </trkpt>
      <trkpt lat="44.20932" lon="5.53672">
        <ele>794</ele>
        <time>2019-06-17T08:30:44Z</time>
      </trkpt>
      <trkpt lat="44.20929" lon="5.53664">
        <ele>794</ele>
        <time>2019-06-17T08:30:45Z</time>
      </trkpt>
      <trkpt lat="44.20924" lon="5.53658">
        <ele>794</ele>
        <time>2019-06-17T08:30:46Z</time>
      </trkpt>
      <trkpt lat="44.20919" lon="5.53652">
        <ele>794</ele>
        <time>2019-06-17T08:30:47Z</time>
      </trkpt>
      <trkpt lat="44.20914" lon="5.53648">
        <ele>794</ele>
        <time>2019-06-17T08:30:48Z</time>
      </trkpt>
      <trkpt lat="44.20907" lon="5.53645">
        <ele>794</ele>
        <time>2019-06-17T08:30:49Z</time>
      </trkpt>
      <trkpt lat="44.20901" lon="5.53643">
        <ele>794</ele>
        <time>2019-06-17T08:30:50Z</time>
      </trkpt>
      <trkpt lat="44.20894" lon="5.53642">
        <ele>794</ele>
        <time>2019-06-17T08:30:51Z</time>
      </trkpt>
      <trkpt lat="44.20887" lon="5.53642">
        <ele>794</ele>
        <time>2019-06-17T08:30:52Z</time>
      </trkpt>
      <trkpt lat="44.20881" lon="5.53643">
        <ele>794</ele>
        <time>2019-06-17T08:30:53Z</time>
      </trkpt>
      <trkpt lat="44.20874" lon="5.53644">
        <ele>794</ele>
        <time>2019-06-17T08:30:54Z</time>
      </trkpt>
      <trkpt lat="44.20867" lon="5.53645">
        <ele>794</ele>
        <time>2019-06-17T08:30:55Z</time>
      </trkpt>
      <trkpt lat="44.2086" lon="5.53647">
        <ele>794</ele>
        <time>2019-06-17T08:30:56Z</time>
      </trkpt>
      <trkpt lat="44.20853" lon="5.53648">
        <ele>794</ele>
        <time>2019-06-17T08:30:57Z</time>
      </trkpt>
      <trkpt lat="44.20847" lon="5.5365">
        <ele>794</ele>
        <time>2019-06-17T08:30:58Z</time>
      </trkpt>
      <trkpt lat="44.2084" lon="5.53652">
        <ele>794</ele>
        <time>2019-06-17T08:30:59Z</time>
      </trkpt>
      <trkpt lat="44.20833" lon="5.53653">
        <ele>794</ele>
        <time>2019-06-17T08:31:00Z</time>
      </trkpt>
      <trkpt lat="44.20827" lon="5.53655">
        <ele>794</ele>
        <time>2019-06-17T08:31:01Z</time>
      </trkpt>
      <trkpt lat="44.2082" lon="5.53657">
        <ele>794</ele>
        <time>2019-06-17T08:31:02Z</time>
      </trkpt>
      <trkpt lat="44.20813" lon="5.53659">
        <ele>794</ele>
        <time>2019-06-17T08:31:03Z</time>
      </trkpt>
      <trkpt lat="44.20807" lon="5.5366">
        <ele>794</ele>
        <time>2019-06-17T08:31:04Z</time>
      </trkpt>
      <trkpt lat="44.20801" lon="5.53661">
        <ele>794</ele>
        <time>2019-06-17T08:31:05Z</time>
      </trkpt>
      <trkpt lat="44.20795" lon="5.53661">
        <ele>794</ele>
        <time>2019-06-17T08:31:06Z</time>
      </trkpt>
      <trkpt lat="44.20789" lon="5.53662">
        <ele>794</ele>
        <time>2019-06-17T08:31:07Z</time>
      </trkpt>
      <trkpt lat="44.20783" lon="5.53661">
        <ele>794</ele>
        <time>2019-06-17T08:31:08Z</time>
      </trkpt>
      <trkpt lat="44.20777" lon="5.5366">
        <ele>794</ele>
        <time>2019-06-17T08:31:09Z</time>
      </trkpt>
      <trkpt lat="44.20771" lon="5.53659">
        <ele>794</ele>
        <time>2019-06-17T08:31:10Z</time>
      </trkpt>
      <trkpt lat="44.20765" lon="5.53657">
        <ele>794</ele>
        <time>2019-06-17T08:31:11Z</time>
      </trkpt>
      <trkpt lat="44.2076" lon="5.53655">
        <ele>794</ele>
        <time>2019-06-17T08:31:12Z</time>
      </trkpt>
      <trkpt lat="44.20755" lon="5.53653">
        <ele>794</ele>
        <time>2019-06-17T08:31:13Z</time>
      </trkpt>
      <trkpt lat="44.20749" lon="5.53652">
        <ele>794</ele>
        <time>2019-06-17T08:31:14Z</time>
      </trkpt>
      <trkpt lat="44.20744" lon="5.5365">
        <ele>794</ele>
        <time>2019-06-17T08:31:15Z</time>
      </trkpt>
      <trkpt lat="44.20739" lon="5.53648">
        <ele>794</ele>
        <time>2019-06-17T08:31:16Z</time>
      </trkpt>
      <trkpt lat="44.20734" lon="5.53647">
        <ele>794</ele>
        <time>2019-06-17T08:31:17Z</time>
      </trkpt>
      <trkpt lat="44.20729" lon="5.53646">
        <ele>794</ele>
        <time>2019-06-17T08:31:18Z</time>
      </trkpt>
      <trkpt lat="44.20724" lon="5.53645">
        <ele>794</ele>
        <time>2019-06-17T08:31:19Z</time>
      </trkpt>
      <trkpt lat="44.20719" lon="5.53643">
        <ele>794</ele>
        <time>2019-06-17T08:31:20Z</time>
      </trkpt>
      <trkpt lat="44.20714" lon="5.53643">
        <ele>794</ele>
        <time>2019-06-17T08:31:21Z</time>
      </trkpt>
      <trkpt lat="44.20709" lon="5.53642">
        <ele>794</ele>
        <time>2019-06-17T08:31:22Z</time>
      </trkpt>
      <trkpt lat="44.20704" lon="5.53642">
        <ele>794</ele>
        <time>2019-06-17T08:31:23Z</time>
      </trkpt>
      <trkpt lat="44.20699" lon="5.53641">
        <ele>794</ele>
        <time>2019-06-17T08:31:24Z</time>
      </trkpt>
      <trkpt lat="44.20694" lon="5.53641">
        <ele>794</ele>
        <time>2019-06-17T08:31:25Z</time>
      </trkpt>
      <trkpt lat="44.20688" lon="5.53641">
        <ele>794</ele>
        <time>2019-06-17T08:31:26Z</time>
      </trkpt>
      <trkpt lat="44.20683" lon="5.53642">
        <ele>794</ele>
        <time>2019-06-17T08:31:27Z</time>
      </trkpt>
      <trkpt lat="44.20677" lon="5.53643">
        <ele>794</ele>
        <time>2019-06-17T08:31:28Z</time>
      </trkpt>
      <trkpt lat="44.20672" lon="5.53644">
        <ele>794</ele>
        <time>2019-06-17T08:31:29Z</time>
      </trkpt>
      <trkpt lat="44.20666" lon="5.53645">
        <ele>794</ele>
        <time>2019-06-17T08:31:30Z</time>
      </trkpt>
      <trkpt lat="44.20661" lon="5.53646">
        <ele>794</ele>
        <time>2019-06-17T08:31:31Z</time>
      </trkpt>
      <trkpt lat="44.20655" lon="5.53648">
        <ele>794</ele>
        <time>2019-06-17T08:31:32Z</time>
      </trkpt>
      <trkpt lat="44.2065" lon="5.5365">
        <ele>793</ele>
        <time>2019-06-17T08:31:33Z</time>
      </trkpt>
      <trkpt lat="44.20644" lon="5.53652">
        <ele>792</ele>
        <time>2019-06-17T08:31:34Z</time>
      </trkpt>
      <trkpt lat="44.20639" lon="5.53655">
        <ele>792</ele>
        <time>2019-06-17T08:31:35Z</time>
      </trkpt>
      <trkpt lat="44.20633" lon="5.53657">
        <ele>792</ele>
        <time>2019-06-17T08:31:36Z</time>
      </trkpt>
      <trkpt lat="44.20628" lon="5.5366">
        <ele>792</ele>
        <time>2019-06-17T08:31:37Z</time>
      </trkpt>
      <trkpt lat="44.20622" lon="5.53663">
        <ele>792</ele>
        <time>2019-06-17T08:31:38Z</time>
      </trkpt>
      <trkpt lat="44.20616" lon="5.53665">
        <ele>792</ele>
        <time>2019-06-17T08:31:39Z</time>
      </trkpt>
      <trkpt lat="44.20611" lon="5.53667">
        <ele>792</ele>
        <time>2019-06-17T08:31:40Z</time>
      </trkpt>
      <trkpt lat="44.20605" lon="5.5367">
        <ele>792</ele>
        <time>2019-06-17T08:31:41Z</time>
      </trkpt>
      <trkpt lat="44.20599" lon="5.53673">
        <ele>792</ele>
        <time>2019-06-17T08:31:42Z</time>
      </trkpt>
      <trkpt lat="44.20594" lon="5.53676">
        <ele>792</ele>
        <time>2019-06-17T08:31:43Z</time>
      </trkpt>
      <trkpt lat="44.20589" lon="5.53678">
        <ele>793</ele>
        <time>2019-06-17T08:31:44Z</time>
      </trkpt>
      <trkpt lat="44.20584" lon="5.5368">
        <ele>794</ele>
        <time>2019-06-17T08:31:45Z</time>
      </trkpt>
      <trkpt lat="44.20579" lon="5.53683">
        <ele>795</ele>
        <time>2019-06-17T08:31:46Z</time>
      </trkpt>
      <trkpt lat="44.20574" lon="5.53685">
        <ele>795</ele>
        <time>2019-06-17T08:31:47Z</time>
      </trkpt>
      <trkpt lat="44.2057" lon="5.53686">
        <ele>796</ele>
        <time>2019-06-17T08:31:48Z</time>
      </trkpt>
      <trkpt lat="44.20565" lon="5.53687">
        <ele>796</ele>
        <time>2019-06-17T08:31:49Z</time>
      </trkpt>
      <trkpt lat="44.20559" lon="5.53687">
        <ele>796</ele>
        <time>2019-06-17T08:31:50Z</time>
      </trkpt>
      <trkpt lat="44.20555" lon="5.53688">
        <ele>796</ele>
        <time>2019-06-17T08:31:51Z</time>
      </trkpt>
      <trkpt lat="44.2055" lon="5.53687">
        <ele>796</ele>
        <time>2019-06-17T08:31:52Z</time>
      </trkpt>
      <trkpt lat="44.20545" lon="5.53684">
        <ele>796</ele>
        <time>2019-06-17T08:31:53Z</time>
      </trkpt>
      <trkpt lat="44.2054" lon="5.53682">
        <ele>796</ele>
        <time>2019-06-17T08:31:54Z</time>
      </trkpt>
      <trkpt lat="44.20536" lon="5.53679">
        <ele>796</ele>
        <time>2019-06-17T08:31:55Z</time>
      </trkpt>
      <trkpt lat="44.2053" lon="5.53677">
        <ele>797</ele>
        <time>2019-06-17T08:31:56Z</time>
      </trkpt>
      <trkpt lat="44.20525" lon="5.53676">
        <ele>797</ele>
        <time>2019-06-17T08:31:57Z</time>
      </trkpt>
      <trkpt lat="44.20521" lon="5.53675">
        <ele>798</ele>
        <time>2019-06-17T08:31:58Z</time>
      </trkpt>
      <trkpt lat="44.20517" lon="5.53673">
        <ele>799</ele>
        <time>2019-06-17T08:31:59Z</time>
      </trkpt>
      <trkpt lat="44.20513" lon="5.5367">
        <ele>800</ele>
        <time>2019-06-17T08:32:00Z</time>
      </trkpt>
      <trkpt lat="44.20509" lon="5.53666">
        <ele>801</ele>
        <time>2019-06-17T08:32:01Z</time>
      </trkpt>
      <trkpt lat="44.20505" lon="5.53663">
        <ele>802</ele>
        <time>2019-06-17T08:32:02Z</time>
      </trkpt>
      <trkpt lat="44.20501" lon="5.5366">
        <ele>802</ele>
        <time>2019-06-17T08:32:03Z</time>
      </trkpt>
      <trkpt lat="44.20499" lon="5.53657">
        <ele>802</ele>
        <time>2019-06-17T08:32:04Z</time>
      </trkpt>
      <trkpt lat="44.20496" lon="5.53654">
        <ele>802</ele>
        <time>2019-06-17T08:32:05Z</time>
      </trkpt>
      <trkpt lat="44.20493" lon="5.53652">
        <ele>802</ele>
        <time>2019-06-17T08:32:06Z</time>
      </trkpt>
      <trkpt lat="44.2049" lon="5.53649">
        <ele>802</ele>
        <time>2019-06-17T08:32:07Z</time>
      </trkpt>
      <trkpt lat="44.20487" lon="5.53648">
        <ele>802</ele>
        <time>2019-06-17T08:32:08Z</time>
      </trkpt>
      <trkpt lat="44.20483" lon="5.53646">
        <ele>802</ele>
        <time>2019-06-17T08:32:09Z</time>
      </trkpt>
      <trkpt lat="44.2048" lon="5.53646">
        <ele>802</ele>
        <time>2019-06-17T08:32:10Z</time>
      </trkpt>
      <trkpt lat="44.20476" lon="5.53645">
        <ele>803</ele>
        <time>2019-06-17T08:32:11Z</time>
      </trkpt>
      <trkpt lat="44.20473" lon="5.53643">
        <ele>804</ele>
        <time>2019-06-17T08:32:12Z</time>
      </trkpt>
      <trkpt lat="44.2047" lon="5.53642">
        <ele>805</ele>
        <time>2019-06-17T08:32:13Z</time>
      </trkpt>
      <trkpt lat="44.20467" lon="5.53642">
        <ele>806</ele>
        <time>2019-06-17T08:32:14Z</time>
      </trkpt>
      <trkpt lat="44.20464" lon="5.53642">
        <ele>807</ele>
        <time>2019-06-17T08:32:15Z</time>
      </trkpt>
      <trkpt lat="44.20461" lon="5.53641">
        <ele>808</ele>
        <time>2019-06-17T08:32:16Z</time>
      </trkpt>
      <trkpt lat="44.20457" lon="5.5364">
        <ele>809</ele>
        <time>2019-06-17T08:32:17Z</time>
      </trkpt>
      <trkpt lat="44.20454" lon="5.5364">
        <ele>810</ele>
        <time>2019-06-17T08:32:18Z</time>
      </trkpt>
      <trkpt lat="44.20451" lon="5.53639">
        <ele>811</ele>
        <time>2019-06-17T08:32:19Z</time>
      </trkpt>
      <trkpt lat="44.20447" lon="5.53637">
        <ele>812</ele>
        <time>2019-06-17T08:32:20Z</time>
      </trkpt>
      <trkpt lat="44.20443" lon="5.53637">
        <ele>813</ele>
        <time>2019-06-17T08:32:21Z</time>
      </trkpt>
      <trkpt lat="44.20439" lon="5.53636">
        <ele>814</ele>
        <time>2019-06-17T08:32:22Z</time>
      </trkpt>
      <trkpt lat="44.20435" lon="5.53635">
        <ele>815</ele>
        <time>2019-06-17T08:32:23Z</time>
      </trkpt>
      <trkpt lat="44.20431" lon="5.53634">
        <ele>816</ele>
        <time>2019-06-17T08:32:24Z</time>
      </trkpt>
      <trkpt lat="44.20427" lon="5.53633">
        <ele>817</ele>
        <time>2019-06-17T08:32:25Z</time>
      </trkpt>
      <trkpt lat="44.20423" lon="5.53632">
        <ele>818</ele>
        <time>2019-06-17T08:32:26Z</time>
      </trkpt>
      <trkpt lat="44.2042" lon="5.53633">
        <ele>819</ele>
        <time>2019-06-17T08:32:27Z</time>
      </trkpt>
      <trkpt lat="44.20416" lon="5.53634">
        <ele>820</ele>
        <time>2019-06-17T08:32:28Z</time>
      </trkpt>
      <trkpt lat="44.20412" lon="5.53635">
        <ele>820</ele>
        <time>2019-06-17T08:32:29Z</time>
      </trkpt>
      <trkpt lat="44.20407" lon="5.53636">
        <ele>821</ele>
        <time>2019-06-17T08:32:30Z</time>
      </trkpt>
      <trkpt lat="44.20403" lon="5.53636">
        <ele>821</ele>
        <time>2019-06-17T08:32:31Z</time>
      </trkpt>
      <trkpt lat="44.20399" lon="5.53636">
        <ele>821</ele>
        <time>2019-06-17T08:32:32Z</time>
      </trkpt>
      <trkpt lat="44.20395" lon="5.53638">
        <ele>821</ele>
        <time>2019-06-17T08:32:33Z</time>
      </trkpt>
      <trkpt lat="44.20391" lon="5.53638">
        <ele>821</ele>
        <time>2019-06-17T08:32:34Z</time>
      </trkpt>
      <trkpt lat="44.20387" lon="5.53639">
        <ele>821</ele>
        <time>2019-06-17T08:32:35Z</time>
      </trkpt>
      <trkpt lat="44.20383" lon="5.53639">
        <ele>821</ele>
        <time>2019-06-17T08:32:36Z</time>
      </trkpt>
      <trkpt lat="44.20379" lon="5.5364">
        <ele>821</ele>
        <time>2019-06-17T08:32:37Z</time>
      </trkpt>
      <trkpt lat="44.20374" lon="5.53642">
        <ele>821</ele>
        <time>2019-06-17T08:32:38Z</time>
      </trkpt>
      <trkpt lat="44.20368" lon="5.53644">
        <ele>821</ele>
        <time>2019-06-17T08:32:39Z</time>
      </trkpt>
      <trkpt lat="44.20363" lon="5.53645">
        <ele>821</ele>
        <time>2019-06-17T08:32:40Z</time>
      </trkpt>
      <trkpt lat="44.20359" lon="5.53646">
        <ele>821</ele>
        <time>2019-06-17T08:32:41Z</time>
      </trkpt>
      <trkpt lat="44.20354" lon="5.53648">
        <ele>820</ele>
        <time>2019-06-17T08:32:42Z</time>
      </trkpt>
      <trkpt lat="44.2035" lon="5.53652">
        <ele>819</ele>
        <time>2019-06-17T08:32:43Z</time>
      </trkpt>
      <trkpt lat="44.20346" lon="5.53656">
        <ele>818</ele>
        <time>2019-06-17T08:32:44Z</time>
      </trkpt>
      <trkpt lat="44.20342" lon="5.53659">
        <ele>817</ele>
        <time>2019-06-17T08:32:45Z</time>
      </trkpt>
      <trkpt lat="44.20337" lon="5.53662">
        <ele>816</ele>
        <time>2019-06-17T08:32:46Z</time>
      </trkpt>
      <trkpt lat="44.20333" lon="5.53664">
        <ele>815</ele>
        <time>2019-06-17T08:32:47Z</time>
      </trkpt>
      <trkpt lat="44.2033" lon="5.53665">
        <ele>814</ele>
        <time>2019-06-17T08:32:48Z</time>
      </trkpt>
      <trkpt lat="44.20326" lon="5.53666">
        <ele>813</ele>
        <time>2019-06-17T08:32:49Z</time>
      </trkpt>
      <trkpt lat="44.20323" lon="5.53666">
        <ele>812</ele>
        <time>2019-06-17T08:32:50Z</time>
      </trkpt>
      <trkpt lat="44.20319" lon="5.53667">
        <ele>812</ele>
        <time>2019-06-17T08:32:51Z</time>
      </trkpt>
      <trkpt lat="44.20317" lon="5.53667">
        <ele>812</ele>
        <time>2019-06-17T08:32:52Z</time>
      </trkpt>
      <trkpt lat="44.20316" lon="5.53666">
        <ele>812</ele>
        <time>2019-06-17T08:32:53Z</time>
      </trkpt>
      <trkpt lat="44.20315" lon="5.53667">
        <ele>812</ele>
        <time>2019-06-17T08:32:54Z</time>
      </trkpt>
      <trkpt lat="44.20313" lon="5.53667">
        <ele>812</ele>
        <time>2019-06-17T08:32:56Z</time>
      </trkpt>
      <trkpt lat="44.20312" lon="5.53667">
        <ele>811</ele>
        <time>2019-06-17T08:32:57Z</time>
      </trkpt>
      <trkpt lat="44.20311" lon="5.53667">
        <ele>809</ele>
        <time>2019-06-17T08:33:01Z</time>
      </trkpt>
      <trkpt lat="44.20309" lon="5.53666">
        <ele>807</ele>
        <time>2019-06-17T08:33:10Z</time>
      </trkpt>
      <trkpt lat="44.20311" lon="5.53666">
        <ele>807</ele>
        <time>2019-06-17T08:33:33Z</time>
      </trkpt>
      <trkpt lat="44.20312" lon="5.53667">
        <ele>807</ele>
        <time>2019-06-17T08:33:52Z</time>
      </trkpt>
      <trkpt lat="44.20313" lon="5.53667">
        <ele>807</ele>
        <time>2019-06-17T08:34:19Z</time>
      </trkpt>
      <trkpt lat="44.20311" lon="5.53666">
        <ele>807</ele>
        <time>2019-06-17T08:34:45Z</time>
      </trkpt>
      <trkpt lat="44.20309" lon="5.53666">
        <ele>807</ele>
        <time>2019-06-17T08:34:47Z</time>
      </trkpt>
      <trkpt lat="44.20308" lon="5.53666">
        <ele>807</ele>
        <time>2019-06-17T08:34:51Z</time>
      </trkpt>
      <trkpt lat="44.20307" lon="5.53665">
        <ele>807</ele>
        <time>2019-06-17T08:34:55Z</time>
      </trkpt>
      <trkpt lat="44.20306" lon="5.53665">
        <ele>807</ele>
        <time>2019-06-17T08:35:00Z</time>
      </trkpt>
      <trkpt lat="44.20306" lon="5.53666">
        <ele>807</ele>
        <time>2019-06-17T08:35:40Z</time>
      </trkpt>
      <trkpt lat="44.20308" lon="5.53666">
        <ele>807</ele>
        <time>2019-06-17T08:35:58Z</time>
      </trkpt>
      <trkpt lat="44.20309" lon="5.53666">
        <ele>807</ele>
        <time>2019-06-17T08:36:19Z</time>
      </trkpt>
      <trkpt lat="44.2031" lon="5.53666">
        <ele>807</ele>
        <time>2019-06-17T08:36:31Z</time>
      </trkpt>
      <trkpt lat="44.20309" lon="5.53666">
        <ele>807</ele>
        <time>2019-06-17T08:36:50Z</time>
      </trkpt>
      <trkpt lat="44.20308" lon="5.53665">
        <ele>807</ele>
        <time>2019-06-17T08:37:24Z</time>
      </trkpt>
      <trkpt lat="44.20309" lon="5.53666">
        <ele>807</ele>
        <time>2019-06-17T08:37:58Z</time>
      </trkpt>
      <trkpt lat="44.2031" lon="5.53666">
        <ele>807</ele>
        <time>2019-06-17T08:38:05Z</time>
      </trkpt>
      <trkpt lat="44.20311" lon="5.53666">
        <ele>807</ele>
        <time>2019-06-17T08:38:25Z</time>
      </trkpt>
      <trkpt lat="44.20313" lon="5.53666">
        <ele>807</ele>
        <time>2019-06-17T08:38:36Z</time>
      </trkpt>
      <trkpt lat="44.20311" lon="5.53666">
        <ele>807</ele>
        <time>2019-06-17T08:39:22Z</time>
      </trkpt>
      <trkpt lat="44.2031" lon="5.53667">
        <ele>807</ele>
        <time>2019-06-17T08:39:25Z</time>
      </trkpt>
      <trkpt lat="44.20309" lon="5.53668">
        <ele>807</ele>
        <time>2019-06-17T08:39:29Z</time>
      </trkpt>
      <trkpt lat="44.20307" lon="5.53668">
        <ele>807</ele>
        <time>2019-06-17T08:39:33Z</time>
      </trkpt>
      <trkpt lat="44.20306" lon="5.53668">
        <ele>807</ele>
        <time>2019-06-17T08:39:36Z</time>
      </trkpt>
      <trkpt lat="44.20305" lon="5.53668">
        <ele>808</ele>
        <time>2019-06-17T08:39:39Z</time>
      </trkpt>
      <trkpt lat="44.20303" lon="5.53668">
        <ele>808</ele>
        <time>2019-06-17T08:39:52Z</time>
      </trkpt>
      <trkpt lat="44.20305" lon="5.53669">
        <ele>810</ele>
        <time>2019-06-17T08:40:00Z</time>
      </trkpt>
      <trkpt lat="44.20306" lon="5.53669">
        <ele>810</ele>
        <time>2019-06-17T08:40:02Z</time>
      </trkpt>
      <trkpt lat="44.20308" lon="5.53669">
        <ele>810</ele>
        <time>2019-06-17T08:40:04Z</time>
      </trkpt>
      <trkpt lat="44.20309" lon="5.53669">
        <ele>810</ele>
        <time>2019-06-17T08:40:06Z</time>
      </trkpt>
      <trkpt lat="44.20311" lon="5.53668">
        <ele>810</ele>
        <time>2019-06-17T08:40:09Z</time>
      </trkpt>
      <trkpt lat="44.20311" lon="5.53667">
        <ele>810</ele>
        <time>2019-06-17T08:40:17Z</time>
      </trkpt>
      <trkpt lat="44.20312" lon="5.53666">
        <ele>808</ele>
        <time>2019-06-17T08:40:27Z</time>
      </trkpt>
      <trkpt lat="44.20311" lon="5.53666">
        <ele>808</ele>
        <time>2019-06-17T08:40:32Z</time>
      </trkpt>
      <trkpt lat="44.20309" lon="5.53666">
        <ele>808</ele>
        <time>2019-06-17T08:40:38Z</time>
      </trkpt>
      <trkpt lat="44.20308" lon="5.53665">
        <ele>807</ele>
        <time>2019-06-17T08:40:42Z</time>
      </trkpt>
      <trkpt lat="44.20306" lon="5.53664">
        <ele>805</ele>
        <time>2019-06-17T08:40:47Z</time>
      </trkpt>
      <trkpt lat="44.20305" lon="5.53663">
        <ele>804</ele>
        <time>2019-06-17T08:40:52Z</time>
      </trkpt>
      <trkpt lat="44.20304" lon="5.53663">
        <ele>804</ele>
        <time>2019-06-17T08:41:09Z</time>
      </trkpt>
      <trkpt lat="44.20305" lon="5.53665">
        <ele>804</ele>
        <time>2019-06-17T08:41:30Z</time>
      </trkpt>
      <trkpt lat="44.20306" lon="5.53665">
        <ele>804</ele>
        <time>2019-06-17T08:41:38Z</time>
      </trkpt>
      <trkpt lat="44.20307" lon="5.53665">
        <ele>804</ele>
        <time>2019-06-17T08:42:02Z</time>
      </trkpt>
      <trkpt lat="44.20309" lon="5.53665">
        <ele>804</ele>
        <time>2019-06-17T08:42:19Z</time>
      </trkpt>
      <trkpt lat="44.20311" lon="5.53665">
        <ele>804</ele>
        <time>2019-06-17T08:42:22Z</time>
      </trkpt>
      <trkpt lat="44.20313" lon="5.53665">
        <ele>804</ele>
        <time>2019-06-17T08:42:24Z</time>
      </trkpt>
      <trkpt lat="44.20314" lon="5.53664">
        <ele>804</ele>
        <time>2019-06-17T08:42:25Z</time>
      </trkpt>
      <trkpt lat="44.20315" lon="5.53664">
        <ele>804</ele>
        <time>2019-06-17T08:42:26Z</time>
      </trkpt>
      <trkpt lat="44.20317" lon="5.53664">
        <ele>804</ele>
        <time>2019-06-17T08:42:27Z</time>
      </trkpt>
      <trkpt lat="44.20318" lon="5.53664">
        <ele>803</ele>
        <time>2019-06-17T08:42:30Z</time>
      </trkpt>
      <trkpt lat="44.20316" lon="5.53665">
        <ele>802</ele>
        <time>2019-06-17T08:42:40Z</time>
      </trkpt>
      <trkpt lat="44.20315" lon="5.53665">
        <ele>802</ele>
        <time>2019-06-17T08:42:50Z</time>
      </trkpt>
      <trkpt lat="44.20314" lon="5.53665">
        <ele>802</ele>
        <time>2019-06-17T08:42:58Z</time>
      </trkpt>
      <trkpt lat="44.20313" lon="5.53665">
        <ele>802</ele>
        <time>2019-06-17T08:43:10Z</time>
      </trkpt>
      <trkpt lat="44.20314" lon="5.53665">
        <ele>804</ele>
        <time>2019-06-17T08:43:45Z</time>
      </trkpt>
      <trkpt lat="44.20314" lon="5.53664">
        <ele>805</ele>
        <time>2019-06-17T08:44:09Z</time>
      </trkpt>
      <trkpt lat="44.20314" lon="5.53665">
        <ele>805</ele>
        <time>2019-06-17T08:44:43Z</time>
      </trkpt>
      <trkpt lat="44.20313" lon="5.53667">
        <ele>805</ele>
        <time>2019-06-17T08:44:53Z</time>
      </trkpt>
      <trkpt lat="44.20311" lon="5.53667">
        <ele>805</ele>
        <time>2019-06-17T08:44:55Z</time>
      </trkpt>
      <trkpt lat="44.20309" lon="5.53667">
        <ele>806</ele>
        <time>2019-06-17T08:44:57Z</time>
      </trkpt>
      <trkpt lat="44.20308" lon="5.53667">
        <ele>806</ele>
        <time>2019-06-17T08:44:58Z</time>
      </trkpt>
      <trkpt lat="44.20306" lon="5.53667">
        <ele>806</ele>
        <time>2019-06-17T08:45:00Z</time>
      </trkpt>
      <trkpt lat="44.20304" lon="5.53667">
        <ele>806</ele>
        <time>2019-06-17T08:45:01Z</time>
      </trkpt>
      <trkpt lat="44.20303" lon="5.53667">
        <ele>806</ele>
        <time>2019-06-17T08:45:03Z</time>
      </trkpt>
      <trkpt lat="44.20301" lon="5.53666">
        <ele>806</ele>
        <time>2019-06-17T08:45:05Z</time>
      </trkpt>
      <trkpt lat="44.203" lon="5.53665">
        <ele>806</ele>
        <time>2019-06-17T08:45:07Z</time>
      </trkpt>
      <trkpt lat="44.20298" lon="5.53665">
        <ele>806</ele>
        <time>2019-06-17T08:45:09Z</time>
      </trkpt>
      <trkpt lat="44.20297" lon="5.53666">
        <ele>806</ele>
        <time>2019-06-17T08:45:16Z</time>
      </trkpt>
      <trkpt lat="44.20297" lon="5.53667">
        <ele>806</ele>
        <time>2019-06-17T08:45:19Z</time>
      </trkpt>
      <trkpt lat="44.20299" lon="5.53669">
        <ele>806</ele>
        <time>2019-06-17T08:45:23Z</time>
      </trkpt>
      <trkpt lat="44.203" lon="5.53669">
        <ele>806</ele>
        <time>2019-06-17T08:45:26Z</time>
      </trkpt>
      <trkpt lat="44.20302" lon="5.5367">
        <ele>806</ele>
        <time>2019-06-17T08:45:29Z</time>
      </trkpt>
      <trkpt lat="44.20304" lon="5.5367">
        <ele>806</ele>
        <time>2019-06-17T08:45:30Z</time>
      </trkpt>
      <trkpt lat="44.20305" lon="5.5367">
        <ele>806</ele>
        <time>2019-06-17T08:45:32Z</time>
      </trkpt>
      <trkpt lat="44.20306" lon="5.5367">
        <ele>806</ele>
        <time>2019-06-17T08:45:36Z</time>
      </trkpt>
      <trkpt lat="44.20308" lon="5.53671">
        <ele>806</ele>
        <time>2019-06-17T08:45:39Z</time>
      </trkpt>
      <trkpt lat="44.20309" lon="5.53671">
        <ele>806</ele>
        <time>2019-06-17T08:45:42Z</time>
      </trkpt>
      <trkpt lat="44.2031" lon="5.5367">
        <ele>807</ele>
        <time>2019-06-17T08:45:50Z</time>
      </trkpt>
      <trkpt lat="44.20311" lon="5.53668">
        <ele>807</ele>
        <time>2019-06-17T08:45:56Z</time>
      </trkpt>
      <trkpt lat="44.20312" lon="5.53667">
        <ele>807</ele>
        <time>2019-06-17T08:46:03Z</time>
      </trkpt>
      <trkpt lat="44.20314" lon="5.53667">
        <ele>807</ele>
        <time>2019-06-17T08:46:08Z</time>
      </trkpt>
      <trkpt lat="44.20314" lon="5.53668">
        <ele>807</ele>
        <time>2019-06-17T08:46:11Z</time>
      </trkpt>
      <trkpt lat="44.20313" lon="5.53671">
        <ele>807</ele>
        <time>2019-06-17T08:46:13Z</time>
      </trkpt>
      <trkpt lat="44.20311" lon="5.53672">
        <ele>807</ele>
        <time>2019-06-17T08:46:15Z</time>
      </trkpt>
      <trkpt lat="44.20309" lon="5.53671">
        <ele>807</ele>
        <time>2019-06-17T08:46:16Z</time>
      </trkpt>
      <trkpt lat="44.20308" lon="5.5367">
        <ele>807</ele>
        <time>2019-06-17T08:46:17Z</time>
      </trkpt>
      <trkpt lat="44.20306" lon="5.5367">
        <ele>807</ele>
        <time>2019-06-17T08:46:18Z</time>
      </trkpt>
      <trkpt lat="44.20302" lon="5.53671">
        <ele>807</ele>
        <time>2019-06-17T08:46:19Z</time>
      </trkpt>
      <trkpt lat="44.20299" lon="5.53673">
        <ele>807</ele>
        <time>2019-06-17T08:46:20Z</time>
      </trkpt>
      <trkpt lat="44.20296" lon="5.53674">
        <ele>807</ele>
        <time>2019-06-17T08:46:21Z</time>
      </trkpt>
      <trkpt lat="44.20292" lon="5.53676">
        <ele>807</ele>
        <time>2019-06-17T08:46:22Z</time>
      </trkpt>
      <trkpt lat="44.20287" lon="5.53678">
        <ele>807</ele>
        <time>2019-06-17T08:46:23Z</time>
      </trkpt>
      <trkpt lat="44.20284" lon="5.53678">
        <ele>807</ele>
        <time>2019-06-17T08:46:24Z</time>
      </trkpt>
      <trkpt lat="44.20281" lon="5.53678">
        <ele>807</ele>
        <time>2019-06-17T08:46:25Z</time>
      </trkpt>
      <trkpt lat="44.20278" lon="5.53679">
        <ele>807</ele>
        <time>2019-06-17T08:46:26Z</time>
      </trkpt>
      <trkpt lat="44.20275" lon="5.53679">
        <ele>807</ele>
        <time>2019-06-17T08:46:27Z</time>
      </trkpt>
      <trkpt lat="44.20272" lon="5.5368">
        <ele>807</ele>
        <time>2019-06-17T08:46:28Z</time>
      </trkpt>
      <trkpt lat="44.2027" lon="5.5368">
        <ele>807</ele>
        <time>2019-06-17T08:46:29Z</time>
      </trkpt>
      <trkpt lat="44.20267" lon="5.5368">
        <ele>807</ele>
        <time>2019-06-17T08:46:30Z</time>
      </trkpt>
      <trkpt lat="44.20264" lon="5.53681">
        <ele>807</ele>
        <time>2019-06-17T08:46:31Z</time>
      </trkpt>
      <trkpt lat="44.20261" lon="5.53681">
        <ele>807</ele>
        <time>2019-06-17T08:46:32Z</time>
      </trkpt>
      <trkpt lat="44.20259" lon="5.53682">
        <ele>807</ele>
        <time>2019-06-17T08:46:33Z</time>
      </trkpt>
      <trkpt lat="44.20256" lon="5.53682">
        <ele>807</ele>
        <time>2019-06-17T08:46:34Z</time>
      </trkpt>
      <trkpt lat="44.20254" lon="5.53683">
        <ele>807</ele>
        <time>2019-06-17T08:46:35Z</time>
      </trkpt>
      <trkpt lat="44.20251" lon="5.53683">
        <ele>807</ele>
        <time>2019-06-17T08:46:36Z</time>
      </trkpt>
      <trkpt lat="44.20248" lon="5.53684">
        <ele>807</ele>
        <time>2019-06-17T08:46:37Z</time>
      </trkpt>
      <trkpt lat="44.20245" lon="5.53684">
        <ele>807</ele>
        <time>2019-06-17T08:46:38Z</time>
      </trkpt>
      <trkpt lat="44.20242" lon="5.53685">
        <ele>807</ele>
        <time>2019-06-17T08:46:39Z</time>
      </trkpt>
      <trkpt lat="44.2024" lon="5.53685">
        <ele>807</ele>
        <time>2019-06-17T08:46:40Z</time>
      </trkpt>
      <trkpt lat="44.20237" lon="5.53686">
        <ele>807</ele>
        <time>2019-06-17T08:46:41Z</time>
      </trkpt>
      <trkpt lat="44.20234" lon="5.53686">
        <ele>807</ele>
        <time>2019-06-17T08:46:42Z</time>
      </trkpt>
      <trkpt lat="44.20231" lon="5.53687">
        <ele>808</ele>
        <time>2019-06-17T08:46:43Z</time>
      </trkpt>
      <trkpt lat="44.20228" lon="5.53687">
        <ele>808</ele>
        <time>2019-06-17T08:46:44Z</time>
      </trkpt>
      <trkpt lat="44.20224" lon="5.53688">
        <ele>809</ele>
        <time>2019-06-17T08:46:45Z</time>
      </trkpt>
      <trkpt lat="44.20221" lon="5.53688">
        <ele>809</ele>
        <time>2019-06-17T08:46:46Z</time>
      </trkpt>
      <trkpt lat="44.20218" lon="5.53688">
        <ele>809</ele>
        <time>2019-06-17T08:46:47Z</time>
      </trkpt>
      <trkpt lat="44.20215" lon="5.53688">
        <ele>809</ele>
        <time>2019-06-17T08:46:48Z</time>
      </trkpt>
      <trkpt lat="44.20212" lon="5.53688">
        <ele>809</ele>
        <time>2019-06-17T08:46:49Z</time>
      </trkpt>
      <trkpt lat="44.20208" lon="5.53688">
        <ele>809</ele>
        <time>2019-06-17T08:46:50Z</time>
      </trkpt>
      <trkpt lat="44.20205" lon="5.53688">
        <ele>809</ele>
        <time>2019-06-17T08:46:51Z</time>
      </trkpt>
      <trkpt lat="44.20202" lon="5.53688">
        <ele>809</ele>
        <time>2019-06-17T08:46:52Z</time>
      </trkpt>
      <trkpt lat="44.20199" lon="5.53688">
        <ele>809</ele>
        <time>2019-06-17T08:46:53Z</time>
      </trkpt>
      <trkpt lat="44.20195" lon="5.53688">
        <ele>809</ele>
        <time>2019-06-17T08:46:54Z</time>
      </trkpt>
      <trkpt lat="44.20191" lon="5.53689">
        <ele>809</ele>
        <time>2019-06-17T08:46:55Z</time>
      </trkpt>
      <trkpt lat="44.20187" lon="5.53689">
        <ele>809</ele>
        <time>2019-06-17T08:46:56Z</time>
      </trkpt>
      <trkpt lat="44.20184" lon="5.53689">
        <ele>809</ele>
        <time>2019-06-17T08:46:57Z</time>
      </trkpt>
      <trkpt lat="44.2018" lon="5.53689">
        <ele>810</ele>
        <time>2019-06-17T08:46:58Z</time>
      </trkpt>
      <trkpt lat="44.20176" lon="5.53689">
        <ele>810</ele>
        <time>2019-06-17T08:46:59Z</time>
      </trkpt>
      <trkpt lat="44.20173" lon="5.53689">
        <ele>810</ele>
        <time>2019-06-17T08:47:00Z</time>
      </trkpt>
      <trkpt lat="44.20169" lon="5.53689">
        <ele>810</ele>
        <time>2019-06-17T08:47:01Z</time>
      </trkpt>
      <trkpt lat="44.20166" lon="5.53689">
        <ele>810</ele>
        <time>2019-06-17T08:47:02Z</time>
      </trkpt>
      <trkpt lat="44.20163" lon="5.53688">
        <ele>810</ele>
        <time>2019-06-17T08:47:03Z</time>
      </trkpt>
      <trkpt lat="44.20159" lon="5.53688">
        <ele>810</ele>
        <time>2019-06-17T08:47:04Z</time>
      </trkpt>
      <trkpt lat="44.20155" lon="5.53689">
        <ele>810</ele>
        <time>2019-06-17T08:47:05Z</time>
      </trkpt>
      <trkpt lat="44.20151" lon="5.53689">
        <ele>810</ele>
        <time>2019-06-17T08:47:06Z</time>
      </trkpt>
      <trkpt lat="44.20147" lon="5.5369">
        <ele>810</ele>
        <time>2019-06-17T08:47:07Z</time>
      </trkpt>
      <trkpt lat="44.20144" lon="5.53689">
        <ele>810</ele>
        <time>2019-06-17T08:47:08Z</time>
      </trkpt>
      <trkpt lat="44.2014" lon="5.53689">
        <ele>810</ele>
        <time>2019-06-17T08:47:09Z</time>
      </trkpt>
      <trkpt lat="44.20137" lon="5.53689">
        <ele>810</ele>
        <time>2019-06-17T08:47:10Z</time>
      </trkpt>
      <trkpt lat="44.20133" lon="5.53689">
        <ele>810</ele>
        <time>2019-06-17T08:47:11Z</time>
      </trkpt>
      <trkpt lat="44.20129" lon="5.5369">
        <ele>810</ele>
        <time>2019-06-17T08:47:12Z</time>
      </trkpt>
      <trkpt lat="44.20126" lon="5.5369">
        <ele>810</ele>
        <time>2019-06-17T08:47:13Z</time>
      </trkpt>
      <trkpt lat="44.20122" lon="5.53689">
        <ele>810</ele>
        <time>2019-06-17T08:47:14Z</time>
      </trkpt>
      <trkpt lat="44.20118" lon="5.5369">
        <ele>810</ele>
        <time>2019-06-17T08:47:15Z</time>
      </trkpt>
      <trkpt lat="44.20114" lon="5.5369">
        <ele>810</ele>
        <time>2019-06-17T08:47:16Z</time>
      </trkpt>
      <trkpt lat="44.2011" lon="5.5369">
        <ele>810</ele>
        <time>2019-06-17T08:47:17Z</time>
      </trkpt>
      <trkpt lat="44.20105" lon="5.5369">
        <ele>810</ele>
        <time>2019-06-17T08:47:18Z</time>
      </trkpt>
      <trkpt lat="44.20101" lon="5.5369">
        <ele>810</ele>
        <time>2019-06-17T08:47:19Z</time>
      </trkpt>
      <trkpt lat="44.20096" lon="5.53691">
        <ele>810</ele>
        <time>2019-06-17T08:47:20Z</time>
      </trkpt>
      <trkpt lat="44.20092" lon="5.53691">
        <ele>810</ele>
        <time>2019-06-17T08:47:21Z</time>
      </trkpt>
      <trkpt lat="44.20087" lon="5.53691">
        <ele>810</ele>
        <time>2019-06-17T08:47:22Z</time>
      </trkpt>
      <trkpt lat="44.20083" lon="5.53692">
        <ele>810</ele>
        <time>2019-06-17T08:47:23Z</time>
      </trkpt>
      <trkpt lat="44.20079" lon="5.53692">
        <ele>810</ele>
        <time>2019-06-17T08:47:24Z</time>
      </trkpt>
      <trkpt lat="44.20074" lon="5.53693">
        <ele>810</ele>
        <time>2019-06-17T08:47:25Z</time>
      </trkpt>
      <trkpt lat="44.20069" lon="5.53694">
        <ele>810</ele>
        <time>2019-06-17T08:47:26Z</time>
      </trkpt>
      <trkpt lat="44.20065" lon="5.53695">
        <ele>810</ele>
        <time>2019-06-17T08:47:27Z</time>
      </trkpt>
      <trkpt lat="44.2006" lon="5.53695">
        <ele>810</ele>
        <time>2019-06-17T08:47:28Z</time>
      </trkpt>
      <trkpt lat="44.20056" lon="5.53696">
        <ele>811</ele>
        <time>2019-06-17T08:47:29Z</time>
      </trkpt>
      <trkpt lat="44.20052" lon="5.53696">
        <ele>811</ele>
        <time>2019-06-17T08:47:30Z</time>
      </trkpt>
      <trkpt lat="44.20048" lon="5.53696">
        <ele>811</ele>
        <time>2019-06-17T08:47:31Z</time>
      </trkpt>
      <trkpt lat="44.20044" lon="5.53696">
        <ele>811</ele>
        <time>2019-06-17T08:47:32Z</time>
      </trkpt>
      <trkpt lat="44.2004" lon="5.53696">
        <ele>811</ele>
        <time>2019-06-17T08:47:33Z</time>
      </trkpt>
      <trkpt lat="44.20036" lon="5.53697">
        <ele>811</ele>
        <time>2019-06-17T08:47:34Z</time>
      </trkpt>
      <trkpt lat="44.20032" lon="5.53698">
        <ele>811</ele>
        <time>2019-06-17T08:47:35Z</time>
      </trkpt>
      <trkpt lat="44.20028" lon="5.53698">
        <ele>811</ele>
        <time>2019-06-17T08:47:36Z</time>
      </trkpt>
      <trkpt lat="44.20024" lon="5.53699">
        <ele>811</ele>
        <time>2019-06-17T08:47:37Z</time>
      </trkpt>
      <trkpt lat="44.2002" lon="5.537">
        <ele>811</ele>
        <time>2019-06-17T08:47:38Z</time>
      </trkpt>
      <trkpt lat="44.20016" lon="5.537">
        <ele>811</ele>
        <time>2019-06-17T08:47:39Z</time>
      </trkpt>
      <trkpt lat="44.20012" lon="5.53701">
        <ele>810</ele>
        <time>2019-06-17T08:47:40Z</time>
      </trkpt>
      <trkpt lat="44.20008" lon="5.53701">
        <ele>810</ele>
        <time>2019-06-17T08:47:41Z</time>
      </trkpt>
      <trkpt lat="44.20004" lon="5.53702">
        <ele>809</ele>
        <time>2019-06-17T08:47:42Z</time>
      </trkpt>
      <trkpt lat="44.19999" lon="5.53703">
        <ele>809</ele>
        <time>2019-06-17T08:47:43Z</time>
      </trkpt>
      <trkpt lat="44.19995" lon="5.53705">
        <ele>809</ele>
        <time>2019-06-17T08:47:44Z</time>
      </trkpt>
      <trkpt lat="44.19991" lon="5.53707">
        <ele>809</ele>
        <time>2019-06-17T08:47:45Z</time>
      </trkpt>
      <trkpt lat="44.19987" lon="5.53708">
        <ele>809</ele>
        <time>2019-06-17T08:47:46Z</time>
      </trkpt>
      <trkpt lat="44.19983" lon="5.5371">
        <ele>809</ele>
        <time>2019-06-17T08:47:47Z</time>
      </trkpt>
      <trkpt lat="44.19979" lon="5.53711">
        <ele>809</ele>
        <time>2019-06-17T08:47:48Z</time>
      </trkpt>
      <trkpt lat="44.19976" lon="5.53712">
        <ele>809</ele>
        <time>2019-06-17T08:47:49Z</time>
      </trkpt>
      <trkpt lat="44.19971" lon="5.53714">
        <ele>809</ele>
        <time>2019-06-17T08:47:50Z</time>
      </trkpt>
      <trkpt lat="44.19967" lon="5.53715">
        <ele>809</ele>
        <time>2019-06-17T08:47:51Z</time>
      </trkpt>
      <trkpt lat="44.19963" lon="5.53717">
        <ele>809</ele>
        <time>2019-06-17T08:47:52Z</time>
      </trkpt>
      <trkpt lat="44.19959" lon="5.53719">
        <ele>809</ele>
        <time>2019-06-17T08:47:53Z</time>
      </trkpt>
      <trkpt lat="44.19956" lon="5.53719">
        <ele>809</ele>
        <time>2019-06-17T08:47:54Z</time>
      </trkpt>
      <trkpt lat="44.19952" lon="5.5372">
        <ele>809</ele>
        <time>2019-06-17T08:47:55Z</time>
      </trkpt>
      <trkpt lat="44.19947" lon="5.53722">
        <ele>808</ele>
        <time>2019-06-17T08:47:56Z</time>
      </trkpt>
      <trkpt lat="44.19944" lon="5.53723">
        <ele>808</ele>
        <time>2019-06-17T08:47:57Z</time>
      </trkpt>
      <trkpt lat="44.19939" lon="5.53724">
        <ele>807</ele>
        <time>2019-06-17T08:47:58Z</time>
      </trkpt>
      <trkpt lat="44.19935" lon="5.53725">
        <ele>807</ele>
        <time>2019-06-17T08:47:59Z</time>
      </trkpt>
      <trkpt lat="44.19931" lon="5.53727">
        <ele>807</ele>
        <time>2019-06-17T08:48:00Z</time>
      </trkpt>
      <trkpt lat="44.19927" lon="5.53729">
        <ele>807</ele>
        <time>2019-06-17T08:48:01Z</time>
      </trkpt>
      <trkpt lat="44.19923" lon="5.53731">
        <ele>807</ele>
        <time>2019-06-17T08:48:02Z</time>
      </trkpt>
      <trkpt lat="44.19918" lon="5.53733">
        <ele>807</ele>
        <time>2019-06-17T08:48:03Z</time>
      </trkpt>
      <trkpt lat="44.19914" lon="5.53736">
        <ele>807</ele>
        <time>2019-06-17T08:48:04Z</time>
      </trkpt>
      <trkpt lat="44.1991" lon="5.53737">
        <ele>807</ele>
        <time>2019-06-17T08:48:05Z</time>
      </trkpt>
      <trkpt lat="44.19905" lon="5.53739">
        <ele>807</ele>
        <time>2019-06-17T08:48:06Z</time>
      </trkpt>
      <trkpt lat="44.19901" lon="5.53741">
        <ele>807</ele>
        <time>2019-06-17T08:48:07Z</time>
      </trkpt>
      <trkpt lat="44.19897" lon="5.53742">
        <ele>807</ele>
        <time>2019-06-17T08:48:08Z</time>
      </trkpt>
      <trkpt lat="44.19893" lon="5.53744">
        <ele>807</ele>
        <time>2019-06-17T08:48:09Z</time>
      </trkpt>
      <trkpt lat="44.19888" lon="5.53746">
        <ele>807</ele>
        <time>2019-06-17T08:48:10Z</time>
      </trkpt>
      <trkpt lat="44.19883" lon="5.53748">
        <ele>807</ele>
        <time>2019-06-17T08:48:11Z</time>
      </trkpt>
      <trkpt lat="44.19879" lon="5.53749">
        <ele>807</ele>
        <time>2019-06-17T08:48:12Z</time>
      </trkpt>
      <trkpt lat="44.19875" lon="5.5375">
        <ele>807</ele>
        <time>2019-06-17T08:48:13Z</time>
      </trkpt>
      <trkpt lat="44.1987" lon="5.53752">
        <ele>807</ele>
        <time>2019-06-17T08:48:14Z</time>
      </trkpt>
      <trkpt lat="44.19865" lon="5.53753">
        <ele>807</ele>
        <time>2019-06-17T08:48:15Z</time>
      </trkpt>
      <trkpt lat="44.1986" lon="5.53754">
        <ele>807</ele>
        <time>2019-06-17T08:48:16Z</time>
      </trkpt>
      <trkpt lat="44.19856" lon="5.53755">
        <ele>807</ele>
        <time>2019-06-17T08:48:17Z</time>
      </trkpt>
      <trkpt lat="44.19851" lon="5.53756">
        <ele>807</ele>
        <time>2019-06-17T08:48:18Z</time>
      </trkpt>
      <trkpt lat="44.19846" lon="5.53757">
        <ele>807</ele>
        <time>2019-06-17T08:48:19Z</time>
      </trkpt>
      <trkpt lat="44.19842" lon="5.53757">
        <ele>807</ele>
        <time>2019-06-17T08:48:20Z</time>
      </trkpt>
      <trkpt lat="44.19837" lon="5.53758">
        <ele>807</ele>
        <time>2019-06-17T08:48:21Z</time>
      </trkpt>
      <trkpt lat="44.19833" lon="5.53758">
        <ele>807</ele>
        <time>2019-06-17T08:48:22Z</time>
      </trkpt>
      <trkpt lat="44.19828" lon="5.53758">
        <ele>807</ele>
        <time>2019-06-17T08:48:23Z</time>
      </trkpt>
      <trkpt lat="44.19823" lon="5.53758">
        <ele>807</ele>
        <time>2019-06-17T08:48:24Z</time>
      </trkpt>
      <trkpt lat="44.19819" lon="5.53758">
        <ele>807</ele>
        <time>2019-06-17T08:48:25Z</time>
      </trkpt>
      <trkpt lat="44.19814" lon="5.53759">
        <ele>807</ele>
        <time>2019-06-17T08:48:26Z</time>
      </trkpt>
      <trkpt lat="44.19809" lon="5.5376">
        <ele>807</ele>
        <time>2019-06-17T08:48:27Z</time>
      </trkpt>
      <trkpt lat="44.19805" lon="5.5376">
        <ele>807</ele>
        <time>2019-06-17T08:48:28Z</time>
      </trkpt>
      <trkpt lat="44.19801" lon="5.5376">
        <ele>807</ele>
        <time>2019-06-17T08:48:29Z</time>
      </trkpt>
      <trkpt lat="44.19796" lon="5.5376">
        <ele>807</ele>
        <time>2019-06-17T08:48:30Z</time>
      </trkpt>
      <trkpt lat="44.19792" lon="5.5376">
        <ele>808</ele>
        <time>2019-06-17T08:48:31Z</time>
      </trkpt>
      <trkpt lat="44.19787" lon="5.5376">
        <ele>808</ele>
        <time>2019-06-17T08:48:32Z</time>
      </trkpt>
      <trkpt lat="44.19783" lon="5.53761">
        <ele>808</ele>
        <time>2019-06-17T08:48:33Z</time>
      </trkpt>
      <trkpt lat="44.19778" lon="5.53761">
        <ele>808</ele>
        <time>2019-06-17T08:48:34Z</time>
      </trkpt>
      <trkpt lat="44.19774" lon="5.53761">
        <ele>808</ele>
        <time>2019-06-17T08:48:35Z</time>
      </trkpt>
      <trkpt lat="44.1977" lon="5.53761">
        <ele>808</ele>
        <time>2019-06-17T08:48:36Z</time>
      </trkpt>
      <trkpt lat="44.19765" lon="5.53761">
        <ele>809</ele>
        <time>2019-06-17T08:48:37Z</time>
      </trkpt>
      <trkpt lat="44.19761" lon="5.53762">
        <ele>809</ele>
        <time>2019-06-17T08:48:38Z</time>
      </trkpt>
      <trkpt lat="44.19756" lon="5.53762">
        <ele>809</ele>
        <time>2019-06-17T08:48:39Z</time>
      </trkpt>
      <trkpt lat="44.19751" lon="5.53762">
        <ele>809</ele>
        <time>2019-06-17T08:48:40Z</time>
      </trkpt>
      <trkpt lat="44.19747" lon="5.53762">
        <ele>809</ele>
        <time>2019-06-17T08:48:41Z</time>
      </trkpt>
      <trkpt lat="44.19742" lon="5.53762">
        <ele>809</ele>
        <time>2019-06-17T08:48:42Z</time>
      </trkpt>
      <trkpt lat="44.19738" lon="5.53762">
        <ele>809</ele>
        <time>2019-06-17T08:48:43Z</time>
      </trkpt>
      <trkpt lat="44.19733" lon="5.53762">
        <ele>809</ele>
        <time>2019-06-17T08:48:44Z</time>
      </trkpt>
      <trkpt lat="44.19729" lon="5.53762">
        <ele>809</ele>
        <time>2019-06-17T08:48:45Z</time>
      </trkpt>
      <trkpt lat="44.19725" lon="5.53762">
        <ele>809</ele>
        <time>2019-06-17T08:48:46Z</time>
      </trkpt>
      <trkpt lat="44.1972" lon="5.53762">
        <ele>809</ele>
        <time>2019-06-17T08:48:47Z</time>
      </trkpt>
      <trkpt lat="44.19715" lon="5.53763">
        <ele>810</ele>
        <time>2019-06-17T08:48:48Z</time>
      </trkpt>
      <trkpt lat="44.19711" lon="5.53763">
        <ele>810</ele>
        <time>2019-06-17T08:48:49Z</time>
      </trkpt>
      <trkpt lat="44.19706" lon="5.53764">
        <ele>810</ele>
        <time>2019-06-17T08:48:50Z</time>
      </trkpt>
      <trkpt lat="44.19701" lon="5.53763">
        <ele>810</ele>
        <time>2019-06-17T08:48:51Z</time>
      </trkpt>
      <trkpt lat="44.19697" lon="5.53763">
        <ele>811</ele>
        <time>2019-06-17T08:48:52Z</time>
      </trkpt>
      <trkpt lat="44.19692" lon="5.53763">
        <ele>811</ele>
        <time>2019-06-17T08:48:53Z</time>
      </trkpt>
      <trkpt lat="44.19688" lon="5.53763">
        <ele>811</ele>
        <time>2019-06-17T08:48:54Z</time>
      </trkpt>
      <trkpt lat="44.19683" lon="5.53762">
        <ele>811</ele>
        <time>2019-06-17T08:48:55Z</time>
      </trkpt>
      <trkpt lat="44.19679" lon="5.53762">
        <ele>811</ele>
        <time>2019-06-17T08:48:56Z</time>
      </trkpt>
      <trkpt lat="44.19674" lon="5.53762">
        <ele>811</ele>
        <time>2019-06-17T08:48:57Z</time>
      </trkpt>
      <trkpt lat="44.19669" lon="5.53762">
        <ele>811</ele>
        <time>2019-06-17T08:48:58Z</time>
      </trkpt>
      <trkpt lat="44.19665" lon="5.53763">
        <ele>811</ele>
        <time>2019-06-17T08:48:59Z</time>
      </trkpt>
      <trkpt lat="44.19661" lon="5.53763">
        <ele>811</ele>
        <time>2019-06-17T08:49:00Z</time>
      </trkpt>
      <trkpt lat="44.19656" lon="5.53763">
        <ele>811</ele>
        <time>2019-06-17T08:49:01Z</time>
      </trkpt>
      <trkpt lat="44.19651" lon="5.53763">
        <ele>811</ele>
        <time>2019-06-17T08:49:02Z</time>
      </trkpt>
      <trkpt lat="44.19647" lon="5.53763">
        <ele>811</ele>
        <time>2019-06-17T08:49:03Z</time>
      </trkpt>
      <trkpt lat="44.19643" lon="5.53763">
        <ele>811</ele>
        <time>2019-06-17T08:49:04Z</time>
      </trkpt>
      <trkpt lat="44.19638" lon="5.53763">
        <ele>811</ele>
        <time>2019-06-17T08:49:05Z</time>
      </trkpt>
      <trkpt lat="44.19633" lon="5.53763">
        <ele>811</ele>
        <time>2019-06-17T08:49:06Z</time>
      </trkpt>
      <trkpt lat="44.19629" lon="5.53763">
        <ele>811</ele>
        <time>2019-06-17T08:49:07Z</time>
      </trkpt>
      <trkpt lat="44.19624" lon="5.53763">
        <ele>811</ele>
        <time>2019-06-17T08:49:08Z</time>
      </trkpt>
      <trkpt lat="44.1962" lon="5.53763">
        <ele>811</ele>
        <time>2019-06-17T08:49:09Z</time>
      </trkpt>
      <trkpt lat="44.19615" lon="5.53763">
        <ele>811</ele>
        <time>2019-06-17T08:49:10Z</time>
      </trkpt>
      <trkpt lat="44.19611" lon="5.53764">
        <ele>811</ele>
        <time>2019-06-17T08:49:11Z</time>
      </trkpt>
      <trkpt lat="44.19606" lon="5.53764">
        <ele>811</ele>
        <time>2019-06-17T08:49:12Z</time>
      </trkpt>
      <trkpt lat="44.19602" lon="5.53764">
        <ele>811</ele>
        <time>2019-06-17T08:49:13Z</time>
      </trkpt>
      <trkpt lat="44.19598" lon="5.53764">
        <ele>811</ele>
        <time>2019-06-17T08:49:14Z</time>
      </trkpt>
      <trkpt lat="44.19593" lon="5.53764">
        <ele>811</ele>
        <time>2019-06-17T08:49:15Z</time>
      </trkpt>
      <trkpt lat="44.19589" lon="5.53764">
        <ele>811</ele>
        <time>2019-06-17T08:49:16Z</time>
      </trkpt>
      <trkpt lat="44.19584" lon="5.53764">
        <ele>811</ele>
        <time>2019-06-17T08:49:17Z</time>
      </trkpt>
      <trkpt lat="44.1958" lon="5.53764">
        <ele>811</ele>
        <time>2019-06-17T08:49:18Z</time>
      </trkpt>
      <trkpt lat="44.19576" lon="5.53764">
        <ele>811</ele>
        <time>2019-06-17T08:49:19Z</time>
      </trkpt>
      <trkpt lat="44.19571" lon="5.53764">
        <ele>812</ele>
        <time>2019-06-17T08:49:20Z</time>
      </trkpt>
      <trkpt lat="44.19567" lon="5.53764">
        <ele>812</ele>
        <time>2019-06-17T08:49:21Z</time>
      </trkpt>
      <trkpt lat="44.19562" lon="5.53764">
        <ele>812</ele>
        <time>2019-06-17T08:49:22Z</time>
      </trkpt>
      <trkpt lat="44.19558" lon="5.53765">
        <ele>812</ele>
        <time>2019-06-17T08:49:23Z</time>
      </trkpt>
      <trkpt lat="44.19553" lon="5.53765">
        <ele>812</ele>
        <time>2019-06-17T08:49:24Z</time>
      </trkpt>
      <trkpt lat="44.19549" lon="5.53765">
        <ele>812</ele>
        <time>2019-06-17T08:49:25Z</time>
      </trkpt>
      <trkpt lat="44.19545" lon="5.53764">
        <ele>812</ele>
        <time>2019-06-17T08:49:26Z</time>
      </trkpt>
      <trkpt lat="44.1954" lon="5.53765">
        <ele>812</ele>
        <time>2019-06-17T08:49:27Z</time>
      </trkpt>
      <trkpt lat="44.19536" lon="5.53765">
        <ele>813</ele>
        <time>2019-06-17T08:49:28Z</time>
      </trkpt>
      <trkpt lat="44.19531" lon="5.53765">
        <ele>813</ele>
        <time>2019-06-17T08:49:29Z</time>
      </trkpt>
      <trkpt lat="44.19527" lon="5.53765">
        <ele>813</ele>
        <time>2019-06-17T08:49:30Z</time>
      </trkpt>
      <trkpt lat="44.19522" lon="5.53765">
        <ele>813</ele>
        <time>2019-06-17T08:49:31Z</time>
      </trkpt>
      <trkpt lat="44.19518" lon="5.53765">
        <ele>813</ele>
        <time>2019-06-17T08:49:32Z</time>
      </trkpt>
      <trkpt lat="44.19513" lon="5.53765">
        <ele>814</ele>
        <time>2019-06-17T08:49:33Z</time>
      </trkpt>
      <trkpt lat="44.19509" lon="5.53765">
        <ele>814</ele>
        <time>2019-06-17T08:49:34Z</time>
      </trkpt>
      <trkpt lat="44.19505" lon="5.53765">
        <ele>815</ele>
        <time>2019-06-17T08:49:35Z</time>
      </trkpt>
      <trkpt lat="44.195" lon="5.53765">
        <ele>815</ele>
        <time>2019-06-17T08:49:36Z</time>
      </trkpt>
      <trkpt lat="44.19495" lon="5.53765">
        <ele>816</ele>
        <time>2019-06-17T08:49:37Z</time>
      </trkpt>
      <trkpt lat="44.19491" lon="5.53765">
        <ele>816</ele>
        <time>2019-06-17T08:49:38Z</time>
      </trkpt>
      <trkpt lat="44.19487" lon="5.53765">
        <ele>816</ele>
        <time>2019-06-17T08:49:39Z</time>
      </trkpt>
      <trkpt lat="44.19482" lon="5.53764">
        <ele>817</ele>
        <time>2019-06-17T08:49:40Z</time>
      </trkpt>
      <trkpt lat="44.19477" lon="5.53764">
        <ele>817</ele>
        <time>2019-06-17T08:49:41Z</time>
      </trkpt>
      <trkpt lat="44.19473" lon="5.53764">
        <ele>817</ele>
        <time>2019-06-17T08:49:42Z</time>
      </trkpt>
      <trkpt lat="44.19469" lon="5.53763">
        <ele>818</ele>
        <time>2019-06-17T08:49:43Z</time>
      </trkpt>
      <trkpt lat="44.19464" lon="5.53763">
        <ele>818</ele>
        <time>2019-06-17T08:49:44Z</time>
      </trkpt>
      <trkpt lat="44.19459" lon="5.53763">
        <ele>818</ele>
        <time>2019-06-17T08:49:45Z</time>
      </trkpt>
      <trkpt lat="44.19455" lon="5.53763">
        <ele>818</ele>
        <time>2019-06-17T08:49:46Z</time>
      </trkpt>
      <trkpt lat="44.1945" lon="5.53762">
        <ele>819</ele>
        <time>2019-06-17T08:49:47Z</time>
      </trkpt>
      <trkpt lat="44.19445" lon="5.53762">
        <ele>819</ele>
        <time>2019-06-17T08:49:48Z</time>
      </trkpt>
      <trkpt lat="44.1944" lon="5.53761">
        <ele>819</ele>
        <time>2019-06-17T08:49:49Z</time>
      </trkpt>
      <trkpt lat="44.19436" lon="5.53761">
        <ele>819</ele>
        <time>2019-06-17T08:49:50Z</time>
      </trkpt>
      <trkpt lat="44.19431" lon="5.53761">
        <ele>819</ele>
        <time>2019-06-17T08:49:51Z</time>
      </trkpt>
      <trkpt lat="44.19426" lon="5.5376">
        <ele>819</ele>
        <time>2019-06-17T08:49:52Z</time>
      </trkpt>
      <trkpt lat="44.19421" lon="5.5376">
        <ele>820</ele>
        <time>2019-06-17T08:49:53Z</time>
      </trkpt>
      <trkpt lat="44.19417" lon="5.5376">
        <ele>820</ele>
        <time>2019-06-17T08:49:54Z</time>
      </trkpt>
      <trkpt lat="44.19412" lon="5.53759">
        <ele>820</ele>
        <time>2019-06-17T08:49:55Z</time>
      </trkpt>
      <trkpt lat="44.19407" lon="5.53758">
        <ele>820</ele>
        <time>2019-06-17T08:49:56Z</time>
      </trkpt>
      <trkpt lat="44.19402" lon="5.53758">
        <ele>820</ele>
        <time>2019-06-17T08:49:57Z</time>
      </trkpt>
      <trkpt lat="44.19397" lon="5.53757">
        <ele>820</ele>
        <time>2019-06-17T08:49:58Z</time>
      </trkpt>
      <trkpt lat="44.19393" lon="5.53757">
        <ele>820</ele>
        <time>2019-06-17T08:49:59Z</time>
      </trkpt>
      <trkpt lat="44.19388" lon="5.53757">
        <ele>820</ele>
        <time>2019-06-17T08:50:00Z</time>
      </trkpt>
      <trkpt lat="44.19383" lon="5.53756">
        <ele>820</ele>
        <time>2019-06-17T08:50:01Z</time>
      </trkpt>
      <trkpt lat="44.19378" lon="5.53756">
        <ele>820</ele>
        <time>2019-06-17T08:50:02Z</time>
      </trkpt>
      <trkpt lat="44.19373" lon="5.53755">
        <ele>820</ele>
        <time>2019-06-17T08:50:03Z</time>
      </trkpt>
      <trkpt lat="44.19368" lon="5.53754">
        <ele>820</ele>
        <time>2019-06-17T08:50:04Z</time>
      </trkpt>
      <trkpt lat="44.19364" lon="5.53754">
        <ele>820</ele>
        <time>2019-06-17T08:50:05Z</time>
      </trkpt>
      <trkpt lat="44.19359" lon="5.53753">
        <ele>820</ele>
        <time>2019-06-17T08:50:06Z</time>
      </trkpt>
      <trkpt lat="44.19354" lon="5.53753">
        <ele>820</ele>
        <time>2019-06-17T08:50:07Z</time>
      </trkpt>
      <trkpt lat="44.19349" lon="5.53753">
        <ele>820</ele>
        <time>2019-06-17T08:50:08Z</time>
      </trkpt>
      <trkpt lat="44.19344" lon="5.53752">
        <ele>820</ele>
        <time>2019-06-17T08:50:09Z</time>
      </trkpt>
      <trkpt lat="44.1934" lon="5.53752">
        <ele>820</ele>
        <time>2019-06-17T08:50:10Z</time>
      </trkpt>
      <trkpt lat="44.19335" lon="5.53751">
        <ele>820</ele>
        <time>2019-06-17T08:50:11Z</time>
      </trkpt>
      <trkpt lat="44.1933" lon="5.53751">
        <ele>820</ele>
        <time>2019-06-17T08:50:12Z</time>
      </trkpt>
      <trkpt lat="44.19326" lon="5.53751">
        <ele>820</ele>
        <time>2019-06-17T08:50:13Z</time>
      </trkpt>
      <trkpt lat="44.19321" lon="5.5375">
        <ele>820</ele>
        <time>2019-06-17T08:50:14Z</time>
      </trkpt>
      <trkpt lat="44.19316" lon="5.5375">
        <ele>820</ele>
        <time>2019-06-17T08:50:15Z</time>
      </trkpt>
      <trkpt lat="44.19312" lon="5.53749">
        <ele>820</ele>
        <time>2019-06-17T08:50:16Z</time>
      </trkpt>
      <trkpt lat="44.19308" lon="5.53749">
        <ele>820</ele>
        <time>2019-06-17T08:50:17Z</time>
      </trkpt>
      <trkpt lat="44.19303" lon="5.53749">
        <ele>820</ele>
        <time>2019-06-17T08:50:18Z</time>
      </trkpt>
      <trkpt lat="44.19299" lon="5.53748">
        <ele>820</ele>
        <time>2019-06-17T08:50:19Z</time>
      </trkpt>
      <trkpt lat="44.19294" lon="5.53748">
        <ele>820</ele>
        <time>2019-06-17T08:50:20Z</time>
      </trkpt>
      <trkpt lat="44.1929" lon="5.53747">
        <ele>820</ele>
        <time>2019-06-17T08:50:21Z</time>
      </trkpt>
      <trkpt lat="44.19285" lon="5.53747">
        <ele>820</ele>
        <time>2019-06-17T08:50:22Z</time>
      </trkpt>
      <trkpt lat="44.19281" lon="5.53747">
        <ele>820</ele>
        <time>2019-06-17T08:50:23Z</time>
      </trkpt>
      <trkpt lat="44.19276" lon="5.53746">
        <ele>820</ele>
        <time>2019-06-17T08:50:24Z</time>
      </trkpt>
      <trkpt lat="44.19272" lon="5.53746">
        <ele>820</ele>
        <time>2019-06-17T08:50:25Z</time>
      </trkpt>
      <trkpt lat="44.19267" lon="5.53746">
        <ele>820</ele>
        <time>2019-06-17T08:50:26Z</time>
      </trkpt>
      <trkpt lat="44.19263" lon="5.53746">
        <ele>820</ele>
        <time>2019-06-17T08:50:27Z</time>
      </trkpt>
      <trkpt lat="44.19258" lon="5.53745">
        <ele>821</ele>
        <time>2019-06-17T08:50:28Z</time>
      </trkpt>
      <trkpt lat="44.19254" lon="5.53745">
        <ele>821</ele>
        <time>2019-06-17T08:50:29Z</time>
      </trkpt>
      <trkpt lat="44.1925" lon="5.53745">
        <ele>821</ele>
        <time>2019-06-17T08:50:30Z</time>
      </trkpt>
      <trkpt lat="44.19246" lon="5.53745">
        <ele>821</ele>
        <time>2019-06-17T08:50:31Z</time>
      </trkpt>
      <trkpt lat="44.19241" lon="5.53744">
        <ele>821</ele>
        <time>2019-06-17T08:50:32Z</time>
      </trkpt>
      <trkpt lat="44.19237" lon="5.53744">
        <ele>821</ele>
        <time>2019-06-17T08:50:33Z</time>
      </trkpt>
      <trkpt lat="44.19233" lon="5.53743">
        <ele>822</ele>
        <time>2019-06-17T08:50:34Z</time>
      </trkpt>
      <trkpt lat="44.19228" lon="5.53743">
        <ele>822</ele>
        <time>2019-06-17T08:50:35Z</time>
      </trkpt>
      <trkpt lat="44.19224" lon="5.53742">
        <ele>822</ele>
        <time>2019-06-17T08:50:36Z</time>
      </trkpt>
      <trkpt lat="44.1922" lon="5.53742">
        <ele>822</ele>
        <time>2019-06-17T08:50:37Z</time>
      </trkpt>
      <trkpt lat="44.19215" lon="5.53742">
        <ele>822</ele>
        <time>2019-06-17T08:50:38Z</time>
      </trkpt>
      <trkpt lat="44.19211" lon="5.53741">
        <ele>823</ele>
        <time>2019-06-17T08:50:39Z</time>
      </trkpt>
      <trkpt lat="44.19207" lon="5.53741">
        <ele>823</ele>
        <time>2019-06-17T08:50:40Z</time>
      </trkpt>
      <trkpt lat="44.19202" lon="5.5374">
        <ele>824</ele>
        <time>2019-06-17T08:50:41Z</time>
      </trkpt>
      <trkpt lat="44.19199" lon="5.5374">
        <ele>824</ele>
        <time>2019-06-17T08:50:42Z</time>
      </trkpt>
      <trkpt lat="44.19195" lon="5.53739">
        <ele>824</ele>
        <time>2019-06-17T08:50:43Z</time>
      </trkpt>
      <trkpt lat="44.19191" lon="5.53739">
        <ele>825</ele>
        <time>2019-06-17T08:50:44Z</time>
      </trkpt>
      <trkpt lat="44.19187" lon="5.53738">
        <ele>825</ele>
        <time>2019-06-17T08:50:45Z</time>
      </trkpt>
      <trkpt lat="44.19183" lon="5.53738">
        <ele>825</ele>
        <time>2019-06-17T08:50:46Z</time>
      </trkpt>
      <trkpt lat="44.19179" lon="5.53738">
        <ele>826</ele>
        <time>2019-06-17T08:50:47Z</time>
      </trkpt>
      <trkpt lat="44.19175" lon="5.53737">
        <ele>826</ele>
        <time>2019-06-17T08:50:48Z</time>
      </trkpt>
      <trkpt lat="44.19171" lon="5.53737">
        <ele>827</ele>
        <time>2019-06-17T08:50:49Z</time>
      </trkpt>
      <trkpt lat="44.19167" lon="5.53737">
        <ele>827</ele>
        <time>2019-06-17T08:50:50Z</time>
      </trkpt>
      <trkpt lat="44.19163" lon="5.53737">
        <ele>827</ele>
        <time>2019-06-17T08:50:51Z</time>
      </trkpt>
      <trkpt lat="44.19159" lon="5.53736">
        <ele>828</ele>
        <time>2019-06-17T08:50:52Z</time>
      </trkpt>
      <trkpt lat="44.19155" lon="5.53736">
        <ele>828</ele>
        <time>2019-06-17T08:50:53Z</time>
      </trkpt>
      <trkpt lat="44.19151" lon="5.53735">
        <ele>828</ele>
        <time>2019-06-17T08:50:54Z</time>
      </trkpt>
      <trkpt lat="44.19147" lon="5.53736">
        <ele>829</ele>
        <time>2019-06-17T08:50:55Z</time>
      </trkpt>
      <trkpt lat="44.19143" lon="5.53736">
        <ele>829</ele>
        <time>2019-06-17T08:50:56Z</time>
      </trkpt>
      <trkpt lat="44.1914" lon="5.53736">
        <ele>829</ele>
        <time>2019-06-17T08:50:57Z</time>
      </trkpt>
      <trkpt lat="44.19136" lon="5.53735">
        <ele>829</ele>
        <time>2019-06-17T08:50:58Z</time>
      </trkpt>
      <trkpt lat="44.19133" lon="5.53735">
        <ele>830</ele>
        <time>2019-06-17T08:50:59Z</time>
      </trkpt>
      <trkpt lat="44.19129" lon="5.53735">
        <ele>830</ele>
        <time>2019-06-17T08:51:00Z</time>
      </trkpt>
      <trkpt lat="44.19126" lon="5.53734">
        <ele>830</ele>
        <time>2019-06-17T08:51:01Z</time>
      </trkpt>
      <trkpt lat="44.19122" lon="5.53733">
        <ele>830</ele>
        <time>2019-06-17T08:51:02Z</time>
      </trkpt>
      <trkpt lat="44.19119" lon="5.53732">
        <ele>830</ele>
        <time>2019-06-17T08:51:03Z</time>
      </trkpt>
      <trkpt lat="44.19116" lon="5.53732">
        <ele>831</ele>
        <time>2019-06-17T08:51:04Z</time>
      </trkpt>
      <trkpt lat="44.19112" lon="5.53733">
        <ele>831</ele>
        <time>2019-06-17T08:51:05Z</time>
      </trkpt>
      <trkpt lat="44.19109" lon="5.53733">
        <ele>831</ele>
        <time>2019-06-17T08:51:06Z</time>
      </trkpt>
      <trkpt lat="44.19106" lon="5.53733">
        <ele>831</ele>
        <time>2019-06-17T08:51:07Z</time>
      </trkpt>
      <trkpt lat="44.19102" lon="5.53732">
        <ele>831</ele>
        <time>2019-06-17T08:51:08Z</time>
      </trkpt>
      <trkpt lat="44.19099" lon="5.53732">
        <ele>831</ele>
        <time>2019-06-17T08:51:09Z</time>
      </trkpt>
      <trkpt lat="44.19096" lon="5.53731">
        <ele>832</ele>
        <time>2019-06-17T08:51:10Z</time>
      </trkpt>
      <trkpt lat="44.19092" lon="5.53731">
        <ele>832</ele>
        <time>2019-06-17T08:51:11Z</time>
      </trkpt>
      <trkpt lat="44.19089" lon="5.5373">
        <ele>832</ele>
        <time>2019-06-17T08:51:12Z</time>
      </trkpt>
      <trkpt lat="44.19085" lon="5.53731">
        <ele>832</ele>
        <time>2019-06-17T08:51:13Z</time>
      </trkpt>
      <trkpt lat="44.19082" lon="5.5373">
        <ele>832</ele>
        <time>2019-06-17T08:51:14Z</time>
      </trkpt>
      <trkpt lat="44.19078" lon="5.5373">
        <ele>833</ele>
        <time>2019-06-17T08:51:15Z</time>
      </trkpt>
      <trkpt lat="44.19075" lon="5.5373">
        <ele>833</ele>
        <time>2019-06-17T08:51:16Z</time>
      </trkpt>
      <trkpt lat="44.19072" lon="5.5373">
        <ele>834</ele>
        <time>2019-06-17T08:51:17Z</time>
      </trkpt>
      <trkpt lat="44.19069" lon="5.53729">
        <ele>834</ele>
        <time>2019-06-17T08:51:18Z</time>
      </trkpt>
      <trkpt lat="44.19065" lon="5.53729">
        <ele>834</ele>
        <time>2019-06-17T08:51:19Z</time>
      </trkpt>
      <trkpt lat="44.19062" lon="5.53728">
        <ele>834</ele>
        <time>2019-06-17T08:51:20Z</time>
      </trkpt>
      <trkpt lat="44.19059" lon="5.53728">
        <ele>835</ele>
        <time>2019-06-17T08:51:21Z</time>
      </trkpt>
      <trkpt lat="44.19055" lon="5.53727">
        <ele>835</ele>
        <time>2019-06-17T08:51:22Z</time>
      </trkpt>
      <trkpt lat="44.19052" lon="5.53727">
        <ele>835</ele>
        <time>2019-06-17T08:51:23Z</time>
      </trkpt>
      <trkpt lat="44.19048" lon="5.53727">
        <ele>835</ele>
        <time>2019-06-17T08:51:24Z</time>
      </trkpt>
      <trkpt lat="44.19045" lon="5.53727">
        <ele>835</ele>
        <time>2019-06-17T08:51:25Z</time>
      </trkpt>
      <trkpt lat="44.19042" lon="5.53727">
        <ele>835</ele>
        <time>2019-06-17T08:51:26Z</time>
      </trkpt>
      <trkpt lat="44.19038" lon="5.53726">
        <ele>836</ele>
        <time>2019-06-17T08:51:27Z</time>
      </trkpt>
      <trkpt lat="44.19035" lon="5.53726">
        <ele>836</ele>
        <time>2019-06-17T08:51:28Z</time>
      </trkpt>
      <trkpt lat="44.19032" lon="5.53726">
        <ele>836</ele>
        <time>2019-06-17T08:51:29Z</time>
      </trkpt>
      <trkpt lat="44.19028" lon="5.53725">
        <ele>836</ele>
        <time>2019-06-17T08:51:30Z</time>
      </trkpt>
      <trkpt lat="44.19025" lon="5.53724">
        <ele>837</ele>
        <time>2019-06-17T08:51:31Z</time>
      </trkpt>
      <trkpt lat="44.19022" lon="5.53724">
        <ele>837</ele>
        <time>2019-06-17T08:51:32Z</time>
      </trkpt>
      <trkpt lat="44.19019" lon="5.53724">
        <ele>837</ele>
        <time>2019-06-17T08:51:33Z</time>
      </trkpt>
      <trkpt lat="44.19015" lon="5.53723">
        <ele>837</ele>
        <time>2019-06-17T08:51:34Z</time>
      </trkpt>
      <trkpt lat="44.19012" lon="5.53723">
        <ele>837</ele>
        <time>2019-06-17T08:51:35Z</time>
      </trkpt>
      <trkpt lat="44.19009" lon="5.53722">
        <ele>837</ele>
        <time>2019-06-17T08:51:36Z</time>
      </trkpt>
      <trkpt lat="44.19005" lon="5.53722">
        <ele>837</ele>
        <time>2019-06-17T08:51:37Z</time>
      </trkpt>
      <trkpt lat="44.19002" lon="5.53721">
        <ele>837</ele>
        <time>2019-06-17T08:51:38Z</time>
      </trkpt>
      <trkpt lat="44.18999" lon="5.5372">
        <ele>838</ele>
        <time>2019-06-17T08:51:39Z</time>
      </trkpt>
      <trkpt lat="44.18996" lon="5.5372">
        <ele>838</ele>
        <time>2019-06-17T08:51:40Z</time>
      </trkpt>
      <trkpt lat="44.18993" lon="5.53719">
        <ele>838</ele>
        <time>2019-06-17T08:51:41Z</time>
      </trkpt>
      <trkpt lat="44.18989" lon="5.53719">
        <ele>839</ele>
        <time>2019-06-17T08:51:42Z</time>
      </trkpt>
      <trkpt lat="44.18986" lon="5.53718">
        <ele>839</ele>
        <time>2019-06-17T08:51:43Z</time>
      </trkpt>
      <trkpt lat="44.18983" lon="5.53718">
        <ele>839</ele>
        <time>2019-06-17T08:51:44Z</time>
      </trkpt>
      <trkpt lat="44.1898" lon="5.53717">
        <ele>839</ele>
        <time>2019-06-17T08:51:45Z</time>
      </trkpt>
      <trkpt lat="44.18977" lon="5.53715">
        <ele>839</ele>
        <time>2019-06-17T08:51:46Z</time>
      </trkpt>
      <trkpt lat="44.18975" lon="5.53714">
        <ele>839</ele>
        <time>2019-06-17T08:51:47Z</time>
      </trkpt>
      <trkpt lat="44.18972" lon="5.53714">
        <ele>839</ele>
        <time>2019-06-17T08:51:48Z</time>
      </trkpt>
      <trkpt lat="44.18969" lon="5.53714">
        <ele>839</ele>
        <time>2019-06-17T08:51:49Z</time>
      </trkpt>
      <trkpt lat="44.18966" lon="5.53714">
        <ele>839</ele>
        <time>2019-06-17T08:51:50Z</time>
      </trkpt>
      <trkpt lat="44.18962" lon="5.53714">
        <ele>839</ele>
        <time>2019-06-17T08:51:51Z</time>
      </trkpt>
      <trkpt lat="44.18959" lon="5.53715">
        <ele>839</ele>
        <time>2019-06-17T08:51:52Z</time>
      </trkpt>
      <trkpt lat="44.18956" lon="5.53716">
        <ele>840</ele>
        <time>2019-06-17T08:51:53Z</time>
      </trkpt>
      <trkpt lat="44.18953" lon="5.53717">
        <ele>840</ele>
        <time>2019-06-17T08:51:54Z</time>
      </trkpt>
      <trkpt lat="44.1895" lon="5.53718">
        <ele>840</ele>
        <time>2019-06-17T08:51:55Z</time>
      </trkpt>
      <trkpt lat="44.18948" lon="5.53719">
        <ele>840</ele>
        <time>2019-06-17T08:51:56Z</time>
      </trkpt>
      <trkpt lat="44.18945" lon="5.53721">
        <ele>840</ele>
        <time>2019-06-17T08:51:57Z</time>
      </trkpt>
      <trkpt lat="44.18942" lon="5.53723">
        <ele>840</ele>
        <time>2019-06-17T08:51:58Z</time>
      </trkpt>
      <trkpt lat="44.18939" lon="5.53725">
        <ele>840</ele>
        <time>2019-06-17T08:51:59Z</time>
      </trkpt>
      <trkpt lat="44.18936" lon="5.53727">
        <ele>840</ele>
        <time>2019-06-17T08:52:00Z</time>
      </trkpt>
      <trkpt lat="44.18933" lon="5.53729">
        <ele>840</ele>
        <time>2019-06-17T08:52:01Z</time>
      </trkpt>
      <trkpt lat="44.18931" lon="5.53731">
        <ele>840</ele>
        <time>2019-06-17T08:52:02Z</time>
      </trkpt>
      <trkpt lat="44.18928" lon="5.53733">
        <ele>840</ele>
        <time>2019-06-17T08:52:03Z</time>
      </trkpt>
      <trkpt lat="44.18925" lon="5.53735">
        <ele>840</ele>
        <time>2019-06-17T08:52:04Z</time>
      </trkpt>
      <trkpt lat="44.18923" lon="5.53736">
        <ele>840</ele>
        <time>2019-06-17T08:52:05Z</time>
      </trkpt>
      <trkpt lat="44.1892" lon="5.53738">
        <ele>840</ele>
        <time>2019-06-17T08:52:06Z</time>
      </trkpt>
      <trkpt lat="44.18917" lon="5.5374">
        <ele>840</ele>
        <time>2019-06-17T08:52:07Z</time>
      </trkpt>
      <trkpt lat="44.18914" lon="5.53742">
        <ele>840</ele>
        <time>2019-06-17T08:52:08Z</time>
      </trkpt>
      <trkpt lat="44.18911" lon="5.53743">
        <ele>840</ele>
        <time>2019-06-17T08:52:09Z</time>
      </trkpt>
      <trkpt lat="44.18909" lon="5.53745">
        <ele>840</ele>
        <time>2019-06-17T08:52:10Z</time>
      </trkpt>
      <trkpt lat="44.18906" lon="5.53746">
        <ele>840</ele>
        <time>2019-06-17T08:52:11Z</time>
      </trkpt>
      <trkpt lat="44.18903" lon="5.53747">
        <ele>841</ele>
        <time>2019-06-17T08:52:12Z</time>
      </trkpt>
      <trkpt lat="44.18901" lon="5.53748">
        <ele>841</ele>
        <time>2019-06-17T08:52:13Z</time>
      </trkpt>
      <trkpt lat="44.18898" lon="5.53749">
        <ele>841</ele>
        <time>2019-06-17T08:52:14Z</time>
      </trkpt>
      <trkpt lat="44.18895" lon="5.5375">
        <ele>842</ele>
        <time>2019-06-17T08:52:15Z</time>
      </trkpt>
      <trkpt lat="44.18892" lon="5.5375">
        <ele>842</ele>
        <time>2019-06-17T08:52:16Z</time>
      </trkpt>
      <trkpt lat="44.18889" lon="5.53751">
        <ele>842</ele>
        <time>2019-06-17T08:52:17Z</time>
      </trkpt>
      <trkpt lat="44.18887" lon="5.53752">
        <ele>842</ele>
        <time>2019-06-17T08:52:18Z</time>
      </trkpt>
      <trkpt lat="44.18884" lon="5.53753">
        <ele>843</ele>
        <time>2019-06-17T08:52:19Z</time>
      </trkpt>
      <trkpt lat="44.18881" lon="5.53754">
        <ele>843</ele>
        <time>2019-06-17T08:52:20Z</time>
      </trkpt>
      <trkpt lat="44.18878" lon="5.53755">
        <ele>843</ele>
        <time>2019-06-17T08:52:21Z</time>
      </trkpt>
      <trkpt lat="44.18876" lon="5.53755">
        <ele>843</ele>
        <time>2019-06-17T08:52:22Z</time>
      </trkpt>
      <trkpt lat="44.18873" lon="5.53756">
        <ele>843</ele>
        <time>2019-06-17T08:52:23Z</time>
      </trkpt>
      <trkpt lat="44.1887" lon="5.53757">
        <ele>844</ele>
        <time>2019-06-17T08:52:24Z</time>
      </trkpt>
      <trkpt lat="44.18867" lon="5.53757">
        <ele>844</ele>
        <time>2019-06-17T08:52:25Z</time>
      </trkpt>
      <trkpt lat="44.18865" lon="5.53758">
        <ele>844</ele>
        <time>2019-06-17T08:52:26Z</time>
      </trkpt>
      <trkpt lat="44.18862" lon="5.53759">
        <ele>844</ele>
        <time>2019-06-17T08:52:27Z</time>
      </trkpt>
      <trkpt lat="44.1886" lon="5.53759">
        <ele>844</ele>
        <time>2019-06-17T08:52:28Z</time>
      </trkpt>
      <trkpt lat="44.18857" lon="5.53759">
        <ele>844</ele>
        <time>2019-06-17T08:52:29Z</time>
      </trkpt>
      <trkpt lat="44.18854" lon="5.53759">
        <ele>844</ele>
        <time>2019-06-17T08:52:30Z</time>
      </trkpt>
      <trkpt lat="44.18852" lon="5.53759">
        <ele>844</ele>
        <time>2019-06-17T08:52:31Z</time>
      </trkpt>
      <trkpt lat="44.18849" lon="5.5376">
        <ele>844</ele>
        <time>2019-06-17T08:52:32Z</time>
      </trkpt>
      <trkpt lat="44.18846" lon="5.5376">
        <ele>844</ele>
        <time>2019-06-17T08:52:33Z</time>
      </trkpt>
      <trkpt lat="44.18843" lon="5.53761">
        <ele>844</ele>
        <time>2019-06-17T08:52:34Z</time>
      </trkpt>
      <trkpt lat="44.18841" lon="5.5376">
        <ele>845</ele>
        <time>2019-06-17T08:52:35Z</time>
      </trkpt>
      <trkpt lat="44.18838" lon="5.5376">
        <ele>845</ele>
        <time>2019-06-17T08:52:36Z</time>
      </trkpt>
      <trkpt lat="44.18835" lon="5.5376">
        <ele>845</ele>
        <time>2019-06-17T08:52:37Z</time>
      </trkpt>
      <trkpt lat="44.18833" lon="5.5376">
        <ele>846</ele>
        <time>2019-06-17T08:52:38Z</time>
      </trkpt>
      <trkpt lat="44.1883" lon="5.53759">
        <ele>846</ele>
        <time>2019-06-17T08:52:39Z</time>
      </trkpt>
      <trkpt lat="44.18827" lon="5.53759">
        <ele>846</ele>
        <time>2019-06-17T08:52:40Z</time>
      </trkpt>
      <trkpt lat="44.18825" lon="5.53759">
        <ele>846</ele>
        <time>2019-06-17T08:52:41Z</time>
      </trkpt>
      <trkpt lat="44.18822" lon="5.53759">
        <ele>847</ele>
        <time>2019-06-17T08:52:42Z</time>
      </trkpt>
      <trkpt lat="44.18819" lon="5.53758">
        <ele>848</ele>
        <time>2019-06-17T08:52:43Z</time>
      </trkpt>
      <trkpt lat="44.18817" lon="5.53757">
        <ele>848</ele>
        <time>2019-06-17T08:52:44Z</time>
      </trkpt>
      <trkpt lat="44.18814" lon="5.53756">
        <ele>849</ele>
        <time>2019-06-17T08:52:45Z</time>
      </trkpt>
      <trkpt lat="44.18811" lon="5.53755">
        <ele>849</ele>
        <time>2019-06-17T08:52:46Z</time>
      </trkpt>
      <trkpt lat="44.18809" lon="5.53755">
        <ele>849</ele>
        <time>2019-06-17T08:52:47Z</time>
      </trkpt>
      <trkpt lat="44.18806" lon="5.53755">
        <ele>850</ele>
        <time>2019-06-17T08:52:48Z</time>
      </trkpt>
      <trkpt lat="44.18803" lon="5.53754">
        <ele>850</ele>
        <time>2019-06-17T08:52:49Z</time>
      </trkpt>
      <trkpt lat="44.18801" lon="5.53755">
        <ele>850</ele>
        <time>2019-06-17T08:52:50Z</time>
      </trkpt>
      <trkpt lat="44.18798" lon="5.53755">
        <ele>850</ele>
        <time>2019-06-17T08:52:51Z</time>
      </trkpt>
      <trkpt lat="44.18795" lon="5.53756">
        <ele>850</ele>
        <time>2019-06-17T08:52:52Z</time>
      </trkpt>
      <trkpt lat="44.18792" lon="5.53757">
        <ele>850</ele>
        <time>2019-06-17T08:52:53Z</time>
      </trkpt>
      <trkpt lat="44.18789" lon="5.53757">
        <ele>850</ele>
        <time>2019-06-17T08:52:54Z</time>
      </trkpt>
      <trkpt lat="44.18785" lon="5.53758">
        <ele>850</ele>
        <time>2019-06-17T08:52:55Z</time>
      </trkpt>
      <trkpt lat="44.18782" lon="5.53758">
        <ele>850</ele>
        <time>2019-06-17T08:52:56Z</time>
      </trkpt>
      <trkpt lat="44.18779" lon="5.53758">
        <ele>850</ele>
        <time>2019-06-17T08:52:57Z</time>
      </trkpt>
      <trkpt lat="44.18776" lon="5.53758">
        <ele>850</ele>
        <time>2019-06-17T08:52:58Z</time>
      </trkpt>
      <trkpt lat="44.18773" lon="5.53758">
        <ele>850</ele>
        <time>2019-06-17T08:52:59Z</time>
      </trkpt>
      <trkpt lat="44.1877" lon="5.53759">
        <ele>850</ele>
        <time>2019-06-17T08:53:00Z</time>
      </trkpt>
      <trkpt lat="44.18767" lon="5.53758">
        <ele>850</ele>
        <time>2019-06-17T08:53:01Z</time>
      </trkpt>
      <trkpt lat="44.18764" lon="5.53757">
        <ele>851</ele>
        <time>2019-06-17T08:53:02Z</time>
      </trkpt>
      <trkpt lat="44.18761" lon="5.53757">
        <ele>851</ele>
        <time>2019-06-17T08:53:03Z</time>
      </trkpt>
      <trkpt lat="44.18758" lon="5.53756">
        <ele>852</ele>
        <time>2019-06-17T08:53:04Z</time>
      </trkpt>
      <trkpt lat="44.18755" lon="5.53755">
        <ele>852</ele>
        <time>2019-06-17T08:53:05Z</time>
      </trkpt>
      <trkpt lat="44.18753" lon="5.53753">
        <ele>852</ele>
        <time>2019-06-17T08:53:06Z</time>
      </trkpt>
      <trkpt lat="44.1875" lon="5.53751">
        <ele>853</ele>
        <time>2019-06-17T08:53:07Z</time>
      </trkpt>
      <trkpt lat="44.18748" lon="5.53748">
        <ele>853</ele>
        <time>2019-06-17T08:53:08Z</time>
      </trkpt>
      <trkpt lat="44.18746" lon="5.53745">
        <ele>854</ele>
        <time>2019-06-17T08:53:09Z</time>
      </trkpt>
      <trkpt lat="44.18744" lon="5.53741">
        <ele>854</ele>
        <time>2019-06-17T08:53:10Z</time>
      </trkpt>
      <trkpt lat="44.18742" lon="5.53738">
        <ele>854</ele>
        <time>2019-06-17T08:53:11Z</time>
      </trkpt>
      <trkpt lat="44.1874" lon="5.53734">
        <ele>854</ele>
        <time>2019-06-17T08:53:12Z</time>
      </trkpt>
      <trkpt lat="44.18739" lon="5.53731">
        <ele>854</ele>
        <time>2019-06-17T08:53:13Z</time>
      </trkpt>
      <trkpt lat="44.18737" lon="5.53727">
        <ele>854</ele>
        <time>2019-06-17T08:53:14Z</time>
      </trkpt>
      <trkpt lat="44.18736" lon="5.53723">
        <ele>854</ele>
        <time>2019-06-17T08:53:15Z</time>
      </trkpt>
      <trkpt lat="44.18734" lon="5.5372">
        <ele>854</ele>
        <time>2019-06-17T08:53:16Z</time>
      </trkpt>
      <trkpt lat="44.18733" lon="5.53716">
        <ele>854</ele>
        <time>2019-06-17T08:53:17Z</time>
      </trkpt>
      <trkpt lat="44.18732" lon="5.53712">
        <ele>854</ele>
        <time>2019-06-17T08:53:18Z</time>
      </trkpt>
      <trkpt lat="44.18731" lon="5.53708">
        <ele>855</ele>
        <time>2019-06-17T08:53:19Z</time>
      </trkpt>
      <trkpt lat="44.1873" lon="5.53704">
        <ele>855</ele>
        <time>2019-06-17T08:53:20Z</time>
      </trkpt>
      <trkpt lat="44.18729" lon="5.537">
        <ele>855</ele>
        <time>2019-06-17T08:53:21Z</time>
      </trkpt>
      <trkpt lat="44.18729" lon="5.53696">
        <ele>855</ele>
        <time>2019-06-17T08:53:22Z</time>
      </trkpt>
      <trkpt lat="44.18728" lon="5.53692">
        <ele>855</ele>
        <time>2019-06-17T08:53:23Z</time>
      </trkpt>
      <trkpt lat="44.18728" lon="5.53688">
        <ele>856</ele>
        <time>2019-06-17T08:53:24Z</time>
      </trkpt>
      <trkpt lat="44.18727" lon="5.53684">
        <ele>856</ele>
        <time>2019-06-17T08:53:25Z</time>
      </trkpt>
      <trkpt lat="44.18726" lon="5.53681">
        <ele>856</ele>
        <time>2019-06-17T08:53:26Z</time>
      </trkpt>
      <trkpt lat="44.18726" lon="5.53677">
        <ele>856</ele>
        <time>2019-06-17T08:53:27Z</time>
      </trkpt>
      <trkpt lat="44.18725" lon="5.53673">
        <ele>856</ele>
        <time>2019-06-17T08:53:28Z</time>
      </trkpt>
      <trkpt lat="44.18724" lon="5.53669">
        <ele>856</ele>
        <time>2019-06-17T08:53:29Z</time>
      </trkpt>
      <trkpt lat="44.18724" lon="5.53665">
        <ele>856</ele>
        <time>2019-06-17T08:53:30Z</time>
      </trkpt>
      <trkpt lat="44.18723" lon="5.53662">
        <ele>857</ele>
        <time>2019-06-17T08:53:31Z</time>
      </trkpt>
      <trkpt lat="44.18723" lon="5.53658">
        <ele>857</ele>
        <time>2019-06-17T08:53:32Z</time>
      </trkpt>
      <trkpt lat="44.18722" lon="5.53654">
        <ele>857</ele>
        <time>2019-06-17T08:53:33Z</time>
      </trkpt>
      <trkpt lat="44.18721" lon="5.5365">
        <ele>857</ele>
        <time>2019-06-17T08:53:34Z</time>
      </trkpt>
      <trkpt lat="44.18721" lon="5.53646">
        <ele>857</ele>
        <time>2019-06-17T08:53:35Z</time>
      </trkpt>
      <trkpt lat="44.1872" lon="5.53642">
        <ele>857</ele>
        <time>2019-06-17T08:53:36Z</time>
      </trkpt>
      <trkpt lat="44.18719" lon="5.53638">
        <ele>857</ele>
        <time>2019-06-17T08:53:37Z</time>
      </trkpt>
      <trkpt lat="44.18718" lon="5.53633">
        <ele>857</ele>
        <time>2019-06-17T08:53:38Z</time>
      </trkpt>
      <trkpt lat="44.18718" lon="5.53629">
        <ele>857</ele>
        <time>2019-06-17T08:53:39Z</time>
      </trkpt>
      <trkpt lat="44.18717" lon="5.53625">
        <ele>858</ele>
        <time>2019-06-17T08:53:40Z</time>
      </trkpt>
      <trkpt lat="44.18716" lon="5.53621">
        <ele>858</ele>
        <time>2019-06-17T08:53:41Z</time>
      </trkpt>
      <trkpt lat="44.18716" lon="5.53617">
        <ele>858</ele>
        <time>2019-06-17T08:53:42Z</time>
      </trkpt>
      <trkpt lat="44.18715" lon="5.53613">
        <ele>858</ele>
        <time>2019-06-17T08:53:43Z</time>
      </trkpt>
      <trkpt lat="44.18714" lon="5.53608">
        <ele>858</ele>
        <time>2019-06-17T08:53:44Z</time>
      </trkpt>
      <trkpt lat="44.18713" lon="5.53604">
        <ele>858</ele>
        <time>2019-06-17T08:53:45Z</time>
      </trkpt>
      <trkpt lat="44.18713" lon="5.536">
        <ele>858</ele>
        <time>2019-06-17T08:53:46Z</time>
      </trkpt>
      <trkpt lat="44.18712" lon="5.53596">
        <ele>858</ele>
        <time>2019-06-17T08:53:47Z</time>
      </trkpt>
      <trkpt lat="44.18711" lon="5.53592">
        <ele>858</ele>
        <time>2019-06-17T08:53:48Z</time>
      </trkpt>
      <trkpt lat="44.18711" lon="5.53588">
        <ele>859</ele>
        <time>2019-06-17T08:53:49Z</time>
      </trkpt>
      <trkpt lat="44.1871" lon="5.53584">
        <ele>859</ele>
        <time>2019-06-17T08:53:50Z</time>
      </trkpt>
      <trkpt lat="44.18709" lon="5.53581">
        <ele>859</ele>
        <time>2019-06-17T08:53:51Z</time>
      </trkpt>
      <trkpt lat="44.18708" lon="5.53577">
        <ele>859</ele>
        <time>2019-06-17T08:53:52Z</time>
      </trkpt>
      <trkpt lat="44.18708" lon="5.53573">
        <ele>860</ele>
        <time>2019-06-17T08:53:53Z</time>
      </trkpt>
      <trkpt lat="44.18707" lon="5.53569">
        <ele>860</ele>
        <time>2019-06-17T08:53:54Z</time>
      </trkpt>
      <trkpt lat="44.18706" lon="5.53565">
        <ele>860</ele>
        <time>2019-06-17T08:53:55Z</time>
      </trkpt>
      <trkpt lat="44.18705" lon="5.53561">
        <ele>860</ele>
        <time>2019-06-17T08:53:56Z</time>
      </trkpt>
      <trkpt lat="44.18705" lon="5.53557">
        <ele>861</ele>
        <time>2019-06-17T08:53:57Z</time>
      </trkpt>
      <trkpt lat="44.18704" lon="5.53553">
        <ele>861</ele>
        <time>2019-06-17T08:53:58Z</time>
      </trkpt>
      <trkpt lat="44.18703" lon="5.53549">
        <ele>861</ele>
        <time>2019-06-17T08:53:59Z</time>
      </trkpt>
      <trkpt lat="44.18703" lon="5.53545">
        <ele>861</ele>
        <time>2019-06-17T08:54:00Z</time>
      </trkpt>
      <trkpt lat="44.18702" lon="5.53541">
        <ele>862</ele>
        <time>2019-06-17T08:54:01Z</time>
      </trkpt>
      <trkpt lat="44.18702" lon="5.53537">
        <ele>862</ele>
        <time>2019-06-17T08:54:02Z</time>
      </trkpt>
      <trkpt lat="44.18701" lon="5.53533">
        <ele>862</ele>
        <time>2019-06-17T08:54:03Z</time>
      </trkpt>
      <trkpt lat="44.187" lon="5.5353">
        <ele>862</ele>
        <time>2019-06-17T08:54:04Z</time>
      </trkpt>
      <trkpt lat="44.18699" lon="5.53526">
        <ele>862</ele>
        <time>2019-06-17T08:54:05Z</time>
      </trkpt>
      <trkpt lat="44.18698" lon="5.53522">
        <ele>862</ele>
        <time>2019-06-17T08:54:06Z</time>
      </trkpt>
      <trkpt lat="44.18697" lon="5.53518">
        <ele>862</ele>
        <time>2019-06-17T08:54:07Z</time>
      </trkpt>
      <trkpt lat="44.18697" lon="5.53514">
        <ele>862</ele>
        <time>2019-06-17T08:54:08Z</time>
      </trkpt>
      <trkpt lat="44.18695" lon="5.5351">
        <ele>862</ele>
        <time>2019-06-17T08:54:09Z</time>
      </trkpt>
      <trkpt lat="44.18694" lon="5.53507">
        <ele>863</ele>
        <time>2019-06-17T08:54:10Z</time>
      </trkpt>
      <trkpt lat="44.18693" lon="5.53503">
        <ele>863</ele>
        <time>2019-06-17T08:54:11Z</time>
      </trkpt>
      <trkpt lat="44.18692" lon="5.53499">
        <ele>863</ele>
        <time>2019-06-17T08:54:12Z</time>
      </trkpt>
      <trkpt lat="44.18691" lon="5.53495">
        <ele>863</ele>
        <time>2019-06-17T08:54:13Z</time>
      </trkpt>
      <trkpt lat="44.1869" lon="5.53491">
        <ele>863</ele>
        <time>2019-06-17T08:54:14Z</time>
      </trkpt>
      <trkpt lat="44.18688" lon="5.53487">
        <ele>863</ele>
        <time>2019-06-17T08:54:15Z</time>
      </trkpt>
      <trkpt lat="44.18687" lon="5.53484">
        <ele>864</ele>
        <time>2019-06-17T08:54:16Z</time>
      </trkpt>
      <trkpt lat="44.18685" lon="5.5348">
        <ele>864</ele>
        <time>2019-06-17T08:54:17Z</time>
      </trkpt>
      <trkpt lat="44.18683" lon="5.53476">
        <ele>864</ele>
        <time>2019-06-17T08:54:18Z</time>
      </trkpt>
      <trkpt lat="44.18681" lon="5.53472">
        <ele>864</ele>
        <time>2019-06-17T08:54:19Z</time>
      </trkpt>
      <trkpt lat="44.18679" lon="5.53469">
        <ele>864</ele>
        <time>2019-06-17T08:54:20Z</time>
      </trkpt>
      <trkpt lat="44.18677" lon="5.53466">
        <ele>864</ele>
        <time>2019-06-17T08:54:21Z</time>
      </trkpt>
      <trkpt lat="44.18674" lon="5.53464">
        <ele>864</ele>
        <time>2019-06-17T08:54:22Z</time>
      </trkpt>
      <trkpt lat="44.18672" lon="5.53461">
        <ele>865</ele>
        <time>2019-06-17T08:54:23Z</time>
      </trkpt>
      <trkpt lat="44.18669" lon="5.53459">
        <ele>865</ele>
        <time>2019-06-17T08:54:24Z</time>
      </trkpt>
      <trkpt lat="44.18667" lon="5.53456">
        <ele>865</ele>
        <time>2019-06-17T08:54:25Z</time>
      </trkpt>
      <trkpt lat="44.18664" lon="5.53454">
        <ele>865</ele>
        <time>2019-06-17T08:54:26Z</time>
      </trkpt>
      <trkpt lat="44.18662" lon="5.53452">
        <ele>866</ele>
        <time>2019-06-17T08:54:27Z</time>
      </trkpt>
      <trkpt lat="44.18659" lon="5.5345">
        <ele>866</ele>
        <time>2019-06-17T08:54:28Z</time>
      </trkpt>
      <trkpt lat="44.18657" lon="5.53448">
        <ele>866</ele>
        <time>2019-06-17T08:54:29Z</time>
      </trkpt>
      <trkpt lat="44.18655" lon="5.53446">
        <ele>867</ele>
        <time>2019-06-17T08:54:30Z</time>
      </trkpt>
      <trkpt lat="44.18652" lon="5.53444">
        <ele>867</ele>
        <time>2019-06-17T08:54:31Z</time>
      </trkpt>
      <trkpt lat="44.1865" lon="5.53442">
        <ele>867</ele>
        <time>2019-06-17T08:54:32Z</time>
      </trkpt>
      <trkpt lat="44.18648" lon="5.5344">
        <ele>867</ele>
        <time>2019-06-17T08:54:33Z</time>
      </trkpt>
      <trkpt lat="44.18646" lon="5.53437">
        <ele>868</ele>
        <time>2019-06-17T08:54:34Z</time>
      </trkpt>
      <trkpt lat="44.18644" lon="5.53434">
        <ele>868</ele>
        <time>2019-06-17T08:54:35Z</time>
      </trkpt>
      <trkpt lat="44.18642" lon="5.53432">
        <ele>868</ele>
        <time>2019-06-17T08:54:36Z</time>
      </trkpt>
      <trkpt lat="44.1864" lon="5.53429">
        <ele>868</ele>
        <time>2019-06-17T08:54:37Z</time>
      </trkpt>
      <trkpt lat="44.18638" lon="5.53426">
        <ele>869</ele>
        <time>2019-06-17T08:54:38Z</time>
      </trkpt>
      <trkpt lat="44.18636" lon="5.53422">
        <ele>869</ele>
        <time>2019-06-17T08:54:39Z</time>
      </trkpt>
      <trkpt lat="44.18634" lon="5.53419">
        <ele>869</ele>
        <time>2019-06-17T08:54:40Z</time>
      </trkpt>
      <trkpt lat="44.18632" lon="5.53416">
        <ele>869</ele>
        <time>2019-06-17T08:54:41Z</time>
      </trkpt>
      <trkpt lat="44.1863" lon="5.53413">
        <ele>869</ele>
        <time>2019-06-17T08:54:42Z</time>
      </trkpt>
      <trkpt lat="44.18628" lon="5.53411">
        <ele>869</ele>
        <time>2019-06-17T08:54:43Z</time>
      </trkpt>
      <trkpt lat="44.18626" lon="5.53408">
        <ele>869</ele>
        <time>2019-06-17T08:54:44Z</time>
      </trkpt>
      <trkpt lat="44.18625" lon="5.53405">
        <ele>870</ele>
        <time>2019-06-17T08:54:45Z</time>
      </trkpt>
      <trkpt lat="44.18624" lon="5.53402">
        <ele>870</ele>
        <time>2019-06-17T08:54:46Z</time>
      </trkpt>
      <trkpt lat="44.18622" lon="5.53398">
        <ele>870</ele>
        <time>2019-06-17T08:54:47Z</time>
      </trkpt>
      <trkpt lat="44.18621" lon="5.53396">
        <ele>870</ele>
        <time>2019-06-17T08:54:48Z</time>
      </trkpt>
      <trkpt lat="44.18619" lon="5.53393">
        <ele>871</ele>
        <time>2019-06-17T08:54:49Z</time>
      </trkpt>
      <trkpt lat="44.18618" lon="5.5339">
        <ele>871</ele>
        <time>2019-06-17T08:54:50Z</time>
      </trkpt>
      <trkpt lat="44.18616" lon="5.53386">
        <ele>871</ele>
        <time>2019-06-17T08:54:51Z</time>
      </trkpt>
      <trkpt lat="44.18615" lon="5.53383">
        <ele>871</ele>
        <time>2019-06-17T08:54:52Z</time>
      </trkpt>
      <trkpt lat="44.18613" lon="5.5338">
        <ele>871</ele>
        <time>2019-06-17T08:54:53Z</time>
      </trkpt>
      <trkpt lat="44.18611" lon="5.53377">
        <ele>871</ele>
        <time>2019-06-17T08:54:54Z</time>
      </trkpt>
      <trkpt lat="44.1861" lon="5.53374">
        <ele>871</ele>
        <time>2019-06-17T08:54:55Z</time>
      </trkpt>
      <trkpt lat="44.18608" lon="5.53371">
        <ele>871</ele>
        <time>2019-06-17T08:54:56Z</time>
      </trkpt>
      <trkpt lat="44.18607" lon="5.53367">
        <ele>871</ele>
        <time>2019-06-17T08:54:57Z</time>
      </trkpt>
      <trkpt lat="44.18608" lon="5.53363">
        <ele>872</ele>
        <time>2019-06-17T08:54:58Z</time>
      </trkpt>
      <trkpt lat="44.18609" lon="5.53359">
        <ele>872</ele>
        <time>2019-06-17T08:54:59Z</time>
      </trkpt>
      <trkpt lat="44.18612" lon="5.53358">
        <ele>872</ele>
        <time>2019-06-17T08:55:00Z</time>
      </trkpt>
      <trkpt lat="44.18615" lon="5.53358">
        <ele>872</ele>
        <time>2019-06-17T08:55:01Z</time>
      </trkpt>
      <trkpt lat="44.18617" lon="5.53359">
        <ele>873</ele>
        <time>2019-06-17T08:55:02Z</time>
      </trkpt>
      <trkpt lat="44.1862" lon="5.53363">
        <ele>873</ele>
        <time>2019-06-17T08:55:03Z</time>
      </trkpt>
      <trkpt lat="44.18622" lon="5.53367">
        <ele>873</ele>
        <time>2019-06-17T08:55:04Z</time>
      </trkpt>
      <trkpt lat="44.18624" lon="5.53371">
        <ele>873</ele>
        <time>2019-06-17T08:55:05Z</time>
      </trkpt>
      <trkpt lat="44.18626" lon="5.53375">
        <ele>874</ele>
        <time>2019-06-17T08:55:06Z</time>
      </trkpt>
      <trkpt lat="44.18629" lon="5.53379">
        <ele>874</ele>
        <time>2019-06-17T08:55:07Z</time>
      </trkpt>
      <trkpt lat="44.18631" lon="5.53383">
        <ele>874</ele>
        <time>2019-06-17T08:55:08Z</time>
      </trkpt>
      <trkpt lat="44.18634" lon="5.53387">
        <ele>875</ele>
        <time>2019-06-17T08:55:09Z</time>
      </trkpt>
      <trkpt lat="44.18636" lon="5.5339">
        <ele>875</ele>
        <time>2019-06-17T08:55:10Z</time>
      </trkpt>
      <trkpt lat="44.18639" lon="5.53393">
        <ele>875</ele>
        <time>2019-06-17T08:55:11Z</time>
      </trkpt>
      <trkpt lat="44.18641" lon="5.53396">
        <ele>876</ele>
        <time>2019-06-17T08:55:12Z</time>
      </trkpt>
      <trkpt lat="44.18644" lon="5.53399">
        <ele>876</ele>
        <time>2019-06-17T08:55:13Z</time>
      </trkpt>
      <trkpt lat="44.18646" lon="5.53402">
        <ele>876</ele>
        <time>2019-06-17T08:55:14Z</time>
      </trkpt>
      <trkpt lat="44.18648" lon="5.53405">
        <ele>877</ele>
        <time>2019-06-17T08:55:15Z</time>
      </trkpt>
      <trkpt lat="44.18651" lon="5.53408">
        <ele>877</ele>
        <time>2019-06-17T08:55:16Z</time>
      </trkpt>
      <trkpt lat="44.18654" lon="5.5341">
        <ele>877</ele>
        <time>2019-06-17T08:55:17Z</time>
      </trkpt>
      <trkpt lat="44.18657" lon="5.53412">
        <ele>877</ele>
        <time>2019-06-17T08:55:18Z</time>
      </trkpt>
      <trkpt lat="44.1866" lon="5.53413">
        <ele>878</ele>
        <time>2019-06-17T08:55:19Z</time>
      </trkpt>
      <trkpt lat="44.18664" lon="5.53413">
        <ele>878</ele>
        <time>2019-06-17T08:55:20Z</time>
      </trkpt>
      <trkpt lat="44.18667" lon="5.53412">
        <ele>878</ele>
        <time>2019-06-17T08:55:21Z</time>
      </trkpt>
      <trkpt lat="44.18671" lon="5.5341">
        <ele>878</ele>
        <time>2019-06-17T08:55:22Z</time>
      </trkpt>
      <trkpt lat="44.18673" lon="5.53407">
        <ele>879</ele>
        <time>2019-06-17T08:55:23Z</time>
      </trkpt>
      <trkpt lat="44.18676" lon="5.53404">
        <ele>879</ele>
        <time>2019-06-17T08:55:24Z</time>
      </trkpt>
      <trkpt lat="44.18678" lon="5.53399">
        <ele>879</ele>
        <time>2019-06-17T08:55:25Z</time>
      </trkpt>
      <trkpt lat="44.18679" lon="5.53395">
        <ele>879</ele>
        <time>2019-06-17T08:55:26Z</time>
      </trkpt>
      <trkpt lat="44.1868" lon="5.5339">
        <ele>880</ele>
        <time>2019-06-17T08:55:27Z</time>
      </trkpt>
      <trkpt lat="44.18679" lon="5.53385">
        <ele>880</ele>
        <time>2019-06-17T08:55:28Z</time>
      </trkpt>
      <trkpt lat="44.18679" lon="5.53381">
        <ele>880</ele>
        <time>2019-06-17T08:55:29Z</time>
      </trkpt>
      <trkpt lat="44.18677" lon="5.53377">
        <ele>880</ele>
        <time>2019-06-17T08:55:30Z</time>
      </trkpt>
      <trkpt lat="44.18675" lon="5.53372">
        <ele>880</ele>
        <time>2019-06-17T08:55:31Z</time>
      </trkpt>
      <trkpt lat="44.18673" lon="5.53369">
        <ele>880</ele>
        <time>2019-06-17T08:55:32Z</time>
      </trkpt>
      <trkpt lat="44.1867" lon="5.53366">
        <ele>880</ele>
        <time>2019-06-17T08:55:33Z</time>
      </trkpt>
      <trkpt lat="44.18667" lon="5.53364">
        <ele>880</ele>
        <time>2019-06-17T08:55:34Z</time>
      </trkpt>
      <trkpt lat="44.18664" lon="5.53362">
        <ele>881</ele>
        <time>2019-06-17T08:55:35Z</time>
      </trkpt>
      <trkpt lat="44.18661" lon="5.53359">
        <ele>881</ele>
        <time>2019-06-17T08:55:36Z</time>
      </trkpt>
      <trkpt lat="44.18659" lon="5.53358">
        <ele>881</ele>
        <time>2019-06-17T08:55:37Z</time>
      </trkpt>
      <trkpt lat="44.18656" lon="5.53356">
        <ele>881</ele>
        <time>2019-06-17T08:55:38Z</time>
      </trkpt>
      <trkpt lat="44.18653" lon="5.53354">
        <ele>881</ele>
        <time>2019-06-17T08:55:39Z</time>
      </trkpt>
      <trkpt lat="44.1865" lon="5.53352">
        <ele>881</ele>
        <time>2019-06-17T08:55:40Z</time>
      </trkpt>
      <trkpt lat="44.18647" lon="5.5335">
        <ele>882</ele>
        <time>2019-06-17T08:55:41Z</time>
      </trkpt>
      <trkpt lat="44.18644" lon="5.53348">
        <ele>882</ele>
        <time>2019-06-17T08:55:42Z</time>
      </trkpt>
      <trkpt lat="44.18642" lon="5.53346">
        <ele>882</ele>
        <time>2019-06-17T08:55:43Z</time>
      </trkpt>
      <trkpt lat="44.18639" lon="5.53344">
        <ele>883</ele>
        <time>2019-06-17T08:55:44Z</time>
      </trkpt>
      <trkpt lat="44.18637" lon="5.53341">
        <ele>883</ele>
        <time>2019-06-17T08:55:45Z</time>
      </trkpt>
      <trkpt lat="44.18634" lon="5.53339">
        <ele>883</ele>
        <time>2019-06-17T08:55:46Z</time>
      </trkpt>
      <trkpt lat="44.18632" lon="5.53337">
        <ele>884</ele>
        <time>2019-06-17T08:55:47Z</time>
      </trkpt>
      <trkpt lat="44.1863" lon="5.53334">
        <ele>884</ele>
        <time>2019-06-17T08:55:48Z</time>
      </trkpt>
      <trkpt lat="44.18628" lon="5.53331">
        <ele>885</ele>
        <time>2019-06-17T08:55:49Z</time>
      </trkpt>
      <trkpt lat="44.18626" lon="5.53329">
        <ele>885</ele>
        <time>2019-06-17T08:55:50Z</time>
      </trkpt>
      <trkpt lat="44.18625" lon="5.53326">
        <ele>885</ele>
        <time>2019-06-17T08:55:51Z</time>
      </trkpt>
      <trkpt lat="44.18623" lon="5.53323">
        <ele>886</ele>
        <time>2019-06-17T08:55:52Z</time>
      </trkpt>
      <trkpt lat="44.18622" lon="5.5332">
        <ele>886</ele>
        <time>2019-06-17T08:55:53Z</time>
      </trkpt>
      <trkpt lat="44.1862" lon="5.53317">
        <ele>886</ele>
        <time>2019-06-17T08:55:54Z</time>
      </trkpt>
      <trkpt lat="44.18619" lon="5.53313">
        <ele>886</ele>
        <time>2019-06-17T08:55:55Z</time>
      </trkpt>
      <trkpt lat="44.18617" lon="5.5331">
        <ele>887</ele>
        <time>2019-06-17T08:55:56Z</time>
      </trkpt>
      <trkpt lat="44.18616" lon="5.53307">
        <ele>887</ele>
        <time>2019-06-17T08:55:57Z</time>
      </trkpt>
      <trkpt lat="44.18614" lon="5.53303">
        <ele>887</ele>
        <time>2019-06-17T08:55:58Z</time>
      </trkpt>
      <trkpt lat="44.18613" lon="5.533">
        <ele>887</ele>
        <time>2019-06-17T08:55:59Z</time>
      </trkpt>
      <trkpt lat="44.18612" lon="5.53297">
        <ele>887</ele>
        <time>2019-06-17T08:56:00Z</time>
      </trkpt>
      <trkpt lat="44.1861" lon="5.53293">
        <ele>887</ele>
        <time>2019-06-17T08:56:01Z</time>
      </trkpt>
      <trkpt lat="44.18609" lon="5.5329">
        <ele>887</ele>
        <time>2019-06-17T08:56:02Z</time>
      </trkpt>
      <trkpt lat="44.18607" lon="5.53286">
        <ele>888</ele>
        <time>2019-06-17T08:56:03Z</time>
      </trkpt>
      <trkpt lat="44.18606" lon="5.53283">
        <ele>888</ele>
        <time>2019-06-17T08:56:04Z</time>
      </trkpt>
      <trkpt lat="44.18605" lon="5.5328">
        <ele>888</ele>
        <time>2019-06-17T08:56:05Z</time>
      </trkpt>
      <trkpt lat="44.18603" lon="5.53276">
        <ele>888</ele>
        <time>2019-06-17T08:56:06Z</time>
      </trkpt>
      <trkpt lat="44.18602" lon="5.53273">
        <ele>888</ele>
        <time>2019-06-17T08:56:07Z</time>
      </trkpt>
      <trkpt lat="44.18601" lon="5.5327">
        <ele>888</ele>
        <time>2019-06-17T08:56:08Z</time>
      </trkpt>
      <trkpt lat="44.18599" lon="5.53266">
        <ele>889</ele>
        <time>2019-06-17T08:56:09Z</time>
      </trkpt>
      <trkpt lat="44.18598" lon="5.53264">
        <ele>889</ele>
        <time>2019-06-17T08:56:10Z</time>
      </trkpt>
      <trkpt lat="44.18597" lon="5.53261">
        <ele>889</ele>
        <time>2019-06-17T08:56:11Z</time>
      </trkpt>
      <trkpt lat="44.18595" lon="5.53258">
        <ele>889</ele>
        <time>2019-06-17T08:56:12Z</time>
      </trkpt>
      <trkpt lat="44.18594" lon="5.53255">
        <ele>889</ele>
        <time>2019-06-17T08:56:13Z</time>
      </trkpt>
      <trkpt lat="44.18592" lon="5.53252">
        <ele>889</ele>
        <time>2019-06-17T08:56:14Z</time>
      </trkpt>
      <trkpt lat="44.18591" lon="5.53249">
        <ele>889</ele>
        <time>2019-06-17T08:56:15Z</time>
      </trkpt>
      <trkpt lat="44.18589" lon="5.53246">
        <ele>889</ele>
        <time>2019-06-17T08:56:16Z</time>
      </trkpt>
      <trkpt lat="44.18588" lon="5.53243">
        <ele>890</ele>
        <time>2019-06-17T08:56:17Z</time>
      </trkpt>
      <trkpt lat="44.18586" lon="5.5324">
        <ele>890</ele>
        <time>2019-06-17T08:56:18Z</time>
      </trkpt>
      <trkpt lat="44.18585" lon="5.53237">
        <ele>890</ele>
        <time>2019-06-17T08:56:19Z</time>
      </trkpt>
      <trkpt lat="44.18583" lon="5.53234">
        <ele>890</ele>
        <time>2019-06-17T08:56:20Z</time>
      </trkpt>
      <trkpt lat="44.18581" lon="5.5323">
        <ele>890</ele>
        <time>2019-06-17T08:56:21Z</time>
      </trkpt>
      <trkpt lat="44.1858" lon="5.53227">
        <ele>891</ele>
        <time>2019-06-17T08:56:22Z</time>
      </trkpt>
      <trkpt lat="44.18578" lon="5.53224">
        <ele>891</ele>
        <time>2019-06-17T08:56:23Z</time>
      </trkpt>
      <trkpt lat="44.18577" lon="5.53221">
        <ele>891</ele>
        <time>2019-06-17T08:56:24Z</time>
      </trkpt>
      <trkpt lat="44.18575" lon="5.53218">
        <ele>891</ele>
        <time>2019-06-17T08:56:25Z</time>
      </trkpt>
      <trkpt lat="44.18574" lon="5.53215">
        <ele>891</ele>
        <time>2019-06-17T08:56:26Z</time>
      </trkpt>
      <trkpt lat="44.18572" lon="5.53212">
        <ele>891</ele>
        <time>2019-06-17T08:56:27Z</time>
      </trkpt>
      <trkpt lat="44.1857" lon="5.53209">
        <ele>891</ele>
        <time>2019-06-17T08:56:28Z</time>
      </trkpt>
      <trkpt lat="44.18568" lon="5.53205">
        <ele>891</ele>
        <time>2019-06-17T08:56:29Z</time>
      </trkpt>
      <trkpt lat="44.18567" lon="5.53202">
        <ele>891</ele>
        <time>2019-06-17T08:56:30Z</time>
      </trkpt>
      <trkpt lat="44.18565" lon="5.53199">
        <ele>891</ele>
        <time>2019-06-17T08:56:31Z</time>
      </trkpt>
      <trkpt lat="44.18563" lon="5.53196">
        <ele>891</ele>
        <time>2019-06-17T08:56:32Z</time>
      </trkpt>
      <trkpt lat="44.18561" lon="5.53193">
        <ele>891</ele>
        <time>2019-06-17T08:56:33Z</time>
      </trkpt>
      <trkpt lat="44.18558" lon="5.5319">
        <ele>892</ele>
        <time>2019-06-17T08:56:34Z</time>
      </trkpt>
      <trkpt lat="44.18556" lon="5.53188">
        <ele>892</ele>
        <time>2019-06-17T08:56:35Z</time>
      </trkpt>
      <trkpt lat="44.18554" lon="5.53185">
        <ele>892</ele>
        <time>2019-06-17T08:56:36Z</time>
      </trkpt>
      <trkpt lat="44.18551" lon="5.53183">
        <ele>892</ele>
        <time>2019-06-17T08:56:37Z</time>
      </trkpt>
      <trkpt lat="44.18549" lon="5.53181">
        <ele>892</ele>
        <time>2019-06-17T08:56:38Z</time>
      </trkpt>
      <trkpt lat="44.18546" lon="5.53179">
        <ele>892</ele>
        <time>2019-06-17T08:56:39Z</time>
      </trkpt>
      <trkpt lat="44.18544" lon="5.53177">
        <ele>892</ele>
        <time>2019-06-17T08:56:40Z</time>
      </trkpt>
      <trkpt lat="44.18541" lon="5.53176">
        <ele>892</ele>
        <time>2019-06-17T08:56:41Z</time>
      </trkpt>
      <trkpt lat="44.18538" lon="5.53174">
        <ele>893</ele>
        <time>2019-06-17T08:56:42Z</time>
      </trkpt>
      <trkpt lat="44.18536" lon="5.53172">
        <ele>893</ele>
        <time>2019-06-17T08:56:43Z</time>
      </trkpt>
      <trkpt lat="44.18534" lon="5.53171">
        <ele>893</ele>
        <time>2019-06-17T08:56:44Z</time>
      </trkpt>
      <trkpt lat="44.18531" lon="5.53171">
        <ele>894</ele>
        <time>2019-06-17T08:56:45Z</time>
      </trkpt>
      <trkpt lat="44.18529" lon="5.5317">
        <ele>895</ele>
        <time>2019-06-17T08:56:46Z</time>
      </trkpt>
      <trkpt lat="44.18526" lon="5.53168">
        <ele>895</ele>
        <time>2019-06-17T08:56:47Z</time>
      </trkpt>
      <trkpt lat="44.18524" lon="5.53167">
        <ele>896</ele>
        <time>2019-06-17T08:56:48Z</time>
      </trkpt>
      <trkpt lat="44.18522" lon="5.53165">
        <ele>897</ele>
        <time>2019-06-17T08:56:49Z</time>
      </trkpt>
      <trkpt lat="44.1852" lon="5.53164">
        <ele>897</ele>
        <time>2019-06-17T08:56:50Z</time>
      </trkpt>
      <trkpt lat="44.18517" lon="5.53162">
        <ele>897</ele>
        <time>2019-06-17T08:56:51Z</time>
      </trkpt>
      <trkpt lat="44.18515" lon="5.53161">
        <ele>897</ele>
        <time>2019-06-17T08:56:52Z</time>
      </trkpt>
      <trkpt lat="44.18512" lon="5.53159">
        <ele>898</ele>
        <time>2019-06-17T08:56:53Z</time>
      </trkpt>
      <trkpt lat="44.1851" lon="5.53158">
        <ele>898</ele>
        <time>2019-06-17T08:56:54Z</time>
      </trkpt>
      <trkpt lat="44.18508" lon="5.53157">
        <ele>898</ele>
        <time>2019-06-17T08:56:55Z</time>
      </trkpt>
      <trkpt lat="44.18505" lon="5.53155">
        <ele>898</ele>
        <time>2019-06-17T08:56:56Z</time>
      </trkpt>
      <trkpt lat="44.18502" lon="5.53154">
        <ele>898</ele>
        <time>2019-06-17T08:56:57Z</time>
      </trkpt>
      <trkpt lat="44.185" lon="5.53153">
        <ele>899</ele>
        <time>2019-06-17T08:56:58Z</time>
      </trkpt>
      <trkpt lat="44.18497" lon="5.53152">
        <ele>899</ele>
        <time>2019-06-17T08:56:59Z</time>
      </trkpt>
      <trkpt lat="44.18495" lon="5.53151">
        <ele>899</ele>
        <time>2019-06-17T08:57:00Z</time>
      </trkpt>
      <trkpt lat="44.18492" lon="5.5315">
        <ele>899</ele>
        <time>2019-06-17T08:57:01Z</time>
      </trkpt>
      <trkpt lat="44.18489" lon="5.53149">
        <ele>899</ele>
        <time>2019-06-17T08:57:02Z</time>
      </trkpt>
      <trkpt lat="44.18487" lon="5.53149">
        <ele>899</ele>
        <time>2019-06-17T08:57:03Z</time>
      </trkpt>
      <trkpt lat="44.18484" lon="5.53149">
        <ele>899</ele>
        <time>2019-06-17T08:57:04Z</time>
      </trkpt>
      <trkpt lat="44.18482" lon="5.53149">
        <ele>899</ele>
        <time>2019-06-17T08:57:05Z</time>
      </trkpt>
      <trkpt lat="44.18479" lon="5.53149">
        <ele>900</ele>
        <time>2019-06-17T08:57:06Z</time>
      </trkpt>
      <trkpt lat="44.18477" lon="5.5315">
        <ele>900</ele>
        <time>2019-06-17T08:57:07Z</time>
      </trkpt>
      <trkpt lat="44.18474" lon="5.5315">
        <ele>900</ele>
        <time>2019-06-17T08:57:08Z</time>
      </trkpt>
      <trkpt lat="44.18471" lon="5.53151">
        <ele>900</ele>
        <time>2019-06-17T08:57:09Z</time>
      </trkpt>
      <trkpt lat="44.18469" lon="5.53152">
        <ele>900</ele>
        <time>2019-06-17T08:57:10Z</time>
      </trkpt>
      <trkpt lat="44.18466" lon="5.53153">
        <ele>900</ele>
        <time>2019-06-17T08:57:11Z</time>
      </trkpt>
      <trkpt lat="44.18464" lon="5.53153">
        <ele>900</ele>
        <time>2019-06-17T08:57:12Z</time>
      </trkpt>
      <trkpt lat="44.18461" lon="5.53154">
        <ele>901</ele>
        <time>2019-06-17T08:57:13Z</time>
      </trkpt>
      <trkpt lat="44.18459" lon="5.53155">
        <ele>901</ele>
        <time>2019-06-17T08:57:14Z</time>
      </trkpt>
      <trkpt lat="44.18456" lon="5.53156">
        <ele>901</ele>
        <time>2019-06-17T08:57:15Z</time>
      </trkpt>
      <trkpt lat="44.18454" lon="5.53157">
        <ele>901</ele>
        <time>2019-06-17T08:57:16Z</time>
      </trkpt>
      <trkpt lat="44.18451" lon="5.53157">
        <ele>901</ele>
        <time>2019-06-17T08:57:17Z</time>
      </trkpt>
      <trkpt lat="44.18449" lon="5.53158">
        <ele>901</ele>
        <time>2019-06-17T08:57:18Z</time>
      </trkpt>
      <trkpt lat="44.18446" lon="5.53158">
        <ele>901</ele>
        <time>2019-06-17T08:57:19Z</time>
      </trkpt>
      <trkpt lat="44.18444" lon="5.53159">
        <ele>901</ele>
        <time>2019-06-17T08:57:20Z</time>
      </trkpt>
      <trkpt lat="44.18441" lon="5.5316">
        <ele>901</ele>
        <time>2019-06-17T08:57:21Z</time>
      </trkpt>
      <trkpt lat="44.18438" lon="5.5316">
        <ele>901</ele>
        <time>2019-06-17T08:57:22Z</time>
      </trkpt>
      <trkpt lat="44.18436" lon="5.5316">
        <ele>901</ele>
        <time>2019-06-17T08:57:23Z</time>
      </trkpt>
      <trkpt lat="44.18433" lon="5.5316">
        <ele>901</ele>
        <time>2019-06-17T08:57:24Z</time>
      </trkpt>
      <trkpt lat="44.1843" lon="5.53159">
        <ele>901</ele>
        <time>2019-06-17T08:57:25Z</time>
      </trkpt>
      <trkpt lat="44.18427" lon="5.53159">
        <ele>901</ele>
        <time>2019-06-17T08:57:26Z</time>
      </trkpt>
      <trkpt lat="44.18424" lon="5.53158">
        <ele>901</ele>
        <time>2019-06-17T08:57:27Z</time>
      </trkpt>
      <trkpt lat="44.18421" lon="5.53157">
        <ele>901</ele>
        <time>2019-06-17T08:57:28Z</time>
      </trkpt>
      <trkpt lat="44.18419" lon="5.53156">
        <ele>902</ele>
        <time>2019-06-17T08:57:29Z</time>
      </trkpt>
      <trkpt lat="44.18416" lon="5.53154">
        <ele>902</ele>
        <time>2019-06-17T08:57:30Z</time>
      </trkpt>
      <trkpt lat="44.18414" lon="5.53152">
        <ele>902</ele>
        <time>2019-06-17T08:57:31Z</time>
      </trkpt>
      <trkpt lat="44.18411" lon="5.5315">
        <ele>902</ele>
        <time>2019-06-17T08:57:32Z</time>
      </trkpt>
      <trkpt lat="44.18409" lon="5.53148">
        <ele>903</ele>
        <time>2019-06-17T08:57:33Z</time>
      </trkpt>
      <trkpt lat="44.18407" lon="5.53145">
        <ele>903</ele>
        <time>2019-06-17T08:57:34Z</time>
      </trkpt>
      <trkpt lat="44.18405" lon="5.53142">
        <ele>903</ele>
        <time>2019-06-17T08:57:35Z</time>
      </trkpt>
      <trkpt lat="44.18403" lon="5.5314">
        <ele>903</ele>
        <time>2019-06-17T08:57:36Z</time>
      </trkpt>
      <trkpt lat="44.18402" lon="5.53136">
        <ele>903</ele>
        <time>2019-06-17T08:57:37Z</time>
      </trkpt>
      <trkpt lat="44.18401" lon="5.53133">
        <ele>904</ele>
        <time>2019-06-17T08:57:38Z</time>
      </trkpt>
      <trkpt lat="44.18399" lon="5.5313">
        <ele>904</ele>
        <time>2019-06-17T08:57:39Z</time>
      </trkpt>
      <trkpt lat="44.18397" lon="5.53127">
        <ele>904</ele>
        <time>2019-06-17T08:57:40Z</time>
      </trkpt>
      <trkpt lat="44.18395" lon="5.53124">
        <ele>904</ele>
        <time>2019-06-17T08:57:41Z</time>
      </trkpt>
      <trkpt lat="44.18394" lon="5.5312">
        <ele>904</ele>
        <time>2019-06-17T08:57:42Z</time>
      </trkpt>
      <trkpt lat="44.18392" lon="5.53117">
        <ele>905</ele>
        <time>2019-06-17T08:57:43Z</time>
      </trkpt>
      <trkpt lat="44.18391" lon="5.53113">
        <ele>905</ele>
        <time>2019-06-17T08:57:44Z</time>
      </trkpt>
      <trkpt lat="44.1839" lon="5.5311">
        <ele>905</ele>
        <time>2019-06-17T08:57:45Z</time>
      </trkpt>
      <trkpt lat="44.18388" lon="5.53106">
        <ele>905</ele>
        <time>2019-06-17T08:57:46Z</time>
      </trkpt>
      <trkpt lat="44.18387" lon="5.53102">
        <ele>905</ele>
        <time>2019-06-17T08:57:47Z</time>
      </trkpt>
      <trkpt lat="44.18386" lon="5.53098">
        <ele>905</ele>
        <time>2019-06-17T08:57:48Z</time>
      </trkpt>
      <trkpt lat="44.18386" lon="5.53094">
        <ele>906</ele>
        <time>2019-06-17T08:57:49Z</time>
      </trkpt>
      <trkpt lat="44.18385" lon="5.5309">
        <ele>906</ele>
        <time>2019-06-17T08:57:50Z</time>
      </trkpt>
      <trkpt lat="44.18386" lon="5.53086">
        <ele>906</ele>
        <time>2019-06-17T08:57:51Z</time>
      </trkpt>
      <trkpt lat="44.18386" lon="5.53082">
        <ele>906</ele>
        <time>2019-06-17T08:57:52Z</time>
      </trkpt>
      <trkpt lat="44.18386" lon="5.53078">
        <ele>906</ele>
        <time>2019-06-17T08:57:53Z</time>
      </trkpt>
      <trkpt lat="44.18386" lon="5.53074">
        <ele>906</ele>
        <time>2019-06-17T08:57:54Z</time>
      </trkpt>
      <trkpt lat="44.18387" lon="5.5307">
        <ele>906</ele>
        <time>2019-06-17T08:57:55Z</time>
      </trkpt>
      <trkpt lat="44.18388" lon="5.53067">
        <ele>906</ele>
        <time>2019-06-17T08:57:56Z</time>
      </trkpt>
      <trkpt lat="44.18389" lon="5.53064">
        <ele>906</ele>
        <time>2019-06-17T08:57:57Z</time>
      </trkpt>
      <trkpt lat="44.18391" lon="5.5306">
        <ele>906</ele>
        <time>2019-06-17T08:57:58Z</time>
      </trkpt>
      <trkpt lat="44.18392" lon="5.53057">
        <ele>906</ele>
        <time>2019-06-17T08:57:59Z</time>
      </trkpt>
      <trkpt lat="44.18393" lon="5.53053">
        <ele>906</ele>
        <time>2019-06-17T08:58:00Z</time>
      </trkpt>
      <trkpt lat="44.18394" lon="5.5305">
        <ele>906</ele>
        <time>2019-06-17T08:58:01Z</time>
      </trkpt>
      <trkpt lat="44.18396" lon="5.53047">
        <ele>907</ele>
        <time>2019-06-17T08:58:02Z</time>
      </trkpt>
      <trkpt lat="44.18397" lon="5.53044">
        <ele>907</ele>
        <time>2019-06-17T08:58:03Z</time>
      </trkpt>
      <trkpt lat="44.18398" lon="5.53041">
        <ele>907</ele>
        <time>2019-06-17T08:58:04Z</time>
      </trkpt>
      <trkpt lat="44.18399" lon="5.53037">
        <ele>907</ele>
        <time>2019-06-17T08:58:05Z</time>
      </trkpt>
      <trkpt lat="44.18401" lon="5.53034">
        <ele>907</ele>
        <time>2019-06-17T08:58:06Z</time>
      </trkpt>
      <trkpt lat="44.18402" lon="5.53031">
        <ele>907</ele>
        <time>2019-06-17T08:58:07Z</time>
      </trkpt>
      <trkpt lat="44.18403" lon="5.53027">
        <ele>907</ele>
        <time>2019-06-17T08:58:08Z</time>
      </trkpt>
      <trkpt lat="44.18404" lon="5.53024">
        <ele>908</ele>
        <time>2019-06-17T08:58:09Z</time>
      </trkpt>
      <trkpt lat="44.18405" lon="5.53021">
        <ele>908</ele>
        <time>2019-06-17T08:58:10Z</time>
      </trkpt>
      <trkpt lat="44.18406" lon="5.53018">
        <ele>908</ele>
        <time>2019-06-17T08:58:11Z</time>
      </trkpt>
      <trkpt lat="44.18407" lon="5.53014">
        <ele>908</ele>
        <time>2019-06-17T08:58:12Z</time>
      </trkpt>
      <trkpt lat="44.18408" lon="5.53011">
        <ele>908</ele>
        <time>2019-06-17T08:58:13Z</time>
      </trkpt>
      <trkpt lat="44.18408" lon="5.53007">
        <ele>909</ele>
        <time>2019-06-17T08:58:14Z</time>
      </trkpt>
      <trkpt lat="44.18408" lon="5.53004">
        <ele>909</ele>
        <time>2019-06-17T08:58:15Z</time>
      </trkpt>
      <trkpt lat="44.18409" lon="5.53">
        <ele>909</ele>
        <time>2019-06-17T08:58:16Z</time>
      </trkpt>
      <trkpt lat="44.18409" lon="5.52996">
        <ele>909</ele>
        <time>2019-06-17T08:58:17Z</time>
      </trkpt>
      <trkpt lat="44.18409" lon="5.52992">
        <ele>909</ele>
        <time>2019-06-17T08:58:18Z</time>
      </trkpt>
      <trkpt lat="44.18409" lon="5.52989">
        <ele>909</ele>
        <time>2019-06-17T08:58:19Z</time>
      </trkpt>
      <trkpt lat="44.18409" lon="5.52985">
        <ele>910</ele>
        <time>2019-06-17T08:58:20Z</time>
      </trkpt>
      <trkpt lat="44.18409" lon="5.52981">
        <ele>910</ele>
        <time>2019-06-17T08:58:21Z</time>
      </trkpt>
      <trkpt lat="44.18409" lon="5.52977">
        <ele>910</ele>
        <time>2019-06-17T08:58:22Z</time>
      </trkpt>
      <trkpt lat="44.18409" lon="5.52973">
        <ele>910</ele>
        <time>2019-06-17T08:58:23Z</time>
      </trkpt>
      <trkpt lat="44.18408" lon="5.5297">
        <ele>910</ele>
        <time>2019-06-17T08:58:24Z</time>
      </trkpt>
      <trkpt lat="44.18408" lon="5.52966">
        <ele>911</ele>
        <time>2019-06-17T08:58:25Z</time>
      </trkpt>
      <trkpt lat="44.18407" lon="5.52963">
        <ele>911</ele>
        <time>2019-06-17T08:58:26Z</time>
      </trkpt>
      <trkpt lat="44.18406" lon="5.52959">
        <ele>911</ele>
        <time>2019-06-17T08:58:27Z</time>
      </trkpt>
      <trkpt lat="44.18405" lon="5.52956">
        <ele>911</ele>
        <time>2019-06-17T08:58:28Z</time>
      </trkpt>
      <trkpt lat="44.18404" lon="5.52953">
        <ele>911</ele>
        <time>2019-06-17T08:58:29Z</time>
      </trkpt>
      <trkpt lat="44.18402" lon="5.5295">
        <ele>912</ele>
        <time>2019-06-17T08:58:30Z</time>
      </trkpt>
      <trkpt lat="44.18401" lon="5.52947">
        <ele>912</ele>
        <time>2019-06-17T08:58:31Z</time>
      </trkpt>
      <trkpt lat="44.18399" lon="5.52944">
        <ele>912</ele>
        <time>2019-06-17T08:58:32Z</time>
      </trkpt>
      <trkpt lat="44.18398" lon="5.5294">
        <ele>912</ele>
        <time>2019-06-17T08:58:33Z</time>
      </trkpt>
      <trkpt lat="44.18397" lon="5.52937">
        <ele>912</ele>
        <time>2019-06-17T08:58:34Z</time>
      </trkpt>
      <trkpt lat="44.18395" lon="5.52934">
        <ele>913</ele>
        <time>2019-06-17T08:58:35Z</time>
      </trkpt>
      <trkpt lat="44.18394" lon="5.5293">
        <ele>913</ele>
        <time>2019-06-17T08:58:36Z</time>
      </trkpt>
      <trkpt lat="44.18392" lon="5.52927">
        <ele>913</ele>
        <time>2019-06-17T08:58:37Z</time>
      </trkpt>
      <trkpt lat="44.18391" lon="5.52923">
        <ele>913</ele>
        <time>2019-06-17T08:58:38Z</time>
      </trkpt>
      <trkpt lat="44.18389" lon="5.5292">
        <ele>913</ele>
        <time>2019-06-17T08:58:39Z</time>
      </trkpt>
      <trkpt lat="44.18388" lon="5.52917">
        <ele>914</ele>
        <time>2019-06-17T08:58:40Z</time>
      </trkpt>
      <trkpt lat="44.18386" lon="5.52913">
        <ele>914</ele>
        <time>2019-06-17T08:58:41Z</time>
      </trkpt>
      <trkpt lat="44.18385" lon="5.5291">
        <ele>914</ele>
        <time>2019-06-17T08:58:42Z</time>
      </trkpt>
      <trkpt lat="44.18383" lon="5.52906">
        <ele>914</ele>
        <time>2019-06-17T08:58:43Z</time>
      </trkpt>
      <trkpt lat="44.18382" lon="5.52903">
        <ele>915</ele>
        <time>2019-06-17T08:58:44Z</time>
      </trkpt>
      <trkpt lat="44.18381" lon="5.52899">
        <ele>915</ele>
        <time>2019-06-17T08:58:45Z</time>
      </trkpt>
      <trkpt lat="44.1838" lon="5.52896">
        <ele>915</ele>
        <time>2019-06-17T08:58:46Z</time>
      </trkpt>
      <trkpt lat="44.18379" lon="5.52892">
        <ele>915</ele>
        <time>2019-06-17T08:58:47Z</time>
      </trkpt>
      <trkpt lat="44.18378" lon="5.52889">
        <ele>916</ele>
        <time>2019-06-17T08:58:48Z</time>
      </trkpt>
      <trkpt lat="44.18377" lon="5.52885">
        <ele>916</ele>
        <time>2019-06-17T08:58:49Z</time>
      </trkpt>
      <trkpt lat="44.18376" lon="5.52882">
        <ele>916</ele>
        <time>2019-06-17T08:58:50Z</time>
      </trkpt>
      <trkpt lat="44.18375" lon="5.52878">
        <ele>916</ele>
        <time>2019-06-17T08:58:51Z</time>
      </trkpt>
      <trkpt lat="44.18374" lon="5.52875">
        <ele>917</ele>
        <time>2019-06-17T08:58:52Z</time>
      </trkpt>
      <trkpt lat="44.18373" lon="5.52871">
        <ele>917</ele>
        <time>2019-06-17T08:58:53Z</time>
      </trkpt>
      <trkpt lat="44.18372" lon="5.52867">
        <ele>917</ele>
        <time>2019-06-17T08:58:54Z</time>
      </trkpt>
      <trkpt lat="44.18371" lon="5.52864">
        <ele>917</ele>
        <time>2019-06-17T08:58:55Z</time>
      </trkpt>
      <trkpt lat="44.1837" lon="5.5286">
        <ele>917</ele>
        <time>2019-06-17T08:58:56Z</time>
      </trkpt>
      <trkpt lat="44.1837" lon="5.52856">
        <ele>917</ele>
        <time>2019-06-17T08:58:57Z</time>
      </trkpt>
      <trkpt lat="44.1837" lon="5.52852">
        <ele>917</ele>
        <time>2019-06-17T08:58:58Z</time>
      </trkpt>
      <trkpt lat="44.18369" lon="5.52849">
        <ele>917</ele>
        <time>2019-06-17T08:58:59Z</time>
      </trkpt>
      <trkpt lat="44.18369" lon="5.52845">
        <ele>918</ele>
        <time>2019-06-17T08:59:00Z</time>
      </trkpt>
      <trkpt lat="44.18368" lon="5.52842">
        <ele>918</ele>
        <time>2019-06-17T08:59:01Z</time>
      </trkpt>
      <trkpt lat="44.18367" lon="5.52838">
        <ele>918</ele>
        <time>2019-06-17T08:59:02Z</time>
      </trkpt>
      <trkpt lat="44.18367" lon="5.52835">
        <ele>918</ele>
        <time>2019-06-17T08:59:03Z</time>
      </trkpt>
      <trkpt lat="44.18367" lon="5.52831">
        <ele>918</ele>
        <time>2019-06-17T08:59:04Z</time>
      </trkpt>
      <trkpt lat="44.18366" lon="5.52828">
        <ele>918</ele>
        <time>2019-06-17T08:59:05Z</time>
      </trkpt>
      <trkpt lat="44.18366" lon="5.52824">
        <ele>919</ele>
        <time>2019-06-17T08:59:06Z</time>
      </trkpt>
      <trkpt lat="44.18365" lon="5.5282">
        <ele>919</ele>
        <time>2019-06-17T08:59:07Z</time>
      </trkpt>
      <trkpt lat="44.18365" lon="5.52817">
        <ele>919</ele>
        <time>2019-06-17T08:59:08Z</time>
      </trkpt>
      <trkpt lat="44.18364" lon="5.52813">
        <ele>919</ele>
        <time>2019-06-17T08:59:09Z</time>
      </trkpt>
      <trkpt lat="44.18364" lon="5.52809">
        <ele>919</ele>
        <time>2019-06-17T08:59:10Z</time>
      </trkpt>
      <trkpt lat="44.18363" lon="5.52806">
        <ele>919</ele>
        <time>2019-06-17T08:59:11Z</time>
      </trkpt>
      <trkpt lat="44.18362" lon="5.52803">
        <ele>919</ele>
        <time>2019-06-17T08:59:12Z</time>
      </trkpt>
      <trkpt lat="44.18362" lon="5.52799">
        <ele>920</ele>
        <time>2019-06-17T08:59:13Z</time>
      </trkpt>
      <trkpt lat="44.18361" lon="5.52796">
        <ele>920</ele>
        <time>2019-06-17T08:59:14Z</time>
      </trkpt>
      <trkpt lat="44.1836" lon="5.52792">
        <ele>920</ele>
        <time>2019-06-17T08:59:15Z</time>
      </trkpt>
      <trkpt lat="44.18359" lon="5.52789">
        <ele>920</ele>
        <time>2019-06-17T08:59:16Z</time>
      </trkpt>
      <trkpt lat="44.18359" lon="5.52786">
        <ele>920</ele>
        <time>2019-06-17T08:59:17Z</time>
      </trkpt>
      <trkpt lat="44.18358" lon="5.52783">
        <ele>920</ele>
        <time>2019-06-17T08:59:18Z</time>
      </trkpt>
      <trkpt lat="44.18357" lon="5.5278">
        <ele>921</ele>
        <time>2019-06-17T08:59:19Z</time>
      </trkpt>
      <trkpt lat="44.18356" lon="5.52776">
        <ele>921</ele>
        <time>2019-06-17T08:59:20Z</time>
      </trkpt>
      <trkpt lat="44.18355" lon="5.52773">
        <ele>921</ele>
        <time>2019-06-17T08:59:21Z</time>
      </trkpt>
      <trkpt lat="44.18354" lon="5.5277">
        <ele>921</ele>
        <time>2019-06-17T08:59:22Z</time>
      </trkpt>
      <trkpt lat="44.18353" lon="5.52767">
        <ele>921</ele>
        <time>2019-06-17T08:59:23Z</time>
      </trkpt>
      <trkpt lat="44.18352" lon="5.52764">
        <ele>921</ele>
        <time>2019-06-17T08:59:24Z</time>
      </trkpt>
      <trkpt lat="44.18351" lon="5.52761">
        <ele>922</ele>
        <time>2019-06-17T08:59:25Z</time>
      </trkpt>
      <trkpt lat="44.1835" lon="5.52758">
        <ele>922</ele>
        <time>2019-06-17T08:59:26Z</time>
      </trkpt>
      <trkpt lat="44.18349" lon="5.52755">
        <ele>922</ele>
        <time>2019-06-17T08:59:27Z</time>
      </trkpt>
      <trkpt lat="44.18347" lon="5.52752">
        <ele>922</ele>
        <time>2019-06-17T08:59:28Z</time>
      </trkpt>
      <trkpt lat="44.18346" lon="5.52749">
        <ele>922</ele>
        <time>2019-06-17T08:59:29Z</time>
      </trkpt>
      <trkpt lat="44.18344" lon="5.52746">
        <ele>923</ele>
        <time>2019-06-17T08:59:30Z</time>
      </trkpt>
      <trkpt lat="44.18343" lon="5.52743">
        <ele>923</ele>
        <time>2019-06-17T08:59:31Z</time>
      </trkpt>
      <trkpt lat="44.18341" lon="5.5274">
        <ele>923</ele>
        <time>2019-06-17T08:59:32Z</time>
      </trkpt>
      <trkpt lat="44.1834" lon="5.52737">
        <ele>923</ele>
        <time>2019-06-17T08:59:33Z</time>
      </trkpt>
      <trkpt lat="44.18338" lon="5.52735">
        <ele>923</ele>
        <time>2019-06-17T08:59:34Z</time>
      </trkpt>
      <trkpt lat="44.18336" lon="5.52732">
        <ele>923</ele>
        <time>2019-06-17T08:59:35Z</time>
      </trkpt>
      <trkpt lat="44.18334" lon="5.52729">
        <ele>923</ele>
        <time>2019-06-17T08:59:36Z</time>
      </trkpt>
      <trkpt lat="44.18332" lon="5.52727">
        <ele>924</ele>
        <time>2019-06-17T08:59:37Z</time>
      </trkpt>
      <trkpt lat="44.18329" lon="5.52725">
        <ele>924</ele>
        <time>2019-06-17T08:59:38Z</time>
      </trkpt>
      <trkpt lat="44.18327" lon="5.52722">
        <ele>924</ele>
        <time>2019-06-17T08:59:39Z</time>
      </trkpt>
      <trkpt lat="44.18324" lon="5.5272">
        <ele>924</ele>
        <time>2019-06-17T08:59:40Z</time>
      </trkpt>
      <trkpt lat="44.18322" lon="5.52717">
        <ele>924</ele>
        <time>2019-06-17T08:59:41Z</time>
      </trkpt>
      <trkpt lat="44.18319" lon="5.52714">
        <ele>925</ele>
        <time>2019-06-17T08:59:42Z</time>
      </trkpt>
      <trkpt lat="44.18317" lon="5.52711">
        <ele>925</ele>
        <time>2019-06-17T08:59:43Z</time>
      </trkpt>
      <trkpt lat="44.18315" lon="5.52709">
        <ele>925</ele>
        <time>2019-06-17T08:59:44Z</time>
      </trkpt>
      <trkpt lat="44.18312" lon="5.52706">
        <ele>925</ele>
        <time>2019-06-17T08:59:45Z</time>
      </trkpt>
      <trkpt lat="44.1831" lon="5.52704">
        <ele>925</ele>
        <time>2019-06-17T08:59:46Z</time>
      </trkpt>
      <trkpt lat="44.18307" lon="5.52703">
        <ele>926</ele>
        <time>2019-06-17T08:59:47Z</time>
      </trkpt>
      <trkpt lat="44.18305" lon="5.52701">
        <ele>926</ele>
        <time>2019-06-17T08:59:48Z</time>
      </trkpt>
      <trkpt lat="44.18303" lon="5.52699">
        <ele>926</ele>
        <time>2019-06-17T08:59:49Z</time>
      </trkpt>
      <trkpt lat="44.183" lon="5.52697">
        <ele>927</ele>
        <time>2019-06-17T08:59:50Z</time>
      </trkpt>
      <trkpt lat="44.18298" lon="5.52695">
        <ele>927</ele>
        <time>2019-06-17T08:59:51Z</time>
      </trkpt>
      <trkpt lat="44.18295" lon="5.52692">
        <ele>928</ele>
        <time>2019-06-17T08:59:52Z</time>
      </trkpt>
      <trkpt lat="44.18293" lon="5.5269">
        <ele>928</ele>
        <time>2019-06-17T08:59:53Z</time>
      </trkpt>
      <trkpt lat="44.1829" lon="5.52688">
        <ele>928</ele>
        <time>2019-06-17T08:59:54Z</time>
      </trkpt>
      <trkpt lat="44.18288" lon="5.52685">
        <ele>928</ele>
        <time>2019-06-17T08:59:55Z</time>
      </trkpt>
      <trkpt lat="44.18286" lon="5.52682">
        <ele>929</ele>
        <time>2019-06-17T08:59:56Z</time>
      </trkpt>
      <trkpt lat="44.18284" lon="5.52679">
        <ele>929</ele>
        <time>2019-06-17T08:59:57Z</time>
      </trkpt>
      <trkpt lat="44.18283" lon="5.52676">
        <ele>929</ele>
        <time>2019-06-17T08:59:58Z</time>
      </trkpt>
      <trkpt lat="44.18281" lon="5.52673">
        <ele>929</ele>
        <time>2019-06-17T08:59:59Z</time>
      </trkpt>
      <trkpt lat="44.1828" lon="5.52669">
        <ele>930</ele>
        <time>2019-06-17T09:00:00Z</time>
      </trkpt>
      <trkpt lat="44.18279" lon="5.52666">
        <ele>930</ele>
        <time>2019-06-17T09:00:01Z</time>
      </trkpt>
      <trkpt lat="44.18278" lon="5.52663">
        <ele>930</ele>
        <time>2019-06-17T09:00:02Z</time>
      </trkpt>
      <trkpt lat="44.18276" lon="5.52659">
        <ele>930</ele>
        <time>2019-06-17T09:00:03Z</time>
      </trkpt>
      <trkpt lat="44.18275" lon="5.52655">
        <ele>931</ele>
        <time>2019-06-17T09:00:04Z</time>
      </trkpt>
      <trkpt lat="44.18274" lon="5.52652">
        <ele>931</ele>
        <time>2019-06-17T09:00:05Z</time>
      </trkpt>
      <trkpt lat="44.18273" lon="5.52648">
        <ele>931</ele>
        <time>2019-06-17T09:00:06Z</time>
      </trkpt>
      <trkpt lat="44.18272" lon="5.52644">
        <ele>931</ele>
        <time>2019-06-17T09:00:07Z</time>
      </trkpt>
      <trkpt lat="44.18271" lon="5.5264">
        <ele>931</ele>
        <time>2019-06-17T09:00:08Z</time>
      </trkpt>
      <trkpt lat="44.1827" lon="5.52636">
        <ele>931</ele>
        <time>2019-06-17T09:00:09Z</time>
      </trkpt>
      <trkpt lat="44.18269" lon="5.52632">
        <ele>931</ele>
        <time>2019-06-17T09:00:10Z</time>
      </trkpt>
      <trkpt lat="44.18269" lon="5.52627">
        <ele>931</ele>
        <time>2019-06-17T09:00:11Z</time>
      </trkpt>
      <trkpt lat="44.18268" lon="5.52623">
        <ele>931</ele>
        <time>2019-06-17T09:00:12Z</time>
      </trkpt>
      <trkpt lat="44.18267" lon="5.52619">
        <ele>931</ele>
        <time>2019-06-17T09:00:13Z</time>
      </trkpt>
      <trkpt lat="44.18267" lon="5.52615">
        <ele>931</ele>
        <time>2019-06-17T09:00:14Z</time>
      </trkpt>
      <trkpt lat="44.18267" lon="5.52611">
        <ele>931</ele>
        <time>2019-06-17T09:00:15Z</time>
      </trkpt>
      <trkpt lat="44.18266" lon="5.52607">
        <ele>932</ele>
        <time>2019-06-17T09:00:16Z</time>
      </trkpt>
      <trkpt lat="44.18266" lon="5.52603">
        <ele>932</ele>
        <time>2019-06-17T09:00:17Z</time>
      </trkpt>
      <trkpt lat="44.18265" lon="5.52599">
        <ele>932</ele>
        <time>2019-06-17T09:00:18Z</time>
      </trkpt>
      <trkpt lat="44.18265" lon="5.52595">
        <ele>932</ele>
        <time>2019-06-17T09:00:19Z</time>
      </trkpt>
      <trkpt lat="44.18265" lon="5.52591">
        <ele>932</ele>
        <time>2019-06-17T09:00:20Z</time>
      </trkpt>
      <trkpt lat="44.18264" lon="5.52587">
        <ele>932</ele>
        <time>2019-06-17T09:00:21Z</time>
      </trkpt>
      <trkpt lat="44.18264" lon="5.52583">
        <ele>932</ele>
        <time>2019-06-17T09:00:22Z</time>
      </trkpt>
      <trkpt lat="44.18264" lon="5.52579">
        <ele>932</ele>
        <time>2019-06-17T09:00:23Z</time>
      </trkpt>
      <trkpt lat="44.18264" lon="5.52575">
        <ele>932</ele>
        <time>2019-06-17T09:00:24Z</time>
      </trkpt>
      <trkpt lat="44.18264" lon="5.52571">
        <ele>933</ele>
        <time>2019-06-17T09:00:25Z</time>
      </trkpt>
      <trkpt lat="44.18264" lon="5.52567">
        <ele>933</ele>
        <time>2019-06-17T09:00:26Z</time>
      </trkpt>
      <trkpt lat="44.18263" lon="5.52563">
        <ele>933</ele>
        <time>2019-06-17T09:00:27Z</time>
      </trkpt>
      <trkpt lat="44.18263" lon="5.52559">
        <ele>933</ele>
        <time>2019-06-17T09:00:28Z</time>
      </trkpt>
      <trkpt lat="44.18263" lon="5.52555">
        <ele>933</ele>
        <time>2019-06-17T09:00:29Z</time>
      </trkpt>
      <trkpt lat="44.18263" lon="5.52551">
        <ele>934</ele>
        <time>2019-06-17T09:00:30Z</time>
      </trkpt>
      <trkpt lat="44.18262" lon="5.52547">
        <ele>934</ele>
        <time>2019-06-17T09:00:31Z</time>
      </trkpt>
      <trkpt lat="44.18262" lon="5.52543">
        <ele>934</ele>
        <time>2019-06-17T09:00:32Z</time>
      </trkpt>
      <trkpt lat="44.18261" lon="5.5254">
        <ele>934</ele>
        <time>2019-06-17T09:00:33Z</time>
      </trkpt>
      <trkpt lat="44.18261" lon="5.52536">
        <ele>934</ele>
        <time>2019-06-17T09:00:34Z</time>
      </trkpt>
      <trkpt lat="44.1826" lon="5.52532">
        <ele>935</ele>
        <time>2019-06-17T09:00:35Z</time>
      </trkpt>
      <trkpt lat="44.1826" lon="5.52529">
        <ele>935</ele>
        <time>2019-06-17T09:00:36Z</time>
      </trkpt>
      <trkpt lat="44.18259" lon="5.52525">
        <ele>935</ele>
        <time>2019-06-17T09:00:37Z</time>
      </trkpt>
      <trkpt lat="44.18259" lon="5.52521">
        <ele>935</ele>
        <time>2019-06-17T09:00:38Z</time>
      </trkpt>
      <trkpt lat="44.18258" lon="5.52518">
        <ele>935</ele>
        <time>2019-06-17T09:00:39Z</time>
      </trkpt>
      <trkpt lat="44.18257" lon="5.52514">
        <ele>935</ele>
        <time>2019-06-17T09:00:40Z</time>
      </trkpt>
      <trkpt lat="44.18257" lon="5.5251">
        <ele>936</ele>
        <time>2019-06-17T09:00:41Z</time>
      </trkpt>
      <trkpt lat="44.18257" lon="5.52506">
        <ele>936</ele>
        <time>2019-06-17T09:00:42Z</time>
      </trkpt>
      <trkpt lat="44.18257" lon="5.52502">
        <ele>936</ele>
        <time>2019-06-17T09:00:43Z</time>
      </trkpt>
      <trkpt lat="44.18257" lon="5.52498">
        <ele>936</ele>
        <time>2019-06-17T09:00:44Z</time>
      </trkpt>
      <trkpt lat="44.18256" lon="5.52494">
        <ele>936</ele>
        <time>2019-06-17T09:00:45Z</time>
      </trkpt>
      <trkpt lat="44.18256" lon="5.5249">
        <ele>936</ele>
        <time>2019-06-17T09:00:46Z</time>
      </trkpt>
      <trkpt lat="44.18256" lon="5.52487">
        <ele>936</ele>
        <time>2019-06-17T09:00:47Z</time>
      </trkpt>
      <trkpt lat="44.18256" lon="5.52483">
        <ele>936</ele>
        <time>2019-06-17T09:00:48Z</time>
      </trkpt>
      <trkpt lat="44.18256" lon="5.52479">
        <ele>937</ele>
        <time>2019-06-17T09:00:49Z</time>
      </trkpt>
      <trkpt lat="44.18257" lon="5.52475">
        <ele>937</ele>
        <time>2019-06-17T09:00:50Z</time>
      </trkpt>
      <trkpt lat="44.18257" lon="5.52471">
        <ele>937</ele>
        <time>2019-06-17T09:00:51Z</time>
      </trkpt>
      <trkpt lat="44.18257" lon="5.52468">
        <ele>937</ele>
        <time>2019-06-17T09:00:52Z</time>
      </trkpt>
      <trkpt lat="44.18257" lon="5.52464">
        <ele>937</ele>
        <time>2019-06-17T09:00:53Z</time>
      </trkpt>
      <trkpt lat="44.18258" lon="5.5246">
        <ele>937</ele>
        <time>2019-06-17T09:00:54Z</time>
      </trkpt>
      <trkpt lat="44.18258" lon="5.52456">
        <ele>937</ele>
        <time>2019-06-17T09:00:55Z</time>
      </trkpt>
      <trkpt lat="44.18258" lon="5.52452">
        <ele>938</ele>
        <time>2019-06-17T09:00:56Z</time>
      </trkpt>
      <trkpt lat="44.18259" lon="5.52448">
        <ele>938</ele>
        <time>2019-06-17T09:00:57Z</time>
      </trkpt>
      <trkpt lat="44.18259" lon="5.52444">
        <ele>938</ele>
        <time>2019-06-17T09:00:58Z</time>
      </trkpt>
      <trkpt lat="44.1826" lon="5.52441">
        <ele>938</ele>
        <time>2019-06-17T09:00:59Z</time>
      </trkpt>
      <trkpt lat="44.1826" lon="5.52437">
        <ele>938</ele>
        <time>2019-06-17T09:01:00Z</time>
      </trkpt>
      <trkpt lat="44.18261" lon="5.52433">
        <ele>938</ele>
        <time>2019-06-17T09:01:01Z</time>
      </trkpt>
      <trkpt lat="44.18261" lon="5.52429">
        <ele>939</ele>
        <time>2019-06-17T09:01:02Z</time>
      </trkpt>
      <trkpt lat="44.18262" lon="5.52425">
        <ele>939</ele>
        <time>2019-06-17T09:01:03Z</time>
      </trkpt>
      <trkpt lat="44.18263" lon="5.52422">
        <ele>939</ele>
        <time>2019-06-17T09:01:04Z</time>
      </trkpt>
      <trkpt lat="44.18264" lon="5.52418">
        <ele>939</ele>
        <time>2019-06-17T09:01:05Z</time>
      </trkpt>
      <trkpt lat="44.18265" lon="5.52414">
        <ele>940</ele>
        <time>2019-06-17T09:01:06Z</time>
      </trkpt>
      <trkpt lat="44.18266" lon="5.52411">
        <ele>940</ele>
        <time>2019-06-17T09:01:07Z</time>
      </trkpt>
      <trkpt lat="44.18267" lon="5.52407">
        <ele>940</ele>
        <time>2019-06-17T09:01:08Z</time>
      </trkpt>
      <trkpt lat="44.18268" lon="5.52403">
        <ele>940</ele>
        <time>2019-06-17T09:01:09Z</time>
      </trkpt>
      <trkpt lat="44.18269" lon="5.524">
        <ele>941</ele>
        <time>2019-06-17T09:01:10Z</time>
      </trkpt>
      <trkpt lat="44.1827" lon="5.52396">
        <ele>941</ele>
        <time>2019-06-17T09:01:11Z</time>
      </trkpt>
      <trkpt lat="44.18272" lon="5.52393">
        <ele>941</ele>
        <time>2019-06-17T09:01:12Z</time>
      </trkpt>
      <trkpt lat="44.18273" lon="5.52389">
        <ele>941</ele>
        <time>2019-06-17T09:01:13Z</time>
      </trkpt>
      <trkpt lat="44.18274" lon="5.52386">
        <ele>941</ele>
        <time>2019-06-17T09:01:14Z</time>
      </trkpt>
      <trkpt lat="44.18275" lon="5.52382">
        <ele>941</ele>
        <time>2019-06-17T09:01:15Z</time>
      </trkpt>
      <trkpt lat="44.18276" lon="5.52379">
        <ele>941</ele>
        <time>2019-06-17T09:01:16Z</time>
      </trkpt>
      <trkpt lat="44.18277" lon="5.52376">
        <ele>942</ele>
        <time>2019-06-17T09:01:17Z</time>
      </trkpt>
      <trkpt lat="44.18279" lon="5.52373">
        <ele>942</ele>
        <time>2019-06-17T09:01:18Z</time>
      </trkpt>
      <trkpt lat="44.1828" lon="5.52369">
        <ele>942</ele>
        <time>2019-06-17T09:01:19Z</time>
      </trkpt>
      <trkpt lat="44.18281" lon="5.52366">
        <ele>942</ele>
        <time>2019-06-17T09:01:20Z</time>
      </trkpt>
      <trkpt lat="44.18282" lon="5.52362">
        <ele>942</ele>
        <time>2019-06-17T09:01:21Z</time>
      </trkpt>
      <trkpt lat="44.18284" lon="5.52358">
        <ele>942</ele>
        <time>2019-06-17T09:01:22Z</time>
      </trkpt>
      <trkpt lat="44.18285" lon="5.52354">
        <ele>942</ele>
        <time>2019-06-17T09:01:23Z</time>
      </trkpt>
      <trkpt lat="44.18286" lon="5.52351">
        <ele>942</ele>
        <time>2019-06-17T09:01:24Z</time>
      </trkpt>
      <trkpt lat="44.18287" lon="5.52347">
        <ele>942</ele>
        <time>2019-06-17T09:01:25Z</time>
      </trkpt>
      <trkpt lat="44.18287" lon="5.52343">
        <ele>942</ele>
        <time>2019-06-17T09:01:26Z</time>
      </trkpt>
      <trkpt lat="44.18288" lon="5.52339">
        <ele>942</ele>
        <time>2019-06-17T09:01:27Z</time>
      </trkpt>
      <trkpt lat="44.18288" lon="5.52334">
        <ele>942</ele>
        <time>2019-06-17T09:01:28Z</time>
      </trkpt>
      <trkpt lat="44.18288" lon="5.5233">
        <ele>943</ele>
        <time>2019-06-17T09:01:29Z</time>
      </trkpt>
      <trkpt lat="44.18288" lon="5.52326">
        <ele>943</ele>
        <time>2019-06-17T09:01:30Z</time>
      </trkpt>
      <trkpt lat="44.18288" lon="5.52322">
        <ele>943</ele>
        <time>2019-06-17T09:01:31Z</time>
      </trkpt>
      <trkpt lat="44.18288" lon="5.52319">
        <ele>943</ele>
        <time>2019-06-17T09:01:32Z</time>
      </trkpt>
      <trkpt lat="44.18288" lon="5.52315">
        <ele>943</ele>
        <time>2019-06-17T09:01:33Z</time>
      </trkpt>
      <trkpt lat="44.18289" lon="5.52311">
        <ele>943</ele>
        <time>2019-06-17T09:01:34Z</time>
      </trkpt>
      <trkpt lat="44.18288" lon="5.52307">
        <ele>943</ele>
        <time>2019-06-17T09:01:35Z</time>
      </trkpt>
      <trkpt lat="44.18288" lon="5.52304">
        <ele>943</ele>
        <time>2019-06-17T09:01:36Z</time>
      </trkpt>
      <trkpt lat="44.18288" lon="5.52301">
        <ele>943</ele>
        <time>2019-06-17T09:01:37Z</time>
      </trkpt>
      <trkpt lat="44.18288" lon="5.52298">
        <ele>943</ele>
        <time>2019-06-17T09:01:38Z</time>
      </trkpt>
      <trkpt lat="44.18288" lon="5.52295">
        <ele>944</ele>
        <time>2019-06-17T09:01:39Z</time>
      </trkpt>
      <trkpt lat="44.18288" lon="5.52292">
        <ele>944</ele>
        <time>2019-06-17T09:01:40Z</time>
      </trkpt>
      <trkpt lat="44.18288" lon="5.52288">
        <ele>944</ele>
        <time>2019-06-17T09:01:41Z</time>
      </trkpt>
      <trkpt lat="44.18288" lon="5.52285">
        <ele>944</ele>
        <time>2019-06-17T09:01:42Z</time>
      </trkpt>
      <trkpt lat="44.18289" lon="5.52282">
        <ele>944</ele>
        <time>2019-06-17T09:01:43Z</time>
      </trkpt>
      <trkpt lat="44.18289" lon="5.52279">
        <ele>944</ele>
        <time>2019-06-17T09:01:44Z</time>
      </trkpt>
      <trkpt lat="44.1829" lon="5.52275">
        <ele>944</ele>
        <time>2019-06-17T09:01:45Z</time>
      </trkpt>
      <trkpt lat="44.18291" lon="5.52272">
        <ele>944</ele>
        <time>2019-06-17T09:01:46Z</time>
      </trkpt>
      <trkpt lat="44.18291" lon="5.52269">
        <ele>945</ele>
        <time>2019-06-17T09:01:47Z</time>
      </trkpt>
      <trkpt lat="44.18291" lon="5.52265">
        <ele>945</ele>
        <time>2019-06-17T09:01:48Z</time>
      </trkpt>
      <trkpt lat="44.18292" lon="5.52261">
        <ele>945</ele>
        <time>2019-06-17T09:01:49Z</time>
      </trkpt>
      <trkpt lat="44.18292" lon="5.52258">
        <ele>945</ele>
        <time>2019-06-17T09:01:50Z</time>
      </trkpt>
      <trkpt lat="44.18293" lon="5.52255">
        <ele>945</ele>
        <time>2019-06-17T09:01:51Z</time>
      </trkpt>
      <trkpt lat="44.18293" lon="5.52252">
        <ele>946</ele>
        <time>2019-06-17T09:01:52Z</time>
      </trkpt>
      <trkpt lat="44.18295" lon="5.52248">
        <ele>946</ele>
        <time>2019-06-17T09:01:53Z</time>
      </trkpt>
      <trkpt lat="44.18296" lon="5.52245">
        <ele>946</ele>
        <time>2019-06-17T09:01:54Z</time>
      </trkpt>
      <trkpt lat="44.18297" lon="5.52242">
        <ele>946</ele>
        <time>2019-06-17T09:01:55Z</time>
      </trkpt>
      <trkpt lat="44.18298" lon="5.52239">
        <ele>947</ele>
        <time>2019-06-17T09:01:56Z</time>
      </trkpt>
      <trkpt lat="44.18298" lon="5.52236">
        <ele>947</ele>
        <time>2019-06-17T09:01:57Z</time>
      </trkpt>
      <trkpt lat="44.183" lon="5.52232">
        <ele>947</ele>
        <time>2019-06-17T09:01:58Z</time>
      </trkpt>
      <trkpt lat="44.18301" lon="5.52229">
        <ele>947</ele>
        <time>2019-06-17T09:01:59Z</time>
      </trkpt>
      <trkpt lat="44.18302" lon="5.52226">
        <ele>947</ele>
        <time>2019-06-17T09:02:00Z</time>
      </trkpt>
      <trkpt lat="44.18303" lon="5.52222">
        <ele>947</ele>
        <time>2019-06-17T09:02:01Z</time>
      </trkpt>
      <trkpt lat="44.18305" lon="5.52219">
        <ele>947</ele>
        <time>2019-06-17T09:02:02Z</time>
      </trkpt>
      <trkpt lat="44.18307" lon="5.52216">
        <ele>947</ele>
        <time>2019-06-17T09:02:03Z</time>
      </trkpt>
      <trkpt lat="44.18309" lon="5.52213">
        <ele>947</ele>
        <time>2019-06-17T09:02:04Z</time>
      </trkpt>
      <trkpt lat="44.1831" lon="5.5221">
        <ele>947</ele>
        <time>2019-06-17T09:02:05Z</time>
      </trkpt>
      <trkpt lat="44.18312" lon="5.52206">
        <ele>948</ele>
        <time>2019-06-17T09:02:06Z</time>
      </trkpt>
      <trkpt lat="44.18314" lon="5.52203">
        <ele>948</ele>
        <time>2019-06-17T09:02:07Z</time>
      </trkpt>
      <trkpt lat="44.18315" lon="5.522">
        <ele>949</ele>
        <time>2019-06-17T09:02:08Z</time>
      </trkpt>
      <trkpt lat="44.18317" lon="5.52197">
        <ele>949</ele>
        <time>2019-06-17T09:02:09Z</time>
      </trkpt>
      <trkpt lat="44.18318" lon="5.52193">
        <ele>949</ele>
        <time>2019-06-17T09:02:10Z</time>
      </trkpt>
      <trkpt lat="44.18319" lon="5.5219">
        <ele>949</ele>
        <time>2019-06-17T09:02:11Z</time>
      </trkpt>
      <trkpt lat="44.18321" lon="5.52187">
        <ele>950</ele>
        <time>2019-06-17T09:02:12Z</time>
      </trkpt>
      <trkpt lat="44.18322" lon="5.52184">
        <ele>950</ele>
        <time>2019-06-17T09:02:13Z</time>
      </trkpt>
      <trkpt lat="44.18324" lon="5.52181">
        <ele>950</ele>
        <time>2019-06-17T09:02:14Z</time>
      </trkpt>
      <trkpt lat="44.18325" lon="5.52178">
        <ele>951</ele>
        <time>2019-06-17T09:02:15Z</time>
      </trkpt>
      <trkpt lat="44.18326" lon="5.52175">
        <ele>951</ele>
        <time>2019-06-17T09:02:16Z</time>
      </trkpt>
      <trkpt lat="44.18327" lon="5.52172">
        <ele>951</ele>
        <time>2019-06-17T09:02:17Z</time>
      </trkpt>
      <trkpt lat="44.18329" lon="5.52169">
        <ele>952</ele>
        <time>2019-06-17T09:02:18Z</time>
      </trkpt>
      <trkpt lat="44.1833" lon="5.52166">
        <ele>952</ele>
        <time>2019-06-17T09:02:19Z</time>
      </trkpt>
      <trkpt lat="44.18332" lon="5.52164">
        <ele>952</ele>
        <time>2019-06-17T09:02:20Z</time>
      </trkpt>
      <trkpt lat="44.18333" lon="5.5216">
        <ele>953</ele>
        <time>2019-06-17T09:02:21Z</time>
      </trkpt>
      <trkpt lat="44.18335" lon="5.52157">
        <ele>953</ele>
        <time>2019-06-17T09:02:22Z</time>
      </trkpt>
      <trkpt lat="44.18336" lon="5.52154">
        <ele>954</ele>
        <time>2019-06-17T09:02:23Z</time>
      </trkpt>
      <trkpt lat="44.18338" lon="5.5215">
        <ele>954</ele>
        <time>2019-06-17T09:02:24Z</time>
      </trkpt>
      <trkpt lat="44.18339" lon="5.52148">
        <ele>955</ele>
        <time>2019-06-17T09:02:25Z</time>
      </trkpt>
      <trkpt lat="44.1834" lon="5.52145">
        <ele>956</ele>
        <time>2019-06-17T09:02:26Z</time>
      </trkpt>
      <trkpt lat="44.18341" lon="5.52142">
        <ele>956</ele>
        <time>2019-06-17T09:02:27Z</time>
      </trkpt>
      <trkpt lat="44.18342" lon="5.52139">
        <ele>957</ele>
        <time>2019-06-17T09:02:28Z</time>
      </trkpt>
      <trkpt lat="44.18344" lon="5.52136">
        <ele>957</ele>
        <time>2019-06-17T09:02:29Z</time>
      </trkpt>
      <trkpt lat="44.18345" lon="5.52133">
        <ele>958</ele>
        <time>2019-06-17T09:02:30Z</time>
      </trkpt>
      <trkpt lat="44.18347" lon="5.5213">
        <ele>958</ele>
        <time>2019-06-17T09:02:31Z</time>
      </trkpt>
      <trkpt lat="44.18348" lon="5.52127">
        <ele>959</ele>
        <time>2019-06-17T09:02:32Z</time>
      </trkpt>
      <trkpt lat="44.18349" lon="5.52124">
        <ele>959</ele>
        <time>2019-06-17T09:02:33Z</time>
      </trkpt>
      <trkpt lat="44.18351" lon="5.52121">
        <ele>959</ele>
        <time>2019-06-17T09:02:34Z</time>
      </trkpt>
      <trkpt lat="44.18352" lon="5.52118">
        <ele>959</ele>
        <time>2019-06-17T09:02:35Z</time>
      </trkpt>
      <trkpt lat="44.18353" lon="5.52114">
        <ele>960</ele>
        <time>2019-06-17T09:02:36Z</time>
      </trkpt>
      <trkpt lat="44.18354" lon="5.52111">
        <ele>960</ele>
        <time>2019-06-17T09:02:37Z</time>
      </trkpt>
      <trkpt lat="44.18355" lon="5.52108">
        <ele>960</ele>
        <time>2019-06-17T09:02:38Z</time>
      </trkpt>
      <trkpt lat="44.18356" lon="5.52105">
        <ele>960</ele>
        <time>2019-06-17T09:02:39Z</time>
      </trkpt>
      <trkpt lat="44.18356" lon="5.52101">
        <ele>961</ele>
        <time>2019-06-17T09:02:40Z</time>
      </trkpt>
      <trkpt lat="44.18357" lon="5.52098">
        <ele>961</ele>
        <time>2019-06-17T09:02:41Z</time>
      </trkpt>
      <trkpt lat="44.18358" lon="5.52095">
        <ele>961</ele>
        <time>2019-06-17T09:02:42Z</time>
      </trkpt>
      <trkpt lat="44.18358" lon="5.52092">
        <ele>961</ele>
        <time>2019-06-17T09:02:43Z</time>
      </trkpt>
      <trkpt lat="44.18359" lon="5.52089">
        <ele>961</ele>
        <time>2019-06-17T09:02:44Z</time>
      </trkpt>
      <trkpt lat="44.18359" lon="5.52085">
        <ele>961</ele>
        <time>2019-06-17T09:02:45Z</time>
      </trkpt>
      <trkpt lat="44.1836" lon="5.52082">
        <ele>961</ele>
        <time>2019-06-17T09:02:46Z</time>
      </trkpt>
      <trkpt lat="44.1836" lon="5.52079">
        <ele>961</ele>
        <time>2019-06-17T09:02:47Z</time>
      </trkpt>
      <trkpt lat="44.18359" lon="5.52075">
        <ele>961</ele>
        <time>2019-06-17T09:02:48Z</time>
      </trkpt>
      <trkpt lat="44.18359" lon="5.52072">
        <ele>961</ele>
        <time>2019-06-17T09:02:49Z</time>
      </trkpt>
      <trkpt lat="44.18359" lon="5.52069">
        <ele>961</ele>
        <time>2019-06-17T09:02:50Z</time>
      </trkpt>
      <trkpt lat="44.18359" lon="5.52065">
        <ele>961</ele>
        <time>2019-06-17T09:02:51Z</time>
      </trkpt>
      <trkpt lat="44.18359" lon="5.52061">
        <ele>961</ele>
        <time>2019-06-17T09:02:52Z</time>
      </trkpt>
      <trkpt lat="44.18358" lon="5.52058">
        <ele>962</ele>
        <time>2019-06-17T09:02:53Z</time>
      </trkpt>
      <trkpt lat="44.18357" lon="5.52055">
        <ele>962</ele>
        <time>2019-06-17T09:02:54Z</time>
      </trkpt>
      <trkpt lat="44.18356" lon="5.52051">
        <ele>962</ele>
        <time>2019-06-17T09:02:55Z</time>
      </trkpt>
      <trkpt lat="44.18355" lon="5.52047">
        <ele>962</ele>
        <time>2019-06-17T09:02:56Z</time>
      </trkpt>
      <trkpt lat="44.18354" lon="5.52044">
        <ele>962</ele>
        <time>2019-06-17T09:02:57Z</time>
      </trkpt>
      <trkpt lat="44.18352" lon="5.52041">
        <ele>962</ele>
        <time>2019-06-17T09:02:58Z</time>
      </trkpt>
      <trkpt lat="44.18351" lon="5.52037">
        <ele>963</ele>
        <time>2019-06-17T09:02:59Z</time>
      </trkpt>
      <trkpt lat="44.18351" lon="5.52034">
        <ele>963</ele>
        <time>2019-06-17T09:03:00Z</time>
      </trkpt>
      <trkpt lat="44.1835" lon="5.52031">
        <ele>963</ele>
        <time>2019-06-17T09:03:01Z</time>
      </trkpt>
      <trkpt lat="44.18349" lon="5.52027">
        <ele>964</ele>
        <time>2019-06-17T09:03:02Z</time>
      </trkpt>
      <trkpt lat="44.18348" lon="5.52024">
        <ele>964</ele>
        <time>2019-06-17T09:03:03Z</time>
      </trkpt>
      <trkpt lat="44.18348" lon="5.5202">
        <ele>964</ele>
        <time>2019-06-17T09:03:04Z</time>
      </trkpt>
      <trkpt lat="44.18346" lon="5.52016">
        <ele>964</ele>
        <time>2019-06-17T09:03:05Z</time>
      </trkpt>
      <trkpt lat="44.18345" lon="5.52012">
        <ele>965</ele>
        <time>2019-06-17T09:03:06Z</time>
      </trkpt>
      <trkpt lat="44.18344" lon="5.52009">
        <ele>965</ele>
        <time>2019-06-17T09:03:07Z</time>
      </trkpt>
      <trkpt lat="44.18343" lon="5.52005">
        <ele>965</ele>
        <time>2019-06-17T09:03:08Z</time>
      </trkpt>
      <trkpt lat="44.18341" lon="5.52001">
        <ele>966</ele>
        <time>2019-06-17T09:03:09Z</time>
      </trkpt>
      <trkpt lat="44.18341" lon="5.51997">
        <ele>966</ele>
        <time>2019-06-17T09:03:10Z</time>
      </trkpt>
      <trkpt lat="44.1834" lon="5.51994">
        <ele>966</ele>
        <time>2019-06-17T09:03:11Z</time>
      </trkpt>
      <trkpt lat="44.18339" lon="5.5199">
        <ele>966</ele>
        <time>2019-06-17T09:03:12Z</time>
      </trkpt>
      <trkpt lat="44.18338" lon="5.51986">
        <ele>967</ele>
        <time>2019-06-17T09:03:13Z</time>
      </trkpt>
      <trkpt lat="44.18336" lon="5.51983">
        <ele>967</ele>
        <time>2019-06-17T09:03:14Z</time>
      </trkpt>
      <trkpt lat="44.18335" lon="5.51979">
        <ele>967</ele>
        <time>2019-06-17T09:03:15Z</time>
      </trkpt>
      <trkpt lat="44.18334" lon="5.51975">
        <ele>968</ele>
        <time>2019-06-17T09:03:16Z</time>
      </trkpt>
      <trkpt lat="44.18333" lon="5.51971">
        <ele>968</ele>
        <time>2019-06-17T09:03:17Z</time>
      </trkpt>
      <trkpt lat="44.18332" lon="5.51968">
        <ele>968</ele>
        <time>2019-06-17T09:03:18Z</time>
      </trkpt>
      <trkpt lat="44.1833" lon="5.51964">
        <ele>968</ele>
        <time>2019-06-17T09:03:19Z</time>
      </trkpt>
      <trkpt lat="44.18329" lon="5.51961">
        <ele>969</ele>
        <time>2019-06-17T09:03:20Z</time>
      </trkpt>
      <trkpt lat="44.18327" lon="5.51957">
        <ele>969</ele>
        <time>2019-06-17T09:03:21Z</time>
      </trkpt>
      <trkpt lat="44.18326" lon="5.51954">
        <ele>969</ele>
        <time>2019-06-17T09:03:22Z</time>
      </trkpt>
      <trkpt lat="44.18324" lon="5.5195">
        <ele>969</ele>
        <time>2019-06-17T09:03:23Z</time>
      </trkpt>
      <trkpt lat="44.18323" lon="5.51947">
        <ele>970</ele>
        <time>2019-06-17T09:03:24Z</time>
      </trkpt>
      <trkpt lat="44.18321" lon="5.51944">
        <ele>970</ele>
        <time>2019-06-17T09:03:25Z</time>
      </trkpt>
      <trkpt lat="44.18319" lon="5.51941">
        <ele>970</ele>
        <time>2019-06-17T09:03:26Z</time>
      </trkpt>
      <trkpt lat="44.18318" lon="5.51938">
        <ele>970</ele>
        <time>2019-06-17T09:03:27Z</time>
      </trkpt>
      <trkpt lat="44.18316" lon="5.51935">
        <ele>970</ele>
        <time>2019-06-17T09:03:28Z</time>
      </trkpt>
      <trkpt lat="44.18314" lon="5.51932">
        <ele>971</ele>
        <time>2019-06-17T09:03:29Z</time>
      </trkpt>
      <trkpt lat="44.18312" lon="5.51929">
        <ele>971</ele>
        <time>2019-06-17T09:03:30Z</time>
      </trkpt>
      <trkpt lat="44.18311" lon="5.51926">
        <ele>971</ele>
        <time>2019-06-17T09:03:31Z</time>
      </trkpt>
      <trkpt lat="44.18309" lon="5.51923">
        <ele>971</ele>
        <time>2019-06-17T09:03:32Z</time>
      </trkpt>
      <trkpt lat="44.18307" lon="5.5192">
        <ele>972</ele>
        <time>2019-06-17T09:03:33Z</time>
      </trkpt>
      <trkpt lat="44.18305" lon="5.51917">
        <ele>972</ele>
        <time>2019-06-17T09:03:34Z</time>
      </trkpt>
      <trkpt lat="44.18304" lon="5.51914">
        <ele>972</ele>
        <time>2019-06-17T09:03:35Z</time>
      </trkpt>
      <trkpt lat="44.18302" lon="5.51911">
        <ele>972</ele>
        <time>2019-06-17T09:03:36Z</time>
      </trkpt>
      <trkpt lat="44.183" lon="5.51908">
        <ele>972</ele>
        <time>2019-06-17T09:03:37Z</time>
      </trkpt>
      <trkpt lat="44.18298" lon="5.51906">
        <ele>973</ele>
        <time>2019-06-17T09:03:38Z</time>
      </trkpt>
      <trkpt lat="44.18296" lon="5.51903">
        <ele>973</ele>
        <time>2019-06-17T09:03:39Z</time>
      </trkpt>
      <trkpt lat="44.18295" lon="5.519">
        <ele>973</ele>
        <time>2019-06-17T09:03:40Z</time>
      </trkpt>
      <trkpt lat="44.18293" lon="5.51897">
        <ele>973</ele>
        <time>2019-06-17T09:03:41Z</time>
      </trkpt>
      <trkpt lat="44.18291" lon="5.51894">
        <ele>974</ele>
        <time>2019-06-17T09:03:42Z</time>
      </trkpt>
      <trkpt lat="44.1829" lon="5.51891">
        <ele>974</ele>
        <time>2019-06-17T09:03:43Z</time>
      </trkpt>
      <trkpt lat="44.18289" lon="5.51887">
        <ele>974</ele>
        <time>2019-06-17T09:03:44Z</time>
      </trkpt>
      <trkpt lat="44.18288" lon="5.51883">
        <ele>974</ele>
        <time>2019-06-17T09:03:45Z</time>
      </trkpt>
      <trkpt lat="44.18287" lon="5.51879">
        <ele>974</ele>
        <time>2019-06-17T09:03:46Z</time>
      </trkpt>
      <trkpt lat="44.18285" lon="5.51875">
        <ele>974</ele>
        <time>2019-06-17T09:03:47Z</time>
      </trkpt>
      <trkpt lat="44.18285" lon="5.51871">
        <ele>974</ele>
        <time>2019-06-17T09:03:48Z</time>
      </trkpt>
      <trkpt lat="44.18284" lon="5.51867">
        <ele>974</ele>
        <time>2019-06-17T09:03:49Z</time>
      </trkpt>
      <trkpt lat="44.18283" lon="5.51863">
        <ele>974</ele>
        <time>2019-06-17T09:03:50Z</time>
      </trkpt>
      <trkpt lat="44.18283" lon="5.51859">
        <ele>974</ele>
        <time>2019-06-17T09:03:51Z</time>
      </trkpt>
      <trkpt lat="44.18283" lon="5.51854">
        <ele>974</ele>
        <time>2019-06-17T09:03:52Z</time>
      </trkpt>
      <trkpt lat="44.18283" lon="5.5185">
        <ele>974</ele>
        <time>2019-06-17T09:03:53Z</time>
      </trkpt>
      <trkpt lat="44.18284" lon="5.51846">
        <ele>974</ele>
        <time>2019-06-17T09:03:54Z</time>
      </trkpt>
      <trkpt lat="44.18284" lon="5.51841">
        <ele>974</ele>
        <time>2019-06-17T09:03:55Z</time>
      </trkpt>
      <trkpt lat="44.18285" lon="5.51836">
        <ele>975</ele>
        <time>2019-06-17T09:03:56Z</time>
      </trkpt>
      <trkpt lat="44.18285" lon="5.51832">
        <ele>975</ele>
        <time>2019-06-17T09:03:57Z</time>
      </trkpt>
      <trkpt lat="44.18286" lon="5.51828">
        <ele>975</ele>
        <time>2019-06-17T09:03:58Z</time>
      </trkpt>
      <trkpt lat="44.18288" lon="5.51824">
        <ele>975</ele>
        <time>2019-06-17T09:03:59Z</time>
      </trkpt>
      <trkpt lat="44.18289" lon="5.5182">
        <ele>976</ele>
        <time>2019-06-17T09:04:00Z</time>
      </trkpt>
      <trkpt lat="44.18291" lon="5.51816">
        <ele>976</ele>
        <time>2019-06-17T09:04:01Z</time>
      </trkpt>
      <trkpt lat="44.18293" lon="5.51813">
        <ele>976</ele>
        <time>2019-06-17T09:04:02Z</time>
      </trkpt>
      <trkpt lat="44.18296" lon="5.5181">
        <ele>977</ele>
        <time>2019-06-17T09:04:03Z</time>
      </trkpt>
      <trkpt lat="44.18298" lon="5.51806">
        <ele>977</ele>
        <time>2019-06-17T09:04:04Z</time>
      </trkpt>
      <trkpt lat="44.183" lon="5.51803">
        <ele>977</ele>
        <time>2019-06-17T09:04:05Z</time>
      </trkpt>
      <trkpt lat="44.18302" lon="5.518">
        <ele>978</ele>
        <time>2019-06-17T09:04:06Z</time>
      </trkpt>
      <trkpt lat="44.18305" lon="5.51797">
        <ele>978</ele>
        <time>2019-06-17T09:04:07Z</time>
      </trkpt>
      <trkpt lat="44.18307" lon="5.51794">
        <ele>978</ele>
        <time>2019-06-17T09:04:08Z</time>
      </trkpt>
      <trkpt lat="44.18309" lon="5.51791">
        <ele>979</ele>
        <time>2019-06-17T09:04:09Z</time>
      </trkpt>
      <trkpt lat="44.18311" lon="5.51788">
        <ele>979</ele>
        <time>2019-06-17T09:04:10Z</time>
      </trkpt>
      <trkpt lat="44.18314" lon="5.51785">
        <ele>979</ele>
        <time>2019-06-17T09:04:11Z</time>
      </trkpt>
      <trkpt lat="44.18316" lon="5.51783">
        <ele>979</ele>
        <time>2019-06-17T09:04:12Z</time>
      </trkpt>
      <trkpt lat="44.18319" lon="5.51781">
        <ele>979</ele>
        <time>2019-06-17T09:04:13Z</time>
      </trkpt>
      <trkpt lat="44.18321" lon="5.51778">
        <ele>979</ele>
        <time>2019-06-17T09:04:14Z</time>
      </trkpt>
      <trkpt lat="44.18323" lon="5.51776">
        <ele>979</ele>
        <time>2019-06-17T09:04:15Z</time>
      </trkpt>
      <trkpt lat="44.18325" lon="5.51773">
        <ele>979</ele>
        <time>2019-06-17T09:04:16Z</time>
      </trkpt>
      <trkpt lat="44.18327" lon="5.5177">
        <ele>979</ele>
        <time>2019-06-17T09:04:17Z</time>
      </trkpt>
      <trkpt lat="44.18329" lon="5.51767">
        <ele>979</ele>
        <time>2019-06-17T09:04:18Z</time>
      </trkpt>
      <trkpt lat="44.18331" lon="5.51764">
        <ele>979</ele>
        <time>2019-06-17T09:04:19Z</time>
      </trkpt>
      <trkpt lat="44.18333" lon="5.51761">
        <ele>979</ele>
        <time>2019-06-17T09:04:20Z</time>
      </trkpt>
      <trkpt lat="44.18335" lon="5.51759">
        <ele>979</ele>
        <time>2019-06-17T09:04:21Z</time>
      </trkpt>
      <trkpt lat="44.18338" lon="5.51757">
        <ele>980</ele>
        <time>2019-06-17T09:04:22Z</time>
      </trkpt>
      <trkpt lat="44.1834" lon="5.51754">
        <ele>980</ele>
        <time>2019-06-17T09:04:23Z</time>
      </trkpt>
      <trkpt lat="44.18342" lon="5.51752">
        <ele>980</ele>
        <time>2019-06-17T09:04:24Z</time>
      </trkpt>
      <trkpt lat="44.18344" lon="5.51749">
        <ele>980</ele>
        <time>2019-06-17T09:04:25Z</time>
      </trkpt>
      <trkpt lat="44.18346" lon="5.51746">
        <ele>980</ele>
        <time>2019-06-17T09:04:26Z</time>
      </trkpt>
      <trkpt lat="44.18348" lon="5.51743">
        <ele>980</ele>
        <time>2019-06-17T09:04:27Z</time>
      </trkpt>
      <trkpt lat="44.18349" lon="5.5174">
        <ele>980</ele>
        <time>2019-06-17T09:04:28Z</time>
      </trkpt>
      <trkpt lat="44.18351" lon="5.51737">
        <ele>980</ele>
        <time>2019-06-17T09:04:29Z</time>
      </trkpt>
      <trkpt lat="44.18353" lon="5.51734">
        <ele>980</ele>
        <time>2019-06-17T09:04:30Z</time>
      </trkpt>
      <trkpt lat="44.18354" lon="5.51731">
        <ele>980</ele>
        <time>2019-06-17T09:04:31Z</time>
      </trkpt>
      <trkpt lat="44.18356" lon="5.51727">
        <ele>980</ele>
        <time>2019-06-17T09:04:32Z</time>
      </trkpt>
      <trkpt lat="44.18357" lon="5.51724">
        <ele>980</ele>
        <time>2019-06-17T09:04:33Z</time>
      </trkpt>
      <trkpt lat="44.18358" lon="5.51721">
        <ele>980</ele>
        <time>2019-06-17T09:04:34Z</time>
      </trkpt>
      <trkpt lat="44.18359" lon="5.51717">
        <ele>980</ele>
        <time>2019-06-17T09:04:35Z</time>
      </trkpt>
      <trkpt lat="44.1836" lon="5.51713">
        <ele>980</ele>
        <time>2019-06-17T09:04:36Z</time>
      </trkpt>
      <trkpt lat="44.18362" lon="5.51709">
        <ele>980</ele>
        <time>2019-06-17T09:04:37Z</time>
      </trkpt>
      <trkpt lat="44.18363" lon="5.51706">
        <ele>980</ele>
        <time>2019-06-17T09:04:38Z</time>
      </trkpt>
      <trkpt lat="44.18364" lon="5.51702">
        <ele>980</ele>
        <time>2019-06-17T09:04:39Z</time>
      </trkpt>
      <trkpt lat="44.18365" lon="5.51698">
        <ele>980</ele>
        <time>2019-06-17T09:04:40Z</time>
      </trkpt>
      <trkpt lat="44.18366" lon="5.51694">
        <ele>980</ele>
        <time>2019-06-17T09:04:41Z</time>
      </trkpt>
      <trkpt lat="44.18367" lon="5.5169">
        <ele>980</ele>
        <time>2019-06-17T09:04:42Z</time>
      </trkpt>
      <trkpt lat="44.18367" lon="5.51686">
        <ele>980</ele>
        <time>2019-06-17T09:04:43Z</time>
      </trkpt>
      <trkpt lat="44.18368" lon="5.51682">
        <ele>980</ele>
        <time>2019-06-17T09:04:44Z</time>
      </trkpt>
      <trkpt lat="44.18369" lon="5.51678">
        <ele>980</ele>
        <time>2019-06-17T09:04:45Z</time>
      </trkpt>
      <trkpt lat="44.1837" lon="5.51674">
        <ele>980</ele>
        <time>2019-06-17T09:04:46Z</time>
      </trkpt>
      <trkpt lat="44.1837" lon="5.5167">
        <ele>980</ele>
        <time>2019-06-17T09:04:47Z</time>
      </trkpt>
      <trkpt lat="44.18371" lon="5.51666">
        <ele>981</ele>
        <time>2019-06-17T09:04:48Z</time>
      </trkpt>
      <trkpt lat="44.18371" lon="5.51662">
        <ele>981</ele>
        <time>2019-06-17T09:04:49Z</time>
      </trkpt>
      <trkpt lat="44.18372" lon="5.51658">
        <ele>981</ele>
        <time>2019-06-17T09:04:50Z</time>
      </trkpt>
      <trkpt lat="44.18372" lon="5.51654">
        <ele>981</ele>
        <time>2019-06-17T09:04:51Z</time>
      </trkpt>
      <trkpt lat="44.18372" lon="5.51649">
        <ele>981</ele>
        <time>2019-06-17T09:04:52Z</time>
      </trkpt>
      <trkpt lat="44.18373" lon="5.51645">
        <ele>981</ele>
        <time>2019-06-17T09:04:53Z</time>
      </trkpt>
      <trkpt lat="44.18373" lon="5.51641">
        <ele>981</ele>
        <time>2019-06-17T09:04:54Z</time>
      </trkpt>
      <trkpt lat="44.18373" lon="5.51637">
        <ele>981</ele>
        <time>2019-06-17T09:04:55Z</time>
      </trkpt>
      <trkpt lat="44.18374" lon="5.51632">
        <ele>981</ele>
        <time>2019-06-17T09:04:56Z</time>
      </trkpt>
      <trkpt lat="44.18374" lon="5.51628">
        <ele>981</ele>
        <time>2019-06-17T09:04:57Z</time>
      </trkpt>
      <trkpt lat="44.18374" lon="5.51624">
        <ele>982</ele>
        <time>2019-06-17T09:04:58Z</time>
      </trkpt>
      <trkpt lat="44.18375" lon="5.5162">
        <ele>982</ele>
        <time>2019-06-17T09:04:59Z</time>
      </trkpt>
      <trkpt lat="44.18375" lon="5.51616">
        <ele>982</ele>
        <time>2019-06-17T09:05:00Z</time>
      </trkpt>
      <trkpt lat="44.18375" lon="5.51612">
        <ele>982</ele>
        <time>2019-06-17T09:05:01Z</time>
      </trkpt>
      <trkpt lat="44.18376" lon="5.51608">
        <ele>983</ele>
        <time>2019-06-17T09:05:02Z</time>
      </trkpt>
      <trkpt lat="44.18376" lon="5.51604">
        <ele>983</ele>
        <time>2019-06-17T09:05:03Z</time>
      </trkpt>
      <trkpt lat="44.18376" lon="5.516">
        <ele>983</ele>
        <time>2019-06-17T09:05:04Z</time>
      </trkpt>
      <trkpt lat="44.18376" lon="5.51596">
        <ele>983</ele>
        <time>2019-06-17T09:05:05Z</time>
      </trkpt>
      <trkpt lat="44.18376" lon="5.51592">
        <ele>983</ele>
        <time>2019-06-17T09:05:06Z</time>
      </trkpt>
      <trkpt lat="44.18377" lon="5.51588">
        <ele>983</ele>
        <time>2019-06-17T09:05:07Z</time>
      </trkpt>
      <trkpt lat="44.18377" lon="5.51584">
        <ele>984</ele>
        <time>2019-06-17T09:05:08Z</time>
      </trkpt>
      <trkpt lat="44.18377" lon="5.5158">
        <ele>984</ele>
        <time>2019-06-17T09:05:09Z</time>
      </trkpt>
      <trkpt lat="44.18377" lon="5.51576">
        <ele>984</ele>
        <time>2019-06-17T09:05:10Z</time>
      </trkpt>
      <trkpt lat="44.18377" lon="5.51572">
        <ele>984</ele>
        <time>2019-06-17T09:05:11Z</time>
      </trkpt>
      <trkpt lat="44.18378" lon="5.51568">
        <ele>985</ele>
        <time>2019-06-17T09:05:12Z</time>
      </trkpt>
      <trkpt lat="44.18378" lon="5.51564">
        <ele>985</ele>
        <time>2019-06-17T09:05:13Z</time>
      </trkpt>
      <trkpt lat="44.18378" lon="5.5156">
        <ele>985</ele>
        <time>2019-06-17T09:05:14Z</time>
      </trkpt>
      <trkpt lat="44.18378" lon="5.51556">
        <ele>985</ele>
        <time>2019-06-17T09:05:15Z</time>
      </trkpt>
      <trkpt lat="44.18378" lon="5.51552">
        <ele>985</ele>
        <time>2019-06-17T09:05:16Z</time>
      </trkpt>
      <trkpt lat="44.18379" lon="5.51548">
        <ele>985</ele>
        <time>2019-06-17T09:05:17Z</time>
      </trkpt>
      <trkpt lat="44.18379" lon="5.51544">
        <ele>985</ele>
        <time>2019-06-17T09:05:18Z</time>
      </trkpt>
      <trkpt lat="44.1838" lon="5.5154">
        <ele>985</ele>
        <time>2019-06-17T09:05:19Z</time>
      </trkpt>
      <trkpt lat="44.1838" lon="5.51536">
        <ele>985</ele>
        <time>2019-06-17T09:05:20Z</time>
      </trkpt>
      <trkpt lat="44.18381" lon="5.51532">
        <ele>985</ele>
        <time>2019-06-17T09:05:21Z</time>
      </trkpt>
      <trkpt lat="44.18382" lon="5.51528">
        <ele>985</ele>
        <time>2019-06-17T09:05:22Z</time>
      </trkpt>
      <trkpt lat="44.18382" lon="5.51524">
        <ele>985</ele>
        <time>2019-06-17T09:05:23Z</time>
      </trkpt>
      <trkpt lat="44.18383" lon="5.5152">
        <ele>985</ele>
        <time>2019-06-17T09:05:24Z</time>
      </trkpt>
      <trkpt lat="44.18384" lon="5.51516">
        <ele>986</ele>
        <time>2019-06-17T09:05:25Z</time>
      </trkpt>
      <trkpt lat="44.18385" lon="5.51512">
        <ele>986</ele>
        <time>2019-06-17T09:05:26Z</time>
      </trkpt>
      <trkpt lat="44.18386" lon="5.51509">
        <ele>986</ele>
        <time>2019-06-17T09:05:27Z</time>
      </trkpt>
      <trkpt lat="44.18387" lon="5.51505">
        <ele>986</ele>
        <time>2019-06-17T09:05:28Z</time>
      </trkpt>
      <trkpt lat="44.18388" lon="5.51501">
        <ele>986</ele>
        <time>2019-06-17T09:05:29Z</time>
      </trkpt>
      <trkpt lat="44.18389" lon="5.51497">
        <ele>986</ele>
        <time>2019-06-17T09:05:30Z</time>
      </trkpt>
      <trkpt lat="44.18391" lon="5.51493">
        <ele>986</ele>
        <time>2019-06-17T09:05:31Z</time>
      </trkpt>
      <trkpt lat="44.18392" lon="5.51489">
        <ele>986</ele>
        <time>2019-06-17T09:05:32Z</time>
      </trkpt>
      <trkpt lat="44.18393" lon="5.51486">
        <ele>986</ele>
        <time>2019-06-17T09:05:33Z</time>
      </trkpt>
      <trkpt lat="44.18395" lon="5.51482">
        <ele>987</ele>
        <time>2019-06-17T09:05:34Z</time>
      </trkpt>
      <trkpt lat="44.18396" lon="5.51478">
        <ele>987</ele>
        <time>2019-06-17T09:05:35Z</time>
      </trkpt>
      <trkpt lat="44.18398" lon="5.51475">
        <ele>987</ele>
        <time>2019-06-17T09:05:36Z</time>
      </trkpt>
      <trkpt lat="44.18399" lon="5.51471">
        <ele>987</ele>
        <time>2019-06-17T09:05:37Z</time>
      </trkpt>
      <trkpt lat="44.18401" lon="5.51467">
        <ele>987</ele>
        <time>2019-06-17T09:05:38Z</time>
      </trkpt>
      <trkpt lat="44.18403" lon="5.51463">
        <ele>987</ele>
        <time>2019-06-17T09:05:39Z</time>
      </trkpt>
      <trkpt lat="44.18405" lon="5.51459">
        <ele>987</ele>
        <time>2019-06-17T09:05:40Z</time>
      </trkpt>
      <trkpt lat="44.18407" lon="5.51455">
        <ele>987</ele>
        <time>2019-06-17T09:05:41Z</time>
      </trkpt>
      <trkpt lat="44.18409" lon="5.51452">
        <ele>987</ele>
        <time>2019-06-17T09:05:42Z</time>
      </trkpt>
      <trkpt lat="44.18411" lon="5.51449">
        <ele>988</ele>
        <time>2019-06-17T09:05:43Z</time>
      </trkpt>
      <trkpt lat="44.18414" lon="5.51445">
        <ele>988</ele>
        <time>2019-06-17T09:05:44Z</time>
      </trkpt>
      <trkpt lat="44.18416" lon="5.51442">
        <ele>988</ele>
        <time>2019-06-17T09:05:45Z</time>
      </trkpt>
      <trkpt lat="44.18418" lon="5.51439">
        <ele>989</ele>
        <time>2019-06-17T09:05:46Z</time>
      </trkpt>
      <trkpt lat="44.1842" lon="5.51435">
        <ele>989</ele>
        <time>2019-06-17T09:05:47Z</time>
      </trkpt>
      <trkpt lat="44.18423" lon="5.51432">
        <ele>990</ele>
        <time>2019-06-17T09:05:48Z</time>
      </trkpt>
      <trkpt lat="44.18425" lon="5.51428">
        <ele>990</ele>
        <time>2019-06-17T09:05:49Z</time>
      </trkpt>
      <trkpt lat="44.18427" lon="5.51425">
        <ele>991</ele>
        <time>2019-06-17T09:05:50Z</time>
      </trkpt>
      <trkpt lat="44.18429" lon="5.51422">
        <ele>991</ele>
        <time>2019-06-17T09:05:51Z</time>
      </trkpt>
      <trkpt lat="44.18431" lon="5.51419">
        <ele>992</ele>
        <time>2019-06-17T09:05:52Z</time>
      </trkpt>
      <trkpt lat="44.18433" lon="5.51416">
        <ele>992</ele>
        <time>2019-06-17T09:05:53Z</time>
      </trkpt>
      <trkpt lat="44.18435" lon="5.51413">
        <ele>993</ele>
        <time>2019-06-17T09:05:54Z</time>
      </trkpt>
      <trkpt lat="44.18437" lon="5.5141">
        <ele>993</ele>
        <time>2019-06-17T09:05:55Z</time>
      </trkpt>
      <trkpt lat="44.18439" lon="5.51407">
        <ele>993</ele>
        <time>2019-06-17T09:05:56Z</time>
      </trkpt>
      <trkpt lat="44.18441" lon="5.51404">
        <ele>993</ele>
        <time>2019-06-17T09:05:57Z</time>
      </trkpt>
      <trkpt lat="44.18443" lon="5.51401">
        <ele>994</ele>
        <time>2019-06-17T09:05:58Z</time>
      </trkpt>
      <trkpt lat="44.18444" lon="5.51398">
        <ele>994</ele>
        <time>2019-06-17T09:05:59Z</time>
      </trkpt>
      <trkpt lat="44.18446" lon="5.51394">
        <ele>994</ele>
        <time>2019-06-17T09:06:00Z</time>
      </trkpt>
      <trkpt lat="44.18448" lon="5.51391">
        <ele>994</ele>
        <time>2019-06-17T09:06:01Z</time>
      </trkpt>
      <trkpt lat="44.1845" lon="5.51388">
        <ele>994</ele>
        <time>2019-06-17T09:06:02Z</time>
      </trkpt>
      <trkpt lat="44.18451" lon="5.51384">
        <ele>994</ele>
        <time>2019-06-17T09:06:03Z</time>
      </trkpt>
      <trkpt lat="44.18453" lon="5.51381">
        <ele>994</ele>
        <time>2019-06-17T09:06:04Z</time>
      </trkpt>
      <trkpt lat="44.18454" lon="5.51377">
        <ele>994</ele>
        <time>2019-06-17T09:06:05Z</time>
      </trkpt>
      <trkpt lat="44.18455" lon="5.51373">
        <ele>994</ele>
        <time>2019-06-17T09:06:06Z</time>
      </trkpt>
      <trkpt lat="44.18456" lon="5.5137">
        <ele>994</ele>
        <time>2019-06-17T09:06:07Z</time>
      </trkpt>
      <trkpt lat="44.18457" lon="5.51366">
        <ele>994</ele>
        <time>2019-06-17T09:06:08Z</time>
      </trkpt>
      <trkpt lat="44.18458" lon="5.51362">
        <ele>994</ele>
        <time>2019-06-17T09:06:09Z</time>
      </trkpt>
      <trkpt lat="44.18459" lon="5.51358">
        <ele>994</ele>
        <time>2019-06-17T09:06:10Z</time>
      </trkpt>
      <trkpt lat="44.18459" lon="5.51354">
        <ele>994</ele>
        <time>2019-06-17T09:06:11Z</time>
      </trkpt>
      <trkpt lat="44.1846" lon="5.5135">
        <ele>994</ele>
        <time>2019-06-17T09:06:12Z</time>
      </trkpt>
      <trkpt lat="44.18461" lon="5.51346">
        <ele>994</ele>
        <time>2019-06-17T09:06:13Z</time>
      </trkpt>
      <trkpt lat="44.18462" lon="5.51343">
        <ele>994</ele>
        <time>2019-06-17T09:06:14Z</time>
      </trkpt>
      <trkpt lat="44.18463" lon="5.51339">
        <ele>994</ele>
        <time>2019-06-17T09:06:15Z</time>
      </trkpt>
      <trkpt lat="44.18464" lon="5.51336">
        <ele>994</ele>
        <time>2019-06-17T09:06:16Z</time>
      </trkpt>
      <trkpt lat="44.18464" lon="5.51332">
        <ele>994</ele>
        <time>2019-06-17T09:06:17Z</time>
      </trkpt>
      <trkpt lat="44.18465" lon="5.51328">
        <ele>994</ele>
        <time>2019-06-17T09:06:18Z</time>
      </trkpt>
      <trkpt lat="44.18465" lon="5.51324">
        <ele>994</ele>
        <time>2019-06-17T09:06:19Z</time>
      </trkpt>
      <trkpt lat="44.18466" lon="5.5132">
        <ele>994</ele>
        <time>2019-06-17T09:06:20Z</time>
      </trkpt>
      <trkpt lat="44.18467" lon="5.51316">
        <ele>994</ele>
        <time>2019-06-17T09:06:21Z</time>
      </trkpt>
      <trkpt lat="44.18467" lon="5.51313">
        <ele>994</ele>
        <time>2019-06-17T09:06:22Z</time>
      </trkpt>
      <trkpt lat="44.18468" lon="5.51309">
        <ele>994</ele>
        <time>2019-06-17T09:06:23Z</time>
      </trkpt>
      <trkpt lat="44.18468" lon="5.51305">
        <ele>994</ele>
        <time>2019-06-17T09:06:24Z</time>
      </trkpt>
      <trkpt lat="44.18469" lon="5.51301">
        <ele>994</ele>
        <time>2019-06-17T09:06:25Z</time>
      </trkpt>
      <trkpt lat="44.1847" lon="5.51297">
        <ele>994</ele>
        <time>2019-06-17T09:06:26Z</time>
      </trkpt>
      <trkpt lat="44.1847" lon="5.51293">
        <ele>994</ele>
        <time>2019-06-17T09:06:27Z</time>
      </trkpt>
      <trkpt lat="44.18472" lon="5.51289">
        <ele>994</ele>
        <time>2019-06-17T09:06:28Z</time>
      </trkpt>
      <trkpt lat="44.18473" lon="5.51285">
        <ele>994</ele>
        <time>2019-06-17T09:06:29Z</time>
      </trkpt>
      <trkpt lat="44.18474" lon="5.51281">
        <ele>994</ele>
        <time>2019-06-17T09:06:30Z</time>
      </trkpt>
      <trkpt lat="44.18476" lon="5.51278">
        <ele>994</ele>
        <time>2019-06-17T09:06:31Z</time>
      </trkpt>
      <trkpt lat="44.18479" lon="5.51276">
        <ele>994</ele>
        <time>2019-06-17T09:06:32Z</time>
      </trkpt>
      <trkpt lat="44.18482" lon="5.51275">
        <ele>994</ele>
        <time>2019-06-17T09:06:33Z</time>
      </trkpt>
      <trkpt lat="44.18485" lon="5.51275">
        <ele>994</ele>
        <time>2019-06-17T09:06:34Z</time>
      </trkpt>
      <trkpt lat="44.18488" lon="5.51278">
        <ele>994</ele>
        <time>2019-06-17T09:06:35Z</time>
      </trkpt>
      <trkpt lat="44.1849" lon="5.51281">
        <ele>994</ele>
        <time>2019-06-17T09:06:36Z</time>
      </trkpt>
      <trkpt lat="44.18491" lon="5.51285">
        <ele>994</ele>
        <time>2019-06-17T09:06:37Z</time>
      </trkpt>
      <trkpt lat="44.18492" lon="5.5129">
        <ele>994</ele>
        <time>2019-06-17T09:06:38Z</time>
      </trkpt>
      <trkpt lat="44.18494" lon="5.51294">
        <ele>994</ele>
        <time>2019-06-17T09:06:39Z</time>
      </trkpt>
      <trkpt lat="44.18496" lon="5.51298">
        <ele>994</ele>
        <time>2019-06-17T09:06:40Z</time>
      </trkpt>
      <trkpt lat="44.18497" lon="5.51302">
        <ele>994</ele>
        <time>2019-06-17T09:06:41Z</time>
      </trkpt>
      <trkpt lat="44.18498" lon="5.51306">
        <ele>994</ele>
        <time>2019-06-17T09:06:42Z</time>
      </trkpt>
      <trkpt lat="44.18499" lon="5.5131">
        <ele>994</ele>
        <time>2019-06-17T09:06:43Z</time>
      </trkpt>
      <trkpt lat="44.18501" lon="5.51314">
        <ele>994</ele>
        <time>2019-06-17T09:06:44Z</time>
      </trkpt>
      <trkpt lat="44.18502" lon="5.51318">
        <ele>995</ele>
        <time>2019-06-17T09:06:45Z</time>
      </trkpt>
      <trkpt lat="44.18503" lon="5.51321">
        <ele>995</ele>
        <time>2019-06-17T09:06:46Z</time>
      </trkpt>
      <trkpt lat="44.18504" lon="5.51325">
        <ele>995</ele>
        <time>2019-06-17T09:06:47Z</time>
      </trkpt>
      <trkpt lat="44.18505" lon="5.51329">
        <ele>995</ele>
        <time>2019-06-17T09:06:48Z</time>
      </trkpt>
      <trkpt lat="44.18507" lon="5.51333">
        <ele>995</ele>
        <time>2019-06-17T09:06:49Z</time>
      </trkpt>
      <trkpt lat="44.18508" lon="5.51336">
        <ele>995</ele>
        <time>2019-06-17T09:06:50Z</time>
      </trkpt>
      <trkpt lat="44.18509" lon="5.5134">
        <ele>995</ele>
        <time>2019-06-17T09:06:51Z</time>
      </trkpt>
      <trkpt lat="44.1851" lon="5.51344">
        <ele>995</ele>
        <time>2019-06-17T09:06:52Z</time>
      </trkpt>
      <trkpt lat="44.1851" lon="5.51348">
        <ele>995</ele>
        <time>2019-06-17T09:06:53Z</time>
      </trkpt>
      <trkpt lat="44.18511" lon="5.51352">
        <ele>995</ele>
        <time>2019-06-17T09:06:54Z</time>
      </trkpt>
      <trkpt lat="44.18511" lon="5.51356">
        <ele>996</ele>
        <time>2019-06-17T09:06:55Z</time>
      </trkpt>
      <trkpt lat="44.18512" lon="5.5136">
        <ele>996</ele>
        <time>2019-06-17T09:06:56Z</time>
      </trkpt>
      <trkpt lat="44.18512" lon="5.51364">
        <ele>996</ele>
        <time>2019-06-17T09:06:57Z</time>
      </trkpt>
      <trkpt lat="44.18512" lon="5.51368">
        <ele>996</ele>
        <time>2019-06-17T09:06:58Z</time>
      </trkpt>
      <trkpt lat="44.18512" lon="5.51371">
        <ele>997</ele>
        <time>2019-06-17T09:06:59Z</time>
      </trkpt>
      <trkpt lat="44.18511" lon="5.51375">
        <ele>997</ele>
        <time>2019-06-17T09:07:00Z</time>
      </trkpt>
      <trkpt lat="44.1851" lon="5.51378">
        <ele>997</ele>
        <time>2019-06-17T09:07:01Z</time>
      </trkpt>
      <trkpt lat="44.1851" lon="5.51382">
        <ele>997</ele>
        <time>2019-06-17T09:07:02Z</time>
      </trkpt>
      <trkpt lat="44.1851" lon="5.51385">
        <ele>998</ele>
        <time>2019-06-17T09:07:03Z</time>
      </trkpt>
      <trkpt lat="44.18509" lon="5.51389">
        <ele>998</ele>
        <time>2019-06-17T09:07:04Z</time>
      </trkpt>
      <trkpt lat="44.18509" lon="5.51392">
        <ele>998</ele>
        <time>2019-06-17T09:07:05Z</time>
      </trkpt>
      <trkpt lat="44.18508" lon="5.51396">
        <ele>998</ele>
        <time>2019-06-17T09:07:06Z</time>
      </trkpt>
      <trkpt lat="44.18507" lon="5.51399">
        <ele>998</ele>
        <time>2019-06-17T09:07:07Z</time>
      </trkpt>
      <trkpt lat="44.18507" lon="5.51402">
        <ele>999</ele>
        <time>2019-06-17T09:07:08Z</time>
      </trkpt>
      <trkpt lat="44.18506" lon="5.51406">
        <ele>999</ele>
        <time>2019-06-17T09:07:09Z</time>
      </trkpt>
      <trkpt lat="44.18506" lon="5.51409">
        <ele>999</ele>
        <time>2019-06-17T09:07:10Z</time>
      </trkpt>
      <trkpt lat="44.18505" lon="5.51412">
        <ele>999</ele>
        <time>2019-06-17T09:07:11Z</time>
      </trkpt>
      <trkpt lat="44.18505" lon="5.51415">
        <ele>999</ele>
        <time>2019-06-17T09:07:12Z</time>
      </trkpt>
      <trkpt lat="44.18505" lon="5.51419">
        <ele>999</ele>
        <time>2019-06-17T09:07:13Z</time>
      </trkpt>
      <trkpt lat="44.18505" lon="5.51422">
        <ele>1000</ele>
        <time>2019-06-17T09:07:14Z</time>
      </trkpt>
      <trkpt lat="44.18504" lon="5.51426">
        <ele>1000</ele>
        <time>2019-06-17T09:07:15Z</time>
      </trkpt>
      <trkpt lat="44.18504" lon="5.51429">
        <ele>1000</ele>
        <time>2019-06-17T09:07:16Z</time>
      </trkpt>
      <trkpt lat="44.18504" lon="5.51433">
        <ele>1000</ele>
        <time>2019-06-17T09:07:17Z</time>
      </trkpt>
      <trkpt lat="44.18504" lon="5.51436">
        <ele>1000</ele>
        <time>2019-06-17T09:07:18Z</time>
      </trkpt>
      <trkpt lat="44.18504" lon="5.5144">
        <ele>1000</ele>
        <time>2019-06-17T09:07:19Z</time>
      </trkpt>
      <trkpt lat="44.18504" lon="5.51443">
        <ele>1001</ele>
        <time>2019-06-17T09:07:20Z</time>
      </trkpt>
      <trkpt lat="44.18503" lon="5.51447">
        <ele>1001</ele>
        <time>2019-06-17T09:07:21Z</time>
      </trkpt>
      <trkpt lat="44.18503" lon="5.5145">
        <ele>1001</ele>
        <time>2019-06-17T09:07:22Z</time>
      </trkpt>
      <trkpt lat="44.18503" lon="5.51454">
        <ele>1001</ele>
        <time>2019-06-17T09:07:23Z</time>
      </trkpt>
      <trkpt lat="44.18503" lon="5.51458">
        <ele>1001</ele>
        <time>2019-06-17T09:07:24Z</time>
      </trkpt>
      <trkpt lat="44.18502" lon="5.51462">
        <ele>1001</ele>
        <time>2019-06-17T09:07:25Z</time>
      </trkpt>
      <trkpt lat="44.18502" lon="5.51466">
        <ele>1002</ele>
        <time>2019-06-17T09:07:26Z</time>
      </trkpt>
      <trkpt lat="44.18502" lon="5.5147">
        <ele>1002</ele>
        <time>2019-06-17T09:07:27Z</time>
      </trkpt>
      <trkpt lat="44.18502" lon="5.51474">
        <ele>1002</ele>
        <time>2019-06-17T09:07:28Z</time>
      </trkpt>
      <trkpt lat="44.18501" lon="5.51478">
        <ele>1002</ele>
        <time>2019-06-17T09:07:29Z</time>
      </trkpt>
      <trkpt lat="44.18501" lon="5.51482">
        <ele>1002</ele>
        <time>2019-06-17T09:07:30Z</time>
      </trkpt>
      <trkpt lat="44.185" lon="5.51486">
        <ele>1002</ele>
        <time>2019-06-17T09:07:31Z</time>
      </trkpt>
      <trkpt lat="44.18499" lon="5.5149">
        <ele>1003</ele>
        <time>2019-06-17T09:07:32Z</time>
      </trkpt>
      <trkpt lat="44.18498" lon="5.51494">
        <ele>1003</ele>
        <time>2019-06-17T09:07:33Z</time>
      </trkpt>
      <trkpt lat="44.18497" lon="5.51498">
        <ele>1003</ele>
        <time>2019-06-17T09:07:34Z</time>
      </trkpt>
      <trkpt lat="44.18496" lon="5.51502">
        <ele>1003</ele>
        <time>2019-06-17T09:07:35Z</time>
      </trkpt>
      <trkpt lat="44.18494" lon="5.51506">
        <ele>1003</ele>
        <time>2019-06-17T09:07:36Z</time>
      </trkpt>
      <trkpt lat="44.18493" lon="5.5151">
        <ele>1003</ele>
        <time>2019-06-17T09:07:37Z</time>
      </trkpt>
      <trkpt lat="44.18491" lon="5.51513">
        <ele>1003</ele>
        <time>2019-06-17T09:07:38Z</time>
      </trkpt>
      <trkpt lat="44.18491" lon="5.51517">
        <ele>1004</ele>
        <time>2019-06-17T09:07:39Z</time>
      </trkpt>
      <trkpt lat="44.1849" lon="5.51521">
        <ele>1004</ele>
        <time>2019-06-17T09:07:40Z</time>
      </trkpt>
      <trkpt lat="44.18491" lon="5.51525">
        <ele>1004</ele>
        <time>2019-06-17T09:07:41Z</time>
      </trkpt>
      <trkpt lat="44.18491" lon="5.51529">
        <ele>1004</ele>
        <time>2019-06-17T09:07:42Z</time>
      </trkpt>
      <trkpt lat="44.18493" lon="5.51532">
        <ele>1004</ele>
        <time>2019-06-17T09:07:43Z</time>
      </trkpt>
      <trkpt lat="44.18496" lon="5.51533">
        <ele>1004</ele>
        <time>2019-06-17T09:07:44Z</time>
      </trkpt>
      <trkpt lat="44.18498" lon="5.51534">
        <ele>1004</ele>
        <time>2019-06-17T09:07:45Z</time>
      </trkpt>
      <trkpt lat="44.18501" lon="5.51532">
        <ele>1004</ele>
        <time>2019-06-17T09:07:46Z</time>
      </trkpt>
      <trkpt lat="44.18503" lon="5.5153">
        <ele>1004</ele>
        <time>2019-06-17T09:07:47Z</time>
      </trkpt>
      <trkpt lat="44.18505" lon="5.51527">
        <ele>1004</ele>
        <time>2019-06-17T09:07:48Z</time>
      </trkpt>
      <trkpt lat="44.18507" lon="5.51523">
        <ele>1005</ele>
        <time>2019-06-17T09:07:49Z</time>
      </trkpt>
      <trkpt lat="44.18508" lon="5.51519">
        <ele>1005</ele>
        <time>2019-06-17T09:07:50Z</time>
      </trkpt>
      <trkpt lat="44.1851" lon="5.51515">
        <ele>1005</ele>
        <time>2019-06-17T09:07:51Z</time>
      </trkpt>
      <trkpt lat="44.18511" lon="5.51511">
        <ele>1005</ele>
        <time>2019-06-17T09:07:52Z</time>
      </trkpt>
      <trkpt lat="44.18513" lon="5.51506">
        <ele>1005</ele>
        <time>2019-06-17T09:07:53Z</time>
      </trkpt>
      <trkpt lat="44.18514" lon="5.51502">
        <ele>1005</ele>
        <time>2019-06-17T09:07:54Z</time>
      </trkpt>
      <trkpt lat="44.18515" lon="5.51497">
        <ele>1005</ele>
        <time>2019-06-17T09:07:55Z</time>
      </trkpt>
      <trkpt lat="44.18516" lon="5.51492">
        <ele>1005</ele>
        <time>2019-06-17T09:07:56Z</time>
      </trkpt>
      <trkpt lat="44.18517" lon="5.51487">
        <ele>1006</ele>
        <time>2019-06-17T09:07:57Z</time>
      </trkpt>
      <trkpt lat="44.18518" lon="5.51483">
        <ele>1006</ele>
        <time>2019-06-17T09:07:58Z</time>
      </trkpt>
      <trkpt lat="44.1852" lon="5.51478">
        <ele>1006</ele>
        <time>2019-06-17T09:07:59Z</time>
      </trkpt>
      <trkpt lat="44.1852" lon="5.51474">
        <ele>1006</ele>
        <time>2019-06-17T09:08:00Z</time>
      </trkpt>
      <trkpt lat="44.18521" lon="5.51471">
        <ele>1006</ele>
        <time>2019-06-17T09:08:01Z</time>
      </trkpt>
      <trkpt lat="44.18522" lon="5.51466">
        <ele>1007</ele>
        <time>2019-06-17T09:08:02Z</time>
      </trkpt>
      <trkpt lat="44.18523" lon="5.51462">
        <ele>1007</ele>
        <time>2019-06-17T09:08:03Z</time>
      </trkpt>
      <trkpt lat="44.18524" lon="5.51458">
        <ele>1007</ele>
        <time>2019-06-17T09:08:04Z</time>
      </trkpt>
      <trkpt lat="44.18525" lon="5.51454">
        <ele>1007</ele>
        <time>2019-06-17T09:08:05Z</time>
      </trkpt>
      <trkpt lat="44.18526" lon="5.51449">
        <ele>1007</ele>
        <time>2019-06-17T09:08:06Z</time>
      </trkpt>
      <trkpt lat="44.18527" lon="5.51445">
        <ele>1008</ele>
        <time>2019-06-17T09:08:07Z</time>
      </trkpt>
      <trkpt lat="44.18528" lon="5.51442">
        <ele>1008</ele>
        <time>2019-06-17T09:08:08Z</time>
      </trkpt>
      <trkpt lat="44.1853" lon="5.51438">
        <ele>1008</ele>
        <time>2019-06-17T09:08:09Z</time>
      </trkpt>
      <trkpt lat="44.18531" lon="5.51434">
        <ele>1008</ele>
        <time>2019-06-17T09:08:10Z</time>
      </trkpt>
      <trkpt lat="44.18532" lon="5.5143">
        <ele>1009</ele>
        <time>2019-06-17T09:08:11Z</time>
      </trkpt>
      <trkpt lat="44.18533" lon="5.51426">
        <ele>1009</ele>
        <time>2019-06-17T09:08:12Z</time>
      </trkpt>
      <trkpt lat="44.18535" lon="5.51423">
        <ele>1009</ele>
        <time>2019-06-17T09:08:13Z</time>
      </trkpt>
      <trkpt lat="44.18536" lon="5.51419">
        <ele>1009</ele>
        <time>2019-06-17T09:08:14Z</time>
      </trkpt>
      <trkpt lat="44.18537" lon="5.51415">
        <ele>1009</ele>
        <time>2019-06-17T09:08:15Z</time>
      </trkpt>
      <trkpt lat="44.18538" lon="5.51412">
        <ele>1010</ele>
        <time>2019-06-17T09:08:16Z</time>
      </trkpt>
      <trkpt lat="44.1854" lon="5.51408">
        <ele>1010</ele>
        <time>2019-06-17T09:08:17Z</time>
      </trkpt>
      <trkpt lat="44.18541" lon="5.51404">
        <ele>1010</ele>
        <time>2019-06-17T09:08:18Z</time>
      </trkpt>
      <trkpt lat="44.18542" lon="5.51401">
        <ele>1010</ele>
        <time>2019-06-17T09:08:19Z</time>
      </trkpt>
      <trkpt lat="44.18544" lon="5.51397">
        <ele>1010</ele>
        <time>2019-06-17T09:08:20Z</time>
      </trkpt>
      <trkpt lat="44.18545" lon="5.51394">
        <ele>1010</ele>
        <time>2019-06-17T09:08:21Z</time>
      </trkpt>
      <trkpt lat="44.18546" lon="5.5139">
        <ele>1010</ele>
        <time>2019-06-17T09:08:22Z</time>
      </trkpt>
      <trkpt lat="44.18547" lon="5.51387">
        <ele>1011</ele>
        <time>2019-06-17T09:08:23Z</time>
      </trkpt>
      <trkpt lat="44.18549" lon="5.51383">
        <ele>1011</ele>
        <time>2019-06-17T09:08:24Z</time>
      </trkpt>
      <trkpt lat="44.1855" lon="5.51379">
        <ele>1011</ele>
        <time>2019-06-17T09:08:25Z</time>
      </trkpt>
      <trkpt lat="44.18552" lon="5.51375">
        <ele>1011</ele>
        <time>2019-06-17T09:08:26Z</time>
      </trkpt>
      <trkpt lat="44.18553" lon="5.51371">
        <ele>1011</ele>
        <time>2019-06-17T09:08:27Z</time>
      </trkpt>
      <trkpt lat="44.18554" lon="5.51368">
        <ele>1011</ele>
        <time>2019-06-17T09:08:28Z</time>
      </trkpt>
      <trkpt lat="44.18556" lon="5.51364">
        <ele>1011</ele>
        <time>2019-06-17T09:08:29Z</time>
      </trkpt>
      <trkpt lat="44.18557" lon="5.51359">
        <ele>1012</ele>
        <time>2019-06-17T09:08:30Z</time>
      </trkpt>
      <trkpt lat="44.18558" lon="5.51355">
        <ele>1012</ele>
        <time>2019-06-17T09:08:31Z</time>
      </trkpt>
      <trkpt lat="44.18559" lon="5.51351">
        <ele>1012</ele>
        <time>2019-06-17T09:08:32Z</time>
      </trkpt>
      <trkpt lat="44.18559" lon="5.51347">
        <ele>1012</ele>
        <time>2019-06-17T09:08:33Z</time>
      </trkpt>
      <trkpt lat="44.1856" lon="5.51343">
        <ele>1012</ele>
        <time>2019-06-17T09:08:34Z</time>
      </trkpt>
      <trkpt lat="44.18561" lon="5.5134">
        <ele>1012</ele>
        <time>2019-06-17T09:08:35Z</time>
      </trkpt>
      <trkpt lat="44.18562" lon="5.51335">
        <ele>1012</ele>
        <time>2019-06-17T09:08:36Z</time>
      </trkpt>
      <trkpt lat="44.18564" lon="5.51332">
        <ele>1012</ele>
        <time>2019-06-17T09:08:37Z</time>
      </trkpt>
      <trkpt lat="44.18565" lon="5.51329">
        <ele>1012</ele>
        <time>2019-06-17T09:08:38Z</time>
      </trkpt>
      <trkpt lat="44.18566" lon="5.51325">
        <ele>1012</ele>
        <time>2019-06-17T09:08:39Z</time>
      </trkpt>
      <trkpt lat="44.18567" lon="5.51322">
        <ele>1013</ele>
        <time>2019-06-17T09:08:40Z</time>
      </trkpt>
      <trkpt lat="44.18568" lon="5.51319">
        <ele>1013</ele>
        <time>2019-06-17T09:08:41Z</time>
      </trkpt>
      <trkpt lat="44.18569" lon="5.51315">
        <ele>1013</ele>
        <time>2019-06-17T09:08:42Z</time>
      </trkpt>
      <trkpt lat="44.1857" lon="5.51311">
        <ele>1013</ele>
        <time>2019-06-17T09:08:43Z</time>
      </trkpt>
      <trkpt lat="44.18571" lon="5.51307">
        <ele>1013</ele>
        <time>2019-06-17T09:08:44Z</time>
      </trkpt>
      <trkpt lat="44.18573" lon="5.51303">
        <ele>1013</ele>
        <time>2019-06-17T09:08:45Z</time>
      </trkpt>
      <trkpt lat="44.18575" lon="5.513">
        <ele>1013</ele>
        <time>2019-06-17T09:08:46Z</time>
      </trkpt>
      <trkpt lat="44.18576" lon="5.51296">
        <ele>1013</ele>
        <time>2019-06-17T09:08:47Z</time>
      </trkpt>
      <trkpt lat="44.18578" lon="5.51293">
        <ele>1013</ele>
        <time>2019-06-17T09:08:48Z</time>
      </trkpt>
      <trkpt lat="44.1858" lon="5.5129">
        <ele>1013</ele>
        <time>2019-06-17T09:08:49Z</time>
      </trkpt>
      <trkpt lat="44.18581" lon="5.51287">
        <ele>1013</ele>
        <time>2019-06-17T09:08:50Z</time>
      </trkpt>
      <trkpt lat="44.18582" lon="5.51283">
        <ele>1013</ele>
        <time>2019-06-17T09:08:51Z</time>
      </trkpt>
      <trkpt lat="44.18584" lon="5.51279">
        <ele>1013</ele>
        <time>2019-06-17T09:08:52Z</time>
      </trkpt>
      <trkpt lat="44.18586" lon="5.51276">
        <ele>1013</ele>
        <time>2019-06-17T09:08:53Z</time>
      </trkpt>
      <trkpt lat="44.18587" lon="5.51272">
        <ele>1013</ele>
        <time>2019-06-17T09:08:54Z</time>
      </trkpt>
      <trkpt lat="44.18589" lon="5.51268">
        <ele>1013</ele>
        <time>2019-06-17T09:08:55Z</time>
      </trkpt>
      <trkpt lat="44.1859" lon="5.51264">
        <ele>1014</ele>
        <time>2019-06-17T09:08:56Z</time>
      </trkpt>
      <trkpt lat="44.18591" lon="5.5126">
        <ele>1014</ele>
        <time>2019-06-17T09:08:57Z</time>
      </trkpt>
      <trkpt lat="44.18592" lon="5.51256">
        <ele>1014</ele>
        <time>2019-06-17T09:08:58Z</time>
      </trkpt>
      <trkpt lat="44.18594" lon="5.51252">
        <ele>1014</ele>
        <time>2019-06-17T09:08:59Z</time>
      </trkpt>
      <trkpt lat="44.18595" lon="5.51248">
        <ele>1015</ele>
        <time>2019-06-17T09:09:00Z</time>
      </trkpt>
      <trkpt lat="44.18596" lon="5.51244">
        <ele>1015</ele>
        <time>2019-06-17T09:09:01Z</time>
      </trkpt>
      <trkpt lat="44.18597" lon="5.51241">
        <ele>1015</ele>
        <time>2019-06-17T09:09:02Z</time>
      </trkpt>
      <trkpt lat="44.18598" lon="5.51237">
        <ele>1015</ele>
        <time>2019-06-17T09:09:03Z</time>
      </trkpt>
      <trkpt lat="44.18599" lon="5.51233">
        <ele>1015</ele>
        <time>2019-06-17T09:09:04Z</time>
      </trkpt>
      <trkpt lat="44.186" lon="5.51229">
        <ele>1015</ele>
        <time>2019-06-17T09:09:05Z</time>
      </trkpt>
      <trkpt lat="44.18601" lon="5.51225">
        <ele>1015</ele>
        <time>2019-06-17T09:09:06Z</time>
      </trkpt>
      <trkpt lat="44.18602" lon="5.51221">
        <ele>1015</ele>
        <time>2019-06-17T09:09:07Z</time>
      </trkpt>
      <trkpt lat="44.18602" lon="5.51217">
        <ele>1015</ele>
        <time>2019-06-17T09:09:08Z</time>
      </trkpt>
      <trkpt lat="44.18603" lon="5.51213">
        <ele>1015</ele>
        <time>2019-06-17T09:09:09Z</time>
      </trkpt>
      <trkpt lat="44.18604" lon="5.51208">
        <ele>1015</ele>
        <time>2019-06-17T09:09:10Z</time>
      </trkpt>
      <trkpt lat="44.18605" lon="5.51204">
        <ele>1015</ele>
        <time>2019-06-17T09:09:11Z</time>
      </trkpt>
      <trkpt lat="44.18605" lon="5.512">
        <ele>1015</ele>
        <time>2019-06-17T09:09:12Z</time>
      </trkpt>
      <trkpt lat="44.18605" lon="5.51196">
        <ele>1015</ele>
        <time>2019-06-17T09:09:13Z</time>
      </trkpt>
      <trkpt lat="44.18605" lon="5.51191">
        <ele>1016</ele>
        <time>2019-06-17T09:09:14Z</time>
      </trkpt>
      <trkpt lat="44.18605" lon="5.51187">
        <ele>1016</ele>
        <time>2019-06-17T09:09:15Z</time>
      </trkpt>
      <trkpt lat="44.18605" lon="5.51183">
        <ele>1016</ele>
        <time>2019-06-17T09:09:16Z</time>
      </trkpt>
      <trkpt lat="44.18605" lon="5.51179">
        <ele>1017</ele>
        <time>2019-06-17T09:09:17Z</time>
      </trkpt>
      <trkpt lat="44.18605" lon="5.51175">
        <ele>1017</ele>
        <time>2019-06-17T09:09:18Z</time>
      </trkpt>
      <trkpt lat="44.18605" lon="5.51171">
        <ele>1017</ele>
        <time>2019-06-17T09:09:19Z</time>
      </trkpt>
      <trkpt lat="44.18605" lon="5.51167">
        <ele>1018</ele>
        <time>2019-06-17T09:09:20Z</time>
      </trkpt>
      <trkpt lat="44.18604" lon="5.51164">
        <ele>1018</ele>
        <time>2019-06-17T09:09:21Z</time>
      </trkpt>
      <trkpt lat="44.18604" lon="5.5116">
        <ele>1018</ele>
        <time>2019-06-17T09:09:22Z</time>
      </trkpt>
      <trkpt lat="44.18603" lon="5.51156">
        <ele>1018</ele>
        <time>2019-06-17T09:09:23Z</time>
      </trkpt>
      <trkpt lat="44.18602" lon="5.51153">
        <ele>1019</ele>
        <time>2019-06-17T09:09:24Z</time>
      </trkpt>
      <trkpt lat="44.18601" lon="5.51149">
        <ele>1019</ele>
        <time>2019-06-17T09:09:25Z</time>
      </trkpt>
      <trkpt lat="44.186" lon="5.51145">
        <ele>1019</ele>
        <time>2019-06-17T09:09:26Z</time>
      </trkpt>
      <trkpt lat="44.18598" lon="5.51141">
        <ele>1019</ele>
        <time>2019-06-17T09:09:27Z</time>
      </trkpt>
      <trkpt lat="44.18597" lon="5.51137">
        <ele>1020</ele>
        <time>2019-06-17T09:09:28Z</time>
      </trkpt>
      <trkpt lat="44.18595" lon="5.51134">
        <ele>1020</ele>
        <time>2019-06-17T09:09:29Z</time>
      </trkpt>
      <trkpt lat="44.18593" lon="5.5113">
        <ele>1020</ele>
        <time>2019-06-17T09:09:30Z</time>
      </trkpt>
      <trkpt lat="44.18591" lon="5.51126">
        <ele>1020</ele>
        <time>2019-06-17T09:09:31Z</time>
      </trkpt>
      <trkpt lat="44.18589" lon="5.51123">
        <ele>1020</ele>
        <time>2019-06-17T09:09:32Z</time>
      </trkpt>
      <trkpt lat="44.18588" lon="5.51119">
        <ele>1021</ele>
        <time>2019-06-17T09:09:33Z</time>
      </trkpt>
      <trkpt lat="44.18586" lon="5.51115">
        <ele>1021</ele>
        <time>2019-06-17T09:09:34Z</time>
      </trkpt>
      <trkpt lat="44.18585" lon="5.51111">
        <ele>1021</ele>
        <time>2019-06-17T09:09:35Z</time>
      </trkpt>
      <trkpt lat="44.18584" lon="5.51107">
        <ele>1021</ele>
        <time>2019-06-17T09:09:36Z</time>
      </trkpt>
      <trkpt lat="44.18584" lon="5.51103">
        <ele>1021</ele>
        <time>2019-06-17T09:09:37Z</time>
      </trkpt>
      <trkpt lat="44.18584" lon="5.51099">
        <ele>1021</ele>
        <time>2019-06-17T09:09:38Z</time>
      </trkpt>
      <trkpt lat="44.18584" lon="5.51095">
        <ele>1022</ele>
        <time>2019-06-17T09:09:39Z</time>
      </trkpt>
      <trkpt lat="44.18584" lon="5.51091">
        <ele>1022</ele>
        <time>2019-06-17T09:09:40Z</time>
      </trkpt>
      <trkpt lat="44.18584" lon="5.51087">
        <ele>1022</ele>
        <time>2019-06-17T09:09:41Z</time>
      </trkpt>
      <trkpt lat="44.18585" lon="5.51084">
        <ele>1022</ele>
        <time>2019-06-17T09:09:42Z</time>
      </trkpt>
      <trkpt lat="44.18586" lon="5.5108">
        <ele>1022</ele>
        <time>2019-06-17T09:09:43Z</time>
      </trkpt>
      <trkpt lat="44.18587" lon="5.51076">
        <ele>1023</ele>
        <time>2019-06-17T09:09:44Z</time>
      </trkpt>
      <trkpt lat="44.18588" lon="5.51073">
        <ele>1023</ele>
        <time>2019-06-17T09:09:45Z</time>
      </trkpt>
      <trkpt lat="44.18589" lon="5.51069">
        <ele>1023</ele>
        <time>2019-06-17T09:09:46Z</time>
      </trkpt>
      <trkpt lat="44.1859" lon="5.51065">
        <ele>1023</ele>
        <time>2019-06-17T09:09:47Z</time>
      </trkpt>
      <trkpt lat="44.18592" lon="5.51062">
        <ele>1023</ele>
        <time>2019-06-17T09:09:48Z</time>
      </trkpt>
      <trkpt lat="44.18593" lon="5.51058">
        <ele>1023</ele>
        <time>2019-06-17T09:09:49Z</time>
      </trkpt>
      <trkpt lat="44.18594" lon="5.51055">
        <ele>1024</ele>
        <time>2019-06-17T09:09:50Z</time>
      </trkpt>
      <trkpt lat="44.18596" lon="5.51052">
        <ele>1024</ele>
        <time>2019-06-17T09:09:51Z</time>
      </trkpt>
      <trkpt lat="44.18597" lon="5.51048">
        <ele>1024</ele>
        <time>2019-06-17T09:09:52Z</time>
      </trkpt>
      <trkpt lat="44.18599" lon="5.51045">
        <ele>1024</ele>
        <time>2019-06-17T09:09:53Z</time>
      </trkpt>
      <trkpt lat="44.186" lon="5.51041">
        <ele>1024</ele>
        <time>2019-06-17T09:09:54Z</time>
      </trkpt>
      <trkpt lat="44.18601" lon="5.51038">
        <ele>1024</ele>
        <time>2019-06-17T09:09:55Z</time>
      </trkpt>
      <trkpt lat="44.18602" lon="5.51034">
        <ele>1025</ele>
        <time>2019-06-17T09:09:56Z</time>
      </trkpt>
      <trkpt lat="44.18603" lon="5.5103">
        <ele>1025</ele>
        <time>2019-06-17T09:09:57Z</time>
      </trkpt>
      <trkpt lat="44.18604" lon="5.51026">
        <ele>1025</ele>
        <time>2019-06-17T09:09:58Z</time>
      </trkpt>
      <trkpt lat="44.18604" lon="5.51022">
        <ele>1025</ele>
        <time>2019-06-17T09:09:59Z</time>
      </trkpt>
      <trkpt lat="44.18605" lon="5.51018">
        <ele>1026</ele>
        <time>2019-06-17T09:10:00Z</time>
      </trkpt>
      <trkpt lat="44.18605" lon="5.51015">
        <ele>1026</ele>
        <time>2019-06-17T09:10:01Z</time>
      </trkpt>
      <trkpt lat="44.18605" lon="5.51011">
        <ele>1026</ele>
        <time>2019-06-17T09:10:02Z</time>
      </trkpt>
      <trkpt lat="44.18605" lon="5.51007">
        <ele>1026</ele>
        <time>2019-06-17T09:10:03Z</time>
      </trkpt>
      <trkpt lat="44.18604" lon="5.51003">
        <ele>1027</ele>
        <time>2019-06-17T09:10:04Z</time>
      </trkpt>
      <trkpt lat="44.18603" lon="5.50999">
        <ele>1027</ele>
        <time>2019-06-17T09:10:05Z</time>
      </trkpt>
      <trkpt lat="44.18602" lon="5.50996">
        <ele>1027</ele>
        <time>2019-06-17T09:10:06Z</time>
      </trkpt>
      <trkpt lat="44.18602" lon="5.50992">
        <ele>1027</ele>
        <time>2019-06-17T09:10:07Z</time>
      </trkpt>
      <trkpt lat="44.186" lon="5.50989">
        <ele>1027</ele>
        <time>2019-06-17T09:10:08Z</time>
      </trkpt>
      <trkpt lat="44.18599" lon="5.50985">
        <ele>1027</ele>
        <time>2019-06-17T09:10:09Z</time>
      </trkpt>
      <trkpt lat="44.18598" lon="5.50982">
        <ele>1027</ele>
        <time>2019-06-17T09:10:10Z</time>
      </trkpt>
      <trkpt lat="44.18597" lon="5.50978">
        <ele>1028</ele>
        <time>2019-06-17T09:10:11Z</time>
      </trkpt>
      <trkpt lat="44.18595" lon="5.50975">
        <ele>1028</ele>
        <time>2019-06-17T09:10:12Z</time>
      </trkpt>
      <trkpt lat="44.18594" lon="5.50972">
        <ele>1028</ele>
        <time>2019-06-17T09:10:13Z</time>
      </trkpt>
      <trkpt lat="44.18592" lon="5.50969">
        <ele>1028</ele>
        <time>2019-06-17T09:10:14Z</time>
      </trkpt>
      <trkpt lat="44.18591" lon="5.50966">
        <ele>1028</ele>
        <time>2019-06-17T09:10:15Z</time>
      </trkpt>
      <trkpt lat="44.18589" lon="5.50962">
        <ele>1029</ele>
        <time>2019-06-17T09:10:16Z</time>
      </trkpt>
      <trkpt lat="44.18587" lon="5.5096">
        <ele>1029</ele>
        <time>2019-06-17T09:10:17Z</time>
      </trkpt>
      <trkpt lat="44.18585" lon="5.50956">
        <ele>1029</ele>
        <time>2019-06-17T09:10:18Z</time>
      </trkpt>
      <trkpt lat="44.18584" lon="5.50954">
        <ele>1029</ele>
        <time>2019-06-17T09:10:19Z</time>
      </trkpt>
      <trkpt lat="44.18582" lon="5.50951">
        <ele>1029</ele>
        <time>2019-06-17T09:10:20Z</time>
      </trkpt>
      <trkpt lat="44.1858" lon="5.50948">
        <ele>1029</ele>
        <time>2019-06-17T09:10:21Z</time>
      </trkpt>
      <trkpt lat="44.18578" lon="5.50945">
        <ele>1030</ele>
        <time>2019-06-17T09:10:22Z</time>
      </trkpt>
      <trkpt lat="44.18576" lon="5.50942">
        <ele>1030</ele>
        <time>2019-06-17T09:10:23Z</time>
      </trkpt>
      <trkpt lat="44.18574" lon="5.5094">
        <ele>1030</ele>
        <time>2019-06-17T09:10:24Z</time>
      </trkpt>
      <trkpt lat="44.18572" lon="5.50937">
        <ele>1030</ele>
        <time>2019-06-17T09:10:25Z</time>
      </trkpt>
      <trkpt lat="44.1857" lon="5.50934">
        <ele>1031</ele>
        <time>2019-06-17T09:10:26Z</time>
      </trkpt>
      <trkpt lat="44.18567" lon="5.50931">
        <ele>1031</ele>
        <time>2019-06-17T09:10:27Z</time>
      </trkpt>
      <trkpt lat="44.18565" lon="5.50928">
        <ele>1031</ele>
        <time>2019-06-17T09:10:28Z</time>
      </trkpt>
      <trkpt lat="44.18563" lon="5.50925">
        <ele>1031</ele>
        <time>2019-06-17T09:10:29Z</time>
      </trkpt>
      <trkpt lat="44.18561" lon="5.50922">
        <ele>1031</ele>
        <time>2019-06-17T09:10:30Z</time>
      </trkpt>
      <trkpt lat="44.18559" lon="5.50919">
        <ele>1032</ele>
        <time>2019-06-17T09:10:31Z</time>
      </trkpt>
      <trkpt lat="44.18557" lon="5.50916">
        <ele>1032</ele>
        <time>2019-06-17T09:10:32Z</time>
      </trkpt>
      <trkpt lat="44.18555" lon="5.50913">
        <ele>1032</ele>
        <time>2019-06-17T09:10:33Z</time>
      </trkpt>
      <trkpt lat="44.18553" lon="5.50911">
        <ele>1032</ele>
        <time>2019-06-17T09:10:34Z</time>
      </trkpt>
      <trkpt lat="44.18551" lon="5.50908">
        <ele>1032</ele>
        <time>2019-06-17T09:10:35Z</time>
      </trkpt>
      <trkpt lat="44.18549" lon="5.50906">
        <ele>1032</ele>
        <time>2019-06-17T09:10:36Z</time>
      </trkpt>
      <trkpt lat="44.18547" lon="5.50903">
        <ele>1033</ele>
        <time>2019-06-17T09:10:37Z</time>
      </trkpt>
      <trkpt lat="44.18546" lon="5.509">
        <ele>1033</ele>
        <time>2019-06-17T09:10:38Z</time>
      </trkpt>
      <trkpt lat="44.18544" lon="5.50898">
        <ele>1033</ele>
        <time>2019-06-17T09:10:39Z</time>
      </trkpt>
      <trkpt lat="44.18542" lon="5.50895">
        <ele>1033</ele>
        <time>2019-06-17T09:10:40Z</time>
      </trkpt>
      <trkpt lat="44.1854" lon="5.50893">
        <ele>1033</ele>
        <time>2019-06-17T09:10:41Z</time>
      </trkpt>
      <trkpt lat="44.18539" lon="5.5089">
        <ele>1033</ele>
        <time>2019-06-17T09:10:42Z</time>
      </trkpt>
      <trkpt lat="44.18536" lon="5.50888">
        <ele>1033</ele>
        <time>2019-06-17T09:10:43Z</time>
      </trkpt>
      <trkpt lat="44.18535" lon="5.50885">
        <ele>1034</ele>
        <time>2019-06-17T09:10:44Z</time>
      </trkpt>
      <trkpt lat="44.18533" lon="5.50882">
        <ele>1034</ele>
        <time>2019-06-17T09:10:45Z</time>
      </trkpt>
      <trkpt lat="44.18532" lon="5.50879">
        <ele>1034</ele>
        <time>2019-06-17T09:10:46Z</time>
      </trkpt>
      <trkpt lat="44.1853" lon="5.50876">
        <ele>1035</ele>
        <time>2019-06-17T09:10:47Z</time>
      </trkpt>
      <trkpt lat="44.18528" lon="5.50873">
        <ele>1035</ele>
        <time>2019-06-17T09:10:48Z</time>
      </trkpt>
      <trkpt lat="44.18527" lon="5.5087">
        <ele>1035</ele>
        <time>2019-06-17T09:10:49Z</time>
      </trkpt>
      <trkpt lat="44.18525" lon="5.50866">
        <ele>1036</ele>
        <time>2019-06-17T09:10:50Z</time>
      </trkpt>
      <trkpt lat="44.18524" lon="5.50863">
        <ele>1036</ele>
        <time>2019-06-17T09:10:51Z</time>
      </trkpt>
      <trkpt lat="44.18523" lon="5.5086">
        <ele>1036</ele>
        <time>2019-06-17T09:10:52Z</time>
      </trkpt>
      <trkpt lat="44.18521" lon="5.50857">
        <ele>1037</ele>
        <time>2019-06-17T09:10:53Z</time>
      </trkpt>
      <trkpt lat="44.1852" lon="5.50854">
        <ele>1037</ele>
        <time>2019-06-17T09:10:54Z</time>
      </trkpt>
      <trkpt lat="44.18518" lon="5.50851">
        <ele>1037</ele>
        <time>2019-06-17T09:10:55Z</time>
      </trkpt>
      <trkpt lat="44.18517" lon="5.50847">
        <ele>1037</ele>
        <time>2019-06-17T09:10:56Z</time>
      </trkpt>
      <trkpt lat="44.18516" lon="5.50844">
        <ele>1038</ele>
        <time>2019-06-17T09:10:57Z</time>
      </trkpt>
      <trkpt lat="44.18515" lon="5.50841">
        <ele>1038</ele>
        <time>2019-06-17T09:10:58Z</time>
      </trkpt>
      <trkpt lat="44.18513" lon="5.50838">
        <ele>1038</ele>
        <time>2019-06-17T09:10:59Z</time>
      </trkpt>
      <trkpt lat="44.18512" lon="5.50834">
        <ele>1038</ele>
        <time>2019-06-17T09:11:00Z</time>
      </trkpt>
      <trkpt lat="44.1851" lon="5.50831">
        <ele>1038</ele>
        <time>2019-06-17T09:11:01Z</time>
      </trkpt>
      <trkpt lat="44.18509" lon="5.50828">
        <ele>1039</ele>
        <time>2019-06-17T09:11:02Z</time>
      </trkpt>
      <trkpt lat="44.18508" lon="5.50824">
        <ele>1039</ele>
        <time>2019-06-17T09:11:03Z</time>
      </trkpt>
      <trkpt lat="44.18507" lon="5.5082">
        <ele>1039</ele>
        <time>2019-06-17T09:11:04Z</time>
      </trkpt>
      <trkpt lat="44.18505" lon="5.50816">
        <ele>1039</ele>
        <time>2019-06-17T09:11:05Z</time>
      </trkpt>
      <trkpt lat="44.18503" lon="5.50813">
        <ele>1039</ele>
        <time>2019-06-17T09:11:06Z</time>
      </trkpt>
      <trkpt lat="44.18502" lon="5.5081">
        <ele>1039</ele>
        <time>2019-06-17T09:11:07Z</time>
      </trkpt>
      <trkpt lat="44.185" lon="5.50807">
        <ele>1040</ele>
        <time>2019-06-17T09:11:08Z</time>
      </trkpt>
      <trkpt lat="44.18498" lon="5.50803">
        <ele>1040</ele>
        <time>2019-06-17T09:11:09Z</time>
      </trkpt>
      <trkpt lat="44.18496" lon="5.508">
        <ele>1040</ele>
        <time>2019-06-17T09:11:10Z</time>
      </trkpt>
      <trkpt lat="44.18494" lon="5.50797">
        <ele>1040</ele>
        <time>2019-06-17T09:11:11Z</time>
      </trkpt>
      <trkpt lat="44.18493" lon="5.50794">
        <ele>1041</ele>
        <time>2019-06-17T09:11:12Z</time>
      </trkpt>
      <trkpt lat="44.18491" lon="5.50791">
        <ele>1041</ele>
        <time>2019-06-17T09:11:13Z</time>
      </trkpt>
      <trkpt lat="44.18489" lon="5.50788">
        <ele>1041</ele>
        <time>2019-06-17T09:11:14Z</time>
      </trkpt>
      <trkpt lat="44.18487" lon="5.50785">
        <ele>1042</ele>
        <time>2019-06-17T09:11:15Z</time>
      </trkpt>
      <trkpt lat="44.18486" lon="5.50783">
        <ele>1042</ele>
        <time>2019-06-17T09:11:16Z</time>
      </trkpt>
      <trkpt lat="44.18484" lon="5.5078">
        <ele>1042</ele>
        <time>2019-06-17T09:11:17Z</time>
      </trkpt>
      <trkpt lat="44.18482" lon="5.50777">
        <ele>1043</ele>
        <time>2019-06-17T09:11:18Z</time>
      </trkpt>
      <trkpt lat="44.1848" lon="5.50775">
        <ele>1043</ele>
        <time>2019-06-17T09:11:19Z</time>
      </trkpt>
      <trkpt lat="44.18478" lon="5.50772">
        <ele>1043</ele>
        <time>2019-06-17T09:11:20Z</time>
      </trkpt>
      <trkpt lat="44.18476" lon="5.50769">
        <ele>1043</ele>
        <time>2019-06-17T09:11:21Z</time>
      </trkpt>
      <trkpt lat="44.18474" lon="5.50767">
        <ele>1044</ele>
        <time>2019-06-17T09:11:22Z</time>
      </trkpt>
      <trkpt lat="44.18472" lon="5.50764">
        <ele>1044</ele>
        <time>2019-06-17T09:11:23Z</time>
      </trkpt>
      <trkpt lat="44.1847" lon="5.50762">
        <ele>1044</ele>
        <time>2019-06-17T09:11:24Z</time>
      </trkpt>
      <trkpt lat="44.18469" lon="5.5076">
        <ele>1044</ele>
        <time>2019-06-17T09:11:25Z</time>
      </trkpt>
      <trkpt lat="44.18467" lon="5.50758">
        <ele>1044</ele>
        <time>2019-06-17T09:11:26Z</time>
      </trkpt>
      <trkpt lat="44.18465" lon="5.50757">
        <ele>1044</ele>
        <time>2019-06-17T09:11:27Z</time>
      </trkpt>
      <trkpt lat="44.18462" lon="5.50755">
        <ele>1045</ele>
        <time>2019-06-17T09:11:28Z</time>
      </trkpt>
      <trkpt lat="44.1846" lon="5.50753">
        <ele>1045</ele>
        <time>2019-06-17T09:11:29Z</time>
      </trkpt>
      <trkpt lat="44.18458" lon="5.50752">
        <ele>1045</ele>
        <time>2019-06-17T09:11:30Z</time>
      </trkpt>
      <trkpt lat="44.18456" lon="5.5075">
        <ele>1045</ele>
        <time>2019-06-17T09:11:31Z</time>
      </trkpt>
      <trkpt lat="44.18453" lon="5.50749">
        <ele>1045</ele>
        <time>2019-06-17T09:11:32Z</time>
      </trkpt>
      <trkpt lat="44.18451" lon="5.50748">
        <ele>1045</ele>
        <time>2019-06-17T09:11:33Z</time>
      </trkpt>
      <trkpt lat="44.18448" lon="5.50747">
        <ele>1045</ele>
        <time>2019-06-17T09:11:34Z</time>
      </trkpt>
      <trkpt lat="44.18445" lon="5.50746">
        <ele>1045</ele>
        <time>2019-06-17T09:11:35Z</time>
      </trkpt>
      <trkpt lat="44.18443" lon="5.50745">
        <ele>1045</ele>
        <time>2019-06-17T09:11:36Z</time>
      </trkpt>
      <trkpt lat="44.1844" lon="5.50745">
        <ele>1045</ele>
        <time>2019-06-17T09:11:37Z</time>
      </trkpt>
      <trkpt lat="44.18437" lon="5.50745">
        <ele>1045</ele>
        <time>2019-06-17T09:11:38Z</time>
      </trkpt>
      <trkpt lat="44.18434" lon="5.50746">
        <ele>1045</ele>
        <time>2019-06-17T09:11:39Z</time>
      </trkpt>
      <trkpt lat="44.18431" lon="5.50747">
        <ele>1045</ele>
        <time>2019-06-17T09:11:40Z</time>
      </trkpt>
      <trkpt lat="44.18428" lon="5.50748">
        <ele>1045</ele>
        <time>2019-06-17T09:11:41Z</time>
      </trkpt>
      <trkpt lat="44.18425" lon="5.50749">
        <ele>1045</ele>
        <time>2019-06-17T09:11:42Z</time>
      </trkpt>
      <trkpt lat="44.18422" lon="5.50752">
        <ele>1045</ele>
        <time>2019-06-17T09:11:43Z</time>
      </trkpt>
      <trkpt lat="44.1842" lon="5.50754">
        <ele>1045</ele>
        <time>2019-06-17T09:11:44Z</time>
      </trkpt>
      <trkpt lat="44.18418" lon="5.50757">
        <ele>1045</ele>
        <time>2019-06-17T09:11:45Z</time>
      </trkpt>
      <trkpt lat="44.18415" lon="5.5076">
        <ele>1045</ele>
        <time>2019-06-17T09:11:46Z</time>
      </trkpt>
      <trkpt lat="44.18414" lon="5.50762">
        <ele>1045</ele>
        <time>2019-06-17T09:11:47Z</time>
      </trkpt>
      <trkpt lat="44.18412" lon="5.50765">
        <ele>1045</ele>
        <time>2019-06-17T09:11:48Z</time>
      </trkpt>
      <trkpt lat="44.1841" lon="5.50768">
        <ele>1045</ele>
        <time>2019-06-17T09:11:49Z</time>
      </trkpt>
      <trkpt lat="44.18409" lon="5.50771">
        <ele>1045</ele>
        <time>2019-06-17T09:11:50Z</time>
      </trkpt>
      <trkpt lat="44.18407" lon="5.50774">
        <ele>1045</ele>
        <time>2019-06-17T09:11:51Z</time>
      </trkpt>
      <trkpt lat="44.18405" lon="5.50777">
        <ele>1045</ele>
        <time>2019-06-17T09:11:52Z</time>
      </trkpt>
      <trkpt lat="44.18404" lon="5.5078">
        <ele>1045</ele>
        <time>2019-06-17T09:11:53Z</time>
      </trkpt>
      <trkpt lat="44.18402" lon="5.50784">
        <ele>1045</ele>
        <time>2019-06-17T09:11:54Z</time>
      </trkpt>
      <trkpt lat="44.18401" lon="5.50787">
        <ele>1045</ele>
        <time>2019-06-17T09:11:55Z</time>
      </trkpt>
      <trkpt lat="44.18399" lon="5.50791">
        <ele>1045</ele>
        <time>2019-06-17T09:11:56Z</time>
      </trkpt>
      <trkpt lat="44.18397" lon="5.50793">
        <ele>1045</ele>
        <time>2019-06-17T09:11:57Z</time>
      </trkpt>
      <trkpt lat="44.18396" lon="5.50796">
        <ele>1045</ele>
        <time>2019-06-17T09:11:58Z</time>
      </trkpt>
      <trkpt lat="44.18394" lon="5.50799">
        <ele>1045</ele>
        <time>2019-06-17T09:11:59Z</time>
      </trkpt>
      <trkpt lat="44.18393" lon="5.50802">
        <ele>1045</ele>
        <time>2019-06-17T09:12:00Z</time>
      </trkpt>
      <trkpt lat="44.18391" lon="5.50806">
        <ele>1045</ele>
        <time>2019-06-17T09:12:01Z</time>
      </trkpt>
      <trkpt lat="44.18389" lon="5.50808">
        <ele>1045</ele>
        <time>2019-06-17T09:12:02Z</time>
      </trkpt>
      <trkpt lat="44.18388" lon="5.50811">
        <ele>1045</ele>
        <time>2019-06-17T09:12:03Z</time>
      </trkpt>
      <trkpt lat="44.18386" lon="5.50814">
        <ele>1045</ele>
        <time>2019-06-17T09:12:04Z</time>
      </trkpt>
      <trkpt lat="44.18384" lon="5.50817">
        <ele>1045</ele>
        <time>2019-06-17T09:12:05Z</time>
      </trkpt>
      <trkpt lat="44.18382" lon="5.5082">
        <ele>1045</ele>
        <time>2019-06-17T09:12:06Z</time>
      </trkpt>
      <trkpt lat="44.1838" lon="5.50823">
        <ele>1045</ele>
        <time>2019-06-17T09:12:07Z</time>
      </trkpt>
      <trkpt lat="44.18378" lon="5.50826">
        <ele>1045</ele>
        <time>2019-06-17T09:12:08Z</time>
      </trkpt>
      <trkpt lat="44.18376" lon="5.50829">
        <ele>1045</ele>
        <time>2019-06-17T09:12:09Z</time>
      </trkpt>
      <trkpt lat="44.18374" lon="5.50832">
        <ele>1045</ele>
        <time>2019-06-17T09:12:10Z</time>
      </trkpt>
      <trkpt lat="44.18372" lon="5.50834">
        <ele>1046</ele>
        <time>2019-06-17T09:12:11Z</time>
      </trkpt>
      <trkpt lat="44.1837" lon="5.50837">
        <ele>1046</ele>
        <time>2019-06-17T09:12:12Z</time>
      </trkpt>
      <trkpt lat="44.18368" lon="5.50839">
        <ele>1047</ele>
        <time>2019-06-17T09:12:13Z</time>
      </trkpt>
      <trkpt lat="44.18365" lon="5.50843">
        <ele>1047</ele>
        <time>2019-06-17T09:12:14Z</time>
      </trkpt>
      <trkpt lat="44.18363" lon="5.50845">
        <ele>1048</ele>
        <time>2019-06-17T09:12:15Z</time>
      </trkpt>
      <trkpt lat="44.1836" lon="5.50848">
        <ele>1049</ele>
        <time>2019-06-17T09:12:16Z</time>
      </trkpt>
      <trkpt lat="44.18358" lon="5.5085">
        <ele>1049</ele>
        <time>2019-06-17T09:12:17Z</time>
      </trkpt>
      <trkpt lat="44.18356" lon="5.50852">
        <ele>1050</ele>
        <time>2019-06-17T09:12:18Z</time>
      </trkpt>
      <trkpt lat="44.18353" lon="5.50854">
        <ele>1051</ele>
        <time>2019-06-17T09:12:19Z</time>
      </trkpt>
      <trkpt lat="44.18351" lon="5.50856">
        <ele>1051</ele>
        <time>2019-06-17T09:12:20Z</time>
      </trkpt>
      <trkpt lat="44.18348" lon="5.50858">
        <ele>1052</ele>
        <time>2019-06-17T09:12:21Z</time>
      </trkpt>
      <trkpt lat="44.18346" lon="5.5086">
        <ele>1052</ele>
        <time>2019-06-17T09:12:22Z</time>
      </trkpt>
      <trkpt lat="44.18344" lon="5.50861">
        <ele>1052</ele>
        <time>2019-06-17T09:12:23Z</time>
      </trkpt>
      <trkpt lat="44.18342" lon="5.50862">
        <ele>1052</ele>
        <time>2019-06-17T09:12:24Z</time>
      </trkpt>
      <trkpt lat="44.1834" lon="5.50863">
        <ele>1052</ele>
        <time>2019-06-17T09:12:25Z</time>
      </trkpt>
      <trkpt lat="44.18338" lon="5.50864">
        <ele>1052</ele>
        <time>2019-06-17T09:12:26Z</time>
      </trkpt>
      <trkpt lat="44.18335" lon="5.50866">
        <ele>1052</ele>
        <time>2019-06-17T09:12:27Z</time>
      </trkpt>
      <trkpt lat="44.18333" lon="5.50867">
        <ele>1052</ele>
        <time>2019-06-17T09:12:28Z</time>
      </trkpt>
      <trkpt lat="44.18331" lon="5.50868">
        <ele>1052</ele>
        <time>2019-06-17T09:12:29Z</time>
      </trkpt>
      <trkpt lat="44.18328" lon="5.50869">
        <ele>1052</ele>
        <time>2019-06-17T09:12:30Z</time>
      </trkpt>
      <trkpt lat="44.18326" lon="5.5087">
        <ele>1052</ele>
        <time>2019-06-17T09:12:31Z</time>
      </trkpt>
      <trkpt lat="44.18324" lon="5.50872">
        <ele>1052</ele>
        <time>2019-06-17T09:12:32Z</time>
      </trkpt>
      <trkpt lat="44.18321" lon="5.50873">
        <ele>1053</ele>
        <time>2019-06-17T09:12:33Z</time>
      </trkpt>
      <trkpt lat="44.18319" lon="5.50875">
        <ele>1053</ele>
        <time>2019-06-17T09:12:34Z</time>
      </trkpt>
      <trkpt lat="44.18316" lon="5.50877">
        <ele>1053</ele>
        <time>2019-06-17T09:12:35Z</time>
      </trkpt>
      <trkpt lat="44.18314" lon="5.50878">
        <ele>1053</ele>
        <time>2019-06-17T09:12:36Z</time>
      </trkpt>
      <trkpt lat="44.18311" lon="5.50879">
        <ele>1053</ele>
        <time>2019-06-17T09:12:37Z</time>
      </trkpt>
      <trkpt lat="44.18309" lon="5.50881">
        <ele>1053</ele>
        <time>2019-06-17T09:12:38Z</time>
      </trkpt>
      <trkpt lat="44.18306" lon="5.50882">
        <ele>1054</ele>
        <time>2019-06-17T09:12:39Z</time>
      </trkpt>
      <trkpt lat="44.18304" lon="5.50884">
        <ele>1054</ele>
        <time>2019-06-17T09:12:40Z</time>
      </trkpt>
      <trkpt lat="44.18301" lon="5.50885">
        <ele>1054</ele>
        <time>2019-06-17T09:12:41Z</time>
      </trkpt>
      <trkpt lat="44.18298" lon="5.50887">
        <ele>1054</ele>
        <time>2019-06-17T09:12:42Z</time>
      </trkpt>
      <trkpt lat="44.18296" lon="5.50889">
        <ele>1054</ele>
        <time>2019-06-17T09:12:43Z</time>
      </trkpt>
      <trkpt lat="44.18293" lon="5.5089">
        <ele>1055</ele>
        <time>2019-06-17T09:12:44Z</time>
      </trkpt>
      <trkpt lat="44.18291" lon="5.50892">
        <ele>1055</ele>
        <time>2019-06-17T09:12:45Z</time>
      </trkpt>
      <trkpt lat="44.18289" lon="5.50894">
        <ele>1055</ele>
        <time>2019-06-17T09:12:46Z</time>
      </trkpt>
      <trkpt lat="44.18287" lon="5.50896">
        <ele>1055</ele>
        <time>2019-06-17T09:12:47Z</time>
      </trkpt>
      <trkpt lat="44.18285" lon="5.50899">
        <ele>1055</ele>
        <time>2019-06-17T09:12:48Z</time>
      </trkpt>
      <trkpt lat="44.18283" lon="5.50901">
        <ele>1055</ele>
        <time>2019-06-17T09:12:49Z</time>
      </trkpt>
      <trkpt lat="44.18282" lon="5.50904">
        <ele>1055</ele>
        <time>2019-06-17T09:12:50Z</time>
      </trkpt>
      <trkpt lat="44.1828" lon="5.50907">
        <ele>1055</ele>
        <time>2019-06-17T09:12:51Z</time>
      </trkpt>
      <trkpt lat="44.18278" lon="5.5091">
        <ele>1055</ele>
        <time>2019-06-17T09:12:52Z</time>
      </trkpt>
      <trkpt lat="44.18277" lon="5.50912">
        <ele>1055</ele>
        <time>2019-06-17T09:12:53Z</time>
      </trkpt>
      <trkpt lat="44.18275" lon="5.50915">
        <ele>1055</ele>
        <time>2019-06-17T09:12:54Z</time>
      </trkpt>
      <trkpt lat="44.18274" lon="5.50918">
        <ele>1055</ele>
        <time>2019-06-17T09:12:55Z</time>
      </trkpt>
      <trkpt lat="44.18272" lon="5.50921">
        <ele>1056</ele>
        <time>2019-06-17T09:12:56Z</time>
      </trkpt>
      <trkpt lat="44.18271" lon="5.50924">
        <ele>1056</ele>
        <time>2019-06-17T09:12:57Z</time>
      </trkpt>
      <trkpt lat="44.18269" lon="5.50927">
        <ele>1057</ele>
        <time>2019-06-17T09:12:58Z</time>
      </trkpt>
      <trkpt lat="44.18268" lon="5.5093">
        <ele>1058</ele>
        <time>2019-06-17T09:12:59Z</time>
      </trkpt>
      <trkpt lat="44.18267" lon="5.50933">
        <ele>1059</ele>
        <time>2019-06-17T09:13:00Z</time>
      </trkpt>
      <trkpt lat="44.18265" lon="5.50936">
        <ele>1059</ele>
        <time>2019-06-17T09:13:01Z</time>
      </trkpt>
      <trkpt lat="44.18263" lon="5.50939">
        <ele>1059</ele>
        <time>2019-06-17T09:13:02Z</time>
      </trkpt>
      <trkpt lat="44.18261" lon="5.50941">
        <ele>1060</ele>
        <time>2019-06-17T09:13:03Z</time>
      </trkpt>
      <trkpt lat="44.1826" lon="5.50944">
        <ele>1060</ele>
        <time>2019-06-17T09:13:04Z</time>
      </trkpt>
      <trkpt lat="44.18258" lon="5.50947">
        <ele>1060</ele>
        <time>2019-06-17T09:13:05Z</time>
      </trkpt>
      <trkpt lat="44.18256" lon="5.5095">
        <ele>1060</ele>
        <time>2019-06-17T09:13:06Z</time>
      </trkpt>
      <trkpt lat="44.18254" lon="5.50953">
        <ele>1060</ele>
        <time>2019-06-17T09:13:07Z</time>
      </trkpt>
      <trkpt lat="44.18253" lon="5.50956">
        <ele>1060</ele>
        <time>2019-06-17T09:13:08Z</time>
      </trkpt>
      <trkpt lat="44.18251" lon="5.50959">
        <ele>1060</ele>
        <time>2019-06-17T09:13:09Z</time>
      </trkpt>
      <trkpt lat="44.18249" lon="5.50963">
        <ele>1060</ele>
        <time>2019-06-17T09:13:10Z</time>
      </trkpt>
      <trkpt lat="44.18247" lon="5.50966">
        <ele>1060</ele>
        <time>2019-06-17T09:13:11Z</time>
      </trkpt>
      <trkpt lat="44.18245" lon="5.50969">
        <ele>1060</ele>
        <time>2019-06-17T09:13:12Z</time>
      </trkpt>
      <trkpt lat="44.18243" lon="5.50973">
        <ele>1060</ele>
        <time>2019-06-17T09:13:13Z</time>
      </trkpt>
      <trkpt lat="44.18242" lon="5.50976">
        <ele>1060</ele>
        <time>2019-06-17T09:13:14Z</time>
      </trkpt>
      <trkpt lat="44.1824" lon="5.50979">
        <ele>1060</ele>
        <time>2019-06-17T09:13:15Z</time>
      </trkpt>
      <trkpt lat="44.18238" lon="5.50982">
        <ele>1061</ele>
        <time>2019-06-17T09:13:16Z</time>
      </trkpt>
      <trkpt lat="44.18236" lon="5.50985">
        <ele>1061</ele>
        <time>2019-06-17T09:13:17Z</time>
      </trkpt>
      <trkpt lat="44.18235" lon="5.50988">
        <ele>1061</ele>
        <time>2019-06-17T09:13:18Z</time>
      </trkpt>
      <trkpt lat="44.18234" lon="5.50991">
        <ele>1062</ele>
        <time>2019-06-17T09:13:19Z</time>
      </trkpt>
      <trkpt lat="44.18232" lon="5.50994">
        <ele>1062</ele>
        <time>2019-06-17T09:13:20Z</time>
      </trkpt>
      <trkpt lat="44.18231" lon="5.50997">
        <ele>1063</ele>
        <time>2019-06-17T09:13:21Z</time>
      </trkpt>
      <trkpt lat="44.1823" lon="5.51">
        <ele>1063</ele>
        <time>2019-06-17T09:13:22Z</time>
      </trkpt>
      <trkpt lat="44.18228" lon="5.51003">
        <ele>1064</ele>
        <time>2019-06-17T09:13:23Z</time>
      </trkpt>
      <trkpt lat="44.18227" lon="5.51006">
        <ele>1064</ele>
        <time>2019-06-17T09:13:24Z</time>
      </trkpt>
      <trkpt lat="44.18226" lon="5.51008">
        <ele>1065</ele>
        <time>2019-06-17T09:13:25Z</time>
      </trkpt>
      <trkpt lat="44.18225" lon="5.51011">
        <ele>1065</ele>
        <time>2019-06-17T09:13:26Z</time>
      </trkpt>
      <trkpt lat="44.18224" lon="5.51014">
        <ele>1065</ele>
        <time>2019-06-17T09:13:27Z</time>
      </trkpt>
      <trkpt lat="44.18224" lon="5.51016">
        <ele>1065</ele>
        <time>2019-06-17T09:13:28Z</time>
      </trkpt>
      <trkpt lat="44.18223" lon="5.51018">
        <ele>1065</ele>
        <time>2019-06-17T09:13:29Z</time>
      </trkpt>
      <trkpt lat="44.18222" lon="5.5102">
        <ele>1065</ele>
        <time>2019-06-17T09:13:30Z</time>
      </trkpt>
      <trkpt lat="44.18223" lon="5.51021">
        <ele>1067</ele>
        <time>2019-06-17T09:13:33Z</time>
      </trkpt>
      <trkpt lat="44.18225" lon="5.51021">
        <ele>1067</ele>
        <time>2019-06-17T09:13:35Z</time>
      </trkpt>
      <trkpt lat="44.18226" lon="5.5102">
        <ele>1067</ele>
        <time>2019-06-17T09:13:37Z</time>
      </trkpt>
      <trkpt lat="44.18226" lon="5.51018">
        <ele>1067</ele>
        <time>2019-06-17T09:13:40Z</time>
      </trkpt>
      <trkpt lat="44.18225" lon="5.51017">
        <ele>1067</ele>
        <time>2019-06-17T09:13:48Z</time>
      </trkpt>
      <trkpt lat="44.18224" lon="5.51015">
        <ele>1067</ele>
        <time>2019-06-17T09:13:59Z</time>
      </trkpt>
      <trkpt lat="44.18224" lon="5.51014">
        <ele>1067</ele>
        <time>2019-06-17T09:14:06Z</time>
      </trkpt>
      <trkpt lat="44.18223" lon="5.51012">
        <ele>1067</ele>
        <time>2019-06-17T09:14:09Z</time>
      </trkpt>
      <trkpt lat="44.18223" lon="5.51014">
        <ele>1068</ele>
        <time>2019-06-17T09:14:13Z</time>
      </trkpt>
      <trkpt lat="44.18223" lon="5.51016">
        <ele>1068</ele>
        <time>2019-06-17T09:14:15Z</time>
      </trkpt>
      <trkpt lat="44.18223" lon="5.51017">
        <ele>1068</ele>
        <time>2019-06-17T09:14:20Z</time>
      </trkpt>
      <trkpt lat="44.18222" lon="5.51016">
        <ele>1068</ele>
        <time>2019-06-17T09:14:24Z</time>
      </trkpt>
      <trkpt lat="44.18222" lon="5.51014">
        <ele>1068</ele>
        <time>2019-06-17T09:14:29Z</time>
      </trkpt>
      <trkpt lat="44.18222" lon="5.51016">
        <ele>1068</ele>
        <time>2019-06-17T09:14:32Z</time>
      </trkpt>
      <trkpt lat="44.18222" lon="5.51014">
        <ele>1068</ele>
        <time>2019-06-17T09:14:39Z</time>
      </trkpt>
      <trkpt lat="44.18222" lon="5.51012">
        <ele>1068</ele>
        <time>2019-06-17T09:14:41Z</time>
      </trkpt>
      <trkpt lat="44.18224" lon="5.51011">
        <ele>1068</ele>
        <time>2019-06-17T09:14:48Z</time>
      </trkpt>
      <trkpt lat="44.18224" lon="5.5101">
        <ele>1069</ele>
        <time>2019-06-17T09:14:51Z</time>
      </trkpt>
      <trkpt lat="44.18223" lon="5.51011">
        <ele>1071</ele>
        <time>2019-06-17T09:15:03Z</time>
      </trkpt>
      <trkpt lat="44.18222" lon="5.51013">
        <ele>1071</ele>
        <time>2019-06-17T09:15:07Z</time>
      </trkpt>
      <trkpt lat="44.18222" lon="5.51015">
        <ele>1071</ele>
        <time>2019-06-17T09:15:09Z</time>
      </trkpt>
      <trkpt lat="44.18223" lon="5.51015">
        <ele>1071</ele>
        <time>2019-06-17T09:15:12Z</time>
      </trkpt>
      <trkpt lat="44.18221" lon="5.51014">
        <ele>1071</ele>
        <time>2019-06-17T09:15:30Z</time>
      </trkpt>
      <trkpt lat="44.18221" lon="5.51012">
        <ele>1071</ele>
        <time>2019-06-17T09:15:33Z</time>
      </trkpt>
      <trkpt lat="44.18221" lon="5.51014">
        <ele>1071</ele>
        <time>2019-06-17T09:16:01Z</time>
      </trkpt>
      <trkpt lat="44.1822" lon="5.51015">
        <ele>1071</ele>
        <time>2019-06-17T09:16:04Z</time>
      </trkpt>
      <trkpt lat="44.18222" lon="5.51015">
        <ele>1071</ele>
        <time>2019-06-17T09:16:10Z</time>
      </trkpt>
      <trkpt lat="44.18222" lon="5.51013">
        <ele>1071</ele>
        <time>2019-06-17T09:16:12Z</time>
      </trkpt>
      <trkpt lat="44.18223" lon="5.51011">
        <ele>1071</ele>
        <time>2019-06-17T09:16:14Z</time>
      </trkpt>
      <trkpt lat="44.18224" lon="5.5101">
        <ele>1071</ele>
        <time>2019-06-17T09:16:15Z</time>
      </trkpt>
      <trkpt lat="44.18225" lon="5.5101">
        <ele>1071</ele>
        <time>2019-06-17T09:16:20Z</time>
      </trkpt>
      <trkpt lat="44.18224" lon="5.51012">
        <ele>1071</ele>
        <time>2019-06-17T09:16:32Z</time>
      </trkpt>
      <trkpt lat="44.18222" lon="5.51013">
        <ele>1071</ele>
        <time>2019-06-17T09:16:34Z</time>
      </trkpt>
      <trkpt lat="44.18222" lon="5.51014">
        <ele>1070</ele>
        <time>2019-06-17T09:16:37Z</time>
      </trkpt>
      <trkpt lat="44.18222" lon="5.51016">
        <ele>1069</ele>
        <time>2019-06-17T09:16:40Z</time>
      </trkpt>
      <trkpt lat="44.18223" lon="5.51015">
        <ele>1069</ele>
        <time>2019-06-17T09:16:58Z</time>
      </trkpt>
      <trkpt lat="44.18223" lon="5.51014">
        <ele>1069</ele>
        <time>2019-06-17T09:17:04Z</time>
      </trkpt>
      <trkpt lat="44.18223" lon="5.51015">
        <ele>1069</ele>
        <time>2019-06-17T09:17:17Z</time>
      </trkpt>
      <trkpt lat="44.18224" lon="5.51013">
        <ele>1069</ele>
        <time>2019-06-17T09:17:38Z</time>
      </trkpt>
      <trkpt lat="44.18224" lon="5.51012">
        <ele>1069</ele>
        <time>2019-06-17T09:17:41Z</time>
      </trkpt>
      <trkpt lat="44.18224" lon="5.5101">
        <ele>1069</ele>
        <time>2019-06-17T09:17:45Z</time>
      </trkpt>
      <trkpt lat="44.18224" lon="5.51008">
        <ele>1070</ele>
        <time>2019-06-17T09:17:50Z</time>
      </trkpt>
      <trkpt lat="44.18224" lon="5.51006">
        <ele>1072</ele>
        <time>2019-06-17T09:17:53Z</time>
      </trkpt>
      <trkpt lat="44.18224" lon="5.51008">
        <ele>1073</ele>
        <time>2019-06-17T09:18:00Z</time>
      </trkpt>
      <trkpt lat="44.18222" lon="5.5101">
        <ele>1073</ele>
        <time>2019-06-17T09:18:11Z</time>
      </trkpt>
      <trkpt lat="44.18222" lon="5.51011">
        <ele>1071</ele>
        <time>2019-06-17T09:18:24Z</time>
      </trkpt>
      <trkpt lat="44.18221" lon="5.51013">
        <ele>1069</ele>
        <time>2019-06-17T09:18:28Z</time>
      </trkpt>
      <trkpt lat="44.18222" lon="5.51015">
        <ele>1068</ele>
        <time>2019-06-17T09:18:31Z</time>
      </trkpt>
      <trkpt lat="44.1822" lon="5.51011">
        <ele>1067</ele>
        <time>2019-06-17T09:18:36Z</time>
      </trkpt>
      <trkpt lat="44.1822" lon="5.51013">
        <ele>1067</ele>
        <time>2019-06-17T09:18:41Z</time>
      </trkpt>
      <trkpt lat="44.18219" lon="5.51014">
        <ele>1067</ele>
        <time>2019-06-17T09:18:43Z</time>
      </trkpt>
      <trkpt lat="44.18219" lon="5.51013">
        <ele>1067</ele>
        <time>2019-06-17T09:18:47Z</time>
      </trkpt>
      <trkpt lat="44.18217" lon="5.51011">
        <ele>1067</ele>
        <time>2019-06-17T09:18:50Z</time>
      </trkpt>
      <trkpt lat="44.18216" lon="5.51009">
        <ele>1067</ele>
        <time>2019-06-17T09:18:52Z</time>
      </trkpt>
      <trkpt lat="44.18215" lon="5.51009">
        <ele>1067</ele>
        <time>2019-06-17T09:18:54Z</time>
      </trkpt>
      <trkpt lat="44.18213" lon="5.51008">
        <ele>1067</ele>
        <time>2019-06-17T09:18:55Z</time>
      </trkpt>
      <trkpt lat="44.18211" lon="5.51008">
        <ele>1067</ele>
        <time>2019-06-17T09:18:56Z</time>
      </trkpt>
      <trkpt lat="44.18209" lon="5.51006">
        <ele>1067</ele>
        <time>2019-06-17T09:18:57Z</time>
      </trkpt>
      <trkpt lat="44.18207" lon="5.51005">
        <ele>1067</ele>
        <time>2019-06-17T09:18:58Z</time>
      </trkpt>
      <trkpt lat="44.18205" lon="5.51004">
        <ele>1067</ele>
        <time>2019-06-17T09:18:59Z</time>
      </trkpt>
      <trkpt lat="44.18203" lon="5.51002">
        <ele>1067</ele>
        <time>2019-06-17T09:19:00Z</time>
      </trkpt>
      <trkpt lat="44.18201" lon="5.51">
        <ele>1067</ele>
        <time>2019-06-17T09:19:01Z</time>
      </trkpt>
      <trkpt lat="44.18199" lon="5.50998">
        <ele>1067</ele>
        <time>2019-06-17T09:19:02Z</time>
      </trkpt>
      <trkpt lat="44.18196" lon="5.50996">
        <ele>1067</ele>
        <time>2019-06-17T09:19:03Z</time>
      </trkpt>
      <trkpt lat="44.18194" lon="5.50995">
        <ele>1067</ele>
        <time>2019-06-17T09:19:04Z</time>
      </trkpt>
      <trkpt lat="44.18191" lon="5.50993">
        <ele>1067</ele>
        <time>2019-06-17T09:19:05Z</time>
      </trkpt>
      <trkpt lat="44.18189" lon="5.50992">
        <ele>1067</ele>
        <time>2019-06-17T09:19:06Z</time>
      </trkpt>
      <trkpt lat="44.18186" lon="5.50991">
        <ele>1067</ele>
        <time>2019-06-17T09:19:07Z</time>
      </trkpt>
      <trkpt lat="44.18183" lon="5.5099">
        <ele>1067</ele>
        <time>2019-06-17T09:19:08Z</time>
      </trkpt>
      <trkpt lat="44.18181" lon="5.50989">
        <ele>1067</ele>
        <time>2019-06-17T09:19:09Z</time>
      </trkpt>
      <trkpt lat="44.18179" lon="5.50987">
        <ele>1067</ele>
        <time>2019-06-17T09:19:10Z</time>
      </trkpt>
      <trkpt lat="44.18176" lon="5.50984">
        <ele>1067</ele>
        <time>2019-06-17T09:19:11Z</time>
      </trkpt>
      <trkpt lat="44.18174" lon="5.50982">
        <ele>1067</ele>
        <time>2019-06-17T09:19:12Z</time>
      </trkpt>
      <trkpt lat="44.18172" lon="5.5098">
        <ele>1067</ele>
        <time>2019-06-17T09:19:13Z</time>
      </trkpt>
      <trkpt lat="44.1817" lon="5.50978">
        <ele>1067</ele>
        <time>2019-06-17T09:19:14Z</time>
      </trkpt>
      <trkpt lat="44.18168" lon="5.50975">
        <ele>1067</ele>
        <time>2019-06-17T09:19:15Z</time>
      </trkpt>
      <trkpt lat="44.18166" lon="5.50973">
        <ele>1067</ele>
        <time>2019-06-17T09:19:16Z</time>
      </trkpt>
      <trkpt lat="44.18164" lon="5.5097">
        <ele>1067</ele>
        <time>2019-06-17T09:19:17Z</time>
      </trkpt>
      <trkpt lat="44.18162" lon="5.50967">
        <ele>1067</ele>
        <time>2019-06-17T09:19:18Z</time>
      </trkpt>
      <trkpt lat="44.1816" lon="5.50964">
        <ele>1067</ele>
        <time>2019-06-17T09:19:19Z</time>
      </trkpt>
      <trkpt lat="44.18157" lon="5.50962">
        <ele>1067</ele>
        <time>2019-06-17T09:19:20Z</time>
      </trkpt>
      <trkpt lat="44.18155" lon="5.50959">
        <ele>1067</ele>
        <time>2019-06-17T09:19:21Z</time>
      </trkpt>
      <trkpt lat="44.18152" lon="5.50956">
        <ele>1067</ele>
        <time>2019-06-17T09:19:22Z</time>
      </trkpt>
      <trkpt lat="44.18149" lon="5.50954">
        <ele>1067</ele>
        <time>2019-06-17T09:19:23Z</time>
      </trkpt>
      <trkpt lat="44.18147" lon="5.50951">
        <ele>1067</ele>
        <time>2019-06-17T09:19:24Z</time>
      </trkpt>
      <trkpt lat="44.18144" lon="5.50948">
        <ele>1067</ele>
        <time>2019-06-17T09:19:25Z</time>
      </trkpt>
      <trkpt lat="44.18141" lon="5.50944">
        <ele>1067</ele>
        <time>2019-06-17T09:19:26Z</time>
      </trkpt>
      <trkpt lat="44.18139" lon="5.50941">
        <ele>1067</ele>
        <time>2019-06-17T09:19:27Z</time>
      </trkpt>
      <trkpt lat="44.18137" lon="5.50937">
        <ele>1067</ele>
        <time>2019-06-17T09:19:28Z</time>
      </trkpt>
      <trkpt lat="44.18134" lon="5.50934">
        <ele>1067</ele>
        <time>2019-06-17T09:19:29Z</time>
      </trkpt>
      <trkpt lat="44.18132" lon="5.5093">
        <ele>1067</ele>
        <time>2019-06-17T09:19:30Z</time>
      </trkpt>
      <trkpt lat="44.1813" lon="5.50926">
        <ele>1067</ele>
        <time>2019-06-17T09:19:31Z</time>
      </trkpt>
      <trkpt lat="44.18128" lon="5.50922">
        <ele>1067</ele>
        <time>2019-06-17T09:19:32Z</time>
      </trkpt>
      <trkpt lat="44.18126" lon="5.50918">
        <ele>1067</ele>
        <time>2019-06-17T09:19:33Z</time>
      </trkpt>
      <trkpt lat="44.18124" lon="5.50914">
        <ele>1067</ele>
        <time>2019-06-17T09:19:34Z</time>
      </trkpt>
      <trkpt lat="44.18121" lon="5.50911">
        <ele>1067</ele>
        <time>2019-06-17T09:19:35Z</time>
      </trkpt>
      <trkpt lat="44.18119" lon="5.50907">
        <ele>1067</ele>
        <time>2019-06-17T09:19:36Z</time>
      </trkpt>
      <trkpt lat="44.18117" lon="5.50903">
        <ele>1067</ele>
        <time>2019-06-17T09:19:37Z</time>
      </trkpt>
      <trkpt lat="44.18115" lon="5.50899">
        <ele>1067</ele>
        <time>2019-06-17T09:19:38Z</time>
      </trkpt>
      <trkpt lat="44.18113" lon="5.50896">
        <ele>1067</ele>
        <time>2019-06-17T09:19:39Z</time>
      </trkpt>
      <trkpt lat="44.18111" lon="5.50893">
        <ele>1067</ele>
        <time>2019-06-17T09:19:40Z</time>
      </trkpt>
      <trkpt lat="44.18109" lon="5.5089">
        <ele>1067</ele>
        <time>2019-06-17T09:19:41Z</time>
      </trkpt>
      <trkpt lat="44.18106" lon="5.50887">
        <ele>1067</ele>
        <time>2019-06-17T09:19:42Z</time>
      </trkpt>
      <trkpt lat="44.18104" lon="5.50885">
        <ele>1067</ele>
        <time>2019-06-17T09:19:43Z</time>
      </trkpt>
      <trkpt lat="44.18101" lon="5.50883">
        <ele>1067</ele>
        <time>2019-06-17T09:19:44Z</time>
      </trkpt>
      <trkpt lat="44.18098" lon="5.50882">
        <ele>1067</ele>
        <time>2019-06-17T09:19:45Z</time>
      </trkpt>
      <trkpt lat="44.18096" lon="5.5088">
        <ele>1067</ele>
        <time>2019-06-17T09:19:46Z</time>
      </trkpt>
      <trkpt lat="44.18094" lon="5.50879">
        <ele>1067</ele>
        <time>2019-06-17T09:19:47Z</time>
      </trkpt>
      <trkpt lat="44.18091" lon="5.50878">
        <ele>1067</ele>
        <time>2019-06-17T09:19:48Z</time>
      </trkpt>
      <trkpt lat="44.18089" lon="5.50877">
        <ele>1068</ele>
        <time>2019-06-17T09:19:49Z</time>
      </trkpt>
      <trkpt lat="44.18087" lon="5.50877">
        <ele>1068</ele>
        <time>2019-06-17T09:19:50Z</time>
      </trkpt>
      <trkpt lat="44.18084" lon="5.50877">
        <ele>1068</ele>
        <time>2019-06-17T09:19:51Z</time>
      </trkpt>
      <trkpt lat="44.18081" lon="5.50876">
        <ele>1068</ele>
        <time>2019-06-17T09:19:52Z</time>
      </trkpt>
      <trkpt lat="44.18079" lon="5.50876">
        <ele>1069</ele>
        <time>2019-06-17T09:19:53Z</time>
      </trkpt>
      <trkpt lat="44.18077" lon="5.50876">
        <ele>1069</ele>
        <time>2019-06-17T09:19:54Z</time>
      </trkpt>
      <trkpt lat="44.18074" lon="5.50876">
        <ele>1069</ele>
        <time>2019-06-17T09:19:55Z</time>
      </trkpt>
      <trkpt lat="44.18073" lon="5.50878">
        <ele>1070</ele>
        <time>2019-06-17T09:19:56Z</time>
      </trkpt>
      <trkpt lat="44.1807" lon="5.50879">
        <ele>1070</ele>
        <time>2019-06-17T09:19:57Z</time>
      </trkpt>
      <trkpt lat="44.18068" lon="5.5088">
        <ele>1070</ele>
        <time>2019-06-17T09:19:58Z</time>
      </trkpt>
      <trkpt lat="44.18066" lon="5.50882">
        <ele>1071</ele>
        <time>2019-06-17T09:19:59Z</time>
      </trkpt>
      <trkpt lat="44.18064" lon="5.50883">
        <ele>1071</ele>
        <time>2019-06-17T09:20:00Z</time>
      </trkpt>
      <trkpt lat="44.18063" lon="5.50886">
        <ele>1071</ele>
        <time>2019-06-17T09:20:01Z</time>
      </trkpt>
      <trkpt lat="44.18061" lon="5.50888">
        <ele>1071</ele>
        <time>2019-06-17T09:20:02Z</time>
      </trkpt>
      <trkpt lat="44.18058" lon="5.5089">
        <ele>1072</ele>
        <time>2019-06-17T09:20:03Z</time>
      </trkpt>
      <trkpt lat="44.18056" lon="5.50892">
        <ele>1072</ele>
        <time>2019-06-17T09:20:04Z</time>
      </trkpt>
      <trkpt lat="44.18055" lon="5.50895">
        <ele>1072</ele>
        <time>2019-06-17T09:20:05Z</time>
      </trkpt>
      <trkpt lat="44.18052" lon="5.50898">
        <ele>1072</ele>
        <time>2019-06-17T09:20:06Z</time>
      </trkpt>
      <trkpt lat="44.1805" lon="5.50901">
        <ele>1073</ele>
        <time>2019-06-17T09:20:07Z</time>
      </trkpt>
      <trkpt lat="44.18048" lon="5.50904">
        <ele>1073</ele>
        <time>2019-06-17T09:20:08Z</time>
      </trkpt>
      <trkpt lat="44.18046" lon="5.50908">
        <ele>1073</ele>
        <time>2019-06-17T09:20:09Z</time>
      </trkpt>
      <trkpt lat="44.18044" lon="5.50912">
        <ele>1073</ele>
        <time>2019-06-17T09:20:10Z</time>
      </trkpt>
      <trkpt lat="44.18042" lon="5.50915">
        <ele>1073</ele>
        <time>2019-06-17T09:20:11Z</time>
      </trkpt>
      <trkpt lat="44.18041" lon="5.50918">
        <ele>1073</ele>
        <time>2019-06-17T09:20:12Z</time>
      </trkpt>
      <trkpt lat="44.18039" lon="5.50921">
        <ele>1074</ele>
        <time>2019-06-17T09:20:13Z</time>
      </trkpt>
      <trkpt lat="44.18037" lon="5.50924">
        <ele>1074</ele>
        <time>2019-06-17T09:20:14Z</time>
      </trkpt>
      <trkpt lat="44.18035" lon="5.50927">
        <ele>1074</ele>
        <time>2019-06-17T09:20:15Z</time>
      </trkpt>
      <trkpt lat="44.18033" lon="5.50931">
        <ele>1075</ele>
        <time>2019-06-17T09:20:16Z</time>
      </trkpt>
      <trkpt lat="44.18031" lon="5.50934">
        <ele>1075</ele>
        <time>2019-06-17T09:20:17Z</time>
      </trkpt>
      <trkpt lat="44.18029" lon="5.50937">
        <ele>1075</ele>
        <time>2019-06-17T09:20:18Z</time>
      </trkpt>
      <trkpt lat="44.18027" lon="5.5094">
        <ele>1075</ele>
        <time>2019-06-17T09:20:19Z</time>
      </trkpt>
      <trkpt lat="44.18025" lon="5.50943">
        <ele>1075</ele>
        <time>2019-06-17T09:20:20Z</time>
      </trkpt>
      <trkpt lat="44.18023" lon="5.50946">
        <ele>1075</ele>
        <time>2019-06-17T09:20:21Z</time>
      </trkpt>
      <trkpt lat="44.18021" lon="5.50949">
        <ele>1075</ele>
        <time>2019-06-17T09:20:22Z</time>
      </trkpt>
      <trkpt lat="44.18019" lon="5.50952">
        <ele>1075</ele>
        <time>2019-06-17T09:20:23Z</time>
      </trkpt>
      <trkpt lat="44.18017" lon="5.50955">
        <ele>1075</ele>
        <time>2019-06-17T09:20:24Z</time>
      </trkpt>
      <trkpt lat="44.18015" lon="5.50958">
        <ele>1075</ele>
        <time>2019-06-17T09:20:25Z</time>
      </trkpt>
      <trkpt lat="44.18013" lon="5.50961">
        <ele>1075</ele>
        <time>2019-06-17T09:20:26Z</time>
      </trkpt>
      <trkpt lat="44.18011" lon="5.50964">
        <ele>1075</ele>
        <time>2019-06-17T09:20:27Z</time>
      </trkpt>
      <trkpt lat="44.18009" lon="5.50967">
        <ele>1075</ele>
        <time>2019-06-17T09:20:28Z</time>
      </trkpt>
      <trkpt lat="44.18007" lon="5.5097">
        <ele>1075</ele>
        <time>2019-06-17T09:20:29Z</time>
      </trkpt>
      <trkpt lat="44.18005" lon="5.50972">
        <ele>1075</ele>
        <time>2019-06-17T09:20:30Z</time>
      </trkpt>
      <trkpt lat="44.18003" lon="5.50975">
        <ele>1075</ele>
        <time>2019-06-17T09:20:31Z</time>
      </trkpt>
      <trkpt lat="44.18001" lon="5.50978">
        <ele>1075</ele>
        <time>2019-06-17T09:20:32Z</time>
      </trkpt>
      <trkpt lat="44.17999" lon="5.50981">
        <ele>1075</ele>
        <time>2019-06-17T09:20:33Z</time>
      </trkpt>
      <trkpt lat="44.17998" lon="5.50984">
        <ele>1075</ele>
        <time>2019-06-17T09:20:34Z</time>
      </trkpt>
      <trkpt lat="44.17996" lon="5.50987">
        <ele>1075</ele>
        <time>2019-06-17T09:20:35Z</time>
      </trkpt>
      <trkpt lat="44.17994" lon="5.5099">
        <ele>1075</ele>
        <time>2019-06-17T09:20:36Z</time>
      </trkpt>
      <trkpt lat="44.17992" lon="5.50993">
        <ele>1075</ele>
        <time>2019-06-17T09:20:37Z</time>
      </trkpt>
      <trkpt lat="44.1799" lon="5.50995">
        <ele>1076</ele>
        <time>2019-06-17T09:20:38Z</time>
      </trkpt>
      <trkpt lat="44.17988" lon="5.50998">
        <ele>1076</ele>
        <time>2019-06-17T09:20:39Z</time>
      </trkpt>
      <trkpt lat="44.17987" lon="5.51">
        <ele>1076</ele>
        <time>2019-06-17T09:20:40Z</time>
      </trkpt>
      <trkpt lat="44.17984" lon="5.51003">
        <ele>1076</ele>
        <time>2019-06-17T09:20:41Z</time>
      </trkpt>
      <trkpt lat="44.17982" lon="5.51006">
        <ele>1076</ele>
        <time>2019-06-17T09:20:42Z</time>
      </trkpt>
      <trkpt lat="44.1798" lon="5.51009">
        <ele>1076</ele>
        <time>2019-06-17T09:20:43Z</time>
      </trkpt>
      <trkpt lat="44.17979" lon="5.51012">
        <ele>1076</ele>
        <time>2019-06-17T09:20:44Z</time>
      </trkpt>
      <trkpt lat="44.17976" lon="5.51015">
        <ele>1076</ele>
        <time>2019-06-17T09:20:45Z</time>
      </trkpt>
      <trkpt lat="44.17974" lon="5.51018">
        <ele>1076</ele>
        <time>2019-06-17T09:20:46Z</time>
      </trkpt>
      <trkpt lat="44.17972" lon="5.51021">
        <ele>1076</ele>
        <time>2019-06-17T09:20:47Z</time>
      </trkpt>
      <trkpt lat="44.1797" lon="5.51023">
        <ele>1076</ele>
        <time>2019-06-17T09:20:48Z</time>
      </trkpt>
      <trkpt lat="44.17968" lon="5.51026">
        <ele>1077</ele>
        <time>2019-06-17T09:20:49Z</time>
      </trkpt>
      <trkpt lat="44.17965" lon="5.51028">
        <ele>1077</ele>
        <time>2019-06-17T09:20:50Z</time>
      </trkpt>
      <trkpt lat="44.17963" lon="5.51031">
        <ele>1078</ele>
        <time>2019-06-17T09:20:51Z</time>
      </trkpt>
      <trkpt lat="44.17961" lon="5.51033">
        <ele>1078</ele>
        <time>2019-06-17T09:20:52Z</time>
      </trkpt>
      <trkpt lat="44.17958" lon="5.51035">
        <ele>1078</ele>
        <time>2019-06-17T09:20:53Z</time>
      </trkpt>
      <trkpt lat="44.17956" lon="5.51037">
        <ele>1079</ele>
        <time>2019-06-17T09:20:54Z</time>
      </trkpt>
      <trkpt lat="44.17954" lon="5.51039">
        <ele>1079</ele>
        <time>2019-06-17T09:20:55Z</time>
      </trkpt>
      <trkpt lat="44.17951" lon="5.51041">
        <ele>1080</ele>
        <time>2019-06-17T09:20:56Z</time>
      </trkpt>
      <trkpt lat="44.17949" lon="5.51042">
        <ele>1080</ele>
        <time>2019-06-17T09:20:57Z</time>
      </trkpt>
      <trkpt lat="44.17946" lon="5.51044">
        <ele>1080</ele>
        <time>2019-06-17T09:20:58Z</time>
      </trkpt>
      <trkpt lat="44.17944" lon="5.51045">
        <ele>1081</ele>
        <time>2019-06-17T09:20:59Z</time>
      </trkpt>
      <trkpt lat="44.17941" lon="5.51047">
        <ele>1081</ele>
        <time>2019-06-17T09:21:00Z</time>
      </trkpt>
      <trkpt lat="44.17938" lon="5.51048">
        <ele>1081</ele>
        <time>2019-06-17T09:21:01Z</time>
      </trkpt>
      <trkpt lat="44.17935" lon="5.51049">
        <ele>1082</ele>
        <time>2019-06-17T09:21:02Z</time>
      </trkpt>
      <trkpt lat="44.17932" lon="5.5105">
        <ele>1082</ele>
        <time>2019-06-17T09:21:03Z</time>
      </trkpt>
      <trkpt lat="44.17929" lon="5.51051">
        <ele>1082</ele>
        <time>2019-06-17T09:21:04Z</time>
      </trkpt>
      <trkpt lat="44.17926" lon="5.51051">
        <ele>1083</ele>
        <time>2019-06-17T09:21:05Z</time>
      </trkpt>
      <trkpt lat="44.17923" lon="5.51052">
        <ele>1083</ele>
        <time>2019-06-17T09:21:06Z</time>
      </trkpt>
      <trkpt lat="44.17921" lon="5.51053">
        <ele>1083</ele>
        <time>2019-06-17T09:21:07Z</time>
      </trkpt>
      <trkpt lat="44.17918" lon="5.51053">
        <ele>1083</ele>
        <time>2019-06-17T09:21:08Z</time>
      </trkpt>
      <trkpt lat="44.17915" lon="5.51054">
        <ele>1084</ele>
        <time>2019-06-17T09:21:09Z</time>
      </trkpt>
      <trkpt lat="44.17912" lon="5.51054">
        <ele>1084</ele>
        <time>2019-06-17T09:21:10Z</time>
      </trkpt>
      <trkpt lat="44.17909" lon="5.51055">
        <ele>1084</ele>
        <time>2019-06-17T09:21:11Z</time>
      </trkpt>
      <trkpt lat="44.17906" lon="5.51055">
        <ele>1084</ele>
        <time>2019-06-17T09:21:12Z</time>
      </trkpt>
      <trkpt lat="44.17903" lon="5.51056">
        <ele>1084</ele>
        <time>2019-06-17T09:21:13Z</time>
      </trkpt>
      <trkpt lat="44.179" lon="5.51057">
        <ele>1085</ele>
        <time>2019-06-17T09:21:14Z</time>
      </trkpt>
      <trkpt lat="44.17897" lon="5.51058">
        <ele>1085</ele>
        <time>2019-06-17T09:21:15Z</time>
      </trkpt>
      <trkpt lat="44.17895" lon="5.51059">
        <ele>1085</ele>
        <time>2019-06-17T09:21:16Z</time>
      </trkpt>
      <trkpt lat="44.17892" lon="5.5106">
        <ele>1085</ele>
        <time>2019-06-17T09:21:17Z</time>
      </trkpt>
      <trkpt lat="44.17889" lon="5.51061">
        <ele>1085</ele>
        <time>2019-06-17T09:21:18Z</time>
      </trkpt>
      <trkpt lat="44.17886" lon="5.51062">
        <ele>1085</ele>
        <time>2019-06-17T09:21:19Z</time>
      </trkpt>
      <trkpt lat="44.17883" lon="5.51063">
        <ele>1085</ele>
        <time>2019-06-17T09:21:20Z</time>
      </trkpt>
      <trkpt lat="44.1788" lon="5.51064">
        <ele>1086</ele>
        <time>2019-06-17T09:21:21Z</time>
      </trkpt>
      <trkpt lat="44.17877" lon="5.51065">
        <ele>1086</ele>
        <time>2019-06-17T09:21:22Z</time>
      </trkpt>
      <trkpt lat="44.17874" lon="5.51066">
        <ele>1086</ele>
        <time>2019-06-17T09:21:23Z</time>
      </trkpt>
      <trkpt lat="44.17871" lon="5.51067">
        <ele>1086</ele>
        <time>2019-06-17T09:21:24Z</time>
      </trkpt>
      <trkpt lat="44.17868" lon="5.51068">
        <ele>1086</ele>
        <time>2019-06-17T09:21:25Z</time>
      </trkpt>
      <trkpt lat="44.17865" lon="5.5107">
        <ele>1086</ele>
        <time>2019-06-17T09:21:26Z</time>
      </trkpt>
      <trkpt lat="44.17862" lon="5.51071">
        <ele>1086</ele>
        <time>2019-06-17T09:21:27Z</time>
      </trkpt>
      <trkpt lat="44.17859" lon="5.51073">
        <ele>1086</ele>
        <time>2019-06-17T09:21:28Z</time>
      </trkpt>
      <trkpt lat="44.17856" lon="5.51074">
        <ele>1086</ele>
        <time>2019-06-17T09:21:29Z</time>
      </trkpt>
      <trkpt lat="44.17853" lon="5.51075">
        <ele>1086</ele>
        <time>2019-06-17T09:21:30Z</time>
      </trkpt>
      <trkpt lat="44.1785" lon="5.51076">
        <ele>1087</ele>
        <time>2019-06-17T09:21:31Z</time>
      </trkpt>
      <trkpt lat="44.17847" lon="5.51077">
        <ele>1087</ele>
        <time>2019-06-17T09:21:32Z</time>
      </trkpt>
      <trkpt lat="44.17845" lon="5.51079">
        <ele>1087</ele>
        <time>2019-06-17T09:21:33Z</time>
      </trkpt>
      <trkpt lat="44.17842" lon="5.5108">
        <ele>1087</ele>
        <time>2019-06-17T09:21:34Z</time>
      </trkpt>
      <trkpt lat="44.17839" lon="5.51081">
        <ele>1087</ele>
        <time>2019-06-17T09:21:35Z</time>
      </trkpt>
      <trkpt lat="44.17836" lon="5.51083">
        <ele>1087</ele>
        <time>2019-06-17T09:21:36Z</time>
      </trkpt>
      <trkpt lat="44.17833" lon="5.51084">
        <ele>1087</ele>
        <time>2019-06-17T09:21:37Z</time>
      </trkpt>
      <trkpt lat="44.17831" lon="5.51086">
        <ele>1087</ele>
        <time>2019-06-17T09:21:38Z</time>
      </trkpt>
      <trkpt lat="44.17828" lon="5.51088">
        <ele>1087</ele>
        <time>2019-06-17T09:21:39Z</time>
      </trkpt>
      <trkpt lat="44.17825" lon="5.5109">
        <ele>1088</ele>
        <time>2019-06-17T09:21:40Z</time>
      </trkpt>
      <trkpt lat="44.17822" lon="5.51092">
        <ele>1088</ele>
        <time>2019-06-17T09:21:41Z</time>
      </trkpt>
      <trkpt lat="44.17819" lon="5.51094">
        <ele>1088</ele>
        <time>2019-06-17T09:21:42Z</time>
      </trkpt>
      <trkpt lat="44.17816" lon="5.51095">
        <ele>1088</ele>
        <time>2019-06-17T09:21:43Z</time>
      </trkpt>
      <trkpt lat="44.17813" lon="5.51097">
        <ele>1089</ele>
        <time>2019-06-17T09:21:44Z</time>
      </trkpt>
      <trkpt lat="44.1781" lon="5.511">
        <ele>1089</ele>
        <time>2019-06-17T09:21:45Z</time>
      </trkpt>
      <trkpt lat="44.17807" lon="5.51102">
        <ele>1089</ele>
        <time>2019-06-17T09:21:46Z</time>
      </trkpt>
      <trkpt lat="44.17805" lon="5.51105">
        <ele>1089</ele>
        <time>2019-06-17T09:21:47Z</time>
      </trkpt>
      <trkpt lat="44.17802" lon="5.51107">
        <ele>1089</ele>
        <time>2019-06-17T09:21:48Z</time>
      </trkpt>
      <trkpt lat="44.17801" lon="5.51109">
        <ele>1089</ele>
        <time>2019-06-17T09:21:49Z</time>
      </trkpt>
      <trkpt lat="44.17798" lon="5.51113">
        <ele>1089</ele>
        <time>2019-06-17T09:21:50Z</time>
      </trkpt>
      <trkpt lat="44.17796" lon="5.51116">
        <ele>1089</ele>
        <time>2019-06-17T09:21:51Z</time>
      </trkpt>
      <trkpt lat="44.17794" lon="5.51118">
        <ele>1089</ele>
        <time>2019-06-17T09:21:52Z</time>
      </trkpt>
      <trkpt lat="44.17792" lon="5.51122">
        <ele>1089</ele>
        <time>2019-06-17T09:21:53Z</time>
      </trkpt>
      <trkpt lat="44.17789" lon="5.51125">
        <ele>1090</ele>
        <time>2019-06-17T09:21:54Z</time>
      </trkpt>
      <trkpt lat="44.17787" lon="5.51128">
        <ele>1090</ele>
        <time>2019-06-17T09:21:55Z</time>
      </trkpt>
      <trkpt lat="44.17785" lon="5.51131">
        <ele>1090</ele>
        <time>2019-06-17T09:21:56Z</time>
      </trkpt>
      <trkpt lat="44.17782" lon="5.51133">
        <ele>1090</ele>
        <time>2019-06-17T09:21:57Z</time>
      </trkpt>
      <trkpt lat="44.17778" lon="5.51136">
        <ele>1090</ele>
        <time>2019-06-17T09:21:58Z</time>
      </trkpt>
      <trkpt lat="44.17774" lon="5.51139">
        <ele>1090</ele>
        <time>2019-06-17T09:21:59Z</time>
      </trkpt>
      <trkpt lat="44.1777" lon="5.5114">
        <ele>1090</ele>
        <time>2019-06-17T09:22:00Z</time>
      </trkpt>
      <trkpt lat="44.17765" lon="5.51142">
        <ele>1090</ele>
        <time>2019-06-17T09:22:01Z</time>
      </trkpt>
      <trkpt lat="44.1776" lon="5.51141">
        <ele>1090</ele>
        <time>2019-06-17T09:22:02Z</time>
      </trkpt>
      <trkpt lat="44.17756" lon="5.51141">
        <ele>1090</ele>
        <time>2019-06-17T09:22:03Z</time>
      </trkpt>
      <trkpt lat="44.17752" lon="5.51139">
        <ele>1090</ele>
        <time>2019-06-17T09:22:04Z</time>
      </trkpt>
      <trkpt lat="44.17748" lon="5.51138">
        <ele>1090</ele>
        <time>2019-06-17T09:22:05Z</time>
      </trkpt>
      <trkpt lat="44.17746" lon="5.51135">
        <ele>1090</ele>
        <time>2019-06-17T09:22:06Z</time>
      </trkpt>
      <trkpt lat="44.17743" lon="5.51132">
        <ele>1090</ele>
        <time>2019-06-17T09:22:07Z</time>
      </trkpt>
      <trkpt lat="44.17741" lon="5.51129">
        <ele>1090</ele>
        <time>2019-06-17T09:22:08Z</time>
      </trkpt>
      <trkpt lat="44.17738" lon="5.51126">
        <ele>1090</ele>
        <time>2019-06-17T09:22:09Z</time>
      </trkpt>
      <trkpt lat="44.17736" lon="5.51123">
        <ele>1090</ele>
        <time>2019-06-17T09:22:10Z</time>
      </trkpt>
      <trkpt lat="44.17734" lon="5.5112">
        <ele>1090</ele>
        <time>2019-06-17T09:22:11Z</time>
      </trkpt>
      <trkpt lat="44.17731" lon="5.51117">
        <ele>1090</ele>
        <time>2019-06-17T09:22:12Z</time>
      </trkpt>
      <trkpt lat="44.17729" lon="5.51114">
        <ele>1090</ele>
        <time>2019-06-17T09:22:13Z</time>
      </trkpt>
      <trkpt lat="44.17727" lon="5.51111">
        <ele>1090</ele>
        <time>2019-06-17T09:22:14Z</time>
      </trkpt>
      <trkpt lat="44.17725" lon="5.51108">
        <ele>1090</ele>
        <time>2019-06-17T09:22:15Z</time>
      </trkpt>
      <trkpt lat="44.17722" lon="5.51105">
        <ele>1090</ele>
        <time>2019-06-17T09:22:16Z</time>
      </trkpt>
      <trkpt lat="44.1772" lon="5.51102">
        <ele>1090</ele>
        <time>2019-06-17T09:22:17Z</time>
      </trkpt>
      <trkpt lat="44.17718" lon="5.51098">
        <ele>1090</ele>
        <time>2019-06-17T09:22:18Z</time>
      </trkpt>
      <trkpt lat="44.17714" lon="5.51094">
        <ele>1091</ele>
        <time>2019-06-17T09:22:19Z</time>
      </trkpt>
      <trkpt lat="44.17712" lon="5.51091">
        <ele>1091</ele>
        <time>2019-06-17T09:22:20Z</time>
      </trkpt>
      <trkpt lat="44.1771" lon="5.51088">
        <ele>1091</ele>
        <time>2019-06-17T09:22:21Z</time>
      </trkpt>
      <trkpt lat="44.17708" lon="5.51085">
        <ele>1091</ele>
        <time>2019-06-17T09:22:22Z</time>
      </trkpt>
      <trkpt lat="44.17705" lon="5.51083">
        <ele>1091</ele>
        <time>2019-06-17T09:22:23Z</time>
      </trkpt>
      <trkpt lat="44.17703" lon="5.5108">
        <ele>1091</ele>
        <time>2019-06-17T09:22:24Z</time>
      </trkpt>
      <trkpt lat="44.177" lon="5.51077">
        <ele>1091</ele>
        <time>2019-06-17T09:22:25Z</time>
      </trkpt>
      <trkpt lat="44.17697" lon="5.51073">
        <ele>1091</ele>
        <time>2019-06-17T09:22:26Z</time>
      </trkpt>
      <trkpt lat="44.17694" lon="5.5107">
        <ele>1091</ele>
        <time>2019-06-17T09:22:27Z</time>
      </trkpt>
      <trkpt lat="44.17692" lon="5.51067">
        <ele>1091</ele>
        <time>2019-06-17T09:22:28Z</time>
      </trkpt>
      <trkpt lat="44.17689" lon="5.51064">
        <ele>1091</ele>
        <time>2019-06-17T09:22:29Z</time>
      </trkpt>
      <trkpt lat="44.17687" lon="5.51061">
        <ele>1091</ele>
        <time>2019-06-17T09:22:30Z</time>
      </trkpt>
      <trkpt lat="44.17684" lon="5.51058">
        <ele>1091</ele>
        <time>2019-06-17T09:22:31Z</time>
      </trkpt>
      <trkpt lat="44.17681" lon="5.51056">
        <ele>1092</ele>
        <time>2019-06-17T09:22:32Z</time>
      </trkpt>
      <trkpt lat="44.17678" lon="5.51053">
        <ele>1092</ele>
        <time>2019-06-17T09:22:33Z</time>
      </trkpt>
      <trkpt lat="44.17675" lon="5.5105">
        <ele>1092</ele>
        <time>2019-06-17T09:22:34Z</time>
      </trkpt>
      <trkpt lat="44.17672" lon="5.51048">
        <ele>1092</ele>
        <time>2019-06-17T09:22:35Z</time>
      </trkpt>
      <trkpt lat="44.1767" lon="5.51046">
        <ele>1092</ele>
        <time>2019-06-17T09:22:36Z</time>
      </trkpt>
      <trkpt lat="44.17667" lon="5.51044">
        <ele>1092</ele>
        <time>2019-06-17T09:22:37Z</time>
      </trkpt>
      <trkpt lat="44.17664" lon="5.51042">
        <ele>1092</ele>
        <time>2019-06-17T09:22:38Z</time>
      </trkpt>
      <trkpt lat="44.17661" lon="5.5104">
        <ele>1092</ele>
        <time>2019-06-17T09:22:39Z</time>
      </trkpt>
      <trkpt lat="44.17658" lon="5.51038">
        <ele>1092</ele>
        <time>2019-06-17T09:22:40Z</time>
      </trkpt>
      <trkpt lat="44.17655" lon="5.51035">
        <ele>1092</ele>
        <time>2019-06-17T09:22:41Z</time>
      </trkpt>
      <trkpt lat="44.17651" lon="5.51033">
        <ele>1093</ele>
        <time>2019-06-17T09:22:42Z</time>
      </trkpt>
      <trkpt lat="44.17648" lon="5.51031">
        <ele>1093</ele>
        <time>2019-06-17T09:22:43Z</time>
      </trkpt>
      <trkpt lat="44.17645" lon="5.51029">
        <ele>1093</ele>
        <time>2019-06-17T09:22:44Z</time>
      </trkpt>
      <trkpt lat="44.17642" lon="5.51026">
        <ele>1093</ele>
        <time>2019-06-17T09:22:45Z</time>
      </trkpt>
      <trkpt lat="44.17639" lon="5.51024">
        <ele>1093</ele>
        <time>2019-06-17T09:22:46Z</time>
      </trkpt>
      <trkpt lat="44.17636" lon="5.51022">
        <ele>1093</ele>
        <time>2019-06-17T09:22:47Z</time>
      </trkpt>
      <trkpt lat="44.17633" lon="5.51019">
        <ele>1093</ele>
        <time>2019-06-17T09:22:48Z</time>
      </trkpt>
      <trkpt lat="44.1763" lon="5.51017">
        <ele>1093</ele>
        <time>2019-06-17T09:22:49Z</time>
      </trkpt>
      <trkpt lat="44.17627" lon="5.51014">
        <ele>1094</ele>
        <time>2019-06-17T09:22:50Z</time>
      </trkpt>
      <trkpt lat="44.17624" lon="5.51011">
        <ele>1094</ele>
        <time>2019-06-17T09:22:51Z</time>
      </trkpt>
      <trkpt lat="44.17621" lon="5.51008">
        <ele>1094</ele>
        <time>2019-06-17T09:22:52Z</time>
      </trkpt>
      <trkpt lat="44.17619" lon="5.51005">
        <ele>1094</ele>
        <time>2019-06-17T09:22:53Z</time>
      </trkpt>
      <trkpt lat="44.17616" lon="5.51002">
        <ele>1094</ele>
        <time>2019-06-17T09:22:54Z</time>
      </trkpt>
      <trkpt lat="44.17614" lon="5.50999">
        <ele>1095</ele>
        <time>2019-06-17T09:22:55Z</time>
      </trkpt>
      <trkpt lat="44.17611" lon="5.50997">
        <ele>1095</ele>
        <time>2019-06-17T09:22:56Z</time>
      </trkpt>
      <trkpt lat="44.17609" lon="5.50994">
        <ele>1095</ele>
        <time>2019-06-17T09:22:57Z</time>
      </trkpt>
      <trkpt lat="44.17607" lon="5.5099">
        <ele>1095</ele>
        <time>2019-06-17T09:22:58Z</time>
      </trkpt>
      <trkpt lat="44.17605" lon="5.50987">
        <ele>1095</ele>
        <time>2019-06-17T09:22:59Z</time>
      </trkpt>
      <trkpt lat="44.17603" lon="5.50984">
        <ele>1095</ele>
        <time>2019-06-17T09:23:00Z</time>
      </trkpt>
      <trkpt lat="44.176" lon="5.50981">
        <ele>1095</ele>
        <time>2019-06-17T09:23:01Z</time>
      </trkpt>
      <trkpt lat="44.17598" lon="5.50977">
        <ele>1095</ele>
        <time>2019-06-17T09:23:02Z</time>
      </trkpt>
      <trkpt lat="44.17596" lon="5.50974">
        <ele>1095</ele>
        <time>2019-06-17T09:23:03Z</time>
      </trkpt>
      <trkpt lat="44.17595" lon="5.5097">
        <ele>1095</ele>
        <time>2019-06-17T09:23:04Z</time>
      </trkpt>
      <trkpt lat="44.17593" lon="5.50967">
        <ele>1095</ele>
        <time>2019-06-17T09:23:05Z</time>
      </trkpt>
      <trkpt lat="44.17591" lon="5.50963">
        <ele>1095</ele>
        <time>2019-06-17T09:23:06Z</time>
      </trkpt>
      <trkpt lat="44.1759" lon="5.50959">
        <ele>1095</ele>
        <time>2019-06-17T09:23:07Z</time>
      </trkpt>
      <trkpt lat="44.17588" lon="5.50955">
        <ele>1095</ele>
        <time>2019-06-17T09:23:08Z</time>
      </trkpt>
      <trkpt lat="44.17587" lon="5.50951">
        <ele>1095</ele>
        <time>2019-06-17T09:23:09Z</time>
      </trkpt>
      <trkpt lat="44.17585" lon="5.50947">
        <ele>1096</ele>
        <time>2019-06-17T09:23:10Z</time>
      </trkpt>
      <trkpt lat="44.17584" lon="5.50942">
        <ele>1096</ele>
        <time>2019-06-17T09:23:11Z</time>
      </trkpt>
      <trkpt lat="44.17583" lon="5.50938">
        <ele>1096</ele>
        <time>2019-06-17T09:23:12Z</time>
      </trkpt>
      <trkpt lat="44.17582" lon="5.50933">
        <ele>1096</ele>
        <time>2019-06-17T09:23:13Z</time>
      </trkpt>
      <trkpt lat="44.17581" lon="5.50929">
        <ele>1096</ele>
        <time>2019-06-17T09:23:14Z</time>
      </trkpt>
      <trkpt lat="44.1758" lon="5.50924">
        <ele>1096</ele>
        <time>2019-06-17T09:23:15Z</time>
      </trkpt>
      <trkpt lat="44.17579" lon="5.5092">
        <ele>1096</ele>
        <time>2019-06-17T09:23:16Z</time>
      </trkpt>
      <trkpt lat="44.17578" lon="5.50915">
        <ele>1097</ele>
        <time>2019-06-17T09:23:17Z</time>
      </trkpt>
      <trkpt lat="44.17577" lon="5.50911">
        <ele>1097</ele>
        <time>2019-06-17T09:23:18Z</time>
      </trkpt>
      <trkpt lat="44.17576" lon="5.50906">
        <ele>1097</ele>
        <time>2019-06-17T09:23:19Z</time>
      </trkpt>
      <trkpt lat="44.17575" lon="5.50902">
        <ele>1097</ele>
        <time>2019-06-17T09:23:20Z</time>
      </trkpt>
      <trkpt lat="44.17574" lon="5.50898">
        <ele>1098</ele>
        <time>2019-06-17T09:23:21Z</time>
      </trkpt>
      <trkpt lat="44.17572" lon="5.50893">
        <ele>1098</ele>
        <time>2019-06-17T09:23:22Z</time>
      </trkpt>
      <trkpt lat="44.17571" lon="5.50888">
        <ele>1098</ele>
        <time>2019-06-17T09:23:23Z</time>
      </trkpt>
      <trkpt lat="44.17569" lon="5.50884">
        <ele>1098</ele>
        <time>2019-06-17T09:23:24Z</time>
      </trkpt>
      <trkpt lat="44.17568" lon="5.50879">
        <ele>1099</ele>
        <time>2019-06-17T09:23:25Z</time>
      </trkpt>
      <trkpt lat="44.17567" lon="5.50875">
        <ele>1099</ele>
        <time>2019-06-17T09:23:26Z</time>
      </trkpt>
      <trkpt lat="44.17565" lon="5.5087">
        <ele>1099</ele>
        <time>2019-06-17T09:23:27Z</time>
      </trkpt>
      <trkpt lat="44.17564" lon="5.50866">
        <ele>1099</ele>
        <time>2019-06-17T09:23:28Z</time>
      </trkpt>
      <trkpt lat="44.17562" lon="5.50862">
        <ele>1099</ele>
        <time>2019-06-17T09:23:29Z</time>
      </trkpt>
      <trkpt lat="44.17561" lon="5.50857">
        <ele>1099</ele>
        <time>2019-06-17T09:23:30Z</time>
      </trkpt>
      <trkpt lat="44.17559" lon="5.50852">
        <ele>1100</ele>
        <time>2019-06-17T09:23:31Z</time>
      </trkpt>
      <trkpt lat="44.17557" lon="5.50848">
        <ele>1100</ele>
        <time>2019-06-17T09:23:32Z</time>
      </trkpt>
      <trkpt lat="44.17556" lon="5.50843">
        <ele>1100</ele>
        <time>2019-06-17T09:23:33Z</time>
      </trkpt>
      <trkpt lat="44.17554" lon="5.50839">
        <ele>1100</ele>
        <time>2019-06-17T09:23:34Z</time>
      </trkpt>
      <trkpt lat="44.17553" lon="5.50834">
        <ele>1100</ele>
        <time>2019-06-17T09:23:35Z</time>
      </trkpt>
      <trkpt lat="44.17552" lon="5.50829">
        <ele>1100</ele>
        <time>2019-06-17T09:23:36Z</time>
      </trkpt>
      <trkpt lat="44.17551" lon="5.50825">
        <ele>1100</ele>
        <time>2019-06-17T09:23:37Z</time>
      </trkpt>
      <trkpt lat="44.1755" lon="5.5082">
        <ele>1101</ele>
        <time>2019-06-17T09:23:38Z</time>
      </trkpt>
      <trkpt lat="44.17549" lon="5.50815">
        <ele>1101</ele>
        <time>2019-06-17T09:23:39Z</time>
      </trkpt>
      <trkpt lat="44.17548" lon="5.5081">
        <ele>1101</ele>
        <time>2019-06-17T09:23:40Z</time>
      </trkpt>
      <trkpt lat="44.17548" lon="5.50805">
        <ele>1101</ele>
        <time>2019-06-17T09:23:41Z</time>
      </trkpt>
      <trkpt lat="44.17547" lon="5.508">
        <ele>1101</ele>
        <time>2019-06-17T09:23:42Z</time>
      </trkpt>
      <trkpt lat="44.17546" lon="5.50795">
        <ele>1101</ele>
        <time>2019-06-17T09:23:43Z</time>
      </trkpt>
      <trkpt lat="44.17546" lon="5.5079">
        <ele>1101</ele>
        <time>2019-06-17T09:23:44Z</time>
      </trkpt>
      <trkpt lat="44.17545" lon="5.50785">
        <ele>1102</ele>
        <time>2019-06-17T09:23:45Z</time>
      </trkpt>
      <trkpt lat="44.17545" lon="5.5078">
        <ele>1102</ele>
        <time>2019-06-17T09:23:46Z</time>
      </trkpt>
      <trkpt lat="44.17544" lon="5.50776">
        <ele>1102</ele>
        <time>2019-06-17T09:23:47Z</time>
      </trkpt>
      <trkpt lat="44.17542" lon="5.50772">
        <ele>1102</ele>
        <time>2019-06-17T09:23:48Z</time>
      </trkpt>
      <trkpt lat="44.17539" lon="5.50768">
        <ele>1102</ele>
        <time>2019-06-17T09:23:49Z</time>
      </trkpt>
      <trkpt lat="44.17536" lon="5.50766">
        <ele>1102</ele>
        <time>2019-06-17T09:23:50Z</time>
      </trkpt>
      <trkpt lat="44.17532" lon="5.50766">
        <ele>1103</ele>
        <time>2019-06-17T09:23:51Z</time>
      </trkpt>
      <trkpt lat="44.17529" lon="5.50766">
        <ele>1103</ele>
        <time>2019-06-17T09:23:52Z</time>
      </trkpt>
      <trkpt lat="44.17525" lon="5.50768">
        <ele>1103</ele>
        <time>2019-06-17T09:23:53Z</time>
      </trkpt>
      <trkpt lat="44.17522" lon="5.50772">
        <ele>1104</ele>
        <time>2019-06-17T09:23:54Z</time>
      </trkpt>
      <trkpt lat="44.1752" lon="5.50777">
        <ele>1104</ele>
        <time>2019-06-17T09:23:55Z</time>
      </trkpt>
      <trkpt lat="44.17518" lon="5.50782">
        <ele>1104</ele>
        <time>2019-06-17T09:23:56Z</time>
      </trkpt>
      <trkpt lat="44.17515" lon="5.50788">
        <ele>1104</ele>
        <time>2019-06-17T09:23:57Z</time>
      </trkpt>
      <trkpt lat="44.17513" lon="5.50795">
        <ele>1104</ele>
        <time>2019-06-17T09:23:58Z</time>
      </trkpt>
      <trkpt lat="44.17512" lon="5.50801">
        <ele>1104</ele>
        <time>2019-06-17T09:23:59Z</time>
      </trkpt>
      <trkpt lat="44.17512" lon="5.50807">
        <ele>1104</ele>
        <time>2019-06-17T09:24:00Z</time>
      </trkpt>
      <trkpt lat="44.17511" lon="5.50813">
        <ele>1104</ele>
        <time>2019-06-17T09:24:01Z</time>
      </trkpt>
      <trkpt lat="44.17511" lon="5.50819">
        <ele>1104</ele>
        <time>2019-06-17T09:24:02Z</time>
      </trkpt>
      <trkpt lat="44.17511" lon="5.50825">
        <ele>1104</ele>
        <time>2019-06-17T09:24:03Z</time>
      </trkpt>
      <trkpt lat="44.17511" lon="5.50831">
        <ele>1105</ele>
        <time>2019-06-17T09:24:04Z</time>
      </trkpt>
      <trkpt lat="44.1751" lon="5.50836">
        <ele>1105</ele>
        <time>2019-06-17T09:24:05Z</time>
      </trkpt>
      <trkpt lat="44.1751" lon="5.50842">
        <ele>1105</ele>
        <time>2019-06-17T09:24:06Z</time>
      </trkpt>
      <trkpt lat="44.1751" lon="5.50847">
        <ele>1105</ele>
        <time>2019-06-17T09:24:07Z</time>
      </trkpt>
      <trkpt lat="44.1751" lon="5.50853">
        <ele>1105</ele>
        <time>2019-06-17T09:24:08Z</time>
      </trkpt>
      <trkpt lat="44.17509" lon="5.50859">
        <ele>1105</ele>
        <time>2019-06-17T09:24:09Z</time>
      </trkpt>
      <trkpt lat="44.17509" lon="5.50865">
        <ele>1105</ele>
        <time>2019-06-17T09:24:10Z</time>
      </trkpt>
      <trkpt lat="44.17508" lon="5.5087">
        <ele>1105</ele>
        <time>2019-06-17T09:24:11Z</time>
      </trkpt>
      <trkpt lat="44.17508" lon="5.50876">
        <ele>1106</ele>
        <time>2019-06-17T09:24:12Z</time>
      </trkpt>
      <trkpt lat="44.17507" lon="5.50882">
        <ele>1106</ele>
        <time>2019-06-17T09:24:13Z</time>
      </trkpt>
      <trkpt lat="44.17506" lon="5.50887">
        <ele>1106</ele>
        <time>2019-06-17T09:24:14Z</time>
      </trkpt>
      <trkpt lat="44.17506" lon="5.50893">
        <ele>1107</ele>
        <time>2019-06-17T09:24:15Z</time>
      </trkpt>
      <trkpt lat="44.17505" lon="5.509">
        <ele>1107</ele>
        <time>2019-06-17T09:24:16Z</time>
      </trkpt>
      <trkpt lat="44.17505" lon="5.50906">
        <ele>1108</ele>
        <time>2019-06-17T09:24:17Z</time>
      </trkpt>
      <trkpt lat="44.17505" lon="5.50912">
        <ele>1108</ele>
        <time>2019-06-17T09:24:18Z</time>
      </trkpt>
      <trkpt lat="44.17505" lon="5.50918">
        <ele>1109</ele>
        <time>2019-06-17T09:24:19Z</time>
      </trkpt>
      <trkpt lat="44.17504" lon="5.50924">
        <ele>1110</ele>
        <time>2019-06-17T09:24:20Z</time>
      </trkpt>
      <trkpt lat="44.17504" lon="5.5093">
        <ele>1110</ele>
        <time>2019-06-17T09:24:21Z</time>
      </trkpt>
      <trkpt lat="44.17503" lon="5.50936">
        <ele>1110</ele>
        <time>2019-06-17T09:24:22Z</time>
      </trkpt>
      <trkpt lat="44.17504" lon="5.50942">
        <ele>1110</ele>
        <time>2019-06-17T09:24:23Z</time>
      </trkpt>
      <trkpt lat="44.17504" lon="5.50947">
        <ele>1110</ele>
        <time>2019-06-17T09:24:24Z</time>
      </trkpt>
      <trkpt lat="44.17504" lon="5.50953">
        <ele>1110</ele>
        <time>2019-06-17T09:24:25Z</time>
      </trkpt>
      <trkpt lat="44.17505" lon="5.50959">
        <ele>1111</ele>
        <time>2019-06-17T09:24:26Z</time>
      </trkpt>
      <trkpt lat="44.17505" lon="5.50965">
        <ele>1111</ele>
        <time>2019-06-17T09:24:27Z</time>
      </trkpt>
      <trkpt lat="44.17506" lon="5.5097">
        <ele>1112</ele>
        <time>2019-06-17T09:24:28Z</time>
      </trkpt>
      <trkpt lat="44.17506" lon="5.50976">
        <ele>1112</ele>
        <time>2019-06-17T09:24:29Z</time>
      </trkpt>
      <trkpt lat="44.17506" lon="5.50982">
        <ele>1112</ele>
        <time>2019-06-17T09:24:30Z</time>
      </trkpt>
      <trkpt lat="44.17506" lon="5.50987">
        <ele>1113</ele>
        <time>2019-06-17T09:24:31Z</time>
      </trkpt>
      <trkpt lat="44.17506" lon="5.50993">
        <ele>1113</ele>
        <time>2019-06-17T09:24:32Z</time>
      </trkpt>
      <trkpt lat="44.17507" lon="5.50998">
        <ele>1113</ele>
        <time>2019-06-17T09:24:33Z</time>
      </trkpt>
      <trkpt lat="44.17507" lon="5.51004">
        <ele>1113</ele>
        <time>2019-06-17T09:24:34Z</time>
      </trkpt>
      <trkpt lat="44.17507" lon="5.51009">
        <ele>1113</ele>
        <time>2019-06-17T09:24:35Z</time>
      </trkpt>
      <trkpt lat="44.17507" lon="5.51014">
        <ele>1113</ele>
        <time>2019-06-17T09:24:36Z</time>
      </trkpt>
      <trkpt lat="44.17507" lon="5.5102">
        <ele>1113</ele>
        <time>2019-06-17T09:24:37Z</time>
      </trkpt>
      <trkpt lat="44.17507" lon="5.51025">
        <ele>1113</ele>
        <time>2019-06-17T09:24:38Z</time>
      </trkpt>
      <trkpt lat="44.17507" lon="5.51031">
        <ele>1113</ele>
        <time>2019-06-17T09:24:39Z</time>
      </trkpt>
      <trkpt lat="44.17506" lon="5.51036">
        <ele>1113</ele>
        <time>2019-06-17T09:24:40Z</time>
      </trkpt>
      <trkpt lat="44.17506" lon="5.51042">
        <ele>1113</ele>
        <time>2019-06-17T09:24:41Z</time>
      </trkpt>
      <trkpt lat="44.17505" lon="5.51047">
        <ele>1113</ele>
        <time>2019-06-17T09:24:42Z</time>
      </trkpt>
      <trkpt lat="44.17502" lon="5.51052">
        <ele>1114</ele>
        <time>2019-06-17T09:24:43Z</time>
      </trkpt>
      <trkpt lat="44.17499" lon="5.51055">
        <ele>1114</ele>
        <time>2019-06-17T09:24:44Z</time>
      </trkpt>
      <trkpt lat="44.17494" lon="5.51056">
        <ele>1114</ele>
        <time>2019-06-17T09:24:45Z</time>
      </trkpt>
      <trkpt lat="44.17491" lon="5.51055">
        <ele>1114</ele>
        <time>2019-06-17T09:24:46Z</time>
      </trkpt>
      <trkpt lat="44.17487" lon="5.51052">
        <ele>1114</ele>
        <time>2019-06-17T09:24:47Z</time>
      </trkpt>
      <trkpt lat="44.17485" lon="5.51048">
        <ele>1114</ele>
        <time>2019-06-17T09:24:48Z</time>
      </trkpt>
      <trkpt lat="44.17484" lon="5.51043">
        <ele>1114</ele>
        <time>2019-06-17T09:24:49Z</time>
      </trkpt>
      <trkpt lat="44.17482" lon="5.51038">
        <ele>1114</ele>
        <time>2019-06-17T09:24:50Z</time>
      </trkpt>
      <trkpt lat="44.17481" lon="5.51033">
        <ele>1114</ele>
        <time>2019-06-17T09:24:51Z</time>
      </trkpt>
      <trkpt lat="44.17479" lon="5.51029">
        <ele>1114</ele>
        <time>2019-06-17T09:24:52Z</time>
      </trkpt>
      <trkpt lat="44.17478" lon="5.51025">
        <ele>1114</ele>
        <time>2019-06-17T09:24:53Z</time>
      </trkpt>
      <trkpt lat="44.17476" lon="5.51021">
        <ele>1114</ele>
        <time>2019-06-17T09:24:54Z</time>
      </trkpt>
      <trkpt lat="44.17474" lon="5.51016">
        <ele>1114</ele>
        <time>2019-06-17T09:24:55Z</time>
      </trkpt>
      <trkpt lat="44.17472" lon="5.51012">
        <ele>1114</ele>
        <time>2019-06-17T09:24:56Z</time>
      </trkpt>
      <trkpt lat="44.17471" lon="5.51008">
        <ele>1114</ele>
        <time>2019-06-17T09:24:57Z</time>
      </trkpt>
      <trkpt lat="44.17469" lon="5.51004">
        <ele>1114</ele>
        <time>2019-06-17T09:24:58Z</time>
      </trkpt>
      <trkpt lat="44.17466" lon="5.51">
        <ele>1114</ele>
        <time>2019-06-17T09:24:59Z</time>
      </trkpt>
      <trkpt lat="44.17464" lon="5.50996">
        <ele>1114</ele>
        <time>2019-06-17T09:25:00Z</time>
      </trkpt>
      <trkpt lat="44.17461" lon="5.50992">
        <ele>1114</ele>
        <time>2019-06-17T09:25:01Z</time>
      </trkpt>
      <trkpt lat="44.17459" lon="5.50988">
        <ele>1114</ele>
        <time>2019-06-17T09:25:02Z</time>
      </trkpt>
      <trkpt lat="44.17457" lon="5.50984">
        <ele>1114</ele>
        <time>2019-06-17T09:25:03Z</time>
      </trkpt>
      <trkpt lat="44.17455" lon="5.5098">
        <ele>1114</ele>
        <time>2019-06-17T09:25:04Z</time>
      </trkpt>
      <trkpt lat="44.17452" lon="5.50976">
        <ele>1114</ele>
        <time>2019-06-17T09:25:05Z</time>
      </trkpt>
      <trkpt lat="44.1745" lon="5.50973">
        <ele>1114</ele>
        <time>2019-06-17T09:25:06Z</time>
      </trkpt>
      <trkpt lat="44.17448" lon="5.50969">
        <ele>1114</ele>
        <time>2019-06-17T09:25:07Z</time>
      </trkpt>
      <trkpt lat="44.17446" lon="5.50965">
        <ele>1114</ele>
        <time>2019-06-17T09:25:08Z</time>
      </trkpt>
      <trkpt lat="44.17444" lon="5.50961">
        <ele>1114</ele>
        <time>2019-06-17T09:25:09Z</time>
      </trkpt>
      <trkpt lat="44.17442" lon="5.50957">
        <ele>1114</ele>
        <time>2019-06-17T09:25:10Z</time>
      </trkpt>
      <trkpt lat="44.1744" lon="5.50953">
        <ele>1114</ele>
        <time>2019-06-17T09:25:11Z</time>
      </trkpt>
      <trkpt lat="44.17438" lon="5.50949">
        <ele>1114</ele>
        <time>2019-06-17T09:25:12Z</time>
      </trkpt>
      <trkpt lat="44.17437" lon="5.50945">
        <ele>1114</ele>
        <time>2019-06-17T09:25:13Z</time>
      </trkpt>
      <trkpt lat="44.17435" lon="5.50941">
        <ele>1115</ele>
        <time>2019-06-17T09:25:14Z</time>
      </trkpt>
      <trkpt lat="44.17433" lon="5.50937">
        <ele>1115</ele>
        <time>2019-06-17T09:25:15Z</time>
      </trkpt>
      <trkpt lat="44.17432" lon="5.50933">
        <ele>1115</ele>
        <time>2019-06-17T09:25:16Z</time>
      </trkpt>
      <trkpt lat="44.1743" lon="5.50928">
        <ele>1116</ele>
        <time>2019-06-17T09:25:17Z</time>
      </trkpt>
      <trkpt lat="44.17429" lon="5.50924">
        <ele>1116</ele>
        <time>2019-06-17T09:25:18Z</time>
      </trkpt>
      <trkpt lat="44.17427" lon="5.5092">
        <ele>1116</ele>
        <time>2019-06-17T09:25:19Z</time>
      </trkpt>
      <trkpt lat="44.17426" lon="5.50916">
        <ele>1117</ele>
        <time>2019-06-17T09:25:20Z</time>
      </trkpt>
      <trkpt lat="44.17424" lon="5.50913">
        <ele>1117</ele>
        <time>2019-06-17T09:25:21Z</time>
      </trkpt>
      <trkpt lat="44.17422" lon="5.50909">
        <ele>1117</ele>
        <time>2019-06-17T09:25:22Z</time>
      </trkpt>
      <trkpt lat="44.17419" lon="5.50904">
        <ele>1117</ele>
        <time>2019-06-17T09:25:23Z</time>
      </trkpt>
      <trkpt lat="44.17418" lon="5.50899">
        <ele>1118</ele>
        <time>2019-06-17T09:25:24Z</time>
      </trkpt>
      <trkpt lat="44.17416" lon="5.50894">
        <ele>1118</ele>
        <time>2019-06-17T09:25:25Z</time>
      </trkpt>
      <trkpt lat="44.17415" lon="5.50889">
        <ele>1118</ele>
        <time>2019-06-17T09:25:26Z</time>
      </trkpt>
      <trkpt lat="44.17414" lon="5.50884">
        <ele>1119</ele>
        <time>2019-06-17T09:25:27Z</time>
      </trkpt>
      <trkpt lat="44.17412" lon="5.5088">
        <ele>1119</ele>
        <time>2019-06-17T09:25:28Z</time>
      </trkpt>
      <trkpt lat="44.17411" lon="5.50875">
        <ele>1119</ele>
        <time>2019-06-17T09:25:29Z</time>
      </trkpt>
      <trkpt lat="44.1741" lon="5.5087">
        <ele>1119</ele>
        <time>2019-06-17T09:25:30Z</time>
      </trkpt>
      <trkpt lat="44.17408" lon="5.50866">
        <ele>1119</ele>
        <time>2019-06-17T09:25:31Z</time>
      </trkpt>
      <trkpt lat="44.17407" lon="5.50861">
        <ele>1119</ele>
        <time>2019-06-17T09:25:32Z</time>
      </trkpt>
      <trkpt lat="44.17406" lon="5.50855">
        <ele>1119</ele>
        <time>2019-06-17T09:25:33Z</time>
      </trkpt>
      <trkpt lat="44.17404" lon="5.5085">
        <ele>1120</ele>
        <time>2019-06-17T09:25:34Z</time>
      </trkpt>
      <trkpt lat="44.17403" lon="5.50845">
        <ele>1120</ele>
        <time>2019-06-17T09:25:35Z</time>
      </trkpt>
      <trkpt lat="44.17403" lon="5.50841">
        <ele>1120</ele>
        <time>2019-06-17T09:25:36Z</time>
      </trkpt>
      <trkpt lat="44.17403" lon="5.50836">
        <ele>1121</ele>
        <time>2019-06-17T09:25:37Z</time>
      </trkpt>
      <trkpt lat="44.17403" lon="5.50831">
        <ele>1122</ele>
        <time>2019-06-17T09:25:38Z</time>
      </trkpt>
      <trkpt lat="44.17403" lon="5.50827">
        <ele>1123</ele>
        <time>2019-06-17T09:25:39Z</time>
      </trkpt>
      <trkpt lat="44.17404" lon="5.50823">
        <ele>1124</ele>
        <time>2019-06-17T09:25:40Z</time>
      </trkpt>
      <trkpt lat="44.17405" lon="5.50819">
        <ele>1125</ele>
        <time>2019-06-17T09:25:41Z</time>
      </trkpt>
      <trkpt lat="44.17406" lon="5.50816">
        <ele>1126</ele>
        <time>2019-06-17T09:25:42Z</time>
      </trkpt>
      <trkpt lat="44.17407" lon="5.50813">
        <ele>1127</ele>
        <time>2019-06-17T09:25:43Z</time>
      </trkpt>
      <trkpt lat="44.17407" lon="5.50809">
        <ele>1128</ele>
        <time>2019-06-17T09:25:44Z</time>
      </trkpt>
      <trkpt lat="44.17407" lon="5.50805">
        <ele>1129</ele>
        <time>2019-06-17T09:25:45Z</time>
      </trkpt>
      <trkpt lat="44.17408" lon="5.50801">
        <ele>1130</ele>
        <time>2019-06-17T09:25:46Z</time>
      </trkpt>
      <trkpt lat="44.17408" lon="5.50796">
        <ele>1131</ele>
        <time>2019-06-17T09:25:47Z</time>
      </trkpt>
      <trkpt lat="44.17407" lon="5.50792">
        <ele>1132</ele>
        <time>2019-06-17T09:25:48Z</time>
      </trkpt>
      <trkpt lat="44.17407" lon="5.50787">
        <ele>1133</ele>
        <time>2019-06-17T09:25:49Z</time>
      </trkpt>
      <trkpt lat="44.17408" lon="5.50783">
        <ele>1134</ele>
        <time>2019-06-17T09:25:50Z</time>
      </trkpt>
      <trkpt lat="44.17408" lon="5.50779">
        <ele>1135</ele>
        <time>2019-06-17T09:25:51Z</time>
      </trkpt>
      <trkpt lat="44.17408" lon="5.50775">
        <ele>1136</ele>
        <time>2019-06-17T09:25:52Z</time>
      </trkpt>
      <trkpt lat="44.17408" lon="5.50771">
        <ele>1136</ele>
        <time>2019-06-17T09:25:53Z</time>
      </trkpt>
      <trkpt lat="44.17408" lon="5.50766">
        <ele>1136</ele>
        <time>2019-06-17T09:25:54Z</time>
      </trkpt>
      <trkpt lat="44.17408" lon="5.50761">
        <ele>1136</ele>
        <time>2019-06-17T09:25:55Z</time>
      </trkpt>
      <trkpt lat="44.17408" lon="5.50757">
        <ele>1136</ele>
        <time>2019-06-17T09:25:56Z</time>
      </trkpt>
      <trkpt lat="44.17409" lon="5.50753">
        <ele>1136</ele>
        <time>2019-06-17T09:25:57Z</time>
      </trkpt>
      <trkpt lat="44.17408" lon="5.50749">
        <ele>1136</ele>
        <time>2019-06-17T09:25:58Z</time>
      </trkpt>
      <trkpt lat="44.17408" lon="5.50745">
        <ele>1136</ele>
        <time>2019-06-17T09:25:59Z</time>
      </trkpt>
      <trkpt lat="44.17408" lon="5.50741">
        <ele>1136</ele>
        <time>2019-06-17T09:26:00Z</time>
      </trkpt>
      <trkpt lat="44.17408" lon="5.50737">
        <ele>1136</ele>
        <time>2019-06-17T09:26:01Z</time>
      </trkpt>
      <trkpt lat="44.17408" lon="5.50732">
        <ele>1137</ele>
        <time>2019-06-17T09:26:02Z</time>
      </trkpt>
      <trkpt lat="44.17408" lon="5.50729">
        <ele>1137</ele>
        <time>2019-06-17T09:26:03Z</time>
      </trkpt>
      <trkpt lat="44.17408" lon="5.50725">
        <ele>1138</ele>
        <time>2019-06-17T09:26:04Z</time>
      </trkpt>
      <trkpt lat="44.17409" lon="5.5072">
        <ele>1139</ele>
        <time>2019-06-17T09:26:05Z</time>
      </trkpt>
      <trkpt lat="44.17409" lon="5.50715">
        <ele>1139</ele>
        <time>2019-06-17T09:26:06Z</time>
      </trkpt>
      <trkpt lat="44.1741" lon="5.5071">
        <ele>1139</ele>
        <time>2019-06-17T09:26:07Z</time>
      </trkpt>
      <trkpt lat="44.17409" lon="5.50706">
        <ele>1140</ele>
        <time>2019-06-17T09:26:08Z</time>
      </trkpt>
      <trkpt lat="44.17409" lon="5.50702">
        <ele>1140</ele>
        <time>2019-06-17T09:26:09Z</time>
      </trkpt>
      <trkpt lat="44.17409" lon="5.50698">
        <ele>1140</ele>
        <time>2019-06-17T09:26:10Z</time>
      </trkpt>
      <trkpt lat="44.17409" lon="5.50694">
        <ele>1141</ele>
        <time>2019-06-17T09:26:11Z</time>
      </trkpt>
      <trkpt lat="44.17408" lon="5.50689">
        <ele>1141</ele>
        <time>2019-06-17T09:26:12Z</time>
      </trkpt>
      <trkpt lat="44.17409" lon="5.50685">
        <ele>1141</ele>
        <time>2019-06-17T09:26:13Z</time>
      </trkpt>
      <trkpt lat="44.17408" lon="5.50682">
        <ele>1141</ele>
        <time>2019-06-17T09:26:14Z</time>
      </trkpt>
      <trkpt lat="44.17408" lon="5.50678">
        <ele>1141</ele>
        <time>2019-06-17T09:26:15Z</time>
      </trkpt>
      <trkpt lat="44.17408" lon="5.50672">
        <ele>1141</ele>
        <time>2019-06-17T09:26:16Z</time>
      </trkpt>
      <trkpt lat="44.17407" lon="5.50667">
        <ele>1142</ele>
        <time>2019-06-17T09:26:17Z</time>
      </trkpt>
      <trkpt lat="44.17408" lon="5.50663">
        <ele>1142</ele>
        <time>2019-06-17T09:26:18Z</time>
      </trkpt>
      <trkpt lat="44.17409" lon="5.50659">
        <ele>1142</ele>
        <time>2019-06-17T09:26:19Z</time>
      </trkpt>
      <trkpt lat="44.1741" lon="5.50655">
        <ele>1143</ele>
        <time>2019-06-17T09:26:20Z</time>
      </trkpt>
      <trkpt lat="44.17411" lon="5.50649">
        <ele>1143</ele>
        <time>2019-06-17T09:26:21Z</time>
      </trkpt>
      <trkpt lat="44.17411" lon="5.50645">
        <ele>1143</ele>
        <time>2019-06-17T09:26:22Z</time>
      </trkpt>
      <trkpt lat="44.17411" lon="5.5064">
        <ele>1143</ele>
        <time>2019-06-17T09:26:23Z</time>
      </trkpt>
      <trkpt lat="44.17412" lon="5.50635">
        <ele>1144</ele>
        <time>2019-06-17T09:26:24Z</time>
      </trkpt>
      <trkpt lat="44.17412" lon="5.50631">
        <ele>1144</ele>
        <time>2019-06-17T09:26:25Z</time>
      </trkpt>
      <trkpt lat="44.17412" lon="5.50627">
        <ele>1144</ele>
        <time>2019-06-17T09:26:26Z</time>
      </trkpt>
      <trkpt lat="44.17413" lon="5.50622">
        <ele>1144</ele>
        <time>2019-06-17T09:26:27Z</time>
      </trkpt>
      <trkpt lat="44.17413" lon="5.50617">
        <ele>1144</ele>
        <time>2019-06-17T09:26:28Z</time>
      </trkpt>
      <trkpt lat="44.17414" lon="5.50612">
        <ele>1144</ele>
        <time>2019-06-17T09:26:29Z</time>
      </trkpt>
      <trkpt lat="44.17416" lon="5.50608">
        <ele>1144</ele>
        <time>2019-06-17T09:26:30Z</time>
      </trkpt>
      <trkpt lat="44.17416" lon="5.50603">
        <ele>1144</ele>
        <time>2019-06-17T09:26:31Z</time>
      </trkpt>
      <trkpt lat="44.17417" lon="5.50599">
        <ele>1144</ele>
        <time>2019-06-17T09:26:32Z</time>
      </trkpt>
      <trkpt lat="44.17419" lon="5.50595">
        <ele>1145</ele>
        <time>2019-06-17T09:26:33Z</time>
      </trkpt>
      <trkpt lat="44.17419" lon="5.50592">
        <ele>1145</ele>
        <time>2019-06-17T09:26:34Z</time>
      </trkpt>
      <trkpt lat="44.1742" lon="5.50587">
        <ele>1145</ele>
        <time>2019-06-17T09:26:35Z</time>
      </trkpt>
      <trkpt lat="44.1742" lon="5.50584">
        <ele>1145</ele>
        <time>2019-06-17T09:26:36Z</time>
      </trkpt>
      <trkpt lat="44.17421" lon="5.50579">
        <ele>1145</ele>
        <time>2019-06-17T09:26:37Z</time>
      </trkpt>
      <trkpt lat="44.17421" lon="5.50575">
        <ele>1145</ele>
        <time>2019-06-17T09:26:38Z</time>
      </trkpt>
      <trkpt lat="44.17423" lon="5.50571">
        <ele>1145</ele>
        <time>2019-06-17T09:26:39Z</time>
      </trkpt>
      <trkpt lat="44.17424" lon="5.50566">
        <ele>1145</ele>
        <time>2019-06-17T09:26:40Z</time>
      </trkpt>
      <trkpt lat="44.17424" lon="5.50562">
        <ele>1145</ele>
        <time>2019-06-17T09:26:41Z</time>
      </trkpt>
      <trkpt lat="44.17425" lon="5.50558">
        <ele>1145</ele>
        <time>2019-06-17T09:26:42Z</time>
      </trkpt>
      <trkpt lat="44.17426" lon="5.50554">
        <ele>1145</ele>
        <time>2019-06-17T09:26:43Z</time>
      </trkpt>
      <trkpt lat="44.17426" lon="5.50551">
        <ele>1145</ele>
        <time>2019-06-17T09:26:44Z</time>
      </trkpt>
      <trkpt lat="44.17426" lon="5.50548">
        <ele>1145</ele>
        <time>2019-06-17T09:26:45Z</time>
      </trkpt>
      <trkpt lat="44.17426" lon="5.50545">
        <ele>1145</ele>
        <time>2019-06-17T09:26:46Z</time>
      </trkpt>
      <trkpt lat="44.17427" lon="5.50541">
        <ele>1145</ele>
        <time>2019-06-17T09:26:47Z</time>
      </trkpt>
      <trkpt lat="44.17427" lon="5.50537">
        <ele>1145</ele>
        <time>2019-06-17T09:26:48Z</time>
      </trkpt>
      <trkpt lat="44.17428" lon="5.50533">
        <ele>1145</ele>
        <time>2019-06-17T09:26:49Z</time>
      </trkpt>
      <trkpt lat="44.17429" lon="5.50528">
        <ele>1145</ele>
        <time>2019-06-17T09:26:50Z</time>
      </trkpt>
      <trkpt lat="44.17428" lon="5.50524">
        <ele>1145</ele>
        <time>2019-06-17T09:26:51Z</time>
      </trkpt>
      <trkpt lat="44.17429" lon="5.5052">
        <ele>1145</ele>
        <time>2019-06-17T09:26:52Z</time>
      </trkpt>
      <trkpt lat="44.17427" lon="5.50517">
        <ele>1145</ele>
        <time>2019-06-17T09:26:53Z</time>
      </trkpt>
      <trkpt lat="44.17425" lon="5.50513">
        <ele>1145</ele>
        <time>2019-06-17T09:26:54Z</time>
      </trkpt>
      <trkpt lat="44.17424" lon="5.50509">
        <ele>1145</ele>
        <time>2019-06-17T09:26:55Z</time>
      </trkpt>
      <trkpt lat="44.17424" lon="5.50504">
        <ele>1145</ele>
        <time>2019-06-17T09:26:56Z</time>
      </trkpt>
      <trkpt lat="44.17424" lon="5.50499">
        <ele>1145</ele>
        <time>2019-06-17T09:26:57Z</time>
      </trkpt>
      <trkpt lat="44.17424" lon="5.50495">
        <ele>1145</ele>
        <time>2019-06-17T09:26:58Z</time>
      </trkpt>
      <trkpt lat="44.17423" lon="5.50491">
        <ele>1145</ele>
        <time>2019-06-17T09:26:59Z</time>
      </trkpt>
      <trkpt lat="44.17424" lon="5.50486">
        <ele>1145</ele>
        <time>2019-06-17T09:27:00Z</time>
      </trkpt>
      <trkpt lat="44.17424" lon="5.5048">
        <ele>1145</ele>
        <time>2019-06-17T09:27:01Z</time>
      </trkpt>
      <trkpt lat="44.17424" lon="5.50476">
        <ele>1145</ele>
        <time>2019-06-17T09:27:02Z</time>
      </trkpt>
      <trkpt lat="44.17424" lon="5.50471">
        <ele>1146</ele>
        <time>2019-06-17T09:27:03Z</time>
      </trkpt>
      <trkpt lat="44.17424" lon="5.50466">
        <ele>1146</ele>
        <time>2019-06-17T09:27:04Z</time>
      </trkpt>
      <trkpt lat="44.17423" lon="5.50461">
        <ele>1146</ele>
        <time>2019-06-17T09:27:05Z</time>
      </trkpt>
      <trkpt lat="44.17423" lon="5.50456">
        <ele>1146</ele>
        <time>2019-06-17T09:27:06Z</time>
      </trkpt>
      <trkpt lat="44.17422" lon="5.50451">
        <ele>1146</ele>
        <time>2019-06-17T09:27:07Z</time>
      </trkpt>
      <trkpt lat="44.17421" lon="5.50446">
        <ele>1146</ele>
        <time>2019-06-17T09:27:08Z</time>
      </trkpt>
      <trkpt lat="44.17421" lon="5.50442">
        <ele>1146</ele>
        <time>2019-06-17T09:27:09Z</time>
      </trkpt>
      <trkpt lat="44.1742" lon="5.50437">
        <ele>1146</ele>
        <time>2019-06-17T09:27:10Z</time>
      </trkpt>
      <trkpt lat="44.1742" lon="5.50432">
        <ele>1146</ele>
        <time>2019-06-17T09:27:11Z</time>
      </trkpt>
      <trkpt lat="44.17419" lon="5.50428">
        <ele>1146</ele>
        <time>2019-06-17T09:27:12Z</time>
      </trkpt>
      <trkpt lat="44.17418" lon="5.50424">
        <ele>1146</ele>
        <time>2019-06-17T09:27:13Z</time>
      </trkpt>
      <trkpt lat="44.17418" lon="5.5042">
        <ele>1146</ele>
        <time>2019-06-17T09:27:14Z</time>
      </trkpt>
      <trkpt lat="44.17417" lon="5.50416">
        <ele>1146</ele>
        <time>2019-06-17T09:27:15Z</time>
      </trkpt>
      <trkpt lat="44.17416" lon="5.50413">
        <ele>1146</ele>
        <time>2019-06-17T09:27:16Z</time>
      </trkpt>
      <trkpt lat="44.17417" lon="5.50409">
        <ele>1146</ele>
        <time>2019-06-17T09:27:17Z</time>
      </trkpt>
      <trkpt lat="44.17415" lon="5.50405">
        <ele>1146</ele>
        <time>2019-06-17T09:27:18Z</time>
      </trkpt>
      <trkpt lat="44.17414" lon="5.50402">
        <ele>1146</ele>
        <time>2019-06-17T09:27:19Z</time>
      </trkpt>
      <trkpt lat="44.17414" lon="5.50397">
        <ele>1146</ele>
        <time>2019-06-17T09:27:20Z</time>
      </trkpt>
      <trkpt lat="44.17413" lon="5.50393">
        <ele>1146</ele>
        <time>2019-06-17T09:27:21Z</time>
      </trkpt>
      <trkpt lat="44.17412" lon="5.50388">
        <ele>1147</ele>
        <time>2019-06-17T09:27:22Z</time>
      </trkpt>
      <trkpt lat="44.17412" lon="5.50384">
        <ele>1147</ele>
        <time>2019-06-17T09:27:23Z</time>
      </trkpt>
      <trkpt lat="44.17411" lon="5.5038">
        <ele>1148</ele>
        <time>2019-06-17T09:27:24Z</time>
      </trkpt>
      <trkpt lat="44.17411" lon="5.50376">
        <ele>1149</ele>
        <time>2019-06-17T09:27:25Z</time>
      </trkpt>
      <trkpt lat="44.17411" lon="5.50372">
        <ele>1149</ele>
        <time>2019-06-17T09:27:26Z</time>
      </trkpt>
      <trkpt lat="44.1741" lon="5.50369">
        <ele>1149</ele>
        <time>2019-06-17T09:27:27Z</time>
      </trkpt>
      <trkpt lat="44.17409" lon="5.50364">
        <ele>1150</ele>
        <time>2019-06-17T09:27:28Z</time>
      </trkpt>
      <trkpt lat="44.17407" lon="5.50361">
        <ele>1150</ele>
        <time>2019-06-17T09:27:29Z</time>
      </trkpt>
      <trkpt lat="44.17405" lon="5.50358">
        <ele>1151</ele>
        <time>2019-06-17T09:27:30Z</time>
      </trkpt>
      <trkpt lat="44.17403" lon="5.50355">
        <ele>1151</ele>
        <time>2019-06-17T09:27:31Z</time>
      </trkpt>
      <trkpt lat="44.17402" lon="5.50351">
        <ele>1152</ele>
        <time>2019-06-17T09:27:32Z</time>
      </trkpt>
      <trkpt lat="44.17402" lon="5.50346">
        <ele>1152</ele>
        <time>2019-06-17T09:27:33Z</time>
      </trkpt>
      <trkpt lat="44.17401" lon="5.50341">
        <ele>1153</ele>
        <time>2019-06-17T09:27:34Z</time>
      </trkpt>
      <trkpt lat="44.174" lon="5.50337">
        <ele>1153</ele>
        <time>2019-06-17T09:27:35Z</time>
      </trkpt>
      <trkpt lat="44.17398" lon="5.50332">
        <ele>1153</ele>
        <time>2019-06-17T09:27:36Z</time>
      </trkpt>
      <trkpt lat="44.17396" lon="5.50328">
        <ele>1153</ele>
        <time>2019-06-17T09:27:37Z</time>
      </trkpt>
      <trkpt lat="44.17395" lon="5.50324">
        <ele>1154</ele>
        <time>2019-06-17T09:27:38Z</time>
      </trkpt>
      <trkpt lat="44.17394" lon="5.50319">
        <ele>1155</ele>
        <time>2019-06-17T09:27:39Z</time>
      </trkpt>
      <trkpt lat="44.17393" lon="5.50316">
        <ele>1155</ele>
        <time>2019-06-17T09:27:40Z</time>
      </trkpt>
      <trkpt lat="44.17392" lon="5.50312">
        <ele>1155</ele>
        <time>2019-06-17T09:27:41Z</time>
      </trkpt>
      <trkpt lat="44.1739" lon="5.50308">
        <ele>1156</ele>
        <time>2019-06-17T09:27:42Z</time>
      </trkpt>
      <trkpt lat="44.17389" lon="5.50305">
        <ele>1156</ele>
        <time>2019-06-17T09:27:43Z</time>
      </trkpt>
      <trkpt lat="44.17387" lon="5.50301">
        <ele>1157</ele>
        <time>2019-06-17T09:27:44Z</time>
      </trkpt>
      <trkpt lat="44.17385" lon="5.50298">
        <ele>1158</ele>
        <time>2019-06-17T09:27:45Z</time>
      </trkpt>
      <trkpt lat="44.17384" lon="5.50295">
        <ele>1158</ele>
        <time>2019-06-17T09:27:46Z</time>
      </trkpt>
      <trkpt lat="44.17382" lon="5.50291">
        <ele>1158</ele>
        <time>2019-06-17T09:27:47Z</time>
      </trkpt>
      <trkpt lat="44.17381" lon="5.50287">
        <ele>1158</ele>
        <time>2019-06-17T09:27:48Z</time>
      </trkpt>
      <trkpt lat="44.1738" lon="5.50284">
        <ele>1158</ele>
        <time>2019-06-17T09:27:49Z</time>
      </trkpt>
      <trkpt lat="44.17379" lon="5.5028">
        <ele>1158</ele>
        <time>2019-06-17T09:27:50Z</time>
      </trkpt>
      <trkpt lat="44.17379" lon="5.50277">
        <ele>1158</ele>
        <time>2019-06-17T09:27:51Z</time>
      </trkpt>
      <trkpt lat="44.17377" lon="5.50273">
        <ele>1158</ele>
        <time>2019-06-17T09:27:52Z</time>
      </trkpt>
      <trkpt lat="44.17376" lon="5.50269">
        <ele>1158</ele>
        <time>2019-06-17T09:27:53Z</time>
      </trkpt>
      <trkpt lat="44.17375" lon="5.50265">
        <ele>1158</ele>
        <time>2019-06-17T09:27:54Z</time>
      </trkpt>
      <trkpt lat="44.17374" lon="5.50261">
        <ele>1158</ele>
        <time>2019-06-17T09:27:55Z</time>
      </trkpt>
      <trkpt lat="44.17372" lon="5.50258">
        <ele>1158</ele>
        <time>2019-06-17T09:27:56Z</time>
      </trkpt>
      <trkpt lat="44.17371" lon="5.50254">
        <ele>1158</ele>
        <time>2019-06-17T09:27:57Z</time>
      </trkpt>
      <trkpt lat="44.17369" lon="5.5025">
        <ele>1158</ele>
        <time>2019-06-17T09:27:58Z</time>
      </trkpt>
      <trkpt lat="44.17367" lon="5.50247">
        <ele>1158</ele>
        <time>2019-06-17T09:27:59Z</time>
      </trkpt>
      <trkpt lat="44.17366" lon="5.50243">
        <ele>1157</ele>
        <time>2019-06-17T09:28:00Z</time>
      </trkpt>
      <trkpt lat="44.17365" lon="5.5024">
        <ele>1157</ele>
        <time>2019-06-17T09:28:01Z</time>
      </trkpt>
      <trkpt lat="44.17363" lon="5.50236">
        <ele>1156</ele>
        <time>2019-06-17T09:28:02Z</time>
      </trkpt>
      <trkpt lat="44.17362" lon="5.50232">
        <ele>1156</ele>
        <time>2019-06-17T09:28:03Z</time>
      </trkpt>
      <trkpt lat="44.1736" lon="5.50228">
        <ele>1155</ele>
        <time>2019-06-17T09:28:04Z</time>
      </trkpt>
      <trkpt lat="44.17358" lon="5.50224">
        <ele>1155</ele>
        <time>2019-06-17T09:28:05Z</time>
      </trkpt>
      <trkpt lat="44.17357" lon="5.5022">
        <ele>1155</ele>
        <time>2019-06-17T09:28:06Z</time>
      </trkpt>
      <trkpt lat="44.17355" lon="5.50216">
        <ele>1155</ele>
        <time>2019-06-17T09:28:07Z</time>
      </trkpt>
      <trkpt lat="44.17354" lon="5.50213">
        <ele>1155</ele>
        <time>2019-06-17T09:28:08Z</time>
      </trkpt>
      <trkpt lat="44.17352" lon="5.50209">
        <ele>1155</ele>
        <time>2019-06-17T09:28:09Z</time>
      </trkpt>
      <trkpt lat="44.1735" lon="5.50206">
        <ele>1155</ele>
        <time>2019-06-17T09:28:10Z</time>
      </trkpt>
      <trkpt lat="44.17348" lon="5.50202">
        <ele>1155</ele>
        <time>2019-06-17T09:28:11Z</time>
      </trkpt>
      <trkpt lat="44.17347" lon="5.50198">
        <ele>1155</ele>
        <time>2019-06-17T09:28:12Z</time>
      </trkpt>
      <trkpt lat="44.17345" lon="5.50194">
        <ele>1155</ele>
        <time>2019-06-17T09:28:13Z</time>
      </trkpt>
      <trkpt lat="44.17342" lon="5.5019">
        <ele>1155</ele>
        <time>2019-06-17T09:28:14Z</time>
      </trkpt>
      <trkpt lat="44.1734" lon="5.50186">
        <ele>1155</ele>
        <time>2019-06-17T09:28:15Z</time>
      </trkpt>
      <trkpt lat="44.17339" lon="5.50183">
        <ele>1155</ele>
        <time>2019-06-17T09:28:16Z</time>
      </trkpt>
      <trkpt lat="44.17337" lon="5.50179">
        <ele>1155</ele>
        <time>2019-06-17T09:28:17Z</time>
      </trkpt>
      <trkpt lat="44.17336" lon="5.50175">
        <ele>1155</ele>
        <time>2019-06-17T09:28:18Z</time>
      </trkpt>
      <trkpt lat="44.17334" lon="5.50171">
        <ele>1155</ele>
        <time>2019-06-17T09:28:19Z</time>
      </trkpt>
      <trkpt lat="44.17333" lon="5.50168">
        <ele>1155</ele>
        <time>2019-06-17T09:28:20Z</time>
      </trkpt>
      <trkpt lat="44.17331" lon="5.50164">
        <ele>1155</ele>
        <time>2019-06-17T09:28:21Z</time>
      </trkpt>
      <trkpt lat="44.1733" lon="5.50161">
        <ele>1155</ele>
        <time>2019-06-17T09:28:22Z</time>
      </trkpt>
      <trkpt lat="44.17328" lon="5.50157">
        <ele>1155</ele>
        <time>2019-06-17T09:28:23Z</time>
      </trkpt>
      <trkpt lat="44.17326" lon="5.50154">
        <ele>1155</ele>
        <time>2019-06-17T09:28:24Z</time>
      </trkpt>
      <trkpt lat="44.17325" lon="5.50151">
        <ele>1155</ele>
        <time>2019-06-17T09:28:25Z</time>
      </trkpt>
      <trkpt lat="44.17323" lon="5.50148">
        <ele>1155</ele>
        <time>2019-06-17T09:28:26Z</time>
      </trkpt>
      <trkpt lat="44.17321" lon="5.50145">
        <ele>1155</ele>
        <time>2019-06-17T09:28:27Z</time>
      </trkpt>
      <trkpt lat="44.17319" lon="5.50142">
        <ele>1155</ele>
        <time>2019-06-17T09:28:28Z</time>
      </trkpt>
      <trkpt lat="44.17318" lon="5.50139">
        <ele>1155</ele>
        <time>2019-06-17T09:28:29Z</time>
      </trkpt>
      <trkpt lat="44.17316" lon="5.50135">
        <ele>1155</ele>
        <time>2019-06-17T09:28:30Z</time>
      </trkpt>
      <trkpt lat="44.17314" lon="5.50132">
        <ele>1155</ele>
        <time>2019-06-17T09:28:31Z</time>
      </trkpt>
      <trkpt lat="44.17313" lon="5.50129">
        <ele>1155</ele>
        <time>2019-06-17T09:28:32Z</time>
      </trkpt>
      <trkpt lat="44.1731" lon="5.50125">
        <ele>1155</ele>
        <time>2019-06-17T09:28:33Z</time>
      </trkpt>
      <trkpt lat="44.17309" lon="5.50121">
        <ele>1155</ele>
        <time>2019-06-17T09:28:34Z</time>
      </trkpt>
      <trkpt lat="44.17307" lon="5.50117">
        <ele>1155</ele>
        <time>2019-06-17T09:28:35Z</time>
      </trkpt>
      <trkpt lat="44.17305" lon="5.50114">
        <ele>1155</ele>
        <time>2019-06-17T09:28:36Z</time>
      </trkpt>
      <trkpt lat="44.17302" lon="5.50111">
        <ele>1155</ele>
        <time>2019-06-17T09:28:37Z</time>
      </trkpt>
      <trkpt lat="44.17301" lon="5.50107">
        <ele>1155</ele>
        <time>2019-06-17T09:28:38Z</time>
      </trkpt>
      <trkpt lat="44.17299" lon="5.50103">
        <ele>1156</ele>
        <time>2019-06-17T09:28:39Z</time>
      </trkpt>
      <trkpt lat="44.17296" lon="5.501">
        <ele>1156</ele>
        <time>2019-06-17T09:28:40Z</time>
      </trkpt>
      <trkpt lat="44.17294" lon="5.50097">
        <ele>1156</ele>
        <time>2019-06-17T09:28:41Z</time>
      </trkpt>
      <trkpt lat="44.17291" lon="5.50094">
        <ele>1156</ele>
        <time>2019-06-17T09:28:42Z</time>
      </trkpt>
      <trkpt lat="44.17289" lon="5.50091">
        <ele>1156</ele>
        <time>2019-06-17T09:28:43Z</time>
      </trkpt>
      <trkpt lat="44.17287" lon="5.50087">
        <ele>1156</ele>
        <time>2019-06-17T09:28:44Z</time>
      </trkpt>
      <trkpt lat="44.17286" lon="5.50082">
        <ele>1156</ele>
        <time>2019-06-17T09:28:45Z</time>
      </trkpt>
      <trkpt lat="44.17286" lon="5.50078">
        <ele>1156</ele>
        <time>2019-06-17T09:28:46Z</time>
      </trkpt>
      <trkpt lat="44.17284" lon="5.50074">
        <ele>1157</ele>
        <time>2019-06-17T09:28:47Z</time>
      </trkpt>
      <trkpt lat="44.17282" lon="5.5007">
        <ele>1158</ele>
        <time>2019-06-17T09:28:48Z</time>
      </trkpt>
      <trkpt lat="44.17282" lon="5.50065">
        <ele>1158</ele>
        <time>2019-06-17T09:28:49Z</time>
      </trkpt>
      <trkpt lat="44.17281" lon="5.50062">
        <ele>1159</ele>
        <time>2019-06-17T09:28:50Z</time>
      </trkpt>
      <trkpt lat="44.17281" lon="5.50058">
        <ele>1160</ele>
        <time>2019-06-17T09:28:51Z</time>
      </trkpt>
      <trkpt lat="44.17281" lon="5.50055">
        <ele>1161</ele>
        <time>2019-06-17T09:28:52Z</time>
      </trkpt>
      <trkpt lat="44.17281" lon="5.50052">
        <ele>1161</ele>
        <time>2019-06-17T09:28:53Z</time>
      </trkpt>
      <trkpt lat="44.17283" lon="5.50047">
        <ele>1162</ele>
        <time>2019-06-17T09:28:54Z</time>
      </trkpt>
      <trkpt lat="44.17283" lon="5.50043">
        <ele>1163</ele>
        <time>2019-06-17T09:28:55Z</time>
      </trkpt>
      <trkpt lat="44.17282" lon="5.50039">
        <ele>1164</ele>
        <time>2019-06-17T09:28:56Z</time>
      </trkpt>
      <trkpt lat="44.17282" lon="5.50035">
        <ele>1165</ele>
        <time>2019-06-17T09:28:57Z</time>
      </trkpt>
      <trkpt lat="44.17283" lon="5.50031">
        <ele>1166</ele>
        <time>2019-06-17T09:28:58Z</time>
      </trkpt>
      <trkpt lat="44.17283" lon="5.50027">
        <ele>1167</ele>
        <time>2019-06-17T09:28:59Z</time>
      </trkpt>
      <trkpt lat="44.17283" lon="5.50023">
        <ele>1168</ele>
        <time>2019-06-17T09:29:00Z</time>
      </trkpt>
      <trkpt lat="44.17284" lon="5.50018">
        <ele>1169</ele>
        <time>2019-06-17T09:29:01Z</time>
      </trkpt>
      <trkpt lat="44.17284" lon="5.50014">
        <ele>1170</ele>
        <time>2019-06-17T09:29:02Z</time>
      </trkpt>
      <trkpt lat="44.17285" lon="5.50009">
        <ele>1171</ele>
        <time>2019-06-17T09:29:03Z</time>
      </trkpt>
      <trkpt lat="44.17285" lon="5.50005">
        <ele>1172</ele>
        <time>2019-06-17T09:29:04Z</time>
      </trkpt>
      <trkpt lat="44.17286" lon="5.50001">
        <ele>1173</ele>
        <time>2019-06-17T09:29:05Z</time>
      </trkpt>
      <trkpt lat="44.17285" lon="5.49997">
        <ele>1174</ele>
        <time>2019-06-17T09:29:06Z</time>
      </trkpt>
      <trkpt lat="44.17282" lon="5.49995">
        <ele>1174</ele>
        <time>2019-06-17T09:29:07Z</time>
      </trkpt>
      <trkpt lat="44.17281" lon="5.49991">
        <ele>1174</ele>
        <time>2019-06-17T09:29:08Z</time>
      </trkpt>
      <trkpt lat="44.17279" lon="5.49988">
        <ele>1174</ele>
        <time>2019-06-17T09:29:09Z</time>
      </trkpt>
      <trkpt lat="44.17279" lon="5.49983">
        <ele>1174</ele>
        <time>2019-06-17T09:29:10Z</time>
      </trkpt>
      <trkpt lat="44.17279" lon="5.49979">
        <ele>1174</ele>
        <time>2019-06-17T09:29:11Z</time>
      </trkpt>
      <trkpt lat="44.17279" lon="5.49974">
        <ele>1174</ele>
        <time>2019-06-17T09:29:12Z</time>
      </trkpt>
      <trkpt lat="44.17279" lon="5.4997">
        <ele>1174</ele>
        <time>2019-06-17T09:29:13Z</time>
      </trkpt>
      <trkpt lat="44.17278" lon="5.49965">
        <ele>1174</ele>
        <time>2019-06-17T09:29:14Z</time>
      </trkpt>
      <trkpt lat="44.17279" lon="5.49961">
        <ele>1174</ele>
        <time>2019-06-17T09:29:15Z</time>
      </trkpt>
      <trkpt lat="44.17279" lon="5.49955">
        <ele>1174</ele>
        <time>2019-06-17T09:29:16Z</time>
      </trkpt>
      <trkpt lat="44.17279" lon="5.4995">
        <ele>1174</ele>
        <time>2019-06-17T09:29:17Z</time>
      </trkpt>
      <trkpt lat="44.17278" lon="5.49946">
        <ele>1174</ele>
        <time>2019-06-17T09:29:18Z</time>
      </trkpt>
      <trkpt lat="44.17277" lon="5.49942">
        <ele>1174</ele>
        <time>2019-06-17T09:29:19Z</time>
      </trkpt>
      <trkpt lat="44.17277" lon="5.49938">
        <ele>1174</ele>
        <time>2019-06-17T09:29:20Z</time>
      </trkpt>
      <trkpt lat="44.17274" lon="5.49933">
        <ele>1174</ele>
        <time>2019-06-17T09:29:21Z</time>
      </trkpt>
      <trkpt lat="44.17273" lon="5.49929">
        <ele>1174</ele>
        <time>2019-06-17T09:29:22Z</time>
      </trkpt>
      <trkpt lat="44.17272" lon="5.49925">
        <ele>1174</ele>
        <time>2019-06-17T09:29:23Z</time>
      </trkpt>
      <trkpt lat="44.17271" lon="5.49921">
        <ele>1174</ele>
        <time>2019-06-17T09:29:24Z</time>
      </trkpt>
      <trkpt lat="44.1727" lon="5.49916">
        <ele>1174</ele>
        <time>2019-06-17T09:29:25Z</time>
      </trkpt>
      <trkpt lat="44.17268" lon="5.49912">
        <ele>1174</ele>
        <time>2019-06-17T09:29:26Z</time>
      </trkpt>
      <trkpt lat="44.17267" lon="5.49907">
        <ele>1174</ele>
        <time>2019-06-17T09:29:27Z</time>
      </trkpt>
      <trkpt lat="44.17266" lon="5.49903">
        <ele>1174</ele>
        <time>2019-06-17T09:29:28Z</time>
      </trkpt>
      <trkpt lat="44.17265" lon="5.49899">
        <ele>1174</ele>
        <time>2019-06-17T09:29:29Z</time>
      </trkpt>
      <trkpt lat="44.17263" lon="5.49895">
        <ele>1174</ele>
        <time>2019-06-17T09:29:30Z</time>
      </trkpt>
      <trkpt lat="44.17263" lon="5.49891">
        <ele>1174</ele>
        <time>2019-06-17T09:29:31Z</time>
      </trkpt>
      <trkpt lat="44.17261" lon="5.49887">
        <ele>1174</ele>
        <time>2019-06-17T09:29:32Z</time>
      </trkpt>
      <trkpt lat="44.1726" lon="5.49883">
        <ele>1174</ele>
        <time>2019-06-17T09:29:33Z</time>
      </trkpt>
      <trkpt lat="44.17258" lon="5.49879">
        <ele>1174</ele>
        <time>2019-06-17T09:29:34Z</time>
      </trkpt>
      <trkpt lat="44.17257" lon="5.49875">
        <ele>1174</ele>
        <time>2019-06-17T09:29:35Z</time>
      </trkpt>
      <trkpt lat="44.17256" lon="5.49871">
        <ele>1174</ele>
        <time>2019-06-17T09:29:36Z</time>
      </trkpt>
      <trkpt lat="44.17255" lon="5.49867">
        <ele>1174</ele>
        <time>2019-06-17T09:29:37Z</time>
      </trkpt>
      <trkpt lat="44.17253" lon="5.49863">
        <ele>1174</ele>
        <time>2019-06-17T09:29:38Z</time>
      </trkpt>
      <trkpt lat="44.17252" lon="5.4986">
        <ele>1174</ele>
        <time>2019-06-17T09:29:39Z</time>
      </trkpt>
      <trkpt lat="44.17249" lon="5.49856">
        <ele>1174</ele>
        <time>2019-06-17T09:29:40Z</time>
      </trkpt>
      <trkpt lat="44.17248" lon="5.49852">
        <ele>1174</ele>
        <time>2019-06-17T09:29:41Z</time>
      </trkpt>
      <trkpt lat="44.17247" lon="5.49848">
        <ele>1174</ele>
        <time>2019-06-17T09:29:42Z</time>
      </trkpt>
      <trkpt lat="44.17246" lon="5.49844">
        <ele>1174</ele>
        <time>2019-06-17T09:29:43Z</time>
      </trkpt>
      <trkpt lat="44.17244" lon="5.4984">
        <ele>1174</ele>
        <time>2019-06-17T09:29:44Z</time>
      </trkpt>
      <trkpt lat="44.17243" lon="5.49837">
        <ele>1174</ele>
        <time>2019-06-17T09:29:45Z</time>
      </trkpt>
      <trkpt lat="44.17241" lon="5.49833">
        <ele>1174</ele>
        <time>2019-06-17T09:29:46Z</time>
      </trkpt>
      <trkpt lat="44.17239" lon="5.4983">
        <ele>1174</ele>
        <time>2019-06-17T09:29:47Z</time>
      </trkpt>
      <trkpt lat="44.17238" lon="5.49827">
        <ele>1174</ele>
        <time>2019-06-17T09:29:48Z</time>
      </trkpt>
      <trkpt lat="44.17237" lon="5.49824">
        <ele>1174</ele>
        <time>2019-06-17T09:29:49Z</time>
      </trkpt>
      <trkpt lat="44.17236" lon="5.49821">
        <ele>1174</ele>
        <time>2019-06-17T09:29:50Z</time>
      </trkpt>
      <trkpt lat="44.17235" lon="5.49818">
        <ele>1174</ele>
        <time>2019-06-17T09:29:51Z</time>
      </trkpt>
      <trkpt lat="44.17233" lon="5.49815">
        <ele>1174</ele>
        <time>2019-06-17T09:29:52Z</time>
      </trkpt>
      <trkpt lat="44.17231" lon="5.49811">
        <ele>1174</ele>
        <time>2019-06-17T09:29:53Z</time>
      </trkpt>
      <trkpt lat="44.17229" lon="5.49808">
        <ele>1174</ele>
        <time>2019-06-17T09:29:54Z</time>
      </trkpt>
      <trkpt lat="44.17226" lon="5.49805">
        <ele>1174</ele>
        <time>2019-06-17T09:29:55Z</time>
      </trkpt>
      <trkpt lat="44.17224" lon="5.49802">
        <ele>1174</ele>
        <time>2019-06-17T09:29:56Z</time>
      </trkpt>
      <trkpt lat="44.17222" lon="5.49799">
        <ele>1174</ele>
        <time>2019-06-17T09:29:57Z</time>
      </trkpt>
      <trkpt lat="44.17219" lon="5.49796">
        <ele>1174</ele>
        <time>2019-06-17T09:29:58Z</time>
      </trkpt>
      <trkpt lat="44.17216" lon="5.49793">
        <ele>1174</ele>
        <time>2019-06-17T09:29:59Z</time>
      </trkpt>
      <trkpt lat="44.17213" lon="5.4979">
        <ele>1174</ele>
        <time>2019-06-17T09:30:00Z</time>
      </trkpt>
      <trkpt lat="44.1721" lon="5.49787">
        <ele>1174</ele>
        <time>2019-06-17T09:30:01Z</time>
      </trkpt>
      <trkpt lat="44.17207" lon="5.49784">
        <ele>1174</ele>
        <time>2019-06-17T09:30:02Z</time>
      </trkpt>
      <trkpt lat="44.17202" lon="5.49782">
        <ele>1174</ele>
        <time>2019-06-17T09:30:03Z</time>
      </trkpt>
      <trkpt lat="44.17198" lon="5.49779">
        <ele>1174</ele>
        <time>2019-06-17T09:30:04Z</time>
      </trkpt>
      <trkpt lat="44.17194" lon="5.49777">
        <ele>1174</ele>
        <time>2019-06-17T09:30:05Z</time>
      </trkpt>
      <trkpt lat="44.1719" lon="5.49777">
        <ele>1174</ele>
        <time>2019-06-17T09:30:06Z</time>
      </trkpt>
      <trkpt lat="44.17186" lon="5.49777">
        <ele>1174</ele>
        <time>2019-06-17T09:30:07Z</time>
      </trkpt>
      <trkpt lat="44.17182" lon="5.49777">
        <ele>1174</ele>
        <time>2019-06-17T09:30:08Z</time>
      </trkpt>
      <trkpt lat="44.17178" lon="5.49779">
        <ele>1174</ele>
        <time>2019-06-17T09:30:09Z</time>
      </trkpt>
      <trkpt lat="44.17173" lon="5.49781">
        <ele>1174</ele>
        <time>2019-06-17T09:30:10Z</time>
      </trkpt>
      <trkpt lat="44.1717" lon="5.49782">
        <ele>1174</ele>
        <time>2019-06-17T09:30:11Z</time>
      </trkpt>
      <trkpt lat="44.17167" lon="5.49785">
        <ele>1174</ele>
        <time>2019-06-17T09:30:12Z</time>
      </trkpt>
      <trkpt lat="44.17164" lon="5.49787">
        <ele>1174</ele>
        <time>2019-06-17T09:30:13Z</time>
      </trkpt>
      <trkpt lat="44.17161" lon="5.4979">
        <ele>1174</ele>
        <time>2019-06-17T09:30:14Z</time>
      </trkpt>
      <trkpt lat="44.17157" lon="5.49793">
        <ele>1174</ele>
        <time>2019-06-17T09:30:15Z</time>
      </trkpt>
      <trkpt lat="44.17153" lon="5.49797">
        <ele>1174</ele>
        <time>2019-06-17T09:30:16Z</time>
      </trkpt>
      <trkpt lat="44.1715" lon="5.498">
        <ele>1174</ele>
        <time>2019-06-17T09:30:17Z</time>
      </trkpt>
      <trkpt lat="44.17147" lon="5.49803">
        <ele>1173</ele>
        <time>2019-06-17T09:30:18Z</time>
      </trkpt>
      <trkpt lat="44.17144" lon="5.49806">
        <ele>1173</ele>
        <time>2019-06-17T09:30:19Z</time>
      </trkpt>
      <trkpt lat="44.1714" lon="5.4981">
        <ele>1172</ele>
        <time>2019-06-17T09:30:20Z</time>
      </trkpt>
      <trkpt lat="44.17137" lon="5.49813">
        <ele>1172</ele>
        <time>2019-06-17T09:30:21Z</time>
      </trkpt>
      <trkpt lat="44.17134" lon="5.49816">
        <ele>1171</ele>
        <time>2019-06-17T09:30:22Z</time>
      </trkpt>
      <trkpt lat="44.1713" lon="5.49819">
        <ele>1171</ele>
        <time>2019-06-17T09:30:23Z</time>
      </trkpt>
      <trkpt lat="44.17127" lon="5.49821">
        <ele>1170</ele>
        <time>2019-06-17T09:30:24Z</time>
      </trkpt>
      <trkpt lat="44.17123" lon="5.49824">
        <ele>1170</ele>
        <time>2019-06-17T09:30:25Z</time>
      </trkpt>
      <trkpt lat="44.17119" lon="5.49827">
        <ele>1169</ele>
        <time>2019-06-17T09:30:26Z</time>
      </trkpt>
      <trkpt lat="44.17114" lon="5.4983">
        <ele>1169</ele>
        <time>2019-06-17T09:30:27Z</time>
      </trkpt>
      <trkpt lat="44.1711" lon="5.49833">
        <ele>1169</ele>
        <time>2019-06-17T09:30:28Z</time>
      </trkpt>
      <trkpt lat="44.17107" lon="5.49835">
        <ele>1169</ele>
        <time>2019-06-17T09:30:29Z</time>
      </trkpt>
      <trkpt lat="44.17104" lon="5.49837">
        <ele>1169</ele>
        <time>2019-06-17T09:30:30Z</time>
      </trkpt>
      <trkpt lat="44.17102" lon="5.49838">
        <ele>1169</ele>
        <time>2019-06-17T09:30:31Z</time>
      </trkpt>
      <trkpt lat="44.171" lon="5.49839">
        <ele>1168</ele>
        <time>2019-06-17T09:30:32Z</time>
      </trkpt>
      <trkpt lat="44.17094" lon="5.49842">
        <ele>1168</ele>
        <time>2019-06-17T09:30:33Z</time>
      </trkpt>
      <trkpt lat="44.17091" lon="5.49843">
        <ele>1168</ele>
        <time>2019-06-17T09:30:34Z</time>
      </trkpt>
      <trkpt lat="44.17087" lon="5.49845">
        <ele>1167</ele>
        <time>2019-06-17T09:30:35Z</time>
      </trkpt>
      <trkpt lat="44.17084" lon="5.49846">
        <ele>1167</ele>
        <time>2019-06-17T09:30:36Z</time>
      </trkpt>
      <trkpt lat="44.1708" lon="5.49845">
        <ele>1167</ele>
        <time>2019-06-17T09:30:37Z</time>
      </trkpt>
      <trkpt lat="44.17074" lon="5.49845">
        <ele>1167</ele>
        <time>2019-06-17T09:30:38Z</time>
      </trkpt>
      <trkpt lat="44.1707" lon="5.49843">
        <ele>1167</ele>
        <time>2019-06-17T09:30:39Z</time>
      </trkpt>
      <trkpt lat="44.17066" lon="5.4984">
        <ele>1167</ele>
        <time>2019-06-17T09:30:40Z</time>
      </trkpt>
      <trkpt lat="44.17062" lon="5.49835">
        <ele>1167</ele>
        <time>2019-06-17T09:30:41Z</time>
      </trkpt>
      <trkpt lat="44.17061" lon="5.49828">
        <ele>1167</ele>
        <time>2019-06-17T09:30:42Z</time>
      </trkpt>
      <trkpt lat="44.17058" lon="5.49822">
        <ele>1167</ele>
        <time>2019-06-17T09:30:43Z</time>
      </trkpt>
      <trkpt lat="44.17057" lon="5.49815">
        <ele>1167</ele>
        <time>2019-06-17T09:30:44Z</time>
      </trkpt>
      <trkpt lat="44.17055" lon="5.49808">
        <ele>1167</ele>
        <time>2019-06-17T09:30:45Z</time>
      </trkpt>
      <trkpt lat="44.17054" lon="5.49801">
        <ele>1167</ele>
        <time>2019-06-17T09:30:46Z</time>
      </trkpt>
      <trkpt lat="44.17052" lon="5.49794">
        <ele>1167</ele>
        <time>2019-06-17T09:30:47Z</time>
      </trkpt>
      <trkpt lat="44.17051" lon="5.49788">
        <ele>1167</ele>
        <time>2019-06-17T09:30:48Z</time>
      </trkpt>
      <trkpt lat="44.1705" lon="5.49782">
        <ele>1167</ele>
        <time>2019-06-17T09:30:49Z</time>
      </trkpt>
      <trkpt lat="44.17049" lon="5.49776">
        <ele>1167</ele>
        <time>2019-06-17T09:30:50Z</time>
      </trkpt>
      <trkpt lat="44.17049" lon="5.49769">
        <ele>1168</ele>
        <time>2019-06-17T09:30:51Z</time>
      </trkpt>
      <trkpt lat="44.17049" lon="5.49762">
        <ele>1169</ele>
        <time>2019-06-17T09:30:52Z</time>
      </trkpt>
      <trkpt lat="44.17049" lon="5.49756">
        <ele>1170</ele>
        <time>2019-06-17T09:30:53Z</time>
      </trkpt>
      <trkpt lat="44.17049" lon="5.49749">
        <ele>1170</ele>
        <time>2019-06-17T09:30:54Z</time>
      </trkpt>
      <trkpt lat="44.17049" lon="5.49742">
        <ele>1171</ele>
        <time>2019-06-17T09:30:55Z</time>
      </trkpt>
      <trkpt lat="44.17048" lon="5.49734">
        <ele>1171</ele>
        <time>2019-06-17T09:30:56Z</time>
      </trkpt>
      <trkpt lat="44.17047" lon="5.49726">
        <ele>1171</ele>
        <time>2019-06-17T09:30:57Z</time>
      </trkpt>
      <trkpt lat="44.17046" lon="5.49718">
        <ele>1171</ele>
        <time>2019-06-17T09:30:58Z</time>
      </trkpt>
      <trkpt lat="44.17048" lon="5.49709">
        <ele>1172</ele>
        <time>2019-06-17T09:30:59Z</time>
      </trkpt>
      <trkpt lat="44.17046" lon="5.49701">
        <ele>1172</ele>
        <time>2019-06-17T09:31:00Z</time>
      </trkpt>
      <trkpt lat="44.17044" lon="5.49694">
        <ele>1172</ele>
        <time>2019-06-17T09:31:01Z</time>
      </trkpt>
      <trkpt lat="44.17043" lon="5.49687">
        <ele>1172</ele>
        <time>2019-06-17T09:31:02Z</time>
      </trkpt>
      <trkpt lat="44.17044" lon="5.49678">
        <ele>1173</ele>
        <time>2019-06-17T09:31:03Z</time>
      </trkpt>
      <trkpt lat="44.17045" lon="5.49669">
        <ele>1173</ele>
        <time>2019-06-17T09:31:04Z</time>
      </trkpt>
      <trkpt lat="44.17046" lon="5.49659">
        <ele>1173</ele>
        <time>2019-06-17T09:31:05Z</time>
      </trkpt>
      <trkpt lat="44.17045" lon="5.4965">
        <ele>1173</ele>
        <time>2019-06-17T09:31:06Z</time>
      </trkpt>
      <trkpt lat="44.17044" lon="5.49642">
        <ele>1173</ele>
        <time>2019-06-17T09:31:07Z</time>
      </trkpt>
      <trkpt lat="44.17041" lon="5.49633">
        <ele>1173</ele>
        <time>2019-06-17T09:31:08Z</time>
      </trkpt>
      <trkpt lat="44.1704" lon="5.49625">
        <ele>1173</ele>
        <time>2019-06-17T09:31:09Z</time>
      </trkpt>
      <trkpt lat="44.17039" lon="5.49616">
        <ele>1173</ele>
        <time>2019-06-17T09:31:10Z</time>
      </trkpt>
      <trkpt lat="44.17037" lon="5.49609">
        <ele>1173</ele>
        <time>2019-06-17T09:31:11Z</time>
      </trkpt>
      <trkpt lat="44.17035" lon="5.49601">
        <ele>1173</ele>
        <time>2019-06-17T09:31:12Z</time>
      </trkpt>
      <trkpt lat="44.17032" lon="5.49594">
        <ele>1173</ele>
        <time>2019-06-17T09:31:13Z</time>
      </trkpt>
      <trkpt lat="44.17029" lon="5.49586">
        <ele>1173</ele>
        <time>2019-06-17T09:31:14Z</time>
      </trkpt>
      <trkpt lat="44.17026" lon="5.49579">
        <ele>1173</ele>
        <time>2019-06-17T09:31:15Z</time>
      </trkpt>
      <trkpt lat="44.17022" lon="5.49572">
        <ele>1173</ele>
        <time>2019-06-17T09:31:16Z</time>
      </trkpt>
      <trkpt lat="44.17019" lon="5.49565">
        <ele>1173</ele>
        <time>2019-06-17T09:31:17Z</time>
      </trkpt>
      <trkpt lat="44.17015" lon="5.49559">
        <ele>1173</ele>
        <time>2019-06-17T09:31:18Z</time>
      </trkpt>
      <trkpt lat="44.17011" lon="5.49553">
        <ele>1173</ele>
        <time>2019-06-17T09:31:19Z</time>
      </trkpt>
      <trkpt lat="44.17007" lon="5.49547">
        <ele>1173</ele>
        <time>2019-06-17T09:31:20Z</time>
      </trkpt>
      <trkpt lat="44.17003" lon="5.49542">
        <ele>1173</ele>
        <time>2019-06-17T09:31:21Z</time>
      </trkpt>
      <trkpt lat="44.16999" lon="5.49538">
        <ele>1173</ele>
        <time>2019-06-17T09:31:22Z</time>
      </trkpt>
      <trkpt lat="44.16994" lon="5.49534">
        <ele>1173</ele>
        <time>2019-06-17T09:31:23Z</time>
      </trkpt>
      <trkpt lat="44.1699" lon="5.49531">
        <ele>1173</ele>
        <time>2019-06-17T09:31:24Z</time>
      </trkpt>
      <trkpt lat="44.16985" lon="5.49529">
        <ele>1173</ele>
        <time>2019-06-17T09:31:25Z</time>
      </trkpt>
      <trkpt lat="44.1698" lon="5.49527">
        <ele>1173</ele>
        <time>2019-06-17T09:31:26Z</time>
      </trkpt>
      <trkpt lat="44.16975" lon="5.49526">
        <ele>1173</ele>
        <time>2019-06-17T09:31:27Z</time>
      </trkpt>
      <trkpt lat="44.16971" lon="5.49526">
        <ele>1174</ele>
        <time>2019-06-17T09:31:28Z</time>
      </trkpt>
      <trkpt lat="44.16967" lon="5.49525">
        <ele>1174</ele>
        <time>2019-06-17T09:31:29Z</time>
      </trkpt>
      <trkpt lat="44.16963" lon="5.49525">
        <ele>1175</ele>
        <time>2019-06-17T09:31:30Z</time>
      </trkpt>
      <trkpt lat="44.16958" lon="5.49525">
        <ele>1176</ele>
        <time>2019-06-17T09:31:31Z</time>
      </trkpt>
      <trkpt lat="44.16953" lon="5.49526">
        <ele>1176</ele>
        <time>2019-06-17T09:31:32Z</time>
      </trkpt>
      <trkpt lat="44.16949" lon="5.49526">
        <ele>1176</ele>
        <time>2019-06-17T09:31:33Z</time>
      </trkpt>
      <trkpt lat="44.16945" lon="5.49526">
        <ele>1177</ele>
        <time>2019-06-17T09:31:34Z</time>
      </trkpt>
      <trkpt lat="44.1694" lon="5.49526">
        <ele>1177</ele>
        <time>2019-06-17T09:31:35Z</time>
      </trkpt>
      <trkpt lat="44.16936" lon="5.49527">
        <ele>1177</ele>
        <time>2019-06-17T09:31:36Z</time>
      </trkpt>
      <trkpt lat="44.16931" lon="5.49527">
        <ele>1177</ele>
        <time>2019-06-17T09:31:37Z</time>
      </trkpt>
      <trkpt lat="44.16927" lon="5.49528">
        <ele>1177</ele>
        <time>2019-06-17T09:31:38Z</time>
      </trkpt>
      <trkpt lat="44.16924" lon="5.49528">
        <ele>1177</ele>
        <time>2019-06-17T09:31:39Z</time>
      </trkpt>
      <trkpt lat="44.16919" lon="5.49528">
        <ele>1177</ele>
        <time>2019-06-17T09:31:40Z</time>
      </trkpt>
      <trkpt lat="44.16914" lon="5.49529">
        <ele>1177</ele>
        <time>2019-06-17T09:31:41Z</time>
      </trkpt>
      <trkpt lat="44.16909" lon="5.4953">
        <ele>1177</ele>
        <time>2019-06-17T09:31:42Z</time>
      </trkpt>
      <trkpt lat="44.16905" lon="5.49531">
        <ele>1177</ele>
        <time>2019-06-17T09:31:43Z</time>
      </trkpt>
      <trkpt lat="44.16901" lon="5.49532">
        <ele>1177</ele>
        <time>2019-06-17T09:31:44Z</time>
      </trkpt>
      <trkpt lat="44.16896" lon="5.49533">
        <ele>1177</ele>
        <time>2019-06-17T09:31:45Z</time>
      </trkpt>
      <trkpt lat="44.16891" lon="5.49535">
        <ele>1177</ele>
        <time>2019-06-17T09:31:46Z</time>
      </trkpt>
      <trkpt lat="44.16886" lon="5.49537">
        <ele>1177</ele>
        <time>2019-06-17T09:31:47Z</time>
      </trkpt>
      <trkpt lat="44.16882" lon="5.49538">
        <ele>1177</ele>
        <time>2019-06-17T09:31:48Z</time>
      </trkpt>
      <trkpt lat="44.16877" lon="5.4954">
        <ele>1177</ele>
        <time>2019-06-17T09:31:49Z</time>
      </trkpt>
      <trkpt lat="44.16872" lon="5.49541">
        <ele>1177</ele>
        <time>2019-06-17T09:31:50Z</time>
      </trkpt>
      <trkpt lat="44.16868" lon="5.49542">
        <ele>1177</ele>
        <time>2019-06-17T09:31:51Z</time>
      </trkpt>
      <trkpt lat="44.16865" lon="5.49543">
        <ele>1177</ele>
        <time>2019-06-17T09:31:52Z</time>
      </trkpt>
      <trkpt lat="44.1686" lon="5.49544">
        <ele>1177</ele>
        <time>2019-06-17T09:31:53Z</time>
      </trkpt>
      <trkpt lat="44.16856" lon="5.49546">
        <ele>1177</ele>
        <time>2019-06-17T09:31:54Z</time>
      </trkpt>
      <trkpt lat="44.16851" lon="5.49548">
        <ele>1177</ele>
        <time>2019-06-17T09:31:55Z</time>
      </trkpt>
      <trkpt lat="44.16846" lon="5.49549">
        <ele>1177</ele>
        <time>2019-06-17T09:31:56Z</time>
      </trkpt>
      <trkpt lat="44.16843" lon="5.4955">
        <ele>1177</ele>
        <time>2019-06-17T09:31:57Z</time>
      </trkpt>
      <trkpt lat="44.16839" lon="5.49552">
        <ele>1177</ele>
        <time>2019-06-17T09:31:58Z</time>
      </trkpt>
      <trkpt lat="44.16836" lon="5.49554">
        <ele>1177</ele>
        <time>2019-06-17T09:31:59Z</time>
      </trkpt>
      <trkpt lat="44.16832" lon="5.49556">
        <ele>1177</ele>
        <time>2019-06-17T09:32:00Z</time>
      </trkpt>
      <trkpt lat="44.16827" lon="5.49558">
        <ele>1177</ele>
        <time>2019-06-17T09:32:01Z</time>
      </trkpt>
      <trkpt lat="44.16823" lon="5.49559">
        <ele>1177</ele>
        <time>2019-06-17T09:32:02Z</time>
      </trkpt>
      <trkpt lat="44.16818" lon="5.49562">
        <ele>1177</ele>
        <time>2019-06-17T09:32:03Z</time>
      </trkpt>
      <trkpt lat="44.16813" lon="5.49564">
        <ele>1177</ele>
        <time>2019-06-17T09:32:04Z</time>
      </trkpt>
      <trkpt lat="44.16807" lon="5.49567">
        <ele>1177</ele>
        <time>2019-06-17T09:32:05Z</time>
      </trkpt>
      <trkpt lat="44.16802" lon="5.4957">
        <ele>1177</ele>
        <time>2019-06-17T09:32:06Z</time>
      </trkpt>
      <trkpt lat="44.16797" lon="5.49573">
        <ele>1177</ele>
        <time>2019-06-17T09:32:07Z</time>
      </trkpt>
      <trkpt lat="44.16794" lon="5.49575">
        <ele>1177</ele>
        <time>2019-06-17T09:32:08Z</time>
      </trkpt>
      <trkpt lat="44.1679" lon="5.49577">
        <ele>1177</ele>
        <time>2019-06-17T09:32:09Z</time>
      </trkpt>
      <trkpt lat="44.16786" lon="5.49579">
        <ele>1177</ele>
        <time>2019-06-17T09:32:10Z</time>
      </trkpt>
      <trkpt lat="44.16783" lon="5.49581">
        <ele>1177</ele>
        <time>2019-06-17T09:32:11Z</time>
      </trkpt>
      <trkpt lat="44.1678" lon="5.49583">
        <ele>1177</ele>
        <time>2019-06-17T09:32:12Z</time>
      </trkpt>
      <trkpt lat="44.16776" lon="5.49586">
        <ele>1177</ele>
        <time>2019-06-17T09:32:13Z</time>
      </trkpt>
      <trkpt lat="44.16773" lon="5.49589">
        <ele>1177</ele>
        <time>2019-06-17T09:32:14Z</time>
      </trkpt>
      <trkpt lat="44.16769" lon="5.49593">
        <ele>1177</ele>
        <time>2019-06-17T09:32:15Z</time>
      </trkpt>
      <trkpt lat="44.16766" lon="5.49597">
        <ele>1177</ele>
        <time>2019-06-17T09:32:16Z</time>
      </trkpt>
      <trkpt lat="44.16763" lon="5.49601">
        <ele>1177</ele>
        <time>2019-06-17T09:32:17Z</time>
      </trkpt>
      <trkpt lat="44.1676" lon="5.49607">
        <ele>1177</ele>
        <time>2019-06-17T09:32:18Z</time>
      </trkpt>
      <trkpt lat="44.16757" lon="5.49612">
        <ele>1177</ele>
        <time>2019-06-17T09:32:19Z</time>
      </trkpt>
      <trkpt lat="44.16755" lon="5.49618">
        <ele>1178</ele>
        <time>2019-06-17T09:32:20Z</time>
      </trkpt>
      <trkpt lat="44.16753" lon="5.49625">
        <ele>1179</ele>
        <time>2019-06-17T09:32:21Z</time>
      </trkpt>
      <trkpt lat="44.16751" lon="5.49631">
        <ele>1179</ele>
        <time>2019-06-17T09:32:22Z</time>
      </trkpt>
      <trkpt lat="44.1675" lon="5.49638">
        <ele>1180</ele>
        <time>2019-06-17T09:32:23Z</time>
      </trkpt>
      <trkpt lat="44.16748" lon="5.49645">
        <ele>1180</ele>
        <time>2019-06-17T09:32:24Z</time>
      </trkpt>
      <trkpt lat="44.16747" lon="5.49652">
        <ele>1181</ele>
        <time>2019-06-17T09:32:25Z</time>
      </trkpt>
      <trkpt lat="44.16746" lon="5.49659">
        <ele>1181</ele>
        <time>2019-06-17T09:32:26Z</time>
      </trkpt>
      <trkpt lat="44.16745" lon="5.49666">
        <ele>1181</ele>
        <time>2019-06-17T09:32:27Z</time>
      </trkpt>
      <trkpt lat="44.16742" lon="5.49673">
        <ele>1181</ele>
        <time>2019-06-17T09:32:28Z</time>
      </trkpt>
      <trkpt lat="44.1674" lon="5.4968">
        <ele>1181</ele>
        <time>2019-06-17T09:32:29Z</time>
      </trkpt>
      <trkpt lat="44.16739" lon="5.49687">
        <ele>1181</ele>
        <time>2019-06-17T09:32:30Z</time>
      </trkpt>
      <trkpt lat="44.16737" lon="5.49693">
        <ele>1181</ele>
        <time>2019-06-17T09:32:31Z</time>
      </trkpt>
      <trkpt lat="44.16734" lon="5.49699">
        <ele>1181</ele>
        <time>2019-06-17T09:32:32Z</time>
      </trkpt>
      <trkpt lat="44.16731" lon="5.49706">
        <ele>1181</ele>
        <time>2019-06-17T09:32:33Z</time>
      </trkpt>
      <trkpt lat="44.16728" lon="5.49712">
        <ele>1182</ele>
        <time>2019-06-17T09:32:34Z</time>
      </trkpt>
      <trkpt lat="44.16724" lon="5.49717">
        <ele>1182</ele>
        <time>2019-06-17T09:32:35Z</time>
      </trkpt>
      <trkpt lat="44.16721" lon="5.49723">
        <ele>1182</ele>
        <time>2019-06-17T09:32:36Z</time>
      </trkpt>
      <trkpt lat="44.16717" lon="5.49728">
        <ele>1183</ele>
        <time>2019-06-17T09:32:37Z</time>
      </trkpt>
      <trkpt lat="44.16713" lon="5.49734">
        <ele>1183</ele>
        <time>2019-06-17T09:32:38Z</time>
      </trkpt>
      <trkpt lat="44.16708" lon="5.49738">
        <ele>1183</ele>
        <time>2019-06-17T09:32:39Z</time>
      </trkpt>
      <trkpt lat="44.16703" lon="5.49742">
        <ele>1184</ele>
        <time>2019-06-17T09:32:40Z</time>
      </trkpt>
      <trkpt lat="44.16697" lon="5.49744">
        <ele>1184</ele>
        <time>2019-06-17T09:32:41Z</time>
      </trkpt>
      <trkpt lat="44.16692" lon="5.49744">
        <ele>1184</ele>
        <time>2019-06-17T09:32:42Z</time>
      </trkpt>
      <trkpt lat="44.16686" lon="5.49741">
        <ele>1184</ele>
        <time>2019-06-17T09:32:43Z</time>
      </trkpt>
      <trkpt lat="44.16682" lon="5.49736">
        <ele>1184</ele>
        <time>2019-06-17T09:32:44Z</time>
      </trkpt>
      <trkpt lat="44.16679" lon="5.4973">
        <ele>1184</ele>
        <time>2019-06-17T09:32:45Z</time>
      </trkpt>
      <trkpt lat="44.16677" lon="5.49723">
        <ele>1184</ele>
        <time>2019-06-17T09:32:46Z</time>
      </trkpt>
      <trkpt lat="44.16675" lon="5.49717">
        <ele>1184</ele>
        <time>2019-06-17T09:32:47Z</time>
      </trkpt>
      <trkpt lat="44.16673" lon="5.49711">
        <ele>1184</ele>
        <time>2019-06-17T09:32:48Z</time>
      </trkpt>
      <trkpt lat="44.1667" lon="5.49704">
        <ele>1184</ele>
        <time>2019-06-17T09:32:49Z</time>
      </trkpt>
      <trkpt lat="44.16667" lon="5.49698">
        <ele>1184</ele>
        <time>2019-06-17T09:32:50Z</time>
      </trkpt>
      <trkpt lat="44.16664" lon="5.49691">
        <ele>1184</ele>
        <time>2019-06-17T09:32:51Z</time>
      </trkpt>
      <trkpt lat="44.16661" lon="5.49684">
        <ele>1184</ele>
        <time>2019-06-17T09:32:52Z</time>
      </trkpt>
      <trkpt lat="44.16658" lon="5.49678">
        <ele>1184</ele>
        <time>2019-06-17T09:32:53Z</time>
      </trkpt>
      <trkpt lat="44.16655" lon="5.49672">
        <ele>1184</ele>
        <time>2019-06-17T09:32:54Z</time>
      </trkpt>
      <trkpt lat="44.16651" lon="5.49665">
        <ele>1184</ele>
        <time>2019-06-17T09:32:55Z</time>
      </trkpt>
      <trkpt lat="44.16647" lon="5.49658">
        <ele>1184</ele>
        <time>2019-06-17T09:32:56Z</time>
      </trkpt>
      <trkpt lat="44.16643" lon="5.49652">
        <ele>1184</ele>
        <time>2019-06-17T09:32:57Z</time>
      </trkpt>
      <trkpt lat="44.16639" lon="5.49646">
        <ele>1184</ele>
        <time>2019-06-17T09:32:58Z</time>
      </trkpt>
      <trkpt lat="44.16634" lon="5.4964">
        <ele>1184</ele>
        <time>2019-06-17T09:32:59Z</time>
      </trkpt>
      <trkpt lat="44.1663" lon="5.49635">
        <ele>1184</ele>
        <time>2019-06-17T09:33:00Z</time>
      </trkpt>
      <trkpt lat="44.16626" lon="5.4963">
        <ele>1184</ele>
        <time>2019-06-17T09:33:01Z</time>
      </trkpt>
      <trkpt lat="44.16621" lon="5.49627">
        <ele>1184</ele>
        <time>2019-06-17T09:33:02Z</time>
      </trkpt>
      <trkpt lat="44.16616" lon="5.49623">
        <ele>1184</ele>
        <time>2019-06-17T09:33:03Z</time>
      </trkpt>
      <trkpt lat="44.1661" lon="5.4962">
        <ele>1184</ele>
        <time>2019-06-17T09:33:04Z</time>
      </trkpt>
      <trkpt lat="44.16605" lon="5.49618">
        <ele>1184</ele>
        <time>2019-06-17T09:33:05Z</time>
      </trkpt>
      <trkpt lat="44.166" lon="5.49616">
        <ele>1184</ele>
        <time>2019-06-17T09:33:06Z</time>
      </trkpt>
      <trkpt lat="44.16595" lon="5.49615">
        <ele>1185</ele>
        <time>2019-06-17T09:33:07Z</time>
      </trkpt>
      <trkpt lat="44.16589" lon="5.49614">
        <ele>1185</ele>
        <time>2019-06-17T09:33:08Z</time>
      </trkpt>
      <trkpt lat="44.16584" lon="5.49613">
        <ele>1185</ele>
        <time>2019-06-17T09:33:09Z</time>
      </trkpt>
      <trkpt lat="44.16579" lon="5.49613">
        <ele>1185</ele>
        <time>2019-06-17T09:33:10Z</time>
      </trkpt>
      <trkpt lat="44.16573" lon="5.49612">
        <ele>1186</ele>
        <time>2019-06-17T09:33:11Z</time>
      </trkpt>
      <trkpt lat="44.16568" lon="5.49611">
        <ele>1186</ele>
        <time>2019-06-17T09:33:12Z</time>
      </trkpt>
      <trkpt lat="44.16563" lon="5.4961">
        <ele>1186</ele>
        <time>2019-06-17T09:33:13Z</time>
      </trkpt>
      <trkpt lat="44.16558" lon="5.49609">
        <ele>1186</ele>
        <time>2019-06-17T09:33:14Z</time>
      </trkpt>
      <trkpt lat="44.16553" lon="5.49608">
        <ele>1187</ele>
        <time>2019-06-17T09:33:15Z</time>
      </trkpt>
      <trkpt lat="44.16549" lon="5.49609">
        <ele>1187</ele>
        <time>2019-06-17T09:33:16Z</time>
      </trkpt>
      <trkpt lat="44.16544" lon="5.49609">
        <ele>1187</ele>
        <time>2019-06-17T09:33:17Z</time>
      </trkpt>
      <trkpt lat="44.16539" lon="5.4961">
        <ele>1187</ele>
        <time>2019-06-17T09:33:18Z</time>
      </trkpt>
      <trkpt lat="44.16533" lon="5.49612">
        <ele>1187</ele>
        <time>2019-06-17T09:33:19Z</time>
      </trkpt>
      <trkpt lat="44.16527" lon="5.49613">
        <ele>1187</ele>
        <time>2019-06-17T09:33:20Z</time>
      </trkpt>
      <trkpt lat="44.16522" lon="5.49615">
        <ele>1187</ele>
        <time>2019-06-17T09:33:21Z</time>
      </trkpt>
      <trkpt lat="44.16517" lon="5.49618">
        <ele>1187</ele>
        <time>2019-06-17T09:33:22Z</time>
      </trkpt>
      <trkpt lat="44.16512" lon="5.49621">
        <ele>1187</ele>
        <time>2019-06-17T09:33:23Z</time>
      </trkpt>
      <trkpt lat="44.16507" lon="5.49624">
        <ele>1187</ele>
        <time>2019-06-17T09:33:24Z</time>
      </trkpt>
      <trkpt lat="44.16503" lon="5.49628">
        <ele>1187</ele>
        <time>2019-06-17T09:33:25Z</time>
      </trkpt>
      <trkpt lat="44.16499" lon="5.49632">
        <ele>1187</ele>
        <time>2019-06-17T09:33:26Z</time>
      </trkpt>
      <trkpt lat="44.16495" lon="5.49636">
        <ele>1187</ele>
        <time>2019-06-17T09:33:27Z</time>
      </trkpt>
      <trkpt lat="44.16491" lon="5.4964">
        <ele>1187</ele>
        <time>2019-06-17T09:33:28Z</time>
      </trkpt>
      <trkpt lat="44.16488" lon="5.49644">
        <ele>1187</ele>
        <time>2019-06-17T09:33:29Z</time>
      </trkpt>
      <trkpt lat="44.16484" lon="5.49648">
        <ele>1187</ele>
        <time>2019-06-17T09:33:30Z</time>
      </trkpt>
      <trkpt lat="44.16479" lon="5.49651">
        <ele>1187</ele>
        <time>2019-06-17T09:33:31Z</time>
      </trkpt>
      <trkpt lat="44.16475" lon="5.49655">
        <ele>1187</ele>
        <time>2019-06-17T09:33:32Z</time>
      </trkpt>
      <trkpt lat="44.16471" lon="5.49658">
        <ele>1187</ele>
        <time>2019-06-17T09:33:33Z</time>
      </trkpt>
      <trkpt lat="44.16466" lon="5.49662">
        <ele>1187</ele>
        <time>2019-06-17T09:33:34Z</time>
      </trkpt>
      <trkpt lat="44.16462" lon="5.49664">
        <ele>1187</ele>
        <time>2019-06-17T09:33:35Z</time>
      </trkpt>
      <trkpt lat="44.16458" lon="5.49667">
        <ele>1187</ele>
        <time>2019-06-17T09:33:36Z</time>
      </trkpt>
      <trkpt lat="44.16452" lon="5.49671">
        <ele>1187</ele>
        <time>2019-06-17T09:33:37Z</time>
      </trkpt>
      <trkpt lat="44.16448" lon="5.49673">
        <ele>1187</ele>
        <time>2019-06-17T09:33:38Z</time>
      </trkpt>
      <trkpt lat="44.16443" lon="5.49675">
        <ele>1187</ele>
        <time>2019-06-17T09:33:39Z</time>
      </trkpt>
      <trkpt lat="44.16438" lon="5.49677">
        <ele>1187</ele>
        <time>2019-06-17T09:33:40Z</time>
      </trkpt>
      <trkpt lat="44.16432" lon="5.49679">
        <ele>1187</ele>
        <time>2019-06-17T09:33:41Z</time>
      </trkpt>
      <trkpt lat="44.16428" lon="5.49681">
        <ele>1187</ele>
        <time>2019-06-17T09:33:42Z</time>
      </trkpt>
      <trkpt lat="44.16423" lon="5.49682">
        <ele>1187</ele>
        <time>2019-06-17T09:33:43Z</time>
      </trkpt>
      <trkpt lat="44.16418" lon="5.49683">
        <ele>1187</ele>
        <time>2019-06-17T09:33:44Z</time>
      </trkpt>
      <trkpt lat="44.16413" lon="5.49684">
        <ele>1187</ele>
        <time>2019-06-17T09:33:45Z</time>
      </trkpt>
      <trkpt lat="44.16408" lon="5.49685">
        <ele>1187</ele>
        <time>2019-06-17T09:33:46Z</time>
      </trkpt>
      <trkpt lat="44.16403" lon="5.49685">
        <ele>1187</ele>
        <time>2019-06-17T09:33:47Z</time>
      </trkpt>
      <trkpt lat="44.16399" lon="5.49685">
        <ele>1187</ele>
        <time>2019-06-17T09:33:48Z</time>
      </trkpt>
      <trkpt lat="44.16394" lon="5.49685">
        <ele>1187</ele>
        <time>2019-06-17T09:33:49Z</time>
      </trkpt>
      <trkpt lat="44.16389" lon="5.49685">
        <ele>1187</ele>
        <time>2019-06-17T09:33:50Z</time>
      </trkpt>
      <trkpt lat="44.16385" lon="5.49684">
        <ele>1187</ele>
        <time>2019-06-17T09:33:51Z</time>
      </trkpt>
      <trkpt lat="44.1638" lon="5.49684">
        <ele>1187</ele>
        <time>2019-06-17T09:33:52Z</time>
      </trkpt>
      <trkpt lat="44.16376" lon="5.49683">
        <ele>1187</ele>
        <time>2019-06-17T09:33:53Z</time>
      </trkpt>
      <trkpt lat="44.16372" lon="5.49683">
        <ele>1187</ele>
        <time>2019-06-17T09:33:54Z</time>
      </trkpt>
      <trkpt lat="44.16367" lon="5.49682">
        <ele>1187</ele>
        <time>2019-06-17T09:33:55Z</time>
      </trkpt>
      <trkpt lat="44.16363" lon="5.49681">
        <ele>1187</ele>
        <time>2019-06-17T09:33:56Z</time>
      </trkpt>
      <trkpt lat="44.16359" lon="5.4968">
        <ele>1187</ele>
        <time>2019-06-17T09:33:57Z</time>
      </trkpt>
      <trkpt lat="44.16354" lon="5.49678">
        <ele>1187</ele>
        <time>2019-06-17T09:33:58Z</time>
      </trkpt>
      <trkpt lat="44.1635" lon="5.49677">
        <ele>1187</ele>
        <time>2019-06-17T09:33:59Z</time>
      </trkpt>
      <trkpt lat="44.16346" lon="5.49676">
        <ele>1187</ele>
        <time>2019-06-17T09:34:00Z</time>
      </trkpt>
      <trkpt lat="44.16341" lon="5.49675">
        <ele>1187</ele>
        <time>2019-06-17T09:34:01Z</time>
      </trkpt>
      <trkpt lat="44.16336" lon="5.49674">
        <ele>1187</ele>
        <time>2019-06-17T09:34:02Z</time>
      </trkpt>
      <trkpt lat="44.16331" lon="5.49674">
        <ele>1187</ele>
        <time>2019-06-17T09:34:03Z</time>
      </trkpt>
      <trkpt lat="44.16327" lon="5.49673">
        <ele>1187</ele>
        <time>2019-06-17T09:34:04Z</time>
      </trkpt>
      <trkpt lat="44.16322" lon="5.49671">
        <ele>1187</ele>
        <time>2019-06-17T09:34:05Z</time>
      </trkpt>
      <trkpt lat="44.16317" lon="5.4967">
        <ele>1187</ele>
        <time>2019-06-17T09:34:06Z</time>
      </trkpt>
      <trkpt lat="44.16311" lon="5.49668">
        <ele>1187</ele>
        <time>2019-06-17T09:34:07Z</time>
      </trkpt>
      <trkpt lat="44.16307" lon="5.49667">
        <ele>1187</ele>
        <time>2019-06-17T09:34:08Z</time>
      </trkpt>
      <trkpt lat="44.16302" lon="5.49665">
        <ele>1187</ele>
        <time>2019-06-17T09:34:09Z</time>
      </trkpt>
      <trkpt lat="44.16298" lon="5.49663">
        <ele>1187</ele>
        <time>2019-06-17T09:34:10Z</time>
      </trkpt>
      <trkpt lat="44.16293" lon="5.49662">
        <ele>1187</ele>
        <time>2019-06-17T09:34:11Z</time>
      </trkpt>
      <trkpt lat="44.16288" lon="5.4966">
        <ele>1187</ele>
        <time>2019-06-17T09:34:12Z</time>
      </trkpt>
      <trkpt lat="44.16283" lon="5.49659">
        <ele>1187</ele>
        <time>2019-06-17T09:34:13Z</time>
      </trkpt>
      <trkpt lat="44.16279" lon="5.49659">
        <ele>1187</ele>
        <time>2019-06-17T09:34:14Z</time>
      </trkpt>
      <trkpt lat="44.16274" lon="5.49659">
        <ele>1187</ele>
        <time>2019-06-17T09:34:15Z</time>
      </trkpt>
      <trkpt lat="44.16269" lon="5.49659">
        <ele>1187</ele>
        <time>2019-06-17T09:34:16Z</time>
      </trkpt>
      <trkpt lat="44.16264" lon="5.4966">
        <ele>1187</ele>
        <time>2019-06-17T09:34:17Z</time>
      </trkpt>
      <trkpt lat="44.16258" lon="5.49661">
        <ele>1187</ele>
        <time>2019-06-17T09:34:18Z</time>
      </trkpt>
      <trkpt lat="44.16253" lon="5.49662">
        <ele>1187</ele>
        <time>2019-06-17T09:34:19Z</time>
      </trkpt>
      <trkpt lat="44.16249" lon="5.49665">
        <ele>1187</ele>
        <time>2019-06-17T09:34:20Z</time>
      </trkpt>
      <trkpt lat="44.16245" lon="5.49668">
        <ele>1187</ele>
        <time>2019-06-17T09:34:21Z</time>
      </trkpt>
      <trkpt lat="44.16241" lon="5.49672">
        <ele>1187</ele>
        <time>2019-06-17T09:34:22Z</time>
      </trkpt>
      <trkpt lat="44.16236" lon="5.49676">
        <ele>1187</ele>
        <time>2019-06-17T09:34:23Z</time>
      </trkpt>
      <trkpt lat="44.16231" lon="5.49679">
        <ele>1187</ele>
        <time>2019-06-17T09:34:24Z</time>
      </trkpt>
      <trkpt lat="44.16226" lon="5.49682">
        <ele>1188</ele>
        <time>2019-06-17T09:34:25Z</time>
      </trkpt>
      <trkpt lat="44.1622" lon="5.49687">
        <ele>1189</ele>
        <time>2019-06-17T09:34:26Z</time>
      </trkpt>
      <trkpt lat="44.16216" lon="5.49691">
        <ele>1190</ele>
        <time>2019-06-17T09:34:27Z</time>
      </trkpt>
      <trkpt lat="44.16211" lon="5.49697">
        <ele>1190</ele>
        <time>2019-06-17T09:34:28Z</time>
      </trkpt>
      <trkpt lat="44.16206" lon="5.497">
        <ele>1191</ele>
        <time>2019-06-17T09:34:29Z</time>
      </trkpt>
      <trkpt lat="44.16202" lon="5.49705">
        <ele>1191</ele>
        <time>2019-06-17T09:34:30Z</time>
      </trkpt>
      <trkpt lat="44.16198" lon="5.49709">
        <ele>1192</ele>
        <time>2019-06-17T09:34:31Z</time>
      </trkpt>
      <trkpt lat="44.16193" lon="5.49715">
        <ele>1192</ele>
        <time>2019-06-17T09:34:32Z</time>
      </trkpt>
      <trkpt lat="44.16189" lon="5.4972">
        <ele>1192</ele>
        <time>2019-06-17T09:34:33Z</time>
      </trkpt>
      <trkpt lat="44.16185" lon="5.49726">
        <ele>1192</ele>
        <time>2019-06-17T09:34:34Z</time>
      </trkpt>
      <trkpt lat="44.16181" lon="5.49732">
        <ele>1192</ele>
        <time>2019-06-17T09:34:35Z</time>
      </trkpt>
      <trkpt lat="44.16177" lon="5.49739">
        <ele>1193</ele>
        <time>2019-06-17T09:34:36Z</time>
      </trkpt>
      <trkpt lat="44.16173" lon="5.49745">
        <ele>1193</ele>
        <time>2019-06-17T09:34:37Z</time>
      </trkpt>
      <trkpt lat="44.16168" lon="5.4975">
        <ele>1194</ele>
        <time>2019-06-17T09:34:38Z</time>
      </trkpt>
      <trkpt lat="44.16163" lon="5.49754">
        <ele>1194</ele>
        <time>2019-06-17T09:34:39Z</time>
      </trkpt>
      <trkpt lat="44.16159" lon="5.49759">
        <ele>1194</ele>
        <time>2019-06-17T09:34:40Z</time>
      </trkpt>
      <trkpt lat="44.16156" lon="5.49764">
        <ele>1194</ele>
        <time>2019-06-17T09:34:41Z</time>
      </trkpt>
      <trkpt lat="44.16152" lon="5.4977">
        <ele>1194</ele>
        <time>2019-06-17T09:34:42Z</time>
      </trkpt>
      <trkpt lat="44.16148" lon="5.49775">
        <ele>1194</ele>
        <time>2019-06-17T09:34:43Z</time>
      </trkpt>
      <trkpt lat="44.16143" lon="5.4978">
        <ele>1194</ele>
        <time>2019-06-17T09:34:44Z</time>
      </trkpt>
      <trkpt lat="44.16138" lon="5.49785">
        <ele>1194</ele>
        <time>2019-06-17T09:34:45Z</time>
      </trkpt>
      <trkpt lat="44.16134" lon="5.4979">
        <ele>1194</ele>
        <time>2019-06-17T09:34:46Z</time>
      </trkpt>
      <trkpt lat="44.1613" lon="5.49794">
        <ele>1194</ele>
        <time>2019-06-17T09:34:47Z</time>
      </trkpt>
      <trkpt lat="44.16125" lon="5.498">
        <ele>1194</ele>
        <time>2019-06-17T09:34:48Z</time>
      </trkpt>
      <trkpt lat="44.16121" lon="5.49804">
        <ele>1194</ele>
        <time>2019-06-17T09:34:49Z</time>
      </trkpt>
      <trkpt lat="44.16117" lon="5.49808">
        <ele>1194</ele>
        <time>2019-06-17T09:34:50Z</time>
      </trkpt>
      <trkpt lat="44.16112" lon="5.49813">
        <ele>1194</ele>
        <time>2019-06-17T09:34:51Z</time>
      </trkpt>
      <trkpt lat="44.16108" lon="5.49819">
        <ele>1194</ele>
        <time>2019-06-17T09:34:52Z</time>
      </trkpt>
      <trkpt lat="44.16104" lon="5.49823">
        <ele>1194</ele>
        <time>2019-06-17T09:34:53Z</time>
      </trkpt>
      <trkpt lat="44.161" lon="5.49828">
        <ele>1194</ele>
        <time>2019-06-17T09:34:54Z</time>
      </trkpt>
      <trkpt lat="44.16095" lon="5.49833">
        <ele>1194</ele>
        <time>2019-06-17T09:34:55Z</time>
      </trkpt>
      <trkpt lat="44.16091" lon="5.49837">
        <ele>1194</ele>
        <time>2019-06-17T09:34:56Z</time>
      </trkpt>
      <trkpt lat="44.16086" lon="5.49841">
        <ele>1194</ele>
        <time>2019-06-17T09:34:57Z</time>
      </trkpt>
      <trkpt lat="44.16082" lon="5.49847">
        <ele>1194</ele>
        <time>2019-06-17T09:34:58Z</time>
      </trkpt>
      <trkpt lat="44.16078" lon="5.49852">
        <ele>1194</ele>
        <time>2019-06-17T09:34:59Z</time>
      </trkpt>
      <trkpt lat="44.16074" lon="5.49858">
        <ele>1194</ele>
        <time>2019-06-17T09:35:00Z</time>
      </trkpt>
      <trkpt lat="44.16069" lon="5.49863">
        <ele>1194</ele>
        <time>2019-06-17T09:35:01Z</time>
      </trkpt>
      <trkpt lat="44.16065" lon="5.49867">
        <ele>1194</ele>
        <time>2019-06-17T09:35:02Z</time>
      </trkpt>
      <trkpt lat="44.16061" lon="5.49872">
        <ele>1194</ele>
        <time>2019-06-17T09:35:03Z</time>
      </trkpt>
      <trkpt lat="44.16056" lon="5.49876">
        <ele>1195</ele>
        <time>2019-06-17T09:35:04Z</time>
      </trkpt>
      <trkpt lat="44.16052" lon="5.49881">
        <ele>1195</ele>
        <time>2019-06-17T09:35:05Z</time>
      </trkpt>
      <trkpt lat="44.16048" lon="5.49885">
        <ele>1195</ele>
        <time>2019-06-17T09:35:06Z</time>
      </trkpt>
      <trkpt lat="44.16044" lon="5.49888">
        <ele>1195</ele>
        <time>2019-06-17T09:35:07Z</time>
      </trkpt>
      <trkpt lat="44.1604" lon="5.49892">
        <ele>1195</ele>
        <time>2019-06-17T09:35:08Z</time>
      </trkpt>
      <trkpt lat="44.16037" lon="5.49895">
        <ele>1195</ele>
        <time>2019-06-17T09:35:09Z</time>
      </trkpt>
      <trkpt lat="44.16032" lon="5.49898">
        <ele>1195</ele>
        <time>2019-06-17T09:35:10Z</time>
      </trkpt>
      <trkpt lat="44.16028" lon="5.49901">
        <ele>1195</ele>
        <time>2019-06-17T09:35:11Z</time>
      </trkpt>
      <trkpt lat="44.16023" lon="5.49904">
        <ele>1195</ele>
        <time>2019-06-17T09:35:12Z</time>
      </trkpt>
      <trkpt lat="44.16017" lon="5.49906">
        <ele>1195</ele>
        <time>2019-06-17T09:35:13Z</time>
      </trkpt>
      <trkpt lat="44.16013" lon="5.49909">
        <ele>1195</ele>
        <time>2019-06-17T09:35:14Z</time>
      </trkpt>
      <trkpt lat="44.16008" lon="5.49912">
        <ele>1195</ele>
        <time>2019-06-17T09:35:15Z</time>
      </trkpt>
      <trkpt lat="44.16003" lon="5.49915">
        <ele>1195</ele>
        <time>2019-06-17T09:35:16Z</time>
      </trkpt>
      <trkpt lat="44.15997" lon="5.49917">
        <ele>1195</ele>
        <time>2019-06-17T09:35:17Z</time>
      </trkpt>
      <trkpt lat="44.15992" lon="5.49919">
        <ele>1195</ele>
        <time>2019-06-17T09:35:18Z</time>
      </trkpt>
      <trkpt lat="44.15987" lon="5.49923">
        <ele>1195</ele>
        <time>2019-06-17T09:35:19Z</time>
      </trkpt>
      <trkpt lat="44.15982" lon="5.49927">
        <ele>1195</ele>
        <time>2019-06-17T09:35:20Z</time>
      </trkpt>
      <trkpt lat="44.15977" lon="5.49932">
        <ele>1195</ele>
        <time>2019-06-17T09:35:21Z</time>
      </trkpt>
      <trkpt lat="44.15973" lon="5.49935">
        <ele>1195</ele>
        <time>2019-06-17T09:35:22Z</time>
      </trkpt>
      <trkpt lat="44.15968" lon="5.49937">
        <ele>1196</ele>
        <time>2019-06-17T09:35:23Z</time>
      </trkpt>
      <trkpt lat="44.15963" lon="5.49938">
        <ele>1197</ele>
        <time>2019-06-17T09:35:24Z</time>
      </trkpt>
      <trkpt lat="44.15957" lon="5.49942">
        <ele>1198</ele>
        <time>2019-06-17T09:35:25Z</time>
      </trkpt>
      <trkpt lat="44.15951" lon="5.49943">
        <ele>1198</ele>
        <time>2019-06-17T09:35:26Z</time>
      </trkpt>
      <trkpt lat="44.15945" lon="5.49945">
        <ele>1198</ele>
        <time>2019-06-17T09:35:27Z</time>
      </trkpt>
      <trkpt lat="44.15938" lon="5.49948">
        <ele>1198</ele>
        <time>2019-06-17T09:35:28Z</time>
      </trkpt>
      <trkpt lat="44.15931" lon="5.4995">
        <ele>1199</ele>
        <time>2019-06-17T09:35:29Z</time>
      </trkpt>
      <trkpt lat="44.15924" lon="5.49952">
        <ele>1199</ele>
        <time>2019-06-17T09:35:30Z</time>
      </trkpt>
      <trkpt lat="44.15918" lon="5.49953">
        <ele>1200</ele>
        <time>2019-06-17T09:35:31Z</time>
      </trkpt>
      <trkpt lat="44.15911" lon="5.49954">
        <ele>1200</ele>
        <time>2019-06-17T09:35:32Z</time>
      </trkpt>
      <trkpt lat="44.15905" lon="5.49954">
        <ele>1200</ele>
        <time>2019-06-17T09:35:33Z</time>
      </trkpt>
      <trkpt lat="44.15898" lon="5.49956">
        <ele>1201</ele>
        <time>2019-06-17T09:35:34Z</time>
      </trkpt>
      <trkpt lat="44.15892" lon="5.49958">
        <ele>1201</ele>
        <time>2019-06-17T09:35:35Z</time>
      </trkpt>
      <trkpt lat="44.15886" lon="5.49958">
        <ele>1201</ele>
        <time>2019-06-17T09:35:36Z</time>
      </trkpt>
      <trkpt lat="44.1588" lon="5.49959">
        <ele>1202</ele>
        <time>2019-06-17T09:35:37Z</time>
      </trkpt>
      <trkpt lat="44.15874" lon="5.49958">
        <ele>1203</ele>
        <time>2019-06-17T09:35:38Z</time>
      </trkpt>
      <trkpt lat="44.15868" lon="5.49957">
        <ele>1203</ele>
        <time>2019-06-17T09:35:39Z</time>
      </trkpt>
      <trkpt lat="44.15863" lon="5.49957">
        <ele>1204</ele>
        <time>2019-06-17T09:35:40Z</time>
      </trkpt>
      <trkpt lat="44.15857" lon="5.49955">
        <ele>1204</ele>
        <time>2019-06-17T09:35:41Z</time>
      </trkpt>
      <trkpt lat="44.15852" lon="5.49954">
        <ele>1204</ele>
        <time>2019-06-17T09:35:42Z</time>
      </trkpt>
      <trkpt lat="44.15847" lon="5.49953">
        <ele>1204</ele>
        <time>2019-06-17T09:35:43Z</time>
      </trkpt>
      <trkpt lat="44.15842" lon="5.4995">
        <ele>1204</ele>
        <time>2019-06-17T09:35:44Z</time>
      </trkpt>
      <trkpt lat="44.15837" lon="5.49948">
        <ele>1205</ele>
        <time>2019-06-17T09:35:45Z</time>
      </trkpt>
      <trkpt lat="44.15834" lon="5.49946">
        <ele>1205</ele>
        <time>2019-06-17T09:35:46Z</time>
      </trkpt>
      <trkpt lat="44.15829" lon="5.49943">
        <ele>1206</ele>
        <time>2019-06-17T09:35:47Z</time>
      </trkpt>
      <trkpt lat="44.15826" lon="5.49941">
        <ele>1206</ele>
        <time>2019-06-17T09:35:48Z</time>
      </trkpt>
      <trkpt lat="44.15822" lon="5.49938">
        <ele>1207</ele>
        <time>2019-06-17T09:35:49Z</time>
      </trkpt>
      <trkpt lat="44.15818" lon="5.49935">
        <ele>1208</ele>
        <time>2019-06-17T09:35:50Z</time>
      </trkpt>
      <trkpt lat="44.15815" lon="5.49932">
        <ele>1209</ele>
        <time>2019-06-17T09:35:51Z</time>
      </trkpt>
      <trkpt lat="44.15811" lon="5.49928">
        <ele>1210</ele>
        <time>2019-06-17T09:35:52Z</time>
      </trkpt>
      <trkpt lat="44.15807" lon="5.49922">
        <ele>1211</ele>
        <time>2019-06-17T09:35:53Z</time>
      </trkpt>
      <trkpt lat="44.15802" lon="5.49917">
        <ele>1211</ele>
        <time>2019-06-17T09:35:54Z</time>
      </trkpt>
      <trkpt lat="44.15799" lon="5.49911">
        <ele>1211</ele>
        <time>2019-06-17T09:35:55Z</time>
      </trkpt>
      <trkpt lat="44.15795" lon="5.49905">
        <ele>1211</ele>
        <time>2019-06-17T09:35:56Z</time>
      </trkpt>
      <trkpt lat="44.15791" lon="5.49899">
        <ele>1211</ele>
        <time>2019-06-17T09:35:57Z</time>
      </trkpt>
      <trkpt lat="44.15789" lon="5.49893">
        <ele>1211</ele>
        <time>2019-06-17T09:35:58Z</time>
      </trkpt>
      <trkpt lat="44.15785" lon="5.49888">
        <ele>1211</ele>
        <time>2019-06-17T09:35:59Z</time>
      </trkpt>
      <trkpt lat="44.15781" lon="5.49882">
        <ele>1211</ele>
        <time>2019-06-17T09:36:00Z</time>
      </trkpt>
      <trkpt lat="44.15779" lon="5.49876">
        <ele>1211</ele>
        <time>2019-06-17T09:36:01Z</time>
      </trkpt>
      <trkpt lat="44.15775" lon="5.49871">
        <ele>1211</ele>
        <time>2019-06-17T09:36:02Z</time>
      </trkpt>
      <trkpt lat="44.15772" lon="5.49865">
        <ele>1211</ele>
        <time>2019-06-17T09:36:03Z</time>
      </trkpt>
      <trkpt lat="44.15768" lon="5.4986">
        <ele>1211</ele>
        <time>2019-06-17T09:36:04Z</time>
      </trkpt>
      <trkpt lat="44.15765" lon="5.49854">
        <ele>1211</ele>
        <time>2019-06-17T09:36:05Z</time>
      </trkpt>
      <trkpt lat="44.15763" lon="5.49849">
        <ele>1211</ele>
        <time>2019-06-17T09:36:06Z</time>
      </trkpt>
      <trkpt lat="44.15762" lon="5.49843">
        <ele>1211</ele>
        <time>2019-06-17T09:36:07Z</time>
      </trkpt>
      <trkpt lat="44.15759" lon="5.49838">
        <ele>1211</ele>
        <time>2019-06-17T09:36:08Z</time>
      </trkpt>
      <trkpt lat="44.15755" lon="5.49833">
        <ele>1211</ele>
        <time>2019-06-17T09:36:09Z</time>
      </trkpt>
      <trkpt lat="44.15752" lon="5.49827">
        <ele>1211</ele>
        <time>2019-06-17T09:36:10Z</time>
      </trkpt>
      <trkpt lat="44.15748" lon="5.49823">
        <ele>1211</ele>
        <time>2019-06-17T09:36:11Z</time>
      </trkpt>
      <trkpt lat="44.15743" lon="5.49819">
        <ele>1211</ele>
        <time>2019-06-17T09:36:12Z</time>
      </trkpt>
      <trkpt lat="44.1574" lon="5.49813">
        <ele>1211</ele>
        <time>2019-06-17T09:36:13Z</time>
      </trkpt>
      <trkpt lat="44.15736" lon="5.49808">
        <ele>1211</ele>
        <time>2019-06-17T09:36:14Z</time>
      </trkpt>
      <trkpt lat="44.15733" lon="5.49803">
        <ele>1211</ele>
        <time>2019-06-17T09:36:15Z</time>
      </trkpt>
      <trkpt lat="44.15732" lon="5.49799">
        <ele>1211</ele>
        <time>2019-06-17T09:36:16Z</time>
      </trkpt>
      <trkpt lat="44.1573" lon="5.49794">
        <ele>1211</ele>
        <time>2019-06-17T09:36:17Z</time>
      </trkpt>
      <trkpt lat="44.15727" lon="5.49792">
        <ele>1211</ele>
        <time>2019-06-17T09:36:18Z</time>
      </trkpt>
      <trkpt lat="44.15725" lon="5.49789">
        <ele>1211</ele>
        <time>2019-06-17T09:36:19Z</time>
      </trkpt>
      <trkpt lat="44.15722" lon="5.49787">
        <ele>1211</ele>
        <time>2019-06-17T09:36:20Z</time>
      </trkpt>
      <trkpt lat="44.1572" lon="5.49784">
        <ele>1211</ele>
        <time>2019-06-17T09:36:21Z</time>
      </trkpt>
      <trkpt lat="44.15717" lon="5.49782">
        <ele>1211</ele>
        <time>2019-06-17T09:36:22Z</time>
      </trkpt>
      <trkpt lat="44.15715" lon="5.4978">
        <ele>1211</ele>
        <time>2019-06-17T09:36:23Z</time>
      </trkpt>
      <trkpt lat="44.15714" lon="5.49778">
        <ele>1211</ele>
        <time>2019-06-17T09:36:24Z</time>
      </trkpt>
      <trkpt lat="44.15712" lon="5.49775">
        <ele>1211</ele>
        <time>2019-06-17T09:36:25Z</time>
      </trkpt>
      <trkpt lat="44.15712" lon="5.49773">
        <ele>1211</ele>
        <time>2019-06-17T09:36:26Z</time>
      </trkpt>
      <trkpt lat="44.1571" lon="5.49773">
        <ele>1211</ele>
        <time>2019-06-17T09:36:27Z</time>
      </trkpt>
      <trkpt lat="44.15712" lon="5.49771">
        <ele>1208</ele>
        <time>2019-06-17T09:36:32Z</time>
      </trkpt>
      <trkpt lat="44.15714" lon="5.4977">
        <ele>1208</ele>
        <time>2019-06-17T09:36:33Z</time>
      </trkpt>
      <trkpt lat="44.15715" lon="5.49769">
        <ele>1208</ele>
        <time>2019-06-17T09:36:35Z</time>
      </trkpt>
      <trkpt lat="44.15714" lon="5.4977">
        <ele>1207</ele>
        <time>2019-06-17T09:36:37Z</time>
      </trkpt>
      <trkpt lat="44.15712" lon="5.49769">
        <ele>1207</ele>
        <time>2019-06-17T09:36:40Z</time>
      </trkpt>
      <trkpt lat="44.15711" lon="5.4977">
        <ele>1207</ele>
        <time>2019-06-17T09:36:45Z</time>
      </trkpt>
      <trkpt lat="44.1571" lon="5.49772">
        <ele>1207</ele>
        <time>2019-06-17T09:36:48Z</time>
      </trkpt>
      <trkpt lat="44.15705" lon="5.49786">
        <ele>1214</ele>
        <time>2019-06-17T09:36:53Z</time>
      </trkpt>
      <trkpt lat="44.15706" lon="5.49785">
        <ele>1214</ele>
        <time>2019-06-17T09:36:56Z</time>
      </trkpt>
      <trkpt lat="44.15707" lon="5.49784">
        <ele>1214</ele>
        <time>2019-06-17T09:36:58Z</time>
      </trkpt>
      <trkpt lat="44.15708" lon="5.49782">
        <ele>1212</ele>
        <time>2019-06-17T09:37:08Z</time>
      </trkpt>
      <trkpt lat="44.15708" lon="5.4978">
        <ele>1211</ele>
        <time>2019-06-17T09:37:29Z</time>
      </trkpt>
      <trkpt lat="44.1571" lon="5.4978">
        <ele>1210</ele>
        <time>2019-06-17T09:37:32Z</time>
      </trkpt>
      <trkpt lat="44.15712" lon="5.49781">
        <ele>1210</ele>
        <time>2019-06-17T09:37:34Z</time>
      </trkpt>
      <trkpt lat="44.15713" lon="5.49783">
        <ele>1210</ele>
        <time>2019-06-17T09:37:35Z</time>
      </trkpt>
      <trkpt lat="44.15714" lon="5.49785">
        <ele>1210</ele>
        <time>2019-06-17T09:37:36Z</time>
      </trkpt>
      <trkpt lat="44.15715" lon="5.49786">
        <ele>1210</ele>
        <time>2019-06-17T09:37:37Z</time>
      </trkpt>
      <trkpt lat="44.15716" lon="5.49788">
        <ele>1209</ele>
        <time>2019-06-17T09:37:38Z</time>
      </trkpt>
      <trkpt lat="44.15717" lon="5.49789">
        <ele>1209</ele>
        <time>2019-06-17T09:37:39Z</time>
      </trkpt>
      <trkpt lat="44.15719" lon="5.49791">
        <ele>1209</ele>
        <time>2019-06-17T09:37:40Z</time>
      </trkpt>
      <trkpt lat="44.15722" lon="5.49793">
        <ele>1209</ele>
        <time>2019-06-17T09:37:41Z</time>
      </trkpt>
      <trkpt lat="44.15723" lon="5.49796">
        <ele>1209</ele>
        <time>2019-06-17T09:37:42Z</time>
      </trkpt>
      <trkpt lat="44.15726" lon="5.49799">
        <ele>1209</ele>
        <time>2019-06-17T09:37:43Z</time>
      </trkpt>
      <trkpt lat="44.15729" lon="5.49803">
        <ele>1209</ele>
        <time>2019-06-17T09:37:44Z</time>
      </trkpt>
      <trkpt lat="44.15731" lon="5.49806">
        <ele>1209</ele>
        <time>2019-06-17T09:37:45Z</time>
      </trkpt>
      <trkpt lat="44.15735" lon="5.4981">
        <ele>1209</ele>
        <time>2019-06-17T09:37:46Z</time>
      </trkpt>
      <trkpt lat="44.15738" lon="5.49813">
        <ele>1209</ele>
        <time>2019-06-17T09:37:47Z</time>
      </trkpt>
      <trkpt lat="44.15741" lon="5.49816">
        <ele>1209</ele>
        <time>2019-06-17T09:37:48Z</time>
      </trkpt>
      <trkpt lat="44.15744" lon="5.49819">
        <ele>1209</ele>
        <time>2019-06-17T09:37:49Z</time>
      </trkpt>
      <trkpt lat="44.15746" lon="5.49823">
        <ele>1209</ele>
        <time>2019-06-17T09:37:50Z</time>
      </trkpt>
      <trkpt lat="44.15748" lon="5.49826">
        <ele>1209</ele>
        <time>2019-06-17T09:37:51Z</time>
      </trkpt>
      <trkpt lat="44.1575" lon="5.4983">
        <ele>1209</ele>
        <time>2019-06-17T09:37:52Z</time>
      </trkpt>
      <trkpt lat="44.15752" lon="5.49834">
        <ele>1209</ele>
        <time>2019-06-17T09:37:53Z</time>
      </trkpt>
      <trkpt lat="44.15755" lon="5.49838">
        <ele>1209</ele>
        <time>2019-06-17T09:37:54Z</time>
      </trkpt>
      <trkpt lat="44.15757" lon="5.49841">
        <ele>1209</ele>
        <time>2019-06-17T09:37:55Z</time>
      </trkpt>
      <trkpt lat="44.15759" lon="5.49844">
        <ele>1209</ele>
        <time>2019-06-17T09:37:56Z</time>
      </trkpt>
      <trkpt lat="44.15761" lon="5.49847">
        <ele>1209</ele>
        <time>2019-06-17T09:37:57Z</time>
      </trkpt>
      <trkpt lat="44.15764" lon="5.49851">
        <ele>1209</ele>
        <time>2019-06-17T09:37:58Z</time>
      </trkpt>
      <trkpt lat="44.15767" lon="5.49855">
        <ele>1209</ele>
        <time>2019-06-17T09:37:59Z</time>
      </trkpt>
      <trkpt lat="44.15768" lon="5.49859">
        <ele>1209</ele>
        <time>2019-06-17T09:38:00Z</time>
      </trkpt>
      <trkpt lat="44.1577" lon="5.49864">
        <ele>1209</ele>
        <time>2019-06-17T09:38:01Z</time>
      </trkpt>
      <trkpt lat="44.15771" lon="5.49868">
        <ele>1209</ele>
        <time>2019-06-17T09:38:02Z</time>
      </trkpt>
      <trkpt lat="44.15773" lon="5.49873">
        <ele>1209</ele>
        <time>2019-06-17T09:38:03Z</time>
      </trkpt>
      <trkpt lat="44.15776" lon="5.49877">
        <ele>1209</ele>
        <time>2019-06-17T09:38:04Z</time>
      </trkpt>
      <trkpt lat="44.15779" lon="5.49882">
        <ele>1209</ele>
        <time>2019-06-17T09:38:05Z</time>
      </trkpt>
      <trkpt lat="44.15783" lon="5.49887">
        <ele>1209</ele>
        <time>2019-06-17T09:38:06Z</time>
      </trkpt>
      <trkpt lat="44.15785" lon="5.49892">
        <ele>1209</ele>
        <time>2019-06-17T09:38:07Z</time>
      </trkpt>
      <trkpt lat="44.15788" lon="5.49897">
        <ele>1209</ele>
        <time>2019-06-17T09:38:08Z</time>
      </trkpt>
      <trkpt lat="44.1579" lon="5.49902">
        <ele>1209</ele>
        <time>2019-06-17T09:38:09Z</time>
      </trkpt>
      <trkpt lat="44.15793" lon="5.49906">
        <ele>1209</ele>
        <time>2019-06-17T09:38:10Z</time>
      </trkpt>
      <trkpt lat="44.15796" lon="5.49911">
        <ele>1209</ele>
        <time>2019-06-17T09:38:11Z</time>
      </trkpt>
      <trkpt lat="44.158" lon="5.49916">
        <ele>1209</ele>
        <time>2019-06-17T09:38:12Z</time>
      </trkpt>
      <trkpt lat="44.15803" lon="5.4992">
        <ele>1209</ele>
        <time>2019-06-17T09:38:13Z</time>
      </trkpt>
      <trkpt lat="44.15807" lon="5.49925">
        <ele>1209</ele>
        <time>2019-06-17T09:38:14Z</time>
      </trkpt>
      <trkpt lat="44.1581" lon="5.4993">
        <ele>1209</ele>
        <time>2019-06-17T09:38:15Z</time>
      </trkpt>
      <trkpt lat="44.15813" lon="5.49934">
        <ele>1209</ele>
        <time>2019-06-17T09:38:16Z</time>
      </trkpt>
      <trkpt lat="44.15816" lon="5.49938">
        <ele>1209</ele>
        <time>2019-06-17T09:38:17Z</time>
      </trkpt>
      <trkpt lat="44.1582" lon="5.49941">
        <ele>1209</ele>
        <time>2019-06-17T09:38:18Z</time>
      </trkpt>
      <trkpt lat="44.15825" lon="5.49943">
        <ele>1209</ele>
        <time>2019-06-17T09:38:19Z</time>
      </trkpt>
      <trkpt lat="44.15829" lon="5.49945">
        <ele>1209</ele>
        <time>2019-06-17T09:38:20Z</time>
      </trkpt>
      <trkpt lat="44.15833" lon="5.49948">
        <ele>1209</ele>
        <time>2019-06-17T09:38:21Z</time>
      </trkpt>
      <trkpt lat="44.15839" lon="5.4995">
        <ele>1209</ele>
        <time>2019-06-17T09:38:22Z</time>
      </trkpt>
      <trkpt lat="44.15845" lon="5.49951">
        <ele>1209</ele>
        <time>2019-06-17T09:38:23Z</time>
      </trkpt>
      <trkpt lat="44.1585" lon="5.49953">
        <ele>1209</ele>
        <time>2019-06-17T09:38:24Z</time>
      </trkpt>
      <trkpt lat="44.15856" lon="5.49955">
        <ele>1209</ele>
        <time>2019-06-17T09:38:25Z</time>
      </trkpt>
      <trkpt lat="44.15861" lon="5.49956">
        <ele>1209</ele>
        <time>2019-06-17T09:38:26Z</time>
      </trkpt>
      <trkpt lat="44.15867" lon="5.49957">
        <ele>1209</ele>
        <time>2019-06-17T09:38:27Z</time>
      </trkpt>
      <trkpt lat="44.15873" lon="5.49958">
        <ele>1209</ele>
        <time>2019-06-17T09:38:28Z</time>
      </trkpt>
      <trkpt lat="44.15879" lon="5.49959">
        <ele>1209</ele>
        <time>2019-06-17T09:38:29Z</time>
      </trkpt>
      <trkpt lat="44.15886" lon="5.49959">
        <ele>1209</ele>
        <time>2019-06-17T09:38:30Z</time>
      </trkpt>
      <trkpt lat="44.15892" lon="5.49959">
        <ele>1209</ele>
        <time>2019-06-17T09:38:31Z</time>
      </trkpt>
      <trkpt lat="44.15898" lon="5.49958">
        <ele>1209</ele>
        <time>2019-06-17T09:38:32Z</time>
      </trkpt>
      <trkpt lat="44.15904" lon="5.49957">
        <ele>1209</ele>
        <time>2019-06-17T09:38:33Z</time>
      </trkpt>
      <trkpt lat="44.1591" lon="5.49956">
        <ele>1209</ele>
        <time>2019-06-17T09:38:34Z</time>
      </trkpt>
      <trkpt lat="44.15915" lon="5.49955">
        <ele>1209</ele>
        <time>2019-06-17T09:38:35Z</time>
      </trkpt>
      <trkpt lat="44.15921" lon="5.49954">
        <ele>1209</ele>
        <time>2019-06-17T09:38:36Z</time>
      </trkpt>
      <trkpt lat="44.15926" lon="5.49954">
        <ele>1209</ele>
        <time>2019-06-17T09:38:37Z</time>
      </trkpt>
      <trkpt lat="44.15931" lon="5.49953">
        <ele>1209</ele>
        <time>2019-06-17T09:38:38Z</time>
      </trkpt>
      <trkpt lat="44.15937" lon="5.49951">
        <ele>1209</ele>
        <time>2019-06-17T09:38:39Z</time>
      </trkpt>
      <trkpt lat="44.15942" lon="5.49949">
        <ele>1209</ele>
        <time>2019-06-17T09:38:40Z</time>
      </trkpt>
      <trkpt lat="44.15947" lon="5.49947">
        <ele>1209</ele>
        <time>2019-06-17T09:38:41Z</time>
      </trkpt>
      <trkpt lat="44.15952" lon="5.49945">
        <ele>1209</ele>
        <time>2019-06-17T09:38:42Z</time>
      </trkpt>
      <trkpt lat="44.15957" lon="5.49943">
        <ele>1209</ele>
        <time>2019-06-17T09:38:43Z</time>
      </trkpt>
      <trkpt lat="44.15962" lon="5.49942">
        <ele>1209</ele>
        <time>2019-06-17T09:38:44Z</time>
      </trkpt>
      <trkpt lat="44.15967" lon="5.49939">
        <ele>1209</ele>
        <time>2019-06-17T09:38:45Z</time>
      </trkpt>
      <trkpt lat="44.15971" lon="5.49937">
        <ele>1209</ele>
        <time>2019-06-17T09:38:46Z</time>
      </trkpt>
      <trkpt lat="44.15976" lon="5.49934">
        <ele>1209</ele>
        <time>2019-06-17T09:38:47Z</time>
      </trkpt>
      <trkpt lat="44.15981" lon="5.49931">
        <ele>1209</ele>
        <time>2019-06-17T09:38:48Z</time>
      </trkpt>
      <trkpt lat="44.15986" lon="5.49928">
        <ele>1209</ele>
        <time>2019-06-17T09:38:49Z</time>
      </trkpt>
      <trkpt lat="44.15991" lon="5.49925">
        <ele>1209</ele>
        <time>2019-06-17T09:38:50Z</time>
      </trkpt>
      <trkpt lat="44.15997" lon="5.49922">
        <ele>1209</ele>
        <time>2019-06-17T09:38:51Z</time>
      </trkpt>
      <trkpt lat="44.16002" lon="5.49919">
        <ele>1209</ele>
        <time>2019-06-17T09:38:52Z</time>
      </trkpt>
      <trkpt lat="44.16007" lon="5.49915">
        <ele>1209</ele>
        <time>2019-06-17T09:38:53Z</time>
      </trkpt>
      <trkpt lat="44.16011" lon="5.49912">
        <ele>1209</ele>
        <time>2019-06-17T09:38:54Z</time>
      </trkpt>
      <trkpt lat="44.16016" lon="5.49909">
        <ele>1209</ele>
        <time>2019-06-17T09:38:55Z</time>
      </trkpt>
      <trkpt lat="44.16021" lon="5.49906">
        <ele>1209</ele>
        <time>2019-06-17T09:38:56Z</time>
      </trkpt>
      <trkpt lat="44.16027" lon="5.49902">
        <ele>1209</ele>
        <time>2019-06-17T09:38:57Z</time>
      </trkpt>
      <trkpt lat="44.16032" lon="5.49899">
        <ele>1209</ele>
        <time>2019-06-17T09:38:58Z</time>
      </trkpt>
      <trkpt lat="44.16037" lon="5.49896">
        <ele>1209</ele>
        <time>2019-06-17T09:38:59Z</time>
      </trkpt>
      <trkpt lat="44.16042" lon="5.49892">
        <ele>1209</ele>
        <time>2019-06-17T09:39:00Z</time>
      </trkpt>
      <trkpt lat="44.16048" lon="5.49888">
        <ele>1209</ele>
        <time>2019-06-17T09:39:01Z</time>
      </trkpt>
      <trkpt lat="44.16053" lon="5.49883">
        <ele>1208</ele>
        <time>2019-06-17T09:39:02Z</time>
      </trkpt>
      <trkpt lat="44.16057" lon="5.49879">
        <ele>1208</ele>
        <time>2019-06-17T09:39:03Z</time>
      </trkpt>
      <trkpt lat="44.16062" lon="5.49875">
        <ele>1207</ele>
        <time>2019-06-17T09:39:04Z</time>
      </trkpt>
      <trkpt lat="44.16066" lon="5.4987">
        <ele>1207</ele>
        <time>2019-06-17T09:39:05Z</time>
      </trkpt>
      <trkpt lat="44.1607" lon="5.49865">
        <ele>1207</ele>
        <time>2019-06-17T09:39:06Z</time>
      </trkpt>
      <trkpt lat="44.16074" lon="5.49859">
        <ele>1207</ele>
        <time>2019-06-17T09:39:07Z</time>
      </trkpt>
      <trkpt lat="44.16079" lon="5.49853">
        <ele>1207</ele>
        <time>2019-06-17T09:39:08Z</time>
      </trkpt>
      <trkpt lat="44.16083" lon="5.49847">
        <ele>1207</ele>
        <time>2019-06-17T09:39:09Z</time>
      </trkpt>
      <trkpt lat="44.16088" lon="5.49841">
        <ele>1207</ele>
        <time>2019-06-17T09:39:10Z</time>
      </trkpt>
      <trkpt lat="44.16092" lon="5.49835">
        <ele>1207</ele>
        <time>2019-06-17T09:39:11Z</time>
      </trkpt>
      <trkpt lat="44.16098" lon="5.4983">
        <ele>1207</ele>
        <time>2019-06-17T09:39:12Z</time>
      </trkpt>
      <trkpt lat="44.16103" lon="5.49824">
        <ele>1207</ele>
        <time>2019-06-17T09:39:13Z</time>
      </trkpt>
      <trkpt lat="44.16106" lon="5.49818">
        <ele>1207</ele>
        <time>2019-06-17T09:39:14Z</time>
      </trkpt>
      <trkpt lat="44.16111" lon="5.49812">
        <ele>1207</ele>
        <time>2019-06-17T09:39:15Z</time>
      </trkpt>
      <trkpt lat="44.16114" lon="5.49806">
        <ele>1206</ele>
        <time>2019-06-17T09:39:16Z</time>
      </trkpt>
      <trkpt lat="44.16121" lon="5.498">
        <ele>1206</ele>
        <time>2019-06-17T09:39:17Z</time>
      </trkpt>
      <trkpt lat="44.16126" lon="5.49795">
        <ele>1205</ele>
        <time>2019-06-17T09:39:18Z</time>
      </trkpt>
      <trkpt lat="44.16131" lon="5.49789">
        <ele>1204</ele>
        <time>2019-06-17T09:39:19Z</time>
      </trkpt>
      <trkpt lat="44.16136" lon="5.49783">
        <ele>1204</ele>
        <time>2019-06-17T09:39:20Z</time>
      </trkpt>
      <trkpt lat="44.16141" lon="5.49777">
        <ele>1204</ele>
        <time>2019-06-17T09:39:21Z</time>
      </trkpt>
      <trkpt lat="44.16145" lon="5.49771">
        <ele>1204</ele>
        <time>2019-06-17T09:39:22Z</time>
      </trkpt>
      <trkpt lat="44.16151" lon="5.49766">
        <ele>1204</ele>
        <time>2019-06-17T09:39:23Z</time>
      </trkpt>
      <trkpt lat="44.16157" lon="5.49759">
        <ele>1204</ele>
        <time>2019-06-17T09:39:24Z</time>
      </trkpt>
      <trkpt lat="44.16162" lon="5.49754">
        <ele>1204</ele>
        <time>2019-06-17T09:39:25Z</time>
      </trkpt>
      <trkpt lat="44.16167" lon="5.49748">
        <ele>1204</ele>
        <time>2019-06-17T09:39:26Z</time>
      </trkpt>
      <trkpt lat="44.16173" lon="5.49742">
        <ele>1204</ele>
        <time>2019-06-17T09:39:27Z</time>
      </trkpt>
      <trkpt lat="44.16178" lon="5.49736">
        <ele>1204</ele>
        <time>2019-06-17T09:39:28Z</time>
      </trkpt>
      <trkpt lat="44.16183" lon="5.4973">
        <ele>1204</ele>
        <time>2019-06-17T09:39:29Z</time>
      </trkpt>
      <trkpt lat="44.16188" lon="5.49725">
        <ele>1204</ele>
        <time>2019-06-17T09:39:30Z</time>
      </trkpt>
      <trkpt lat="44.16193" lon="5.49719">
        <ele>1204</ele>
        <time>2019-06-17T09:39:31Z</time>
      </trkpt>
      <trkpt lat="44.16198" lon="5.49713">
        <ele>1204</ele>
        <time>2019-06-17T09:39:32Z</time>
      </trkpt>
      <trkpt lat="44.16203" lon="5.49708">
        <ele>1204</ele>
        <time>2019-06-17T09:39:33Z</time>
      </trkpt>
      <trkpt lat="44.16208" lon="5.49702">
        <ele>1204</ele>
        <time>2019-06-17T09:39:34Z</time>
      </trkpt>
      <trkpt lat="44.16212" lon="5.49696">
        <ele>1204</ele>
        <time>2019-06-17T09:39:35Z</time>
      </trkpt>
      <trkpt lat="44.16217" lon="5.49691">
        <ele>1204</ele>
        <time>2019-06-17T09:39:36Z</time>
      </trkpt>
      <trkpt lat="44.16222" lon="5.49686">
        <ele>1204</ele>
        <time>2019-06-17T09:39:37Z</time>
      </trkpt>
      <trkpt lat="44.16227" lon="5.49682">
        <ele>1204</ele>
        <time>2019-06-17T09:39:38Z</time>
      </trkpt>
      <trkpt lat="44.16232" lon="5.49678">
        <ele>1204</ele>
        <time>2019-06-17T09:39:39Z</time>
      </trkpt>
      <trkpt lat="44.16237" lon="5.49674">
        <ele>1204</ele>
        <time>2019-06-17T09:39:40Z</time>
      </trkpt>
      <trkpt lat="44.16243" lon="5.49671">
        <ele>1204</ele>
        <time>2019-06-17T09:39:41Z</time>
      </trkpt>
      <trkpt lat="44.16249" lon="5.49668">
        <ele>1203</ele>
        <time>2019-06-17T09:39:42Z</time>
      </trkpt>
      <trkpt lat="44.16256" lon="5.49667">
        <ele>1203</ele>
        <time>2019-06-17T09:39:43Z</time>
      </trkpt>
      <trkpt lat="44.16262" lon="5.49665">
        <ele>1202</ele>
        <time>2019-06-17T09:39:44Z</time>
      </trkpt>
      <trkpt lat="44.16269" lon="5.49664">
        <ele>1202</ele>
        <time>2019-06-17T09:39:45Z</time>
      </trkpt>
      <trkpt lat="44.16276" lon="5.49664">
        <ele>1201</ele>
        <time>2019-06-17T09:39:46Z</time>
      </trkpt>
      <trkpt lat="44.16283" lon="5.49666">
        <ele>1201</ele>
        <time>2019-06-17T09:39:47Z</time>
      </trkpt>
      <trkpt lat="44.1629" lon="5.49668">
        <ele>1201</ele>
        <time>2019-06-17T09:39:48Z</time>
      </trkpt>
      <trkpt lat="44.16296" lon="5.4967">
        <ele>1201</ele>
        <time>2019-06-17T09:39:49Z</time>
      </trkpt>
      <trkpt lat="44.16302" lon="5.49672">
        <ele>1201</ele>
        <time>2019-06-17T09:39:50Z</time>
      </trkpt>
      <trkpt lat="44.16309" lon="5.49674">
        <ele>1201</ele>
        <time>2019-06-17T09:39:51Z</time>
      </trkpt>
      <trkpt lat="44.16314" lon="5.49677">
        <ele>1201</ele>
        <time>2019-06-17T09:39:52Z</time>
      </trkpt>
      <trkpt lat="44.1632" lon="5.49679">
        <ele>1201</ele>
        <time>2019-06-17T09:39:53Z</time>
      </trkpt>
      <trkpt lat="44.16326" lon="5.49682">
        <ele>1201</ele>
        <time>2019-06-17T09:39:54Z</time>
      </trkpt>
      <trkpt lat="44.16332" lon="5.49683">
        <ele>1201</ele>
        <time>2019-06-17T09:39:55Z</time>
      </trkpt>
      <trkpt lat="44.16338" lon="5.49684">
        <ele>1201</ele>
        <time>2019-06-17T09:39:56Z</time>
      </trkpt>
      <trkpt lat="44.16345" lon="5.49686">
        <ele>1201</ele>
        <time>2019-06-17T09:39:57Z</time>
      </trkpt>
      <trkpt lat="44.16351" lon="5.49687">
        <ele>1201</ele>
        <time>2019-06-17T09:39:58Z</time>
      </trkpt>
      <trkpt lat="44.16357" lon="5.49688">
        <ele>1201</ele>
        <time>2019-06-17T09:39:59Z</time>
      </trkpt>
      <trkpt lat="44.16364" lon="5.49689">
        <ele>1201</ele>
        <time>2019-06-17T09:40:00Z</time>
      </trkpt>
      <trkpt lat="44.1637" lon="5.4969">
        <ele>1201</ele>
        <time>2019-06-17T09:40:01Z</time>
      </trkpt>
      <trkpt lat="44.16376" lon="5.49692">
        <ele>1201</ele>
        <time>2019-06-17T09:40:02Z</time>
      </trkpt>
      <trkpt lat="44.16383" lon="5.49692">
        <ele>1201</ele>
        <time>2019-06-17T09:40:03Z</time>
      </trkpt>
      <trkpt lat="44.1639" lon="5.49692">
        <ele>1201</ele>
        <time>2019-06-17T09:40:04Z</time>
      </trkpt>
      <trkpt lat="44.16396" lon="5.49692">
        <ele>1201</ele>
        <time>2019-06-17T09:40:05Z</time>
      </trkpt>
      <trkpt lat="44.16404" lon="5.49692">
        <ele>1201</ele>
        <time>2019-06-17T09:40:06Z</time>
      </trkpt>
      <trkpt lat="44.16411" lon="5.49691">
        <ele>1201</ele>
        <time>2019-06-17T09:40:07Z</time>
      </trkpt>
      <trkpt lat="44.16417" lon="5.49689">
        <ele>1201</ele>
        <time>2019-06-17T09:40:08Z</time>
      </trkpt>
      <trkpt lat="44.16425" lon="5.49688">
        <ele>1201</ele>
        <time>2019-06-17T09:40:09Z</time>
      </trkpt>
      <trkpt lat="44.16432" lon="5.49686">
        <ele>1201</ele>
        <time>2019-06-17T09:40:10Z</time>
      </trkpt>
      <trkpt lat="44.16439" lon="5.49683">
        <ele>1201</ele>
        <time>2019-06-17T09:40:11Z</time>
      </trkpt>
      <trkpt lat="44.16444" lon="5.4968">
        <ele>1201</ele>
        <time>2019-06-17T09:40:12Z</time>
      </trkpt>
      <trkpt lat="44.1645" lon="5.49677">
        <ele>1201</ele>
        <time>2019-06-17T09:40:13Z</time>
      </trkpt>
      <trkpt lat="44.16456" lon="5.49673">
        <ele>1201</ele>
        <time>2019-06-17T09:40:14Z</time>
      </trkpt>
      <trkpt lat="44.16463" lon="5.4967">
        <ele>1201</ele>
        <time>2019-06-17T09:40:15Z</time>
      </trkpt>
      <trkpt lat="44.16469" lon="5.49666">
        <ele>1201</ele>
        <time>2019-06-17T09:40:16Z</time>
      </trkpt>
      <trkpt lat="44.16475" lon="5.49662">
        <ele>1201</ele>
        <time>2019-06-17T09:40:17Z</time>
      </trkpt>
      <trkpt lat="44.16481" lon="5.49656">
        <ele>1201</ele>
        <time>2019-06-17T09:40:18Z</time>
      </trkpt>
      <trkpt lat="44.16486" lon="5.49651">
        <ele>1201</ele>
        <time>2019-06-17T09:40:19Z</time>
      </trkpt>
      <trkpt lat="44.16492" lon="5.49645">
        <ele>1201</ele>
        <time>2019-06-17T09:40:20Z</time>
      </trkpt>
      <trkpt lat="44.16497" lon="5.49639">
        <ele>1201</ele>
        <time>2019-06-17T09:40:21Z</time>
      </trkpt>
      <trkpt lat="44.16503" lon="5.49633">
        <ele>1201</ele>
        <time>2019-06-17T09:40:22Z</time>
      </trkpt>
      <trkpt lat="44.16509" lon="5.49627">
        <ele>1201</ele>
        <time>2019-06-17T09:40:23Z</time>
      </trkpt>
      <trkpt lat="44.16515" lon="5.49622">
        <ele>1201</ele>
        <time>2019-06-17T09:40:24Z</time>
      </trkpt>
      <trkpt lat="44.16522" lon="5.49619">
        <ele>1201</ele>
        <time>2019-06-17T09:40:25Z</time>
      </trkpt>
      <trkpt lat="44.16529" lon="5.49616">
        <ele>1201</ele>
        <time>2019-06-17T09:40:26Z</time>
      </trkpt>
      <trkpt lat="44.16536" lon="5.49615">
        <ele>1201</ele>
        <time>2019-06-17T09:40:27Z</time>
      </trkpt>
      <trkpt lat="44.16543" lon="5.49615">
        <ele>1201</ele>
        <time>2019-06-17T09:40:28Z</time>
      </trkpt>
      <trkpt lat="44.1655" lon="5.49616">
        <ele>1201</ele>
        <time>2019-06-17T09:40:29Z</time>
      </trkpt>
      <trkpt lat="44.16558" lon="5.49618">
        <ele>1201</ele>
        <time>2019-06-17T09:40:30Z</time>
      </trkpt>
      <trkpt lat="44.16565" lon="5.49619">
        <ele>1201</ele>
        <time>2019-06-17T09:40:31Z</time>
      </trkpt>
      <trkpt lat="44.16573" lon="5.49621">
        <ele>1201</ele>
        <time>2019-06-17T09:40:32Z</time>
      </trkpt>
      <trkpt lat="44.1658" lon="5.49622">
        <ele>1201</ele>
        <time>2019-06-17T09:40:33Z</time>
      </trkpt>
      <trkpt lat="44.16587" lon="5.49623">
        <ele>1201</ele>
        <time>2019-06-17T09:40:34Z</time>
      </trkpt>
      <trkpt lat="44.16594" lon="5.49625">
        <ele>1201</ele>
        <time>2019-06-17T09:40:35Z</time>
      </trkpt>
      <trkpt lat="44.16601" lon="5.49627">
        <ele>1201</ele>
        <time>2019-06-17T09:40:36Z</time>
      </trkpt>
      <trkpt lat="44.16608" lon="5.49631">
        <ele>1201</ele>
        <time>2019-06-17T09:40:37Z</time>
      </trkpt>
      <trkpt lat="44.16615" lon="5.49636">
        <ele>1201</ele>
        <time>2019-06-17T09:40:38Z</time>
      </trkpt>
      <trkpt lat="44.16621" lon="5.49642">
        <ele>1201</ele>
        <time>2019-06-17T09:40:39Z</time>
      </trkpt>
      <trkpt lat="44.16627" lon="5.49649">
        <ele>1201</ele>
        <time>2019-06-17T09:40:40Z</time>
      </trkpt>
      <trkpt lat="44.16632" lon="5.49656">
        <ele>1201</ele>
        <time>2019-06-17T09:40:41Z</time>
      </trkpt>
      <trkpt lat="44.16638" lon="5.49663">
        <ele>1201</ele>
        <time>2019-06-17T09:40:42Z</time>
      </trkpt>
      <trkpt lat="44.16643" lon="5.49671">
        <ele>1201</ele>
        <time>2019-06-17T09:40:43Z</time>
      </trkpt>
      <trkpt lat="44.16648" lon="5.49679">
        <ele>1201</ele>
        <time>2019-06-17T09:40:44Z</time>
      </trkpt>
      <trkpt lat="44.16652" lon="5.49687">
        <ele>1200</ele>
        <time>2019-06-17T09:40:45Z</time>
      </trkpt>
      <trkpt lat="44.16656" lon="5.49694">
        <ele>1200</ele>
        <time>2019-06-17T09:40:46Z</time>
      </trkpt>
      <trkpt lat="44.16661" lon="5.49702">
        <ele>1200</ele>
        <time>2019-06-17T09:40:47Z</time>
      </trkpt>
      <trkpt lat="44.16665" lon="5.49709">
        <ele>1200</ele>
        <time>2019-06-17T09:40:48Z</time>
      </trkpt>
      <trkpt lat="44.1667" lon="5.49716">
        <ele>1200</ele>
        <time>2019-06-17T09:40:49Z</time>
      </trkpt>
      <trkpt lat="44.16674" lon="5.49724">
        <ele>1200</ele>
        <time>2019-06-17T09:40:50Z</time>
      </trkpt>
      <trkpt lat="44.16677" lon="5.49731">
        <ele>1199</ele>
        <time>2019-06-17T09:40:51Z</time>
      </trkpt>
      <trkpt lat="44.16682" lon="5.49737">
        <ele>1199</ele>
        <time>2019-06-17T09:40:52Z</time>
      </trkpt>
      <trkpt lat="44.16688" lon="5.49743">
        <ele>1199</ele>
        <time>2019-06-17T09:40:53Z</time>
      </trkpt>
      <trkpt lat="44.16695" lon="5.49746">
        <ele>1199</ele>
        <time>2019-06-17T09:40:54Z</time>
      </trkpt>
      <trkpt lat="44.16701" lon="5.49747">
        <ele>1199</ele>
        <time>2019-06-17T09:40:55Z</time>
      </trkpt>
      <trkpt lat="44.16708" lon="5.49745">
        <ele>1199</ele>
        <time>2019-06-17T09:40:56Z</time>
      </trkpt>
      <trkpt lat="44.16713" lon="5.49741">
        <ele>1199</ele>
        <time>2019-06-17T09:40:57Z</time>
      </trkpt>
      <trkpt lat="44.16719" lon="5.49736">
        <ele>1199</ele>
        <time>2019-06-17T09:40:58Z</time>
      </trkpt>
      <trkpt lat="44.16724" lon="5.4973">
        <ele>1199</ele>
        <time>2019-06-17T09:40:59Z</time>
      </trkpt>
      <trkpt lat="44.16728" lon="5.49724">
        <ele>1199</ele>
        <time>2019-06-17T09:41:00Z</time>
      </trkpt>
      <trkpt lat="44.16732" lon="5.49717">
        <ele>1199</ele>
        <time>2019-06-17T09:41:01Z</time>
      </trkpt>
      <trkpt lat="44.16737" lon="5.4971">
        <ele>1199</ele>
        <time>2019-06-17T09:41:02Z</time>
      </trkpt>
      <trkpt lat="44.1674" lon="5.49703">
        <ele>1199</ele>
        <time>2019-06-17T09:41:03Z</time>
      </trkpt>
      <trkpt lat="44.16744" lon="5.49695">
        <ele>1199</ele>
        <time>2019-06-17T09:41:04Z</time>
      </trkpt>
      <trkpt lat="44.16747" lon="5.49687">
        <ele>1199</ele>
        <time>2019-06-17T09:41:05Z</time>
      </trkpt>
      <trkpt lat="44.16749" lon="5.49677">
        <ele>1199</ele>
        <time>2019-06-17T09:41:06Z</time>
      </trkpt>
      <trkpt lat="44.16752" lon="5.49668">
        <ele>1199</ele>
        <time>2019-06-17T09:41:07Z</time>
      </trkpt>
      <trkpt lat="44.16754" lon="5.49659">
        <ele>1199</ele>
        <time>2019-06-17T09:41:08Z</time>
      </trkpt>
      <trkpt lat="44.16756" lon="5.4965">
        <ele>1199</ele>
        <time>2019-06-17T09:41:09Z</time>
      </trkpt>
      <trkpt lat="44.16759" lon="5.4964">
        <ele>1198</ele>
        <time>2019-06-17T09:41:10Z</time>
      </trkpt>
      <trkpt lat="44.16761" lon="5.4963">
        <ele>1197</ele>
        <time>2019-06-17T09:41:11Z</time>
      </trkpt>
      <trkpt lat="44.16764" lon="5.49621">
        <ele>1196</ele>
        <time>2019-06-17T09:41:12Z</time>
      </trkpt>
      <trkpt lat="44.16767" lon="5.49612">
        <ele>1195</ele>
        <time>2019-06-17T09:41:13Z</time>
      </trkpt>
      <trkpt lat="44.16771" lon="5.49603">
        <ele>1194</ele>
        <time>2019-06-17T09:41:14Z</time>
      </trkpt>
      <trkpt lat="44.16775" lon="5.49595">
        <ele>1193</ele>
        <time>2019-06-17T09:41:15Z</time>
      </trkpt>
      <trkpt lat="44.16781" lon="5.49588">
        <ele>1192</ele>
        <time>2019-06-17T09:41:16Z</time>
      </trkpt>
      <trkpt lat="44.16787" lon="5.49583">
        <ele>1191</ele>
        <time>2019-06-17T09:41:17Z</time>
      </trkpt>
      <trkpt lat="44.16793" lon="5.49579">
        <ele>1190</ele>
        <time>2019-06-17T09:41:18Z</time>
      </trkpt>
      <trkpt lat="44.16798" lon="5.49574">
        <ele>1189</ele>
        <time>2019-06-17T09:41:19Z</time>
      </trkpt>
      <trkpt lat="44.16805" lon="5.4957">
        <ele>1189</ele>
        <time>2019-06-17T09:41:20Z</time>
      </trkpt>
      <trkpt lat="44.16811" lon="5.49567">
        <ele>1189</ele>
        <time>2019-06-17T09:41:21Z</time>
      </trkpt>
      <trkpt lat="44.16819" lon="5.49564">
        <ele>1189</ele>
        <time>2019-06-17T09:41:22Z</time>
      </trkpt>
      <trkpt lat="44.16826" lon="5.49561">
        <ele>1189</ele>
        <time>2019-06-17T09:41:23Z</time>
      </trkpt>
      <trkpt lat="44.16833" lon="5.49558">
        <ele>1189</ele>
        <time>2019-06-17T09:41:24Z</time>
      </trkpt>
      <trkpt lat="44.1684" lon="5.49555">
        <ele>1189</ele>
        <time>2019-06-17T09:41:25Z</time>
      </trkpt>
      <trkpt lat="44.16848" lon="5.49554">
        <ele>1189</ele>
        <time>2019-06-17T09:41:26Z</time>
      </trkpt>
      <trkpt lat="44.16857" lon="5.49552">
        <ele>1189</ele>
        <time>2019-06-17T09:41:27Z</time>
      </trkpt>
      <trkpt lat="44.16864" lon="5.4955">
        <ele>1189</ele>
        <time>2019-06-17T09:41:28Z</time>
      </trkpt>
      <trkpt lat="44.16872" lon="5.49548">
        <ele>1189</ele>
        <time>2019-06-17T09:41:29Z</time>
      </trkpt>
      <trkpt lat="44.1688" lon="5.49545">
        <ele>1189</ele>
        <time>2019-06-17T09:41:30Z</time>
      </trkpt>
      <trkpt lat="44.16888" lon="5.49543">
        <ele>1189</ele>
        <time>2019-06-17T09:41:31Z</time>
      </trkpt>
      <trkpt lat="44.16895" lon="5.4954">
        <ele>1189</ele>
        <time>2019-06-17T09:41:32Z</time>
      </trkpt>
      <trkpt lat="44.16902" lon="5.49538">
        <ele>1189</ele>
        <time>2019-06-17T09:41:33Z</time>
      </trkpt>
      <trkpt lat="44.16909" lon="5.49536">
        <ele>1189</ele>
        <time>2019-06-17T09:41:34Z</time>
      </trkpt>
      <trkpt lat="44.16917" lon="5.49535">
        <ele>1189</ele>
        <time>2019-06-17T09:41:35Z</time>
      </trkpt>
      <trkpt lat="44.16926" lon="5.49536">
        <ele>1188</ele>
        <time>2019-06-17T09:41:36Z</time>
      </trkpt>
      <trkpt lat="44.16935" lon="5.49537">
        <ele>1188</ele>
        <time>2019-06-17T09:41:37Z</time>
      </trkpt>
      <trkpt lat="44.16943" lon="5.49537">
        <ele>1187</ele>
        <time>2019-06-17T09:41:38Z</time>
      </trkpt>
      <trkpt lat="44.1695" lon="5.49538">
        <ele>1187</ele>
        <time>2019-06-17T09:41:39Z</time>
      </trkpt>
      <trkpt lat="44.16958" lon="5.49538">
        <ele>1187</ele>
        <time>2019-06-17T09:41:40Z</time>
      </trkpt>
      <trkpt lat="44.16965" lon="5.49539">
        <ele>1187</ele>
        <time>2019-06-17T09:41:41Z</time>
      </trkpt>
      <trkpt lat="44.16972" lon="5.4954">
        <ele>1186</ele>
        <time>2019-06-17T09:41:42Z</time>
      </trkpt>
      <trkpt lat="44.1698" lon="5.49543">
        <ele>1186</ele>
        <time>2019-06-17T09:41:43Z</time>
      </trkpt>
      <trkpt lat="44.16986" lon="5.49547">
        <ele>1186</ele>
        <time>2019-06-17T09:41:44Z</time>
      </trkpt>
      <trkpt lat="44.16993" lon="5.49554">
        <ele>1185</ele>
        <time>2019-06-17T09:41:45Z</time>
      </trkpt>
      <trkpt lat="44.16999" lon="5.49561">
        <ele>1185</ele>
        <time>2019-06-17T09:41:46Z</time>
      </trkpt>
      <trkpt lat="44.17004" lon="5.49569">
        <ele>1185</ele>
        <time>2019-06-17T09:41:47Z</time>
      </trkpt>
      <trkpt lat="44.17008" lon="5.49576">
        <ele>1185</ele>
        <time>2019-06-17T09:41:48Z</time>
      </trkpt>
      <trkpt lat="44.17012" lon="5.49584">
        <ele>1185</ele>
        <time>2019-06-17T09:41:49Z</time>
      </trkpt>
      <trkpt lat="44.17016" lon="5.49592">
        <ele>1185</ele>
        <time>2019-06-17T09:41:50Z</time>
      </trkpt>
      <trkpt lat="44.17019" lon="5.49601">
        <ele>1185</ele>
        <time>2019-06-17T09:41:51Z</time>
      </trkpt>
      <trkpt lat="44.17022" lon="5.49609">
        <ele>1185</ele>
        <time>2019-06-17T09:41:52Z</time>
      </trkpt>
      <trkpt lat="44.17025" lon="5.49617">
        <ele>1185</ele>
        <time>2019-06-17T09:41:53Z</time>
      </trkpt>
      <trkpt lat="44.17028" lon="5.49626">
        <ele>1185</ele>
        <time>2019-06-17T09:41:54Z</time>
      </trkpt>
      <trkpt lat="44.1703" lon="5.49635">
        <ele>1185</ele>
        <time>2019-06-17T09:41:55Z</time>
      </trkpt>
      <trkpt lat="44.17033" lon="5.49644">
        <ele>1185</ele>
        <time>2019-06-17T09:41:56Z</time>
      </trkpt>
      <trkpt lat="44.17035" lon="5.49653">
        <ele>1185</ele>
        <time>2019-06-17T09:41:57Z</time>
      </trkpt>
      <trkpt lat="44.17037" lon="5.49662">
        <ele>1185</ele>
        <time>2019-06-17T09:41:58Z</time>
      </trkpt>
      <trkpt lat="44.17039" lon="5.49672">
        <ele>1185</ele>
        <time>2019-06-17T09:41:59Z</time>
      </trkpt>
      <trkpt lat="44.17041" lon="5.49681">
        <ele>1185</ele>
        <time>2019-06-17T09:42:00Z</time>
      </trkpt>
      <trkpt lat="44.17042" lon="5.4969">
        <ele>1185</ele>
        <time>2019-06-17T09:42:01Z</time>
      </trkpt>
      <trkpt lat="44.17043" lon="5.49699">
        <ele>1185</ele>
        <time>2019-06-17T09:42:02Z</time>
      </trkpt>
      <trkpt lat="44.17044" lon="5.49708">
        <ele>1185</ele>
        <time>2019-06-17T09:42:03Z</time>
      </trkpt>
      <trkpt lat="44.17044" lon="5.49717">
        <ele>1185</ele>
        <time>2019-06-17T09:42:04Z</time>
      </trkpt>
      <trkpt lat="44.17045" lon="5.49726">
        <ele>1185</ele>
        <time>2019-06-17T09:42:05Z</time>
      </trkpt>
      <trkpt lat="44.17045" lon="5.49735">
        <ele>1185</ele>
        <time>2019-06-17T09:42:06Z</time>
      </trkpt>
      <trkpt lat="44.17046" lon="5.49744">
        <ele>1185</ele>
        <time>2019-06-17T09:42:07Z</time>
      </trkpt>
      <trkpt lat="44.17046" lon="5.49753">
        <ele>1185</ele>
        <time>2019-06-17T09:42:08Z</time>
      </trkpt>
      <trkpt lat="44.17046" lon="5.49762">
        <ele>1185</ele>
        <time>2019-06-17T09:42:09Z</time>
      </trkpt>
      <trkpt lat="44.17045" lon="5.49771">
        <ele>1185</ele>
        <time>2019-06-17T09:42:10Z</time>
      </trkpt>
      <trkpt lat="44.17045" lon="5.4978">
        <ele>1185</ele>
        <time>2019-06-17T09:42:11Z</time>
      </trkpt>
      <trkpt lat="44.17044" lon="5.49789">
        <ele>1185</ele>
        <time>2019-06-17T09:42:12Z</time>
      </trkpt>
      <trkpt lat="44.17044" lon="5.49797">
        <ele>1185</ele>
        <time>2019-06-17T09:42:13Z</time>
      </trkpt>
      <trkpt lat="44.17044" lon="5.49806">
        <ele>1185</ele>
        <time>2019-06-17T09:42:14Z</time>
      </trkpt>
      <trkpt lat="44.17044" lon="5.49815">
        <ele>1185</ele>
        <time>2019-06-17T09:42:15Z</time>
      </trkpt>
      <trkpt lat="44.17044" lon="5.49824">
        <ele>1185</ele>
        <time>2019-06-17T09:42:16Z</time>
      </trkpt>
      <trkpt lat="44.17047" lon="5.49832">
        <ele>1185</ele>
        <time>2019-06-17T09:42:17Z</time>
      </trkpt>
      <trkpt lat="44.17049" lon="5.4984">
        <ele>1185</ele>
        <time>2019-06-17T09:42:18Z</time>
      </trkpt>
      <trkpt lat="44.17054" lon="5.49847">
        <ele>1185</ele>
        <time>2019-06-17T09:42:19Z</time>
      </trkpt>
      <trkpt lat="44.17059" lon="5.49852">
        <ele>1185</ele>
        <time>2019-06-17T09:42:20Z</time>
      </trkpt>
      <trkpt lat="44.17065" lon="5.49855">
        <ele>1185</ele>
        <time>2019-06-17T09:42:21Z</time>
      </trkpt>
      <trkpt lat="44.17073" lon="5.49853">
        <ele>1185</ele>
        <time>2019-06-17T09:42:22Z</time>
      </trkpt>
      <trkpt lat="44.1708" lon="5.4985">
        <ele>1185</ele>
        <time>2019-06-17T09:42:23Z</time>
      </trkpt>
      <trkpt lat="44.17088" lon="5.49847">
        <ele>1185</ele>
        <time>2019-06-17T09:42:24Z</time>
      </trkpt>
      <trkpt lat="44.17095" lon="5.49843">
        <ele>1185</ele>
        <time>2019-06-17T09:42:25Z</time>
      </trkpt>
      <trkpt lat="44.17102" lon="5.49839">
        <ele>1185</ele>
        <time>2019-06-17T09:42:26Z</time>
      </trkpt>
      <trkpt lat="44.17108" lon="5.49835">
        <ele>1185</ele>
        <time>2019-06-17T09:42:27Z</time>
      </trkpt>
      <trkpt lat="44.17115" lon="5.49831">
        <ele>1185</ele>
        <time>2019-06-17T09:42:28Z</time>
      </trkpt>
      <trkpt lat="44.17121" lon="5.49827">
        <ele>1185</ele>
        <time>2019-06-17T09:42:29Z</time>
      </trkpt>
      <trkpt lat="44.17127" lon="5.49822">
        <ele>1185</ele>
        <time>2019-06-17T09:42:30Z</time>
      </trkpt>
      <trkpt lat="44.17133" lon="5.49816">
        <ele>1185</ele>
        <time>2019-06-17T09:42:31Z</time>
      </trkpt>
      <trkpt lat="44.17138" lon="5.4981">
        <ele>1185</ele>
        <time>2019-06-17T09:42:32Z</time>
      </trkpt>
      <trkpt lat="44.17144" lon="5.49804">
        <ele>1185</ele>
        <time>2019-06-17T09:42:33Z</time>
      </trkpt>
      <trkpt lat="44.17149" lon="5.49799">
        <ele>1185</ele>
        <time>2019-06-17T09:42:34Z</time>
      </trkpt>
      <trkpt lat="44.17155" lon="5.49794">
        <ele>1185</ele>
        <time>2019-06-17T09:42:35Z</time>
      </trkpt>
      <trkpt lat="44.17161" lon="5.49789">
        <ele>1185</ele>
        <time>2019-06-17T09:42:36Z</time>
      </trkpt>
      <trkpt lat="44.17168" lon="5.49785">
        <ele>1185</ele>
        <time>2019-06-17T09:42:37Z</time>
      </trkpt>
      <trkpt lat="44.17175" lon="5.49782">
        <ele>1185</ele>
        <time>2019-06-17T09:42:38Z</time>
      </trkpt>
      <trkpt lat="44.17181" lon="5.49781">
        <ele>1185</ele>
        <time>2019-06-17T09:42:39Z</time>
      </trkpt>
      <trkpt lat="44.17189" lon="5.49785">
        <ele>1185</ele>
        <time>2019-06-17T09:42:40Z</time>
      </trkpt>
      <trkpt lat="44.17196" lon="5.49791">
        <ele>1185</ele>
        <time>2019-06-17T09:42:41Z</time>
      </trkpt>
      <trkpt lat="44.17202" lon="5.49797">
        <ele>1185</ele>
        <time>2019-06-17T09:42:42Z</time>
      </trkpt>
      <trkpt lat="44.17207" lon="5.49805">
        <ele>1185</ele>
        <time>2019-06-17T09:42:43Z</time>
      </trkpt>
      <trkpt lat="44.17213" lon="5.49813">
        <ele>1185</ele>
        <time>2019-06-17T09:42:44Z</time>
      </trkpt>
      <trkpt lat="44.17218" lon="5.49821">
        <ele>1184</ele>
        <time>2019-06-17T09:42:45Z</time>
      </trkpt>
      <trkpt lat="44.17223" lon="5.4983">
        <ele>1183</ele>
        <time>2019-06-17T09:42:46Z</time>
      </trkpt>
      <trkpt lat="44.17228" lon="5.49841">
        <ele>1183</ele>
        <time>2019-06-17T09:42:47Z</time>
      </trkpt>
      <trkpt lat="44.17232" lon="5.49852">
        <ele>1182</ele>
        <time>2019-06-17T09:42:48Z</time>
      </trkpt>
      <trkpt lat="44.17237" lon="5.49864">
        <ele>1182</ele>
        <time>2019-06-17T09:42:49Z</time>
      </trkpt>
      <trkpt lat="44.17242" lon="5.49875">
        <ele>1181</ele>
        <time>2019-06-17T09:42:50Z</time>
      </trkpt>
      <trkpt lat="44.17247" lon="5.49887">
        <ele>1181</ele>
        <time>2019-06-17T09:42:51Z</time>
      </trkpt>
      <trkpt lat="44.17252" lon="5.49898">
        <ele>1180</ele>
        <time>2019-06-17T09:42:52Z</time>
      </trkpt>
      <trkpt lat="44.17256" lon="5.4991">
        <ele>1179</ele>
        <time>2019-06-17T09:42:53Z</time>
      </trkpt>
      <trkpt lat="44.17261" lon="5.49923">
        <ele>1179</ele>
        <time>2019-06-17T09:42:54Z</time>
      </trkpt>
      <trkpt lat="44.17265" lon="5.49934">
        <ele>1178</ele>
        <time>2019-06-17T09:42:55Z</time>
      </trkpt>
      <trkpt lat="44.1727" lon="5.49946">
        <ele>1178</ele>
        <time>2019-06-17T09:42:56Z</time>
      </trkpt>
      <trkpt lat="44.17272" lon="5.49958">
        <ele>1177</ele>
        <time>2019-06-17T09:42:57Z</time>
      </trkpt>
      <trkpt lat="44.17275" lon="5.49969">
        <ele>1177</ele>
        <time>2019-06-17T09:42:58Z</time>
      </trkpt>
      <trkpt lat="44.17276" lon="5.49981">
        <ele>1176</ele>
        <time>2019-06-17T09:42:59Z</time>
      </trkpt>
      <trkpt lat="44.17276" lon="5.49993">
        <ele>1176</ele>
        <time>2019-06-17T09:43:00Z</time>
      </trkpt>
      <trkpt lat="44.17276" lon="5.50005">
        <ele>1175</ele>
        <time>2019-06-17T09:43:01Z</time>
      </trkpt>
      <trkpt lat="44.17274" lon="5.50017">
        <ele>1174</ele>
        <time>2019-06-17T09:43:02Z</time>
      </trkpt>
      <trkpt lat="44.17272" lon="5.50029">
        <ele>1174</ele>
        <time>2019-06-17T09:43:03Z</time>
      </trkpt>
      <trkpt lat="44.17271" lon="5.50041">
        <ele>1173</ele>
        <time>2019-06-17T09:43:04Z</time>
      </trkpt>
      <trkpt lat="44.1727" lon="5.50053">
        <ele>1173</ele>
        <time>2019-06-17T09:43:05Z</time>
      </trkpt>
      <trkpt lat="44.1727" lon="5.50065">
        <ele>1172</ele>
        <time>2019-06-17T09:43:06Z</time>
      </trkpt>
      <trkpt lat="44.17271" lon="5.50077">
        <ele>1172</ele>
        <time>2019-06-17T09:43:07Z</time>
      </trkpt>
      <trkpt lat="44.17273" lon="5.5009">
        <ele>1171</ele>
        <time>2019-06-17T09:43:08Z</time>
      </trkpt>
      <trkpt lat="44.17278" lon="5.50104">
        <ele>1171</ele>
        <time>2019-06-17T09:43:09Z</time>
      </trkpt>
      <trkpt lat="44.17283" lon="5.50116">
        <ele>1171</ele>
        <time>2019-06-17T09:43:10Z</time>
      </trkpt>
      <trkpt lat="44.1729" lon="5.50127">
        <ele>1170</ele>
        <time>2019-06-17T09:43:11Z</time>
      </trkpt>
      <trkpt lat="44.17296" lon="5.50138">
        <ele>1169</ele>
        <time>2019-06-17T09:43:12Z</time>
      </trkpt>
      <trkpt lat="44.17302" lon="5.50149">
        <ele>1169</ele>
        <time>2019-06-17T09:43:13Z</time>
      </trkpt>
      <trkpt lat="44.17308" lon="5.50161">
        <ele>1168</ele>
        <time>2019-06-17T09:43:14Z</time>
      </trkpt>
      <trkpt lat="44.17313" lon="5.50172">
        <ele>1167</ele>
        <time>2019-06-17T09:43:15Z</time>
      </trkpt>
      <trkpt lat="44.17319" lon="5.50184">
        <ele>1166</ele>
        <time>2019-06-17T09:43:16Z</time>
      </trkpt>
      <trkpt lat="44.17325" lon="5.50196">
        <ele>1166</ele>
        <time>2019-06-17T09:43:17Z</time>
      </trkpt>
      <trkpt lat="44.1733" lon="5.50207">
        <ele>1165</ele>
        <time>2019-06-17T09:43:18Z</time>
      </trkpt>
      <trkpt lat="44.17336" lon="5.50218">
        <ele>1165</ele>
        <time>2019-06-17T09:43:19Z</time>
      </trkpt>
      <trkpt lat="44.1734" lon="5.5023">
        <ele>1164</ele>
        <time>2019-06-17T09:43:20Z</time>
      </trkpt>
      <trkpt lat="44.17345" lon="5.50242">
        <ele>1163</ele>
        <time>2019-06-17T09:43:21Z</time>
      </trkpt>
      <trkpt lat="44.1735" lon="5.50252">
        <ele>1163</ele>
        <time>2019-06-17T09:43:22Z</time>
      </trkpt>
      <trkpt lat="44.17355" lon="5.50264">
        <ele>1162</ele>
        <time>2019-06-17T09:43:23Z</time>
      </trkpt>
      <trkpt lat="44.17361" lon="5.50274">
        <ele>1161</ele>
        <time>2019-06-17T09:43:24Z</time>
      </trkpt>
      <trkpt lat="44.17366" lon="5.50285">
        <ele>1161</ele>
        <time>2019-06-17T09:43:25Z</time>
      </trkpt>
      <trkpt lat="44.17371" lon="5.50296">
        <ele>1160</ele>
        <time>2019-06-17T09:43:26Z</time>
      </trkpt>
      <trkpt lat="44.17376" lon="5.50308">
        <ele>1160</ele>
        <time>2019-06-17T09:43:27Z</time>
      </trkpt>
      <trkpt lat="44.1738" lon="5.50319">
        <ele>1159</ele>
        <time>2019-06-17T09:43:28Z</time>
      </trkpt>
      <trkpt lat="44.17385" lon="5.50331">
        <ele>1158</ele>
        <time>2019-06-17T09:43:29Z</time>
      </trkpt>
      <trkpt lat="44.17389" lon="5.50343">
        <ele>1158</ele>
        <time>2019-06-17T09:43:30Z</time>
      </trkpt>
      <trkpt lat="44.17393" lon="5.50355">
        <ele>1157</ele>
        <time>2019-06-17T09:43:31Z</time>
      </trkpt>
      <trkpt lat="44.17396" lon="5.50367">
        <ele>1156</ele>
        <time>2019-06-17T09:43:32Z</time>
      </trkpt>
      <trkpt lat="44.17399" lon="5.5038">
        <ele>1156</ele>
        <time>2019-06-17T09:43:33Z</time>
      </trkpt>
      <trkpt lat="44.17402" lon="5.50392">
        <ele>1155</ele>
        <time>2019-06-17T09:43:34Z</time>
      </trkpt>
      <trkpt lat="44.17405" lon="5.50404">
        <ele>1154</ele>
        <time>2019-06-17T09:43:35Z</time>
      </trkpt>
      <trkpt lat="44.17408" lon="5.50417">
        <ele>1154</ele>
        <time>2019-06-17T09:43:36Z</time>
      </trkpt>
      <trkpt lat="44.17411" lon="5.50429">
        <ele>1153</ele>
        <time>2019-06-17T09:43:37Z</time>
      </trkpt>
      <trkpt lat="44.17414" lon="5.50441">
        <ele>1152</ele>
        <time>2019-06-17T09:43:38Z</time>
      </trkpt>
      <trkpt lat="44.17418" lon="5.50452">
        <ele>1152</ele>
        <time>2019-06-17T09:43:39Z</time>
      </trkpt>
      <trkpt lat="44.17421" lon="5.50463">
        <ele>1152</ele>
        <time>2019-06-17T09:43:40Z</time>
      </trkpt>
      <trkpt lat="44.17424" lon="5.50473">
        <ele>1151</ele>
        <time>2019-06-17T09:43:41Z</time>
      </trkpt>
      <trkpt lat="44.17427" lon="5.50484">
        <ele>1151</ele>
        <time>2019-06-17T09:43:42Z</time>
      </trkpt>
      <trkpt lat="44.17429" lon="5.50494">
        <ele>1150</ele>
        <time>2019-06-17T09:43:43Z</time>
      </trkpt>
      <trkpt lat="44.17431" lon="5.50505">
        <ele>1149</ele>
        <time>2019-06-17T09:43:44Z</time>
      </trkpt>
      <trkpt lat="44.17431" lon="5.50517">
        <ele>1149</ele>
        <time>2019-06-17T09:43:45Z</time>
      </trkpt>
      <trkpt lat="44.1743" lon="5.50528">
        <ele>1148</ele>
        <time>2019-06-17T09:43:46Z</time>
      </trkpt>
      <trkpt lat="44.17428" lon="5.5054">
        <ele>1147</ele>
        <time>2019-06-17T09:43:47Z</time>
      </trkpt>
      <trkpt lat="44.17424" lon="5.50552">
        <ele>1147</ele>
        <time>2019-06-17T09:43:48Z</time>
      </trkpt>
      <trkpt lat="44.17421" lon="5.50563">
        <ele>1146</ele>
        <time>2019-06-17T09:43:49Z</time>
      </trkpt>
      <trkpt lat="44.17417" lon="5.50575">
        <ele>1145</ele>
        <time>2019-06-17T09:43:50Z</time>
      </trkpt>
      <trkpt lat="44.17414" lon="5.50587">
        <ele>1145</ele>
        <time>2019-06-17T09:43:51Z</time>
      </trkpt>
      <trkpt lat="44.1741" lon="5.50599">
        <ele>1144</ele>
        <time>2019-06-17T09:43:52Z</time>
      </trkpt>
      <trkpt lat="44.17408" lon="5.50612">
        <ele>1143</ele>
        <time>2019-06-17T09:43:53Z</time>
      </trkpt>
      <trkpt lat="44.17405" lon="5.50625">
        <ele>1143</ele>
        <time>2019-06-17T09:43:54Z</time>
      </trkpt>
      <trkpt lat="44.17403" lon="5.50639">
        <ele>1142</ele>
        <time>2019-06-17T09:43:55Z</time>
      </trkpt>
      <trkpt lat="44.17402" lon="5.50652">
        <ele>1142</ele>
        <time>2019-06-17T09:43:56Z</time>
      </trkpt>
      <trkpt lat="44.174" lon="5.50666">
        <ele>1141</ele>
        <time>2019-06-17T09:43:57Z</time>
      </trkpt>
      <trkpt lat="44.17398" lon="5.50679">
        <ele>1140</ele>
        <time>2019-06-17T09:43:58Z</time>
      </trkpt>
      <trkpt lat="44.17396" lon="5.50693">
        <ele>1140</ele>
        <time>2019-06-17T09:43:59Z</time>
      </trkpt>
      <trkpt lat="44.17395" lon="5.50707">
        <ele>1139</ele>
        <time>2019-06-17T09:44:00Z</time>
      </trkpt>
      <trkpt lat="44.17393" lon="5.5072">
        <ele>1138</ele>
        <time>2019-06-17T09:44:01Z</time>
      </trkpt>
      <trkpt lat="44.17391" lon="5.50734">
        <ele>1138</ele>
        <time>2019-06-17T09:44:02Z</time>
      </trkpt>
      <trkpt lat="44.1739" lon="5.50748">
        <ele>1138</ele>
        <time>2019-06-17T09:44:03Z</time>
      </trkpt>
      <trkpt lat="44.17389" lon="5.50762">
        <ele>1137</ele>
        <time>2019-06-17T09:44:04Z</time>
      </trkpt>
      <trkpt lat="44.17388" lon="5.50776">
        <ele>1137</ele>
        <time>2019-06-17T09:44:05Z</time>
      </trkpt>
      <trkpt lat="44.17387" lon="5.50791">
        <ele>1137</ele>
        <time>2019-06-17T09:44:06Z</time>
      </trkpt>
      <trkpt lat="44.17388" lon="5.50805">
        <ele>1136</ele>
        <time>2019-06-17T09:44:07Z</time>
      </trkpt>
      <trkpt lat="44.17389" lon="5.5082">
        <ele>1135</ele>
        <time>2019-06-17T09:44:08Z</time>
      </trkpt>
      <trkpt lat="44.1739" lon="5.50834">
        <ele>1135</ele>
        <time>2019-06-17T09:44:09Z</time>
      </trkpt>
      <trkpt lat="44.17391" lon="5.50847">
        <ele>1134</ele>
        <time>2019-06-17T09:44:10Z</time>
      </trkpt>
      <trkpt lat="44.17392" lon="5.5086">
        <ele>1133</ele>
        <time>2019-06-17T09:44:11Z</time>
      </trkpt>
      <trkpt lat="44.17395" lon="5.50873">
        <ele>1133</ele>
        <time>2019-06-17T09:44:12Z</time>
      </trkpt>
      <trkpt lat="44.174" lon="5.50884">
        <ele>1132</ele>
        <time>2019-06-17T09:44:13Z</time>
      </trkpt>
      <trkpt lat="44.17404" lon="5.50896">
        <ele>1132</ele>
        <time>2019-06-17T09:44:14Z</time>
      </trkpt>
      <trkpt lat="44.17409" lon="5.50908">
        <ele>1131</ele>
        <time>2019-06-17T09:44:15Z</time>
      </trkpt>
      <trkpt lat="44.17414" lon="5.5092">
        <ele>1131</ele>
        <time>2019-06-17T09:44:16Z</time>
      </trkpt>
      <trkpt lat="44.1742" lon="5.50932">
        <ele>1130</ele>
        <time>2019-06-17T09:44:17Z</time>
      </trkpt>
      <trkpt lat="44.17425" lon="5.50944">
        <ele>1130</ele>
        <time>2019-06-17T09:44:18Z</time>
      </trkpt>
      <trkpt lat="44.1743" lon="5.50956">
        <ele>1129</ele>
        <time>2019-06-17T09:44:19Z</time>
      </trkpt>
      <trkpt lat="44.17435" lon="5.50968">
        <ele>1129</ele>
        <time>2019-06-17T09:44:20Z</time>
      </trkpt>
      <trkpt lat="44.1744" lon="5.50979">
        <ele>1129</ele>
        <time>2019-06-17T09:44:21Z</time>
      </trkpt>
      <trkpt lat="44.17446" lon="5.5099">
        <ele>1128</ele>
        <time>2019-06-17T09:44:22Z</time>
      </trkpt>
      <trkpt lat="44.17452" lon="5.51001">
        <ele>1128</ele>
        <time>2019-06-17T09:44:23Z</time>
      </trkpt>
      <trkpt lat="44.17458" lon="5.51011">
        <ele>1127</ele>
        <time>2019-06-17T09:44:24Z</time>
      </trkpt>
      <trkpt lat="44.17464" lon="5.51021">
        <ele>1126</ele>
        <time>2019-06-17T09:44:25Z</time>
      </trkpt>
      <trkpt lat="44.1747" lon="5.5103">
        <ele>1126</ele>
        <time>2019-06-17T09:44:26Z</time>
      </trkpt>
      <trkpt lat="44.17475" lon="5.51039">
        <ele>1126</ele>
        <time>2019-06-17T09:44:27Z</time>
      </trkpt>
      <trkpt lat="44.17479" lon="5.51047">
        <ele>1125</ele>
        <time>2019-06-17T09:44:28Z</time>
      </trkpt>
      <trkpt lat="44.17483" lon="5.51054">
        <ele>1125</ele>
        <time>2019-06-17T09:44:29Z</time>
      </trkpt>
      <trkpt lat="44.17487" lon="5.51061">
        <ele>1125</ele>
        <time>2019-06-17T09:44:30Z</time>
      </trkpt>
      <trkpt lat="44.17492" lon="5.51065">
        <ele>1124</ele>
        <time>2019-06-17T09:44:31Z</time>
      </trkpt>
      <trkpt lat="44.17498" lon="5.51066">
        <ele>1124</ele>
        <time>2019-06-17T09:44:32Z</time>
      </trkpt>
      <trkpt lat="44.17503" lon="5.51063">
        <ele>1123</ele>
        <time>2019-06-17T09:44:33Z</time>
      </trkpt>
      <trkpt lat="44.17509" lon="5.51059">
        <ele>1123</ele>
        <time>2019-06-17T09:44:34Z</time>
      </trkpt>
      <trkpt lat="44.17513" lon="5.51052">
        <ele>1123</ele>
        <time>2019-06-17T09:44:35Z</time>
      </trkpt>
      <trkpt lat="44.17515" lon="5.51045">
        <ele>1122</ele>
        <time>2019-06-17T09:44:36Z</time>
      </trkpt>
      <trkpt lat="44.17516" lon="5.51038">
        <ele>1122</ele>
        <time>2019-06-17T09:44:37Z</time>
      </trkpt>
      <trkpt lat="44.17515" lon="5.51028">
        <ele>1122</ele>
        <time>2019-06-17T09:44:38Z</time>
      </trkpt>
      <trkpt lat="44.17514" lon="5.51018">
        <ele>1121</ele>
        <time>2019-06-17T09:44:39Z</time>
      </trkpt>
      <trkpt lat="44.17513" lon="5.51008">
        <ele>1121</ele>
        <time>2019-06-17T09:44:40Z</time>
      </trkpt>
      <trkpt lat="44.17513" lon="5.50997">
        <ele>1120</ele>
        <time>2019-06-17T09:44:41Z</time>
      </trkpt>
      <trkpt lat="44.17512" lon="5.50985">
        <ele>1119</ele>
        <time>2019-06-17T09:44:42Z</time>
      </trkpt>
      <trkpt lat="44.17511" lon="5.50975">
        <ele>1119</ele>
        <time>2019-06-17T09:44:43Z</time>
      </trkpt>
      <trkpt lat="44.1751" lon="5.50964">
        <ele>1118</ele>
        <time>2019-06-17T09:44:44Z</time>
      </trkpt>
      <trkpt lat="44.1751" lon="5.50953">
        <ele>1117</ele>
        <time>2019-06-17T09:44:45Z</time>
      </trkpt>
      <trkpt lat="44.1751" lon="5.50942">
        <ele>1116</ele>
        <time>2019-06-17T09:44:46Z</time>
      </trkpt>
      <trkpt lat="44.1751" lon="5.50931">
        <ele>1115</ele>
        <time>2019-06-17T09:44:47Z</time>
      </trkpt>
      <trkpt lat="44.1751" lon="5.50919">
        <ele>1115</ele>
        <time>2019-06-17T09:44:48Z</time>
      </trkpt>
      <trkpt lat="44.17511" lon="5.50908">
        <ele>1115</ele>
        <time>2019-06-17T09:44:49Z</time>
      </trkpt>
      <trkpt lat="44.17511" lon="5.50897">
        <ele>1115</ele>
        <time>2019-06-17T09:44:50Z</time>
      </trkpt>
      <trkpt lat="44.17513" lon="5.50886">
        <ele>1115</ele>
        <time>2019-06-17T09:44:51Z</time>
      </trkpt>
      <trkpt lat="44.17514" lon="5.50875">
        <ele>1115</ele>
        <time>2019-06-17T09:44:52Z</time>
      </trkpt>
      <trkpt lat="44.17515" lon="5.50864">
        <ele>1115</ele>
        <time>2019-06-17T09:44:53Z</time>
      </trkpt>
      <trkpt lat="44.17516" lon="5.50853">
        <ele>1115</ele>
        <time>2019-06-17T09:44:54Z</time>
      </trkpt>
      <trkpt lat="44.17517" lon="5.50841">
        <ele>1115</ele>
        <time>2019-06-17T09:44:55Z</time>
      </trkpt>
      <trkpt lat="44.17516" lon="5.5083">
        <ele>1115</ele>
        <time>2019-06-17T09:44:56Z</time>
      </trkpt>
      <trkpt lat="44.17516" lon="5.50818">
        <ele>1114</ele>
        <time>2019-06-17T09:44:57Z</time>
      </trkpt>
      <trkpt lat="44.17516" lon="5.50807">
        <ele>1114</ele>
        <time>2019-06-17T09:44:58Z</time>
      </trkpt>
      <trkpt lat="44.17516" lon="5.50796">
        <ele>1114</ele>
        <time>2019-06-17T09:44:59Z</time>
      </trkpt>
      <trkpt lat="44.17518" lon="5.50787">
        <ele>1114</ele>
        <time>2019-06-17T09:45:00Z</time>
      </trkpt>
      <trkpt lat="44.17521" lon="5.50779">
        <ele>1113</ele>
        <time>2019-06-17T09:45:01Z</time>
      </trkpt>
      <trkpt lat="44.17526" lon="5.50774">
        <ele>1113</ele>
        <time>2019-06-17T09:45:02Z</time>
      </trkpt>
      <trkpt lat="44.17532" lon="5.50772">
        <ele>1113</ele>
        <time>2019-06-17T09:45:03Z</time>
      </trkpt>
      <trkpt lat="44.17538" lon="5.50775">
        <ele>1113</ele>
        <time>2019-06-17T09:45:04Z</time>
      </trkpt>
      <trkpt lat="44.17543" lon="5.50781">
        <ele>1112</ele>
        <time>2019-06-17T09:45:05Z</time>
      </trkpt>
      <trkpt lat="44.17544" lon="5.5079">
        <ele>1112</ele>
        <time>2019-06-17T09:45:06Z</time>
      </trkpt>
      <trkpt lat="44.17545" lon="5.50799">
        <ele>1112</ele>
        <time>2019-06-17T09:45:07Z</time>
      </trkpt>
      <trkpt lat="44.17546" lon="5.50809">
        <ele>1111</ele>
        <time>2019-06-17T09:45:08Z</time>
      </trkpt>
      <trkpt lat="44.17547" lon="5.50818">
        <ele>1111</ele>
        <time>2019-06-17T09:45:09Z</time>
      </trkpt>
      <trkpt lat="44.17549" lon="5.50828">
        <ele>1110</ele>
        <time>2019-06-17T09:45:10Z</time>
      </trkpt>
      <trkpt lat="44.17551" lon="5.50837">
        <ele>1110</ele>
        <time>2019-06-17T09:45:11Z</time>
      </trkpt>
      <trkpt lat="44.17554" lon="5.50846">
        <ele>1110</ele>
        <time>2019-06-17T09:45:12Z</time>
      </trkpt>
      <trkpt lat="44.17556" lon="5.50856">
        <ele>1109</ele>
        <time>2019-06-17T09:45:13Z</time>
      </trkpt>
      <trkpt lat="44.17559" lon="5.50865">
        <ele>1109</ele>
        <time>2019-06-17T09:45:14Z</time>
      </trkpt>
      <trkpt lat="44.17562" lon="5.50875">
        <ele>1109</ele>
        <time>2019-06-17T09:45:15Z</time>
      </trkpt>
      <trkpt lat="44.17565" lon="5.50885">
        <ele>1108</ele>
        <time>2019-06-17T09:45:16Z</time>
      </trkpt>
      <trkpt lat="44.17568" lon="5.50896">
        <ele>1108</ele>
        <time>2019-06-17T09:45:17Z</time>
      </trkpt>
      <trkpt lat="44.17571" lon="5.50907">
        <ele>1108</ele>
        <time>2019-06-17T09:45:18Z</time>
      </trkpt>
      <trkpt lat="44.17574" lon="5.50918">
        <ele>1107</ele>
        <time>2019-06-17T09:45:19Z</time>
      </trkpt>
      <trkpt lat="44.17576" lon="5.50929">
        <ele>1107</ele>
        <time>2019-06-17T09:45:20Z</time>
      </trkpt>
      <trkpt lat="44.17579" lon="5.50941">
        <ele>1106</ele>
        <time>2019-06-17T09:45:21Z</time>
      </trkpt>
      <trkpt lat="44.17583" lon="5.50952">
        <ele>1106</ele>
        <time>2019-06-17T09:45:22Z</time>
      </trkpt>
      <trkpt lat="44.17587" lon="5.50963">
        <ele>1105</ele>
        <time>2019-06-17T09:45:23Z</time>
      </trkpt>
      <trkpt lat="44.17591" lon="5.50974">
        <ele>1105</ele>
        <time>2019-06-17T09:45:24Z</time>
      </trkpt>
      <trkpt lat="44.17597" lon="5.50984">
        <ele>1105</ele>
        <time>2019-06-17T09:45:25Z</time>
      </trkpt>
      <trkpt lat="44.17603" lon="5.50994">
        <ele>1104</ele>
        <time>2019-06-17T09:45:26Z</time>
      </trkpt>
      <trkpt lat="44.17609" lon="5.51003">
        <ele>1104</ele>
        <time>2019-06-17T09:45:27Z</time>
      </trkpt>
      <trkpt lat="44.17616" lon="5.51012">
        <ele>1103</ele>
        <time>2019-06-17T09:45:28Z</time>
      </trkpt>
      <trkpt lat="44.17624" lon="5.5102">
        <ele>1103</ele>
        <time>2019-06-17T09:45:29Z</time>
      </trkpt>
      <trkpt lat="44.17632" lon="5.51027">
        <ele>1102</ele>
        <time>2019-06-17T09:45:30Z</time>
      </trkpt>
      <trkpt lat="44.17641" lon="5.51033">
        <ele>1102</ele>
        <time>2019-06-17T09:45:31Z</time>
      </trkpt>
      <trkpt lat="44.1765" lon="5.51039">
        <ele>1101</ele>
        <time>2019-06-17T09:45:32Z</time>
      </trkpt>
      <trkpt lat="44.17659" lon="5.51046">
        <ele>1101</ele>
        <time>2019-06-17T09:45:33Z</time>
      </trkpt>
      <trkpt lat="44.17667" lon="5.51052">
        <ele>1100</ele>
        <time>2019-06-17T09:45:34Z</time>
      </trkpt>
      <trkpt lat="44.17676" lon="5.51059">
        <ele>1100</ele>
        <time>2019-06-17T09:45:35Z</time>
      </trkpt>
      <trkpt lat="44.17684" lon="5.51067">
        <ele>1099</ele>
        <time>2019-06-17T09:45:36Z</time>
      </trkpt>
      <trkpt lat="44.17692" lon="5.51076">
        <ele>1099</ele>
        <time>2019-06-17T09:45:37Z</time>
      </trkpt>
      <trkpt lat="44.177" lon="5.51086">
        <ele>1098</ele>
        <time>2019-06-17T09:45:38Z</time>
      </trkpt>
      <trkpt lat="44.17708" lon="5.51096">
        <ele>1098</ele>
        <time>2019-06-17T09:45:39Z</time>
      </trkpt>
      <trkpt lat="44.17715" lon="5.51107">
        <ele>1097</ele>
        <time>2019-06-17T09:45:40Z</time>
      </trkpt>
      <trkpt lat="44.17722" lon="5.51118">
        <ele>1097</ele>
        <time>2019-06-17T09:45:41Z</time>
      </trkpt>
      <trkpt lat="44.1773" lon="5.51128">
        <ele>1096</ele>
        <time>2019-06-17T09:45:42Z</time>
      </trkpt>
      <trkpt lat="44.17738" lon="5.51136">
        <ele>1096</ele>
        <time>2019-06-17T09:45:43Z</time>
      </trkpt>
      <trkpt lat="44.17746" lon="5.51144">
        <ele>1095</ele>
        <time>2019-06-17T09:45:44Z</time>
      </trkpt>
      <trkpt lat="44.17755" lon="5.51149">
        <ele>1094</ele>
        <time>2019-06-17T09:45:45Z</time>
      </trkpt>
      <trkpt lat="44.17764" lon="5.51151">
        <ele>1094</ele>
        <time>2019-06-17T09:45:46Z</time>
      </trkpt>
      <trkpt lat="44.17773" lon="5.5115">
        <ele>1093</ele>
        <time>2019-06-17T09:45:47Z</time>
      </trkpt>
      <trkpt lat="44.17782" lon="5.51146">
        <ele>1093</ele>
        <time>2019-06-17T09:45:48Z</time>
      </trkpt>
      <trkpt lat="44.17789" lon="5.51139">
        <ele>1093</ele>
        <time>2019-06-17T09:45:49Z</time>
      </trkpt>
      <trkpt lat="44.17796" lon="5.51131">
        <ele>1093</ele>
        <time>2019-06-17T09:45:50Z</time>
      </trkpt>
      <trkpt lat="44.17803" lon="5.51123">
        <ele>1093</ele>
        <time>2019-06-17T09:45:51Z</time>
      </trkpt>
      <trkpt lat="44.17809" lon="5.51115">
        <ele>1093</ele>
        <time>2019-06-17T09:45:52Z</time>
      </trkpt>
      <trkpt lat="44.17817" lon="5.51108">
        <ele>1093</ele>
        <time>2019-06-17T09:45:53Z</time>
      </trkpt>
      <trkpt lat="44.17824" lon="5.51101">
        <ele>1093</ele>
        <time>2019-06-17T09:45:54Z</time>
      </trkpt>
      <trkpt lat="44.17832" lon="5.51095">
        <ele>1092</ele>
        <time>2019-06-17T09:45:55Z</time>
      </trkpt>
      <trkpt lat="44.1784" lon="5.5109">
        <ele>1092</ele>
        <time>2019-06-17T09:45:56Z</time>
      </trkpt>
      <trkpt lat="44.17848" lon="5.51085">
        <ele>1091</ele>
        <time>2019-06-17T09:45:57Z</time>
      </trkpt>
      <trkpt lat="44.17857" lon="5.5108">
        <ele>1091</ele>
        <time>2019-06-17T09:45:58Z</time>
      </trkpt>
      <trkpt lat="44.17865" lon="5.51075">
        <ele>1091</ele>
        <time>2019-06-17T09:45:59Z</time>
      </trkpt>
      <trkpt lat="44.17874" lon="5.51071">
        <ele>1090</ele>
        <time>2019-06-17T09:46:00Z</time>
      </trkpt>
      <trkpt lat="44.17883" lon="5.51066">
        <ele>1090</ele>
        <time>2019-06-17T09:46:01Z</time>
      </trkpt>
      <trkpt lat="44.17892" lon="5.51062">
        <ele>1089</ele>
        <time>2019-06-17T09:46:02Z</time>
      </trkpt>
      <trkpt lat="44.17901" lon="5.51059">
        <ele>1089</ele>
        <time>2019-06-17T09:46:03Z</time>
      </trkpt>
      <trkpt lat="44.17911" lon="5.51056">
        <ele>1089</ele>
        <time>2019-06-17T09:46:04Z</time>
      </trkpt>
      <trkpt lat="44.17921" lon="5.51054">
        <ele>1088</ele>
        <time>2019-06-17T09:46:05Z</time>
      </trkpt>
      <trkpt lat="44.17931" lon="5.51052">
        <ele>1088</ele>
        <time>2019-06-17T09:46:06Z</time>
      </trkpt>
      <trkpt lat="44.17941" lon="5.51049">
        <ele>1087</ele>
        <time>2019-06-17T09:46:07Z</time>
      </trkpt>
      <trkpt lat="44.1795" lon="5.51045">
        <ele>1087</ele>
        <time>2019-06-17T09:46:08Z</time>
      </trkpt>
      <trkpt lat="44.17959" lon="5.51038">
        <ele>1086</ele>
        <time>2019-06-17T09:46:09Z</time>
      </trkpt>
      <trkpt lat="44.17967" lon="5.5103">
        <ele>1085</ele>
        <time>2019-06-17T09:46:10Z</time>
      </trkpt>
      <trkpt lat="44.17976" lon="5.51022">
        <ele>1085</ele>
        <time>2019-06-17T09:46:11Z</time>
      </trkpt>
      <trkpt lat="44.17984" lon="5.51012">
        <ele>1084</ele>
        <time>2019-06-17T09:46:12Z</time>
      </trkpt>
      <trkpt lat="44.17992" lon="5.51001">
        <ele>1083</ele>
        <time>2019-06-17T09:46:13Z</time>
      </trkpt>
      <trkpt lat="44.17999" lon="5.50989">
        <ele>1083</ele>
        <time>2019-06-17T09:46:14Z</time>
      </trkpt>
      <trkpt lat="44.18007" lon="5.50978">
        <ele>1082</ele>
        <time>2019-06-17T09:46:15Z</time>
      </trkpt>
      <trkpt lat="44.18014" lon="5.50966">
        <ele>1082</ele>
        <time>2019-06-17T09:46:16Z</time>
      </trkpt>
      <trkpt lat="44.18021" lon="5.50954">
        <ele>1081</ele>
        <time>2019-06-17T09:46:17Z</time>
      </trkpt>
      <trkpt lat="44.18028" lon="5.50942">
        <ele>1081</ele>
        <time>2019-06-17T09:46:18Z</time>
      </trkpt>
      <trkpt lat="44.18035" lon="5.50929">
        <ele>1080</ele>
        <time>2019-06-17T09:46:19Z</time>
      </trkpt>
      <trkpt lat="44.18042" lon="5.50918">
        <ele>1080</ele>
        <time>2019-06-17T09:46:20Z</time>
      </trkpt>
      <trkpt lat="44.18049" lon="5.50907">
        <ele>1079</ele>
        <time>2019-06-17T09:46:21Z</time>
      </trkpt>
      <trkpt lat="44.18057" lon="5.50897">
        <ele>1079</ele>
        <time>2019-06-17T09:46:22Z</time>
      </trkpt>
      <trkpt lat="44.18064" lon="5.50888">
        <ele>1078</ele>
        <time>2019-06-17T09:46:23Z</time>
      </trkpt>
      <trkpt lat="44.18072" lon="5.50883">
        <ele>1078</ele>
        <time>2019-06-17T09:46:24Z</time>
      </trkpt>
      <trkpt lat="44.18081" lon="5.5088">
        <ele>1077</ele>
        <time>2019-06-17T09:46:25Z</time>
      </trkpt>
      <trkpt lat="44.1809" lon="5.50883">
        <ele>1077</ele>
        <time>2019-06-17T09:46:26Z</time>
      </trkpt>
      <trkpt lat="44.18098" lon="5.50889">
        <ele>1076</ele>
        <time>2019-06-17T09:46:27Z</time>
      </trkpt>
      <trkpt lat="44.18106" lon="5.50896">
        <ele>1075</ele>
        <time>2019-06-17T09:46:28Z</time>
      </trkpt>
      <trkpt lat="44.18112" lon="5.50906">
        <ele>1074</ele>
        <time>2019-06-17T09:46:29Z</time>
      </trkpt>
      <trkpt lat="44.18117" lon="5.50916">
        <ele>1073</ele>
        <time>2019-06-17T09:46:30Z</time>
      </trkpt>
      <trkpt lat="44.18122" lon="5.50927">
        <ele>1073</ele>
        <time>2019-06-17T09:46:31Z</time>
      </trkpt>
      <trkpt lat="44.18128" lon="5.50937">
        <ele>1073</ele>
        <time>2019-06-17T09:46:32Z</time>
      </trkpt>
      <trkpt lat="44.18134" lon="5.50946">
        <ele>1072</ele>
        <time>2019-06-17T09:46:33Z</time>
      </trkpt>
      <trkpt lat="44.1814" lon="5.50954">
        <ele>1072</ele>
        <time>2019-06-17T09:46:34Z</time>
      </trkpt>
      <trkpt lat="44.18147" lon="5.50962">
        <ele>1072</ele>
        <time>2019-06-17T09:46:35Z</time>
      </trkpt>
      <trkpt lat="44.18152" lon="5.50968">
        <ele>1072</ele>
        <time>2019-06-17T09:46:36Z</time>
      </trkpt>
      <trkpt lat="44.18158" lon="5.50974">
        <ele>1071</ele>
        <time>2019-06-17T09:46:37Z</time>
      </trkpt>
      <trkpt lat="44.18164" lon="5.5098">
        <ele>1071</ele>
        <time>2019-06-17T09:46:38Z</time>
      </trkpt>
      <trkpt lat="44.1817" lon="5.50985">
        <ele>1071</ele>
        <time>2019-06-17T09:46:39Z</time>
      </trkpt>
      <trkpt lat="44.18176" lon="5.5099">
        <ele>1071</ele>
        <time>2019-06-17T09:46:40Z</time>
      </trkpt>
      <trkpt lat="44.18181" lon="5.50995">
        <ele>1071</ele>
        <time>2019-06-17T09:46:41Z</time>
      </trkpt>
      <trkpt lat="44.18185" lon="5.50999">
        <ele>1070</ele>
        <time>2019-06-17T09:46:42Z</time>
      </trkpt>
      <trkpt lat="44.18189" lon="5.51003">
        <ele>1070</ele>
        <time>2019-06-17T09:46:43Z</time>
      </trkpt>
      <trkpt lat="44.18193" lon="5.51006">
        <ele>1070</ele>
        <time>2019-06-17T09:46:44Z</time>
      </trkpt>
      <trkpt lat="44.18197" lon="5.51008">
        <ele>1070</ele>
        <time>2019-06-17T09:46:45Z</time>
      </trkpt>
      <trkpt lat="44.182" lon="5.51011">
        <ele>1070</ele>
        <time>2019-06-17T09:46:46Z</time>
      </trkpt>
      <trkpt lat="44.18204" lon="5.51013">
        <ele>1070</ele>
        <time>2019-06-17T09:46:47Z</time>
      </trkpt>
      <trkpt lat="44.18207" lon="5.51014">
        <ele>1070</ele>
        <time>2019-06-17T09:46:48Z</time>
      </trkpt>
      <trkpt lat="44.18211" lon="5.51016">
        <ele>1070</ele>
        <time>2019-06-17T09:46:49Z</time>
      </trkpt>
      <trkpt lat="44.18215" lon="5.51016">
        <ele>1070</ele>
        <time>2019-06-17T09:46:50Z</time>
      </trkpt>
      <trkpt lat="44.1822" lon="5.51015">
        <ele>1070</ele>
        <time>2019-06-17T09:46:51Z</time>
      </trkpt>
      <trkpt lat="44.18224" lon="5.51011">
        <ele>1070</ele>
        <time>2019-06-17T09:46:52Z</time>
      </trkpt>
      <trkpt lat="44.18228" lon="5.51006">
        <ele>1070</ele>
        <time>2019-06-17T09:46:53Z</time>
      </trkpt>
      <trkpt lat="44.18232" lon="5.50999">
        <ele>1070</ele>
        <time>2019-06-17T09:46:54Z</time>
      </trkpt>
      <trkpt lat="44.18236" lon="5.50991">
        <ele>1069</ele>
        <time>2019-06-17T09:46:55Z</time>
      </trkpt>
      <trkpt lat="44.1824" lon="5.50983">
        <ele>1069</ele>
        <time>2019-06-17T09:46:56Z</time>
      </trkpt>
      <trkpt lat="44.18245" lon="5.50975">
        <ele>1069</ele>
        <time>2019-06-17T09:46:57Z</time>
      </trkpt>
      <trkpt lat="44.18251" lon="5.50966">
        <ele>1069</ele>
        <time>2019-06-17T09:46:58Z</time>
      </trkpt>
      <trkpt lat="44.18256" lon="5.50957">
        <ele>1068</ele>
        <time>2019-06-17T09:46:59Z</time>
      </trkpt>
      <trkpt lat="44.18261" lon="5.50948">
        <ele>1068</ele>
        <time>2019-06-17T09:47:00Z</time>
      </trkpt>
      <trkpt lat="44.18267" lon="5.50939">
        <ele>1068</ele>
        <time>2019-06-17T09:47:01Z</time>
      </trkpt>
      <trkpt lat="44.18272" lon="5.5093">
        <ele>1067</ele>
        <time>2019-06-17T09:47:02Z</time>
      </trkpt>
      <trkpt lat="44.18278" lon="5.50921">
        <ele>1067</ele>
        <time>2019-06-17T09:47:03Z</time>
      </trkpt>
      <trkpt lat="44.18284" lon="5.50912">
        <ele>1067</ele>
        <time>2019-06-17T09:47:04Z</time>
      </trkpt>
      <trkpt lat="44.18291" lon="5.50903">
        <ele>1066</ele>
        <time>2019-06-17T09:47:05Z</time>
      </trkpt>
      <trkpt lat="44.18299" lon="5.50895">
        <ele>1066</ele>
        <time>2019-06-17T09:47:06Z</time>
      </trkpt>
      <trkpt lat="44.18307" lon="5.50888">
        <ele>1066</ele>
        <time>2019-06-17T09:47:07Z</time>
      </trkpt>
      <trkpt lat="44.18316" lon="5.50883">
        <ele>1066</ele>
        <time>2019-06-17T09:47:08Z</time>
      </trkpt>
      <trkpt lat="44.18325" lon="5.50878">
        <ele>1065</ele>
        <time>2019-06-17T09:47:09Z</time>
      </trkpt>
      <trkpt lat="44.18333" lon="5.50872">
        <ele>1065</ele>
        <time>2019-06-17T09:47:10Z</time>
      </trkpt>
      <trkpt lat="44.18342" lon="5.50867">
        <ele>1065</ele>
        <time>2019-06-17T09:47:11Z</time>
      </trkpt>
      <trkpt lat="44.18351" lon="5.50861">
        <ele>1064</ele>
        <time>2019-06-17T09:47:12Z</time>
      </trkpt>
      <trkpt lat="44.1836" lon="5.50854">
        <ele>1064</ele>
        <time>2019-06-17T09:47:13Z</time>
      </trkpt>
      <trkpt lat="44.18369" lon="5.50847">
        <ele>1063</ele>
        <time>2019-06-17T09:47:14Z</time>
      </trkpt>
      <trkpt lat="44.18377" lon="5.50838">
        <ele>1063</ele>
        <time>2019-06-17T09:47:15Z</time>
      </trkpt>
      <trkpt lat="44.18384" lon="5.50828">
        <ele>1062</ele>
        <time>2019-06-17T09:47:16Z</time>
      </trkpt>
      <trkpt lat="44.18391" lon="5.50817">
        <ele>1062</ele>
        <time>2019-06-17T09:47:17Z</time>
      </trkpt>
      <trkpt lat="44.18398" lon="5.50805">
        <ele>1061</ele>
        <time>2019-06-17T09:47:18Z</time>
      </trkpt>
      <trkpt lat="44.18404" lon="5.50793">
        <ele>1060</ele>
        <time>2019-06-17T09:47:19Z</time>
      </trkpt>
      <trkpt lat="44.1841" lon="5.50781">
        <ele>1060</ele>
        <time>2019-06-17T09:47:20Z</time>
      </trkpt>
      <trkpt lat="44.18416" lon="5.50771">
        <ele>1059</ele>
        <time>2019-06-17T09:47:21Z</time>
      </trkpt>
      <trkpt lat="44.18423" lon="5.50761">
        <ele>1058</ele>
        <time>2019-06-17T09:47:22Z</time>
      </trkpt>
      <trkpt lat="44.1843" lon="5.50754">
        <ele>1058</ele>
        <time>2019-06-17T09:47:23Z</time>
      </trkpt>
      <trkpt lat="44.18438" lon="5.50748">
        <ele>1057</ele>
        <time>2019-06-17T09:47:24Z</time>
      </trkpt>
      <trkpt lat="44.18447" lon="5.50745">
        <ele>1056</ele>
        <time>2019-06-17T09:47:25Z</time>
      </trkpt>
      <trkpt lat="44.18456" lon="5.50746">
        <ele>1055</ele>
        <time>2019-06-17T09:47:26Z</time>
      </trkpt>
      <trkpt lat="44.18464" lon="5.5075">
        <ele>1055</ele>
        <time>2019-06-17T09:47:27Z</time>
      </trkpt>
      <trkpt lat="44.18472" lon="5.50757">
        <ele>1054</ele>
        <time>2019-06-17T09:47:28Z</time>
      </trkpt>
      <trkpt lat="44.1848" lon="5.50765">
        <ele>1053</ele>
        <time>2019-06-17T09:47:29Z</time>
      </trkpt>
      <trkpt lat="44.18486" lon="5.50774">
        <ele>1052</ele>
        <time>2019-06-17T09:47:30Z</time>
      </trkpt>
      <trkpt lat="44.18492" lon="5.50784">
        <ele>1051</ele>
        <time>2019-06-17T09:47:31Z</time>
      </trkpt>
      <trkpt lat="44.18497" lon="5.50795">
        <ele>1050</ele>
        <time>2019-06-17T09:47:32Z</time>
      </trkpt>
      <trkpt lat="44.18503" lon="5.50807">
        <ele>1049</ele>
        <time>2019-06-17T09:47:33Z</time>
      </trkpt>
      <trkpt lat="44.18509" lon="5.5082">
        <ele>1048</ele>
        <time>2019-06-17T09:47:34Z</time>
      </trkpt>
      <trkpt lat="44.18514" lon="5.50834">
        <ele>1047</ele>
        <time>2019-06-17T09:47:35Z</time>
      </trkpt>
      <trkpt lat="44.1852" lon="5.50848">
        <ele>1046</ele>
        <time>2019-06-17T09:47:36Z</time>
      </trkpt>
      <trkpt lat="44.18525" lon="5.50862">
        <ele>1045</ele>
        <time>2019-06-17T09:47:37Z</time>
      </trkpt>
      <trkpt lat="44.18532" lon="5.50876">
        <ele>1045</ele>
        <time>2019-06-17T09:47:38Z</time>
      </trkpt>
      <trkpt lat="44.18538" lon="5.50888">
        <ele>1044</ele>
        <time>2019-06-17T09:47:39Z</time>
      </trkpt>
      <trkpt lat="44.18546" lon="5.50901">
        <ele>1044</ele>
        <time>2019-06-17T09:47:40Z</time>
      </trkpt>
      <trkpt lat="44.18554" lon="5.50913">
        <ele>1043</ele>
        <time>2019-06-17T09:47:41Z</time>
      </trkpt>
      <trkpt lat="44.18563" lon="5.50925">
        <ele>1042</ele>
        <time>2019-06-17T09:47:42Z</time>
      </trkpt>
      <trkpt lat="44.18572" lon="5.50938">
        <ele>1042</ele>
        <time>2019-06-17T09:47:43Z</time>
      </trkpt>
      <trkpt lat="44.18581" lon="5.5095">
        <ele>1042</ele>
        <time>2019-06-17T09:47:44Z</time>
      </trkpt>
      <trkpt lat="44.18588" lon="5.50963">
        <ele>1041</ele>
        <time>2019-06-17T09:47:45Z</time>
      </trkpt>
      <trkpt lat="44.18595" lon="5.50975">
        <ele>1040</ele>
        <time>2019-06-17T09:47:46Z</time>
      </trkpt>
      <trkpt lat="44.18601" lon="5.50988">
        <ele>1039</ele>
        <time>2019-06-17T09:47:47Z</time>
      </trkpt>
      <trkpt lat="44.18605" lon="5.50999">
        <ele>1038</ele>
        <time>2019-06-17T09:47:48Z</time>
      </trkpt>
      <trkpt lat="44.18609" lon="5.51011">
        <ele>1037</ele>
        <time>2019-06-17T09:47:49Z</time>
      </trkpt>
      <trkpt lat="44.18607" lon="5.51022">
        <ele>1036</ele>
        <time>2019-06-17T09:47:50Z</time>
      </trkpt>
      <trkpt lat="44.18603" lon="5.51034">
        <ele>1035</ele>
        <time>2019-06-17T09:47:51Z</time>
      </trkpt>
      <trkpt lat="44.18597" lon="5.51044">
        <ele>1034</ele>
        <time>2019-06-17T09:47:52Z</time>
      </trkpt>
      <trkpt lat="44.18592" lon="5.51055">
        <ele>1033</ele>
        <time>2019-06-17T09:47:53Z</time>
      </trkpt>
      <trkpt lat="44.18587" lon="5.51066">
        <ele>1033</ele>
        <time>2019-06-17T09:47:54Z</time>
      </trkpt>
      <trkpt lat="44.18583" lon="5.51078">
        <ele>1033</ele>
        <time>2019-06-17T09:47:55Z</time>
      </trkpt>
      <trkpt lat="44.1858" lon="5.5109">
        <ele>1033</ele>
        <time>2019-06-17T09:47:56Z</time>
      </trkpt>
      <trkpt lat="44.18579" lon="5.51102">
        <ele>1032</ele>
        <time>2019-06-17T09:47:57Z</time>
      </trkpt>
      <trkpt lat="44.1858" lon="5.51115">
        <ele>1032</ele>
        <time>2019-06-17T09:47:58Z</time>
      </trkpt>
      <trkpt lat="44.18583" lon="5.51126">
        <ele>1032</ele>
        <time>2019-06-17T09:47:59Z</time>
      </trkpt>
      <trkpt lat="44.18591" lon="5.51138">
        <ele>1031</ele>
        <time>2019-06-17T09:48:00Z</time>
      </trkpt>
      <trkpt lat="44.18597" lon="5.5115">
        <ele>1030</ele>
        <time>2019-06-17T09:48:01Z</time>
      </trkpt>
      <trkpt lat="44.18601" lon="5.51162">
        <ele>1029</ele>
        <time>2019-06-17T09:48:02Z</time>
      </trkpt>
      <trkpt lat="44.18603" lon="5.51175">
        <ele>1029</ele>
        <time>2019-06-17T09:48:03Z</time>
      </trkpt>
      <trkpt lat="44.18602" lon="5.51188">
        <ele>1028</ele>
        <time>2019-06-17T09:48:04Z</time>
      </trkpt>
      <trkpt lat="44.18602" lon="5.51201">
        <ele>1028</ele>
        <time>2019-06-17T09:48:05Z</time>
      </trkpt>
      <trkpt lat="44.186" lon="5.51215">
        <ele>1027</ele>
        <time>2019-06-17T09:48:06Z</time>
      </trkpt>
      <trkpt lat="44.18596" lon="5.51228">
        <ele>1027</ele>
        <time>2019-06-17T09:48:07Z</time>
      </trkpt>
      <trkpt lat="44.18593" lon="5.5124">
        <ele>1026</ele>
        <time>2019-06-17T09:48:08Z</time>
      </trkpt>
      <trkpt lat="44.18589" lon="5.51252">
        <ele>1026</ele>
        <time>2019-06-17T09:48:09Z</time>
      </trkpt>
      <trkpt lat="44.18585" lon="5.51264">
        <ele>1026</ele>
        <time>2019-06-17T09:48:10Z</time>
      </trkpt>
      <trkpt lat="44.18581" lon="5.51277">
        <ele>1026</ele>
        <time>2019-06-17T09:48:11Z</time>
      </trkpt>
      <trkpt lat="44.18577" lon="5.51288">
        <ele>1025</ele>
        <time>2019-06-17T09:48:12Z</time>
      </trkpt>
      <trkpt lat="44.18573" lon="5.51299">
        <ele>1025</ele>
        <time>2019-06-17T09:48:13Z</time>
      </trkpt>
      <trkpt lat="44.18568" lon="5.51311">
        <ele>1024</ele>
        <time>2019-06-17T09:48:14Z</time>
      </trkpt>
      <trkpt lat="44.18565" lon="5.51322">
        <ele>1024</ele>
        <time>2019-06-17T09:48:15Z</time>
      </trkpt>
      <trkpt lat="44.1856" lon="5.51333">
        <ele>1023</ele>
        <time>2019-06-17T09:48:16Z</time>
      </trkpt>
      <trkpt lat="44.18557" lon="5.51344">
        <ele>1023</ele>
        <time>2019-06-17T09:48:17Z</time>
      </trkpt>
      <trkpt lat="44.18553" lon="5.51356">
        <ele>1023</ele>
        <time>2019-06-17T09:48:18Z</time>
      </trkpt>
      <trkpt lat="44.1855" lon="5.51368">
        <ele>1022</ele>
        <time>2019-06-17T09:48:19Z</time>
      </trkpt>
      <trkpt lat="44.18546" lon="5.51379">
        <ele>1022</ele>
        <time>2019-06-17T09:48:20Z</time>
      </trkpt>
      <trkpt lat="44.18542" lon="5.5139">
        <ele>1021</ele>
        <time>2019-06-17T09:48:21Z</time>
      </trkpt>
      <trkpt lat="44.18538" lon="5.51401">
        <ele>1021</ele>
        <time>2019-06-17T09:48:22Z</time>
      </trkpt>
      <trkpt lat="44.18534" lon="5.51411">
        <ele>1020</ele>
        <time>2019-06-17T09:48:23Z</time>
      </trkpt>
      <trkpt lat="44.1853" lon="5.51422">
        <ele>1019</ele>
        <time>2019-06-17T09:48:24Z</time>
      </trkpt>
      <trkpt lat="44.18526" lon="5.51433">
        <ele>1019</ele>
        <time>2019-06-17T09:48:25Z</time>
      </trkpt>
      <trkpt lat="44.18523" lon="5.51444">
        <ele>1018</ele>
        <time>2019-06-17T09:48:26Z</time>
      </trkpt>
      <trkpt lat="44.1852" lon="5.51456">
        <ele>1017</ele>
        <time>2019-06-17T09:48:27Z</time>
      </trkpt>
      <trkpt lat="44.18517" lon="5.51468">
        <ele>1017</ele>
        <time>2019-06-17T09:48:28Z</time>
      </trkpt>
      <trkpt lat="44.18514" lon="5.51479">
        <ele>1016</ele>
        <time>2019-06-17T09:48:29Z</time>
      </trkpt>
      <trkpt lat="44.18512" lon="5.51489">
        <ele>1016</ele>
        <time>2019-06-17T09:48:30Z</time>
      </trkpt>
      <trkpt lat="44.18509" lon="5.51499">
        <ele>1015</ele>
        <time>2019-06-17T09:48:31Z</time>
      </trkpt>
      <trkpt lat="44.18507" lon="5.51509">
        <ele>1015</ele>
        <time>2019-06-17T09:48:32Z</time>
      </trkpt>
      <trkpt lat="44.18504" lon="5.51518">
        <ele>1014</ele>
        <time>2019-06-17T09:48:33Z</time>
      </trkpt>
      <trkpt lat="44.18501" lon="5.51527">
        <ele>1013</ele>
        <time>2019-06-17T09:48:34Z</time>
      </trkpt>
      <trkpt lat="44.18497" lon="5.51533">
        <ele>1013</ele>
        <time>2019-06-17T09:48:35Z</time>
      </trkpt>
      <trkpt lat="44.18492" lon="5.51535">
        <ele>1012</ele>
        <time>2019-06-17T09:48:36Z</time>
      </trkpt>
      <trkpt lat="44.18488" lon="5.51533">
        <ele>1012</ele>
        <time>2019-06-17T09:48:37Z</time>
      </trkpt>
      <trkpt lat="44.18485" lon="5.51527">
        <ele>1011</ele>
        <time>2019-06-17T09:48:38Z</time>
      </trkpt>
      <trkpt lat="44.18485" lon="5.51519">
        <ele>1011</ele>
        <time>2019-06-17T09:48:39Z</time>
      </trkpt>
      <trkpt lat="44.18489" lon="5.51512">
        <ele>1011</ele>
        <time>2019-06-17T09:48:40Z</time>
      </trkpt>
      <trkpt lat="44.18492" lon="5.51504">
        <ele>1010</ele>
        <time>2019-06-17T09:48:41Z</time>
      </trkpt>
      <trkpt lat="44.18495" lon="5.51496">
        <ele>1010</ele>
        <time>2019-06-17T09:48:42Z</time>
      </trkpt>
      <trkpt lat="44.18497" lon="5.51487">
        <ele>1010</ele>
        <time>2019-06-17T09:48:43Z</time>
      </trkpt>
      <trkpt lat="44.18498" lon="5.51477">
        <ele>1009</ele>
        <time>2019-06-17T09:48:44Z</time>
      </trkpt>
      <trkpt lat="44.18499" lon="5.51468">
        <ele>1009</ele>
        <time>2019-06-17T09:48:45Z</time>
      </trkpt>
      <trkpt lat="44.18499" lon="5.51457">
        <ele>1009</ele>
        <time>2019-06-17T09:48:46Z</time>
      </trkpt>
      <trkpt lat="44.18499" lon="5.51447">
        <ele>1009</ele>
        <time>2019-06-17T09:48:47Z</time>
      </trkpt>
      <trkpt lat="44.185" lon="5.51436">
        <ele>1009</ele>
        <time>2019-06-17T09:48:48Z</time>
      </trkpt>
      <trkpt lat="44.18501" lon="5.51424">
        <ele>1009</ele>
        <time>2019-06-17T09:48:49Z</time>
      </trkpt>
      <trkpt lat="44.18502" lon="5.51413">
        <ele>1009</ele>
        <time>2019-06-17T09:48:50Z</time>
      </trkpt>
      <trkpt lat="44.18505" lon="5.51401">
        <ele>1009</ele>
        <time>2019-06-17T09:48:51Z</time>
      </trkpt>
      <trkpt lat="44.18507" lon="5.51388">
        <ele>1009</ele>
        <time>2019-06-17T09:48:52Z</time>
      </trkpt>
      <trkpt lat="44.1851" lon="5.51375">
        <ele>1008</ele>
        <time>2019-06-17T09:48:53Z</time>
      </trkpt>
      <trkpt lat="44.18511" lon="5.51361">
        <ele>1008</ele>
        <time>2019-06-17T09:48:54Z</time>
      </trkpt>
      <trkpt lat="44.18511" lon="5.51348">
        <ele>1007</ele>
        <time>2019-06-17T09:48:55Z</time>
      </trkpt>
      <trkpt lat="44.18509" lon="5.51334">
        <ele>1006</ele>
        <time>2019-06-17T09:48:56Z</time>
      </trkpt>
      <trkpt lat="44.18505" lon="5.51321">
        <ele>1005</ele>
        <time>2019-06-17T09:48:57Z</time>
      </trkpt>
      <trkpt lat="44.18502" lon="5.51309">
        <ele>1004</ele>
        <time>2019-06-17T09:48:58Z</time>
      </trkpt>
      <trkpt lat="44.18499" lon="5.51298">
        <ele>1003</ele>
        <time>2019-06-17T09:48:59Z</time>
      </trkpt>
      <trkpt lat="44.18496" lon="5.51287">
        <ele>1003</ele>
        <time>2019-06-17T09:49:00Z</time>
      </trkpt>
      <trkpt lat="44.18493" lon="5.51277">
        <ele>1002</ele>
        <time>2019-06-17T09:49:01Z</time>
      </trkpt>
      <trkpt lat="44.18489" lon="5.5127">
        <ele>1001</ele>
        <time>2019-06-17T09:49:02Z</time>
      </trkpt>
      <trkpt lat="44.18484" lon="5.51266">
        <ele>1001</ele>
        <time>2019-06-17T09:49:03Z</time>
      </trkpt>
      <trkpt lat="44.18478" lon="5.51267">
        <ele>1000</ele>
        <time>2019-06-17T09:49:04Z</time>
      </trkpt>
      <trkpt lat="44.18473" lon="5.51273">
        <ele>999</ele>
        <time>2019-06-17T09:49:05Z</time>
      </trkpt>
      <trkpt lat="44.18469" lon="5.51283">
        <ele>999</ele>
        <time>2019-06-17T09:49:06Z</time>
      </trkpt>
      <trkpt lat="44.18467" lon="5.51296">
        <ele>999</ele>
        <time>2019-06-17T09:49:07Z</time>
      </trkpt>
      <trkpt lat="44.18464" lon="5.51307">
        <ele>999</ele>
        <time>2019-06-17T09:49:08Z</time>
      </trkpt>
      <trkpt lat="44.18462" lon="5.51319">
        <ele>999</ele>
        <time>2019-06-17T09:49:09Z</time>
      </trkpt>
      <trkpt lat="44.1846" lon="5.5133">
        <ele>999</ele>
        <time>2019-06-17T09:49:10Z</time>
      </trkpt>
      <trkpt lat="44.18458" lon="5.51342">
        <ele>999</ele>
        <time>2019-06-17T09:49:11Z</time>
      </trkpt>
      <trkpt lat="44.18456" lon="5.51354">
        <ele>999</ele>
        <time>2019-06-17T09:49:12Z</time>
      </trkpt>
      <trkpt lat="44.18453" lon="5.51366">
        <ele>999</ele>
        <time>2019-06-17T09:49:13Z</time>
      </trkpt>
      <trkpt lat="44.1845" lon="5.51378">
        <ele>999</ele>
        <time>2019-06-17T09:49:14Z</time>
      </trkpt>
      <trkpt lat="44.18447" lon="5.5139">
        <ele>999</ele>
        <time>2019-06-17T09:49:15Z</time>
      </trkpt>
      <trkpt lat="44.18442" lon="5.51401">
        <ele>999</ele>
        <time>2019-06-17T09:49:16Z</time>
      </trkpt>
      <trkpt lat="44.18436" lon="5.5141">
        <ele>998</ele>
        <time>2019-06-17T09:49:17Z</time>
      </trkpt>
      <trkpt lat="44.1843" lon="5.51419">
        <ele>997</ele>
        <time>2019-06-17T09:49:18Z</time>
      </trkpt>
      <trkpt lat="44.18423" lon="5.51429">
        <ele>996</ele>
        <time>2019-06-17T09:49:19Z</time>
      </trkpt>
      <trkpt lat="44.18417" lon="5.51439">
        <ele>995</ele>
        <time>2019-06-17T09:49:20Z</time>
      </trkpt>
      <trkpt lat="44.18411" lon="5.51449">
        <ele>994</ele>
        <time>2019-06-17T09:49:21Z</time>
      </trkpt>
      <trkpt lat="44.18404" lon="5.5146">
        <ele>993</ele>
        <time>2019-06-17T09:49:22Z</time>
      </trkpt>
      <trkpt lat="44.18397" lon="5.51472">
        <ele>993</ele>
        <time>2019-06-17T09:49:23Z</time>
      </trkpt>
      <trkpt lat="44.18392" lon="5.51484">
        <ele>993</ele>
        <time>2019-06-17T09:49:24Z</time>
      </trkpt>
      <trkpt lat="44.18387" lon="5.51497">
        <ele>993</ele>
        <time>2019-06-17T09:49:25Z</time>
      </trkpt>
      <trkpt lat="44.18383" lon="5.51509">
        <ele>992</ele>
        <time>2019-06-17T09:49:26Z</time>
      </trkpt>
      <trkpt lat="44.1838" lon="5.51522">
        <ele>992</ele>
        <time>2019-06-17T09:49:27Z</time>
      </trkpt>
      <trkpt lat="44.18378" lon="5.51535">
        <ele>992</ele>
        <time>2019-06-17T09:49:28Z</time>
      </trkpt>
      <trkpt lat="44.18376" lon="5.51548">
        <ele>991</ele>
        <time>2019-06-17T09:49:29Z</time>
      </trkpt>
      <trkpt lat="44.18375" lon="5.51562">
        <ele>991</ele>
        <time>2019-06-17T09:49:30Z</time>
      </trkpt>
      <trkpt lat="44.18374" lon="5.51576">
        <ele>990</ele>
        <time>2019-06-17T09:49:31Z</time>
      </trkpt>
      <trkpt lat="44.18373" lon="5.51589">
        <ele>990</ele>
        <time>2019-06-17T09:49:32Z</time>
      </trkpt>
      <trkpt lat="44.18372" lon="5.51602">
        <ele>989</ele>
        <time>2019-06-17T09:49:33Z</time>
      </trkpt>
      <trkpt lat="44.18371" lon="5.51615">
        <ele>988</ele>
        <time>2019-06-17T09:49:34Z</time>
      </trkpt>
      <trkpt lat="44.1837" lon="5.51628">
        <ele>988</ele>
        <time>2019-06-17T09:49:35Z</time>
      </trkpt>
      <trkpt lat="44.18369" lon="5.51642">
        <ele>987</ele>
        <time>2019-06-17T09:49:36Z</time>
      </trkpt>
      <trkpt lat="44.18368" lon="5.51656">
        <ele>986</ele>
        <time>2019-06-17T09:49:37Z</time>
      </trkpt>
      <trkpt lat="44.18366" lon="5.51671">
        <ele>986</ele>
        <time>2019-06-17T09:49:38Z</time>
      </trkpt>
      <trkpt lat="44.18364" lon="5.51685">
        <ele>986</ele>
        <time>2019-06-17T09:49:39Z</time>
      </trkpt>
      <trkpt lat="44.18361" lon="5.51699">
        <ele>985</ele>
        <time>2019-06-17T09:49:40Z</time>
      </trkpt>
      <trkpt lat="44.18356" lon="5.51712">
        <ele>985</ele>
        <time>2019-06-17T09:49:41Z</time>
      </trkpt>
      <trkpt lat="44.18352" lon="5.51724">
        <ele>984</ele>
        <time>2019-06-17T09:49:42Z</time>
      </trkpt>
      <trkpt lat="44.18348" lon="5.51736">
        <ele>984</ele>
        <time>2019-06-17T09:49:43Z</time>
      </trkpt>
      <trkpt lat="44.18342" lon="5.51747">
        <ele>983</ele>
        <time>2019-06-17T09:49:44Z</time>
      </trkpt>
      <trkpt lat="44.18335" lon="5.51758">
        <ele>983</ele>
        <time>2019-06-17T09:49:45Z</time>
      </trkpt>
      <trkpt lat="44.18329" lon="5.51768">
        <ele>982</ele>
        <time>2019-06-17T09:49:46Z</time>
      </trkpt>
      <trkpt lat="44.18322" lon="5.51778">
        <ele>981</ele>
        <time>2019-06-17T09:49:47Z</time>
      </trkpt>
      <trkpt lat="44.18314" lon="5.51788">
        <ele>980</ele>
        <time>2019-06-17T09:49:48Z</time>
      </trkpt>
      <trkpt lat="44.18307" lon="5.51797">
        <ele>979</ele>
        <time>2019-06-17T09:49:49Z</time>
      </trkpt>
      <trkpt lat="44.183" lon="5.51806">
        <ele>978</ele>
        <time>2019-06-17T09:49:50Z</time>
      </trkpt>
      <trkpt lat="44.18293" lon="5.51815">
        <ele>977</ele>
        <time>2019-06-17T09:49:51Z</time>
      </trkpt>
      <trkpt lat="44.18285" lon="5.51824">
        <ele>976</ele>
        <time>2019-06-17T09:49:52Z</time>
      </trkpt>
      <trkpt lat="44.1828" lon="5.51835">
        <ele>976</ele>
        <time>2019-06-17T09:49:53Z</time>
      </trkpt>
      <trkpt lat="44.18276" lon="5.51846">
        <ele>976</ele>
        <time>2019-06-17T09:49:54Z</time>
      </trkpt>
      <trkpt lat="44.18274" lon="5.5186">
        <ele>976</ele>
        <time>2019-06-17T09:49:55Z</time>
      </trkpt>
      <trkpt lat="44.18278" lon="5.51874">
        <ele>975</ele>
        <time>2019-06-17T09:49:56Z</time>
      </trkpt>
      <trkpt lat="44.18286" lon="5.5189">
        <ele>975</ele>
        <time>2019-06-17T09:49:57Z</time>
      </trkpt>
      <trkpt lat="44.18293" lon="5.51904">
        <ele>974</ele>
        <time>2019-06-17T09:49:58Z</time>
      </trkpt>
      <trkpt lat="44.18301" lon="5.51916">
        <ele>973</ele>
        <time>2019-06-17T09:49:59Z</time>
      </trkpt>
      <trkpt lat="44.18307" lon="5.51927">
        <ele>972</ele>
        <time>2019-06-17T09:50:00Z</time>
      </trkpt>
      <trkpt lat="44.18314" lon="5.51937">
        <ele>971</ele>
        <time>2019-06-17T09:50:01Z</time>
      </trkpt>
      <trkpt lat="44.1832" lon="5.51948">
        <ele>970</ele>
        <time>2019-06-17T09:50:02Z</time>
      </trkpt>
      <trkpt lat="44.18326" lon="5.51959">
        <ele>970</ele>
        <time>2019-06-17T09:50:03Z</time>
      </trkpt>
      <trkpt lat="44.18331" lon="5.5197">
        <ele>969</ele>
        <time>2019-06-17T09:50:04Z</time>
      </trkpt>
      <trkpt lat="44.18336" lon="5.51981">
        <ele>969</ele>
        <time>2019-06-17T09:50:05Z</time>
      </trkpt>
      <trkpt lat="44.1834" lon="5.51994">
        <ele>968</ele>
        <time>2019-06-17T09:50:06Z</time>
      </trkpt>
      <trkpt lat="44.18343" lon="5.52006">
        <ele>967</ele>
        <time>2019-06-17T09:50:07Z</time>
      </trkpt>
      <trkpt lat="44.18347" lon="5.52019">
        <ele>967</ele>
        <time>2019-06-17T09:50:08Z</time>
      </trkpt>
      <trkpt lat="44.1835" lon="5.52033">
        <ele>966</ele>
        <time>2019-06-17T09:50:09Z</time>
      </trkpt>
      <trkpt lat="44.18353" lon="5.52045">
        <ele>966</ele>
        <time>2019-06-17T09:50:10Z</time>
      </trkpt>
      <trkpt lat="44.18356" lon="5.52058">
        <ele>965</ele>
        <time>2019-06-17T09:50:11Z</time>
      </trkpt>
      <trkpt lat="44.18358" lon="5.5207">
        <ele>965</ele>
        <time>2019-06-17T09:50:12Z</time>
      </trkpt>
      <trkpt lat="44.18359" lon="5.52082">
        <ele>964</ele>
        <time>2019-06-17T09:50:13Z</time>
      </trkpt>
      <trkpt lat="44.18359" lon="5.52095">
        <ele>964</ele>
        <time>2019-06-17T09:50:14Z</time>
      </trkpt>
      <trkpt lat="44.18356" lon="5.52108">
        <ele>963</ele>
        <time>2019-06-17T09:50:15Z</time>
      </trkpt>
      <trkpt lat="44.18352" lon="5.5212">
        <ele>963</ele>
        <time>2019-06-17T09:50:16Z</time>
      </trkpt>
      <trkpt lat="44.18348" lon="5.52132">
        <ele>963</ele>
        <time>2019-06-17T09:50:17Z</time>
      </trkpt>
      <trkpt lat="44.18342" lon="5.52144">
        <ele>963</ele>
        <time>2019-06-17T09:50:18Z</time>
      </trkpt>
      <trkpt lat="44.18335" lon="5.52157">
        <ele>962</ele>
        <time>2019-06-17T09:50:19Z</time>
      </trkpt>
      <trkpt lat="44.1833" lon="5.52168">
        <ele>962</ele>
        <time>2019-06-17T09:50:20Z</time>
      </trkpt>
      <trkpt lat="44.18324" lon="5.52181">
        <ele>962</ele>
        <time>2019-06-17T09:50:21Z</time>
      </trkpt>
      <trkpt lat="44.18317" lon="5.52193">
        <ele>961</ele>
        <time>2019-06-17T09:50:22Z</time>
      </trkpt>
      <trkpt lat="44.18311" lon="5.52206">
        <ele>961</ele>
        <time>2019-06-17T09:50:23Z</time>
      </trkpt>
      <trkpt lat="44.18305" lon="5.52218">
        <ele>960</ele>
        <time>2019-06-17T09:50:24Z</time>
      </trkpt>
      <trkpt lat="44.18299" lon="5.5223">
        <ele>960</ele>
        <time>2019-06-17T09:50:25Z</time>
      </trkpt>
      <trkpt lat="44.18294" lon="5.52244">
        <ele>959</ele>
        <time>2019-06-17T09:50:26Z</time>
      </trkpt>
      <trkpt lat="44.1829" lon="5.52257">
        <ele>959</ele>
        <time>2019-06-17T09:50:27Z</time>
      </trkpt>
      <trkpt lat="44.18287" lon="5.52271">
        <ele>959</ele>
        <time>2019-06-17T09:50:28Z</time>
      </trkpt>
      <trkpt lat="44.18284" lon="5.52283">
        <ele>959</ele>
        <time>2019-06-17T09:50:29Z</time>
      </trkpt>
      <trkpt lat="44.18283" lon="5.52296">
        <ele>958</ele>
        <time>2019-06-17T09:50:30Z</time>
      </trkpt>
      <trkpt lat="44.18282" lon="5.5231">
        <ele>958</ele>
        <time>2019-06-17T09:50:31Z</time>
      </trkpt>
      <trkpt lat="44.18283" lon="5.52324">
        <ele>957</ele>
        <time>2019-06-17T09:50:32Z</time>
      </trkpt>
      <trkpt lat="44.18282" lon="5.52337">
        <ele>956</ele>
        <time>2019-06-17T09:50:33Z</time>
      </trkpt>
      <trkpt lat="44.18281" lon="5.5235">
        <ele>955</ele>
        <time>2019-06-17T09:50:34Z</time>
      </trkpt>
      <trkpt lat="44.18279" lon="5.52363">
        <ele>954</ele>
        <time>2019-06-17T09:50:35Z</time>
      </trkpt>
      <trkpt lat="44.18276" lon="5.52374">
        <ele>953</ele>
        <time>2019-06-17T09:50:36Z</time>
      </trkpt>
      <trkpt lat="44.18272" lon="5.52385">
        <ele>952</ele>
        <time>2019-06-17T09:50:37Z</time>
      </trkpt>
      <trkpt lat="44.18269" lon="5.52398">
        <ele>951</ele>
        <time>2019-06-17T09:50:38Z</time>
      </trkpt>
      <trkpt lat="44.18266" lon="5.5241">
        <ele>950</ele>
        <time>2019-06-17T09:50:39Z</time>
      </trkpt>
      <trkpt lat="44.18262" lon="5.52423">
        <ele>949</ele>
        <time>2019-06-17T09:50:40Z</time>
      </trkpt>
      <trkpt lat="44.18259" lon="5.52438">
        <ele>948</ele>
        <time>2019-06-17T09:50:41Z</time>
      </trkpt>
      <trkpt lat="44.18256" lon="5.52452">
        <ele>947</ele>
        <time>2019-06-17T09:50:42Z</time>
      </trkpt>
      <trkpt lat="44.18255" lon="5.52466">
        <ele>946</ele>
        <time>2019-06-17T09:50:43Z</time>
      </trkpt>
      <trkpt lat="44.18254" lon="5.52481">
        <ele>945</ele>
        <time>2019-06-17T09:50:44Z</time>
      </trkpt>
      <trkpt lat="44.18254" lon="5.52495">
        <ele>945</ele>
        <time>2019-06-17T09:50:45Z</time>
      </trkpt>
      <trkpt lat="44.18254" lon="5.5251">
        <ele>944</ele>
        <time>2019-06-17T09:50:46Z</time>
      </trkpt>
      <trkpt lat="44.18256" lon="5.52524">
        <ele>943</ele>
        <time>2019-06-17T09:50:47Z</time>
      </trkpt>
      <trkpt lat="44.18258" lon="5.52538">
        <ele>942</ele>
        <time>2019-06-17T09:50:48Z</time>
      </trkpt>
      <trkpt lat="44.1826" lon="5.52553">
        <ele>941</ele>
        <time>2019-06-17T09:50:49Z</time>
      </trkpt>
      <trkpt lat="44.18261" lon="5.52567">
        <ele>940</ele>
        <time>2019-06-17T09:50:50Z</time>
      </trkpt>
      <trkpt lat="44.18262" lon="5.52582">
        <ele>939</ele>
        <time>2019-06-17T09:50:51Z</time>
      </trkpt>
      <trkpt lat="44.18263" lon="5.52596">
        <ele>939</ele>
        <time>2019-06-17T09:50:52Z</time>
      </trkpt>
      <trkpt lat="44.18264" lon="5.5261">
        <ele>938</ele>
        <time>2019-06-17T09:50:53Z</time>
      </trkpt>
      <trkpt lat="44.18267" lon="5.52625">
        <ele>938</ele>
        <time>2019-06-17T09:50:54Z</time>
      </trkpt>
      <trkpt lat="44.1827" lon="5.52638">
        <ele>937</ele>
        <time>2019-06-17T09:50:55Z</time>
      </trkpt>
      <trkpt lat="44.18273" lon="5.52652">
        <ele>937</ele>
        <time>2019-06-17T09:50:56Z</time>
      </trkpt>
      <trkpt lat="44.18276" lon="5.52665">
        <ele>936</ele>
        <time>2019-06-17T09:50:57Z</time>
      </trkpt>
      <trkpt lat="44.1828" lon="5.52677">
        <ele>936</ele>
        <time>2019-06-17T09:50:58Z</time>
      </trkpt>
      <trkpt lat="44.18286" lon="5.52689">
        <ele>935</ele>
        <time>2019-06-17T09:50:59Z</time>
      </trkpt>
      <trkpt lat="44.18294" lon="5.52698">
        <ele>934</ele>
        <time>2019-06-17T09:51:00Z</time>
      </trkpt>
      <trkpt lat="44.18303" lon="5.52706">
        <ele>933</ele>
        <time>2019-06-17T09:51:01Z</time>
      </trkpt>
      <trkpt lat="44.18311" lon="5.52713">
        <ele>933</ele>
        <time>2019-06-17T09:51:02Z</time>
      </trkpt>
      <trkpt lat="44.1832" lon="5.52722">
        <ele>932</ele>
        <time>2019-06-17T09:51:03Z</time>
      </trkpt>
      <trkpt lat="44.18329" lon="5.52733">
        <ele>931</ele>
        <time>2019-06-17T09:51:04Z</time>
      </trkpt>
      <trkpt lat="44.18337" lon="5.52744">
        <ele>930</ele>
        <time>2019-06-17T09:51:05Z</time>
      </trkpt>
      <trkpt lat="44.18344" lon="5.52756">
        <ele>929</ele>
        <time>2019-06-17T09:51:06Z</time>
      </trkpt>
      <trkpt lat="44.1835" lon="5.52768">
        <ele>928</ele>
        <time>2019-06-17T09:51:07Z</time>
      </trkpt>
      <trkpt lat="44.18355" lon="5.52782">
        <ele>928</ele>
        <time>2019-06-17T09:51:08Z</time>
      </trkpt>
      <trkpt lat="44.18359" lon="5.52797">
        <ele>927</ele>
        <time>2019-06-17T09:51:09Z</time>
      </trkpt>
      <trkpt lat="44.18363" lon="5.52812">
        <ele>926</ele>
        <time>2019-06-17T09:51:10Z</time>
      </trkpt>
      <trkpt lat="44.18365" lon="5.52828">
        <ele>925</ele>
        <time>2019-06-17T09:51:11Z</time>
      </trkpt>
      <trkpt lat="44.18368" lon="5.52844">
        <ele>924</ele>
        <time>2019-06-17T09:51:12Z</time>
      </trkpt>
      <trkpt lat="44.1837" lon="5.5286">
        <ele>923</ele>
        <time>2019-06-17T09:51:13Z</time>
      </trkpt>
      <trkpt lat="44.18373" lon="5.52876">
        <ele>923</ele>
        <time>2019-06-17T09:51:14Z</time>
      </trkpt>
      <trkpt lat="44.18377" lon="5.52891">
        <ele>922</ele>
        <time>2019-06-17T09:51:15Z</time>
      </trkpt>
      <trkpt lat="44.18382" lon="5.52906">
        <ele>921</ele>
        <time>2019-06-17T09:51:16Z</time>
      </trkpt>
      <trkpt lat="44.18386" lon="5.52921">
        <ele>921</ele>
        <time>2019-06-17T09:51:17Z</time>
      </trkpt>
      <trkpt lat="44.18392" lon="5.52935">
        <ele>921</ele>
        <time>2019-06-17T09:51:18Z</time>
      </trkpt>
      <trkpt lat="44.18398" lon="5.52949">
        <ele>920</ele>
        <time>2019-06-17T09:51:19Z</time>
      </trkpt>
      <trkpt lat="44.18403" lon="5.52962">
        <ele>920</ele>
        <time>2019-06-17T09:51:20Z</time>
      </trkpt>
      <trkpt lat="44.18407" lon="5.52976">
        <ele>919</ele>
        <time>2019-06-17T09:51:21Z</time>
      </trkpt>
      <trkpt lat="44.18408" lon="5.5299">
        <ele>918</ele>
        <time>2019-06-17T09:51:22Z</time>
      </trkpt>
      <trkpt lat="44.18408" lon="5.53005">
        <ele>918</ele>
        <time>2019-06-17T09:51:23Z</time>
      </trkpt>
      <trkpt lat="44.18406" lon="5.5302">
        <ele>917</ele>
        <time>2019-06-17T09:51:24Z</time>
      </trkpt>
      <trkpt lat="44.18402" lon="5.53034">
        <ele>916</ele>
        <time>2019-06-17T09:51:25Z</time>
      </trkpt>
      <trkpt lat="44.18397" lon="5.53048">
        <ele>915</ele>
        <time>2019-06-17T09:51:26Z</time>
      </trkpt>
      <trkpt lat="44.18393" lon="5.53061">
        <ele>914</ele>
        <time>2019-06-17T09:51:27Z</time>
      </trkpt>
      <trkpt lat="44.18388" lon="5.53075">
        <ele>913</ele>
        <time>2019-06-17T09:51:28Z</time>
      </trkpt>
      <trkpt lat="44.18386" lon="5.53088">
        <ele>912</ele>
        <time>2019-06-17T09:51:29Z</time>
      </trkpt>
      <trkpt lat="44.18386" lon="5.53101">
        <ele>911</ele>
        <time>2019-06-17T09:51:30Z</time>
      </trkpt>
      <trkpt lat="44.18388" lon="5.53115">
        <ele>910</ele>
        <time>2019-06-17T09:51:31Z</time>
      </trkpt>
      <trkpt lat="44.18394" lon="5.53128">
        <ele>909</ele>
        <time>2019-06-17T09:51:32Z</time>
      </trkpt>
      <trkpt lat="44.18399" lon="5.5314">
        <ele>909</ele>
        <time>2019-06-17T09:51:33Z</time>
      </trkpt>
      <trkpt lat="44.18405" lon="5.5315">
        <ele>908</ele>
        <time>2019-06-17T09:51:34Z</time>
      </trkpt>
      <trkpt lat="44.18412" lon="5.53159">
        <ele>908</ele>
        <time>2019-06-17T09:51:35Z</time>
      </trkpt>
      <trkpt lat="44.18419" lon="5.53167">
        <ele>907</ele>
        <time>2019-06-17T09:51:36Z</time>
      </trkpt>
      <trkpt lat="44.18427" lon="5.53171">
        <ele>906</ele>
        <time>2019-06-17T09:51:37Z</time>
      </trkpt>
      <trkpt lat="44.18435" lon="5.53172">
        <ele>905</ele>
        <time>2019-06-17T09:51:38Z</time>
      </trkpt>
      <trkpt lat="44.18444" lon="5.53171">
        <ele>905</ele>
        <time>2019-06-17T09:51:39Z</time>
      </trkpt>
      <trkpt lat="44.18452" lon="5.53168">
        <ele>904</ele>
        <time>2019-06-17T09:51:40Z</time>
      </trkpt>
      <trkpt lat="44.18462" lon="5.53165">
        <ele>903</ele>
        <time>2019-06-17T09:51:41Z</time>
      </trkpt>
      <trkpt lat="44.18471" lon="5.53161">
        <ele>902</ele>
        <time>2019-06-17T09:51:42Z</time>
      </trkpt>
      <trkpt lat="44.1848" lon="5.53158">
        <ele>902</ele>
        <time>2019-06-17T09:51:43Z</time>
      </trkpt>
      <trkpt lat="44.1849" lon="5.53157">
        <ele>901</ele>
        <time>2019-06-17T09:51:44Z</time>
      </trkpt>
      <trkpt lat="44.185" lon="5.53159">
        <ele>901</ele>
        <time>2019-06-17T09:51:45Z</time>
      </trkpt>
      <trkpt lat="44.18509" lon="5.53162">
        <ele>900</ele>
        <time>2019-06-17T09:51:46Z</time>
      </trkpt>
      <trkpt lat="44.18518" lon="5.53168">
        <ele>900</ele>
        <time>2019-06-17T09:51:47Z</time>
      </trkpt>
      <trkpt lat="44.18528" lon="5.53174">
        <ele>899</ele>
        <time>2019-06-17T09:51:48Z</time>
      </trkpt>
      <trkpt lat="44.18537" lon="5.5318">
        <ele>899</ele>
        <time>2019-06-17T09:51:49Z</time>
      </trkpt>
      <trkpt lat="44.18546" lon="5.53187">
        <ele>898</ele>
        <time>2019-06-17T09:51:50Z</time>
      </trkpt>
      <trkpt lat="44.18555" lon="5.53195">
        <ele>897</ele>
        <time>2019-06-17T09:51:51Z</time>
      </trkpt>
      <trkpt lat="44.18563" lon="5.53205">
        <ele>896</ele>
        <time>2019-06-17T09:51:52Z</time>
      </trkpt>
      <trkpt lat="44.1857" lon="5.53216">
        <ele>896</ele>
        <time>2019-06-17T09:51:53Z</time>
      </trkpt>
      <trkpt lat="44.18577" lon="5.53228">
        <ele>895</ele>
        <time>2019-06-17T09:51:54Z</time>
      </trkpt>
      <trkpt lat="44.18585" lon="5.5324">
        <ele>894</ele>
        <time>2019-06-17T09:51:55Z</time>
      </trkpt>
      <trkpt lat="44.18592" lon="5.53253">
        <ele>894</ele>
        <time>2019-06-17T09:51:56Z</time>
      </trkpt>
      <trkpt lat="44.18599" lon="5.53266">
        <ele>893</ele>
        <time>2019-06-17T09:51:57Z</time>
      </trkpt>
      <trkpt lat="44.18605" lon="5.5328">
        <ele>893</ele>
        <time>2019-06-17T09:51:58Z</time>
      </trkpt>
      <trkpt lat="44.1861" lon="5.53296">
        <ele>892</ele>
        <time>2019-06-17T09:51:59Z</time>
      </trkpt>
      <trkpt lat="44.18616" lon="5.5331">
        <ele>891</ele>
        <time>2019-06-17T09:52:00Z</time>
      </trkpt>
      <trkpt lat="44.18621" lon="5.53324">
        <ele>891</ele>
        <time>2019-06-17T09:52:01Z</time>
      </trkpt>
      <trkpt lat="44.18627" lon="5.53336">
        <ele>890</ele>
        <time>2019-06-17T09:52:02Z</time>
      </trkpt>
      <trkpt lat="44.18633" lon="5.53347">
        <ele>890</ele>
        <time>2019-06-17T09:52:03Z</time>
      </trkpt>
      <trkpt lat="44.1864" lon="5.53356">
        <ele>889</ele>
        <time>2019-06-17T09:52:04Z</time>
      </trkpt>
      <trkpt lat="44.18647" lon="5.53363">
        <ele>889</ele>
        <time>2019-06-17T09:52:05Z</time>
      </trkpt>
      <trkpt lat="44.18655" lon="5.53368">
        <ele>888</ele>
        <time>2019-06-17T09:52:06Z</time>
      </trkpt>
      <trkpt lat="44.18663" lon="5.53373">
        <ele>887</ele>
        <time>2019-06-17T09:52:07Z</time>
      </trkpt>
      <trkpt lat="44.18669" lon="5.53378">
        <ele>886</ele>
        <time>2019-06-17T09:52:08Z</time>
      </trkpt>
      <trkpt lat="44.18674" lon="5.53385">
        <ele>886</ele>
        <time>2019-06-17T09:52:09Z</time>
      </trkpt>
      <trkpt lat="44.18677" lon="5.53394">
        <ele>885</ele>
        <time>2019-06-17T09:52:10Z</time>
      </trkpt>
      <trkpt lat="44.18676" lon="5.53405">
        <ele>884</ele>
        <time>2019-06-17T09:52:11Z</time>
      </trkpt>
      <trkpt lat="44.18673" lon="5.53414">
        <ele>883</ele>
        <time>2019-06-17T09:52:12Z</time>
      </trkpt>
      <trkpt lat="44.18667" lon="5.53418">
        <ele>883</ele>
        <time>2019-06-17T09:52:13Z</time>
      </trkpt>
      <trkpt lat="44.18658" lon="5.53416">
        <ele>882</ele>
        <time>2019-06-17T09:52:14Z</time>
      </trkpt>
      <trkpt lat="44.18651" lon="5.53411">
        <ele>882</ele>
        <time>2019-06-17T09:52:15Z</time>
      </trkpt>
      <trkpt lat="44.18645" lon="5.53404">
        <ele>881</ele>
        <time>2019-06-17T09:52:16Z</time>
      </trkpt>
      <trkpt lat="44.18641" lon="5.53396">
        <ele>880</ele>
        <time>2019-06-17T09:52:17Z</time>
      </trkpt>
      <trkpt lat="44.18635" lon="5.53388">
        <ele>880</ele>
        <time>2019-06-17T09:52:18Z</time>
      </trkpt>
      <trkpt lat="44.1863" lon="5.53379">
        <ele>879</ele>
        <time>2019-06-17T09:52:19Z</time>
      </trkpt>
      <trkpt lat="44.18626" lon="5.53369">
        <ele>879</ele>
        <time>2019-06-17T09:52:20Z</time>
      </trkpt>
      <trkpt lat="44.18621" lon="5.53361">
        <ele>878</ele>
        <time>2019-06-17T09:52:21Z</time>
      </trkpt>
      <trkpt lat="44.18616" lon="5.53355">
        <ele>878</ele>
        <time>2019-06-17T09:52:22Z</time>
      </trkpt>
      <trkpt lat="44.18611" lon="5.53353">
        <ele>877</ele>
        <time>2019-06-17T09:52:23Z</time>
      </trkpt>
      <trkpt lat="44.18605" lon="5.53358">
        <ele>877</ele>
        <time>2019-06-17T09:52:24Z</time>
      </trkpt>
      <trkpt lat="44.18601" lon="5.53365">
        <ele>877</ele>
        <time>2019-06-17T09:52:25Z</time>
      </trkpt>
      <trkpt lat="44.18601" lon="5.53374">
        <ele>877</ele>
        <time>2019-06-17T09:52:26Z</time>
      </trkpt>
      <trkpt lat="44.18604" lon="5.53383">
        <ele>877</ele>
        <time>2019-06-17T09:52:27Z</time>
      </trkpt>
      <trkpt lat="44.18611" lon="5.53393">
        <ele>877</ele>
        <time>2019-06-17T09:52:28Z</time>
      </trkpt>
      <trkpt lat="44.18618" lon="5.53402">
        <ele>877</ele>
        <time>2019-06-17T09:52:29Z</time>
      </trkpt>
      <trkpt lat="44.18623" lon="5.53412">
        <ele>877</ele>
        <time>2019-06-17T09:52:30Z</time>
      </trkpt>
      <trkpt lat="44.18628" lon="5.53422">
        <ele>877</ele>
        <time>2019-06-17T09:52:31Z</time>
      </trkpt>
      <trkpt lat="44.18634" lon="5.53432">
        <ele>877</ele>
        <time>2019-06-17T09:52:32Z</time>
      </trkpt>
      <trkpt lat="44.1864" lon="5.53441">
        <ele>877</ele>
        <time>2019-06-17T09:52:33Z</time>
      </trkpt>
      <trkpt lat="44.18647" lon="5.53449">
        <ele>877</ele>
        <time>2019-06-17T09:52:34Z</time>
      </trkpt>
      <trkpt lat="44.18654" lon="5.53457">
        <ele>877</ele>
        <time>2019-06-17T09:52:35Z</time>
      </trkpt>
      <trkpt lat="44.18661" lon="5.53464">
        <ele>876</ele>
        <time>2019-06-17T09:52:36Z</time>
      </trkpt>
      <trkpt lat="44.18669" lon="5.53471">
        <ele>875</ele>
        <time>2019-06-17T09:52:37Z</time>
      </trkpt>
      <trkpt lat="44.18676" lon="5.53479">
        <ele>875</ele>
        <time>2019-06-17T09:52:38Z</time>
      </trkpt>
      <trkpt lat="44.18682" lon="5.53489">
        <ele>874</ele>
        <time>2019-06-17T09:52:39Z</time>
      </trkpt>
      <trkpt lat="44.18689" lon="5.53501">
        <ele>873</ele>
        <time>2019-06-17T09:52:40Z</time>
      </trkpt>
      <trkpt lat="44.18694" lon="5.53512">
        <ele>872</ele>
        <time>2019-06-17T09:52:41Z</time>
      </trkpt>
      <trkpt lat="44.18698" lon="5.53525">
        <ele>872</ele>
        <time>2019-06-17T09:52:42Z</time>
      </trkpt>
      <trkpt lat="44.18701" lon="5.53539">
        <ele>871</ele>
        <time>2019-06-17T09:52:43Z</time>
      </trkpt>
      <trkpt lat="44.18704" lon="5.53553">
        <ele>871</ele>
        <time>2019-06-17T09:52:44Z</time>
      </trkpt>
      <trkpt lat="44.18706" lon="5.53568">
        <ele>871</ele>
        <time>2019-06-17T09:52:45Z</time>
      </trkpt>
      <trkpt lat="44.18708" lon="5.53583">
        <ele>870</ele>
        <time>2019-06-17T09:52:46Z</time>
      </trkpt>
      <trkpt lat="44.18711" lon="5.53598">
        <ele>869</ele>
        <time>2019-06-17T09:52:47Z</time>
      </trkpt>
      <trkpt lat="44.18713" lon="5.53613">
        <ele>869</ele>
        <time>2019-06-17T09:52:48Z</time>
      </trkpt>
      <trkpt lat="44.18716" lon="5.53628">
        <ele>868</ele>
        <time>2019-06-17T09:52:49Z</time>
      </trkpt>
      <trkpt lat="44.18719" lon="5.53644">
        <ele>867</ele>
        <time>2019-06-17T09:52:50Z</time>
      </trkpt>
      <trkpt lat="44.18722" lon="5.5366">
        <ele>866</ele>
        <time>2019-06-17T09:52:51Z</time>
      </trkpt>
      <trkpt lat="44.18724" lon="5.53676">
        <ele>865</ele>
        <time>2019-06-17T09:52:52Z</time>
      </trkpt>
      <trkpt lat="44.18726" lon="5.53691">
        <ele>864</ele>
        <time>2019-06-17T09:52:53Z</time>
      </trkpt>
      <trkpt lat="44.18729" lon="5.53706">
        <ele>864</ele>
        <time>2019-06-17T09:52:54Z</time>
      </trkpt>
      <trkpt lat="44.18732" lon="5.5372">
        <ele>863</ele>
        <time>2019-06-17T09:52:55Z</time>
      </trkpt>
      <trkpt lat="44.18737" lon="5.53734">
        <ele>863</ele>
        <time>2019-06-17T09:52:56Z</time>
      </trkpt>
      <trkpt lat="44.18741" lon="5.53746">
        <ele>862</ele>
        <time>2019-06-17T09:52:57Z</time>
      </trkpt>
      <trkpt lat="44.18747" lon="5.53756">
        <ele>862</ele>
        <time>2019-06-17T09:52:58Z</time>
      </trkpt>
      <trkpt lat="44.18755" lon="5.53764">
        <ele>861</ele>
        <time>2019-06-17T09:52:59Z</time>
      </trkpt>
      <trkpt lat="44.18763" lon="5.53768">
        <ele>860</ele>
        <time>2019-06-17T09:53:00Z</time>
      </trkpt>
      <trkpt lat="44.18772" lon="5.5377">
        <ele>860</ele>
        <time>2019-06-17T09:53:01Z</time>
      </trkpt>
      <trkpt lat="44.18781" lon="5.5377">
        <ele>859</ele>
        <time>2019-06-17T09:53:02Z</time>
      </trkpt>
      <trkpt lat="44.1879" lon="5.53768">
        <ele>858</ele>
        <time>2019-06-17T09:53:03Z</time>
      </trkpt>
      <trkpt lat="44.188" lon="5.53767">
        <ele>858</ele>
        <time>2019-06-17T09:53:04Z</time>
      </trkpt>
      <trkpt lat="44.1881" lon="5.53767">
        <ele>857</ele>
        <time>2019-06-17T09:53:05Z</time>
      </trkpt>
      <trkpt lat="44.18821" lon="5.53768">
        <ele>856</ele>
        <time>2019-06-17T09:53:06Z</time>
      </trkpt>
      <trkpt lat="44.18831" lon="5.53769">
        <ele>856</ele>
        <time>2019-06-17T09:53:07Z</time>
      </trkpt>
      <trkpt lat="44.18842" lon="5.53769">
        <ele>855</ele>
        <time>2019-06-17T09:53:08Z</time>
      </trkpt>
      <trkpt lat="44.18853" lon="5.53769">
        <ele>854</ele>
        <time>2019-06-17T09:53:09Z</time>
      </trkpt>
      <trkpt lat="44.18864" lon="5.53767">
        <ele>854</ele>
        <time>2019-06-17T09:53:10Z</time>
      </trkpt>
      <trkpt lat="44.18874" lon="5.53765">
        <ele>853</ele>
        <time>2019-06-17T09:53:11Z</time>
      </trkpt>
      <trkpt lat="44.18886" lon="5.53761">
        <ele>852</ele>
        <time>2019-06-17T09:53:12Z</time>
      </trkpt>
      <trkpt lat="44.18897" lon="5.53757">
        <ele>851</ele>
        <time>2019-06-17T09:53:13Z</time>
      </trkpt>
      <trkpt lat="44.18908" lon="5.53753">
        <ele>850</ele>
        <time>2019-06-17T09:53:14Z</time>
      </trkpt>
      <trkpt lat="44.18919" lon="5.53748">
        <ele>849</ele>
        <time>2019-06-17T09:53:15Z</time>
      </trkpt>
      <trkpt lat="44.1893" lon="5.53742">
        <ele>848</ele>
        <time>2019-06-17T09:53:16Z</time>
      </trkpt>
      <trkpt lat="44.1894" lon="5.53736">
        <ele>848</ele>
        <time>2019-06-17T09:53:17Z</time>
      </trkpt>
      <trkpt lat="44.18951" lon="5.5373">
        <ele>847</ele>
        <time>2019-06-17T09:53:18Z</time>
      </trkpt>
      <trkpt lat="44.18963" lon="5.53727">
        <ele>847</ele>
        <time>2019-06-17T09:53:19Z</time>
      </trkpt>
      <trkpt lat="44.18974" lon="5.53726">
        <ele>846</ele>
        <time>2019-06-17T09:53:20Z</time>
      </trkpt>
      <trkpt lat="44.18986" lon="5.53726">
        <ele>846</ele>
        <time>2019-06-17T09:53:21Z</time>
      </trkpt>
      <trkpt lat="44.18998" lon="5.53727">
        <ele>845</ele>
        <time>2019-06-17T09:53:22Z</time>
      </trkpt>
      <trkpt lat="44.19011" lon="5.53728">
        <ele>844</ele>
        <time>2019-06-17T09:53:23Z</time>
      </trkpt>
      <trkpt lat="44.19023" lon="5.5373">
        <ele>843</ele>
        <time>2019-06-17T09:53:24Z</time>
      </trkpt>
      <trkpt lat="44.19036" lon="5.53731">
        <ele>843</ele>
        <time>2019-06-17T09:53:25Z</time>
      </trkpt>
      <trkpt lat="44.19049" lon="5.53732">
        <ele>842</ele>
        <time>2019-06-17T09:53:26Z</time>
      </trkpt>
      <trkpt lat="44.19061" lon="5.53733">
        <ele>841</ele>
        <time>2019-06-17T09:53:27Z</time>
      </trkpt>
      <trkpt lat="44.19074" lon="5.53734">
        <ele>840</ele>
        <time>2019-06-17T09:53:28Z</time>
      </trkpt>
      <trkpt lat="44.19087" lon="5.53734">
        <ele>840</ele>
        <time>2019-06-17T09:53:29Z</time>
      </trkpt>
      <trkpt lat="44.19099" lon="5.53736">
        <ele>839</ele>
        <time>2019-06-17T09:53:30Z</time>
      </trkpt>
      <trkpt lat="44.19112" lon="5.53737">
        <ele>838</ele>
        <time>2019-06-17T09:53:31Z</time>
      </trkpt>
      <trkpt lat="44.19125" lon="5.53738">
        <ele>838</ele>
        <time>2019-06-17T09:53:32Z</time>
      </trkpt>
      <trkpt lat="44.19138" lon="5.53739">
        <ele>837</ele>
        <time>2019-06-17T09:53:33Z</time>
      </trkpt>
      <trkpt lat="44.19152" lon="5.5374">
        <ele>836</ele>
        <time>2019-06-17T09:53:34Z</time>
      </trkpt>
      <trkpt lat="44.19164" lon="5.53741">
        <ele>836</ele>
        <time>2019-06-17T09:53:35Z</time>
      </trkpt>
      <trkpt lat="44.19177" lon="5.53742">
        <ele>835</ele>
        <time>2019-06-17T09:53:36Z</time>
      </trkpt>
      <trkpt lat="44.1919" lon="5.53743">
        <ele>835</ele>
        <time>2019-06-17T09:53:37Z</time>
      </trkpt>
      <trkpt lat="44.19202" lon="5.53744">
        <ele>834</ele>
        <time>2019-06-17T09:53:38Z</time>
      </trkpt>
      <trkpt lat="44.19215" lon="5.53746">
        <ele>833</ele>
        <time>2019-06-17T09:53:39Z</time>
      </trkpt>
      <trkpt lat="44.19228" lon="5.53747">
        <ele>832</ele>
        <time>2019-06-17T09:53:40Z</time>
      </trkpt>
      <trkpt lat="44.1924" lon="5.53748">
        <ele>832</ele>
        <time>2019-06-17T09:53:41Z</time>
      </trkpt>
      <trkpt lat="44.19253" lon="5.53749">
        <ele>831</ele>
        <time>2019-06-17T09:53:42Z</time>
      </trkpt>
      <trkpt lat="44.19265" lon="5.5375">
        <ele>830</ele>
        <time>2019-06-17T09:53:43Z</time>
      </trkpt>
      <trkpt lat="44.19277" lon="5.53751">
        <ele>830</ele>
        <time>2019-06-17T09:53:44Z</time>
      </trkpt>
      <trkpt lat="44.19289" lon="5.53751">
        <ele>829</ele>
        <time>2019-06-17T09:53:45Z</time>
      </trkpt>
      <trkpt lat="44.19302" lon="5.53753">
        <ele>829</ele>
        <time>2019-06-17T09:53:46Z</time>
      </trkpt>
      <trkpt lat="44.19313" lon="5.53754">
        <ele>828</ele>
        <time>2019-06-17T09:53:47Z</time>
      </trkpt>
      <trkpt lat="44.19325" lon="5.53755">
        <ele>827</ele>
        <time>2019-06-17T09:53:48Z</time>
      </trkpt>
      <trkpt lat="44.19337" lon="5.53756">
        <ele>827</ele>
        <time>2019-06-17T09:53:49Z</time>
      </trkpt>
      <trkpt lat="44.19349" lon="5.53757">
        <ele>826</ele>
        <time>2019-06-17T09:53:50Z</time>
      </trkpt>
      <trkpt lat="44.1936" lon="5.53759">
        <ele>825</ele>
        <time>2019-06-17T09:53:51Z</time>
      </trkpt>
      <trkpt lat="44.19372" lon="5.5376">
        <ele>825</ele>
        <time>2019-06-17T09:53:52Z</time>
      </trkpt>
      <trkpt lat="44.19383" lon="5.53761">
        <ele>824</ele>
        <time>2019-06-17T09:53:53Z</time>
      </trkpt>
      <trkpt lat="44.19394" lon="5.53762">
        <ele>823</ele>
        <time>2019-06-17T09:53:54Z</time>
      </trkpt>
      <trkpt lat="44.19405" lon="5.53763">
        <ele>823</ele>
        <time>2019-06-17T09:53:55Z</time>
      </trkpt>
      <trkpt lat="44.19416" lon="5.53764">
        <ele>822</ele>
        <time>2019-06-17T09:53:56Z</time>
      </trkpt>
      <trkpt lat="44.19427" lon="5.53765">
        <ele>821</ele>
        <time>2019-06-17T09:53:57Z</time>
      </trkpt>
      <trkpt lat="44.19438" lon="5.53765">
        <ele>820</ele>
        <time>2019-06-17T09:53:58Z</time>
      </trkpt>
      <trkpt lat="44.19448" lon="5.53766">
        <ele>820</ele>
        <time>2019-06-17T09:53:59Z</time>
      </trkpt>
      <trkpt lat="44.19459" lon="5.53767">
        <ele>819</ele>
        <time>2019-06-17T09:54:00Z</time>
      </trkpt>
      <trkpt lat="44.1947" lon="5.53768">
        <ele>818</ele>
        <time>2019-06-17T09:54:01Z</time>
      </trkpt>
      <trkpt lat="44.1948" lon="5.53768">
        <ele>817</ele>
        <time>2019-06-17T09:54:02Z</time>
      </trkpt>
      <trkpt lat="44.1949" lon="5.5377">
        <ele>817</ele>
        <time>2019-06-17T09:54:03Z</time>
      </trkpt>
      <trkpt lat="44.19501" lon="5.5377">
        <ele>816</ele>
        <time>2019-06-17T09:54:04Z</time>
      </trkpt>
      <trkpt lat="44.19511" lon="5.53771">
        <ele>815</ele>
        <time>2019-06-17T09:54:05Z</time>
      </trkpt>
      <trkpt lat="44.19521" lon="5.53771">
        <ele>814</ele>
        <time>2019-06-17T09:54:06Z</time>
      </trkpt>
      <trkpt lat="44.19531" lon="5.53771">
        <ele>813</ele>
        <time>2019-06-17T09:54:07Z</time>
      </trkpt>
      <trkpt lat="44.19541" lon="5.53771">
        <ele>812</ele>
        <time>2019-06-17T09:54:08Z</time>
      </trkpt>
      <trkpt lat="44.19551" lon="5.5377">
        <ele>811</ele>
        <time>2019-06-17T09:54:09Z</time>
      </trkpt>
      <trkpt lat="44.19562" lon="5.5377">
        <ele>811</ele>
        <time>2019-06-17T09:54:10Z</time>
      </trkpt>
      <trkpt lat="44.19572" lon="5.5377">
        <ele>810</ele>
        <time>2019-06-17T09:54:11Z</time>
      </trkpt>
      <trkpt lat="44.19582" lon="5.5377">
        <ele>809</ele>
        <time>2019-06-17T09:54:12Z</time>
      </trkpt>
      <trkpt lat="44.19592" lon="5.53769">
        <ele>809</ele>
        <time>2019-06-17T09:54:13Z</time>
      </trkpt>
      <trkpt lat="44.19602" lon="5.53769">
        <ele>808</ele>
        <time>2019-06-17T09:54:14Z</time>
      </trkpt>
      <trkpt lat="44.19612" lon="5.53768">
        <ele>808</ele>
        <time>2019-06-17T09:54:15Z</time>
      </trkpt>
      <trkpt lat="44.19622" lon="5.53768">
        <ele>807</ele>
        <time>2019-06-17T09:54:16Z</time>
      </trkpt>
      <trkpt lat="44.19631" lon="5.53768">
        <ele>807</ele>
        <time>2019-06-17T09:54:17Z</time>
      </trkpt>
      <trkpt lat="44.19641" lon="5.53767">
        <ele>806</ele>
        <time>2019-06-17T09:54:18Z</time>
      </trkpt>
      <trkpt lat="44.1965" lon="5.53767">
        <ele>806</ele>
        <time>2019-06-17T09:54:19Z</time>
      </trkpt>
      <trkpt lat="44.1966" lon="5.53767">
        <ele>805</ele>
        <time>2019-06-17T09:54:20Z</time>
      </trkpt>
      <trkpt lat="44.19669" lon="5.53766">
        <ele>805</ele>
        <time>2019-06-17T09:54:21Z</time>
      </trkpt>
      <trkpt lat="44.19679" lon="5.53765">
        <ele>805</ele>
        <time>2019-06-17T09:54:22Z</time>
      </trkpt>
      <trkpt lat="44.19688" lon="5.53765">
        <ele>805</ele>
        <time>2019-06-17T09:54:23Z</time>
      </trkpt>
      <trkpt lat="44.19697" lon="5.53764">
        <ele>804</ele>
        <time>2019-06-17T09:54:24Z</time>
      </trkpt>
      <trkpt lat="44.19706" lon="5.53764">
        <ele>804</ele>
        <time>2019-06-17T09:54:25Z</time>
      </trkpt>
      <trkpt lat="44.19715" lon="5.53764">
        <ele>804</ele>
        <time>2019-06-17T09:54:26Z</time>
      </trkpt>
      <trkpt lat="44.19724" lon="5.53764">
        <ele>804</ele>
        <time>2019-06-17T09:54:27Z</time>
      </trkpt>
      <trkpt lat="44.19733" lon="5.53763">
        <ele>804</ele>
        <time>2019-06-17T09:54:28Z</time>
      </trkpt>
      <trkpt lat="44.19742" lon="5.53763">
        <ele>803</ele>
        <time>2019-06-17T09:54:29Z</time>
      </trkpt>
      <trkpt lat="44.19751" lon="5.53763">
        <ele>803</ele>
        <time>2019-06-17T09:54:30Z</time>
      </trkpt>
      <trkpt lat="44.19759" lon="5.53763">
        <ele>803</ele>
        <time>2019-06-17T09:54:31Z</time>
      </trkpt>
      <trkpt lat="44.19768" lon="5.53763">
        <ele>803</ele>
        <time>2019-06-17T09:54:32Z</time>
      </trkpt>
      <trkpt lat="44.19777" lon="5.53763">
        <ele>803</ele>
        <time>2019-06-17T09:54:33Z</time>
      </trkpt>
      <trkpt lat="44.19786" lon="5.53763">
        <ele>803</ele>
        <time>2019-06-17T09:54:34Z</time>
      </trkpt>
      <trkpt lat="44.19795" lon="5.53763">
        <ele>803</ele>
        <time>2019-06-17T09:54:35Z</time>
      </trkpt>
      <trkpt lat="44.19804" lon="5.53763">
        <ele>803</ele>
        <time>2019-06-17T09:54:36Z</time>
      </trkpt>
      <trkpt lat="44.19813" lon="5.53762">
        <ele>803</ele>
        <time>2019-06-17T09:54:37Z</time>
      </trkpt>
      <trkpt lat="44.19823" lon="5.53762">
        <ele>803</ele>
        <time>2019-06-17T09:54:38Z</time>
      </trkpt>
      <trkpt lat="44.19832" lon="5.5376">
        <ele>803</ele>
        <time>2019-06-17T09:54:39Z</time>
      </trkpt>
      <trkpt lat="44.19842" lon="5.53759">
        <ele>803</ele>
        <time>2019-06-17T09:54:40Z</time>
      </trkpt>
      <trkpt lat="44.19851" lon="5.53756">
        <ele>803</ele>
        <time>2019-06-17T09:54:41Z</time>
      </trkpt>
      <trkpt lat="44.1986" lon="5.53753">
        <ele>803</ele>
        <time>2019-06-17T09:54:42Z</time>
      </trkpt>
      <trkpt lat="44.1987" lon="5.53751">
        <ele>803</ele>
        <time>2019-06-17T09:54:43Z</time>
      </trkpt>
      <trkpt lat="44.19878" lon="5.53747">
        <ele>803</ele>
        <time>2019-06-17T09:54:44Z</time>
      </trkpt>
      <trkpt lat="44.19887" lon="5.53744">
        <ele>803</ele>
        <time>2019-06-17T09:54:45Z</time>
      </trkpt>
      <trkpt lat="44.19896" lon="5.5374">
        <ele>803</ele>
        <time>2019-06-17T09:54:46Z</time>
      </trkpt>
      <trkpt lat="44.19904" lon="5.53737">
        <ele>803</ele>
        <time>2019-06-17T09:54:47Z</time>
      </trkpt>
      <trkpt lat="44.19913" lon="5.53734">
        <ele>803</ele>
        <time>2019-06-17T09:54:48Z</time>
      </trkpt>
      <trkpt lat="44.19921" lon="5.53731">
        <ele>803</ele>
        <time>2019-06-17T09:54:49Z</time>
      </trkpt>
      <trkpt lat="44.1993" lon="5.53728">
        <ele>803</ele>
        <time>2019-06-17T09:54:50Z</time>
      </trkpt>
      <trkpt lat="44.19939" lon="5.53725">
        <ele>803</ele>
        <time>2019-06-17T09:54:51Z</time>
      </trkpt>
      <trkpt lat="44.19947" lon="5.53723">
        <ele>803</ele>
        <time>2019-06-17T09:54:52Z</time>
      </trkpt>
      <trkpt lat="44.19955" lon="5.5372">
        <ele>803</ele>
        <time>2019-06-17T09:54:53Z</time>
      </trkpt>
      <trkpt lat="44.19963" lon="5.53717">
        <ele>803</ele>
        <time>2019-06-17T09:54:54Z</time>
      </trkpt>
      <trkpt lat="44.1997" lon="5.53714">
        <ele>803</ele>
        <time>2019-06-17T09:54:55Z</time>
      </trkpt>
      <trkpt lat="44.19979" lon="5.53711">
        <ele>803</ele>
        <time>2019-06-17T09:54:56Z</time>
      </trkpt>
      <trkpt lat="44.19987" lon="5.53709">
        <ele>803</ele>
        <time>2019-06-17T09:54:57Z</time>
      </trkpt>
      <trkpt lat="44.19995" lon="5.53706">
        <ele>803</ele>
        <time>2019-06-17T09:54:58Z</time>
      </trkpt>
      <trkpt lat="44.20004" lon="5.53702">
        <ele>803</ele>
        <time>2019-06-17T09:54:59Z</time>
      </trkpt>
      <trkpt lat="44.20011" lon="5.537">
        <ele>803</ele>
        <time>2019-06-17T09:55:00Z</time>
      </trkpt>
      <trkpt lat="44.20019" lon="5.53698">
        <ele>803</ele>
        <time>2019-06-17T09:55:01Z</time>
      </trkpt>
      <trkpt lat="44.20026" lon="5.53697">
        <ele>803</ele>
        <time>2019-06-17T09:55:02Z</time>
      </trkpt>
      <trkpt lat="44.20034" lon="5.53695">
        <ele>803</ele>
        <time>2019-06-17T09:55:03Z</time>
      </trkpt>
      <trkpt lat="44.20041" lon="5.53693">
        <ele>803</ele>
        <time>2019-06-17T09:55:04Z</time>
      </trkpt>
      <trkpt lat="44.20049" lon="5.53692">
        <ele>803</ele>
        <time>2019-06-17T09:55:05Z</time>
      </trkpt>
      <trkpt lat="44.20056" lon="5.53691">
        <ele>803</ele>
        <time>2019-06-17T09:55:06Z</time>
      </trkpt>
      <trkpt lat="44.20063" lon="5.53691">
        <ele>803</ele>
        <time>2019-06-17T09:55:07Z</time>
      </trkpt>
      <trkpt lat="44.20071" lon="5.5369">
        <ele>803</ele>
        <time>2019-06-17T09:55:08Z</time>
      </trkpt>
      <trkpt lat="44.20078" lon="5.5369">
        <ele>803</ele>
        <time>2019-06-17T09:55:09Z</time>
      </trkpt>
      <trkpt lat="44.20086" lon="5.53689">
        <ele>803</ele>
        <time>2019-06-17T09:55:10Z</time>
      </trkpt>
      <trkpt lat="44.20093" lon="5.53689">
        <ele>803</ele>
        <time>2019-06-17T09:55:11Z</time>
      </trkpt>
      <trkpt lat="44.201" lon="5.53689">
        <ele>803</ele>
        <time>2019-06-17T09:55:12Z</time>
      </trkpt>
      <trkpt lat="44.20107" lon="5.53689">
        <ele>803</ele>
        <time>2019-06-17T09:55:13Z</time>
      </trkpt>
      <trkpt lat="44.20113" lon="5.53688">
        <ele>803</ele>
        <time>2019-06-17T09:55:14Z</time>
      </trkpt>
      <trkpt lat="44.2012" lon="5.53688">
        <ele>803</ele>
        <time>2019-06-17T09:55:15Z</time>
      </trkpt>
      <trkpt lat="44.20126" lon="5.53688">
        <ele>803</ele>
        <time>2019-06-17T09:55:16Z</time>
      </trkpt>
      <trkpt lat="44.20133" lon="5.53687">
        <ele>803</ele>
        <time>2019-06-17T09:55:17Z</time>
      </trkpt>
      <trkpt lat="44.20139" lon="5.53687">
        <ele>803</ele>
        <time>2019-06-17T09:55:18Z</time>
      </trkpt>
      <trkpt lat="44.20145" lon="5.53687">
        <ele>803</ele>
        <time>2019-06-17T09:55:19Z</time>
      </trkpt>
      <trkpt lat="44.20151" lon="5.53687">
        <ele>803</ele>
        <time>2019-06-17T09:55:20Z</time>
      </trkpt>
      <trkpt lat="44.20157" lon="5.53687">
        <ele>803</ele>
        <time>2019-06-17T09:55:21Z</time>
      </trkpt>
      <trkpt lat="44.20163" lon="5.53687">
        <ele>803</ele>
        <time>2019-06-17T09:55:22Z</time>
      </trkpt>
      <trkpt lat="44.2017" lon="5.53687">
        <ele>803</ele>
        <time>2019-06-17T09:55:23Z</time>
      </trkpt>
      <trkpt lat="44.20176" lon="5.53687">
        <ele>803</ele>
        <time>2019-06-17T09:55:24Z</time>
      </trkpt>
      <trkpt lat="44.20183" lon="5.53687">
        <ele>803</ele>
        <time>2019-06-17T09:55:25Z</time>
      </trkpt>
      <trkpt lat="44.20189" lon="5.53687">
        <ele>803</ele>
        <time>2019-06-17T09:55:26Z</time>
      </trkpt>
      <trkpt lat="44.20196" lon="5.53687">
        <ele>803</ele>
        <time>2019-06-17T09:55:27Z</time>
      </trkpt>
      <trkpt lat="44.20203" lon="5.53687">
        <ele>803</ele>
        <time>2019-06-17T09:55:28Z</time>
      </trkpt>
      <trkpt lat="44.20209" lon="5.53687">
        <ele>803</ele>
        <time>2019-06-17T09:55:29Z</time>
      </trkpt>
      <trkpt lat="44.20216" lon="5.53687">
        <ele>802</ele>
        <time>2019-06-17T09:55:30Z</time>
      </trkpt>
      <trkpt lat="44.20222" lon="5.53686">
        <ele>801</ele>
        <time>2019-06-17T09:55:31Z</time>
      </trkpt>
      <trkpt lat="44.20229" lon="5.53686">
        <ele>800</ele>
        <time>2019-06-17T09:55:32Z</time>
      </trkpt>
      <trkpt lat="44.20236" lon="5.53685">
        <ele>799</ele>
        <time>2019-06-17T09:55:33Z</time>
      </trkpt>
      <trkpt lat="44.20245" lon="5.53685">
        <ele>799</ele>
        <time>2019-06-17T09:55:34Z</time>
      </trkpt>
      <trkpt lat="44.20253" lon="5.53684">
        <ele>799</ele>
        <time>2019-06-17T09:55:35Z</time>
      </trkpt>
      <trkpt lat="44.20261" lon="5.53682">
        <ele>799</ele>
        <time>2019-06-17T09:55:36Z</time>
      </trkpt>
      <trkpt lat="44.20269" lon="5.5368">
        <ele>799</ele>
        <time>2019-06-17T09:55:37Z</time>
      </trkpt>
      <trkpt lat="44.20277" lon="5.53678">
        <ele>799</ele>
        <time>2019-06-17T09:55:38Z</time>
      </trkpt>
      <trkpt lat="44.20285" lon="5.53676">
        <ele>799</ele>
        <time>2019-06-17T09:55:39Z</time>
      </trkpt>
      <trkpt lat="44.20294" lon="5.53674">
        <ele>799</ele>
        <time>2019-06-17T09:55:40Z</time>
      </trkpt>
      <trkpt lat="44.20303" lon="5.53671">
        <ele>799</ele>
        <time>2019-06-17T09:55:41Z</time>
      </trkpt>
      <trkpt lat="44.20311" lon="5.53668">
        <ele>799</ele>
        <time>2019-06-17T09:55:42Z</time>
      </trkpt>
      <trkpt lat="44.20319" lon="5.53664">
        <ele>799</ele>
        <time>2019-06-17T09:55:43Z</time>
      </trkpt>
      <trkpt lat="44.20326" lon="5.5366">
        <ele>800</ele>
        <time>2019-06-17T09:55:44Z</time>
      </trkpt>
      <trkpt lat="44.20333" lon="5.53657">
        <ele>801</ele>
        <time>2019-06-17T09:55:45Z</time>
      </trkpt>
      <trkpt lat="44.20341" lon="5.53652">
        <ele>802</ele>
        <time>2019-06-17T09:55:46Z</time>
      </trkpt>
      <trkpt lat="44.20347" lon="5.53649">
        <ele>802</ele>
        <time>2019-06-17T09:55:47Z</time>
      </trkpt>
      <trkpt lat="44.20353" lon="5.53645">
        <ele>803</ele>
        <time>2019-06-17T09:55:48Z</time>
      </trkpt>
      <trkpt lat="44.20361" lon="5.53641">
        <ele>803</ele>
        <time>2019-06-17T09:55:49Z</time>
      </trkpt>
      <trkpt lat="44.20367" lon="5.53636">
        <ele>803</ele>
        <time>2019-06-17T09:55:50Z</time>
      </trkpt>
      <trkpt lat="44.20373" lon="5.53634">
        <ele>804</ele>
        <time>2019-06-17T09:55:51Z</time>
      </trkpt>
      <trkpt lat="44.2038" lon="5.53633">
        <ele>804</ele>
        <time>2019-06-17T09:55:52Z</time>
      </trkpt>
      <trkpt lat="44.20385" lon="5.53632">
        <ele>805</ele>
        <time>2019-06-17T09:55:53Z</time>
      </trkpt>
      <trkpt lat="44.20391" lon="5.53631">
        <ele>805</ele>
        <time>2019-06-17T09:55:54Z</time>
      </trkpt>
      <trkpt lat="44.20396" lon="5.5363">
        <ele>805</ele>
        <time>2019-06-17T09:55:55Z</time>
      </trkpt>
      <trkpt lat="44.20401" lon="5.53629">
        <ele>805</ele>
        <time>2019-06-17T09:55:56Z</time>
      </trkpt>
      <trkpt lat="44.20405" lon="5.53629">
        <ele>806</ele>
        <time>2019-06-17T09:55:57Z</time>
      </trkpt>
      <trkpt lat="44.2041" lon="5.53628">
        <ele>806</ele>
        <time>2019-06-17T09:55:58Z</time>
      </trkpt>
      <trkpt lat="44.20415" lon="5.53628">
        <ele>806</ele>
        <time>2019-06-17T09:55:59Z</time>
      </trkpt>
      <trkpt lat="44.2042" lon="5.53628">
        <ele>806</ele>
        <time>2019-06-17T09:56:00Z</time>
      </trkpt>
      <trkpt lat="44.20427" lon="5.53628">
        <ele>807</ele>
        <time>2019-06-17T09:56:01Z</time>
      </trkpt>
      <trkpt lat="44.20433" lon="5.53629">
        <ele>807</ele>
        <time>2019-06-17T09:56:02Z</time>
      </trkpt>
      <trkpt lat="44.20438" lon="5.5363">
        <ele>808</ele>
        <time>2019-06-17T09:56:03Z</time>
      </trkpt>
      <trkpt lat="44.20445" lon="5.53631">
        <ele>808</ele>
        <time>2019-06-17T09:56:04Z</time>
      </trkpt>
      <trkpt lat="44.20451" lon="5.53632">
        <ele>809</ele>
        <time>2019-06-17T09:56:05Z</time>
      </trkpt>
      <trkpt lat="44.20457" lon="5.53633">
        <ele>809</ele>
        <time>2019-06-17T09:56:06Z</time>
      </trkpt>
      <trkpt lat="44.20464" lon="5.53635">
        <ele>809</ele>
        <time>2019-06-17T09:56:07Z</time>
      </trkpt>
      <trkpt lat="44.20469" lon="5.53638">
        <ele>809</ele>
        <time>2019-06-17T09:56:08Z</time>
      </trkpt>
      <trkpt lat="44.20476" lon="5.5364">
        <ele>809</ele>
        <time>2019-06-17T09:56:09Z</time>
      </trkpt>
      <trkpt lat="44.20482" lon="5.53643">
        <ele>810</ele>
        <time>2019-06-17T09:56:10Z</time>
      </trkpt>
      <trkpt lat="44.20488" lon="5.53647">
        <ele>810</ele>
        <time>2019-06-17T09:56:11Z</time>
      </trkpt>
      <trkpt lat="44.20493" lon="5.53652">
        <ele>811</ele>
        <time>2019-06-17T09:56:12Z</time>
      </trkpt>
      <trkpt lat="44.20498" lon="5.53656">
        <ele>812</ele>
        <time>2019-06-17T09:56:13Z</time>
      </trkpt>
      <trkpt lat="44.20506" lon="5.53662">
        <ele>813</ele>
        <time>2019-06-17T09:56:14Z</time>
      </trkpt>
      <trkpt lat="44.20514" lon="5.53666">
        <ele>814</ele>
        <time>2019-06-17T09:56:15Z</time>
      </trkpt>
      <trkpt lat="44.20522" lon="5.53669">
        <ele>814</ele>
        <time>2019-06-17T09:56:16Z</time>
      </trkpt>
      <trkpt lat="44.20529" lon="5.53673">
        <ele>815</ele>
        <time>2019-06-17T09:56:17Z</time>
      </trkpt>
      <trkpt lat="44.20542" lon="5.53681">
        <ele>815</ele>
        <time>2019-06-17T09:56:19Z</time>
      </trkpt>
      <trkpt lat="44.20548" lon="5.53684">
        <ele>815</ele>
        <time>2019-06-17T09:56:20Z</time>
      </trkpt>
      <trkpt lat="44.20553" lon="5.53685">
        <ele>815</ele>
        <time>2019-06-17T09:56:21Z</time>
      </trkpt>
      <trkpt lat="44.20559" lon="5.53685">
        <ele>815</ele>
        <time>2019-06-17T09:56:22Z</time>
      </trkpt>
      <trkpt lat="44.20565" lon="5.53686">
        <ele>815</ele>
        <time>2019-06-17T09:56:23Z</time>
      </trkpt>
      <trkpt lat="44.2057" lon="5.53684">
        <ele>815</ele>
        <time>2019-06-17T09:56:24Z</time>
      </trkpt>
      <trkpt lat="44.20575" lon="5.53682">
        <ele>814</ele>
        <time>2019-06-17T09:56:25Z</time>
      </trkpt>
      <trkpt lat="44.2058" lon="5.53679">
        <ele>813</ele>
        <time>2019-06-17T09:56:26Z</time>
      </trkpt>
      <trkpt lat="44.20586" lon="5.53677">
        <ele>812</ele>
        <time>2019-06-17T09:56:27Z</time>
      </trkpt>
      <trkpt lat="44.20591" lon="5.53675">
        <ele>811</ele>
        <time>2019-06-17T09:56:28Z</time>
      </trkpt>
      <trkpt lat="44.20596" lon="5.53672">
        <ele>810</ele>
        <time>2019-06-17T09:56:29Z</time>
      </trkpt>
      <trkpt lat="44.20603" lon="5.5367">
        <ele>809</ele>
        <time>2019-06-17T09:56:30Z</time>
      </trkpt>
      <trkpt lat="44.20608" lon="5.53668">
        <ele>808</ele>
        <time>2019-06-17T09:56:31Z</time>
      </trkpt>
      <trkpt lat="44.20615" lon="5.53666">
        <ele>807</ele>
        <time>2019-06-17T09:56:32Z</time>
      </trkpt>
      <trkpt lat="44.2062" lon="5.53663">
        <ele>806</ele>
        <time>2019-06-17T09:56:33Z</time>
      </trkpt>
      <trkpt lat="44.20626" lon="5.53661">
        <ele>805</ele>
        <time>2019-06-17T09:56:34Z</time>
      </trkpt>
      <trkpt lat="44.20632" lon="5.53659">
        <ele>804</ele>
        <time>2019-06-17T09:56:35Z</time>
      </trkpt>
      <trkpt lat="44.20638" lon="5.53656">
        <ele>803</ele>
        <time>2019-06-17T09:56:36Z</time>
      </trkpt>
      <trkpt lat="44.20643" lon="5.53653">
        <ele>802</ele>
        <time>2019-06-17T09:56:37Z</time>
      </trkpt>
      <trkpt lat="44.2065" lon="5.53651">
        <ele>802</ele>
        <time>2019-06-17T09:56:38Z</time>
      </trkpt>
      <trkpt lat="44.20657" lon="5.53649">
        <ele>802</ele>
        <time>2019-06-17T09:56:39Z</time>
      </trkpt>
      <trkpt lat="44.20663" lon="5.53647">
        <ele>802</ele>
        <time>2019-06-17T09:56:40Z</time>
      </trkpt>
      <trkpt lat="44.2067" lon="5.53644">
        <ele>802</ele>
        <time>2019-06-17T09:56:41Z</time>
      </trkpt>
      <trkpt lat="44.20676" lon="5.53642">
        <ele>802</ele>
        <time>2019-06-17T09:56:42Z</time>
      </trkpt>
      <trkpt lat="44.20683" lon="5.53641">
        <ele>802</ele>
        <time>2019-06-17T09:56:43Z</time>
      </trkpt>
      <trkpt lat="44.20689" lon="5.5364">
        <ele>802</ele>
        <time>2019-06-17T09:56:44Z</time>
      </trkpt>
      <trkpt lat="44.20702" lon="5.5364">
        <ele>802</ele>
        <time>2019-06-17T09:56:46Z</time>
      </trkpt>
      <trkpt lat="44.20708" lon="5.53641">
        <ele>802</ele>
        <time>2019-06-17T09:56:47Z</time>
      </trkpt>
      <trkpt lat="44.20714" lon="5.53642">
        <ele>802</ele>
        <time>2019-06-17T09:56:48Z</time>
      </trkpt>
      <trkpt lat="44.20721" lon="5.53644">
        <ele>802</ele>
        <time>2019-06-17T09:56:49Z</time>
      </trkpt>
      <trkpt lat="44.20727" lon="5.53647">
        <ele>801</ele>
        <time>2019-06-17T09:56:50Z</time>
      </trkpt>
      <trkpt lat="44.20734" lon="5.53649">
        <ele>800</ele>
        <time>2019-06-17T09:56:51Z</time>
      </trkpt>
      <trkpt lat="44.20742" lon="5.53651">
        <ele>799</ele>
        <time>2019-06-17T09:56:52Z</time>
      </trkpt>
      <trkpt lat="44.2075" lon="5.53654">
        <ele>798</ele>
        <time>2019-06-17T09:56:53Z</time>
      </trkpt>
      <trkpt lat="44.20758" lon="5.53657">
        <ele>798</ele>
        <time>2019-06-17T09:56:54Z</time>
      </trkpt>
      <trkpt lat="44.20765" lon="5.5366">
        <ele>798</ele>
        <time>2019-06-17T09:56:55Z</time>
      </trkpt>
      <trkpt lat="44.20773" lon="5.53663">
        <ele>798</ele>
        <time>2019-06-17T09:56:56Z</time>
      </trkpt>
      <trkpt lat="44.2078" lon="5.53664">
        <ele>798</ele>
        <time>2019-06-17T09:56:57Z</time>
      </trkpt>
      <trkpt lat="44.20788" lon="5.53665">
        <ele>798</ele>
        <time>2019-06-17T09:56:58Z</time>
      </trkpt>
      <trkpt lat="44.20797" lon="5.53665">
        <ele>798</ele>
        <time>2019-06-17T09:56:59Z</time>
      </trkpt>
      <trkpt lat="44.20805" lon="5.53665">
        <ele>797</ele>
        <time>2019-06-17T09:57:00Z</time>
      </trkpt>
      <trkpt lat="44.20813" lon="5.53664">
        <ele>797</ele>
        <time>2019-06-17T09:57:01Z</time>
      </trkpt>
      <trkpt lat="44.2082" lon="5.53663">
        <ele>797</ele>
        <time>2019-06-17T09:57:02Z</time>
      </trkpt>
      <trkpt lat="44.20828" lon="5.53662">
        <ele>797</ele>
        <time>2019-06-17T09:57:03Z</time>
      </trkpt>
      <trkpt lat="44.20836" lon="5.5366">
        <ele>797</ele>
        <time>2019-06-17T09:57:04Z</time>
      </trkpt>
      <trkpt lat="44.20844" lon="5.53658">
        <ele>797</ele>
        <time>2019-06-17T09:57:05Z</time>
      </trkpt>
      <trkpt lat="44.20852" lon="5.53657">
        <ele>797</ele>
        <time>2019-06-17T09:57:06Z</time>
      </trkpt>
      <trkpt lat="44.2086" lon="5.53655">
        <ele>797</ele>
        <time>2019-06-17T09:57:07Z</time>
      </trkpt>
      <trkpt lat="44.20868" lon="5.53653">
        <ele>797</ele>
        <time>2019-06-17T09:57:08Z</time>
      </trkpt>
      <trkpt lat="44.20875" lon="5.53652">
        <ele>797</ele>
        <time>2019-06-17T09:57:09Z</time>
      </trkpt>
      <trkpt lat="44.20883" lon="5.5365">
        <ele>797</ele>
        <time>2019-06-17T09:57:10Z</time>
      </trkpt>
      <trkpt lat="44.2089" lon="5.53649">
        <ele>797</ele>
        <time>2019-06-17T09:57:11Z</time>
      </trkpt>
      <trkpt lat="44.20898" lon="5.53649">
        <ele>797</ele>
        <time>2019-06-17T09:57:12Z</time>
      </trkpt>
      <trkpt lat="44.20905" lon="5.53651">
        <ele>797</ele>
        <time>2019-06-17T09:57:13Z</time>
      </trkpt>
      <trkpt lat="44.20912" lon="5.53654">
        <ele>797</ele>
        <time>2019-06-17T09:57:14Z</time>
      </trkpt>
      <trkpt lat="44.20918" lon="5.53658">
        <ele>797</ele>
        <time>2019-06-17T09:57:15Z</time>
      </trkpt>
      <trkpt lat="44.20924" lon="5.53666">
        <ele>797</ele>
        <time>2019-06-17T09:57:16Z</time>
      </trkpt>
      <trkpt lat="44.20929" lon="5.53674">
        <ele>797</ele>
        <time>2019-06-17T09:57:17Z</time>
      </trkpt>
      <trkpt lat="44.20933" lon="5.53683">
        <ele>797</ele>
        <time>2019-06-17T09:57:18Z</time>
      </trkpt>
      <trkpt lat="44.20937" lon="5.53692">
        <ele>797</ele>
        <time>2019-06-17T09:57:19Z</time>
      </trkpt>
      <trkpt lat="44.2094" lon="5.53701">
        <ele>797</ele>
        <time>2019-06-17T09:57:20Z</time>
      </trkpt>
      <trkpt lat="44.20943" lon="5.5371">
        <ele>797</ele>
        <time>2019-06-17T09:57:21Z</time>
      </trkpt>
      <trkpt lat="44.20947" lon="5.5372">
        <ele>797</ele>
        <time>2019-06-17T09:57:22Z</time>
      </trkpt>
      <trkpt lat="44.2095" lon="5.53729">
        <ele>797</ele>
        <time>2019-06-17T09:57:23Z</time>
      </trkpt>
      <trkpt lat="44.20953" lon="5.53738">
        <ele>796</ele>
        <time>2019-06-17T09:57:24Z</time>
      </trkpt>
      <trkpt lat="44.20956" lon="5.53747">
        <ele>796</ele>
        <time>2019-06-17T09:57:25Z</time>
      </trkpt>
      <trkpt lat="44.20959" lon="5.53756">
        <ele>796</ele>
        <time>2019-06-17T09:57:26Z</time>
      </trkpt>
      <trkpt lat="44.20963" lon="5.53765">
        <ele>796</ele>
        <time>2019-06-17T09:57:27Z</time>
      </trkpt>
      <trkpt lat="44.20966" lon="5.53773">
        <ele>796</ele>
        <time>2019-06-17T09:57:28Z</time>
      </trkpt>
      <trkpt lat="44.20969" lon="5.53781">
        <ele>796</ele>
        <time>2019-06-17T09:57:29Z</time>
      </trkpt>
      <trkpt lat="44.20973" lon="5.53789">
        <ele>796</ele>
        <time>2019-06-17T09:57:30Z</time>
      </trkpt>
      <trkpt lat="44.20977" lon="5.53796">
        <ele>796</ele>
        <time>2019-06-17T09:57:31Z</time>
      </trkpt>
      <trkpt lat="44.2098" lon="5.53804">
        <ele>796</ele>
        <time>2019-06-17T09:57:32Z</time>
      </trkpt>
      <trkpt lat="44.20984" lon="5.53812">
        <ele>795</ele>
        <time>2019-06-17T09:57:33Z</time>
      </trkpt>
      <trkpt lat="44.20989" lon="5.53819">
        <ele>795</ele>
        <time>2019-06-17T09:57:34Z</time>
      </trkpt>
      <trkpt lat="44.20994" lon="5.53826">
        <ele>795</ele>
        <time>2019-06-17T09:57:35Z</time>
      </trkpt>
      <trkpt lat="44.20998" lon="5.53833">
        <ele>795</ele>
        <time>2019-06-17T09:57:36Z</time>
      </trkpt>
      <trkpt lat="44.21002" lon="5.53841">
        <ele>795</ele>
        <time>2019-06-17T09:57:37Z</time>
      </trkpt>
      <trkpt lat="44.21007" lon="5.53848">
        <ele>794</ele>
        <time>2019-06-17T09:57:38Z</time>
      </trkpt>
      <trkpt lat="44.21011" lon="5.53855">
        <ele>794</ele>
        <time>2019-06-17T09:57:39Z</time>
      </trkpt>
      <trkpt lat="44.21016" lon="5.53862">
        <ele>793</ele>
        <time>2019-06-17T09:57:40Z</time>
      </trkpt>
      <trkpt lat="44.21022" lon="5.53869">
        <ele>793</ele>
        <time>2019-06-17T09:57:41Z</time>
      </trkpt>
      <trkpt lat="44.21027" lon="5.53875">
        <ele>792</ele>
        <time>2019-06-17T09:57:42Z</time>
      </trkpt>
      <trkpt lat="44.21033" lon="5.53881">
        <ele>791</ele>
        <time>2019-06-17T09:57:43Z</time>
      </trkpt>
      <trkpt lat="44.21038" lon="5.53887">
        <ele>791</ele>
        <time>2019-06-17T09:57:44Z</time>
      </trkpt>
      <trkpt lat="44.21045" lon="5.53893">
        <ele>790</ele>
        <time>2019-06-17T09:57:45Z</time>
      </trkpt>
      <trkpt lat="44.21051" lon="5.53898">
        <ele>790</ele>
        <time>2019-06-17T09:57:46Z</time>
      </trkpt>
      <trkpt lat="44.21058" lon="5.53903">
        <ele>790</ele>
        <time>2019-06-17T09:57:47Z</time>
      </trkpt>
      <trkpt lat="44.21066" lon="5.53907">
        <ele>789</ele>
        <time>2019-06-17T09:57:48Z</time>
      </trkpt>
      <trkpt lat="44.21072" lon="5.53912">
        <ele>789</ele>
        <time>2019-06-17T09:57:49Z</time>
      </trkpt>
      <trkpt lat="44.21079" lon="5.53917">
        <ele>789</ele>
        <time>2019-06-17T09:57:50Z</time>
      </trkpt>
      <trkpt lat="44.21086" lon="5.53921">
        <ele>789</ele>
        <time>2019-06-17T09:57:51Z</time>
      </trkpt>
      <trkpt lat="44.21093" lon="5.53925">
        <ele>789</ele>
        <time>2019-06-17T09:57:52Z</time>
      </trkpt>
      <trkpt lat="44.21099" lon="5.53929">
        <ele>788</ele>
        <time>2019-06-17T09:57:53Z</time>
      </trkpt>
      <trkpt lat="44.21106" lon="5.53933">
        <ele>787</ele>
        <time>2019-06-17T09:57:54Z</time>
      </trkpt>
      <trkpt lat="44.21113" lon="5.53937">
        <ele>786</ele>
        <time>2019-06-17T09:57:55Z</time>
      </trkpt>
      <trkpt lat="44.2112" lon="5.53941">
        <ele>785</ele>
        <time>2019-06-17T09:57:56Z</time>
      </trkpt>
      <trkpt lat="44.21127" lon="5.53945">
        <ele>784</ele>
        <time>2019-06-17T09:57:57Z</time>
      </trkpt>
      <trkpt lat="44.21135" lon="5.53949">
        <ele>783</ele>
        <time>2019-06-17T09:57:58Z</time>
      </trkpt>
      <trkpt lat="44.21143" lon="5.53954">
        <ele>782</ele>
        <time>2019-06-17T09:57:59Z</time>
      </trkpt>
      <trkpt lat="44.21151" lon="5.53958">
        <ele>781</ele>
        <time>2019-06-17T09:58:00Z</time>
      </trkpt>
      <trkpt lat="44.21159" lon="5.53962">
        <ele>780</ele>
        <time>2019-06-17T09:58:01Z</time>
      </trkpt>
      <trkpt lat="44.21167" lon="5.53966">
        <ele>779</ele>
        <time>2019-06-17T09:58:02Z</time>
      </trkpt>
      <trkpt lat="44.21176" lon="5.53971">
        <ele>779</ele>
        <time>2019-06-17T09:58:03Z</time>
      </trkpt>
      <trkpt lat="44.21184" lon="5.53976">
        <ele>779</ele>
        <time>2019-06-17T09:58:04Z</time>
      </trkpt>
      <trkpt lat="44.21193" lon="5.5398">
        <ele>778</ele>
        <time>2019-06-17T09:58:05Z</time>
      </trkpt>
      <trkpt lat="44.21201" lon="5.53985">
        <ele>778</ele>
        <time>2019-06-17T09:58:06Z</time>
      </trkpt>
      <trkpt lat="44.21209" lon="5.5399">
        <ele>778</ele>
        <time>2019-06-17T09:58:07Z</time>
      </trkpt>
      <trkpt lat="44.21218" lon="5.53995">
        <ele>778</ele>
        <time>2019-06-17T09:58:08Z</time>
      </trkpt>
      <trkpt lat="44.21226" lon="5.54">
        <ele>777</ele>
        <time>2019-06-17T09:58:09Z</time>
      </trkpt>
      <trkpt lat="44.21235" lon="5.54004">
        <ele>777</ele>
        <time>2019-06-17T09:58:10Z</time>
      </trkpt>
      <trkpt lat="44.21243" lon="5.54009">
        <ele>777</ele>
        <time>2019-06-17T09:58:11Z</time>
      </trkpt>
      <trkpt lat="44.21252" lon="5.54014">
        <ele>776</ele>
        <time>2019-06-17T09:58:12Z</time>
      </trkpt>
      <trkpt lat="44.21261" lon="5.54019">
        <ele>776</ele>
        <time>2019-06-17T09:58:13Z</time>
      </trkpt>
      <trkpt lat="44.2127" lon="5.54024">
        <ele>776</ele>
        <time>2019-06-17T09:58:14Z</time>
      </trkpt>
      <trkpt lat="44.21279" lon="5.5403">
        <ele>775</ele>
        <time>2019-06-17T09:58:15Z</time>
      </trkpt>
      <trkpt lat="44.21288" lon="5.54035">
        <ele>775</ele>
        <time>2019-06-17T09:58:16Z</time>
      </trkpt>
      <trkpt lat="44.21296" lon="5.54041">
        <ele>774</ele>
        <time>2019-06-17T09:58:17Z</time>
      </trkpt>
      <trkpt lat="44.21304" lon="5.54048">
        <ele>774</ele>
        <time>2019-06-17T09:58:18Z</time>
      </trkpt>
      <trkpt lat="44.21313" lon="5.54055">
        <ele>774</ele>
        <time>2019-06-17T09:58:19Z</time>
      </trkpt>
      <trkpt lat="44.21321" lon="5.54063">
        <ele>773</ele>
        <time>2019-06-17T09:58:20Z</time>
      </trkpt>
      <trkpt lat="44.21329" lon="5.54071">
        <ele>773</ele>
        <time>2019-06-17T09:58:21Z</time>
      </trkpt>
      <trkpt lat="44.21336" lon="5.54079">
        <ele>773</ele>
        <time>2019-06-17T09:58:22Z</time>
      </trkpt>
      <trkpt lat="44.21344" lon="5.54088">
        <ele>773</ele>
        <time>2019-06-17T09:58:23Z</time>
      </trkpt>
      <trkpt lat="44.21352" lon="5.54097">
        <ele>773</ele>
        <time>2019-06-17T09:58:24Z</time>
      </trkpt>
      <trkpt lat="44.2136" lon="5.54105">
        <ele>772</ele>
        <time>2019-06-17T09:58:25Z</time>
      </trkpt>
      <trkpt lat="44.21367" lon="5.54114">
        <ele>772</ele>
        <time>2019-06-17T09:58:26Z</time>
      </trkpt>
      <trkpt lat="44.21375" lon="5.54123">
        <ele>772</ele>
        <time>2019-06-17T09:58:27Z</time>
      </trkpt>
      <trkpt lat="44.21382" lon="5.54132">
        <ele>772</ele>
        <time>2019-06-17T09:58:28Z</time>
      </trkpt>
      <trkpt lat="44.2139" lon="5.54141">
        <ele>772</ele>
        <time>2019-06-17T09:58:29Z</time>
      </trkpt>
      <trkpt lat="44.21397" lon="5.5415">
        <ele>771</ele>
        <time>2019-06-17T09:58:30Z</time>
      </trkpt>
      <trkpt lat="44.21405" lon="5.54158">
        <ele>771</ele>
        <time>2019-06-17T09:58:31Z</time>
      </trkpt>
      <trkpt lat="44.21413" lon="5.54167">
        <ele>771</ele>
        <time>2019-06-17T09:58:32Z</time>
      </trkpt>
      <trkpt lat="44.21421" lon="5.54176">
        <ele>771</ele>
        <time>2019-06-17T09:58:33Z</time>
      </trkpt>
      <trkpt lat="44.21428" lon="5.54184">
        <ele>770</ele>
        <time>2019-06-17T09:58:34Z</time>
      </trkpt>
      <trkpt lat="44.21435" lon="5.54193">
        <ele>770</ele>
        <time>2019-06-17T09:58:35Z</time>
      </trkpt>
      <trkpt lat="44.21442" lon="5.54202">
        <ele>770</ele>
        <time>2019-06-17T09:58:36Z</time>
      </trkpt>
      <trkpt lat="44.2145" lon="5.54211">
        <ele>770</ele>
        <time>2019-06-17T09:58:37Z</time>
      </trkpt>
      <trkpt lat="44.21457" lon="5.5422">
        <ele>770</ele>
        <time>2019-06-17T09:58:38Z</time>
      </trkpt>
      <trkpt lat="44.21464" lon="5.54228">
        <ele>770</ele>
        <time>2019-06-17T09:58:39Z</time>
      </trkpt>
      <trkpt lat="44.21471" lon="5.54237">
        <ele>770</ele>
        <time>2019-06-17T09:58:40Z</time>
      </trkpt>
      <trkpt lat="44.21478" lon="5.54246">
        <ele>770</ele>
        <time>2019-06-17T09:58:41Z</time>
      </trkpt>
      <trkpt lat="44.21485" lon="5.54255">
        <ele>769</ele>
        <time>2019-06-17T09:58:42Z</time>
      </trkpt>
      <trkpt lat="44.21492" lon="5.54263">
        <ele>769</ele>
        <time>2019-06-17T09:58:43Z</time>
      </trkpt>
      <trkpt lat="44.21498" lon="5.54272">
        <ele>769</ele>
        <time>2019-06-17T09:58:44Z</time>
      </trkpt>
      <trkpt lat="44.21505" lon="5.5428">
        <ele>769</ele>
        <time>2019-06-17T09:58:45Z</time>
      </trkpt>
      <trkpt lat="44.21512" lon="5.54288">
        <ele>769</ele>
        <time>2019-06-17T09:58:46Z</time>
      </trkpt>
      <trkpt lat="44.21519" lon="5.54295">
        <ele>769</ele>
        <time>2019-06-17T09:58:47Z</time>
      </trkpt>
      <trkpt lat="44.21526" lon="5.54303">
        <ele>769</ele>
        <time>2019-06-17T09:58:48Z</time>
      </trkpt>
      <trkpt lat="44.21532" lon="5.54311">
        <ele>769</ele>
        <time>2019-06-17T09:58:49Z</time>
      </trkpt>
      <trkpt lat="44.21539" lon="5.54318">
        <ele>769</ele>
        <time>2019-06-17T09:58:50Z</time>
      </trkpt>
      <trkpt lat="44.21545" lon="5.54325">
        <ele>769</ele>
        <time>2019-06-17T09:58:51Z</time>
      </trkpt>
      <trkpt lat="44.21552" lon="5.54332">
        <ele>769</ele>
        <time>2019-06-17T09:58:52Z</time>
      </trkpt>
      <trkpt lat="44.21558" lon="5.54339">
        <ele>769</ele>
        <time>2019-06-17T09:58:53Z</time>
      </trkpt>
      <trkpt lat="44.21565" lon="5.54346">
        <ele>769</ele>
        <time>2019-06-17T09:58:54Z</time>
      </trkpt>
      <trkpt lat="44.21572" lon="5.54351">
        <ele>769</ele>
        <time>2019-06-17T09:58:55Z</time>
      </trkpt>
      <trkpt lat="44.2158" lon="5.54355">
        <ele>769</ele>
        <time>2019-06-17T09:58:56Z</time>
      </trkpt>
      <trkpt lat="44.21587" lon="5.54359">
        <ele>769</ele>
        <time>2019-06-17T09:58:57Z</time>
      </trkpt>
      <trkpt lat="44.21595" lon="5.54362">
        <ele>769</ele>
        <time>2019-06-17T09:58:58Z</time>
      </trkpt>
      <trkpt lat="44.21604" lon="5.54365">
        <ele>769</ele>
        <time>2019-06-17T09:58:59Z</time>
      </trkpt>
      <trkpt lat="44.21612" lon="5.54368">
        <ele>769</ele>
        <time>2019-06-17T09:59:00Z</time>
      </trkpt>
      <trkpt lat="44.2162" lon="5.54372">
        <ele>769</ele>
        <time>2019-06-17T09:59:01Z</time>
      </trkpt>
      <trkpt lat="44.21628" lon="5.54376">
        <ele>769</ele>
        <time>2019-06-17T09:59:02Z</time>
      </trkpt>
      <trkpt lat="44.21636" lon="5.5438">
        <ele>769</ele>
        <time>2019-06-17T09:59:03Z</time>
      </trkpt>
      <trkpt lat="44.21643" lon="5.54386">
        <ele>769</ele>
        <time>2019-06-17T09:59:04Z</time>
      </trkpt>
      <trkpt lat="44.21651" lon="5.54392">
        <ele>769</ele>
        <time>2019-06-17T09:59:05Z</time>
      </trkpt>
      <trkpt lat="44.21658" lon="5.54399">
        <ele>768</ele>
        <time>2019-06-17T09:59:06Z</time>
      </trkpt>
      <trkpt lat="44.21664" lon="5.54407">
        <ele>768</ele>
        <time>2019-06-17T09:59:07Z</time>
      </trkpt>
      <trkpt lat="44.21671" lon="5.54415">
        <ele>768</ele>
        <time>2019-06-17T09:59:08Z</time>
      </trkpt>
      <trkpt lat="44.21676" lon="5.54424">
        <ele>768</ele>
        <time>2019-06-17T09:59:09Z</time>
      </trkpt>
      <trkpt lat="44.21682" lon="5.54434">
        <ele>767</ele>
        <time>2019-06-17T09:59:10Z</time>
      </trkpt>
      <trkpt lat="44.21687" lon="5.54443">
        <ele>767</ele>
        <time>2019-06-17T09:59:11Z</time>
      </trkpt>
      <trkpt lat="44.21691" lon="5.54453">
        <ele>767</ele>
        <time>2019-06-17T09:59:12Z</time>
      </trkpt>
      <trkpt lat="44.21695" lon="5.54462">
        <ele>767</ele>
        <time>2019-06-17T09:59:13Z</time>
      </trkpt>
      <trkpt lat="44.217" lon="5.54471">
        <ele>767</ele>
        <time>2019-06-17T09:59:14Z</time>
      </trkpt>
      <trkpt lat="44.21703" lon="5.54481">
        <ele>767</ele>
        <time>2019-06-17T09:59:15Z</time>
      </trkpt>
      <trkpt lat="44.21707" lon="5.5449">
        <ele>767</ele>
        <time>2019-06-17T09:59:16Z</time>
      </trkpt>
      <trkpt lat="44.2171" lon="5.54498">
        <ele>767</ele>
        <time>2019-06-17T09:59:17Z</time>
      </trkpt>
      <trkpt lat="44.21712" lon="5.54507">
        <ele>767</ele>
        <time>2019-06-17T09:59:18Z</time>
      </trkpt>
      <trkpt lat="44.21716" lon="5.54515">
        <ele>767</ele>
        <time>2019-06-17T09:59:19Z</time>
      </trkpt>
      <trkpt lat="44.21719" lon="5.54524">
        <ele>767</ele>
        <time>2019-06-17T09:59:20Z</time>
      </trkpt>
      <trkpt lat="44.21722" lon="5.54531">
        <ele>767</ele>
        <time>2019-06-17T09:59:21Z</time>
      </trkpt>
      <trkpt lat="44.21724" lon="5.54539">
        <ele>767</ele>
        <time>2019-06-17T09:59:22Z</time>
      </trkpt>
      <trkpt lat="44.21727" lon="5.54547">
        <ele>767</ele>
        <time>2019-06-17T09:59:23Z</time>
      </trkpt>
      <trkpt lat="44.2173" lon="5.54555">
        <ele>768</ele>
        <time>2019-06-17T09:59:24Z</time>
      </trkpt>
      <trkpt lat="44.21733" lon="5.54562">
        <ele>768</ele>
        <time>2019-06-17T09:59:25Z</time>
      </trkpt>
      <trkpt lat="44.21737" lon="5.5457">
        <ele>768</ele>
        <time>2019-06-17T09:59:26Z</time>
      </trkpt>
      <trkpt lat="44.2174" lon="5.54577">
        <ele>768</ele>
        <time>2019-06-17T09:59:27Z</time>
      </trkpt>
      <trkpt lat="44.21743" lon="5.54585">
        <ele>768</ele>
        <time>2019-06-17T09:59:28Z</time>
      </trkpt>
      <trkpt lat="44.21747" lon="5.54593">
        <ele>769</ele>
        <time>2019-06-17T09:59:29Z</time>
      </trkpt>
      <trkpt lat="44.2175" lon="5.546">
        <ele>770</ele>
        <time>2019-06-17T09:59:30Z</time>
      </trkpt>
      <trkpt lat="44.21753" lon="5.54608">
        <ele>770</ele>
        <time>2019-06-17T09:59:31Z</time>
      </trkpt>
      <trkpt lat="44.21757" lon="5.54615">
        <ele>770</ele>
        <time>2019-06-17T09:59:32Z</time>
      </trkpt>
      <trkpt lat="44.2176" lon="5.54623">
        <ele>771</ele>
        <time>2019-06-17T09:59:33Z</time>
      </trkpt>
      <trkpt lat="44.21763" lon="5.5463">
        <ele>771</ele>
        <time>2019-06-17T09:59:34Z</time>
      </trkpt>
      <trkpt lat="44.21766" lon="5.54637">
        <ele>772</ele>
        <time>2019-06-17T09:59:35Z</time>
      </trkpt>
      <trkpt lat="44.21769" lon="5.54644">
        <ele>772</ele>
        <time>2019-06-17T09:59:36Z</time>
      </trkpt>
      <trkpt lat="44.21772" lon="5.54651">
        <ele>773</ele>
        <time>2019-06-17T09:59:37Z</time>
      </trkpt>
      <trkpt lat="44.21775" lon="5.54658">
        <ele>773</ele>
        <time>2019-06-17T09:59:38Z</time>
      </trkpt>
      <trkpt lat="44.21778" lon="5.54665">
        <ele>773</ele>
        <time>2019-06-17T09:59:39Z</time>
      </trkpt>
      <trkpt lat="44.2178" lon="5.54672">
        <ele>773</ele>
        <time>2019-06-17T09:59:40Z</time>
      </trkpt>
      <trkpt lat="44.21783" lon="5.54679">
        <ele>774</ele>
        <time>2019-06-17T09:59:41Z</time>
      </trkpt>
      <trkpt lat="44.21785" lon="5.54685">
        <ele>774</ele>
        <time>2019-06-17T09:59:42Z</time>
      </trkpt>
      <trkpt lat="44.21788" lon="5.54692">
        <ele>774</ele>
        <time>2019-06-17T09:59:43Z</time>
      </trkpt>
      <trkpt lat="44.21791" lon="5.54699">
        <ele>774</ele>
        <time>2019-06-17T09:59:44Z</time>
      </trkpt>
      <trkpt lat="44.21793" lon="5.54706">
        <ele>774</ele>
        <time>2019-06-17T09:59:45Z</time>
      </trkpt>
      <trkpt lat="44.21796" lon="5.54712">
        <ele>775</ele>
        <time>2019-06-17T09:59:46Z</time>
      </trkpt>
      <trkpt lat="44.21798" lon="5.54719">
        <ele>775</ele>
        <time>2019-06-17T09:59:47Z</time>
      </trkpt>
      <trkpt lat="44.21801" lon="5.54726">
        <ele>775</ele>
        <time>2019-06-17T09:59:48Z</time>
      </trkpt>
      <trkpt lat="44.21804" lon="5.54733">
        <ele>775</ele>
        <time>2019-06-17T09:59:49Z</time>
      </trkpt>
      <trkpt lat="44.21806" lon="5.54739">
        <ele>775</ele>
        <time>2019-06-17T09:59:50Z</time>
      </trkpt>
      <trkpt lat="44.21809" lon="5.54746">
        <ele>776</ele>
        <time>2019-06-17T09:59:51Z</time>
      </trkpt>
      <trkpt lat="44.21811" lon="5.54753">
        <ele>776</ele>
        <time>2019-06-17T09:59:52Z</time>
      </trkpt>
      <trkpt lat="44.21814" lon="5.5476">
        <ele>776</ele>
        <time>2019-06-17T09:59:53Z</time>
      </trkpt>
      <trkpt lat="44.21816" lon="5.54767">
        <ele>776</ele>
        <time>2019-06-17T09:59:54Z</time>
      </trkpt>
      <trkpt lat="44.21819" lon="5.54773">
        <ele>776</ele>
        <time>2019-06-17T09:59:55Z</time>
      </trkpt>
      <trkpt lat="44.21821" lon="5.5478">
        <ele>777</ele>
        <time>2019-06-17T09:59:56Z</time>
      </trkpt>
      <trkpt lat="44.21823" lon="5.54787">
        <ele>777</ele>
        <time>2019-06-17T09:59:57Z</time>
      </trkpt>
      <trkpt lat="44.21826" lon="5.54793">
        <ele>777</ele>
        <time>2019-06-17T09:59:58Z</time>
      </trkpt>
      <trkpt lat="44.21828" lon="5.548">
        <ele>777</ele>
        <time>2019-06-17T09:59:59Z</time>
      </trkpt>
      <trkpt lat="44.21831" lon="5.54807">
        <ele>777</ele>
        <time>2019-06-17T10:00:00Z</time>
      </trkpt>
      <trkpt lat="44.21834" lon="5.54814">
        <ele>777</ele>
        <time>2019-06-17T10:00:01Z</time>
      </trkpt>
      <trkpt lat="44.21837" lon="5.54821">
        <ele>777</ele>
        <time>2019-06-17T10:00:02Z</time>
      </trkpt>
      <trkpt lat="44.2184" lon="5.54829">
        <ele>777</ele>
        <time>2019-06-17T10:00:03Z</time>
      </trkpt>
      <trkpt lat="44.21843" lon="5.54837">
        <ele>777</ele>
        <time>2019-06-17T10:00:04Z</time>
      </trkpt>
      <trkpt lat="44.21846" lon="5.54846">
        <ele>777</ele>
        <time>2019-06-17T10:00:05Z</time>
      </trkpt>
      <trkpt lat="44.21849" lon="5.54854">
        <ele>777</ele>
        <time>2019-06-17T10:00:06Z</time>
      </trkpt>
      <trkpt lat="44.21852" lon="5.54863">
        <ele>777</ele>
        <time>2019-06-17T10:00:07Z</time>
      </trkpt>
      <trkpt lat="44.21855" lon="5.54872">
        <ele>777</ele>
        <time>2019-06-17T10:00:08Z</time>
      </trkpt>
      <trkpt lat="44.21859" lon="5.54881">
        <ele>777</ele>
        <time>2019-06-17T10:00:09Z</time>
      </trkpt>
      <trkpt lat="44.21862" lon="5.54891">
        <ele>777</ele>
        <time>2019-06-17T10:00:10Z</time>
      </trkpt>
      <trkpt lat="44.21866" lon="5.54901">
        <ele>777</ele>
        <time>2019-06-17T10:00:11Z</time>
      </trkpt>
      <trkpt lat="44.2187" lon="5.5491">
        <ele>777</ele>
        <time>2019-06-17T10:00:12Z</time>
      </trkpt>
      <trkpt lat="44.21873" lon="5.5492">
        <ele>777</ele>
        <time>2019-06-17T10:00:13Z</time>
      </trkpt>
      <trkpt lat="44.21877" lon="5.5493">
        <ele>777</ele>
        <time>2019-06-17T10:00:14Z</time>
      </trkpt>
      <trkpt lat="44.21881" lon="5.54941">
        <ele>777</ele>
        <time>2019-06-17T10:00:15Z</time>
      </trkpt>
      <trkpt lat="44.21885" lon="5.54951">
        <ele>777</ele>
        <time>2019-06-17T10:00:16Z</time>
      </trkpt>
      <trkpt lat="44.21889" lon="5.54962">
        <ele>777</ele>
        <time>2019-06-17T10:00:17Z</time>
      </trkpt>
      <trkpt lat="44.21893" lon="5.54972">
        <ele>777</ele>
        <time>2019-06-17T10:00:18Z</time>
      </trkpt>
      <trkpt lat="44.21897" lon="5.54984">
        <ele>777</ele>
        <time>2019-06-17T10:00:19Z</time>
      </trkpt>
      <trkpt lat="44.21901" lon="5.54995">
        <ele>776</ele>
        <time>2019-06-17T10:00:20Z</time>
      </trkpt>
      <trkpt lat="44.21905" lon="5.55006">
        <ele>776</ele>
        <time>2019-06-17T10:00:21Z</time>
      </trkpt>
      <trkpt lat="44.21909" lon="5.55017">
        <ele>776</ele>
        <time>2019-06-17T10:00:22Z</time>
      </trkpt>
      <trkpt lat="44.21914" lon="5.55028">
        <ele>775</ele>
        <time>2019-06-17T10:00:23Z</time>
      </trkpt>
      <trkpt lat="44.21918" lon="5.5504">
        <ele>775</ele>
        <time>2019-06-17T10:00:24Z</time>
      </trkpt>
      <trkpt lat="44.21922" lon="5.55051">
        <ele>775</ele>
        <time>2019-06-17T10:00:25Z</time>
      </trkpt>
      <trkpt lat="44.21926" lon="5.55062">
        <ele>774</ele>
        <time>2019-06-17T10:00:26Z</time>
      </trkpt>
      <trkpt lat="44.2193" lon="5.55073">
        <ele>774</ele>
        <time>2019-06-17T10:00:27Z</time>
      </trkpt>
      <trkpt lat="44.21935" lon="5.55084">
        <ele>773</ele>
        <time>2019-06-17T10:00:28Z</time>
      </trkpt>
      <trkpt lat="44.21939" lon="5.55095">
        <ele>773</ele>
        <time>2019-06-17T10:00:29Z</time>
      </trkpt>
      <trkpt lat="44.21943" lon="5.55107">
        <ele>772</ele>
        <time>2019-06-17T10:00:30Z</time>
      </trkpt>
      <trkpt lat="44.21947" lon="5.55119">
        <ele>772</ele>
        <time>2019-06-17T10:00:31Z</time>
      </trkpt>
      <trkpt lat="44.21951" lon="5.5513">
        <ele>772</ele>
        <time>2019-06-17T10:00:32Z</time>
      </trkpt>
      <trkpt lat="44.21955" lon="5.55142">
        <ele>771</ele>
        <time>2019-06-17T10:00:33Z</time>
      </trkpt>
      <trkpt lat="44.21958" lon="5.55155">
        <ele>771</ele>
        <time>2019-06-17T10:00:34Z</time>
      </trkpt>
      <trkpt lat="44.21962" lon="5.55167">
        <ele>771</ele>
        <time>2019-06-17T10:00:35Z</time>
      </trkpt>
      <trkpt lat="44.21965" lon="5.5518">
        <ele>771</ele>
        <time>2019-06-17T10:00:36Z</time>
      </trkpt>
      <trkpt lat="44.21967" lon="5.55193">
        <ele>770</ele>
        <time>2019-06-17T10:00:37Z</time>
      </trkpt>
      <trkpt lat="44.21969" lon="5.55206">
        <ele>770</ele>
        <time>2019-06-17T10:00:38Z</time>
      </trkpt>
      <trkpt lat="44.21971" lon="5.5522">
        <ele>769</ele>
        <time>2019-06-17T10:00:39Z</time>
      </trkpt>
      <trkpt lat="44.21973" lon="5.55233">
        <ele>769</ele>
        <time>2019-06-17T10:00:40Z</time>
      </trkpt>
      <trkpt lat="44.21974" lon="5.55246">
        <ele>768</ele>
        <time>2019-06-17T10:00:41Z</time>
      </trkpt>
      <trkpt lat="44.21976" lon="5.5526">
        <ele>768</ele>
        <time>2019-06-17T10:00:42Z</time>
      </trkpt>
      <trkpt lat="44.21977" lon="5.55273">
        <ele>768</ele>
        <time>2019-06-17T10:00:43Z</time>
      </trkpt>
      <trkpt lat="44.21979" lon="5.55287">
        <ele>767</ele>
        <time>2019-06-17T10:00:44Z</time>
      </trkpt>
      <trkpt lat="44.2198" lon="5.553">
        <ele>767</ele>
        <time>2019-06-17T10:00:45Z</time>
      </trkpt>
      <trkpt lat="44.21981" lon="5.55313">
        <ele>767</ele>
        <time>2019-06-17T10:00:46Z</time>
      </trkpt>
      <trkpt lat="44.21982" lon="5.55325">
        <ele>766</ele>
        <time>2019-06-17T10:00:47Z</time>
      </trkpt>
      <trkpt lat="44.21983" lon="5.55337">
        <ele>766</ele>
        <time>2019-06-17T10:00:48Z</time>
      </trkpt>
      <trkpt lat="44.21985" lon="5.55349">
        <ele>766</ele>
        <time>2019-06-17T10:00:49Z</time>
      </trkpt>
      <trkpt lat="44.21986" lon="5.55361">
        <ele>766</ele>
        <time>2019-06-17T10:00:50Z</time>
      </trkpt>
      <trkpt lat="44.21987" lon="5.55373">
        <ele>766</ele>
        <time>2019-06-17T10:00:51Z</time>
      </trkpt>
      <trkpt lat="44.21988" lon="5.55384">
        <ele>766</ele>
        <time>2019-06-17T10:00:52Z</time>
      </trkpt>
      <trkpt lat="44.21989" lon="5.55395">
        <ele>765</ele>
        <time>2019-06-17T10:00:53Z</time>
      </trkpt>
      <trkpt lat="44.2199" lon="5.55406">
        <ele>765</ele>
        <time>2019-06-17T10:00:54Z</time>
      </trkpt>
      <trkpt lat="44.21991" lon="5.55417">
        <ele>765</ele>
        <time>2019-06-17T10:00:55Z</time>
      </trkpt>
      <trkpt lat="44.21992" lon="5.55428">
        <ele>765</ele>
        <time>2019-06-17T10:00:56Z</time>
      </trkpt>
      <trkpt lat="44.21993" lon="5.5544">
        <ele>765</ele>
        <time>2019-06-17T10:00:57Z</time>
      </trkpt>
      <trkpt lat="44.21994" lon="5.5545">
        <ele>765</ele>
        <time>2019-06-17T10:00:58Z</time>
      </trkpt>
      <trkpt lat="44.21996" lon="5.55461">
        <ele>765</ele>
        <time>2019-06-17T10:00:59Z</time>
      </trkpt>
      <trkpt lat="44.21997" lon="5.55472">
        <ele>765</ele>
        <time>2019-06-17T10:01:00Z</time>
      </trkpt>
      <trkpt lat="44.21998" lon="5.55482">
        <ele>765</ele>
        <time>2019-06-17T10:01:01Z</time>
      </trkpt>
      <trkpt lat="44.21999" lon="5.55492">
        <ele>765</ele>
        <time>2019-06-17T10:01:02Z</time>
      </trkpt>
      <trkpt lat="44.22" lon="5.55503">
        <ele>765</ele>
        <time>2019-06-17T10:01:03Z</time>
      </trkpt>
      <trkpt lat="44.22001" lon="5.55513">
        <ele>765</ele>
        <time>2019-06-17T10:01:04Z</time>
      </trkpt>
      <trkpt lat="44.22002" lon="5.55523">
        <ele>764</ele>
        <time>2019-06-17T10:01:05Z</time>
      </trkpt>
      <trkpt lat="44.22003" lon="5.55534">
        <ele>764</ele>
        <time>2019-06-17T10:01:06Z</time>
      </trkpt>
      <trkpt lat="44.22004" lon="5.55544">
        <ele>764</ele>
        <time>2019-06-17T10:01:07Z</time>
      </trkpt>
      <trkpt lat="44.22005" lon="5.55553">
        <ele>764</ele>
        <time>2019-06-17T10:01:08Z</time>
      </trkpt>
      <trkpt lat="44.22006" lon="5.55563">
        <ele>764</ele>
        <time>2019-06-17T10:01:09Z</time>
      </trkpt>
      <trkpt lat="44.22007" lon="5.55573">
        <ele>764</ele>
        <time>2019-06-17T10:01:10Z</time>
      </trkpt>
      <trkpt lat="44.22008" lon="5.55583">
        <ele>764</ele>
        <time>2019-06-17T10:01:11Z</time>
      </trkpt>
      <trkpt lat="44.2201" lon="5.55592">
        <ele>764</ele>
        <time>2019-06-17T10:01:12Z</time>
      </trkpt>
      <trkpt lat="44.22011" lon="5.55602">
        <ele>764</ele>
        <time>2019-06-17T10:01:13Z</time>
      </trkpt>
      <trkpt lat="44.22012" lon="5.55612">
        <ele>764</ele>
        <time>2019-06-17T10:01:14Z</time>
      </trkpt>
      <trkpt lat="44.22013" lon="5.55622">
        <ele>764</ele>
        <time>2019-06-17T10:01:15Z</time>
      </trkpt>
      <trkpt lat="44.22014" lon="5.55632">
        <ele>764</ele>
        <time>2019-06-17T10:01:16Z</time>
      </trkpt>
      <trkpt lat="44.22015" lon="5.55642">
        <ele>763</ele>
        <time>2019-06-17T10:01:17Z</time>
      </trkpt>
      <trkpt lat="44.22016" lon="5.55652">
        <ele>763</ele>
        <time>2019-06-17T10:01:18Z</time>
      </trkpt>
      <trkpt lat="44.22017" lon="5.55662">
        <ele>763</ele>
        <time>2019-06-17T10:01:19Z</time>
      </trkpt>
      <trkpt lat="44.22018" lon="5.55672">
        <ele>763</ele>
        <time>2019-06-17T10:01:20Z</time>
      </trkpt>
      <trkpt lat="44.22019" lon="5.55682">
        <ele>763</ele>
        <time>2019-06-17T10:01:21Z</time>
      </trkpt>
      <trkpt lat="44.2202" lon="5.55692">
        <ele>763</ele>
        <time>2019-06-17T10:01:22Z</time>
      </trkpt>
      <trkpt lat="44.22021" lon="5.55701">
        <ele>763</ele>
        <time>2019-06-17T10:01:23Z</time>
      </trkpt>
      <trkpt lat="44.22022" lon="5.55711">
        <ele>763</ele>
        <time>2019-06-17T10:01:24Z</time>
      </trkpt>
      <trkpt lat="44.22023" lon="5.55721">
        <ele>763</ele>
        <time>2019-06-17T10:01:25Z</time>
      </trkpt>
      <trkpt lat="44.22024" lon="5.5573">
        <ele>763</ele>
        <time>2019-06-17T10:01:26Z</time>
      </trkpt>
      <trkpt lat="44.22025" lon="5.5574">
        <ele>763</ele>
        <time>2019-06-17T10:01:27Z</time>
      </trkpt>
      <trkpt lat="44.22026" lon="5.55749">
        <ele>763</ele>
        <time>2019-06-17T10:01:28Z</time>
      </trkpt>
      <trkpt lat="44.22027" lon="5.55758">
        <ele>763</ele>
        <time>2019-06-17T10:01:29Z</time>
      </trkpt>
      <trkpt lat="44.22028" lon="5.55767">
        <ele>763</ele>
        <time>2019-06-17T10:01:30Z</time>
      </trkpt>
      <trkpt lat="44.22028" lon="5.55776">
        <ele>763</ele>
        <time>2019-06-17T10:01:31Z</time>
      </trkpt>
      <trkpt lat="44.22029" lon="5.55785">
        <ele>763</ele>
        <time>2019-06-17T10:01:32Z</time>
      </trkpt>
      <trkpt lat="44.2203" lon="5.55794">
        <ele>763</ele>
        <time>2019-06-17T10:01:33Z</time>
      </trkpt>
      <trkpt lat="44.22031" lon="5.55803">
        <ele>762</ele>
        <time>2019-06-17T10:01:34Z</time>
      </trkpt>
      <trkpt lat="44.22032" lon="5.55812">
        <ele>762</ele>
        <time>2019-06-17T10:01:35Z</time>
      </trkpt>
      <trkpt lat="44.22033" lon="5.5582">
        <ele>762</ele>
        <time>2019-06-17T10:01:36Z</time>
      </trkpt>
      <trkpt lat="44.22033" lon="5.55829">
        <ele>762</ele>
        <time>2019-06-17T10:01:37Z</time>
      </trkpt>
      <trkpt lat="44.22034" lon="5.55838">
        <ele>762</ele>
        <time>2019-06-17T10:01:38Z</time>
      </trkpt>
      <trkpt lat="44.22036" lon="5.55847">
        <ele>762</ele>
        <time>2019-06-17T10:01:39Z</time>
      </trkpt>
      <trkpt lat="44.22036" lon="5.55855">
        <ele>762</ele>
        <time>2019-06-17T10:01:40Z</time>
      </trkpt>
      <trkpt lat="44.22038" lon="5.55864">
        <ele>762</ele>
        <time>2019-06-17T10:01:41Z</time>
      </trkpt>
      <trkpt lat="44.22039" lon="5.55873">
        <ele>762</ele>
        <time>2019-06-17T10:01:42Z</time>
      </trkpt>
      <trkpt lat="44.22039" lon="5.55882">
        <ele>762</ele>
        <time>2019-06-17T10:01:43Z</time>
      </trkpt>
      <trkpt lat="44.2204" lon="5.5589">
        <ele>762</ele>
        <time>2019-06-17T10:01:44Z</time>
      </trkpt>
      <trkpt lat="44.22041" lon="5.55899">
        <ele>762</ele>
        <time>2019-06-17T10:01:45Z</time>
      </trkpt>
      <trkpt lat="44.22042" lon="5.55908">
        <ele>762</ele>
        <time>2019-06-17T10:01:46Z</time>
      </trkpt>
      <trkpt lat="44.22043" lon="5.55918">
        <ele>762</ele>
        <time>2019-06-17T10:01:47Z</time>
      </trkpt>
      <trkpt lat="44.22044" lon="5.55927">
        <ele>762</ele>
        <time>2019-06-17T10:01:48Z</time>
      </trkpt>
      <trkpt lat="44.22045" lon="5.55936">
        <ele>762</ele>
        <time>2019-06-17T10:01:49Z</time>
      </trkpt>
      <trkpt lat="44.22046" lon="5.55945">
        <ele>762</ele>
        <time>2019-06-17T10:01:50Z</time>
      </trkpt>
      <trkpt lat="44.22047" lon="5.55955">
        <ele>762</ele>
        <time>2019-06-17T10:01:51Z</time>
      </trkpt>
      <trkpt lat="44.22048" lon="5.55964">
        <ele>762</ele>
        <time>2019-06-17T10:01:52Z</time>
      </trkpt>
      <trkpt lat="44.22049" lon="5.55974">
        <ele>761</ele>
        <time>2019-06-17T10:01:53Z</time>
      </trkpt>
      <trkpt lat="44.2205" lon="5.55983">
        <ele>761</ele>
        <time>2019-06-17T10:01:54Z</time>
      </trkpt>
      <trkpt lat="44.22051" lon="5.55993">
        <ele>761</ele>
        <time>2019-06-17T10:01:55Z</time>
      </trkpt>
      <trkpt lat="44.22052" lon="5.56002">
        <ele>761</ele>
        <time>2019-06-17T10:01:56Z</time>
      </trkpt>
      <trkpt lat="44.22054" lon="5.56012">
        <ele>761</ele>
        <time>2019-06-17T10:01:57Z</time>
      </trkpt>
      <trkpt lat="44.22055" lon="5.56021">
        <ele>761</ele>
        <time>2019-06-17T10:01:58Z</time>
      </trkpt>
      <trkpt lat="44.22055" lon="5.56031">
        <ele>761</ele>
        <time>2019-06-17T10:01:59Z</time>
      </trkpt>
      <trkpt lat="44.22056" lon="5.5604">
        <ele>761</ele>
        <time>2019-06-17T10:02:00Z</time>
      </trkpt>
      <trkpt lat="44.22057" lon="5.5605">
        <ele>761</ele>
        <time>2019-06-17T10:02:01Z</time>
      </trkpt>
      <trkpt lat="44.22058" lon="5.56059">
        <ele>761</ele>
        <time>2019-06-17T10:02:02Z</time>
      </trkpt>
      <trkpt lat="44.22059" lon="5.56068">
        <ele>761</ele>
        <time>2019-06-17T10:02:03Z</time>
      </trkpt>
      <trkpt lat="44.2206" lon="5.56077">
        <ele>761</ele>
        <time>2019-06-17T10:02:04Z</time>
      </trkpt>
      <trkpt lat="44.22061" lon="5.56086">
        <ele>761</ele>
        <time>2019-06-17T10:02:05Z</time>
      </trkpt>
      <trkpt lat="44.22062" lon="5.56095">
        <ele>761</ele>
        <time>2019-06-17T10:02:06Z</time>
      </trkpt>
      <trkpt lat="44.22063" lon="5.56103">
        <ele>761</ele>
        <time>2019-06-17T10:02:07Z</time>
      </trkpt>
      <trkpt lat="44.22064" lon="5.56111">
        <ele>761</ele>
        <time>2019-06-17T10:02:08Z</time>
      </trkpt>
      <trkpt lat="44.22065" lon="5.5612">
        <ele>761</ele>
        <time>2019-06-17T10:02:09Z</time>
      </trkpt>
      <trkpt lat="44.22065" lon="5.56128">
        <ele>761</ele>
        <time>2019-06-17T10:02:10Z</time>
      </trkpt>
      <trkpt lat="44.22066" lon="5.56136">
        <ele>761</ele>
        <time>2019-06-17T10:02:11Z</time>
      </trkpt>
      <trkpt lat="44.22067" lon="5.56144">
        <ele>761</ele>
        <time>2019-06-17T10:02:12Z</time>
      </trkpt>
      <trkpt lat="44.22068" lon="5.56152">
        <ele>761</ele>
        <time>2019-06-17T10:02:13Z</time>
      </trkpt>
      <trkpt lat="44.22069" lon="5.5616">
        <ele>761</ele>
        <time>2019-06-17T10:02:14Z</time>
      </trkpt>
      <trkpt lat="44.2207" lon="5.56168">
        <ele>761</ele>
        <time>2019-06-17T10:02:15Z</time>
      </trkpt>
      <trkpt lat="44.2207" lon="5.56177">
        <ele>761</ele>
        <time>2019-06-17T10:02:16Z</time>
      </trkpt>
      <trkpt lat="44.22071" lon="5.56185">
        <ele>761</ele>
        <time>2019-06-17T10:02:17Z</time>
      </trkpt>
      <trkpt lat="44.22073" lon="5.56193">
        <ele>761</ele>
        <time>2019-06-17T10:02:18Z</time>
      </trkpt>
      <trkpt lat="44.22073" lon="5.56201">
        <ele>761</ele>
        <time>2019-06-17T10:02:19Z</time>
      </trkpt>
      <trkpt lat="44.22074" lon="5.56209">
        <ele>761</ele>
        <time>2019-06-17T10:02:20Z</time>
      </trkpt>
      <trkpt lat="44.22075" lon="5.56217">
        <ele>761</ele>
        <time>2019-06-17T10:02:21Z</time>
      </trkpt>
      <trkpt lat="44.22076" lon="5.56225">
        <ele>761</ele>
        <time>2019-06-17T10:02:22Z</time>
      </trkpt>
      <trkpt lat="44.22077" lon="5.56234">
        <ele>761</ele>
        <time>2019-06-17T10:02:23Z</time>
      </trkpt>
      <trkpt lat="44.22078" lon="5.56242">
        <ele>761</ele>
        <time>2019-06-17T10:02:24Z</time>
      </trkpt>
      <trkpt lat="44.22079" lon="5.5625">
        <ele>761</ele>
        <time>2019-06-17T10:02:25Z</time>
      </trkpt>
      <trkpt lat="44.2208" lon="5.56258">
        <ele>761</ele>
        <time>2019-06-17T10:02:26Z</time>
      </trkpt>
      <trkpt lat="44.22081" lon="5.56266">
        <ele>761</ele>
        <time>2019-06-17T10:02:27Z</time>
      </trkpt>
      <trkpt lat="44.22081" lon="5.56275">
        <ele>761</ele>
        <time>2019-06-17T10:02:28Z</time>
      </trkpt>
      <trkpt lat="44.22082" lon="5.56283">
        <ele>761</ele>
        <time>2019-06-17T10:02:29Z</time>
      </trkpt>
      <trkpt lat="44.22083" lon="5.56291">
        <ele>761</ele>
        <time>2019-06-17T10:02:30Z</time>
      </trkpt>
      <trkpt lat="44.22084" lon="5.563">
        <ele>761</ele>
        <time>2019-06-17T10:02:31Z</time>
      </trkpt>
      <trkpt lat="44.22085" lon="5.56308">
        <ele>761</ele>
        <time>2019-06-17T10:02:32Z</time>
      </trkpt>
      <trkpt lat="44.22086" lon="5.56317">
        <ele>761</ele>
        <time>2019-06-17T10:02:33Z</time>
      </trkpt>
      <trkpt lat="44.22086" lon="5.56325">
        <ele>761</ele>
        <time>2019-06-17T10:02:34Z</time>
      </trkpt>
      <trkpt lat="44.22087" lon="5.56333">
        <ele>761</ele>
        <time>2019-06-17T10:02:35Z</time>
      </trkpt>
      <trkpt lat="44.22088" lon="5.56342">
        <ele>761</ele>
        <time>2019-06-17T10:02:36Z</time>
      </trkpt>
      <trkpt lat="44.22089" lon="5.5635">
        <ele>761</ele>
        <time>2019-06-17T10:02:37Z</time>
      </trkpt>
      <trkpt lat="44.22089" lon="5.56358">
        <ele>761</ele>
        <time>2019-06-17T10:02:38Z</time>
      </trkpt>
      <trkpt lat="44.2209" lon="5.56366">
        <ele>761</ele>
        <time>2019-06-17T10:02:39Z</time>
      </trkpt>
      <trkpt lat="44.22091" lon="5.56375">
        <ele>761</ele>
        <time>2019-06-17T10:02:40Z</time>
      </trkpt>
      <trkpt lat="44.22092" lon="5.56383">
        <ele>761</ele>
        <time>2019-06-17T10:02:41Z</time>
      </trkpt>
      <trkpt lat="44.22093" lon="5.56392">
        <ele>761</ele>
        <time>2019-06-17T10:02:42Z</time>
      </trkpt>
      <trkpt lat="44.22094" lon="5.56401">
        <ele>761</ele>
        <time>2019-06-17T10:02:43Z</time>
      </trkpt>
      <trkpt lat="44.22094" lon="5.5641">
        <ele>761</ele>
        <time>2019-06-17T10:02:44Z</time>
      </trkpt>
      <trkpt lat="44.22095" lon="5.56419">
        <ele>761</ele>
        <time>2019-06-17T10:02:45Z</time>
      </trkpt>
      <trkpt lat="44.22096" lon="5.56428">
        <ele>761</ele>
        <time>2019-06-17T10:02:46Z</time>
      </trkpt>
      <trkpt lat="44.22097" lon="5.56437">
        <ele>761</ele>
        <time>2019-06-17T10:02:47Z</time>
      </trkpt>
      <trkpt lat="44.22098" lon="5.56447">
        <ele>761</ele>
        <time>2019-06-17T10:02:48Z</time>
      </trkpt>
      <trkpt lat="44.22098" lon="5.56457">
        <ele>761</ele>
        <time>2019-06-17T10:02:49Z</time>
      </trkpt>
      <trkpt lat="44.22099" lon="5.56466">
        <ele>761</ele>
        <time>2019-06-17T10:02:50Z</time>
      </trkpt>
      <trkpt lat="44.22099" lon="5.56476">
        <ele>761</ele>
        <time>2019-06-17T10:02:51Z</time>
      </trkpt>
      <trkpt lat="44.221" lon="5.56486">
        <ele>761</ele>
        <time>2019-06-17T10:02:52Z</time>
      </trkpt>
      <trkpt lat="44.221" lon="5.56496">
        <ele>761</ele>
        <time>2019-06-17T10:02:53Z</time>
      </trkpt>
      <trkpt lat="44.221" lon="5.56506">
        <ele>761</ele>
        <time>2019-06-17T10:02:54Z</time>
      </trkpt>
      <trkpt lat="44.22101" lon="5.56516">
        <ele>761</ele>
        <time>2019-06-17T10:02:55Z</time>
      </trkpt>
      <trkpt lat="44.22101" lon="5.56525">
        <ele>761</ele>
        <time>2019-06-17T10:02:56Z</time>
      </trkpt>
      <trkpt lat="44.22101" lon="5.56535">
        <ele>761</ele>
        <time>2019-06-17T10:02:57Z</time>
      </trkpt>
      <trkpt lat="44.22102" lon="5.56545">
        <ele>761</ele>
        <time>2019-06-17T10:02:58Z</time>
      </trkpt>
      <trkpt lat="44.22102" lon="5.56555">
        <ele>761</ele>
        <time>2019-06-17T10:02:59Z</time>
      </trkpt>
      <trkpt lat="44.22102" lon="5.56565">
        <ele>761</ele>
        <time>2019-06-17T10:03:00Z</time>
      </trkpt>
      <trkpt lat="44.22102" lon="5.56576">
        <ele>761</ele>
        <time>2019-06-17T10:03:01Z</time>
      </trkpt>
      <trkpt lat="44.22103" lon="5.56586">
        <ele>761</ele>
        <time>2019-06-17T10:03:02Z</time>
      </trkpt>
      <trkpt lat="44.22103" lon="5.56596">
        <ele>760</ele>
        <time>2019-06-17T10:03:03Z</time>
      </trkpt>
      <trkpt lat="44.22103" lon="5.56607">
        <ele>760</ele>
        <time>2019-06-17T10:03:04Z</time>
      </trkpt>
      <trkpt lat="44.22103" lon="5.56617">
        <ele>760</ele>
        <time>2019-06-17T10:03:05Z</time>
      </trkpt>
      <trkpt lat="44.22104" lon="5.56628">
        <ele>760</ele>
        <time>2019-06-17T10:03:06Z</time>
      </trkpt>
      <trkpt lat="44.22104" lon="5.56638">
        <ele>760</ele>
        <time>2019-06-17T10:03:07Z</time>
      </trkpt>
      <trkpt lat="44.22104" lon="5.56649">
        <ele>760</ele>
        <time>2019-06-17T10:03:08Z</time>
      </trkpt>
      <trkpt lat="44.22104" lon="5.5666">
        <ele>760</ele>
        <time>2019-06-17T10:03:09Z</time>
      </trkpt>
      <trkpt lat="44.22105" lon="5.56671">
        <ele>760</ele>
        <time>2019-06-17T10:03:10Z</time>
      </trkpt>
      <trkpt lat="44.22105" lon="5.56681">
        <ele>760</ele>
        <time>2019-06-17T10:03:11Z</time>
      </trkpt>
      <trkpt lat="44.22105" lon="5.56692">
        <ele>759</ele>
        <time>2019-06-17T10:03:12Z</time>
      </trkpt>
      <trkpt lat="44.22106" lon="5.56703">
        <ele>759</ele>
        <time>2019-06-17T10:03:13Z</time>
      </trkpt>
      <trkpt lat="44.22106" lon="5.56714">
        <ele>759</ele>
        <time>2019-06-17T10:03:14Z</time>
      </trkpt>
      <trkpt lat="44.22106" lon="5.56725">
        <ele>759</ele>
        <time>2019-06-17T10:03:15Z</time>
      </trkpt>
      <trkpt lat="44.22107" lon="5.56735">
        <ele>759</ele>
        <time>2019-06-17T10:03:16Z</time>
      </trkpt>
      <trkpt lat="44.22107" lon="5.56746">
        <ele>759</ele>
        <time>2019-06-17T10:03:17Z</time>
      </trkpt>
      <trkpt lat="44.22107" lon="5.56757">
        <ele>759</ele>
        <time>2019-06-17T10:03:18Z</time>
      </trkpt>
      <trkpt lat="44.22107" lon="5.56769">
        <ele>758</ele>
        <time>2019-06-17T10:03:19Z</time>
      </trkpt>
      <trkpt lat="44.22107" lon="5.5678">
        <ele>758</ele>
        <time>2019-06-17T10:03:20Z</time>
      </trkpt>
      <trkpt lat="44.22108" lon="5.56791">
        <ele>758</ele>
        <time>2019-06-17T10:03:21Z</time>
      </trkpt>
      <trkpt lat="44.22108" lon="5.56803">
        <ele>758</ele>
        <time>2019-06-17T10:03:22Z</time>
      </trkpt>
      <trkpt lat="44.22109" lon="5.56814">
        <ele>758</ele>
        <time>2019-06-17T10:03:23Z</time>
      </trkpt>
      <trkpt lat="44.22109" lon="5.56826">
        <ele>758</ele>
        <time>2019-06-17T10:03:24Z</time>
      </trkpt>
      <trkpt lat="44.22109" lon="5.56837">
        <ele>758</ele>
        <time>2019-06-17T10:03:25Z</time>
      </trkpt>
      <trkpt lat="44.2211" lon="5.56849">
        <ele>757</ele>
        <time>2019-06-17T10:03:26Z</time>
      </trkpt>
      <trkpt lat="44.2211" lon="5.56861">
        <ele>757</ele>
        <time>2019-06-17T10:03:27Z</time>
      </trkpt>
      <trkpt lat="44.2211" lon="5.56872">
        <ele>757</ele>
        <time>2019-06-17T10:03:28Z</time>
      </trkpt>
      <trkpt lat="44.2211" lon="5.56884">
        <ele>757</ele>
        <time>2019-06-17T10:03:29Z</time>
      </trkpt>
      <trkpt lat="44.22111" lon="5.56896">
        <ele>757</ele>
        <time>2019-06-17T10:03:30Z</time>
      </trkpt>
      <trkpt lat="44.22111" lon="5.56908">
        <ele>757</ele>
        <time>2019-06-17T10:03:31Z</time>
      </trkpt>
      <trkpt lat="44.22112" lon="5.56919">
        <ele>756</ele>
        <time>2019-06-17T10:03:32Z</time>
      </trkpt>
      <trkpt lat="44.22112" lon="5.56931">
        <ele>756</ele>
        <time>2019-06-17T10:03:33Z</time>
      </trkpt>
      <trkpt lat="44.22112" lon="5.56944">
        <ele>756</ele>
        <time>2019-06-17T10:03:34Z</time>
      </trkpt>
      <trkpt lat="44.22113" lon="5.56956">
        <ele>756</ele>
        <time>2019-06-17T10:03:35Z</time>
      </trkpt>
      <trkpt lat="44.22113" lon="5.56969">
        <ele>756</ele>
        <time>2019-06-17T10:03:36Z</time>
      </trkpt>
      <trkpt lat="44.22113" lon="5.56981">
        <ele>756</ele>
        <time>2019-06-17T10:03:37Z</time>
      </trkpt>
      <trkpt lat="44.22113" lon="5.56993">
        <ele>756</ele>
        <time>2019-06-17T10:03:38Z</time>
      </trkpt>
      <trkpt lat="44.22114" lon="5.57005">
        <ele>756</ele>
        <time>2019-06-17T10:03:39Z</time>
      </trkpt>
      <trkpt lat="44.22114" lon="5.57017">
        <ele>755</ele>
        <time>2019-06-17T10:03:40Z</time>
      </trkpt>
      <trkpt lat="44.22114" lon="5.57028">
        <ele>755</ele>
        <time>2019-06-17T10:03:41Z</time>
      </trkpt>
      <trkpt lat="44.22115" lon="5.5704">
        <ele>755</ele>
        <time>2019-06-17T10:03:42Z</time>
      </trkpt>
      <trkpt lat="44.22115" lon="5.57051">
        <ele>755</ele>
        <time>2019-06-17T10:03:43Z</time>
      </trkpt>
      <trkpt lat="44.22115" lon="5.57062">
        <ele>755</ele>
        <time>2019-06-17T10:03:44Z</time>
      </trkpt>
      <trkpt lat="44.22115" lon="5.57074">
        <ele>755</ele>
        <time>2019-06-17T10:03:45Z</time>
      </trkpt>
      <trkpt lat="44.22116" lon="5.57085">
        <ele>754</ele>
        <time>2019-06-17T10:03:46Z</time>
      </trkpt>
      <trkpt lat="44.22116" lon="5.57097">
        <ele>754</ele>
        <time>2019-06-17T10:03:47Z</time>
      </trkpt>
      <trkpt lat="44.22117" lon="5.57108">
        <ele>754</ele>
        <time>2019-06-17T10:03:48Z</time>
      </trkpt>
      <trkpt lat="44.22117" lon="5.5712">
        <ele>754</ele>
        <time>2019-06-17T10:03:49Z</time>
      </trkpt>
      <trkpt lat="44.22117" lon="5.57131">
        <ele>754</ele>
        <time>2019-06-17T10:03:50Z</time>
      </trkpt>
      <trkpt lat="44.22118" lon="5.57143">
        <ele>754</ele>
        <time>2019-06-17T10:03:51Z</time>
      </trkpt>
      <trkpt lat="44.22118" lon="5.57154">
        <ele>754</ele>
        <time>2019-06-17T10:03:52Z</time>
      </trkpt>
      <trkpt lat="44.22118" lon="5.57166">
        <ele>754</ele>
        <time>2019-06-17T10:03:53Z</time>
      </trkpt>
      <trkpt lat="44.22118" lon="5.57178">
        <ele>753</ele>
        <time>2019-06-17T10:03:54Z</time>
      </trkpt>
      <trkpt lat="44.22119" lon="5.5719">
        <ele>753</ele>
        <time>2019-06-17T10:03:55Z</time>
      </trkpt>
      <trkpt lat="44.22119" lon="5.57201">
        <ele>753</ele>
        <time>2019-06-17T10:03:56Z</time>
      </trkpt>
      <trkpt lat="44.2212" lon="5.57213">
        <ele>753</ele>
        <time>2019-06-17T10:03:57Z</time>
      </trkpt>
      <trkpt lat="44.2212" lon="5.57224">
        <ele>753</ele>
        <time>2019-06-17T10:03:58Z</time>
      </trkpt>
      <trkpt lat="44.2212" lon="5.57235">
        <ele>753</ele>
        <time>2019-06-17T10:03:59Z</time>
      </trkpt>
      <trkpt lat="44.2212" lon="5.57247">
        <ele>753</ele>
        <time>2019-06-17T10:04:00Z</time>
      </trkpt>
      <trkpt lat="44.22121" lon="5.57258">
        <ele>753</ele>
        <time>2019-06-17T10:04:01Z</time>
      </trkpt>
      <trkpt lat="44.22121" lon="5.57269">
        <ele>753</ele>
        <time>2019-06-17T10:04:02Z</time>
      </trkpt>
      <trkpt lat="44.22122" lon="5.5728">
        <ele>753</ele>
        <time>2019-06-17T10:04:03Z</time>
      </trkpt>
      <trkpt lat="44.22122" lon="5.57292">
        <ele>753</ele>
        <time>2019-06-17T10:04:04Z</time>
      </trkpt>
      <trkpt lat="44.22122" lon="5.57303">
        <ele>753</ele>
        <time>2019-06-17T10:04:05Z</time>
      </trkpt>
      <trkpt lat="44.22122" lon="5.57313">
        <ele>753</ele>
        <time>2019-06-17T10:04:06Z</time>
      </trkpt>
      <trkpt lat="44.22122" lon="5.57325">
        <ele>753</ele>
        <time>2019-06-17T10:04:07Z</time>
      </trkpt>
      <trkpt lat="44.22123" lon="5.57335">
        <ele>753</ele>
        <time>2019-06-17T10:04:08Z</time>
      </trkpt>
      <trkpt lat="44.22123" lon="5.57346">
        <ele>753</ele>
        <time>2019-06-17T10:04:09Z</time>
      </trkpt>
      <trkpt lat="44.22124" lon="5.57358">
        <ele>753</ele>
        <time>2019-06-17T10:04:10Z</time>
      </trkpt>
      <trkpt lat="44.22124" lon="5.57369">
        <ele>753</ele>
        <time>2019-06-17T10:04:11Z</time>
      </trkpt>
      <trkpt lat="44.22124" lon="5.5738">
        <ele>753</ele>
        <time>2019-06-17T10:04:12Z</time>
      </trkpt>
      <trkpt lat="44.22124" lon="5.57391">
        <ele>753</ele>
        <time>2019-06-17T10:04:13Z</time>
      </trkpt>
      <trkpt lat="44.22125" lon="5.57403">
        <ele>753</ele>
        <time>2019-06-17T10:04:14Z</time>
      </trkpt>
      <trkpt lat="44.22125" lon="5.57414">
        <ele>753</ele>
        <time>2019-06-17T10:04:15Z</time>
      </trkpt>
      <trkpt lat="44.22126" lon="5.57426">
        <ele>753</ele>
        <time>2019-06-17T10:04:16Z</time>
      </trkpt>
      <trkpt lat="44.22126" lon="5.57437">
        <ele>753</ele>
        <time>2019-06-17T10:04:17Z</time>
      </trkpt>
      <trkpt lat="44.22126" lon="5.57448">
        <ele>753</ele>
        <time>2019-06-17T10:04:18Z</time>
      </trkpt>
      <trkpt lat="44.22127" lon="5.57459">
        <ele>753</ele>
        <time>2019-06-17T10:04:19Z</time>
      </trkpt>
      <trkpt lat="44.22127" lon="5.57471">
        <ele>753</ele>
        <time>2019-06-17T10:04:20Z</time>
      </trkpt>
      <trkpt lat="44.22127" lon="5.57482">
        <ele>753</ele>
        <time>2019-06-17T10:04:21Z</time>
      </trkpt>
      <trkpt lat="44.22127" lon="5.57492">
        <ele>753</ele>
        <time>2019-06-17T10:04:22Z</time>
      </trkpt>
      <trkpt lat="44.22128" lon="5.57504">
        <ele>753</ele>
        <time>2019-06-17T10:04:23Z</time>
      </trkpt>
      <trkpt lat="44.22128" lon="5.57514">
        <ele>753</ele>
        <time>2019-06-17T10:04:24Z</time>
      </trkpt>
      <trkpt lat="44.22129" lon="5.57525">
        <ele>753</ele>
        <time>2019-06-17T10:04:25Z</time>
      </trkpt>
      <trkpt lat="44.22129" lon="5.57536">
        <ele>753</ele>
        <time>2019-06-17T10:04:26Z</time>
      </trkpt>
      <trkpt lat="44.22129" lon="5.57547">
        <ele>753</ele>
        <time>2019-06-17T10:04:27Z</time>
      </trkpt>
      <trkpt lat="44.22129" lon="5.57558">
        <ele>753</ele>
        <time>2019-06-17T10:04:28Z</time>
      </trkpt>
      <trkpt lat="44.22129" lon="5.57569">
        <ele>753</ele>
        <time>2019-06-17T10:04:29Z</time>
      </trkpt>
      <trkpt lat="44.2213" lon="5.5758">
        <ele>753</ele>
        <time>2019-06-17T10:04:30Z</time>
      </trkpt>
      <trkpt lat="44.2213" lon="5.57591">
        <ele>753</ele>
        <time>2019-06-17T10:04:31Z</time>
      </trkpt>
      <trkpt lat="44.22131" lon="5.57602">
        <ele>753</ele>
        <time>2019-06-17T10:04:32Z</time>
      </trkpt>
      <trkpt lat="44.22131" lon="5.57612">
        <ele>753</ele>
        <time>2019-06-17T10:04:33Z</time>
      </trkpt>
      <trkpt lat="44.22131" lon="5.57623">
        <ele>753</ele>
        <time>2019-06-17T10:04:34Z</time>
      </trkpt>
      <trkpt lat="44.22132" lon="5.57634">
        <ele>753</ele>
        <time>2019-06-17T10:04:35Z</time>
      </trkpt>
      <trkpt lat="44.22132" lon="5.57645">
        <ele>753</ele>
        <time>2019-06-17T10:04:36Z</time>
      </trkpt>
      <trkpt lat="44.22132" lon="5.57655">
        <ele>753</ele>
        <time>2019-06-17T10:04:37Z</time>
      </trkpt>
      <trkpt lat="44.22133" lon="5.57666">
        <ele>753</ele>
        <time>2019-06-17T10:04:38Z</time>
      </trkpt>
      <trkpt lat="44.22134" lon="5.57676">
        <ele>753</ele>
        <time>2019-06-17T10:04:39Z</time>
      </trkpt>
      <trkpt lat="44.22134" lon="5.57686">
        <ele>753</ele>
        <time>2019-06-17T10:04:40Z</time>
      </trkpt>
      <trkpt lat="44.22135" lon="5.57696">
        <ele>753</ele>
        <time>2019-06-17T10:04:41Z</time>
      </trkpt>
      <trkpt lat="44.22135" lon="5.57705">
        <ele>753</ele>
        <time>2019-06-17T10:04:42Z</time>
      </trkpt>
      <trkpt lat="44.22136" lon="5.57715">
        <ele>753</ele>
        <time>2019-06-17T10:04:43Z</time>
      </trkpt>
      <trkpt lat="44.22136" lon="5.57725">
        <ele>753</ele>
        <time>2019-06-17T10:04:44Z</time>
      </trkpt>
      <trkpt lat="44.22137" lon="5.57735">
        <ele>753</ele>
        <time>2019-06-17T10:04:45Z</time>
      </trkpt>
      <trkpt lat="44.22137" lon="5.57745">
        <ele>753</ele>
        <time>2019-06-17T10:04:46Z</time>
      </trkpt>
      <trkpt lat="44.22138" lon="5.57755">
        <ele>753</ele>
        <time>2019-06-17T10:04:47Z</time>
      </trkpt>
      <trkpt lat="44.22138" lon="5.57765">
        <ele>752</ele>
        <time>2019-06-17T10:04:48Z</time>
      </trkpt>
      <trkpt lat="44.22139" lon="5.57776">
        <ele>752</ele>
        <time>2019-06-17T10:04:49Z</time>
      </trkpt>
      <trkpt lat="44.22139" lon="5.57787">
        <ele>752</ele>
        <time>2019-06-17T10:04:50Z</time>
      </trkpt>
      <trkpt lat="44.22139" lon="5.57798">
        <ele>752</ele>
        <time>2019-06-17T10:04:51Z</time>
      </trkpt>
      <trkpt lat="44.22138" lon="5.57809">
        <ele>752</ele>
        <time>2019-06-17T10:04:52Z</time>
      </trkpt>
      <trkpt lat="44.22137" lon="5.57821">
        <ele>752</ele>
        <time>2019-06-17T10:04:53Z</time>
      </trkpt>
      <trkpt lat="44.22137" lon="5.57832">
        <ele>752</ele>
        <time>2019-06-17T10:04:54Z</time>
      </trkpt>
      <trkpt lat="44.22136" lon="5.57843">
        <ele>752</ele>
        <time>2019-06-17T10:04:55Z</time>
      </trkpt>
      <trkpt lat="44.22135" lon="5.57853">
        <ele>752</ele>
        <time>2019-06-17T10:04:56Z</time>
      </trkpt>
      <trkpt lat="44.22134" lon="5.57864">
        <ele>752</ele>
        <time>2019-06-17T10:04:57Z</time>
      </trkpt>
      <trkpt lat="44.22133" lon="5.57875">
        <ele>752</ele>
        <time>2019-06-17T10:04:58Z</time>
      </trkpt>
      <trkpt lat="44.22132" lon="5.57886">
        <ele>752</ele>
        <time>2019-06-17T10:04:59Z</time>
      </trkpt>
      <trkpt lat="44.22131" lon="5.57896">
        <ele>752</ele>
        <time>2019-06-17T10:05:00Z</time>
      </trkpt>
      <trkpt lat="44.2213" lon="5.57907">
        <ele>752</ele>
        <time>2019-06-17T10:05:01Z</time>
      </trkpt>
      <trkpt lat="44.22129" lon="5.57918">
        <ele>752</ele>
        <time>2019-06-17T10:05:02Z</time>
      </trkpt>
      <trkpt lat="44.22127" lon="5.57928">
        <ele>752</ele>
        <time>2019-06-17T10:05:03Z</time>
      </trkpt>
      <trkpt lat="44.22126" lon="5.57939">
        <ele>752</ele>
        <time>2019-06-17T10:05:04Z</time>
      </trkpt>
      <trkpt lat="44.22125" lon="5.5795">
        <ele>752</ele>
        <time>2019-06-17T10:05:05Z</time>
      </trkpt>
      <trkpt lat="44.22124" lon="5.5796">
        <ele>752</ele>
        <time>2019-06-17T10:05:06Z</time>
      </trkpt>
      <trkpt lat="44.22123" lon="5.57969">
        <ele>752</ele>
        <time>2019-06-17T10:05:07Z</time>
      </trkpt>
      <trkpt lat="44.22122" lon="5.57979">
        <ele>753</ele>
        <time>2019-06-17T10:05:08Z</time>
      </trkpt>
      <trkpt lat="44.22121" lon="5.57989">
        <ele>754</ele>
        <time>2019-06-17T10:05:09Z</time>
      </trkpt>
      <trkpt lat="44.2212" lon="5.58">
        <ele>755</ele>
        <time>2019-06-17T10:05:10Z</time>
      </trkpt>
      <trkpt lat="44.22118" lon="5.5801">
        <ele>756</ele>
        <time>2019-06-17T10:05:11Z</time>
      </trkpt>
      <trkpt lat="44.22117" lon="5.5802">
        <ele>756</ele>
        <time>2019-06-17T10:05:12Z</time>
      </trkpt>
      <trkpt lat="44.22116" lon="5.5803">
        <ele>757</ele>
        <time>2019-06-17T10:05:13Z</time>
      </trkpt>
      <trkpt lat="44.22115" lon="5.5804">
        <ele>758</ele>
        <time>2019-06-17T10:05:14Z</time>
      </trkpt>
      <trkpt lat="44.22114" lon="5.5805">
        <ele>759</ele>
        <time>2019-06-17T10:05:15Z</time>
      </trkpt>
      <trkpt lat="44.22112" lon="5.5806">
        <ele>760</ele>
        <time>2019-06-17T10:05:16Z</time>
      </trkpt>
      <trkpt lat="44.22111" lon="5.5807">
        <ele>761</ele>
        <time>2019-06-17T10:05:17Z</time>
      </trkpt>
      <trkpt lat="44.2211" lon="5.5808">
        <ele>762</ele>
        <time>2019-06-17T10:05:18Z</time>
      </trkpt>
      <trkpt lat="44.22109" lon="5.58089">
        <ele>763</ele>
        <time>2019-06-17T10:05:19Z</time>
      </trkpt>
      <trkpt lat="44.22107" lon="5.58098">
        <ele>764</ele>
        <time>2019-06-17T10:05:20Z</time>
      </trkpt>
      <trkpt lat="44.22106" lon="5.58108">
        <ele>765</ele>
        <time>2019-06-17T10:05:21Z</time>
      </trkpt>
      <trkpt lat="44.22105" lon="5.58117">
        <ele>766</ele>
        <time>2019-06-17T10:05:22Z</time>
      </trkpt>
      <trkpt lat="44.22104" lon="5.58126">
        <ele>767</ele>
        <time>2019-06-17T10:05:23Z</time>
      </trkpt>
      <trkpt lat="44.22103" lon="5.58135">
        <ele>768</ele>
        <time>2019-06-17T10:05:24Z</time>
      </trkpt>
      <trkpt lat="44.22102" lon="5.58144">
        <ele>769</ele>
        <time>2019-06-17T10:05:25Z</time>
      </trkpt>
      <trkpt lat="44.221" lon="5.58153">
        <ele>770</ele>
        <time>2019-06-17T10:05:26Z</time>
      </trkpt>
      <trkpt lat="44.22099" lon="5.58163">
        <ele>771</ele>
        <time>2019-06-17T10:05:27Z</time>
      </trkpt>
      <trkpt lat="44.22098" lon="5.58172">
        <ele>772</ele>
        <time>2019-06-17T10:05:28Z</time>
      </trkpt>
      <trkpt lat="44.22097" lon="5.58182">
        <ele>773</ele>
        <time>2019-06-17T10:05:29Z</time>
      </trkpt>
      <trkpt lat="44.22096" lon="5.58191">
        <ele>774</ele>
        <time>2019-06-17T10:05:30Z</time>
      </trkpt>
      <trkpt lat="44.22095" lon="5.58201">
        <ele>774</ele>
        <time>2019-06-17T10:05:31Z</time>
      </trkpt>
      <trkpt lat="44.22094" lon="5.5821">
        <ele>774</ele>
        <time>2019-06-17T10:05:32Z</time>
      </trkpt>
      <trkpt lat="44.22093" lon="5.58219">
        <ele>775</ele>
        <time>2019-06-17T10:05:33Z</time>
      </trkpt>
      <trkpt lat="44.22092" lon="5.58228">
        <ele>775</ele>
        <time>2019-06-17T10:05:34Z</time>
      </trkpt>
      <trkpt lat="44.22091" lon="5.58238">
        <ele>775</ele>
        <time>2019-06-17T10:05:35Z</time>
      </trkpt>
      <trkpt lat="44.22091" lon="5.58247">
        <ele>775</ele>
        <time>2019-06-17T10:05:36Z</time>
      </trkpt>
      <trkpt lat="44.22091" lon="5.58256">
        <ele>775</ele>
        <time>2019-06-17T10:05:37Z</time>
      </trkpt>
      <trkpt lat="44.22091" lon="5.58266">
        <ele>775</ele>
        <time>2019-06-17T10:05:38Z</time>
      </trkpt>
      <trkpt lat="44.22091" lon="5.58276">
        <ele>775</ele>
        <time>2019-06-17T10:05:39Z</time>
      </trkpt>
      <trkpt lat="44.22091" lon="5.58285">
        <ele>775</ele>
        <time>2019-06-17T10:05:40Z</time>
      </trkpt>
      <trkpt lat="44.22091" lon="5.58294">
        <ele>775</ele>
        <time>2019-06-17T10:05:41Z</time>
      </trkpt>
      <trkpt lat="44.22092" lon="5.58304">
        <ele>775</ele>
        <time>2019-06-17T10:05:42Z</time>
      </trkpt>
      <trkpt lat="44.22092" lon="5.58313">
        <ele>775</ele>
        <time>2019-06-17T10:05:43Z</time>
      </trkpt>
      <trkpt lat="44.22092" lon="5.58323">
        <ele>774</ele>
        <time>2019-06-17T10:05:44Z</time>
      </trkpt>
      <trkpt lat="44.22092" lon="5.58332">
        <ele>773</ele>
        <time>2019-06-17T10:05:45Z</time>
      </trkpt>
      <trkpt lat="44.22093" lon="5.58341">
        <ele>773</ele>
        <time>2019-06-17T10:05:46Z</time>
      </trkpt>
      <trkpt lat="44.22093" lon="5.58351">
        <ele>772</ele>
        <time>2019-06-17T10:05:47Z</time>
      </trkpt>
      <trkpt lat="44.22093" lon="5.5836">
        <ele>771</ele>
        <time>2019-06-17T10:05:48Z</time>
      </trkpt>
      <trkpt lat="44.22093" lon="5.5837">
        <ele>771</ele>
        <time>2019-06-17T10:05:49Z</time>
      </trkpt>
      <trkpt lat="44.22094" lon="5.5838">
        <ele>770</ele>
        <time>2019-06-17T10:05:50Z</time>
      </trkpt>
      <trkpt lat="44.22094" lon="5.5839">
        <ele>769</ele>
        <time>2019-06-17T10:05:51Z</time>
      </trkpt>
      <trkpt lat="44.22094" lon="5.584">
        <ele>769</ele>
        <time>2019-06-17T10:05:52Z</time>
      </trkpt>
      <trkpt lat="44.22094" lon="5.58411">
        <ele>768</ele>
        <time>2019-06-17T10:05:53Z</time>
      </trkpt>
      <trkpt lat="44.22094" lon="5.58421">
        <ele>768</ele>
        <time>2019-06-17T10:05:54Z</time>
      </trkpt>
      <trkpt lat="44.22094" lon="5.58431">
        <ele>767</ele>
        <time>2019-06-17T10:05:55Z</time>
      </trkpt>
      <trkpt lat="44.22095" lon="5.58441">
        <ele>766</ele>
        <time>2019-06-17T10:05:56Z</time>
      </trkpt>
      <trkpt lat="44.22095" lon="5.58452">
        <ele>766</ele>
        <time>2019-06-17T10:05:57Z</time>
      </trkpt>
      <trkpt lat="44.22095" lon="5.58462">
        <ele>766</ele>
        <time>2019-06-17T10:05:58Z</time>
      </trkpt>
      <trkpt lat="44.22095" lon="5.58473">
        <ele>765</ele>
        <time>2019-06-17T10:05:59Z</time>
      </trkpt>
      <trkpt lat="44.22095" lon="5.58484">
        <ele>765</ele>
        <time>2019-06-17T10:06:00Z</time>
      </trkpt>
      <trkpt lat="44.22095" lon="5.58495">
        <ele>764</ele>
        <time>2019-06-17T10:06:01Z</time>
      </trkpt>
      <trkpt lat="44.22095" lon="5.58505">
        <ele>764</ele>
        <time>2019-06-17T10:06:02Z</time>
      </trkpt>
      <trkpt lat="44.22096" lon="5.58517">
        <ele>763</ele>
        <time>2019-06-17T10:06:03Z</time>
      </trkpt>
      <trkpt lat="44.22096" lon="5.58528">
        <ele>763</ele>
        <time>2019-06-17T10:06:04Z</time>
      </trkpt>
      <trkpt lat="44.22096" lon="5.58539">
        <ele>763</ele>
        <time>2019-06-17T10:06:05Z</time>
      </trkpt>
      <trkpt lat="44.22096" lon="5.58551">
        <ele>762</ele>
        <time>2019-06-17T10:06:06Z</time>
      </trkpt>
      <trkpt lat="44.22096" lon="5.58562">
        <ele>762</ele>
        <time>2019-06-17T10:06:07Z</time>
      </trkpt>
      <trkpt lat="44.22097" lon="5.58573">
        <ele>762</ele>
        <time>2019-06-17T10:06:08Z</time>
      </trkpt>
      <trkpt lat="44.22097" lon="5.58584">
        <ele>761</ele>
        <time>2019-06-17T10:06:09Z</time>
      </trkpt>
      <trkpt lat="44.22097" lon="5.58596">
        <ele>761</ele>
        <time>2019-06-17T10:06:10Z</time>
      </trkpt>
      <trkpt lat="44.22097" lon="5.58607">
        <ele>761</ele>
        <time>2019-06-17T10:06:11Z</time>
      </trkpt>
      <trkpt lat="44.22097" lon="5.58619">
        <ele>760</ele>
        <time>2019-06-17T10:06:12Z</time>
      </trkpt>
      <trkpt lat="44.22097" lon="5.5863">
        <ele>760</ele>
        <time>2019-06-17T10:06:13Z</time>
      </trkpt>
      <trkpt lat="44.22097" lon="5.58642">
        <ele>760</ele>
        <time>2019-06-17T10:06:14Z</time>
      </trkpt>
      <trkpt lat="44.22097" lon="5.58653">
        <ele>759</ele>
        <time>2019-06-17T10:06:15Z</time>
      </trkpt>
      <trkpt lat="44.22098" lon="5.58665">
        <ele>759</ele>
        <time>2019-06-17T10:06:16Z</time>
      </trkpt>
      <trkpt lat="44.22098" lon="5.58676">
        <ele>758</ele>
        <time>2019-06-17T10:06:17Z</time>
      </trkpt>
      <trkpt lat="44.22098" lon="5.58688">
        <ele>758</ele>
        <time>2019-06-17T10:06:18Z</time>
      </trkpt>
      <trkpt lat="44.22099" lon="5.587">
        <ele>758</ele>
        <time>2019-06-17T10:06:19Z</time>
      </trkpt>
      <trkpt lat="44.22099" lon="5.58712">
        <ele>757</ele>
        <time>2019-06-17T10:06:20Z</time>
      </trkpt>
      <trkpt lat="44.22099" lon="5.58724">
        <ele>757</ele>
        <time>2019-06-17T10:06:21Z</time>
      </trkpt>
      <trkpt lat="44.22099" lon="5.58736">
        <ele>756</ele>
        <time>2019-06-17T10:06:22Z</time>
      </trkpt>
      <trkpt lat="44.22099" lon="5.58748">
        <ele>756</ele>
        <time>2019-06-17T10:06:23Z</time>
      </trkpt>
      <trkpt lat="44.22099" lon="5.5876">
        <ele>756</ele>
        <time>2019-06-17T10:06:24Z</time>
      </trkpt>
      <trkpt lat="44.22099" lon="5.58772">
        <ele>755</ele>
        <time>2019-06-17T10:06:25Z</time>
      </trkpt>
      <trkpt lat="44.22099" lon="5.58784">
        <ele>755</ele>
        <time>2019-06-17T10:06:26Z</time>
      </trkpt>
      <trkpt lat="44.22099" lon="5.58795">
        <ele>755</ele>
        <time>2019-06-17T10:06:27Z</time>
      </trkpt>
      <trkpt lat="44.22099" lon="5.58807">
        <ele>754</ele>
        <time>2019-06-17T10:06:28Z</time>
      </trkpt>
      <trkpt lat="44.22099" lon="5.58818">
        <ele>754</ele>
        <time>2019-06-17T10:06:29Z</time>
      </trkpt>
      <trkpt lat="44.221" lon="5.58829">
        <ele>754</ele>
        <time>2019-06-17T10:06:30Z</time>
      </trkpt>
      <trkpt lat="44.221" lon="5.58841">
        <ele>754</ele>
        <time>2019-06-17T10:06:31Z</time>
      </trkpt>
      <trkpt lat="44.221" lon="5.58852">
        <ele>753</ele>
        <time>2019-06-17T10:06:32Z</time>
      </trkpt>
      <trkpt lat="44.221" lon="5.58863">
        <ele>753</ele>
        <time>2019-06-17T10:06:33Z</time>
      </trkpt>
      <trkpt lat="44.221" lon="5.58874">
        <ele>753</ele>
        <time>2019-06-17T10:06:34Z</time>
      </trkpt>
      <trkpt lat="44.221" lon="5.58885">
        <ele>752</ele>
        <time>2019-06-17T10:06:35Z</time>
      </trkpt>
      <trkpt lat="44.221" lon="5.58897">
        <ele>752</ele>
        <time>2019-06-17T10:06:36Z</time>
      </trkpt>
      <trkpt lat="44.221" lon="5.58908">
        <ele>752</ele>
        <time>2019-06-17T10:06:37Z</time>
      </trkpt>
      <trkpt lat="44.221" lon="5.58918">
        <ele>751</ele>
        <time>2019-06-17T10:06:38Z</time>
      </trkpt>
      <trkpt lat="44.221" lon="5.58929">
        <ele>751</ele>
        <time>2019-06-17T10:06:39Z</time>
      </trkpt>
      <trkpt lat="44.221" lon="5.5894">
        <ele>751</ele>
        <time>2019-06-17T10:06:40Z</time>
      </trkpt>
      <trkpt lat="44.221" lon="5.5895">
        <ele>750</ele>
        <time>2019-06-17T10:06:41Z</time>
      </trkpt>
      <trkpt lat="44.22099" lon="5.58961">
        <ele>750</ele>
        <time>2019-06-17T10:06:42Z</time>
      </trkpt>
      <trkpt lat="44.22098" lon="5.58972">
        <ele>750</ele>
        <time>2019-06-17T10:06:43Z</time>
      </trkpt>
      <trkpt lat="44.22097" lon="5.58982">
        <ele>750</ele>
        <time>2019-06-17T10:06:44Z</time>
      </trkpt>
      <trkpt lat="44.22097" lon="5.58992">
        <ele>749</ele>
        <time>2019-06-17T10:06:45Z</time>
      </trkpt>
      <trkpt lat="44.22095" lon="5.59003">
        <ele>749</ele>
        <time>2019-06-17T10:06:46Z</time>
      </trkpt>
      <trkpt lat="44.22093" lon="5.59013">
        <ele>749</ele>
        <time>2019-06-17T10:06:47Z</time>
      </trkpt>
      <trkpt lat="44.22091" lon="5.59022">
        <ele>749</ele>
        <time>2019-06-17T10:06:48Z</time>
      </trkpt>
      <trkpt lat="44.2209" lon="5.5903">
        <ele>749</ele>
        <time>2019-06-17T10:06:49Z</time>
      </trkpt>
      <trkpt lat="44.22088" lon="5.5904">
        <ele>749</ele>
        <time>2019-06-17T10:06:50Z</time>
      </trkpt>
      <trkpt lat="44.22085" lon="5.59049">
        <ele>749</ele>
        <time>2019-06-17T10:06:51Z</time>
      </trkpt>
      <trkpt lat="44.22083" lon="5.59059">
        <ele>749</ele>
        <time>2019-06-17T10:06:52Z</time>
      </trkpt>
      <trkpt lat="44.22081" lon="5.59068">
        <ele>749</ele>
        <time>2019-06-17T10:06:53Z</time>
      </trkpt>
      <trkpt lat="44.22079" lon="5.59078">
        <ele>749</ele>
        <time>2019-06-17T10:06:54Z</time>
      </trkpt>
      <trkpt lat="44.22077" lon="5.59088">
        <ele>749</ele>
        <time>2019-06-17T10:06:55Z</time>
      </trkpt>
      <trkpt lat="44.22076" lon="5.59098">
        <ele>749</ele>
        <time>2019-06-17T10:06:56Z</time>
      </trkpt>
      <trkpt lat="44.22074" lon="5.59108">
        <ele>749</ele>
        <time>2019-06-17T10:06:57Z</time>
      </trkpt>
      <trkpt lat="44.22073" lon="5.59118">
        <ele>749</ele>
        <time>2019-06-17T10:06:58Z</time>
      </trkpt>
      <trkpt lat="44.22071" lon="5.59128">
        <ele>748</ele>
        <time>2019-06-17T10:06:59Z</time>
      </trkpt>
      <trkpt lat="44.22071" lon="5.59138">
        <ele>748</ele>
        <time>2019-06-17T10:07:00Z</time>
      </trkpt>
      <trkpt lat="44.2207" lon="5.59149">
        <ele>748</ele>
        <time>2019-06-17T10:07:01Z</time>
      </trkpt>
      <trkpt lat="44.2207" lon="5.59159">
        <ele>748</ele>
        <time>2019-06-17T10:07:02Z</time>
      </trkpt>
      <trkpt lat="44.2207" lon="5.59169">
        <ele>748</ele>
        <time>2019-06-17T10:07:03Z</time>
      </trkpt>
      <trkpt lat="44.2207" lon="5.5918">
        <ele>747</ele>
        <time>2019-06-17T10:07:04Z</time>
      </trkpt>
      <trkpt lat="44.22071" lon="5.59191">
        <ele>747</ele>
        <time>2019-06-17T10:07:05Z</time>
      </trkpt>
      <trkpt lat="44.22072" lon="5.59202">
        <ele>747</ele>
        <time>2019-06-17T10:07:06Z</time>
      </trkpt>
      <trkpt lat="44.22073" lon="5.59213">
        <ele>747</ele>
        <time>2019-06-17T10:07:07Z</time>
      </trkpt>
      <trkpt lat="44.22074" lon="5.59224">
        <ele>746</ele>
        <time>2019-06-17T10:07:08Z</time>
      </trkpt>
      <trkpt lat="44.22076" lon="5.59235">
        <ele>746</ele>
        <time>2019-06-17T10:07:09Z</time>
      </trkpt>
      <trkpt lat="44.22077" lon="5.59246">
        <ele>746</ele>
        <time>2019-06-17T10:07:10Z</time>
      </trkpt>
      <trkpt lat="44.22079" lon="5.59257">
        <ele>746</ele>
        <time>2019-06-17T10:07:11Z</time>
      </trkpt>
      <trkpt lat="44.22081" lon="5.59268">
        <ele>746</ele>
        <time>2019-06-17T10:07:12Z</time>
      </trkpt>
      <trkpt lat="44.22083" lon="5.59279">
        <ele>746</ele>
        <time>2019-06-17T10:07:13Z</time>
      </trkpt>
      <trkpt lat="44.22085" lon="5.5929">
        <ele>745</ele>
        <time>2019-06-17T10:07:14Z</time>
      </trkpt>
      <trkpt lat="44.22087" lon="5.59301">
        <ele>745</ele>
        <time>2019-06-17T10:07:15Z</time>
      </trkpt>
      <trkpt lat="44.22089" lon="5.59312">
        <ele>745</ele>
        <time>2019-06-17T10:07:16Z</time>
      </trkpt>
      <trkpt lat="44.2209" lon="5.59323">
        <ele>745</ele>
        <time>2019-06-17T10:07:17Z</time>
      </trkpt>
      <trkpt lat="44.22092" lon="5.59335">
        <ele>745</ele>
        <time>2019-06-17T10:07:18Z</time>
      </trkpt>
      <trkpt lat="44.22094" lon="5.59345">
        <ele>745</ele>
        <time>2019-06-17T10:07:19Z</time>
      </trkpt>
      <trkpt lat="44.22095" lon="5.59356">
        <ele>745</ele>
        <time>2019-06-17T10:07:20Z</time>
      </trkpt>
      <trkpt lat="44.22097" lon="5.59367">
        <ele>745</ele>
        <time>2019-06-17T10:07:21Z</time>
      </trkpt>
      <trkpt lat="44.22099" lon="5.59377">
        <ele>745</ele>
        <time>2019-06-17T10:07:22Z</time>
      </trkpt>
      <trkpt lat="44.22101" lon="5.59388">
        <ele>745</ele>
        <time>2019-06-17T10:07:23Z</time>
      </trkpt>
      <trkpt lat="44.22103" lon="5.59398">
        <ele>745</ele>
        <time>2019-06-17T10:07:24Z</time>
      </trkpt>
      <trkpt lat="44.22104" lon="5.59409">
        <ele>745</ele>
        <time>2019-06-17T10:07:25Z</time>
      </trkpt>
      <trkpt lat="44.22106" lon="5.59418">
        <ele>744</ele>
        <time>2019-06-17T10:07:26Z</time>
      </trkpt>
      <trkpt lat="44.22108" lon="5.59428">
        <ele>744</ele>
        <time>2019-06-17T10:07:27Z</time>
      </trkpt>
      <trkpt lat="44.22109" lon="5.59438">
        <ele>744</ele>
        <time>2019-06-17T10:07:28Z</time>
      </trkpt>
      <trkpt lat="44.22111" lon="5.59448">
        <ele>744</ele>
        <time>2019-06-17T10:07:29Z</time>
      </trkpt>
      <trkpt lat="44.22113" lon="5.59457">
        <ele>744</ele>
        <time>2019-06-17T10:07:30Z</time>
      </trkpt>
      <trkpt lat="44.22114" lon="5.59467">
        <ele>743</ele>
        <time>2019-06-17T10:07:31Z</time>
      </trkpt>
      <trkpt lat="44.22116" lon="5.59477">
        <ele>743</ele>
        <time>2019-06-17T10:07:32Z</time>
      </trkpt>
      <trkpt lat="44.22118" lon="5.59487">
        <ele>743</ele>
        <time>2019-06-17T10:07:33Z</time>
      </trkpt>
      <trkpt lat="44.22119" lon="5.59497">
        <ele>743</ele>
        <time>2019-06-17T10:07:34Z</time>
      </trkpt>
      <trkpt lat="44.22121" lon="5.59507">
        <ele>742</ele>
        <time>2019-06-17T10:07:35Z</time>
      </trkpt>
      <trkpt lat="44.22123" lon="5.59517">
        <ele>742</ele>
        <time>2019-06-17T10:07:36Z</time>
      </trkpt>
      <trkpt lat="44.22124" lon="5.59527">
        <ele>742</ele>
        <time>2019-06-17T10:07:37Z</time>
      </trkpt>
      <trkpt lat="44.22126" lon="5.59538">
        <ele>742</ele>
        <time>2019-06-17T10:07:38Z</time>
      </trkpt>
      <trkpt lat="44.22128" lon="5.59548">
        <ele>741</ele>
        <time>2019-06-17T10:07:39Z</time>
      </trkpt>
      <trkpt lat="44.22129" lon="5.59558">
        <ele>741</ele>
        <time>2019-06-17T10:07:40Z</time>
      </trkpt>
      <trkpt lat="44.22131" lon="5.59568">
        <ele>741</ele>
        <time>2019-06-17T10:07:41Z</time>
      </trkpt>
      <trkpt lat="44.22133" lon="5.59577">
        <ele>741</ele>
        <time>2019-06-17T10:07:42Z</time>
      </trkpt>
      <trkpt lat="44.22135" lon="5.59587">
        <ele>741</ele>
        <time>2019-06-17T10:07:43Z</time>
      </trkpt>
      <trkpt lat="44.22137" lon="5.59597">
        <ele>741</ele>
        <time>2019-06-17T10:07:44Z</time>
      </trkpt>
      <trkpt lat="44.22139" lon="5.59607">
        <ele>741</ele>
        <time>2019-06-17T10:07:45Z</time>
      </trkpt>
      <trkpt lat="44.2214" lon="5.59616">
        <ele>740</ele>
        <time>2019-06-17T10:07:46Z</time>
      </trkpt>
      <trkpt lat="44.22141" lon="5.59626">
        <ele>740</ele>
        <time>2019-06-17T10:07:47Z</time>
      </trkpt>
      <trkpt lat="44.22142" lon="5.59636">
        <ele>740</ele>
        <time>2019-06-17T10:07:48Z</time>
      </trkpt>
      <trkpt lat="44.22143" lon="5.59646">
        <ele>740</ele>
        <time>2019-06-17T10:07:49Z</time>
      </trkpt>
      <trkpt lat="44.22143" lon="5.59656">
        <ele>740</ele>
        <time>2019-06-17T10:07:50Z</time>
      </trkpt>
      <trkpt lat="44.22142" lon="5.59665">
        <ele>740</ele>
        <time>2019-06-17T10:07:51Z</time>
      </trkpt>
      <trkpt lat="44.22142" lon="5.59674">
        <ele>740</ele>
        <time>2019-06-17T10:07:52Z</time>
      </trkpt>
      <trkpt lat="44.22141" lon="5.59684">
        <ele>739</ele>
        <time>2019-06-17T10:07:53Z</time>
      </trkpt>
      <trkpt lat="44.22139" lon="5.59693">
        <ele>739</ele>
        <time>2019-06-17T10:07:54Z</time>
      </trkpt>
      <trkpt lat="44.22138" lon="5.59701">
        <ele>739</ele>
        <time>2019-06-17T10:07:55Z</time>
      </trkpt>
      <trkpt lat="44.22137" lon="5.5971">
        <ele>739</ele>
        <time>2019-06-17T10:07:56Z</time>
      </trkpt>
      <trkpt lat="44.22135" lon="5.59719">
        <ele>739</ele>
        <time>2019-06-17T10:07:57Z</time>
      </trkpt>
      <trkpt lat="44.22134" lon="5.59728">
        <ele>739</ele>
        <time>2019-06-17T10:07:58Z</time>
      </trkpt>
      <trkpt lat="44.22132" lon="5.59736">
        <ele>739</ele>
        <time>2019-06-17T10:07:59Z</time>
      </trkpt>
      <trkpt lat="44.22131" lon="5.59745">
        <ele>739</ele>
        <time>2019-06-17T10:08:00Z</time>
      </trkpt>
      <trkpt lat="44.2213" lon="5.59754">
        <ele>739</ele>
        <time>2019-06-17T10:08:01Z</time>
      </trkpt>
      <trkpt lat="44.22129" lon="5.59763">
        <ele>739</ele>
        <time>2019-06-17T10:08:02Z</time>
      </trkpt>
      <trkpt lat="44.22129" lon="5.59771">
        <ele>739</ele>
        <time>2019-06-17T10:08:03Z</time>
      </trkpt>
      <trkpt lat="44.22128" lon="5.5978">
        <ele>738</ele>
        <time>2019-06-17T10:08:04Z</time>
      </trkpt>
      <trkpt lat="44.22128" lon="5.59789">
        <ele>738</ele>
        <time>2019-06-17T10:08:05Z</time>
      </trkpt>
      <trkpt lat="44.22127" lon="5.59797">
        <ele>738</ele>
        <time>2019-06-17T10:08:06Z</time>
      </trkpt>
      <trkpt lat="44.22127" lon="5.59806">
        <ele>738</ele>
        <time>2019-06-17T10:08:07Z</time>
      </trkpt>
      <trkpt lat="44.22127" lon="5.59815">
        <ele>738</ele>
        <time>2019-06-17T10:08:08Z</time>
      </trkpt>
      <trkpt lat="44.22127" lon="5.59823">
        <ele>738</ele>
        <time>2019-06-17T10:08:09Z</time>
      </trkpt>
      <trkpt lat="44.22127" lon="5.59832">
        <ele>738</ele>
        <time>2019-06-17T10:08:10Z</time>
      </trkpt>
      <trkpt lat="44.22128" lon="5.5984">
        <ele>738</ele>
        <time>2019-06-17T10:08:11Z</time>
      </trkpt>
      <trkpt lat="44.22128" lon="5.59849">
        <ele>738</ele>
        <time>2019-06-17T10:08:12Z</time>
      </trkpt>
      <trkpt lat="44.22128" lon="5.59858">
        <ele>738</ele>
        <time>2019-06-17T10:08:13Z</time>
      </trkpt>
      <trkpt lat="44.22129" lon="5.59867">
        <ele>738</ele>
        <time>2019-06-17T10:08:14Z</time>
      </trkpt>
      <trkpt lat="44.22129" lon="5.59876">
        <ele>738</ele>
        <time>2019-06-17T10:08:15Z</time>
      </trkpt>
      <trkpt lat="44.2213" lon="5.59885">
        <ele>738</ele>
        <time>2019-06-17T10:08:16Z</time>
      </trkpt>
      <trkpt lat="44.2213" lon="5.59894">
        <ele>738</ele>
        <time>2019-06-17T10:08:17Z</time>
      </trkpt>
      <trkpt lat="44.22131" lon="5.59903">
        <ele>738</ele>
        <time>2019-06-17T10:08:18Z</time>
      </trkpt>
      <trkpt lat="44.22131" lon="5.59912">
        <ele>737</ele>
        <time>2019-06-17T10:08:19Z</time>
      </trkpt>
      <trkpt lat="44.22131" lon="5.59922">
        <ele>737</ele>
        <time>2019-06-17T10:08:20Z</time>
      </trkpt>
      <trkpt lat="44.22132" lon="5.59931">
        <ele>737</ele>
        <time>2019-06-17T10:08:21Z</time>
      </trkpt>
      <trkpt lat="44.22132" lon="5.5994">
        <ele>737</ele>
        <time>2019-06-17T10:08:22Z</time>
      </trkpt>
      <trkpt lat="44.22132" lon="5.59949">
        <ele>737</ele>
        <time>2019-06-17T10:08:23Z</time>
      </trkpt>
      <trkpt lat="44.22132" lon="5.59958">
        <ele>737</ele>
        <time>2019-06-17T10:08:24Z</time>
      </trkpt>
      <trkpt lat="44.22132" lon="5.59968">
        <ele>737</ele>
        <time>2019-06-17T10:08:25Z</time>
      </trkpt>
      <trkpt lat="44.22132" lon="5.59977">
        <ele>737</ele>
        <time>2019-06-17T10:08:26Z</time>
      </trkpt>
      <trkpt lat="44.22132" lon="5.59986">
        <ele>737</ele>
        <time>2019-06-17T10:08:27Z</time>
      </trkpt>
      <trkpt lat="44.22132" lon="5.59995">
        <ele>737</ele>
        <time>2019-06-17T10:08:28Z</time>
      </trkpt>
      <trkpt lat="44.22131" lon="5.60005">
        <ele>737</ele>
        <time>2019-06-17T10:08:29Z</time>
      </trkpt>
      <trkpt lat="44.22131" lon="5.60014">
        <ele>737</ele>
        <time>2019-06-17T10:08:30Z</time>
      </trkpt>
      <trkpt lat="44.22131" lon="5.60023">
        <ele>737</ele>
        <time>2019-06-17T10:08:31Z</time>
      </trkpt>
      <trkpt lat="44.22131" lon="5.60032">
        <ele>737</ele>
        <time>2019-06-17T10:08:32Z</time>
      </trkpt>
      <trkpt lat="44.22131" lon="5.60041">
        <ele>737</ele>
        <time>2019-06-17T10:08:33Z</time>
      </trkpt>
      <trkpt lat="44.22131" lon="5.6005">
        <ele>737</ele>
        <time>2019-06-17T10:08:34Z</time>
      </trkpt>
      <trkpt lat="44.22131" lon="5.60059">
        <ele>737</ele>
        <time>2019-06-17T10:08:35Z</time>
      </trkpt>
      <trkpt lat="44.2213" lon="5.60068">
        <ele>737</ele>
        <time>2019-06-17T10:08:36Z</time>
      </trkpt>
      <trkpt lat="44.2213" lon="5.60076">
        <ele>737</ele>
        <time>2019-06-17T10:08:37Z</time>
      </trkpt>
      <trkpt lat="44.2213" lon="5.60085">
        <ele>737</ele>
        <time>2019-06-17T10:08:38Z</time>
      </trkpt>
      <trkpt lat="44.22129" lon="5.60094">
        <ele>737</ele>
        <time>2019-06-17T10:08:39Z</time>
      </trkpt>
      <trkpt lat="44.22129" lon="5.60103">
        <ele>738</ele>
        <time>2019-06-17T10:08:40Z</time>
      </trkpt>
      <trkpt lat="44.22129" lon="5.60112">
        <ele>739</ele>
        <time>2019-06-17T10:08:41Z</time>
      </trkpt>
      <trkpt lat="44.22129" lon="5.60122">
        <ele>739</ele>
        <time>2019-06-17T10:08:42Z</time>
      </trkpt>
      <trkpt lat="44.22129" lon="5.60131">
        <ele>739</ele>
        <time>2019-06-17T10:08:43Z</time>
      </trkpt>
      <trkpt lat="44.22128" lon="5.6014">
        <ele>739</ele>
        <time>2019-06-17T10:08:44Z</time>
      </trkpt>
      <trkpt lat="44.22128" lon="5.60149">
        <ele>739</ele>
        <time>2019-06-17T10:08:45Z</time>
      </trkpt>
      <trkpt lat="44.22127" lon="5.60159">
        <ele>739</ele>
        <time>2019-06-17T10:08:46Z</time>
      </trkpt>
      <trkpt lat="44.22126" lon="5.60168">
        <ele>739</ele>
        <time>2019-06-17T10:08:47Z</time>
      </trkpt>
      <trkpt lat="44.22126" lon="5.60177">
        <ele>739</ele>
        <time>2019-06-17T10:08:48Z</time>
      </trkpt>
      <trkpt lat="44.22125" lon="5.60186">
        <ele>739</ele>
        <time>2019-06-17T10:08:49Z</time>
      </trkpt>
      <trkpt lat="44.22124" lon="5.60195">
        <ele>740</ele>
        <time>2019-06-17T10:08:50Z</time>
      </trkpt>
      <trkpt lat="44.22123" lon="5.60204">
        <ele>741</ele>
        <time>2019-06-17T10:08:51Z</time>
      </trkpt>
      <trkpt lat="44.22123" lon="5.60212">
        <ele>742</ele>
        <time>2019-06-17T10:08:52Z</time>
      </trkpt>
      <trkpt lat="44.22122" lon="5.60221">
        <ele>742</ele>
        <time>2019-06-17T10:08:53Z</time>
      </trkpt>
      <trkpt lat="44.22121" lon="5.60231">
        <ele>743</ele>
        <time>2019-06-17T10:08:54Z</time>
      </trkpt>
      <trkpt lat="44.22121" lon="5.60241">
        <ele>743</ele>
        <time>2019-06-17T10:08:55Z</time>
      </trkpt>
      <trkpt lat="44.2212" lon="5.6025">
        <ele>743</ele>
        <time>2019-06-17T10:08:56Z</time>
      </trkpt>
      <trkpt lat="44.22119" lon="5.6026">
        <ele>743</ele>
        <time>2019-06-17T10:08:57Z</time>
      </trkpt>
      <trkpt lat="44.22118" lon="5.6027">
        <ele>743</ele>
        <time>2019-06-17T10:08:58Z</time>
      </trkpt>
      <trkpt lat="44.22116" lon="5.60279">
        <ele>743</ele>
        <time>2019-06-17T10:08:59Z</time>
      </trkpt>
      <trkpt lat="44.22115" lon="5.60289">
        <ele>743</ele>
        <time>2019-06-17T10:09:00Z</time>
      </trkpt>
      <trkpt lat="44.22114" lon="5.60299">
        <ele>743</ele>
        <time>2019-06-17T10:09:01Z</time>
      </trkpt>
      <trkpt lat="44.22113" lon="5.60309">
        <ele>743</ele>
        <time>2019-06-17T10:09:02Z</time>
      </trkpt>
      <trkpt lat="44.22113" lon="5.60319">
        <ele>743</ele>
        <time>2019-06-17T10:09:03Z</time>
      </trkpt>
      <trkpt lat="44.22112" lon="5.60329">
        <ele>743</ele>
        <time>2019-06-17T10:09:04Z</time>
      </trkpt>
      <trkpt lat="44.22112" lon="5.60339">
        <ele>743</ele>
        <time>2019-06-17T10:09:05Z</time>
      </trkpt>
      <trkpt lat="44.22112" lon="5.6035">
        <ele>743</ele>
        <time>2019-06-17T10:09:06Z</time>
      </trkpt>
      <trkpt lat="44.22113" lon="5.6036">
        <ele>743</ele>
        <time>2019-06-17T10:09:07Z</time>
      </trkpt>
      <trkpt lat="44.22113" lon="5.60369">
        <ele>743</ele>
        <time>2019-06-17T10:09:08Z</time>
      </trkpt>
      <trkpt lat="44.22114" lon="5.60379">
        <ele>743</ele>
        <time>2019-06-17T10:09:09Z</time>
      </trkpt>
      <trkpt lat="44.22116" lon="5.60389">
        <ele>742</ele>
        <time>2019-06-17T10:09:10Z</time>
      </trkpt>
      <trkpt lat="44.22117" lon="5.60398">
        <ele>742</ele>
        <time>2019-06-17T10:09:11Z</time>
      </trkpt>
      <trkpt lat="44.22119" lon="5.60408">
        <ele>742</ele>
        <time>2019-06-17T10:09:12Z</time>
      </trkpt>
      <trkpt lat="44.22121" lon="5.60417">
        <ele>741</ele>
        <time>2019-06-17T10:09:13Z</time>
      </trkpt>
      <trkpt lat="44.22123" lon="5.60427">
        <ele>741</ele>
        <time>2019-06-17T10:09:14Z</time>
      </trkpt>
      <trkpt lat="44.22124" lon="5.60436">
        <ele>741</ele>
        <time>2019-06-17T10:09:15Z</time>
      </trkpt>
      <trkpt lat="44.22126" lon="5.60446">
        <ele>740</ele>
        <time>2019-06-17T10:09:16Z</time>
      </trkpt>
      <trkpt lat="44.22127" lon="5.60456">
        <ele>740</ele>
        <time>2019-06-17T10:09:17Z</time>
      </trkpt>
      <trkpt lat="44.22129" lon="5.60466">
        <ele>740</ele>
        <time>2019-06-17T10:09:18Z</time>
      </trkpt>
      <trkpt lat="44.2213" lon="5.60476">
        <ele>740</ele>
        <time>2019-06-17T10:09:19Z</time>
      </trkpt>
      <trkpt lat="44.22131" lon="5.60486">
        <ele>740</ele>
        <time>2019-06-17T10:09:20Z</time>
      </trkpt>
      <trkpt lat="44.22131" lon="5.60495">
        <ele>740</ele>
        <time>2019-06-17T10:09:21Z</time>
      </trkpt>
      <trkpt lat="44.22132" lon="5.60505">
        <ele>740</ele>
        <time>2019-06-17T10:09:22Z</time>
      </trkpt>
      <trkpt lat="44.22132" lon="5.60515">
        <ele>740</ele>
        <time>2019-06-17T10:09:23Z</time>
      </trkpt>
      <trkpt lat="44.22132" lon="5.60526">
        <ele>740</ele>
        <time>2019-06-17T10:09:24Z</time>
      </trkpt>
      <trkpt lat="44.22132" lon="5.60537">
        <ele>740</ele>
        <time>2019-06-17T10:09:25Z</time>
      </trkpt>
      <trkpt lat="44.22132" lon="5.60547">
        <ele>740</ele>
        <time>2019-06-17T10:09:26Z</time>
      </trkpt>
      <trkpt lat="44.22131" lon="5.60558">
        <ele>740</ele>
        <time>2019-06-17T10:09:27Z</time>
      </trkpt>
      <trkpt lat="44.2213" lon="5.60569">
        <ele>740</ele>
        <time>2019-06-17T10:09:28Z</time>
      </trkpt>
      <trkpt lat="44.22129" lon="5.60579">
        <ele>740</ele>
        <time>2019-06-17T10:09:29Z</time>
      </trkpt>
      <trkpt lat="44.22128" lon="5.6059">
        <ele>740</ele>
        <time>2019-06-17T10:09:30Z</time>
      </trkpt>
      <trkpt lat="44.22127" lon="5.606">
        <ele>740</ele>
        <time>2019-06-17T10:09:31Z</time>
      </trkpt>
      <trkpt lat="44.22126" lon="5.60609">
        <ele>740</ele>
        <time>2019-06-17T10:09:32Z</time>
      </trkpt>
      <trkpt lat="44.22125" lon="5.60619">
        <ele>740</ele>
        <time>2019-06-17T10:09:33Z</time>
      </trkpt>
      <trkpt lat="44.22123" lon="5.60629">
        <ele>740</ele>
        <time>2019-06-17T10:09:34Z</time>
      </trkpt>
      <trkpt lat="44.22122" lon="5.60639">
        <ele>740</ele>
        <time>2019-06-17T10:09:35Z</time>
      </trkpt>
      <trkpt lat="44.22121" lon="5.60649">
        <ele>740</ele>
        <time>2019-06-17T10:09:36Z</time>
      </trkpt>
      <trkpt lat="44.22119" lon="5.6066">
        <ele>740</ele>
        <time>2019-06-17T10:09:37Z</time>
      </trkpt>
      <trkpt lat="44.22117" lon="5.6067">
        <ele>740</ele>
        <time>2019-06-17T10:09:38Z</time>
      </trkpt>
      <trkpt lat="44.22115" lon="5.60681">
        <ele>740</ele>
        <time>2019-06-17T10:09:39Z</time>
      </trkpt>
      <trkpt lat="44.22113" lon="5.60691">
        <ele>740</ele>
        <time>2019-06-17T10:09:40Z</time>
      </trkpt>
      <trkpt lat="44.22111" lon="5.60702">
        <ele>740</ele>
        <time>2019-06-17T10:09:41Z</time>
      </trkpt>
      <trkpt lat="44.22109" lon="5.60713">
        <ele>740</ele>
        <time>2019-06-17T10:09:42Z</time>
      </trkpt>
      <trkpt lat="44.22107" lon="5.60723">
        <ele>740</ele>
        <time>2019-06-17T10:09:43Z</time>
      </trkpt>
      <trkpt lat="44.22105" lon="5.60734">
        <ele>740</ele>
        <time>2019-06-17T10:09:44Z</time>
      </trkpt>
      <trkpt lat="44.22103" lon="5.60744">
        <ele>740</ele>
        <time>2019-06-17T10:09:45Z</time>
      </trkpt>
      <trkpt lat="44.22102" lon="5.60754">
        <ele>740</ele>
        <time>2019-06-17T10:09:46Z</time>
      </trkpt>
      <trkpt lat="44.22102" lon="5.60764">
        <ele>740</ele>
        <time>2019-06-17T10:09:47Z</time>
      </trkpt>
      <trkpt lat="44.22102" lon="5.60774">
        <ele>740</ele>
        <time>2019-06-17T10:09:48Z</time>
      </trkpt>
      <trkpt lat="44.22102" lon="5.60784">
        <ele>740</ele>
        <time>2019-06-17T10:09:49Z</time>
      </trkpt>
      <trkpt lat="44.22103" lon="5.60794">
        <ele>740</ele>
        <time>2019-06-17T10:09:50Z</time>
      </trkpt>
      <trkpt lat="44.22104" lon="5.60803">
        <ele>740</ele>
        <time>2019-06-17T10:09:51Z</time>
      </trkpt>
      <trkpt lat="44.22106" lon="5.60813">
        <ele>740</ele>
        <time>2019-06-17T10:09:52Z</time>
      </trkpt>
      <trkpt lat="44.22108" lon="5.60822">
        <ele>740</ele>
        <time>2019-06-17T10:09:53Z</time>
      </trkpt>
      <trkpt lat="44.2211" lon="5.60832">
        <ele>740</ele>
        <time>2019-06-17T10:09:54Z</time>
      </trkpt>
      <trkpt lat="44.22113" lon="5.60841">
        <ele>740</ele>
        <time>2019-06-17T10:09:55Z</time>
      </trkpt>
      <trkpt lat="44.22116" lon="5.6085">
        <ele>740</ele>
        <time>2019-06-17T10:09:56Z</time>
      </trkpt>
      <trkpt lat="44.22119" lon="5.60859">
        <ele>740</ele>
        <time>2019-06-17T10:09:57Z</time>
      </trkpt>
      <trkpt lat="44.22122" lon="5.60868">
        <ele>739</ele>
        <time>2019-06-17T10:09:58Z</time>
      </trkpt>
      <trkpt lat="44.22125" lon="5.60878">
        <ele>739</ele>
        <time>2019-06-17T10:09:59Z</time>
      </trkpt>
      <trkpt lat="44.22128" lon="5.60887">
        <ele>739</ele>
        <time>2019-06-17T10:10:00Z</time>
      </trkpt>
      <trkpt lat="44.2213" lon="5.60896">
        <ele>738</ele>
        <time>2019-06-17T10:10:01Z</time>
      </trkpt>
      <trkpt lat="44.22133" lon="5.60905">
        <ele>738</ele>
        <time>2019-06-17T10:10:02Z</time>
      </trkpt>
      <trkpt lat="44.22135" lon="5.60914">
        <ele>738</ele>
        <time>2019-06-17T10:10:03Z</time>
      </trkpt>
      <trkpt lat="44.22138" lon="5.60923">
        <ele>738</ele>
        <time>2019-06-17T10:10:04Z</time>
      </trkpt>
      <trkpt lat="44.2214" lon="5.60932">
        <ele>737</ele>
        <time>2019-06-17T10:10:05Z</time>
      </trkpt>
      <trkpt lat="44.22142" lon="5.60942">
        <ele>737</ele>
        <time>2019-06-17T10:10:06Z</time>
      </trkpt>
      <trkpt lat="44.22144" lon="5.60951">
        <ele>737</ele>
        <time>2019-06-17T10:10:07Z</time>
      </trkpt>
      <trkpt lat="44.22145" lon="5.60961">
        <ele>737</ele>
        <time>2019-06-17T10:10:08Z</time>
      </trkpt>
      <trkpt lat="44.22147" lon="5.6097">
        <ele>736</ele>
        <time>2019-06-17T10:10:09Z</time>
      </trkpt>
      <trkpt lat="44.22148" lon="5.60979">
        <ele>736</ele>
        <time>2019-06-17T10:10:10Z</time>
      </trkpt>
      <trkpt lat="44.2215" lon="5.60989">
        <ele>736</ele>
        <time>2019-06-17T10:10:11Z</time>
      </trkpt>
      <trkpt lat="44.22151" lon="5.60998">
        <ele>736</ele>
        <time>2019-06-17T10:10:12Z</time>
      </trkpt>
      <trkpt lat="44.22153" lon="5.61008">
        <ele>736</ele>
        <time>2019-06-17T10:10:13Z</time>
      </trkpt>
      <trkpt lat="44.22155" lon="5.61017">
        <ele>736</ele>
        <time>2019-06-17T10:10:14Z</time>
      </trkpt>
      <trkpt lat="44.22156" lon="5.61026">
        <ele>736</ele>
        <time>2019-06-17T10:10:15Z</time>
      </trkpt>
      <trkpt lat="44.22158" lon="5.61036">
        <ele>735</ele>
        <time>2019-06-17T10:10:16Z</time>
      </trkpt>
      <trkpt lat="44.22159" lon="5.61045">
        <ele>735</ele>
        <time>2019-06-17T10:10:17Z</time>
      </trkpt>
      <trkpt lat="44.22161" lon="5.61055">
        <ele>735</ele>
        <time>2019-06-17T10:10:18Z</time>
      </trkpt>
      <trkpt lat="44.22162" lon="5.61064">
        <ele>735</ele>
        <time>2019-06-17T10:10:19Z</time>
      </trkpt>
      <trkpt lat="44.22164" lon="5.61073">
        <ele>735</ele>
        <time>2019-06-17T10:10:20Z</time>
      </trkpt>
      <trkpt lat="44.22165" lon="5.61082">
        <ele>735</ele>
        <time>2019-06-17T10:10:21Z</time>
      </trkpt>
      <trkpt lat="44.22166" lon="5.61091">
        <ele>735</ele>
        <time>2019-06-17T10:10:22Z</time>
      </trkpt>
      <trkpt lat="44.22168" lon="5.611">
        <ele>735</ele>
        <time>2019-06-17T10:10:23Z</time>
      </trkpt>
      <trkpt lat="44.22169" lon="5.61109">
        <ele>735</ele>
        <time>2019-06-17T10:10:24Z</time>
      </trkpt>
      <trkpt lat="44.22171" lon="5.61118">
        <ele>735</ele>
        <time>2019-06-17T10:10:25Z</time>
      </trkpt>
      <trkpt lat="44.22172" lon="5.61127">
        <ele>735</ele>
        <time>2019-06-17T10:10:26Z</time>
      </trkpt>
      <trkpt lat="44.22173" lon="5.61136">
        <ele>735</ele>
        <time>2019-06-17T10:10:27Z</time>
      </trkpt>
      <trkpt lat="44.22175" lon="5.61144">
        <ele>735</ele>
        <time>2019-06-17T10:10:28Z</time>
      </trkpt>
      <trkpt lat="44.22176" lon="5.61153">
        <ele>735</ele>
        <time>2019-06-17T10:10:29Z</time>
      </trkpt>
      <trkpt lat="44.22178" lon="5.61162">
        <ele>735</ele>
        <time>2019-06-17T10:10:30Z</time>
      </trkpt>
      <trkpt lat="44.22179" lon="5.6117">
        <ele>735</ele>
        <time>2019-06-17T10:10:31Z</time>
      </trkpt>
      <trkpt lat="44.22181" lon="5.61179">
        <ele>735</ele>
        <time>2019-06-17T10:10:32Z</time>
      </trkpt>
      <trkpt lat="44.22182" lon="5.61188">
        <ele>735</ele>
        <time>2019-06-17T10:10:33Z</time>
      </trkpt>
      <trkpt lat="44.22184" lon="5.61196">
        <ele>735</ele>
        <time>2019-06-17T10:10:34Z</time>
      </trkpt>
      <trkpt lat="44.22186" lon="5.61205">
        <ele>735</ele>
        <time>2019-06-17T10:10:35Z</time>
      </trkpt>
      <trkpt lat="44.22188" lon="5.61214">
        <ele>734</ele>
        <time>2019-06-17T10:10:36Z</time>
      </trkpt>
      <trkpt lat="44.2219" lon="5.61223">
        <ele>734</ele>
        <time>2019-06-17T10:10:37Z</time>
      </trkpt>
      <trkpt lat="44.22192" lon="5.61232">
        <ele>734</ele>
        <time>2019-06-17T10:10:38Z</time>
      </trkpt>
      <trkpt lat="44.22195" lon="5.61241">
        <ele>734</ele>
        <time>2019-06-17T10:10:39Z</time>
      </trkpt>
      <trkpt lat="44.22197" lon="5.6125">
        <ele>734</ele>
        <time>2019-06-17T10:10:40Z</time>
      </trkpt>
      <trkpt lat="44.22199" lon="5.61259">
        <ele>734</ele>
        <time>2019-06-17T10:10:41Z</time>
      </trkpt>
      <trkpt lat="44.22201" lon="5.61268">
        <ele>734</ele>
        <time>2019-06-17T10:10:42Z</time>
      </trkpt>
      <trkpt lat="44.22204" lon="5.61278">
        <ele>734</ele>
        <time>2019-06-17T10:10:43Z</time>
      </trkpt>
      <trkpt lat="44.22206" lon="5.61287">
        <ele>733</ele>
        <time>2019-06-17T10:10:44Z</time>
      </trkpt>
      <trkpt lat="44.22208" lon="5.61297">
        <ele>733</ele>
        <time>2019-06-17T10:10:45Z</time>
      </trkpt>
      <trkpt lat="44.2221" lon="5.61306">
        <ele>733</ele>
        <time>2019-06-17T10:10:46Z</time>
      </trkpt>
      <trkpt lat="44.22213" lon="5.61316">
        <ele>733</ele>
        <time>2019-06-17T10:10:47Z</time>
      </trkpt>
      <trkpt lat="44.22216" lon="5.61326">
        <ele>732</ele>
        <time>2019-06-17T10:10:48Z</time>
      </trkpt>
      <trkpt lat="44.22218" lon="5.61336">
        <ele>732</ele>
        <time>2019-06-17T10:10:49Z</time>
      </trkpt>
      <trkpt lat="44.2222" lon="5.61345">
        <ele>732</ele>
        <time>2019-06-17T10:10:50Z</time>
      </trkpt>
      <trkpt lat="44.22222" lon="5.61355">
        <ele>732</ele>
        <time>2019-06-17T10:10:51Z</time>
      </trkpt>
      <trkpt lat="44.22225" lon="5.61366">
        <ele>731</ele>
        <time>2019-06-17T10:10:52Z</time>
      </trkpt>
      <trkpt lat="44.22227" lon="5.61376">
        <ele>731</ele>
        <time>2019-06-17T10:10:53Z</time>
      </trkpt>
      <trkpt lat="44.2223" lon="5.61386">
        <ele>731</ele>
        <time>2019-06-17T10:10:54Z</time>
      </trkpt>
      <trkpt lat="44.22232" lon="5.61397">
        <ele>731</ele>
        <time>2019-06-17T10:10:55Z</time>
      </trkpt>
      <trkpt lat="44.22235" lon="5.61407">
        <ele>731</ele>
        <time>2019-06-17T10:10:56Z</time>
      </trkpt>
      <trkpt lat="44.22238" lon="5.61418">
        <ele>731</ele>
        <time>2019-06-17T10:10:57Z</time>
      </trkpt>
      <trkpt lat="44.2224" lon="5.61428">
        <ele>730</ele>
        <time>2019-06-17T10:10:58Z</time>
      </trkpt>
      <trkpt lat="44.22242" lon="5.61439">
        <ele>730</ele>
        <time>2019-06-17T10:10:59Z</time>
      </trkpt>
      <trkpt lat="44.22245" lon="5.6145">
        <ele>730</ele>
        <time>2019-06-17T10:11:00Z</time>
      </trkpt>
      <trkpt lat="44.22247" lon="5.61461">
        <ele>730</ele>
        <time>2019-06-17T10:11:01Z</time>
      </trkpt>
      <trkpt lat="44.2225" lon="5.61471">
        <ele>730</ele>
        <time>2019-06-17T10:11:02Z</time>
      </trkpt>
      <trkpt lat="44.22253" lon="5.61482">
        <ele>730</ele>
        <time>2019-06-17T10:11:03Z</time>
      </trkpt>
      <trkpt lat="44.22255" lon="5.61492">
        <ele>730</ele>
        <time>2019-06-17T10:11:04Z</time>
      </trkpt>
      <trkpt lat="44.22258" lon="5.61502">
        <ele>730</ele>
        <time>2019-06-17T10:11:05Z</time>
      </trkpt>
      <trkpt lat="44.2226" lon="5.61512">
        <ele>730</ele>
        <time>2019-06-17T10:11:06Z</time>
      </trkpt>
      <trkpt lat="44.22263" lon="5.61521">
        <ele>730</ele>
        <time>2019-06-17T10:11:07Z</time>
      </trkpt>
      <trkpt lat="44.22265" lon="5.61531">
        <ele>730</ele>
        <time>2019-06-17T10:11:08Z</time>
      </trkpt>
      <trkpt lat="44.22268" lon="5.6154">
        <ele>730</ele>
        <time>2019-06-17T10:11:09Z</time>
      </trkpt>
      <trkpt lat="44.22272" lon="5.61548">
        <ele>730</ele>
        <time>2019-06-17T10:11:10Z</time>
      </trkpt>
      <trkpt lat="44.22275" lon="5.61557">
        <ele>730</ele>
        <time>2019-06-17T10:11:11Z</time>
      </trkpt>
      <trkpt lat="44.22279" lon="5.61566">
        <ele>730</ele>
        <time>2019-06-17T10:11:12Z</time>
      </trkpt>
      <trkpt lat="44.22282" lon="5.61575">
        <ele>730</ele>
        <time>2019-06-17T10:11:13Z</time>
      </trkpt>
      <trkpt lat="44.22285" lon="5.61584">
        <ele>730</ele>
        <time>2019-06-17T10:11:14Z</time>
      </trkpt>
      <trkpt lat="44.22289" lon="5.61592">
        <ele>730</ele>
        <time>2019-06-17T10:11:15Z</time>
      </trkpt>
      <trkpt lat="44.22292" lon="5.616">
        <ele>730</ele>
        <time>2019-06-17T10:11:16Z</time>
      </trkpt>
      <trkpt lat="44.22296" lon="5.61609">
        <ele>730</ele>
        <time>2019-06-17T10:11:17Z</time>
      </trkpt>
      <trkpt lat="44.223" lon="5.61617">
        <ele>730</ele>
        <time>2019-06-17T10:11:18Z</time>
      </trkpt>
      <trkpt lat="44.22303" lon="5.61626">
        <ele>729</ele>
        <time>2019-06-17T10:11:19Z</time>
      </trkpt>
      <trkpt lat="44.22306" lon="5.61634">
        <ele>729</ele>
        <time>2019-06-17T10:11:20Z</time>
      </trkpt>
      <trkpt lat="44.2231" lon="5.61643">
        <ele>729</ele>
        <time>2019-06-17T10:11:21Z</time>
      </trkpt>
      <trkpt lat="44.22314" lon="5.61652">
        <ele>729</ele>
        <time>2019-06-17T10:11:22Z</time>
      </trkpt>
      <trkpt lat="44.22318" lon="5.61661">
        <ele>729</ele>
        <time>2019-06-17T10:11:23Z</time>
      </trkpt>
      <trkpt lat="44.22321" lon="5.6167">
        <ele>728</ele>
        <time>2019-06-17T10:11:24Z</time>
      </trkpt>
      <trkpt lat="44.22325" lon="5.61679">
        <ele>728</ele>
        <time>2019-06-17T10:11:25Z</time>
      </trkpt>
      <trkpt lat="44.22329" lon="5.61688">
        <ele>728</ele>
        <time>2019-06-17T10:11:26Z</time>
      </trkpt>
      <trkpt lat="44.22333" lon="5.61697">
        <ele>728</ele>
        <time>2019-06-17T10:11:27Z</time>
      </trkpt>
      <trkpt lat="44.22336" lon="5.61706">
        <ele>727</ele>
        <time>2019-06-17T10:11:28Z</time>
      </trkpt>
      <trkpt lat="44.2234" lon="5.61715">
        <ele>727</ele>
        <time>2019-06-17T10:11:29Z</time>
      </trkpt>
      <trkpt lat="44.22344" lon="5.61724">
        <ele>727</ele>
        <time>2019-06-17T10:11:30Z</time>
      </trkpt>
      <trkpt lat="44.22348" lon="5.61733">
        <ele>727</ele>
        <time>2019-06-17T10:11:31Z</time>
      </trkpt>
      <trkpt lat="44.22351" lon="5.61742">
        <ele>726</ele>
        <time>2019-06-17T10:11:32Z</time>
      </trkpt>
      <trkpt lat="44.22355" lon="5.61752">
        <ele>726</ele>
        <time>2019-06-17T10:11:33Z</time>
      </trkpt>
      <trkpt lat="44.22359" lon="5.61761">
        <ele>726</ele>
        <time>2019-06-17T10:11:34Z</time>
      </trkpt>
      <trkpt lat="44.22362" lon="5.61771">
        <ele>726</ele>
        <time>2019-06-17T10:11:35Z</time>
      </trkpt>
      <trkpt lat="44.22367" lon="5.61781">
        <ele>725</ele>
        <time>2019-06-17T10:11:36Z</time>
      </trkpt>
      <trkpt lat="44.2237" lon="5.61791">
        <ele>725</ele>
        <time>2019-06-17T10:11:37Z</time>
      </trkpt>
      <trkpt lat="44.22374" lon="5.618">
        <ele>725</ele>
        <time>2019-06-17T10:11:38Z</time>
      </trkpt>
      <trkpt lat="44.22377" lon="5.6181">
        <ele>725</ele>
        <time>2019-06-17T10:11:39Z</time>
      </trkpt>
      <trkpt lat="44.22381" lon="5.61821">
        <ele>724</ele>
        <time>2019-06-17T10:11:40Z</time>
      </trkpt>
      <trkpt lat="44.22383" lon="5.61831">
        <ele>724</ele>
        <time>2019-06-17T10:11:41Z</time>
      </trkpt>
      <trkpt lat="44.22386" lon="5.61841">
        <ele>724</ele>
        <time>2019-06-17T10:11:42Z</time>
      </trkpt>
      <trkpt lat="44.22388" lon="5.61851">
        <ele>724</ele>
        <time>2019-06-17T10:11:43Z</time>
      </trkpt>
      <trkpt lat="44.22391" lon="5.61861">
        <ele>724</ele>
        <time>2019-06-17T10:11:44Z</time>
      </trkpt>
      <trkpt lat="44.22393" lon="5.61871">
        <ele>724</ele>
        <time>2019-06-17T10:11:45Z</time>
      </trkpt>
      <trkpt lat="44.22396" lon="5.61881">
        <ele>724</ele>
        <time>2019-06-17T10:11:46Z</time>
      </trkpt>
      <trkpt lat="44.22399" lon="5.61891">
        <ele>724</ele>
        <time>2019-06-17T10:11:47Z</time>
      </trkpt>
      <trkpt lat="44.22402" lon="5.619">
        <ele>724</ele>
        <time>2019-06-17T10:11:48Z</time>
      </trkpt>
      <trkpt lat="44.22405" lon="5.61909">
        <ele>724</ele>
        <time>2019-06-17T10:11:49Z</time>
      </trkpt>
      <trkpt lat="44.22408" lon="5.61918">
        <ele>724</ele>
        <time>2019-06-17T10:11:50Z</time>
      </trkpt>
      <trkpt lat="44.22412" lon="5.61926">
        <ele>723</ele>
        <time>2019-06-17T10:11:51Z</time>
      </trkpt>
      <trkpt lat="44.22415" lon="5.61934">
        <ele>723</ele>
        <time>2019-06-17T10:11:52Z</time>
      </trkpt>
      <trkpt lat="44.22419" lon="5.61942">
        <ele>723</ele>
        <time>2019-06-17T10:11:53Z</time>
      </trkpt>
      <trkpt lat="44.22423" lon="5.61951">
        <ele>722</ele>
        <time>2019-06-17T10:11:54Z</time>
      </trkpt>
      <trkpt lat="44.22427" lon="5.61959">
        <ele>722</ele>
        <time>2019-06-17T10:11:55Z</time>
      </trkpt>
      <trkpt lat="44.22431" lon="5.61967">
        <ele>721</ele>
        <time>2019-06-17T10:11:56Z</time>
      </trkpt>
      <trkpt lat="44.22435" lon="5.61975">
        <ele>721</ele>
        <time>2019-06-17T10:11:57Z</time>
      </trkpt>
      <trkpt lat="44.22439" lon="5.61983">
        <ele>721</ele>
        <time>2019-06-17T10:11:58Z</time>
      </trkpt>
      <trkpt lat="44.22443" lon="5.61992">
        <ele>720</ele>
        <time>2019-06-17T10:11:59Z</time>
      </trkpt>
      <trkpt lat="44.22447" lon="5.62">
        <ele>720</ele>
        <time>2019-06-17T10:12:00Z</time>
      </trkpt>
      <trkpt lat="44.22451" lon="5.62008">
        <ele>720</ele>
        <time>2019-06-17T10:12:01Z</time>
      </trkpt>
      <trkpt lat="44.22455" lon="5.62016">
        <ele>719</ele>
        <time>2019-06-17T10:12:02Z</time>
      </trkpt>
      <trkpt lat="44.22459" lon="5.62024">
        <ele>719</ele>
        <time>2019-06-17T10:12:03Z</time>
      </trkpt>
      <trkpt lat="44.22463" lon="5.62032">
        <ele>719</ele>
        <time>2019-06-17T10:12:04Z</time>
      </trkpt>
      <trkpt lat="44.22466" lon="5.6204">
        <ele>718</ele>
        <time>2019-06-17T10:12:05Z</time>
      </trkpt>
      <trkpt lat="44.22469" lon="5.62048">
        <ele>718</ele>
        <time>2019-06-17T10:12:06Z</time>
      </trkpt>
      <trkpt lat="44.22472" lon="5.62056">
        <ele>718</ele>
        <time>2019-06-17T10:12:07Z</time>
      </trkpt>
      <trkpt lat="44.22476" lon="5.62064">
        <ele>718</ele>
        <time>2019-06-17T10:12:08Z</time>
      </trkpt>
      <trkpt lat="44.2248" lon="5.62072">
        <ele>718</ele>
        <time>2019-06-17T10:12:09Z</time>
      </trkpt>
      <trkpt lat="44.22483" lon="5.62079">
        <ele>718</ele>
        <time>2019-06-17T10:12:10Z</time>
      </trkpt>
      <trkpt lat="44.22487" lon="5.62087">
        <ele>718</ele>
        <time>2019-06-17T10:12:11Z</time>
      </trkpt>
      <trkpt lat="44.2249" lon="5.62094">
        <ele>718</ele>
        <time>2019-06-17T10:12:12Z</time>
      </trkpt>
      <trkpt lat="44.22493" lon="5.62102">
        <ele>718</ele>
        <time>2019-06-17T10:12:13Z</time>
      </trkpt>
      <trkpt lat="44.22497" lon="5.6211">
        <ele>718</ele>
        <time>2019-06-17T10:12:14Z</time>
      </trkpt>
      <trkpt lat="44.225" lon="5.62117">
        <ele>718</ele>
        <time>2019-06-17T10:12:15Z</time>
      </trkpt>
      <trkpt lat="44.22504" lon="5.62126">
        <ele>717</ele>
        <time>2019-06-17T10:12:16Z</time>
      </trkpt>
      <trkpt lat="44.22507" lon="5.62134">
        <ele>717</ele>
        <time>2019-06-17T10:12:17Z</time>
      </trkpt>
      <trkpt lat="44.22511" lon="5.62143">
        <ele>717</ele>
        <time>2019-06-17T10:12:18Z</time>
      </trkpt>
      <trkpt lat="44.22513" lon="5.62151">
        <ele>717</ele>
        <time>2019-06-17T10:12:19Z</time>
      </trkpt>
      <trkpt lat="44.22515" lon="5.62161">
        <ele>717</ele>
        <time>2019-06-17T10:12:20Z</time>
      </trkpt>
      <trkpt lat="44.22517" lon="5.6217">
        <ele>717</ele>
        <time>2019-06-17T10:12:21Z</time>
      </trkpt>
      <trkpt lat="44.22519" lon="5.62179">
        <ele>717</ele>
        <time>2019-06-17T10:12:22Z</time>
      </trkpt>
      <trkpt lat="44.22521" lon="5.62188">
        <ele>716</ele>
        <time>2019-06-17T10:12:23Z</time>
      </trkpt>
      <trkpt lat="44.22522" lon="5.62198">
        <ele>716</ele>
        <time>2019-06-17T10:12:24Z</time>
      </trkpt>
      <trkpt lat="44.22523" lon="5.62208">
        <ele>716</ele>
        <time>2019-06-17T10:12:25Z</time>
      </trkpt>
      <trkpt lat="44.22523" lon="5.62217">
        <ele>716</ele>
        <time>2019-06-17T10:12:26Z</time>
      </trkpt>
      <trkpt lat="44.22523" lon="5.62226">
        <ele>716</ele>
        <time>2019-06-17T10:12:27Z</time>
      </trkpt>
      <trkpt lat="44.22524" lon="5.62236">
        <ele>716</ele>
        <time>2019-06-17T10:12:28Z</time>
      </trkpt>
      <trkpt lat="44.22524" lon="5.62245">
        <ele>715</ele>
        <time>2019-06-17T10:12:29Z</time>
      </trkpt>
      <trkpt lat="44.22525" lon="5.62254">
        <ele>715</ele>
        <time>2019-06-17T10:12:30Z</time>
      </trkpt>
      <trkpt lat="44.22525" lon="5.62263">
        <ele>715</ele>
        <time>2019-06-17T10:12:31Z</time>
      </trkpt>
      <trkpt lat="44.22526" lon="5.62272">
        <ele>715</ele>
        <time>2019-06-17T10:12:32Z</time>
      </trkpt>
      <trkpt lat="44.22526" lon="5.62282">
        <ele>715</ele>
        <time>2019-06-17T10:12:33Z</time>
      </trkpt>
      <trkpt lat="44.22527" lon="5.62291">
        <ele>715</ele>
        <time>2019-06-17T10:12:34Z</time>
      </trkpt>
      <trkpt lat="44.22528" lon="5.623">
        <ele>715</ele>
        <time>2019-06-17T10:12:35Z</time>
      </trkpt>
      <trkpt lat="44.2253" lon="5.62309">
        <ele>715</ele>
        <time>2019-06-17T10:12:36Z</time>
      </trkpt>
      <trkpt lat="44.22532" lon="5.62318">
        <ele>715</ele>
        <time>2019-06-17T10:12:37Z</time>
      </trkpt>
      <trkpt lat="44.22534" lon="5.62327">
        <ele>715</ele>
        <time>2019-06-17T10:12:38Z</time>
      </trkpt>
      <trkpt lat="44.22536" lon="5.62335">
        <ele>715</ele>
        <time>2019-06-17T10:12:39Z</time>
      </trkpt>
      <trkpt lat="44.22538" lon="5.62345">
        <ele>715</ele>
        <time>2019-06-17T10:12:40Z</time>
      </trkpt>
      <trkpt lat="44.22541" lon="5.62353">
        <ele>715</ele>
        <time>2019-06-17T10:12:41Z</time>
      </trkpt>
      <trkpt lat="44.22543" lon="5.62362">
        <ele>715</ele>
        <time>2019-06-17T10:12:42Z</time>
      </trkpt>
      <trkpt lat="44.22546" lon="5.6237">
        <ele>715</ele>
        <time>2019-06-17T10:12:43Z</time>
      </trkpt>
      <trkpt lat="44.22549" lon="5.62377">
        <ele>715</ele>
        <time>2019-06-17T10:12:44Z</time>
      </trkpt>
      <trkpt lat="44.22552" lon="5.62384">
        <ele>715</ele>
        <time>2019-06-17T10:12:45Z</time>
      </trkpt>
      <trkpt lat="44.22555" lon="5.62391">
        <ele>715</ele>
        <time>2019-06-17T10:12:46Z</time>
      </trkpt>
      <trkpt lat="44.22558" lon="5.62398">
        <ele>715</ele>
        <time>2019-06-17T10:12:47Z</time>
      </trkpt>
      <trkpt lat="44.22561" lon="5.62405">
        <ele>715</ele>
        <time>2019-06-17T10:12:48Z</time>
      </trkpt>
      <trkpt lat="44.22564" lon="5.62412">
        <ele>715</ele>
        <time>2019-06-17T10:12:49Z</time>
      </trkpt>
      <trkpt lat="44.22568" lon="5.62419">
        <ele>715</ele>
        <time>2019-06-17T10:12:50Z</time>
      </trkpt>
      <trkpt lat="44.22571" lon="5.62427">
        <ele>715</ele>
        <time>2019-06-17T10:12:51Z</time>
      </trkpt>
      <trkpt lat="44.22575" lon="5.62434">
        <ele>715</ele>
        <time>2019-06-17T10:12:52Z</time>
      </trkpt>
      <trkpt lat="44.22578" lon="5.62441">
        <ele>715</ele>
        <time>2019-06-17T10:12:53Z</time>
      </trkpt>
      <trkpt lat="44.22582" lon="5.62449">
        <ele>715</ele>
        <time>2019-06-17T10:12:54Z</time>
      </trkpt>
      <trkpt lat="44.22586" lon="5.62456">
        <ele>715</ele>
        <time>2019-06-17T10:12:55Z</time>
      </trkpt>
      <trkpt lat="44.22589" lon="5.62463">
        <ele>715</ele>
        <time>2019-06-17T10:12:56Z</time>
      </trkpt>
      <trkpt lat="44.22593" lon="5.6247">
        <ele>715</ele>
        <time>2019-06-17T10:12:57Z</time>
      </trkpt>
      <trkpt lat="44.22596" lon="5.62477">
        <ele>715</ele>
        <time>2019-06-17T10:12:58Z</time>
      </trkpt>
      <trkpt lat="44.226" lon="5.62484">
        <ele>715</ele>
        <time>2019-06-17T10:12:59Z</time>
      </trkpt>
      <trkpt lat="44.22604" lon="5.6249">
        <ele>715</ele>
        <time>2019-06-17T10:13:00Z</time>
      </trkpt>
      <trkpt lat="44.22609" lon="5.62498">
        <ele>715</ele>
        <time>2019-06-17T10:13:01Z</time>
      </trkpt>
      <trkpt lat="44.22614" lon="5.62505">
        <ele>715</ele>
        <time>2019-06-17T10:13:02Z</time>
      </trkpt>
      <trkpt lat="44.22618" lon="5.62512">
        <ele>715</ele>
        <time>2019-06-17T10:13:03Z</time>
      </trkpt>
      <trkpt lat="44.22623" lon="5.6252">
        <ele>715</ele>
        <time>2019-06-17T10:13:04Z</time>
      </trkpt>
      <trkpt lat="44.22627" lon="5.62527">
        <ele>715</ele>
        <time>2019-06-17T10:13:05Z</time>
      </trkpt>
      <trkpt lat="44.22632" lon="5.62534">
        <ele>715</ele>
        <time>2019-06-17T10:13:06Z</time>
      </trkpt>
      <trkpt lat="44.22636" lon="5.62541">
        <ele>715</ele>
        <time>2019-06-17T10:13:07Z</time>
      </trkpt>
      <trkpt lat="44.22641" lon="5.62548">
        <ele>715</ele>
        <time>2019-06-17T10:13:08Z</time>
      </trkpt>
      <trkpt lat="44.22645" lon="5.62556">
        <ele>714</ele>
        <time>2019-06-17T10:13:09Z</time>
      </trkpt>
      <trkpt lat="44.2265" lon="5.62563">
        <ele>714</ele>
        <time>2019-06-17T10:13:10Z</time>
      </trkpt>
      <trkpt lat="44.22655" lon="5.6257">
        <ele>714</ele>
        <time>2019-06-17T10:13:11Z</time>
      </trkpt>
      <trkpt lat="44.2266" lon="5.62578">
        <ele>714</ele>
        <time>2019-06-17T10:13:12Z</time>
      </trkpt>
      <trkpt lat="44.22664" lon="5.62585">
        <ele>714</ele>
        <time>2019-06-17T10:13:13Z</time>
      </trkpt>
      <trkpt lat="44.22669" lon="5.62593">
        <ele>714</ele>
        <time>2019-06-17T10:13:14Z</time>
      </trkpt>
      <trkpt lat="44.22674" lon="5.62601">
        <ele>714</ele>
        <time>2019-06-17T10:13:15Z</time>
      </trkpt>
      <trkpt lat="44.22679" lon="5.62608">
        <ele>714</ele>
        <time>2019-06-17T10:13:16Z</time>
      </trkpt>
      <trkpt lat="44.22684" lon="5.62616">
        <ele>714</ele>
        <time>2019-06-17T10:13:17Z</time>
      </trkpt>
      <trkpt lat="44.22688" lon="5.62624">
        <ele>714</ele>
        <time>2019-06-17T10:13:18Z</time>
      </trkpt>
      <trkpt lat="44.22693" lon="5.62632">
        <ele>714</ele>
        <time>2019-06-17T10:13:19Z</time>
      </trkpt>
      <trkpt lat="44.22697" lon="5.62639">
        <ele>714</ele>
        <time>2019-06-17T10:13:20Z</time>
      </trkpt>
      <trkpt lat="44.22702" lon="5.62647">
        <ele>714</ele>
        <time>2019-06-17T10:13:21Z</time>
      </trkpt>
      <trkpt lat="44.22706" lon="5.62654">
        <ele>714</ele>
        <time>2019-06-17T10:13:22Z</time>
      </trkpt>
      <trkpt lat="44.2271" lon="5.62662">
        <ele>714</ele>
        <time>2019-06-17T10:13:23Z</time>
      </trkpt>
      <trkpt lat="44.22715" lon="5.6267">
        <ele>714</ele>
        <time>2019-06-17T10:13:24Z</time>
      </trkpt>
      <trkpt lat="44.2272" lon="5.62677">
        <ele>714</ele>
        <time>2019-06-17T10:13:25Z</time>
      </trkpt>
      <trkpt lat="44.22724" lon="5.62685">
        <ele>714</ele>
        <time>2019-06-17T10:13:26Z</time>
      </trkpt>
      <trkpt lat="44.22729" lon="5.62693">
        <ele>714</ele>
        <time>2019-06-17T10:13:27Z</time>
      </trkpt>
      <trkpt lat="44.22734" lon="5.62702">
        <ele>714</ele>
        <time>2019-06-17T10:13:28Z</time>
      </trkpt>
      <trkpt lat="44.22739" lon="5.6271">
        <ele>714</ele>
        <time>2019-06-17T10:13:29Z</time>
      </trkpt>
      <trkpt lat="44.22744" lon="5.62717">
        <ele>714</ele>
        <time>2019-06-17T10:13:30Z</time>
      </trkpt>
      <trkpt lat="44.22749" lon="5.62725">
        <ele>714</ele>
        <time>2019-06-17T10:13:31Z</time>
      </trkpt>
      <trkpt lat="44.22755" lon="5.62732">
        <ele>714</ele>
        <time>2019-06-17T10:13:32Z</time>
      </trkpt>
      <trkpt lat="44.2276" lon="5.62739">
        <ele>714</ele>
        <time>2019-06-17T10:13:33Z</time>
      </trkpt>
      <trkpt lat="44.22765" lon="5.62746">
        <ele>714</ele>
        <time>2019-06-17T10:13:34Z</time>
      </trkpt>
      <trkpt lat="44.22771" lon="5.62752">
        <ele>714</ele>
        <time>2019-06-17T10:13:35Z</time>
      </trkpt>
      <trkpt lat="44.22777" lon="5.62758">
        <ele>713</ele>
        <time>2019-06-17T10:13:36Z</time>
      </trkpt>
      <trkpt lat="44.22783" lon="5.62764">
        <ele>712</ele>
        <time>2019-06-17T10:13:37Z</time>
      </trkpt>
      <trkpt lat="44.22789" lon="5.6277">
        <ele>711</ele>
        <time>2019-06-17T10:13:38Z</time>
      </trkpt>
      <trkpt lat="44.22794" lon="5.62776">
        <ele>710</ele>
        <time>2019-06-17T10:13:39Z</time>
      </trkpt>
      <trkpt lat="44.228" lon="5.62782">
        <ele>709</ele>
        <time>2019-06-17T10:13:40Z</time>
      </trkpt>
      <trkpt lat="44.22805" lon="5.62788">
        <ele>708</ele>
        <time>2019-06-17T10:13:41Z</time>
      </trkpt>
      <trkpt lat="44.22812" lon="5.62795">
        <ele>707</ele>
        <time>2019-06-17T10:13:42Z</time>
      </trkpt>
      <trkpt lat="44.22818" lon="5.62802">
        <ele>706</ele>
        <time>2019-06-17T10:13:43Z</time>
      </trkpt>
      <trkpt lat="44.22824" lon="5.62809">
        <ele>705</ele>
        <time>2019-06-17T10:13:44Z</time>
      </trkpt>
      <trkpt lat="44.22831" lon="5.62817">
        <ele>704</ele>
        <time>2019-06-17T10:13:45Z</time>
      </trkpt>
      <trkpt lat="44.22838" lon="5.62825">
        <ele>703</ele>
        <time>2019-06-17T10:13:46Z</time>
      </trkpt>
      <trkpt lat="44.22845" lon="5.62833">
        <ele>702</ele>
        <time>2019-06-17T10:13:47Z</time>
      </trkpt>
      <trkpt lat="44.22851" lon="5.62842">
        <ele>701</ele>
        <time>2019-06-17T10:13:48Z</time>
      </trkpt>
      <trkpt lat="44.22858" lon="5.62851">
        <ele>700</ele>
        <time>2019-06-17T10:13:49Z</time>
      </trkpt>
      <trkpt lat="44.22864" lon="5.62858">
        <ele>699</ele>
        <time>2019-06-17T10:13:50Z</time>
      </trkpt>
      <trkpt lat="44.22871" lon="5.62867">
        <ele>699</ele>
        <time>2019-06-17T10:13:51Z</time>
      </trkpt>
      <trkpt lat="44.22878" lon="5.62876">
        <ele>698</ele>
        <time>2019-06-17T10:13:52Z</time>
      </trkpt>
      <trkpt lat="44.22886" lon="5.62885">
        <ele>698</ele>
        <time>2019-06-17T10:13:53Z</time>
      </trkpt>
      <trkpt lat="44.22893" lon="5.62893">
        <ele>698</ele>
        <time>2019-06-17T10:13:54Z</time>
      </trkpt>
      <trkpt lat="44.22901" lon="5.62901">
        <ele>698</ele>
        <time>2019-06-17T10:13:55Z</time>
      </trkpt>
      <trkpt lat="44.22909" lon="5.62911">
        <ele>698</ele>
        <time>2019-06-17T10:13:56Z</time>
      </trkpt>
      <trkpt lat="44.22919" lon="5.6292">
        <ele>698</ele>
        <time>2019-06-17T10:13:57Z</time>
      </trkpt>
      <trkpt lat="44.22928" lon="5.62929">
        <ele>698</ele>
        <time>2019-06-17T10:13:58Z</time>
      </trkpt>
      <trkpt lat="44.22936" lon="5.62937">
        <ele>698</ele>
        <time>2019-06-17T10:13:59Z</time>
      </trkpt>
      <trkpt lat="44.22946" lon="5.62945">
        <ele>698</ele>
        <time>2019-06-17T10:14:00Z</time>
      </trkpt>
      <trkpt lat="44.22955" lon="5.62952">
        <ele>697</ele>
        <time>2019-06-17T10:14:01Z</time>
      </trkpt>
      <trkpt lat="44.22964" lon="5.62957">
        <ele>696</ele>
        <time>2019-06-17T10:14:02Z</time>
      </trkpt>
      <trkpt lat="44.22974" lon="5.62962">
        <ele>695</ele>
        <time>2019-06-17T10:14:03Z</time>
      </trkpt>
      <trkpt lat="44.22983" lon="5.62969">
        <ele>694</ele>
        <time>2019-06-17T10:14:04Z</time>
      </trkpt>
      <trkpt lat="44.22993" lon="5.62977">
        <ele>693</ele>
        <time>2019-06-17T10:14:05Z</time>
      </trkpt>
      <trkpt lat="44.23002" lon="5.62986">
        <ele>692</ele>
        <time>2019-06-17T10:14:06Z</time>
      </trkpt>
      <trkpt lat="44.23012" lon="5.62996">
        <ele>691</ele>
        <time>2019-06-17T10:14:07Z</time>
      </trkpt>
      <trkpt lat="44.23022" lon="5.63007">
        <ele>690</ele>
        <time>2019-06-17T10:14:08Z</time>
      </trkpt>
      <trkpt lat="44.23031" lon="5.63019">
        <ele>690</ele>
        <time>2019-06-17T10:14:09Z</time>
      </trkpt>
      <trkpt lat="44.2304" lon="5.63029">
        <ele>690</ele>
        <time>2019-06-17T10:14:10Z</time>
      </trkpt>
      <trkpt lat="44.2305" lon="5.63039">
        <ele>690</ele>
        <time>2019-06-17T10:14:11Z</time>
      </trkpt>
      <trkpt lat="44.23061" lon="5.63048">
        <ele>690</ele>
        <time>2019-06-17T10:14:12Z</time>
      </trkpt>
      <trkpt lat="44.23072" lon="5.63056">
        <ele>690</ele>
        <time>2019-06-17T10:14:13Z</time>
      </trkpt>
      <trkpt lat="44.23084" lon="5.63062">
        <ele>690</ele>
        <time>2019-06-17T10:14:14Z</time>
      </trkpt>
      <trkpt lat="44.23096" lon="5.63068">
        <ele>690</ele>
        <time>2019-06-17T10:14:15Z</time>
      </trkpt>
      <trkpt lat="44.23108" lon="5.63073">
        <ele>690</ele>
        <time>2019-06-17T10:14:16Z</time>
      </trkpt>
      <trkpt lat="44.23119" lon="5.63076">
        <ele>690</ele>
        <time>2019-06-17T10:14:17Z</time>
      </trkpt>
      <trkpt lat="44.2313" lon="5.63078">
        <ele>691</ele>
        <time>2019-06-17T10:14:18Z</time>
      </trkpt>
      <trkpt lat="44.23141" lon="5.63081">
        <ele>691</ele>
        <time>2019-06-17T10:14:19Z</time>
      </trkpt>
      <trkpt lat="44.23152" lon="5.63083">
        <ele>691</ele>
        <time>2019-06-17T10:14:20Z</time>
      </trkpt>
      <trkpt lat="44.23162" lon="5.63086">
        <ele>691</ele>
        <time>2019-06-17T10:14:21Z</time>
      </trkpt>
      <trkpt lat="44.23173" lon="5.63089">
        <ele>691</ele>
        <time>2019-06-17T10:14:22Z</time>
      </trkpt>
      <trkpt lat="44.23183" lon="5.63091">
        <ele>691</ele>
        <time>2019-06-17T10:14:23Z</time>
      </trkpt>
      <trkpt lat="44.23193" lon="5.63093">
        <ele>691</ele>
        <time>2019-06-17T10:14:25Z</time>
      </trkpt>
      <trkpt lat="44.23203" lon="5.63096">
        <ele>691</ele>
        <time>2019-06-17T10:14:25Z</time>
      </trkpt>
      <trkpt lat="44.23212" lon="5.63098">
        <ele>691</ele>
        <time>2019-06-17T10:14:26Z</time>
      </trkpt>
      <trkpt lat="44.23222" lon="5.63101">
        <ele>691</ele>
        <time>2019-06-17T10:14:27Z</time>
      </trkpt>
      <trkpt lat="44.23231" lon="5.63103">
        <ele>692</ele>
        <time>2019-06-17T10:14:28Z</time>
      </trkpt>
      <trkpt lat="44.2324" lon="5.63105">
        <ele>692</ele>
        <time>2019-06-17T10:14:29Z</time>
      </trkpt>
      <trkpt lat="44.23249" lon="5.63108">
        <ele>692</ele>
        <time>2019-06-17T10:14:30Z</time>
      </trkpt>
      <trkpt lat="44.23259" lon="5.6311">
        <ele>692</ele>
        <time>2019-06-17T10:14:31Z</time>
      </trkpt>
      <trkpt lat="44.23268" lon="5.63112">
        <ele>692</ele>
        <time>2019-06-17T10:14:32Z</time>
      </trkpt>
      <trkpt lat="44.23277" lon="5.63114">
        <ele>692</ele>
        <time>2019-06-17T10:14:33Z</time>
      </trkpt>
      <trkpt lat="44.23286" lon="5.63117">
        <ele>692</ele>
        <time>2019-06-17T10:14:34Z</time>
      </trkpt>
      <trkpt lat="44.23296" lon="5.63119">
        <ele>692</ele>
        <time>2019-06-17T10:14:35Z</time>
      </trkpt>
      <trkpt lat="44.23305" lon="5.63122">
        <ele>692</ele>
        <time>2019-06-17T10:14:36Z</time>
      </trkpt>
      <trkpt lat="44.23314" lon="5.63124">
        <ele>692</ele>
        <time>2019-06-17T10:14:37Z</time>
      </trkpt>
      <trkpt lat="44.23323" lon="5.63127">
        <ele>693</ele>
        <time>2019-06-17T10:14:38Z</time>
      </trkpt>
      <trkpt lat="44.23333" lon="5.63129">
        <ele>694</ele>
        <time>2019-06-17T10:14:39Z</time>
      </trkpt>
      <trkpt lat="44.23341" lon="5.63131">
        <ele>694</ele>
        <time>2019-06-17T10:14:40Z</time>
      </trkpt>
      <trkpt lat="44.2335" lon="5.63133">
        <ele>695</ele>
        <time>2019-06-17T10:14:41Z</time>
      </trkpt>
      <trkpt lat="44.23359" lon="5.63135">
        <ele>695</ele>
        <time>2019-06-17T10:14:42Z</time>
      </trkpt>
      <trkpt lat="44.23367" lon="5.63137">
        <ele>695</ele>
        <time>2019-06-17T10:14:43Z</time>
      </trkpt>
      <trkpt lat="44.23375" lon="5.63138">
        <ele>695</ele>
        <time>2019-06-17T10:14:44Z</time>
      </trkpt>
      <trkpt lat="44.23383" lon="5.6314">
        <ele>695</ele>
        <time>2019-06-17T10:14:45Z</time>
      </trkpt>
      <trkpt lat="44.23392" lon="5.63142">
        <ele>695</ele>
        <time>2019-06-17T10:14:46Z</time>
      </trkpt>
      <trkpt lat="44.234" lon="5.63144">
        <ele>695</ele>
        <time>2019-06-17T10:14:47Z</time>
      </trkpt>
      <trkpt lat="44.23408" lon="5.63146">
        <ele>695</ele>
        <time>2019-06-17T10:14:48Z</time>
      </trkpt>
      <trkpt lat="44.23416" lon="5.63148">
        <ele>695</ele>
        <time>2019-06-17T10:14:49Z</time>
      </trkpt>
      <trkpt lat="44.23424" lon="5.6315">
        <ele>695</ele>
        <time>2019-06-17T10:14:50Z</time>
      </trkpt>
      <trkpt lat="44.23431" lon="5.63152">
        <ele>695</ele>
        <time>2019-06-17T10:14:51Z</time>
      </trkpt>
      <trkpt lat="44.23439" lon="5.63154">
        <ele>695</ele>
        <time>2019-06-17T10:14:52Z</time>
      </trkpt>
      <trkpt lat="44.23447" lon="5.63156">
        <ele>695</ele>
        <time>2019-06-17T10:14:53Z</time>
      </trkpt>
      <trkpt lat="44.23454" lon="5.63157">
        <ele>695</ele>
        <time>2019-06-17T10:14:54Z</time>
      </trkpt>
      <trkpt lat="44.23461" lon="5.63159">
        <ele>695</ele>
        <time>2019-06-17T10:14:55Z</time>
      </trkpt>
      <trkpt lat="44.23468" lon="5.63161">
        <ele>695</ele>
        <time>2019-06-17T10:14:56Z</time>
      </trkpt>
      <trkpt lat="44.23475" lon="5.63162">
        <ele>695</ele>
        <time>2019-06-17T10:14:57Z</time>
      </trkpt>
      <trkpt lat="44.23482" lon="5.63164">
        <ele>695</ele>
        <time>2019-06-17T10:14:58Z</time>
      </trkpt>
      <trkpt lat="44.23488" lon="5.63165">
        <ele>695</ele>
        <time>2019-06-17T10:14:59Z</time>
      </trkpt>
      <trkpt lat="44.23494" lon="5.63166">
        <ele>695</ele>
        <time>2019-06-17T10:15:00Z</time>
      </trkpt>
      <trkpt lat="44.23501" lon="5.63167">
        <ele>695</ele>
        <time>2019-06-17T10:15:01Z</time>
      </trkpt>
      <trkpt lat="44.23507" lon="5.63168">
        <ele>695</ele>
        <time>2019-06-17T10:15:02Z</time>
      </trkpt>
      <trkpt lat="44.23513" lon="5.6317">
        <ele>694</ele>
        <time>2019-06-17T10:15:03Z</time>
      </trkpt>
      <trkpt lat="44.2352" lon="5.63172">
        <ele>694</ele>
        <time>2019-06-17T10:15:04Z</time>
      </trkpt>
      <trkpt lat="44.23526" lon="5.63173">
        <ele>693</ele>
        <time>2019-06-17T10:15:05Z</time>
      </trkpt>
      <trkpt lat="44.23532" lon="5.63174">
        <ele>693</ele>
        <time>2019-06-17T10:15:06Z</time>
      </trkpt>
      <trkpt lat="44.23539" lon="5.63176">
        <ele>692</ele>
        <time>2019-06-17T10:15:07Z</time>
      </trkpt>
      <trkpt lat="44.23546" lon="5.63177">
        <ele>691</ele>
        <time>2019-06-17T10:15:08Z</time>
      </trkpt>
      <trkpt lat="44.23554" lon="5.63179">
        <ele>691</ele>
        <time>2019-06-17T10:15:09Z</time>
      </trkpt>
      <trkpt lat="44.23561" lon="5.63181">
        <ele>691</ele>
        <time>2019-06-17T10:15:10Z</time>
      </trkpt>
      <trkpt lat="44.23569" lon="5.63183">
        <ele>691</ele>
        <time>2019-06-17T10:15:11Z</time>
      </trkpt>
      <trkpt lat="44.23576" lon="5.63185">
        <ele>691</ele>
        <time>2019-06-17T10:15:12Z</time>
      </trkpt>
      <trkpt lat="44.23584" lon="5.63187">
        <ele>690</ele>
        <time>2019-06-17T10:15:13Z</time>
      </trkpt>
      <trkpt lat="44.23592" lon="5.63189">
        <ele>690</ele>
        <time>2019-06-17T10:15:14Z</time>
      </trkpt>
      <trkpt lat="44.236" lon="5.6319">
        <ele>690</ele>
        <time>2019-06-17T10:15:15Z</time>
      </trkpt>
      <trkpt lat="44.23608" lon="5.63192">
        <ele>690</ele>
        <time>2019-06-17T10:15:16Z</time>
      </trkpt>
      <trkpt lat="44.23616" lon="5.63194">
        <ele>690</ele>
        <time>2019-06-17T10:15:17Z</time>
      </trkpt>
      <trkpt lat="44.23624" lon="5.63196">
        <ele>690</ele>
        <time>2019-06-17T10:15:18Z</time>
      </trkpt>
      <trkpt lat="44.23632" lon="5.63198">
        <ele>690</ele>
        <time>2019-06-17T10:15:19Z</time>
      </trkpt>
      <trkpt lat="44.2364" lon="5.632">
        <ele>690</ele>
        <time>2019-06-17T10:15:20Z</time>
      </trkpt>
      <trkpt lat="44.23648" lon="5.63202">
        <ele>690</ele>
        <time>2019-06-17T10:15:21Z</time>
      </trkpt>
      <trkpt lat="44.23656" lon="5.63203">
        <ele>690</ele>
        <time>2019-06-17T10:15:22Z</time>
      </trkpt>
      <trkpt lat="44.23663" lon="5.63205">
        <ele>690</ele>
        <time>2019-06-17T10:15:23Z</time>
      </trkpt>
      <trkpt lat="44.23671" lon="5.63208">
        <ele>690</ele>
        <time>2019-06-17T10:15:24Z</time>
      </trkpt>
      <trkpt lat="44.23679" lon="5.63209">
        <ele>690</ele>
        <time>2019-06-17T10:15:25Z</time>
      </trkpt>
      <trkpt lat="44.23686" lon="5.63211">
        <ele>690</ele>
        <time>2019-06-17T10:15:26Z</time>
      </trkpt>
      <trkpt lat="44.23693" lon="5.63213">
        <ele>690</ele>
        <time>2019-06-17T10:15:27Z</time>
      </trkpt>
      <trkpt lat="44.237" lon="5.63215">
        <ele>691</ele>
        <time>2019-06-17T10:15:28Z</time>
      </trkpt>
      <trkpt lat="44.23707" lon="5.63218">
        <ele>691</ele>
        <time>2019-06-17T10:15:29Z</time>
      </trkpt>
      <trkpt lat="44.23714" lon="5.63221">
        <ele>692</ele>
        <time>2019-06-17T10:15:30Z</time>
      </trkpt>
      <trkpt lat="44.23721" lon="5.63225">
        <ele>692</ele>
        <time>2019-06-17T10:15:31Z</time>
      </trkpt>
      <trkpt lat="44.23728" lon="5.63228">
        <ele>692</ele>
        <time>2019-06-17T10:15:32Z</time>
      </trkpt>
      <trkpt lat="44.23735" lon="5.63232">
        <ele>693</ele>
        <time>2019-06-17T10:15:33Z</time>
      </trkpt>
      <trkpt lat="44.23742" lon="5.63236">
        <ele>693</ele>
        <time>2019-06-17T10:15:34Z</time>
      </trkpt>
      <trkpt lat="44.23748" lon="5.6324">
        <ele>693</ele>
        <time>2019-06-17T10:15:35Z</time>
      </trkpt>
      <trkpt lat="44.23756" lon="5.63244">
        <ele>693</ele>
        <time>2019-06-17T10:15:36Z</time>
      </trkpt>
      <trkpt lat="44.23763" lon="5.63249">
        <ele>693</ele>
        <time>2019-06-17T10:15:37Z</time>
      </trkpt>
      <trkpt lat="44.2377" lon="5.63254">
        <ele>693</ele>
        <time>2019-06-17T10:15:38Z</time>
      </trkpt>
      <trkpt lat="44.23777" lon="5.6326">
        <ele>693</ele>
        <time>2019-06-17T10:15:39Z</time>
      </trkpt>
      <trkpt lat="44.23784" lon="5.63266">
        <ele>693</ele>
        <time>2019-06-17T10:15:40Z</time>
      </trkpt>
      <trkpt lat="44.23791" lon="5.63272">
        <ele>693</ele>
        <time>2019-06-17T10:15:41Z</time>
      </trkpt>
      <trkpt lat="44.23798" lon="5.63279">
        <ele>693</ele>
        <time>2019-06-17T10:15:42Z</time>
      </trkpt>
      <trkpt lat="44.23805" lon="5.63286">
        <ele>693</ele>
        <time>2019-06-17T10:15:43Z</time>
      </trkpt>
      <trkpt lat="44.23811" lon="5.63293">
        <ele>693</ele>
        <time>2019-06-17T10:15:44Z</time>
      </trkpt>
      <trkpt lat="44.23818" lon="5.633">
        <ele>693</ele>
        <time>2019-06-17T10:15:45Z</time>
      </trkpt>
      <trkpt lat="44.23824" lon="5.63307">
        <ele>693</ele>
        <time>2019-06-17T10:15:46Z</time>
      </trkpt>
      <trkpt lat="44.2383" lon="5.63313">
        <ele>693</ele>
        <time>2019-06-17T10:15:47Z</time>
      </trkpt>
      <trkpt lat="44.23837" lon="5.6332">
        <ele>693</ele>
        <time>2019-06-17T10:15:48Z</time>
      </trkpt>
      <trkpt lat="44.23843" lon="5.63327">
        <ele>693</ele>
        <time>2019-06-17T10:15:49Z</time>
      </trkpt>
      <trkpt lat="44.2385" lon="5.63334">
        <ele>693</ele>
        <time>2019-06-17T10:15:50Z</time>
      </trkpt>
      <trkpt lat="44.23856" lon="5.63341">
        <ele>693</ele>
        <time>2019-06-17T10:15:51Z</time>
      </trkpt>
      <trkpt lat="44.23862" lon="5.63347">
        <ele>693</ele>
        <time>2019-06-17T10:15:52Z</time>
      </trkpt>
      <trkpt lat="44.23869" lon="5.63354">
        <ele>693</ele>
        <time>2019-06-17T10:15:53Z</time>
      </trkpt>
      <trkpt lat="44.23875" lon="5.63361">
        <ele>693</ele>
        <time>2019-06-17T10:15:54Z</time>
      </trkpt>
      <trkpt lat="44.23882" lon="5.63368">
        <ele>693</ele>
        <time>2019-06-17T10:15:55Z</time>
      </trkpt>
      <trkpt lat="44.23888" lon="5.63374">
        <ele>693</ele>
        <time>2019-06-17T10:15:56Z</time>
      </trkpt>
      <trkpt lat="44.23895" lon="5.63381">
        <ele>693</ele>
        <time>2019-06-17T10:15:57Z</time>
      </trkpt>
      <trkpt lat="44.23901" lon="5.63388">
        <ele>693</ele>
        <time>2019-06-17T10:15:58Z</time>
      </trkpt>
      <trkpt lat="44.23909" lon="5.63396">
        <ele>693</ele>
        <time>2019-06-17T10:15:59Z</time>
      </trkpt>
      <trkpt lat="44.23917" lon="5.63402">
        <ele>693</ele>
        <time>2019-06-17T10:16:00Z</time>
      </trkpt>
      <trkpt lat="44.23923" lon="5.63409">
        <ele>693</ele>
        <time>2019-06-17T10:16:01Z</time>
      </trkpt>
      <trkpt lat="44.2393" lon="5.63416">
        <ele>693</ele>
        <time>2019-06-17T10:16:02Z</time>
      </trkpt>
      <trkpt lat="44.23937" lon="5.63423">
        <ele>693</ele>
        <time>2019-06-17T10:16:03Z</time>
      </trkpt>
      <trkpt lat="44.23944" lon="5.63431">
        <ele>693</ele>
        <time>2019-06-17T10:16:04Z</time>
      </trkpt>
      <trkpt lat="44.23951" lon="5.63437">
        <ele>693</ele>
        <time>2019-06-17T10:16:05Z</time>
      </trkpt>
      <trkpt lat="44.23958" lon="5.63444">
        <ele>693</ele>
        <time>2019-06-17T10:16:06Z</time>
      </trkpt>
      <trkpt lat="44.23965" lon="5.63452">
        <ele>693</ele>
        <time>2019-06-17T10:16:07Z</time>
      </trkpt>
      <trkpt lat="44.23972" lon="5.63459">
        <ele>693</ele>
        <time>2019-06-17T10:16:08Z</time>
      </trkpt>
      <trkpt lat="44.23978" lon="5.63465">
        <ele>693</ele>
        <time>2019-06-17T10:16:09Z</time>
      </trkpt>
      <trkpt lat="44.23985" lon="5.63472">
        <ele>693</ele>
        <time>2019-06-17T10:16:10Z</time>
      </trkpt>
      <trkpt lat="44.23992" lon="5.63479">
        <ele>693</ele>
        <time>2019-06-17T10:16:11Z</time>
      </trkpt>
      <trkpt lat="44.23998" lon="5.63485">
        <ele>693</ele>
        <time>2019-06-17T10:16:12Z</time>
      </trkpt>
      <trkpt lat="44.24005" lon="5.63492">
        <ele>693</ele>
        <time>2019-06-17T10:16:13Z</time>
      </trkpt>
      <trkpt lat="44.24012" lon="5.63499">
        <ele>693</ele>
        <time>2019-06-17T10:16:14Z</time>
      </trkpt>
      <trkpt lat="44.24018" lon="5.63506">
        <ele>693</ele>
        <time>2019-06-17T10:16:15Z</time>
      </trkpt>
      <trkpt lat="44.24025" lon="5.63513">
        <ele>693</ele>
        <time>2019-06-17T10:16:16Z</time>
      </trkpt>
      <trkpt lat="44.24031" lon="5.63519">
        <ele>693</ele>
        <time>2019-06-17T10:16:17Z</time>
      </trkpt>
      <trkpt lat="44.24036" lon="5.63525">
        <ele>693</ele>
        <time>2019-06-17T10:16:18Z</time>
      </trkpt>
      <trkpt lat="44.24042" lon="5.63531">
        <ele>693</ele>
        <time>2019-06-17T10:16:19Z</time>
      </trkpt>
      <trkpt lat="44.24049" lon="5.63538">
        <ele>693</ele>
        <time>2019-06-17T10:16:20Z</time>
      </trkpt>
      <trkpt lat="44.24056" lon="5.63545">
        <ele>693</ele>
        <time>2019-06-17T10:16:21Z</time>
      </trkpt>
      <trkpt lat="44.24063" lon="5.63552">
        <ele>693</ele>
        <time>2019-06-17T10:16:22Z</time>
      </trkpt>
      <trkpt lat="44.24069" lon="5.63558">
        <ele>693</ele>
        <time>2019-06-17T10:16:23Z</time>
      </trkpt>
      <trkpt lat="44.24075" lon="5.63564">
        <ele>693</ele>
        <time>2019-06-17T10:16:24Z</time>
      </trkpt>
      <trkpt lat="44.24081" lon="5.63571">
        <ele>693</ele>
        <time>2019-06-17T10:16:25Z</time>
      </trkpt>
      <trkpt lat="44.24086" lon="5.63577">
        <ele>693</ele>
        <time>2019-06-17T10:16:26Z</time>
      </trkpt>
      <trkpt lat="44.24092" lon="5.63583">
        <ele>693</ele>
        <time>2019-06-17T10:16:27Z</time>
      </trkpt>
      <trkpt lat="44.24097" lon="5.63589">
        <ele>693</ele>
        <time>2019-06-17T10:16:28Z</time>
      </trkpt>
      <trkpt lat="44.24102" lon="5.63595">
        <ele>693</ele>
        <time>2019-06-17T10:16:29Z</time>
      </trkpt>
      <trkpt lat="44.24107" lon="5.63601">
        <ele>693</ele>
        <time>2019-06-17T10:16:30Z</time>
      </trkpt>
      <trkpt lat="44.24112" lon="5.63608">
        <ele>693</ele>
        <time>2019-06-17T10:16:31Z</time>
      </trkpt>
      <trkpt lat="44.24117" lon="5.63615">
        <ele>693</ele>
        <time>2019-06-17T10:16:32Z</time>
      </trkpt>
      <trkpt lat="44.24121" lon="5.63622">
        <ele>693</ele>
        <time>2019-06-17T10:16:33Z</time>
      </trkpt>
      <trkpt lat="44.24126" lon="5.6363">
        <ele>693</ele>
        <time>2019-06-17T10:16:34Z</time>
      </trkpt>
      <trkpt lat="44.2413" lon="5.63638">
        <ele>693</ele>
        <time>2019-06-17T10:16:35Z</time>
      </trkpt>
      <trkpt lat="44.24134" lon="5.63646">
        <ele>693</ele>
        <time>2019-06-17T10:16:36Z</time>
      </trkpt>
      <trkpt lat="44.24137" lon="5.63654">
        <ele>693</ele>
        <time>2019-06-17T10:16:37Z</time>
      </trkpt>
      <trkpt lat="44.24141" lon="5.63663">
        <ele>693</ele>
        <time>2019-06-17T10:16:38Z</time>
      </trkpt>
      <trkpt lat="44.24143" lon="5.63671">
        <ele>693</ele>
        <time>2019-06-17T10:16:39Z</time>
      </trkpt>
      <trkpt lat="44.24146" lon="5.6368">
        <ele>693</ele>
        <time>2019-06-17T10:16:40Z</time>
      </trkpt>
      <trkpt lat="44.24149" lon="5.63689">
        <ele>693</ele>
        <time>2019-06-17T10:16:41Z</time>
      </trkpt>
      <trkpt lat="44.24152" lon="5.63697">
        <ele>693</ele>
        <time>2019-06-17T10:16:42Z</time>
      </trkpt>
      <trkpt lat="44.24155" lon="5.63706">
        <ele>693</ele>
        <time>2019-06-17T10:16:43Z</time>
      </trkpt>
      <trkpt lat="44.24157" lon="5.63715">
        <ele>693</ele>
        <time>2019-06-17T10:16:44Z</time>
      </trkpt>
      <trkpt lat="44.2416" lon="5.63724">
        <ele>693</ele>
        <time>2019-06-17T10:16:45Z</time>
      </trkpt>
      <trkpt lat="44.24164" lon="5.63733">
        <ele>693</ele>
        <time>2019-06-17T10:16:46Z</time>
      </trkpt>
      <trkpt lat="44.24168" lon="5.63743">
        <ele>693</ele>
        <time>2019-06-17T10:16:47Z</time>
      </trkpt>
      <trkpt lat="44.24171" lon="5.63752">
        <ele>693</ele>
        <time>2019-06-17T10:16:48Z</time>
      </trkpt>
      <trkpt lat="44.24174" lon="5.63762">
        <ele>693</ele>
        <time>2019-06-17T10:16:49Z</time>
      </trkpt>
      <trkpt lat="44.24177" lon="5.63772">
        <ele>693</ele>
        <time>2019-06-17T10:16:50Z</time>
      </trkpt>
      <trkpt lat="44.24181" lon="5.63782">
        <ele>693</ele>
        <time>2019-06-17T10:16:51Z</time>
      </trkpt>
      <trkpt lat="44.24184" lon="5.63792">
        <ele>693</ele>
        <time>2019-06-17T10:16:52Z</time>
      </trkpt>
      <trkpt lat="44.24186" lon="5.63802">
        <ele>693</ele>
        <time>2019-06-17T10:16:53Z</time>
      </trkpt>
      <trkpt lat="44.24188" lon="5.63812">
        <ele>692</ele>
        <time>2019-06-17T10:16:54Z</time>
      </trkpt>
      <trkpt lat="44.2419" lon="5.63823">
        <ele>692</ele>
        <time>2019-06-17T10:16:55Z</time>
      </trkpt>
      <trkpt lat="44.24192" lon="5.63833">
        <ele>692</ele>
        <time>2019-06-17T10:16:56Z</time>
      </trkpt>
      <trkpt lat="44.24192" lon="5.63844">
        <ele>691</ele>
        <time>2019-06-17T10:16:57Z</time>
      </trkpt>
      <trkpt lat="44.24192" lon="5.63855">
        <ele>691</ele>
        <time>2019-06-17T10:16:58Z</time>
      </trkpt>
      <trkpt lat="44.24189" lon="5.63865">
        <ele>691</ele>
        <time>2019-06-17T10:16:59Z</time>
      </trkpt>
      <trkpt lat="44.24187" lon="5.63875">
        <ele>691</ele>
        <time>2019-06-17T10:17:00Z</time>
      </trkpt>
      <trkpt lat="44.24184" lon="5.63884">
        <ele>691</ele>
        <time>2019-06-17T10:17:01Z</time>
      </trkpt>
      <trkpt lat="44.2418" lon="5.63893">
        <ele>691</ele>
        <time>2019-06-17T10:17:02Z</time>
      </trkpt>
      <trkpt lat="44.24176" lon="5.63901">
        <ele>690</ele>
        <time>2019-06-17T10:17:03Z</time>
      </trkpt>
      <trkpt lat="44.24172" lon="5.63908">
        <ele>690</ele>
        <time>2019-06-17T10:17:04Z</time>
      </trkpt>
      <trkpt lat="44.24167" lon="5.63915">
        <ele>690</ele>
        <time>2019-06-17T10:17:05Z</time>
      </trkpt>
      <trkpt lat="44.24161" lon="5.63922">
        <ele>690</ele>
        <time>2019-06-17T10:17:06Z</time>
      </trkpt>
      <trkpt lat="44.24155" lon="5.63929">
        <ele>690</ele>
        <time>2019-06-17T10:17:07Z</time>
      </trkpt>
      <trkpt lat="44.24149" lon="5.63936">
        <ele>690</ele>
        <time>2019-06-17T10:17:08Z</time>
      </trkpt>
      <trkpt lat="44.24143" lon="5.63943">
        <ele>690</ele>
        <time>2019-06-17T10:17:09Z</time>
      </trkpt>
      <trkpt lat="44.24136" lon="5.63951">
        <ele>690</ele>
        <time>2019-06-17T10:17:10Z</time>
      </trkpt>
      <trkpt lat="44.2413" lon="5.63959">
        <ele>690</ele>
        <time>2019-06-17T10:17:11Z</time>
      </trkpt>
      <trkpt lat="44.24124" lon="5.63968">
        <ele>691</ele>
        <time>2019-06-17T10:17:12Z</time>
      </trkpt>
      <trkpt lat="44.24118" lon="5.63976">
        <ele>692</ele>
        <time>2019-06-17T10:17:13Z</time>
      </trkpt>
      <trkpt lat="44.24113" lon="5.63985">
        <ele>693</ele>
        <time>2019-06-17T10:17:14Z</time>
      </trkpt>
      <trkpt lat="44.24109" lon="5.63994">
        <ele>694</ele>
        <time>2019-06-17T10:17:15Z</time>
      </trkpt>
      <trkpt lat="44.24105" lon="5.64004">
        <ele>695</ele>
        <time>2019-06-17T10:17:16Z</time>
      </trkpt>
      <trkpt lat="44.24101" lon="5.64014">
        <ele>696</ele>
        <time>2019-06-17T10:17:17Z</time>
      </trkpt>
      <trkpt lat="44.24097" lon="5.64023">
        <ele>697</ele>
        <time>2019-06-17T10:17:18Z</time>
      </trkpt>
      <trkpt lat="44.24094" lon="5.64033">
        <ele>698</ele>
        <time>2019-06-17T10:17:19Z</time>
      </trkpt>
      <trkpt lat="44.24091" lon="5.64043">
        <ele>699</ele>
        <time>2019-06-17T10:17:20Z</time>
      </trkpt>
      <trkpt lat="44.24087" lon="5.64052">
        <ele>700</ele>
        <time>2019-06-17T10:17:21Z</time>
      </trkpt>
      <trkpt lat="44.24083" lon="5.64062">
        <ele>700</ele>
        <time>2019-06-17T10:17:22Z</time>
      </trkpt>
      <trkpt lat="44.2408" lon="5.64072">
        <ele>701</ele>
        <time>2019-06-17T10:17:23Z</time>
      </trkpt>
      <trkpt lat="44.24077" lon="5.64082">
        <ele>702</ele>
        <time>2019-06-17T10:17:24Z</time>
      </trkpt>
      <trkpt lat="44.24073" lon="5.64091">
        <ele>703</ele>
        <time>2019-06-17T10:17:25Z</time>
      </trkpt>
      <trkpt lat="44.2407" lon="5.64102">
        <ele>704</ele>
        <time>2019-06-17T10:17:26Z</time>
      </trkpt>
      <trkpt lat="44.24067" lon="5.64112">
        <ele>705</ele>
        <time>2019-06-17T10:17:27Z</time>
      </trkpt>
      <trkpt lat="44.24063" lon="5.64121">
        <ele>706</ele>
        <time>2019-06-17T10:17:28Z</time>
      </trkpt>
      <trkpt lat="44.2406" lon="5.64131">
        <ele>707</ele>
        <time>2019-06-17T10:17:29Z</time>
      </trkpt>
      <trkpt lat="44.24056" lon="5.6414">
        <ele>708</ele>
        <time>2019-06-17T10:17:30Z</time>
      </trkpt>
      <trkpt lat="44.24052" lon="5.64149">
        <ele>709</ele>
        <time>2019-06-17T10:17:31Z</time>
      </trkpt>
      <trkpt lat="44.24048" lon="5.64157">
        <ele>710</ele>
        <time>2019-06-17T10:17:32Z</time>
      </trkpt>
      <trkpt lat="44.24044" lon="5.64166">
        <ele>711</ele>
        <time>2019-06-17T10:17:33Z</time>
      </trkpt>
      <trkpt lat="44.2404" lon="5.64174">
        <ele>712</ele>
        <time>2019-06-17T10:17:34Z</time>
      </trkpt>
      <trkpt lat="44.24036" lon="5.64182">
        <ele>713</ele>
        <time>2019-06-17T10:17:35Z</time>
      </trkpt>
      <trkpt lat="44.24032" lon="5.64191">
        <ele>713</ele>
        <time>2019-06-17T10:17:36Z</time>
      </trkpt>
      <trkpt lat="44.24028" lon="5.642">
        <ele>713</ele>
        <time>2019-06-17T10:17:37Z</time>
      </trkpt>
      <trkpt lat="44.24024" lon="5.64209">
        <ele>713</ele>
        <time>2019-06-17T10:17:38Z</time>
      </trkpt>
      <trkpt lat="44.24021" lon="5.64219">
        <ele>713</ele>
        <time>2019-06-17T10:17:39Z</time>
      </trkpt>
      <trkpt lat="44.24018" lon="5.64229">
        <ele>713</ele>
        <time>2019-06-17T10:17:40Z</time>
      </trkpt>
      <trkpt lat="44.24017" lon="5.6424">
        <ele>713</ele>
        <time>2019-06-17T10:17:41Z</time>
      </trkpt>
      <trkpt lat="44.24016" lon="5.64251">
        <ele>713</ele>
        <time>2019-06-17T10:17:42Z</time>
      </trkpt>
      <trkpt lat="44.24016" lon="5.64263">
        <ele>713</ele>
        <time>2019-06-17T10:17:43Z</time>
      </trkpt>
      <trkpt lat="44.24017" lon="5.64274">
        <ele>713</ele>
        <time>2019-06-17T10:17:44Z</time>
      </trkpt>
      <trkpt lat="44.24018" lon="5.64286">
        <ele>713</ele>
        <time>2019-06-17T10:17:45Z</time>
      </trkpt>
      <trkpt lat="44.2402" lon="5.64297">
        <ele>713</ele>
        <time>2019-06-17T10:17:46Z</time>
      </trkpt>
      <trkpt lat="44.24023" lon="5.64308">
        <ele>713</ele>
        <time>2019-06-17T10:17:47Z</time>
      </trkpt>
      <trkpt lat="44.24025" lon="5.64319">
        <ele>713</ele>
        <time>2019-06-17T10:17:48Z</time>
      </trkpt>
      <trkpt lat="44.24028" lon="5.6433">
        <ele>712</ele>
        <time>2019-06-17T10:17:49Z</time>
      </trkpt>
      <trkpt lat="44.24031" lon="5.64341">
        <ele>712</ele>
        <time>2019-06-17T10:17:50Z</time>
      </trkpt>
      <trkpt lat="44.24034" lon="5.64351">
        <ele>712</ele>
        <time>2019-06-17T10:17:51Z</time>
      </trkpt>
      <trkpt lat="44.24037" lon="5.64362">
        <ele>712</ele>
        <time>2019-06-17T10:17:52Z</time>
      </trkpt>
      <trkpt lat="44.2404" lon="5.64372">
        <ele>711</ele>
        <time>2019-06-17T10:17:53Z</time>
      </trkpt>
      <trkpt lat="44.24044" lon="5.64383">
        <ele>711</ele>
        <time>2019-06-17T10:17:54Z</time>
      </trkpt>
      <trkpt lat="44.24048" lon="5.64392">
        <ele>711</ele>
        <time>2019-06-17T10:17:55Z</time>
      </trkpt>
      <trkpt lat="44.24052" lon="5.64402">
        <ele>711</ele>
        <time>2019-06-17T10:17:56Z</time>
      </trkpt>
      <trkpt lat="44.24058" lon="5.64411">
        <ele>711</ele>
        <time>2019-06-17T10:17:57Z</time>
      </trkpt>
      <trkpt lat="44.24063" lon="5.64419">
        <ele>710</ele>
        <time>2019-06-17T10:17:58Z</time>
      </trkpt>
      <trkpt lat="44.24069" lon="5.64428">
        <ele>710</ele>
        <time>2019-06-17T10:17:59Z</time>
      </trkpt>
      <trkpt lat="44.24075" lon="5.64436">
        <ele>710</ele>
        <time>2019-06-17T10:18:00Z</time>
      </trkpt>
      <trkpt lat="44.24081" lon="5.64445">
        <ele>710</ele>
        <time>2019-06-17T10:18:01Z</time>
      </trkpt>
      <trkpt lat="44.24088" lon="5.64452">
        <ele>710</ele>
        <time>2019-06-17T10:18:02Z</time>
      </trkpt>
      <trkpt lat="44.24096" lon="5.64459">
        <ele>709</ele>
        <time>2019-06-17T10:18:03Z</time>
      </trkpt>
      <trkpt lat="44.24103" lon="5.64466">
        <ele>709</ele>
        <time>2019-06-17T10:18:04Z</time>
      </trkpt>
      <trkpt lat="44.2411" lon="5.64473">
        <ele>709</ele>
        <time>2019-06-17T10:18:05Z</time>
      </trkpt>
      <trkpt lat="44.24117" lon="5.64479">
        <ele>709</ele>
        <time>2019-06-17T10:18:06Z</time>
      </trkpt>
      <trkpt lat="44.24123" lon="5.64487">
        <ele>708</ele>
        <time>2019-06-17T10:18:07Z</time>
      </trkpt>
      <trkpt lat="44.2413" lon="5.64495">
        <ele>708</ele>
        <time>2019-06-17T10:18:08Z</time>
      </trkpt>
      <trkpt lat="44.24136" lon="5.64503">
        <ele>708</ele>
        <time>2019-06-17T10:18:09Z</time>
      </trkpt>
      <trkpt lat="44.24142" lon="5.64511">
        <ele>707</ele>
        <time>2019-06-17T10:18:10Z</time>
      </trkpt>
      <trkpt lat="44.24148" lon="5.64518">
        <ele>707</ele>
        <time>2019-06-17T10:18:11Z</time>
      </trkpt>
      <trkpt lat="44.24154" lon="5.64526">
        <ele>706</ele>
        <time>2019-06-17T10:18:12Z</time>
      </trkpt>
      <trkpt lat="44.2416" lon="5.64534">
        <ele>706</ele>
        <time>2019-06-17T10:18:13Z</time>
      </trkpt>
      <trkpt lat="44.24166" lon="5.64542">
        <ele>705</ele>
        <time>2019-06-17T10:18:14Z</time>
      </trkpt>
      <trkpt lat="44.24172" lon="5.6455">
        <ele>704</ele>
        <time>2019-06-17T10:18:15Z</time>
      </trkpt>
      <trkpt lat="44.24178" lon="5.64558">
        <ele>704</ele>
        <time>2019-06-17T10:18:16Z</time>
      </trkpt>
      <trkpt lat="44.24184" lon="5.64566">
        <ele>704</ele>
        <time>2019-06-17T10:18:17Z</time>
      </trkpt>
      <trkpt lat="44.24189" lon="5.64574">
        <ele>703</ele>
        <time>2019-06-17T10:18:18Z</time>
      </trkpt>
      <trkpt lat="44.24194" lon="5.64583">
        <ele>703</ele>
        <time>2019-06-17T10:18:19Z</time>
      </trkpt>
      <trkpt lat="44.24199" lon="5.64592">
        <ele>702</ele>
        <time>2019-06-17T10:18:20Z</time>
      </trkpt>
      <trkpt lat="44.24203" lon="5.64601">
        <ele>702</ele>
        <time>2019-06-17T10:18:21Z</time>
      </trkpt>
      <trkpt lat="44.24207" lon="5.6461">
        <ele>702</ele>
        <time>2019-06-17T10:18:22Z</time>
      </trkpt>
      <trkpt lat="44.2421" lon="5.64619">
        <ele>702</ele>
        <time>2019-06-17T10:18:23Z</time>
      </trkpt>
      <trkpt lat="44.24214" lon="5.64629">
        <ele>701</ele>
        <time>2019-06-17T10:18:24Z</time>
      </trkpt>
      <trkpt lat="44.24217" lon="5.64638">
        <ele>701</ele>
        <time>2019-06-17T10:18:25Z</time>
      </trkpt>
      <trkpt lat="44.24221" lon="5.64647">
        <ele>701</ele>
        <time>2019-06-17T10:18:26Z</time>
      </trkpt>
      <trkpt lat="44.24225" lon="5.64656">
        <ele>701</ele>
        <time>2019-06-17T10:18:27Z</time>
      </trkpt>
      <trkpt lat="44.24228" lon="5.64666">
        <ele>701</ele>
        <time>2019-06-17T10:18:28Z</time>
      </trkpt>
      <trkpt lat="44.24231" lon="5.64676">
        <ele>700</ele>
        <time>2019-06-17T10:18:29Z</time>
      </trkpt>
      <trkpt lat="44.24234" lon="5.64686">
        <ele>700</ele>
        <time>2019-06-17T10:18:30Z</time>
      </trkpt>
      <trkpt lat="44.24237" lon="5.64696">
        <ele>700</ele>
        <time>2019-06-17T10:18:31Z</time>
      </trkpt>
      <trkpt lat="44.24239" lon="5.64706">
        <ele>700</ele>
        <time>2019-06-17T10:18:32Z</time>
      </trkpt>
      <trkpt lat="44.2424" lon="5.64716">
        <ele>700</ele>
        <time>2019-06-17T10:18:33Z</time>
      </trkpt>
      <trkpt lat="44.2424" lon="5.64727">
        <ele>700</ele>
        <time>2019-06-17T10:18:34Z</time>
      </trkpt>
      <trkpt lat="44.24241" lon="5.64738">
        <ele>700</ele>
        <time>2019-06-17T10:18:35Z</time>
      </trkpt>
      <trkpt lat="44.24241" lon="5.64748">
        <ele>700</ele>
        <time>2019-06-17T10:18:36Z</time>
      </trkpt>
      <trkpt lat="44.24242" lon="5.64759">
        <ele>700</ele>
        <time>2019-06-17T10:18:37Z</time>
      </trkpt>
      <trkpt lat="44.24242" lon="5.6477">
        <ele>700</ele>
        <time>2019-06-17T10:18:38Z</time>
      </trkpt>
      <trkpt lat="44.24244" lon="5.6478">
        <ele>699</ele>
        <time>2019-06-17T10:18:39Z</time>
      </trkpt>
      <trkpt lat="44.24247" lon="5.64791">
        <ele>699</ele>
        <time>2019-06-17T10:18:40Z</time>
      </trkpt>
      <trkpt lat="44.2425" lon="5.64801">
        <ele>699</ele>
        <time>2019-06-17T10:18:41Z</time>
      </trkpt>
      <trkpt lat="44.24254" lon="5.64812">
        <ele>699</ele>
        <time>2019-06-17T10:18:42Z</time>
      </trkpt>
      <trkpt lat="44.24258" lon="5.64821">
        <ele>699</ele>
        <time>2019-06-17T10:18:43Z</time>
      </trkpt>
      <trkpt lat="44.24262" lon="5.64831">
        <ele>698</ele>
        <time>2019-06-17T10:18:44Z</time>
      </trkpt>
      <trkpt lat="44.24267" lon="5.64839">
        <ele>698</ele>
        <time>2019-06-17T10:18:45Z</time>
      </trkpt>
      <trkpt lat="44.24273" lon="5.64848">
        <ele>698</ele>
        <time>2019-06-17T10:18:46Z</time>
      </trkpt>
      <trkpt lat="44.24278" lon="5.64856">
        <ele>698</ele>
        <time>2019-06-17T10:18:47Z</time>
      </trkpt>
      <trkpt lat="44.24283" lon="5.64864">
        <ele>698</ele>
        <time>2019-06-17T10:18:48Z</time>
      </trkpt>
      <trkpt lat="44.24287" lon="5.64874">
        <ele>698</ele>
        <time>2019-06-17T10:18:49Z</time>
      </trkpt>
      <trkpt lat="44.24292" lon="5.64884">
        <ele>698</ele>
        <time>2019-06-17T10:18:50Z</time>
      </trkpt>
      <trkpt lat="44.24296" lon="5.64894">
        <ele>698</ele>
        <time>2019-06-17T10:18:51Z</time>
      </trkpt>
      <trkpt lat="44.243" lon="5.64904">
        <ele>698</ele>
        <time>2019-06-17T10:18:52Z</time>
      </trkpt>
      <trkpt lat="44.24304" lon="5.64914">
        <ele>697</ele>
        <time>2019-06-17T10:18:53Z</time>
      </trkpt>
      <trkpt lat="44.24307" lon="5.64924">
        <ele>697</ele>
        <time>2019-06-17T10:18:54Z</time>
      </trkpt>
      <trkpt lat="44.24311" lon="5.64934">
        <ele>697</ele>
        <time>2019-06-17T10:18:55Z</time>
      </trkpt>
      <trkpt lat="44.24314" lon="5.64944">
        <ele>697</ele>
        <time>2019-06-17T10:18:56Z</time>
      </trkpt>
      <trkpt lat="44.24317" lon="5.64954">
        <ele>697</ele>
        <time>2019-06-17T10:18:57Z</time>
      </trkpt>
      <trkpt lat="44.24321" lon="5.64964">
        <ele>697</ele>
        <time>2019-06-17T10:18:58Z</time>
      </trkpt>
      <trkpt lat="44.24324" lon="5.64974">
        <ele>697</ele>
        <time>2019-06-17T10:18:59Z</time>
      </trkpt>
      <trkpt lat="44.24327" lon="5.64984">
        <ele>696</ele>
        <time>2019-06-17T10:19:00Z</time>
      </trkpt>
      <trkpt lat="44.24329" lon="5.64995">
        <ele>696</ele>
        <time>2019-06-17T10:19:01Z</time>
      </trkpt>
      <trkpt lat="44.24331" lon="5.65005">
        <ele>696</ele>
        <time>2019-06-17T10:19:02Z</time>
      </trkpt>
      <trkpt lat="44.24334" lon="5.65015">
        <ele>696</ele>
        <time>2019-06-17T10:19:03Z</time>
      </trkpt>
      <trkpt lat="44.24336" lon="5.65025">
        <ele>696</ele>
        <time>2019-06-17T10:19:04Z</time>
      </trkpt>
      <trkpt lat="44.24338" lon="5.65035">
        <ele>696</ele>
        <time>2019-06-17T10:19:05Z</time>
      </trkpt>
      <trkpt lat="44.24339" lon="5.65045">
        <ele>696</ele>
        <time>2019-06-17T10:19:06Z</time>
      </trkpt>
      <trkpt lat="44.24341" lon="5.65056">
        <ele>696</ele>
        <time>2019-06-17T10:19:07Z</time>
      </trkpt>
      <trkpt lat="44.24342" lon="5.65066">
        <ele>696</ele>
        <time>2019-06-17T10:19:08Z</time>
      </trkpt>
      <trkpt lat="44.24342" lon="5.65077">
        <ele>696</ele>
        <time>2019-06-17T10:19:09Z</time>
      </trkpt>
      <trkpt lat="44.24342" lon="5.65088">
        <ele>696</ele>
        <time>2019-06-17T10:19:10Z</time>
      </trkpt>
      <trkpt lat="44.24342" lon="5.65098">
        <ele>696</ele>
        <time>2019-06-17T10:19:11Z</time>
      </trkpt>
      <trkpt lat="44.24342" lon="5.65109">
        <ele>696</ele>
        <time>2019-06-17T10:19:12Z</time>
      </trkpt>
      <trkpt lat="44.24342" lon="5.6512">
        <ele>696</ele>
        <time>2019-06-17T10:19:13Z</time>
      </trkpt>
      <trkpt lat="44.24341" lon="5.6513">
        <ele>696</ele>
        <time>2019-06-17T10:19:14Z</time>
      </trkpt>
      <trkpt lat="44.24341" lon="5.65141">
        <ele>696</ele>
        <time>2019-06-17T10:19:15Z</time>
      </trkpt>
      <trkpt lat="44.2434" lon="5.65151">
        <ele>696</ele>
        <time>2019-06-17T10:19:16Z</time>
      </trkpt>
      <trkpt lat="44.24339" lon="5.65162">
        <ele>696</ele>
        <time>2019-06-17T10:19:17Z</time>
      </trkpt>
      <trkpt lat="44.24338" lon="5.65172">
        <ele>696</ele>
        <time>2019-06-17T10:19:18Z</time>
      </trkpt>
      <trkpt lat="44.24337" lon="5.65182">
        <ele>696</ele>
        <time>2019-06-17T10:19:19Z</time>
      </trkpt>
      <trkpt lat="44.24335" lon="5.65193">
        <ele>696</ele>
        <time>2019-06-17T10:19:20Z</time>
      </trkpt>
      <trkpt lat="44.24333" lon="5.65203">
        <ele>696</ele>
        <time>2019-06-17T10:19:21Z</time>
      </trkpt>
      <trkpt lat="44.2433" lon="5.65213">
        <ele>696</ele>
        <time>2019-06-17T10:19:22Z</time>
      </trkpt>
      <trkpt lat="44.24328" lon="5.65223">
        <ele>696</ele>
        <time>2019-06-17T10:19:23Z</time>
      </trkpt>
      <trkpt lat="44.24325" lon="5.65233">
        <ele>696</ele>
        <time>2019-06-17T10:19:24Z</time>
      </trkpt>
      <trkpt lat="44.24323" lon="5.65243">
        <ele>697</ele>
        <time>2019-06-17T10:19:25Z</time>
      </trkpt>
      <trkpt lat="44.24321" lon="5.65253">
        <ele>698</ele>
        <time>2019-06-17T10:19:26Z</time>
      </trkpt>
      <trkpt lat="44.2432" lon="5.65263">
        <ele>699</ele>
        <time>2019-06-17T10:19:27Z</time>
      </trkpt>
      <trkpt lat="44.24319" lon="5.65273">
        <ele>700</ele>
        <time>2019-06-17T10:19:28Z</time>
      </trkpt>
      <trkpt lat="44.24318" lon="5.65283">
        <ele>701</ele>
        <time>2019-06-17T10:19:29Z</time>
      </trkpt>
      <trkpt lat="44.24318" lon="5.65293">
        <ele>702</ele>
        <time>2019-06-17T10:19:30Z</time>
      </trkpt>
      <trkpt lat="44.24318" lon="5.65304">
        <ele>703</ele>
        <time>2019-06-17T10:19:31Z</time>
      </trkpt>
      <trkpt lat="44.24318" lon="5.65314">
        <ele>703</ele>
        <time>2019-06-17T10:19:32Z</time>
      </trkpt>
      <trkpt lat="44.24318" lon="5.65325">
        <ele>703</ele>
        <time>2019-06-17T10:19:33Z</time>
      </trkpt>
      <trkpt lat="44.24321" lon="5.65336">
        <ele>703</ele>
        <time>2019-06-17T10:19:34Z</time>
      </trkpt>
      <trkpt lat="44.24324" lon="5.65346">
        <ele>703</ele>
        <time>2019-06-17T10:19:35Z</time>
      </trkpt>
      <trkpt lat="44.24327" lon="5.65356">
        <ele>703</ele>
        <time>2019-06-17T10:19:36Z</time>
      </trkpt>
      <trkpt lat="44.24332" lon="5.65366">
        <ele>703</ele>
        <time>2019-06-17T10:19:37Z</time>
      </trkpt>
      <trkpt lat="44.24337" lon="5.65376">
        <ele>702</ele>
        <time>2019-06-17T10:19:38Z</time>
      </trkpt>
      <trkpt lat="44.24341" lon="5.65386">
        <ele>701</ele>
        <time>2019-06-17T10:19:39Z</time>
      </trkpt>
      <trkpt lat="44.24345" lon="5.65395">
        <ele>700</ele>
        <time>2019-06-17T10:19:40Z</time>
      </trkpt>
      <trkpt lat="44.2435" lon="5.65405">
        <ele>699</ele>
        <time>2019-06-17T10:19:41Z</time>
      </trkpt>
      <trkpt lat="44.24354" lon="5.65414">
        <ele>698</ele>
        <time>2019-06-17T10:19:42Z</time>
      </trkpt>
      <trkpt lat="44.24359" lon="5.65424">
        <ele>697</ele>
        <time>2019-06-17T10:19:43Z</time>
      </trkpt>
      <trkpt lat="44.24363" lon="5.65434">
        <ele>696</ele>
        <time>2019-06-17T10:19:44Z</time>
      </trkpt>
      <trkpt lat="44.24368" lon="5.65443">
        <ele>696</ele>
        <time>2019-06-17T10:19:45Z</time>
      </trkpt>
      <trkpt lat="44.24372" lon="5.65452">
        <ele>695</ele>
        <time>2019-06-17T10:19:46Z</time>
      </trkpt>
      <trkpt lat="44.24377" lon="5.65462">
        <ele>694</ele>
        <time>2019-06-17T10:19:47Z</time>
      </trkpt>
      <trkpt lat="44.24382" lon="5.65471">
        <ele>694</ele>
        <time>2019-06-17T10:19:48Z</time>
      </trkpt>
      <trkpt lat="44.24386" lon="5.6548">
        <ele>693</ele>
        <time>2019-06-17T10:19:49Z</time>
      </trkpt>
      <trkpt lat="44.2439" lon="5.6549">
        <ele>693</ele>
        <time>2019-06-17T10:19:50Z</time>
      </trkpt>
      <trkpt lat="44.24395" lon="5.65499">
        <ele>692</ele>
        <time>2019-06-17T10:19:51Z</time>
      </trkpt>
      <trkpt lat="44.244" lon="5.65508">
        <ele>692</ele>
        <time>2019-06-17T10:19:52Z</time>
      </trkpt>
      <trkpt lat="44.24404" lon="5.65518">
        <ele>692</ele>
        <time>2019-06-17T10:19:53Z</time>
      </trkpt>
      <trkpt lat="44.24408" lon="5.65527">
        <ele>691</ele>
        <time>2019-06-17T10:19:54Z</time>
      </trkpt>
      <trkpt lat="44.24413" lon="5.65536">
        <ele>691</ele>
        <time>2019-06-17T10:19:55Z</time>
      </trkpt>
      <trkpt lat="44.24418" lon="5.65546">
        <ele>691</ele>
        <time>2019-06-17T10:19:56Z</time>
      </trkpt>
      <trkpt lat="44.24422" lon="5.65555">
        <ele>690</ele>
        <time>2019-06-17T10:19:57Z</time>
      </trkpt>
      <trkpt lat="44.24428" lon="5.65565">
        <ele>690</ele>
        <time>2019-06-17T10:19:58Z</time>
      </trkpt>
      <trkpt lat="44.24432" lon="5.65575">
        <ele>690</ele>
        <time>2019-06-17T10:19:59Z</time>
      </trkpt>
      <trkpt lat="44.24438" lon="5.65585">
        <ele>690</ele>
        <time>2019-06-17T10:20:00Z</time>
      </trkpt>
      <trkpt lat="44.24443" lon="5.65595">
        <ele>689</ele>
        <time>2019-06-17T10:20:01Z</time>
      </trkpt>
      <trkpt lat="44.24449" lon="5.65605">
        <ele>689</ele>
        <time>2019-06-17T10:20:02Z</time>
      </trkpt>
      <trkpt lat="44.24454" lon="5.65616">
        <ele>689</ele>
        <time>2019-06-17T10:20:03Z</time>
      </trkpt>
      <trkpt lat="44.24458" lon="5.65627">
        <ele>688</ele>
        <time>2019-06-17T10:20:04Z</time>
      </trkpt>
      <trkpt lat="44.24462" lon="5.65638">
        <ele>687</ele>
        <time>2019-06-17T10:20:05Z</time>
      </trkpt>
      <trkpt lat="44.24465" lon="5.6565">
        <ele>687</ele>
        <time>2019-06-17T10:20:06Z</time>
      </trkpt>
      <trkpt lat="44.24468" lon="5.65662">
        <ele>686</ele>
        <time>2019-06-17T10:20:07Z</time>
      </trkpt>
      <trkpt lat="44.24471" lon="5.65674">
        <ele>685</ele>
        <time>2019-06-17T10:20:08Z</time>
      </trkpt>
      <trkpt lat="44.24473" lon="5.65686">
        <ele>684</ele>
        <time>2019-06-17T10:20:09Z</time>
      </trkpt>
      <trkpt lat="44.24476" lon="5.65698">
        <ele>683</ele>
        <time>2019-06-17T10:20:10Z</time>
      </trkpt>
      <trkpt lat="44.24479" lon="5.65711">
        <ele>682</ele>
        <time>2019-06-17T10:20:11Z</time>
      </trkpt>
      <trkpt lat="44.24481" lon="5.65724">
        <ele>681</ele>
        <time>2019-06-17T10:20:12Z</time>
      </trkpt>
      <trkpt lat="44.24482" lon="5.65736">
        <ele>680</ele>
        <time>2019-06-17T10:20:13Z</time>
      </trkpt>
      <trkpt lat="44.2448" lon="5.65749">
        <ele>680</ele>
        <time>2019-06-17T10:20:14Z</time>
      </trkpt>
      <trkpt lat="44.24477" lon="5.6576">
        <ele>679</ele>
        <time>2019-06-17T10:20:15Z</time>
      </trkpt>
      <trkpt lat="44.24471" lon="5.6577">
        <ele>679</ele>
        <time>2019-06-17T10:20:16Z</time>
      </trkpt>
      <trkpt lat="44.24465" lon="5.65779">
        <ele>678</ele>
        <time>2019-06-17T10:20:17Z</time>
      </trkpt>
      <trkpt lat="44.24459" lon="5.65788">
        <ele>677</ele>
        <time>2019-06-17T10:20:18Z</time>
      </trkpt>
      <trkpt lat="44.24453" lon="5.65796">
        <ele>677</ele>
        <time>2019-06-17T10:20:19Z</time>
      </trkpt>
      <trkpt lat="44.24447" lon="5.65805">
        <ele>676</ele>
        <time>2019-06-17T10:20:20Z</time>
      </trkpt>
      <trkpt lat="44.24441" lon="5.65813">
        <ele>675</ele>
        <time>2019-06-17T10:20:21Z</time>
      </trkpt>
      <trkpt lat="44.24434" lon="5.6582">
        <ele>675</ele>
        <time>2019-06-17T10:20:22Z</time>
      </trkpt>
      <trkpt lat="44.24427" lon="5.65827">
        <ele>675</ele>
        <time>2019-06-17T10:20:23Z</time>
      </trkpt>
      <trkpt lat="44.2442" lon="5.65833">
        <ele>675</ele>
        <time>2019-06-17T10:20:24Z</time>
      </trkpt>
      <trkpt lat="44.24412" lon="5.65839">
        <ele>675</ele>
        <time>2019-06-17T10:20:25Z</time>
      </trkpt>
      <trkpt lat="44.24404" lon="5.65845">
        <ele>675</ele>
        <time>2019-06-17T10:20:26Z</time>
      </trkpt>
      <trkpt lat="44.24396" lon="5.65852">
        <ele>675</ele>
        <time>2019-06-17T10:20:27Z</time>
      </trkpt>
      <trkpt lat="44.24388" lon="5.65862">
        <ele>675</ele>
        <time>2019-06-17T10:20:28Z</time>
      </trkpt>
      <trkpt lat="44.24382" lon="5.65872">
        <ele>675</ele>
        <time>2019-06-17T10:20:29Z</time>
      </trkpt>
      <trkpt lat="44.24376" lon="5.65882">
        <ele>675</ele>
        <time>2019-06-17T10:20:30Z</time>
      </trkpt>
      <trkpt lat="44.24372" lon="5.65894">
        <ele>676</ele>
        <time>2019-06-17T10:20:31Z</time>
      </trkpt>
      <trkpt lat="44.24368" lon="5.65909">
        <ele>677</ele>
        <time>2019-06-17T10:20:32Z</time>
      </trkpt>
      <trkpt lat="44.24366" lon="5.65925">
        <ele>678</ele>
        <time>2019-06-17T10:20:33Z</time>
      </trkpt>
      <trkpt lat="44.24365" lon="5.6594">
        <ele>679</ele>
        <time>2019-06-17T10:20:34Z</time>
      </trkpt>
      <trkpt lat="44.24366" lon="5.65954">
        <ele>680</ele>
        <time>2019-06-17T10:20:35Z</time>
      </trkpt>
      <trkpt lat="44.24368" lon="5.65969">
        <ele>681</ele>
        <time>2019-06-17T10:20:36Z</time>
      </trkpt>
      <trkpt lat="44.24372" lon="5.65983">
        <ele>682</ele>
        <time>2019-06-17T10:20:37Z</time>
      </trkpt>
      <trkpt lat="44.24378" lon="5.65995">
        <ele>682</ele>
        <time>2019-06-17T10:20:38Z</time>
      </trkpt>
      <trkpt lat="44.24385" lon="5.66007">
        <ele>682</ele>
        <time>2019-06-17T10:20:39Z</time>
      </trkpt>
      <trkpt lat="44.24391" lon="5.66019">
        <ele>682</ele>
        <time>2019-06-17T10:20:40Z</time>
      </trkpt>
      <trkpt lat="44.24397" lon="5.66031">
        <ele>682</ele>
        <time>2019-06-17T10:20:41Z</time>
      </trkpt>
      <trkpt lat="44.24402" lon="5.66044">
        <ele>682</ele>
        <time>2019-06-17T10:20:42Z</time>
      </trkpt>
      <trkpt lat="44.24407" lon="5.66058">
        <ele>682</ele>
        <time>2019-06-17T10:20:43Z</time>
      </trkpt>
      <trkpt lat="44.24412" lon="5.66072">
        <ele>682</ele>
        <time>2019-06-17T10:20:44Z</time>
      </trkpt>
      <trkpt lat="44.24414" lon="5.66087">
        <ele>682</ele>
        <time>2019-06-17T10:20:45Z</time>
      </trkpt>
      <trkpt lat="44.24415" lon="5.66102">
        <ele>682</ele>
        <time>2019-06-17T10:20:46Z</time>
      </trkpt>
      <trkpt lat="44.24415" lon="5.66116">
        <ele>682</ele>
        <time>2019-06-17T10:20:47Z</time>
      </trkpt>
      <trkpt lat="44.24415" lon="5.6613">
        <ele>682</ele>
        <time>2019-06-17T10:20:48Z</time>
      </trkpt>
      <trkpt lat="44.24415" lon="5.66144">
        <ele>682</ele>
        <time>2019-06-17T10:20:49Z</time>
      </trkpt>
      <trkpt lat="44.24416" lon="5.66157">
        <ele>682</ele>
        <time>2019-06-17T10:20:50Z</time>
      </trkpt>
      <trkpt lat="44.24418" lon="5.66171">
        <ele>681</ele>
        <time>2019-06-17T10:20:51Z</time>
      </trkpt>
      <trkpt lat="44.24421" lon="5.66183">
        <ele>681</ele>
        <time>2019-06-17T10:20:52Z</time>
      </trkpt>
      <trkpt lat="44.24426" lon="5.66194">
        <ele>681</ele>
        <time>2019-06-17T10:20:53Z</time>
      </trkpt>
      <trkpt lat="44.24431" lon="5.66206">
        <ele>681</ele>
        <time>2019-06-17T10:20:54Z</time>
      </trkpt>
      <trkpt lat="44.24436" lon="5.66216">
        <ele>681</ele>
        <time>2019-06-17T10:20:55Z</time>
      </trkpt>
      <trkpt lat="44.24442" lon="5.66226">
        <ele>681</ele>
        <time>2019-06-17T10:20:56Z</time>
      </trkpt>
      <trkpt lat="44.24448" lon="5.66236">
        <ele>681</ele>
        <time>2019-06-17T10:20:57Z</time>
      </trkpt>
      <trkpt lat="44.24454" lon="5.66246">
        <ele>681</ele>
        <time>2019-06-17T10:20:58Z</time>
      </trkpt>
      <trkpt lat="44.2446" lon="5.66256">
        <ele>681</ele>
        <time>2019-06-17T10:20:59Z</time>
      </trkpt>
      <trkpt lat="44.24466" lon="5.66266">
        <ele>681</ele>
        <time>2019-06-17T10:21:00Z</time>
      </trkpt>
      <trkpt lat="44.24472" lon="5.66276">
        <ele>681</ele>
        <time>2019-06-17T10:21:01Z</time>
      </trkpt>
      <trkpt lat="44.24477" lon="5.66286">
        <ele>681</ele>
        <time>2019-06-17T10:21:02Z</time>
      </trkpt>
      <trkpt lat="44.24483" lon="5.66296">
        <ele>681</ele>
        <time>2019-06-17T10:21:03Z</time>
      </trkpt>
      <trkpt lat="44.24488" lon="5.66306">
        <ele>681</ele>
        <time>2019-06-17T10:21:04Z</time>
      </trkpt>
      <trkpt lat="44.24495" lon="5.66316">
        <ele>681</ele>
        <time>2019-06-17T10:21:05Z</time>
      </trkpt>
      <trkpt lat="44.245" lon="5.66325">
        <ele>681</ele>
        <time>2019-06-17T10:21:06Z</time>
      </trkpt>
      <trkpt lat="44.24506" lon="5.66334">
        <ele>680</ele>
        <time>2019-06-17T10:21:07Z</time>
      </trkpt>
      <trkpt lat="44.24513" lon="5.66343">
        <ele>680</ele>
        <time>2019-06-17T10:21:08Z</time>
      </trkpt>
      <trkpt lat="44.2452" lon="5.66351">
        <ele>680</ele>
        <time>2019-06-17T10:21:09Z</time>
      </trkpt>
      <trkpt lat="44.24528" lon="5.66357">
        <ele>680</ele>
        <time>2019-06-17T10:21:10Z</time>
      </trkpt>
      <trkpt lat="44.24535" lon="5.66363">
        <ele>680</ele>
        <time>2019-06-17T10:21:11Z</time>
      </trkpt>
      <trkpt lat="44.24542" lon="5.66368">
        <ele>680</ele>
        <time>2019-06-17T10:21:12Z</time>
      </trkpt>
      <trkpt lat="44.24549" lon="5.66371">
        <ele>679</ele>
        <time>2019-06-17T10:21:13Z</time>
      </trkpt>
      <trkpt lat="44.24557" lon="5.66373">
        <ele>679</ele>
        <time>2019-06-17T10:21:14Z</time>
      </trkpt>
      <trkpt lat="44.24565" lon="5.66375">
        <ele>678</ele>
        <time>2019-06-17T10:21:15Z</time>
      </trkpt>
      <trkpt lat="44.24573" lon="5.66375">
        <ele>677</ele>
        <time>2019-06-17T10:21:16Z</time>
      </trkpt>
      <trkpt lat="44.2458" lon="5.66374">
        <ele>676</ele>
        <time>2019-06-17T10:21:17Z</time>
      </trkpt>
      <trkpt lat="44.24589" lon="5.66373">
        <ele>675</ele>
        <time>2019-06-17T10:21:18Z</time>
      </trkpt>
      <trkpt lat="44.24598" lon="5.66373">
        <ele>675</ele>
        <time>2019-06-17T10:21:19Z</time>
      </trkpt>
      <trkpt lat="44.24606" lon="5.66372">
        <ele>674</ele>
        <time>2019-06-17T10:21:20Z</time>
      </trkpt>
      <trkpt lat="44.24615" lon="5.66372">
        <ele>674</ele>
        <time>2019-06-17T10:21:21Z</time>
      </trkpt>
      <trkpt lat="44.24624" lon="5.66372">
        <ele>674</ele>
        <time>2019-06-17T10:21:22Z</time>
      </trkpt>
      <trkpt lat="44.24633" lon="5.66372">
        <ele>674</ele>
        <time>2019-06-17T10:21:23Z</time>
      </trkpt>
      <trkpt lat="44.24641" lon="5.66371">
        <ele>674</ele>
        <time>2019-06-17T10:21:24Z</time>
      </trkpt>
      <trkpt lat="44.2465" lon="5.66371">
        <ele>674</ele>
        <time>2019-06-17T10:21:25Z</time>
      </trkpt>
      <trkpt lat="44.24659" lon="5.66372">
        <ele>674</ele>
        <time>2019-06-17T10:21:26Z</time>
      </trkpt>
      <trkpt lat="44.24667" lon="5.66375">
        <ele>674</ele>
        <time>2019-06-17T10:21:27Z</time>
      </trkpt>
      <trkpt lat="44.24674" lon="5.66379">
        <ele>674</ele>
        <time>2019-06-17T10:21:28Z</time>
      </trkpt>
      <trkpt lat="44.24681" lon="5.66385">
        <ele>673</ele>
        <time>2019-06-17T10:21:29Z</time>
      </trkpt>
      <trkpt lat="44.24686" lon="5.66394">
        <ele>672</ele>
        <time>2019-06-17T10:21:30Z</time>
      </trkpt>
      <trkpt lat="44.24692" lon="5.66403">
        <ele>671</ele>
        <time>2019-06-17T10:21:31Z</time>
      </trkpt>
      <trkpt lat="44.24696" lon="5.66413">
        <ele>670</ele>
        <time>2019-06-17T10:21:32Z</time>
      </trkpt>
      <trkpt lat="44.247" lon="5.66424">
        <ele>669</ele>
        <time>2019-06-17T10:21:33Z</time>
      </trkpt>
      <trkpt lat="44.24702" lon="5.66434">
        <ele>668</ele>
        <time>2019-06-17T10:21:34Z</time>
      </trkpt>
      <trkpt lat="44.24702" lon="5.66446">
        <ele>667</ele>
        <time>2019-06-17T10:21:35Z</time>
      </trkpt>
      <trkpt lat="44.24702" lon="5.66457">
        <ele>666</ele>
        <time>2019-06-17T10:21:36Z</time>
      </trkpt>
      <trkpt lat="44.24702" lon="5.66468">
        <ele>665</ele>
        <time>2019-06-17T10:21:37Z</time>
      </trkpt>
      <trkpt lat="44.24701" lon="5.6648">
        <ele>664</ele>
        <time>2019-06-17T10:21:38Z</time>
      </trkpt>
      <trkpt lat="44.24699" lon="5.66491">
        <ele>663</ele>
        <time>2019-06-17T10:21:39Z</time>
      </trkpt>
      <trkpt lat="44.24697" lon="5.66503">
        <ele>662</ele>
        <time>2019-06-17T10:21:40Z</time>
      </trkpt>
      <trkpt lat="44.24694" lon="5.66514">
        <ele>662</ele>
        <time>2019-06-17T10:21:41Z</time>
      </trkpt>
      <trkpt lat="44.2469" lon="5.66525">
        <ele>662</ele>
        <time>2019-06-17T10:21:42Z</time>
      </trkpt>
      <trkpt lat="44.24685" lon="5.66535">
        <ele>662</ele>
        <time>2019-06-17T10:21:43Z</time>
      </trkpt>
      <trkpt lat="44.2468" lon="5.66545">
        <ele>662</ele>
        <time>2019-06-17T10:21:44Z</time>
      </trkpt>
      <trkpt lat="44.24674" lon="5.66555">
        <ele>662</ele>
        <time>2019-06-17T10:21:45Z</time>
      </trkpt>
      <trkpt lat="44.24667" lon="5.66564">
        <ele>662</ele>
        <time>2019-06-17T10:21:46Z</time>
      </trkpt>
      <trkpt lat="44.2466" lon="5.66572">
        <ele>663</ele>
        <time>2019-06-17T10:21:47Z</time>
      </trkpt>
      <trkpt lat="44.24654" lon="5.66581">
        <ele>664</ele>
        <time>2019-06-17T10:21:48Z</time>
      </trkpt>
      <trkpt lat="44.24648" lon="5.6659">
        <ele>665</ele>
        <time>2019-06-17T10:21:49Z</time>
      </trkpt>
      <trkpt lat="44.24641" lon="5.66599">
        <ele>667</ele>
        <time>2019-06-17T10:21:50Z</time>
      </trkpt>
      <trkpt lat="44.24636" lon="5.66608">
        <ele>669</ele>
        <time>2019-06-17T10:21:51Z</time>
      </trkpt>
      <trkpt lat="44.24632" lon="5.66619">
        <ele>671</ele>
        <time>2019-06-17T10:21:52Z</time>
      </trkpt>
      <trkpt lat="44.24629" lon="5.66631">
        <ele>673</ele>
        <time>2019-06-17T10:21:53Z</time>
      </trkpt>
      <trkpt lat="44.2463" lon="5.66642">
        <ele>674</ele>
        <time>2019-06-17T10:21:54Z</time>
      </trkpt>
      <trkpt lat="44.24632" lon="5.6665">
        <ele>675</ele>
        <time>2019-06-17T10:21:55Z</time>
      </trkpt>
      <trkpt lat="44.24639" lon="5.66658">
        <ele>676</ele>
        <time>2019-06-17T10:21:56Z</time>
      </trkpt>
      <trkpt lat="44.24649" lon="5.66662">
        <ele>677</ele>
        <time>2019-06-17T10:21:57Z</time>
      </trkpt>
      <trkpt lat="44.24656" lon="5.66663">
        <ele>677</ele>
        <time>2019-06-17T10:21:58Z</time>
      </trkpt>
      <trkpt lat="44.24664" lon="5.66665">
        <ele>677</ele>
        <time>2019-06-17T10:21:59Z</time>
      </trkpt>
      <trkpt lat="44.24672" lon="5.66667">
        <ele>677</ele>
        <time>2019-06-17T10:22:00Z</time>
      </trkpt>
      <trkpt lat="44.24681" lon="5.66668">
        <ele>677</ele>
        <time>2019-06-17T10:22:01Z</time>
      </trkpt>
      <trkpt lat="44.24689" lon="5.66669">
        <ele>677</ele>
        <time>2019-06-17T10:22:02Z</time>
      </trkpt>
      <trkpt lat="44.24698" lon="5.66671">
        <ele>677</ele>
        <time>2019-06-17T10:22:03Z</time>
      </trkpt>
      <trkpt lat="44.24706" lon="5.66672">
        <ele>677</ele>
        <time>2019-06-17T10:22:04Z</time>
      </trkpt>
      <trkpt lat="44.24712" lon="5.66674">
        <ele>677</ele>
        <time>2019-06-17T10:22:05Z</time>
      </trkpt>
      <trkpt lat="44.2472" lon="5.66676">
        <ele>677</ele>
        <time>2019-06-17T10:22:06Z</time>
      </trkpt>
      <trkpt lat="44.24729" lon="5.6668">
        <ele>676</ele>
        <time>2019-06-17T10:22:07Z</time>
      </trkpt>
      <trkpt lat="44.24737" lon="5.66685">
        <ele>675</ele>
        <time>2019-06-17T10:22:08Z</time>
      </trkpt>
      <trkpt lat="44.24744" lon="5.66691">
        <ele>674</ele>
        <time>2019-06-17T10:22:09Z</time>
      </trkpt>
      <trkpt lat="44.24752" lon="5.66699">
        <ele>673</ele>
        <time>2019-06-17T10:22:10Z</time>
      </trkpt>
      <trkpt lat="44.24759" lon="5.66708">
        <ele>673</ele>
        <time>2019-06-17T10:22:11Z</time>
      </trkpt>
      <trkpt lat="44.24765" lon="5.66717">
        <ele>672</ele>
        <time>2019-06-17T10:22:12Z</time>
      </trkpt>
      <trkpt lat="44.24771" lon="5.66728">
        <ele>672</ele>
        <time>2019-06-17T10:22:13Z</time>
      </trkpt>
      <trkpt lat="44.24775" lon="5.66739">
        <ele>672</ele>
        <time>2019-06-17T10:22:14Z</time>
      </trkpt>
      <trkpt lat="44.24779" lon="5.66751">
        <ele>672</ele>
        <time>2019-06-17T10:22:15Z</time>
      </trkpt>
      <trkpt lat="44.24781" lon="5.66763">
        <ele>672</ele>
        <time>2019-06-17T10:22:16Z</time>
      </trkpt>
      <trkpt lat="44.24782" lon="5.66775">
        <ele>672</ele>
        <time>2019-06-17T10:22:17Z</time>
      </trkpt>
      <trkpt lat="44.24783" lon="5.66788">
        <ele>671</ele>
        <time>2019-06-17T10:22:18Z</time>
      </trkpt>
      <trkpt lat="44.24782" lon="5.668">
        <ele>671</ele>
        <time>2019-06-17T10:22:19Z</time>
      </trkpt>
      <trkpt lat="44.24781" lon="5.66812">
        <ele>671</ele>
        <time>2019-06-17T10:22:20Z</time>
      </trkpt>
      <trkpt lat="44.24779" lon="5.66823">
        <ele>671</ele>
        <time>2019-06-17T10:22:21Z</time>
      </trkpt>
      <trkpt lat="44.24776" lon="5.66834">
        <ele>671</ele>
        <time>2019-06-17T10:22:22Z</time>
      </trkpt>
      <trkpt lat="44.24773" lon="5.66846">
        <ele>671</ele>
        <time>2019-06-17T10:22:23Z</time>
      </trkpt>
      <trkpt lat="44.2477" lon="5.66856">
        <ele>671</ele>
        <time>2019-06-17T10:22:24Z</time>
      </trkpt>
      <trkpt lat="44.24766" lon="5.66866">
        <ele>671</ele>
        <time>2019-06-17T10:22:25Z</time>
      </trkpt>
      <trkpt lat="44.24762" lon="5.66877">
        <ele>672</ele>
        <time>2019-06-17T10:22:26Z</time>
      </trkpt>
      <trkpt lat="44.24758" lon="5.66887">
        <ele>673</ele>
        <time>2019-06-17T10:22:27Z</time>
      </trkpt>
      <trkpt lat="44.24753" lon="5.66898">
        <ele>674</ele>
        <time>2019-06-17T10:22:28Z</time>
      </trkpt>
      <trkpt lat="44.24749" lon="5.66908">
        <ele>675</ele>
        <time>2019-06-17T10:22:29Z</time>
      </trkpt>
      <trkpt lat="44.24745" lon="5.66919">
        <ele>676</ele>
        <time>2019-06-17T10:22:30Z</time>
      </trkpt>
      <trkpt lat="44.24741" lon="5.66929">
        <ele>677</ele>
        <time>2019-06-17T10:22:31Z</time>
      </trkpt>
      <trkpt lat="44.24738" lon="5.66939">
        <ele>678</ele>
        <time>2019-06-17T10:22:32Z</time>
      </trkpt>
      <trkpt lat="44.24733" lon="5.6695">
        <ele>678</ele>
        <time>2019-06-17T10:22:33Z</time>
      </trkpt>
      <trkpt lat="44.24728" lon="5.66961">
        <ele>679</ele>
        <time>2019-06-17T10:22:34Z</time>
      </trkpt>
      <trkpt lat="44.24724" lon="5.66971">
        <ele>680</ele>
        <time>2019-06-17T10:22:35Z</time>
      </trkpt>
      <trkpt lat="44.2472" lon="5.66983">
        <ele>681</ele>
        <time>2019-06-17T10:22:36Z</time>
      </trkpt>
      <trkpt lat="44.24717" lon="5.66994">
        <ele>682</ele>
        <time>2019-06-17T10:22:37Z</time>
      </trkpt>
      <trkpt lat="44.24714" lon="5.67006">
        <ele>683</ele>
        <time>2019-06-17T10:22:38Z</time>
      </trkpt>
      <trkpt lat="44.24712" lon="5.67018">
        <ele>684</ele>
        <time>2019-06-17T10:22:39Z</time>
      </trkpt>
      <trkpt lat="44.24709" lon="5.67031">
        <ele>684</ele>
        <time>2019-06-17T10:22:40Z</time>
      </trkpt>
      <trkpt lat="44.24708" lon="5.67042">
        <ele>684</ele>
        <time>2019-06-17T10:22:41Z</time>
      </trkpt>
      <trkpt lat="44.24706" lon="5.67054">
        <ele>684</ele>
        <time>2019-06-17T10:22:42Z</time>
      </trkpt>
      <trkpt lat="44.24704" lon="5.67067">
        <ele>684</ele>
        <time>2019-06-17T10:22:43Z</time>
      </trkpt>
      <trkpt lat="44.24702" lon="5.6708">
        <ele>684</ele>
        <time>2019-06-17T10:22:44Z</time>
      </trkpt>
      <trkpt lat="44.24701" lon="5.67092">
        <ele>684</ele>
        <time>2019-06-17T10:22:45Z</time>
      </trkpt>
      <trkpt lat="44.247" lon="5.67104">
        <ele>684</ele>
        <time>2019-06-17T10:22:46Z</time>
      </trkpt>
      <trkpt lat="44.24699" lon="5.67116">
        <ele>684</ele>
        <time>2019-06-17T10:22:47Z</time>
      </trkpt>
      <trkpt lat="44.24698" lon="5.67129">
        <ele>684</ele>
        <time>2019-06-17T10:22:48Z</time>
      </trkpt>
      <trkpt lat="44.24696" lon="5.6714">
        <ele>684</ele>
        <time>2019-06-17T10:22:49Z</time>
      </trkpt>
      <trkpt lat="44.24694" lon="5.67151">
        <ele>683</ele>
        <time>2019-06-17T10:22:50Z</time>
      </trkpt>
      <trkpt lat="44.2469" lon="5.67162">
        <ele>682</ele>
        <time>2019-06-17T10:22:51Z</time>
      </trkpt>
      <trkpt lat="44.24686" lon="5.67172">
        <ele>682</ele>
        <time>2019-06-17T10:22:52Z</time>
      </trkpt>
      <trkpt lat="44.24682" lon="5.67181">
        <ele>682</ele>
        <time>2019-06-17T10:22:53Z</time>
      </trkpt>
      <trkpt lat="44.24677" lon="5.6719">
        <ele>682</ele>
        <time>2019-06-17T10:22:54Z</time>
      </trkpt>
      <trkpt lat="44.24672" lon="5.672">
        <ele>682</ele>
        <time>2019-06-17T10:22:55Z</time>
      </trkpt>
      <trkpt lat="44.24667" lon="5.67209">
        <ele>682</ele>
        <time>2019-06-17T10:22:56Z</time>
      </trkpt>
      <trkpt lat="44.24662" lon="5.67219">
        <ele>681</ele>
        <time>2019-06-17T10:22:57Z</time>
      </trkpt>
      <trkpt lat="44.24657" lon="5.67228">
        <ele>681</ele>
        <time>2019-06-17T10:22:58Z</time>
      </trkpt>
      <trkpt lat="44.24653" lon="5.67237">
        <ele>681</ele>
        <time>2019-06-17T10:22:59Z</time>
      </trkpt>
      <trkpt lat="44.24649" lon="5.67247">
        <ele>681</ele>
        <time>2019-06-17T10:23:00Z</time>
      </trkpt>
      <trkpt lat="44.24645" lon="5.67258">
        <ele>681</ele>
        <time>2019-06-17T10:23:01Z</time>
      </trkpt>
      <trkpt lat="44.24642" lon="5.6727">
        <ele>681</ele>
        <time>2019-06-17T10:23:02Z</time>
      </trkpt>
      <trkpt lat="44.24639" lon="5.67282">
        <ele>681</ele>
        <time>2019-06-17T10:23:03Z</time>
      </trkpt>
      <trkpt lat="44.24636" lon="5.67294">
        <ele>681</ele>
        <time>2019-06-17T10:23:04Z</time>
      </trkpt>
      <trkpt lat="44.24634" lon="5.67306">
        <ele>681</ele>
        <time>2019-06-17T10:23:05Z</time>
      </trkpt>
      <trkpt lat="44.24632" lon="5.67317">
        <ele>681</ele>
        <time>2019-06-17T10:23:06Z</time>
      </trkpt>
      <trkpt lat="44.2463" lon="5.67329">
        <ele>681</ele>
        <time>2019-06-17T10:23:07Z</time>
      </trkpt>
      <trkpt lat="44.24628" lon="5.67341">
        <ele>681</ele>
        <time>2019-06-17T10:23:08Z</time>
      </trkpt>
      <trkpt lat="44.24625" lon="5.67352">
        <ele>681</ele>
        <time>2019-06-17T10:23:09Z</time>
      </trkpt>
      <trkpt lat="44.24622" lon="5.67363">
        <ele>681</ele>
        <time>2019-06-17T10:23:10Z</time>
      </trkpt>
      <trkpt lat="44.24618" lon="5.67375">
        <ele>681</ele>
        <time>2019-06-17T10:23:11Z</time>
      </trkpt>
      <trkpt lat="44.24614" lon="5.67385">
        <ele>682</ele>
        <time>2019-06-17T10:23:12Z</time>
      </trkpt>
      <trkpt lat="44.24609" lon="5.67396">
        <ele>683</ele>
        <time>2019-06-17T10:23:13Z</time>
      </trkpt>
      <trkpt lat="44.24604" lon="5.67405">
        <ele>684</ele>
        <time>2019-06-17T10:23:14Z</time>
      </trkpt>
      <trkpt lat="44.24598" lon="5.67414">
        <ele>685</ele>
        <time>2019-06-17T10:23:15Z</time>
      </trkpt>
      <trkpt lat="44.24593" lon="5.67422">
        <ele>685</ele>
        <time>2019-06-17T10:23:16Z</time>
      </trkpt>
      <trkpt lat="44.24588" lon="5.6743">
        <ele>685</ele>
        <time>2019-06-17T10:23:17Z</time>
      </trkpt>
      <trkpt lat="44.24582" lon="5.67438">
        <ele>686</ele>
        <time>2019-06-17T10:23:18Z</time>
      </trkpt>
      <trkpt lat="44.24577" lon="5.67446">
        <ele>686</ele>
        <time>2019-06-17T10:23:19Z</time>
      </trkpt>
      <trkpt lat="44.24572" lon="5.67454">
        <ele>686</ele>
        <time>2019-06-17T10:23:20Z</time>
      </trkpt>
      <trkpt lat="44.24566" lon="5.67461">
        <ele>686</ele>
        <time>2019-06-17T10:23:21Z</time>
      </trkpt>
      <trkpt lat="44.24561" lon="5.67469">
        <ele>687</ele>
        <time>2019-06-17T10:23:22Z</time>
      </trkpt>
      <trkpt lat="44.24556" lon="5.67478">
        <ele>687</ele>
        <time>2019-06-17T10:23:23Z</time>
      </trkpt>
      <trkpt lat="44.24551" lon="5.67486">
        <ele>688</ele>
        <time>2019-06-17T10:23:24Z</time>
      </trkpt>
      <trkpt lat="44.24546" lon="5.67494">
        <ele>689</ele>
        <time>2019-06-17T10:23:25Z</time>
      </trkpt>
      <trkpt lat="44.24542" lon="5.67503">
        <ele>690</ele>
        <time>2019-06-17T10:23:26Z</time>
      </trkpt>
      <trkpt lat="44.24539" lon="5.67512">
        <ele>691</ele>
        <time>2019-06-17T10:23:27Z</time>
      </trkpt>
      <trkpt lat="44.24537" lon="5.67521">
        <ele>691</ele>
        <time>2019-06-17T10:23:28Z</time>
      </trkpt>
      <trkpt lat="44.24535" lon="5.67531">
        <ele>691</ele>
        <time>2019-06-17T10:23:29Z</time>
      </trkpt>
      <trkpt lat="44.24534" lon="5.67542">
        <ele>691</ele>
        <time>2019-06-17T10:23:30Z</time>
      </trkpt>
      <trkpt lat="44.24534" lon="5.67553">
        <ele>691</ele>
        <time>2019-06-17T10:23:31Z</time>
      </trkpt>
      <trkpt lat="44.24534" lon="5.67563">
        <ele>691</ele>
        <time>2019-06-17T10:23:32Z</time>
      </trkpt>
      <trkpt lat="44.24534" lon="5.67575">
        <ele>691</ele>
        <time>2019-06-17T10:23:33Z</time>
      </trkpt>
      <trkpt lat="44.24535" lon="5.67586">
        <ele>690</ele>
        <time>2019-06-17T10:23:34Z</time>
      </trkpt>
      <trkpt lat="44.24535" lon="5.67597">
        <ele>689</ele>
        <time>2019-06-17T10:23:35Z</time>
      </trkpt>
      <trkpt lat="44.24536" lon="5.67609">
        <ele>689</ele>
        <time>2019-06-17T10:23:36Z</time>
      </trkpt>
      <trkpt lat="44.24537" lon="5.67621">
        <ele>688</ele>
        <time>2019-06-17T10:23:37Z</time>
      </trkpt>
      <trkpt lat="44.24536" lon="5.67633">
        <ele>688</ele>
        <time>2019-06-17T10:23:38Z</time>
      </trkpt>
      <trkpt lat="44.24535" lon="5.67645">
        <ele>687</ele>
        <time>2019-06-17T10:23:39Z</time>
      </trkpt>
      <trkpt lat="44.24534" lon="5.67656">
        <ele>687</ele>
        <time>2019-06-17T10:23:40Z</time>
      </trkpt>
      <trkpt lat="44.24532" lon="5.67667">
        <ele>687</ele>
        <time>2019-06-17T10:23:41Z</time>
      </trkpt>
      <trkpt lat="44.24531" lon="5.67677">
        <ele>687</ele>
        <time>2019-06-17T10:23:42Z</time>
      </trkpt>
      <trkpt lat="44.24529" lon="5.67687">
        <ele>687</ele>
        <time>2019-06-17T10:23:43Z</time>
      </trkpt>
      <trkpt lat="44.24527" lon="5.67698">
        <ele>687</ele>
        <time>2019-06-17T10:23:44Z</time>
      </trkpt>
      <trkpt lat="44.24525" lon="5.67709">
        <ele>687</ele>
        <time>2019-06-17T10:23:45Z</time>
      </trkpt>
      <trkpt lat="44.24523" lon="5.67721">
        <ele>687</ele>
        <time>2019-06-17T10:23:46Z</time>
      </trkpt>
      <trkpt lat="44.24521" lon="5.67733">
        <ele>687</ele>
        <time>2019-06-17T10:23:47Z</time>
      </trkpt>
      <trkpt lat="44.24519" lon="5.67745">
        <ele>688</ele>
        <time>2019-06-17T10:23:48Z</time>
      </trkpt>
      <trkpt lat="44.24517" lon="5.67756">
        <ele>688</ele>
        <time>2019-06-17T10:23:49Z</time>
      </trkpt>
      <trkpt lat="44.24516" lon="5.67766">
        <ele>688</ele>
        <time>2019-06-17T10:23:50Z</time>
      </trkpt>
      <trkpt lat="44.24514" lon="5.67777">
        <ele>688</ele>
        <time>2019-06-17T10:23:51Z</time>
      </trkpt>
      <trkpt lat="44.24513" lon="5.67788">
        <ele>688</ele>
        <time>2019-06-17T10:23:52Z</time>
      </trkpt>
      <trkpt lat="44.24512" lon="5.67799">
        <ele>688</ele>
        <time>2019-06-17T10:23:53Z</time>
      </trkpt>
      <trkpt lat="44.24511" lon="5.6781">
        <ele>688</ele>
        <time>2019-06-17T10:23:54Z</time>
      </trkpt>
      <trkpt lat="44.24511" lon="5.67821">
        <ele>688</ele>
        <time>2019-06-17T10:23:55Z</time>
      </trkpt>
      <trkpt lat="44.2451" lon="5.67833">
        <ele>688</ele>
        <time>2019-06-17T10:23:56Z</time>
      </trkpt>
      <trkpt lat="44.2451" lon="5.67844">
        <ele>688</ele>
        <time>2019-06-17T10:23:57Z</time>
      </trkpt>
      <trkpt lat="44.2451" lon="5.67856">
        <ele>687</ele>
        <time>2019-06-17T10:23:58Z</time>
      </trkpt>
      <trkpt lat="44.2451" lon="5.67868">
        <ele>686</ele>
        <time>2019-06-17T10:23:59Z</time>
      </trkpt>
      <trkpt lat="44.2451" lon="5.6788">
        <ele>685</ele>
        <time>2019-06-17T10:24:00Z</time>
      </trkpt>
      <trkpt lat="44.2451" lon="5.67892">
        <ele>684</ele>
        <time>2019-06-17T10:24:01Z</time>
      </trkpt>
      <trkpt lat="44.2451" lon="5.67904">
        <ele>683</ele>
        <time>2019-06-17T10:24:02Z</time>
      </trkpt>
      <trkpt lat="44.2451" lon="5.67916">
        <ele>682</ele>
        <time>2019-06-17T10:24:03Z</time>
      </trkpt>
      <trkpt lat="44.24511" lon="5.67928">
        <ele>681</ele>
        <time>2019-06-17T10:24:04Z</time>
      </trkpt>
      <trkpt lat="44.24511" lon="5.6794">
        <ele>680</ele>
        <time>2019-06-17T10:24:05Z</time>
      </trkpt>
      <trkpt lat="44.24511" lon="5.67952">
        <ele>679</ele>
        <time>2019-06-17T10:24:06Z</time>
      </trkpt>
      <trkpt lat="44.24511" lon="5.67963">
        <ele>679</ele>
        <time>2019-06-17T10:24:07Z</time>
      </trkpt>
      <trkpt lat="44.24511" lon="5.67975">
        <ele>678</ele>
        <time>2019-06-17T10:24:08Z</time>
      </trkpt>
      <trkpt lat="44.24511" lon="5.67987">
        <ele>677</ele>
        <time>2019-06-17T10:24:09Z</time>
      </trkpt>
      <trkpt lat="44.24511" lon="5.67999">
        <ele>677</ele>
        <time>2019-06-17T10:24:10Z</time>
      </trkpt>
      <trkpt lat="44.24511" lon="5.68011">
        <ele>676</ele>
        <time>2019-06-17T10:24:11Z</time>
      </trkpt>
      <trkpt lat="44.24511" lon="5.68022">
        <ele>676</ele>
        <time>2019-06-17T10:24:12Z</time>
      </trkpt>
      <trkpt lat="44.24511" lon="5.68034">
        <ele>676</ele>
        <time>2019-06-17T10:24:13Z</time>
      </trkpt>
      <trkpt lat="44.24512" lon="5.68045">
        <ele>675</ele>
        <time>2019-06-17T10:24:14Z</time>
      </trkpt>
      <trkpt lat="44.24512" lon="5.68056">
        <ele>675</ele>
        <time>2019-06-17T10:24:15Z</time>
      </trkpt>
      <trkpt lat="44.24513" lon="5.68068">
        <ele>674</ele>
        <time>2019-06-17T10:24:16Z</time>
      </trkpt>
      <trkpt lat="44.24514" lon="5.68078">
        <ele>674</ele>
        <time>2019-06-17T10:24:17Z</time>
      </trkpt>
      <trkpt lat="44.24516" lon="5.68089">
        <ele>674</ele>
        <time>2019-06-17T10:24:18Z</time>
      </trkpt>
      <trkpt lat="44.24518" lon="5.68099">
        <ele>673</ele>
        <time>2019-06-17T10:24:19Z</time>
      </trkpt>
      <trkpt lat="44.2452" lon="5.6811">
        <ele>673</ele>
        <time>2019-06-17T10:24:20Z</time>
      </trkpt>
      <trkpt lat="44.24522" lon="5.6812">
        <ele>673</ele>
        <time>2019-06-17T10:24:21Z</time>
      </trkpt>
      <trkpt lat="44.24526" lon="5.6813">
        <ele>673</ele>
        <time>2019-06-17T10:24:22Z</time>
      </trkpt>
      <trkpt lat="44.24529" lon="5.6814">
        <ele>672</ele>
        <time>2019-06-17T10:24:23Z</time>
      </trkpt>
      <trkpt lat="44.24533" lon="5.68149">
        <ele>672</ele>
        <time>2019-06-17T10:24:24Z</time>
      </trkpt>
      <trkpt lat="44.24537" lon="5.68159">
        <ele>672</ele>
        <time>2019-06-17T10:24:25Z</time>
      </trkpt>
      <trkpt lat="44.24542" lon="5.68169">
        <ele>672</ele>
        <time>2019-06-17T10:24:26Z</time>
      </trkpt>
      <trkpt lat="44.24546" lon="5.6818">
        <ele>672</ele>
        <time>2019-06-17T10:24:27Z</time>
      </trkpt>
      <trkpt lat="44.24549" lon="5.6819">
        <ele>672</ele>
        <time>2019-06-17T10:24:28Z</time>
      </trkpt>
      <trkpt lat="44.24552" lon="5.682">
        <ele>672</ele>
        <time>2019-06-17T10:24:29Z</time>
      </trkpt>
      <trkpt lat="44.24555" lon="5.6821">
        <ele>672</ele>
        <time>2019-06-17T10:24:30Z</time>
      </trkpt>
      <trkpt lat="44.24558" lon="5.6822">
        <ele>672</ele>
        <time>2019-06-17T10:24:31Z</time>
      </trkpt>
      <trkpt lat="44.24559" lon="5.6823">
        <ele>672</ele>
        <time>2019-06-17T10:24:32Z</time>
      </trkpt>
      <trkpt lat="44.24561" lon="5.6824">
        <ele>672</ele>
        <time>2019-06-17T10:24:33Z</time>
      </trkpt>
      <trkpt lat="44.24563" lon="5.68251">
        <ele>672</ele>
        <time>2019-06-17T10:24:34Z</time>
      </trkpt>
      <trkpt lat="44.24565" lon="5.68261">
        <ele>672</ele>
        <time>2019-06-17T10:24:35Z</time>
      </trkpt>
      <trkpt lat="44.24567" lon="5.68271">
        <ele>672</ele>
        <time>2019-06-17T10:24:36Z</time>
      </trkpt>
      <trkpt lat="44.24569" lon="5.68282">
        <ele>672</ele>
        <time>2019-06-17T10:24:37Z</time>
      </trkpt>
      <trkpt lat="44.24571" lon="5.68293">
        <ele>672</ele>
        <time>2019-06-17T10:24:38Z</time>
      </trkpt>
      <trkpt lat="44.24573" lon="5.68303">
        <ele>672</ele>
        <time>2019-06-17T10:24:39Z</time>
      </trkpt>
      <trkpt lat="44.24576" lon="5.68313">
        <ele>672</ele>
        <time>2019-06-17T10:24:40Z</time>
      </trkpt>
      <trkpt lat="44.24578" lon="5.68324">
        <ele>672</ele>
        <time>2019-06-17T10:24:41Z</time>
      </trkpt>
      <trkpt lat="44.24581" lon="5.68334">
        <ele>672</ele>
        <time>2019-06-17T10:24:42Z</time>
      </trkpt>
      <trkpt lat="44.24584" lon="5.68345">
        <ele>672</ele>
        <time>2019-06-17T10:24:43Z</time>
      </trkpt>
      <trkpt lat="44.24586" lon="5.68356">
        <ele>672</ele>
        <time>2019-06-17T10:24:44Z</time>
      </trkpt>
      <trkpt lat="44.24589" lon="5.68367">
        <ele>672</ele>
        <time>2019-06-17T10:24:45Z</time>
      </trkpt>
      <trkpt lat="44.2459" lon="5.68378">
        <ele>672</ele>
        <time>2019-06-17T10:24:46Z</time>
      </trkpt>
      <trkpt lat="44.24593" lon="5.68389">
        <ele>672</ele>
        <time>2019-06-17T10:24:47Z</time>
      </trkpt>
      <trkpt lat="44.24595" lon="5.68399">
        <ele>672</ele>
        <time>2019-06-17T10:24:48Z</time>
      </trkpt>
      <trkpt lat="44.24597" lon="5.6841">
        <ele>672</ele>
        <time>2019-06-17T10:24:49Z</time>
      </trkpt>
      <trkpt lat="44.246" lon="5.68421">
        <ele>672</ele>
        <time>2019-06-17T10:24:50Z</time>
      </trkpt>
      <trkpt lat="44.24602" lon="5.68432">
        <ele>672</ele>
        <time>2019-06-17T10:24:51Z</time>
      </trkpt>
      <trkpt lat="44.24604" lon="5.68443">
        <ele>672</ele>
        <time>2019-06-17T10:24:52Z</time>
      </trkpt>
      <trkpt lat="44.24606" lon="5.68455">
        <ele>672</ele>
        <time>2019-06-17T10:24:53Z</time>
      </trkpt>
      <trkpt lat="44.24608" lon="5.68466">
        <ele>672</ele>
        <time>2019-06-17T10:24:54Z</time>
      </trkpt>
      <trkpt lat="44.24609" lon="5.68478">
        <ele>672</ele>
        <time>2019-06-17T10:24:55Z</time>
      </trkpt>
      <trkpt lat="44.24611" lon="5.68489">
        <ele>672</ele>
        <time>2019-06-17T10:24:56Z</time>
      </trkpt>
      <trkpt lat="44.24613" lon="5.68501">
        <ele>672</ele>
        <time>2019-06-17T10:24:57Z</time>
      </trkpt>
      <trkpt lat="44.24615" lon="5.68512">
        <ele>672</ele>
        <time>2019-06-17T10:24:58Z</time>
      </trkpt>
      <trkpt lat="44.24616" lon="5.68524">
        <ele>672</ele>
        <time>2019-06-17T10:24:59Z</time>
      </trkpt>
      <trkpt lat="44.24618" lon="5.68535">
        <ele>672</ele>
        <time>2019-06-17T10:25:00Z</time>
      </trkpt>
      <trkpt lat="44.24619" lon="5.68547">
        <ele>672</ele>
        <time>2019-06-17T10:25:01Z</time>
      </trkpt>
      <trkpt lat="44.24619" lon="5.6856">
        <ele>672</ele>
        <time>2019-06-17T10:25:02Z</time>
      </trkpt>
      <trkpt lat="44.24619" lon="5.68572">
        <ele>672</ele>
        <time>2019-06-17T10:25:03Z</time>
      </trkpt>
      <trkpt lat="44.24618" lon="5.68586">
        <ele>672</ele>
        <time>2019-06-17T10:25:04Z</time>
      </trkpt>
      <trkpt lat="44.24617" lon="5.68601">
        <ele>672</ele>
        <time>2019-06-17T10:25:05Z</time>
      </trkpt>
      <trkpt lat="44.24617" lon="5.68614">
        <ele>672</ele>
        <time>2019-06-17T10:25:06Z</time>
      </trkpt>
      <trkpt lat="44.24617" lon="5.68628">
        <ele>672</ele>
        <time>2019-06-17T10:25:07Z</time>
      </trkpt>
      <trkpt lat="44.24617" lon="5.68643">
        <ele>672</ele>
        <time>2019-06-17T10:25:08Z</time>
      </trkpt>
      <trkpt lat="44.24618" lon="5.68656">
        <ele>672</ele>
        <time>2019-06-17T10:25:09Z</time>
      </trkpt>
      <trkpt lat="44.24618" lon="5.6867">
        <ele>672</ele>
        <time>2019-06-17T10:25:10Z</time>
      </trkpt>
      <trkpt lat="44.24619" lon="5.68683">
        <ele>672</ele>
        <time>2019-06-17T10:25:11Z</time>
      </trkpt>
      <trkpt lat="44.2462" lon="5.68696">
        <ele>672</ele>
        <time>2019-06-17T10:25:12Z</time>
      </trkpt>
      <trkpt lat="44.24622" lon="5.68709">
        <ele>672</ele>
        <time>2019-06-17T10:25:13Z</time>
      </trkpt>
      <trkpt lat="44.24623" lon="5.68721">
        <ele>672</ele>
        <time>2019-06-17T10:25:14Z</time>
      </trkpt>
      <trkpt lat="44.24624" lon="5.68734">
        <ele>672</ele>
        <time>2019-06-17T10:25:15Z</time>
      </trkpt>
      <trkpt lat="44.24624" lon="5.68746">
        <ele>672</ele>
        <time>2019-06-17T10:25:16Z</time>
      </trkpt>
      <trkpt lat="44.24625" lon="5.68758">
        <ele>672</ele>
        <time>2019-06-17T10:25:17Z</time>
      </trkpt>
      <trkpt lat="44.24626" lon="5.6877">
        <ele>672</ele>
        <time>2019-06-17T10:25:18Z</time>
      </trkpt>
      <trkpt lat="44.24627" lon="5.68782">
        <ele>672</ele>
        <time>2019-06-17T10:25:19Z</time>
      </trkpt>
      <trkpt lat="44.24629" lon="5.68794">
        <ele>672</ele>
        <time>2019-06-17T10:25:20Z</time>
      </trkpt>
      <trkpt lat="44.24631" lon="5.68806">
        <ele>671</ele>
        <time>2019-06-17T10:25:21Z</time>
      </trkpt>
      <trkpt lat="44.24633" lon="5.68818">
        <ele>671</ele>
        <time>2019-06-17T10:25:22Z</time>
      </trkpt>
      <trkpt lat="44.24635" lon="5.6883">
        <ele>671</ele>
        <time>2019-06-17T10:25:23Z</time>
      </trkpt>
      <trkpt lat="44.24636" lon="5.68842">
        <ele>670</ele>
        <time>2019-06-17T10:25:24Z</time>
      </trkpt>
      <trkpt lat="44.24637" lon="5.68854">
        <ele>670</ele>
        <time>2019-06-17T10:25:25Z</time>
      </trkpt>
      <trkpt lat="44.24638" lon="5.68866">
        <ele>670</ele>
        <time>2019-06-17T10:25:26Z</time>
      </trkpt>
      <trkpt lat="44.2464" lon="5.68878">
        <ele>670</ele>
        <time>2019-06-17T10:25:27Z</time>
      </trkpt>
      <trkpt lat="44.24641" lon="5.68889">
        <ele>670</ele>
        <time>2019-06-17T10:25:28Z</time>
      </trkpt>
      <trkpt lat="44.24643" lon="5.689">
        <ele>670</ele>
        <time>2019-06-17T10:25:29Z</time>
      </trkpt>
      <trkpt lat="44.24645" lon="5.68912">
        <ele>670</ele>
        <time>2019-06-17T10:25:30Z</time>
      </trkpt>
      <trkpt lat="44.24646" lon="5.68923">
        <ele>670</ele>
        <time>2019-06-17T10:25:31Z</time>
      </trkpt>
      <trkpt lat="44.24648" lon="5.68934">
        <ele>670</ele>
        <time>2019-06-17T10:25:32Z</time>
      </trkpt>
      <trkpt lat="44.2465" lon="5.68946">
        <ele>670</ele>
        <time>2019-06-17T10:25:33Z</time>
      </trkpt>
      <trkpt lat="44.24652" lon="5.68958">
        <ele>670</ele>
        <time>2019-06-17T10:25:34Z</time>
      </trkpt>
      <trkpt lat="44.24654" lon="5.68969">
        <ele>670</ele>
        <time>2019-06-17T10:25:35Z</time>
      </trkpt>
      <trkpt lat="44.24656" lon="5.68981">
        <ele>670</ele>
        <time>2019-06-17T10:25:36Z</time>
      </trkpt>
      <trkpt lat="44.24657" lon="5.68992">
        <ele>670</ele>
        <time>2019-06-17T10:25:37Z</time>
      </trkpt>
      <trkpt lat="44.24658" lon="5.69004">
        <ele>670</ele>
        <time>2019-06-17T10:25:38Z</time>
      </trkpt>
      <trkpt lat="44.24658" lon="5.69016">
        <ele>670</ele>
        <time>2019-06-17T10:25:39Z</time>
      </trkpt>
      <trkpt lat="44.24659" lon="5.69027">
        <ele>669</ele>
        <time>2019-06-17T10:25:40Z</time>
      </trkpt>
      <trkpt lat="44.2466" lon="5.69038">
        <ele>669</ele>
        <time>2019-06-17T10:25:41Z</time>
      </trkpt>
      <trkpt lat="44.24661" lon="5.6905">
        <ele>668</ele>
        <time>2019-06-17T10:25:42Z</time>
      </trkpt>
      <trkpt lat="44.24663" lon="5.69061">
        <ele>668</ele>
        <time>2019-06-17T10:25:43Z</time>
      </trkpt>
      <trkpt lat="44.24664" lon="5.69072">
        <ele>668</ele>
        <time>2019-06-17T10:25:44Z</time>
      </trkpt>
      <trkpt lat="44.24665" lon="5.69083">
        <ele>667</ele>
        <time>2019-06-17T10:25:45Z</time>
      </trkpt>
      <trkpt lat="44.24667" lon="5.69094">
        <ele>667</ele>
        <time>2019-06-17T10:25:46Z</time>
      </trkpt>
      <trkpt lat="44.24668" lon="5.69105">
        <ele>667</ele>
        <time>2019-06-17T10:25:47Z</time>
      </trkpt>
      <trkpt lat="44.2467" lon="5.69117">
        <ele>667</ele>
        <time>2019-06-17T10:25:48Z</time>
      </trkpt>
      <trkpt lat="44.24672" lon="5.69128">
        <ele>667</ele>
        <time>2019-06-17T10:25:49Z</time>
      </trkpt>
      <trkpt lat="44.24675" lon="5.69138">
        <ele>667</ele>
        <time>2019-06-17T10:25:50Z</time>
      </trkpt>
      <trkpt lat="44.24679" lon="5.69149">
        <ele>667</ele>
        <time>2019-06-17T10:25:51Z</time>
      </trkpt>
      <trkpt lat="44.24683" lon="5.69159">
        <ele>667</ele>
        <time>2019-06-17T10:25:52Z</time>
      </trkpt>
      <trkpt lat="44.24686" lon="5.6917">
        <ele>667</ele>
        <time>2019-06-17T10:25:53Z</time>
      </trkpt>
      <trkpt lat="44.2469" lon="5.6918">
        <ele>667</ele>
        <time>2019-06-17T10:25:54Z</time>
      </trkpt>
      <trkpt lat="44.24694" lon="5.6919">
        <ele>667</ele>
        <time>2019-06-17T10:25:55Z</time>
      </trkpt>
      <trkpt lat="44.24698" lon="5.692">
        <ele>666</ele>
        <time>2019-06-17T10:25:56Z</time>
      </trkpt>
      <trkpt lat="44.24702" lon="5.6921">
        <ele>666</ele>
        <time>2019-06-17T10:25:57Z</time>
      </trkpt>
      <trkpt lat="44.24707" lon="5.69219">
        <ele>666</ele>
        <time>2019-06-17T10:25:58Z</time>
      </trkpt>
      <trkpt lat="44.24712" lon="5.69229">
        <ele>666</ele>
        <time>2019-06-17T10:25:59Z</time>
      </trkpt>
      <trkpt lat="44.24717" lon="5.69239">
        <ele>666</ele>
        <time>2019-06-17T10:26:00Z</time>
      </trkpt>
      <trkpt lat="44.24721" lon="5.69248">
        <ele>666</ele>
        <time>2019-06-17T10:26:01Z</time>
      </trkpt>
      <trkpt lat="44.24726" lon="5.69258">
        <ele>666</ele>
        <time>2019-06-17T10:26:02Z</time>
      </trkpt>
      <trkpt lat="44.2473" lon="5.69269">
        <ele>666</ele>
        <time>2019-06-17T10:26:03Z</time>
      </trkpt>
      <trkpt lat="44.24734" lon="5.69279">
        <ele>666</ele>
        <time>2019-06-17T10:26:04Z</time>
      </trkpt>
      <trkpt lat="44.24739" lon="5.69289">
        <ele>666</ele>
        <time>2019-06-17T10:26:05Z</time>
      </trkpt>
      <trkpt lat="44.24744" lon="5.69299">
        <ele>666</ele>
        <time>2019-06-17T10:26:06Z</time>
      </trkpt>
      <trkpt lat="44.24749" lon="5.69309">
        <ele>666</ele>
        <time>2019-06-17T10:26:07Z</time>
      </trkpt>
      <trkpt lat="44.24753" lon="5.69319">
        <ele>666</ele>
        <time>2019-06-17T10:26:08Z</time>
      </trkpt>
      <trkpt lat="44.24757" lon="5.69329">
        <ele>666</ele>
        <time>2019-06-17T10:26:09Z</time>
      </trkpt>
      <trkpt lat="44.24761" lon="5.6934">
        <ele>666</ele>
        <time>2019-06-17T10:26:10Z</time>
      </trkpt>
      <trkpt lat="44.24765" lon="5.6935">
        <ele>666</ele>
        <time>2019-06-17T10:26:11Z</time>
      </trkpt>
      <trkpt lat="44.24768" lon="5.6936">
        <ele>666</ele>
        <time>2019-06-17T10:26:12Z</time>
      </trkpt>
      <trkpt lat="44.24772" lon="5.69371">
        <ele>666</ele>
        <time>2019-06-17T10:26:13Z</time>
      </trkpt>
      <trkpt lat="44.24774" lon="5.69381">
        <ele>666</ele>
        <time>2019-06-17T10:26:14Z</time>
      </trkpt>
      <trkpt lat="44.24776" lon="5.69391">
        <ele>666</ele>
        <time>2019-06-17T10:26:15Z</time>
      </trkpt>
      <trkpt lat="44.24779" lon="5.69402">
        <ele>666</ele>
        <time>2019-06-17T10:26:16Z</time>
      </trkpt>
      <trkpt lat="44.24783" lon="5.69412">
        <ele>666</ele>
        <time>2019-06-17T10:26:17Z</time>
      </trkpt>
      <trkpt lat="44.24786" lon="5.69421">
        <ele>666</ele>
        <time>2019-06-17T10:26:18Z</time>
      </trkpt>
      <trkpt lat="44.24788" lon="5.69431">
        <ele>666</ele>
        <time>2019-06-17T10:26:19Z</time>
      </trkpt>
      <trkpt lat="44.2479" lon="5.6944">
        <ele>666</ele>
        <time>2019-06-17T10:26:20Z</time>
      </trkpt>
      <trkpt lat="44.24791" lon="5.69451">
        <ele>666</ele>
        <time>2019-06-17T10:26:21Z</time>
      </trkpt>
      <trkpt lat="44.24792" lon="5.6946">
        <ele>666</ele>
        <time>2019-06-17T10:26:22Z</time>
      </trkpt>
      <trkpt lat="44.24793" lon="5.6947">
        <ele>666</ele>
        <time>2019-06-17T10:26:23Z</time>
      </trkpt>
      <trkpt lat="44.24793" lon="5.6948">
        <ele>666</ele>
        <time>2019-06-17T10:26:24Z</time>
      </trkpt>
      <trkpt lat="44.24793" lon="5.69489">
        <ele>666</ele>
        <time>2019-06-17T10:26:25Z</time>
      </trkpt>
      <trkpt lat="44.24792" lon="5.695">
        <ele>666</ele>
        <time>2019-06-17T10:26:26Z</time>
      </trkpt>
      <trkpt lat="44.24792" lon="5.6951">
        <ele>666</ele>
        <time>2019-06-17T10:26:27Z</time>
      </trkpt>
      <trkpt lat="44.24791" lon="5.69521">
        <ele>666</ele>
        <time>2019-06-17T10:26:28Z</time>
      </trkpt>
      <trkpt lat="44.24791" lon="5.69532">
        <ele>666</ele>
        <time>2019-06-17T10:26:29Z</time>
      </trkpt>
      <trkpt lat="44.24789" lon="5.69543">
        <ele>666</ele>
        <time>2019-06-17T10:26:30Z</time>
      </trkpt>
      <trkpt lat="44.24787" lon="5.69554">
        <ele>666</ele>
        <time>2019-06-17T10:26:31Z</time>
      </trkpt>
      <trkpt lat="44.24784" lon="5.69564">
        <ele>666</ele>
        <time>2019-06-17T10:26:32Z</time>
      </trkpt>
      <trkpt lat="44.24781" lon="5.69576">
        <ele>665</ele>
        <time>2019-06-17T10:26:33Z</time>
      </trkpt>
      <trkpt lat="44.24778" lon="5.69587">
        <ele>665</ele>
        <time>2019-06-17T10:26:34Z</time>
      </trkpt>
      <trkpt lat="44.24775" lon="5.69598">
        <ele>665</ele>
        <time>2019-06-17T10:26:35Z</time>
      </trkpt>
      <trkpt lat="44.24773" lon="5.69609">
        <ele>665</ele>
        <time>2019-06-17T10:26:36Z</time>
      </trkpt>
      <trkpt lat="44.2477" lon="5.69621">
        <ele>664</ele>
        <time>2019-06-17T10:26:37Z</time>
      </trkpt>
      <trkpt lat="44.24767" lon="5.69631">
        <ele>664</ele>
        <time>2019-06-17T10:26:38Z</time>
      </trkpt>
      <trkpt lat="44.24763" lon="5.69642">
        <ele>664</ele>
        <time>2019-06-17T10:26:39Z</time>
      </trkpt>
      <trkpt lat="44.24759" lon="5.69653">
        <ele>664</ele>
        <time>2019-06-17T10:26:40Z</time>
      </trkpt>
      <trkpt lat="44.24755" lon="5.69663">
        <ele>664</ele>
        <time>2019-06-17T10:26:41Z</time>
      </trkpt>
      <trkpt lat="44.24752" lon="5.69673">
        <ele>664</ele>
        <time>2019-06-17T10:26:42Z</time>
      </trkpt>
      <trkpt lat="44.24747" lon="5.69683">
        <ele>664</ele>
        <time>2019-06-17T10:26:43Z</time>
      </trkpt>
      <trkpt lat="44.24744" lon="5.69693">
        <ele>664</ele>
        <time>2019-06-17T10:26:44Z</time>
      </trkpt>
      <trkpt lat="44.24739" lon="5.69704">
        <ele>664</ele>
        <time>2019-06-17T10:26:45Z</time>
      </trkpt>
      <trkpt lat="44.24736" lon="5.69716">
        <ele>664</ele>
        <time>2019-06-17T10:26:46Z</time>
      </trkpt>
      <trkpt lat="44.24733" lon="5.69727">
        <ele>664</ele>
        <time>2019-06-17T10:26:47Z</time>
      </trkpt>
      <trkpt lat="44.24731" lon="5.69739">
        <ele>663</ele>
        <time>2019-06-17T10:26:48Z</time>
      </trkpt>
      <trkpt lat="44.2473" lon="5.6975">
        <ele>662</ele>
        <time>2019-06-17T10:26:49Z</time>
      </trkpt>
      <trkpt lat="44.24728" lon="5.69762">
        <ele>662</ele>
        <time>2019-06-17T10:26:50Z</time>
      </trkpt>
      <trkpt lat="44.24725" lon="5.69774">
        <ele>662</ele>
        <time>2019-06-17T10:26:51Z</time>
      </trkpt>
      <trkpt lat="44.24723" lon="5.69786">
        <ele>662</ele>
        <time>2019-06-17T10:26:52Z</time>
      </trkpt>
      <trkpt lat="44.24721" lon="5.69798">
        <ele>662</ele>
        <time>2019-06-17T10:26:53Z</time>
      </trkpt>
      <trkpt lat="44.24719" lon="5.6981">
        <ele>662</ele>
        <time>2019-06-17T10:26:54Z</time>
      </trkpt>
      <trkpt lat="44.24717" lon="5.69822">
        <ele>661</ele>
        <time>2019-06-17T10:26:55Z</time>
      </trkpt>
      <trkpt lat="44.24715" lon="5.69833">
        <ele>661</ele>
        <time>2019-06-17T10:26:56Z</time>
      </trkpt>
      <trkpt lat="44.24713" lon="5.69845">
        <ele>661</ele>
        <time>2019-06-17T10:26:57Z</time>
      </trkpt>
      <trkpt lat="44.24711" lon="5.69857">
        <ele>661</ele>
        <time>2019-06-17T10:26:58Z</time>
      </trkpt>
      <trkpt lat="44.2471" lon="5.69869">
        <ele>661</ele>
        <time>2019-06-17T10:26:59Z</time>
      </trkpt>
      <trkpt lat="44.24711" lon="5.6988">
        <ele>661</ele>
        <time>2019-06-17T10:27:00Z</time>
      </trkpt>
      <trkpt lat="44.24712" lon="5.69892">
        <ele>661</ele>
        <time>2019-06-17T10:27:01Z</time>
      </trkpt>
      <trkpt lat="44.24715" lon="5.69902">
        <ele>661</ele>
        <time>2019-06-17T10:27:02Z</time>
      </trkpt>
      <trkpt lat="44.24718" lon="5.69912">
        <ele>661</ele>
        <time>2019-06-17T10:27:03Z</time>
      </trkpt>
      <trkpt lat="44.24723" lon="5.69922">
        <ele>661</ele>
        <time>2019-06-17T10:27:04Z</time>
      </trkpt>
      <trkpt lat="44.24726" lon="5.69933">
        <ele>661</ele>
        <time>2019-06-17T10:27:05Z</time>
      </trkpt>
      <trkpt lat="44.2473" lon="5.69943">
        <ele>661</ele>
        <time>2019-06-17T10:27:06Z</time>
      </trkpt>
      <trkpt lat="44.24734" lon="5.69953">
        <ele>661</ele>
        <time>2019-06-17T10:27:07Z</time>
      </trkpt>
      <trkpt lat="44.24738" lon="5.69963">
        <ele>661</ele>
        <time>2019-06-17T10:27:08Z</time>
      </trkpt>
      <trkpt lat="44.24742" lon="5.69973">
        <ele>660</ele>
        <time>2019-06-17T10:27:09Z</time>
      </trkpt>
      <trkpt lat="44.24746" lon="5.69983">
        <ele>660</ele>
        <time>2019-06-17T10:27:10Z</time>
      </trkpt>
      <trkpt lat="44.24751" lon="5.69993">
        <ele>660</ele>
        <time>2019-06-17T10:27:11Z</time>
      </trkpt>
      <trkpt lat="44.24755" lon="5.70003">
        <ele>660</ele>
        <time>2019-06-17T10:27:12Z</time>
      </trkpt>
      <trkpt lat="44.2476" lon="5.70012">
        <ele>659</ele>
        <time>2019-06-17T10:27:13Z</time>
      </trkpt>
      <trkpt lat="44.24766" lon="5.7002">
        <ele>659</ele>
        <time>2019-06-17T10:27:14Z</time>
      </trkpt>
      <trkpt lat="44.24771" lon="5.70029">
        <ele>659</ele>
        <time>2019-06-17T10:27:15Z</time>
      </trkpt>
      <trkpt lat="44.24778" lon="5.70037">
        <ele>659</ele>
        <time>2019-06-17T10:27:16Z</time>
      </trkpt>
      <trkpt lat="44.24784" lon="5.70044">
        <ele>658</ele>
        <time>2019-06-17T10:27:17Z</time>
      </trkpt>
      <trkpt lat="44.24791" lon="5.70051">
        <ele>658</ele>
        <time>2019-06-17T10:27:18Z</time>
      </trkpt>
      <trkpt lat="44.24798" lon="5.70059">
        <ele>657</ele>
        <time>2019-06-17T10:27:19Z</time>
      </trkpt>
      <trkpt lat="44.24804" lon="5.70066">
        <ele>657</ele>
        <time>2019-06-17T10:27:20Z</time>
      </trkpt>
      <trkpt lat="44.24811" lon="5.70074">
        <ele>657</ele>
        <time>2019-06-17T10:27:21Z</time>
      </trkpt>
      <trkpt lat="44.24817" lon="5.70082">
        <ele>657</ele>
        <time>2019-06-17T10:27:22Z</time>
      </trkpt>
      <trkpt lat="44.24823" lon="5.7009">
        <ele>656</ele>
        <time>2019-06-17T10:27:23Z</time>
      </trkpt>
      <trkpt lat="44.24829" lon="5.70098">
        <ele>656</ele>
        <time>2019-06-17T10:27:24Z</time>
      </trkpt>
      <trkpt lat="44.24834" lon="5.70108">
        <ele>656</ele>
        <time>2019-06-17T10:27:25Z</time>
      </trkpt>
      <trkpt lat="44.24839" lon="5.70118">
        <ele>656</ele>
        <time>2019-06-17T10:27:26Z</time>
      </trkpt>
      <trkpt lat="44.24843" lon="5.70129">
        <ele>655</ele>
        <time>2019-06-17T10:27:27Z</time>
      </trkpt>
      <trkpt lat="44.24847" lon="5.7014">
        <ele>655</ele>
        <time>2019-06-17T10:27:28Z</time>
      </trkpt>
      <trkpt lat="44.24849" lon="5.70151">
        <ele>655</ele>
        <time>2019-06-17T10:27:29Z</time>
      </trkpt>
      <trkpt lat="44.2485" lon="5.70163">
        <ele>655</ele>
        <time>2019-06-17T10:27:30Z</time>
      </trkpt>
      <trkpt lat="44.24851" lon="5.70175">
        <ele>655</ele>
        <time>2019-06-17T10:27:31Z</time>
      </trkpt>
      <trkpt lat="44.2485" lon="5.70187">
        <ele>655</ele>
        <time>2019-06-17T10:27:32Z</time>
      </trkpt>
      <trkpt lat="44.2485" lon="5.70199">
        <ele>655</ele>
        <time>2019-06-17T10:27:33Z</time>
      </trkpt>
      <trkpt lat="44.2485" lon="5.7021">
        <ele>655</ele>
        <time>2019-06-17T10:27:34Z</time>
      </trkpt>
      <trkpt lat="44.2485" lon="5.70221">
        <ele>655</ele>
        <time>2019-06-17T10:27:35Z</time>
      </trkpt>
      <trkpt lat="44.2485" lon="5.70231">
        <ele>655</ele>
        <time>2019-06-17T10:27:36Z</time>
      </trkpt>
      <trkpt lat="44.24849" lon="5.70241">
        <ele>655</ele>
        <time>2019-06-17T10:27:37Z</time>
      </trkpt>
      <trkpt lat="44.24847" lon="5.70252">
        <ele>655</ele>
        <time>2019-06-17T10:27:38Z</time>
      </trkpt>
      <trkpt lat="44.24844" lon="5.70264">
        <ele>655</ele>
        <time>2019-06-17T10:27:39Z</time>
      </trkpt>
      <trkpt lat="44.24841" lon="5.70276">
        <ele>655</ele>
        <time>2019-06-17T10:27:40Z</time>
      </trkpt>
      <trkpt lat="44.24837" lon="5.70287">
        <ele>656</ele>
        <time>2019-06-17T10:27:41Z</time>
      </trkpt>
      <trkpt lat="44.24833" lon="5.70297">
        <ele>657</ele>
        <time>2019-06-17T10:27:42Z</time>
      </trkpt>
      <trkpt lat="44.24829" lon="5.70307">
        <ele>658</ele>
        <time>2019-06-17T10:27:43Z</time>
      </trkpt>
      <trkpt lat="44.24824" lon="5.70317">
        <ele>659</ele>
        <time>2019-06-17T10:27:44Z</time>
      </trkpt>
      <trkpt lat="44.24818" lon="5.70326">
        <ele>660</ele>
        <time>2019-06-17T10:27:45Z</time>
      </trkpt>
      <trkpt lat="44.24813" lon="5.70335">
        <ele>661</ele>
        <time>2019-06-17T10:27:46Z</time>
      </trkpt>
      <trkpt lat="44.24807" lon="5.70344">
        <ele>662</ele>
        <time>2019-06-17T10:27:47Z</time>
      </trkpt>
      <trkpt lat="44.24803" lon="5.70354">
        <ele>663</ele>
        <time>2019-06-17T10:27:48Z</time>
      </trkpt>
      <trkpt lat="44.24798" lon="5.70363">
        <ele>663</ele>
        <time>2019-06-17T10:27:49Z</time>
      </trkpt>
      <trkpt lat="44.24794" lon="5.70373">
        <ele>663</ele>
        <time>2019-06-17T10:27:50Z</time>
      </trkpt>
      <trkpt lat="44.2479" lon="5.70384">
        <ele>663</ele>
        <time>2019-06-17T10:27:51Z</time>
      </trkpt>
      <trkpt lat="44.24788" lon="5.70395">
        <ele>663</ele>
        <time>2019-06-17T10:27:52Z</time>
      </trkpt>
      <trkpt lat="44.24786" lon="5.70406">
        <ele>663</ele>
        <time>2019-06-17T10:27:53Z</time>
      </trkpt>
      <trkpt lat="44.24783" lon="5.70417">
        <ele>663</ele>
        <time>2019-06-17T10:27:54Z</time>
      </trkpt>
      <trkpt lat="44.24781" lon="5.70428">
        <ele>663</ele>
        <time>2019-06-17T10:27:55Z</time>
      </trkpt>
      <trkpt lat="44.24778" lon="5.70438">
        <ele>663</ele>
        <time>2019-06-17T10:27:56Z</time>
      </trkpt>
      <trkpt lat="44.24774" lon="5.70447">
        <ele>663</ele>
        <time>2019-06-17T10:27:57Z</time>
      </trkpt>
      <trkpt lat="44.2477" lon="5.70455">
        <ele>663</ele>
        <time>2019-06-17T10:27:58Z</time>
      </trkpt>
      <trkpt lat="44.24765" lon="5.70463">
        <ele>663</ele>
        <time>2019-06-17T10:27:59Z</time>
      </trkpt>
      <trkpt lat="44.2476" lon="5.70469">
        <ele>663</ele>
        <time>2019-06-17T10:28:00Z</time>
      </trkpt>
      <trkpt lat="44.24755" lon="5.70475">
        <ele>663</ele>
        <time>2019-06-17T10:28:01Z</time>
      </trkpt>
      <trkpt lat="44.2475" lon="5.70481">
        <ele>663</ele>
        <time>2019-06-17T10:28:02Z</time>
      </trkpt>
      <trkpt lat="44.24745" lon="5.70487">
        <ele>663</ele>
        <time>2019-06-17T10:28:03Z</time>
      </trkpt>
      <trkpt lat="44.2474" lon="5.70493">
        <ele>663</ele>
        <time>2019-06-17T10:28:04Z</time>
      </trkpt>
      <trkpt lat="44.24735" lon="5.70499">
        <ele>663</ele>
        <time>2019-06-17T10:28:05Z</time>
      </trkpt>
      <trkpt lat="44.2473" lon="5.70504">
        <ele>663</ele>
        <time>2019-06-17T10:28:06Z</time>
      </trkpt>
      <trkpt lat="44.24725" lon="5.7051">
        <ele>662</ele>
        <time>2019-06-17T10:28:07Z</time>
      </trkpt>
      <trkpt lat="44.2472" lon="5.70515">
        <ele>661</ele>
        <time>2019-06-17T10:28:08Z</time>
      </trkpt>
      <trkpt lat="44.24715" lon="5.70519">
        <ele>660</ele>
        <time>2019-06-17T10:28:09Z</time>
      </trkpt>
      <trkpt lat="44.24711" lon="5.70524">
        <ele>659</ele>
        <time>2019-06-17T10:28:10Z</time>
      </trkpt>
      <trkpt lat="44.24707" lon="5.70528">
        <ele>658</ele>
        <time>2019-06-17T10:28:11Z</time>
      </trkpt>
      <trkpt lat="44.24702" lon="5.70533">
        <ele>657</ele>
        <time>2019-06-17T10:28:12Z</time>
      </trkpt>
      <trkpt lat="44.24699" lon="5.70538">
        <ele>656</ele>
        <time>2019-06-17T10:28:13Z</time>
      </trkpt>
      <trkpt lat="44.24695" lon="5.70543">
        <ele>654</ele>
        <time>2019-06-17T10:28:14Z</time>
      </trkpt>
      <trkpt lat="44.24692" lon="5.70549">
        <ele>652</ele>
        <time>2019-06-17T10:28:15Z</time>
      </trkpt>
      <trkpt lat="44.2469" lon="5.70557">
        <ele>650</ele>
        <time>2019-06-17T10:28:16Z</time>
      </trkpt>
      <trkpt lat="44.2469" lon="5.70565">
        <ele>649</ele>
        <time>2019-06-17T10:28:17Z</time>
      </trkpt>
      <trkpt lat="44.24691" lon="5.70573">
        <ele>648</ele>
        <time>2019-06-17T10:28:18Z</time>
      </trkpt>
      <trkpt lat="44.24694" lon="5.70579">
        <ele>647</ele>
        <time>2019-06-17T10:28:19Z</time>
      </trkpt>
      <trkpt lat="44.24697" lon="5.70583">
        <ele>646</ele>
        <time>2019-06-17T10:28:20Z</time>
      </trkpt>
      <trkpt lat="44.24702" lon="5.70586">
        <ele>645</ele>
        <time>2019-06-17T10:28:21Z</time>
      </trkpt>
      <trkpt lat="44.24708" lon="5.70589">
        <ele>644</ele>
        <time>2019-06-17T10:28:22Z</time>
      </trkpt>
      <trkpt lat="44.24713" lon="5.70591">
        <ele>643</ele>
        <time>2019-06-17T10:28:23Z</time>
      </trkpt>
      <trkpt lat="44.24718" lon="5.70593">
        <ele>642</ele>
        <time>2019-06-17T10:28:24Z</time>
      </trkpt>
      <trkpt lat="44.24723" lon="5.70596">
        <ele>641</ele>
        <time>2019-06-17T10:28:25Z</time>
      </trkpt>
      <trkpt lat="44.24728" lon="5.70599">
        <ele>640</ele>
        <time>2019-06-17T10:28:26Z</time>
      </trkpt>
      <trkpt lat="44.24732" lon="5.70603">
        <ele>639</ele>
        <time>2019-06-17T10:28:27Z</time>
      </trkpt>
      <trkpt lat="44.24736" lon="5.70608">
        <ele>638</ele>
        <time>2019-06-17T10:28:28Z</time>
      </trkpt>
      <trkpt lat="44.2474" lon="5.70615">
        <ele>637</ele>
        <time>2019-06-17T10:28:29Z</time>
      </trkpt>
      <trkpt lat="44.24743" lon="5.70621">
        <ele>636</ele>
        <time>2019-06-17T10:28:30Z</time>
      </trkpt>
      <trkpt lat="44.24745" lon="5.70629">
        <ele>636</ele>
        <time>2019-06-17T10:28:31Z</time>
      </trkpt>
      <trkpt lat="44.24746" lon="5.70637">
        <ele>636</ele>
        <time>2019-06-17T10:28:32Z</time>
      </trkpt>
      <trkpt lat="44.24748" lon="5.70645">
        <ele>636</ele>
        <time>2019-06-17T10:28:33Z</time>
      </trkpt>
      <trkpt lat="44.24749" lon="5.70652">
        <ele>636</ele>
        <time>2019-06-17T10:28:34Z</time>
      </trkpt>
      <trkpt lat="44.2475" lon="5.70659">
        <ele>637</ele>
        <time>2019-06-17T10:28:35Z</time>
      </trkpt>
      <trkpt lat="44.2475" lon="5.70666">
        <ele>638</ele>
        <time>2019-06-17T10:28:36Z</time>
      </trkpt>
      <trkpt lat="44.24749" lon="5.70672">
        <ele>639</ele>
        <time>2019-06-17T10:28:37Z</time>
      </trkpt>
      <trkpt lat="44.24746" lon="5.70677">
        <ele>641</ele>
        <time>2019-06-17T10:28:38Z</time>
      </trkpt>
      <trkpt lat="44.24742" lon="5.70679">
        <ele>643</ele>
        <time>2019-06-17T10:28:39Z</time>
      </trkpt>
      <trkpt lat="44.24737" lon="5.70681">
        <ele>644</ele>
        <time>2019-06-17T10:28:40Z</time>
      </trkpt>
      <trkpt lat="44.24733" lon="5.70682">
        <ele>645</ele>
        <time>2019-06-17T10:28:41Z</time>
      </trkpt>
      <trkpt lat="44.24729" lon="5.70682">
        <ele>646</ele>
        <time>2019-06-17T10:28:42Z</time>
      </trkpt>
      <trkpt lat="44.24724" lon="5.70683">
        <ele>647</ele>
        <time>2019-06-17T10:28:43Z</time>
      </trkpt>
      <trkpt lat="44.2472" lon="5.70683">
        <ele>648</ele>
        <time>2019-06-17T10:28:44Z</time>
      </trkpt>
      <trkpt lat="44.24715" lon="5.70684">
        <ele>649</ele>
        <time>2019-06-17T10:28:45Z</time>
      </trkpt>
      <trkpt lat="44.24711" lon="5.70685">
        <ele>650</ele>
        <time>2019-06-17T10:28:46Z</time>
      </trkpt>
      <trkpt lat="44.24707" lon="5.70686">
        <ele>651</ele>
        <time>2019-06-17T10:28:47Z</time>
      </trkpt>
      <trkpt lat="44.24702" lon="5.70688">
        <ele>652</ele>
        <time>2019-06-17T10:28:48Z</time>
      </trkpt>
      <trkpt lat="44.24698" lon="5.70689">
        <ele>652</ele>
        <time>2019-06-17T10:28:49Z</time>
      </trkpt>
      <trkpt lat="44.24694" lon="5.7069">
        <ele>653</ele>
        <time>2019-06-17T10:28:50Z</time>
      </trkpt>
      <trkpt lat="44.2469" lon="5.70691">
        <ele>653</ele>
        <time>2019-06-17T10:28:51Z</time>
      </trkpt>
      <trkpt lat="44.24686" lon="5.70691">
        <ele>653</ele>
        <time>2019-06-17T10:28:52Z</time>
      </trkpt>
      <trkpt lat="44.24683" lon="5.70691">
        <ele>653</ele>
        <time>2019-06-17T10:28:53Z</time>
      </trkpt>
      <trkpt lat="44.24679" lon="5.70691">
        <ele>654</ele>
        <time>2019-06-17T10:28:54Z</time>
      </trkpt>
      <trkpt lat="44.24675" lon="5.70691">
        <ele>654</ele>
        <time>2019-06-17T10:28:55Z</time>
      </trkpt>
      <trkpt lat="44.24671" lon="5.70692">
        <ele>654</ele>
        <time>2019-06-17T10:28:56Z</time>
      </trkpt>
      <trkpt lat="44.24667" lon="5.70692">
        <ele>654</ele>
        <time>2019-06-17T10:28:57Z</time>
      </trkpt>
      <trkpt lat="44.24663" lon="5.70691">
        <ele>655</ele>
        <time>2019-06-17T10:28:58Z</time>
      </trkpt>
      <trkpt lat="44.24659" lon="5.70692">
        <ele>655</ele>
        <time>2019-06-17T10:28:59Z</time>
      </trkpt>
      <trkpt lat="44.24655" lon="5.70692">
        <ele>656</ele>
        <time>2019-06-17T10:29:00Z</time>
      </trkpt>
      <trkpt lat="44.24651" lon="5.70691">
        <ele>657</ele>
        <time>2019-06-17T10:29:01Z</time>
      </trkpt>
      <trkpt lat="44.24648" lon="5.70692">
        <ele>657</ele>
        <time>2019-06-17T10:29:02Z</time>
      </trkpt>
      <trkpt lat="44.24644" lon="5.70693">
        <ele>658</ele>
        <time>2019-06-17T10:29:03Z</time>
      </trkpt>
      <trkpt lat="44.2464" lon="5.70693">
        <ele>658</ele>
        <time>2019-06-17T10:29:04Z</time>
      </trkpt>
      <trkpt lat="44.24636" lon="5.70693">
        <ele>658</ele>
        <time>2019-06-17T10:29:05Z</time>
      </trkpt>
      <trkpt lat="44.24632" lon="5.70694">
        <ele>659</ele>
        <time>2019-06-17T10:29:06Z</time>
      </trkpt>
      <trkpt lat="44.24628" lon="5.70695">
        <ele>660</ele>
        <time>2019-06-17T10:29:07Z</time>
      </trkpt>
      <trkpt lat="44.24625" lon="5.70697">
        <ele>660</ele>
        <time>2019-06-17T10:29:08Z</time>
      </trkpt>
      <trkpt lat="44.24623" lon="5.70699">
        <ele>661</ele>
        <time>2019-06-17T10:29:09Z</time>
      </trkpt>
      <trkpt lat="44.24621" lon="5.70703">
        <ele>662</ele>
        <time>2019-06-17T10:29:10Z</time>
      </trkpt>
      <trkpt lat="44.2462" lon="5.70707">
        <ele>662</ele>
        <time>2019-06-17T10:29:11Z</time>
      </trkpt>
      <trkpt lat="44.2462" lon="5.70712">
        <ele>663</ele>
        <time>2019-06-17T10:29:12Z</time>
      </trkpt>
      <trkpt lat="44.24621" lon="5.70717">
        <ele>664</ele>
        <time>2019-06-17T10:29:13Z</time>
      </trkpt>
      <trkpt lat="44.24622" lon="5.70722">
        <ele>664</ele>
        <time>2019-06-17T10:29:14Z</time>
      </trkpt>
      <trkpt lat="44.24624" lon="5.70727">
        <ele>665</ele>
        <time>2019-06-17T10:29:15Z</time>
      </trkpt>
      <trkpt lat="44.24627" lon="5.70732">
        <ele>666</ele>
        <time>2019-06-17T10:29:16Z</time>
      </trkpt>
      <trkpt lat="44.24628" lon="5.70737">
        <ele>667</ele>
        <time>2019-06-17T10:29:17Z</time>
      </trkpt>
      <trkpt lat="44.2463" lon="5.70741">
        <ele>668</ele>
        <time>2019-06-17T10:29:18Z</time>
      </trkpt>
      <trkpt lat="44.24632" lon="5.70746">
        <ele>668</ele>
        <time>2019-06-17T10:29:19Z</time>
      </trkpt>
      <trkpt lat="44.24634" lon="5.7075">
        <ele>668</ele>
        <time>2019-06-17T10:29:20Z</time>
      </trkpt>
      <trkpt lat="44.24636" lon="5.70754">
        <ele>669</ele>
        <time>2019-06-17T10:29:21Z</time>
      </trkpt>
      <trkpt lat="44.24638" lon="5.70759">
        <ele>670</ele>
        <time>2019-06-17T10:29:22Z</time>
      </trkpt>
      <trkpt lat="44.2464" lon="5.70764">
        <ele>670</ele>
        <time>2019-06-17T10:29:23Z</time>
      </trkpt>
      <trkpt lat="44.24642" lon="5.70768">
        <ele>670</ele>
        <time>2019-06-17T10:29:24Z</time>
      </trkpt>
      <trkpt lat="44.24644" lon="5.70773">
        <ele>671</ele>
        <time>2019-06-17T10:29:25Z</time>
      </trkpt>
      <trkpt lat="44.24646" lon="5.70777">
        <ele>671</ele>
        <time>2019-06-17T10:29:26Z</time>
      </trkpt>
      <trkpt lat="44.24648" lon="5.70782">
        <ele>671</ele>
        <time>2019-06-17T10:29:27Z</time>
      </trkpt>
      <trkpt lat="44.2465" lon="5.70787">
        <ele>671</ele>
        <time>2019-06-17T10:29:28Z</time>
      </trkpt>
      <trkpt lat="44.24651" lon="5.70792">
        <ele>671</ele>
        <time>2019-06-17T10:29:29Z</time>
      </trkpt>
      <trkpt lat="44.24654" lon="5.70797">
        <ele>671</ele>
        <time>2019-06-17T10:29:30Z</time>
      </trkpt>
      <trkpt lat="44.24657" lon="5.70801">
        <ele>671</ele>
        <time>2019-06-17T10:29:31Z</time>
      </trkpt>
      <trkpt lat="44.24659" lon="5.70806">
        <ele>671</ele>
        <time>2019-06-17T10:29:32Z</time>
      </trkpt>
      <trkpt lat="44.24663" lon="5.70811">
        <ele>671</ele>
        <time>2019-06-17T10:29:33Z</time>
      </trkpt>
      <trkpt lat="44.24667" lon="5.70815">
        <ele>671</ele>
        <time>2019-06-17T10:29:34Z</time>
      </trkpt>
      <trkpt lat="44.24671" lon="5.70819">
        <ele>671</ele>
        <time>2019-06-17T10:29:35Z</time>
      </trkpt>
      <trkpt lat="44.24676" lon="5.70823">
        <ele>671</ele>
        <time>2019-06-17T10:29:36Z</time>
      </trkpt>
      <trkpt lat="44.24681" lon="5.70827">
        <ele>671</ele>
        <time>2019-06-17T10:29:37Z</time>
      </trkpt>
      <trkpt lat="44.24687" lon="5.70831">
        <ele>671</ele>
        <time>2019-06-17T10:29:38Z</time>
      </trkpt>
      <trkpt lat="44.24692" lon="5.70834">
        <ele>671</ele>
        <time>2019-06-17T10:29:39Z</time>
      </trkpt>
      <trkpt lat="44.24698" lon="5.70837">
        <ele>671</ele>
        <time>2019-06-17T10:29:40Z</time>
      </trkpt>
      <trkpt lat="44.24704" lon="5.70841">
        <ele>671</ele>
        <time>2019-06-17T10:29:41Z</time>
      </trkpt>
      <trkpt lat="44.2471" lon="5.70844">
        <ele>671</ele>
        <time>2019-06-17T10:29:42Z</time>
      </trkpt>
      <trkpt lat="44.24717" lon="5.70848">
        <ele>671</ele>
        <time>2019-06-17T10:29:43Z</time>
      </trkpt>
      <trkpt lat="44.24723" lon="5.70852">
        <ele>671</ele>
        <time>2019-06-17T10:29:44Z</time>
      </trkpt>
      <trkpt lat="44.2473" lon="5.70856">
        <ele>671</ele>
        <time>2019-06-17T10:29:45Z</time>
      </trkpt>
      <trkpt lat="44.24736" lon="5.70859">
        <ele>671</ele>
        <time>2019-06-17T10:29:46Z</time>
      </trkpt>
      <trkpt lat="44.24743" lon="5.70863">
        <ele>670</ele>
        <time>2019-06-17T10:29:47Z</time>
      </trkpt>
      <trkpt lat="44.24749" lon="5.70868">
        <ele>670</ele>
        <time>2019-06-17T10:29:48Z</time>
      </trkpt>
      <trkpt lat="44.24755" lon="5.70873">
        <ele>670</ele>
        <time>2019-06-17T10:29:49Z</time>
      </trkpt>
      <trkpt lat="44.24762" lon="5.70878">
        <ele>670</ele>
        <time>2019-06-17T10:29:50Z</time>
      </trkpt>
      <trkpt lat="44.24768" lon="5.70884">
        <ele>670</ele>
        <time>2019-06-17T10:29:51Z</time>
      </trkpt>
      <trkpt lat="44.24775" lon="5.7089">
        <ele>670</ele>
        <time>2019-06-17T10:29:52Z</time>
      </trkpt>
      <trkpt lat="44.24781" lon="5.70896">
        <ele>670</ele>
        <time>2019-06-17T10:29:53Z</time>
      </trkpt>
      <trkpt lat="44.24786" lon="5.70902">
        <ele>669</ele>
        <time>2019-06-17T10:29:54Z</time>
      </trkpt>
      <trkpt lat="44.24792" lon="5.70908">
        <ele>669</ele>
        <time>2019-06-17T10:29:55Z</time>
      </trkpt>
      <trkpt lat="44.24797" lon="5.70915">
        <ele>669</ele>
        <time>2019-06-17T10:29:56Z</time>
      </trkpt>
      <trkpt lat="44.24802" lon="5.70921">
        <ele>668</ele>
        <time>2019-06-17T10:29:57Z</time>
      </trkpt>
      <trkpt lat="44.24807" lon="5.70928">
        <ele>668</ele>
        <time>2019-06-17T10:29:58Z</time>
      </trkpt>
      <trkpt lat="44.24812" lon="5.70934">
        <ele>667</ele>
        <time>2019-06-17T10:29:59Z</time>
      </trkpt>
      <trkpt lat="44.24817" lon="5.70939">
        <ele>667</ele>
        <time>2019-06-17T10:30:00Z</time>
      </trkpt>
      <trkpt lat="44.24822" lon="5.70944">
        <ele>667</ele>
        <time>2019-06-17T10:30:01Z</time>
      </trkpt>
      <trkpt lat="44.24827" lon="5.7095">
        <ele>666</ele>
        <time>2019-06-17T10:30:02Z</time>
      </trkpt>
      <trkpt lat="44.24832" lon="5.70956">
        <ele>666</ele>
        <time>2019-06-17T10:30:03Z</time>
      </trkpt>
      <trkpt lat="44.24838" lon="5.70961">
        <ele>665</ele>
        <time>2019-06-17T10:30:04Z</time>
      </trkpt>
      <trkpt lat="44.24843" lon="5.70967">
        <ele>665</ele>
        <time>2019-06-17T10:30:05Z</time>
      </trkpt>
      <trkpt lat="44.24849" lon="5.70973">
        <ele>664</ele>
        <time>2019-06-17T10:30:06Z</time>
      </trkpt>
      <trkpt lat="44.24855" lon="5.70978">
        <ele>664</ele>
        <time>2019-06-17T10:30:07Z</time>
      </trkpt>
      <trkpt lat="44.2486" lon="5.70985">
        <ele>664</ele>
        <time>2019-06-17T10:30:08Z</time>
      </trkpt>
      <trkpt lat="44.24866" lon="5.70991">
        <ele>663</ele>
        <time>2019-06-17T10:30:09Z</time>
      </trkpt>
      <trkpt lat="44.24871" lon="5.70997">
        <ele>663</ele>
        <time>2019-06-17T10:30:10Z</time>
      </trkpt>
      <trkpt lat="44.24877" lon="5.71003">
        <ele>663</ele>
        <time>2019-06-17T10:30:11Z</time>
      </trkpt>
      <trkpt lat="44.24883" lon="5.7101">
        <ele>663</ele>
        <time>2019-06-17T10:30:12Z</time>
      </trkpt>
      <trkpt lat="44.24888" lon="5.71016">
        <ele>663</ele>
        <time>2019-06-17T10:30:13Z</time>
      </trkpt>
      <trkpt lat="44.24893" lon="5.71023">
        <ele>663</ele>
        <time>2019-06-17T10:30:14Z</time>
      </trkpt>
      <trkpt lat="44.24897" lon="5.71029">
        <ele>663</ele>
        <time>2019-06-17T10:30:15Z</time>
      </trkpt>
      <trkpt lat="44.24902" lon="5.71036">
        <ele>663</ele>
        <time>2019-06-17T10:30:16Z</time>
      </trkpt>
      <trkpt lat="44.24907" lon="5.71043">
        <ele>663</ele>
        <time>2019-06-17T10:30:17Z</time>
      </trkpt>
      <trkpt lat="44.24911" lon="5.71049">
        <ele>663</ele>
        <time>2019-06-17T10:30:18Z</time>
      </trkpt>
      <trkpt lat="44.24916" lon="5.71056">
        <ele>663</ele>
        <time>2019-06-17T10:30:19Z</time>
      </trkpt>
      <trkpt lat="44.24921" lon="5.71063">
        <ele>663</ele>
        <time>2019-06-17T10:30:20Z</time>
      </trkpt>
      <trkpt lat="44.24927" lon="5.7107">
        <ele>662</ele>
        <time>2019-06-17T10:30:21Z</time>
      </trkpt>
      <trkpt lat="44.24933" lon="5.71078">
        <ele>662</ele>
        <time>2019-06-17T10:30:22Z</time>
      </trkpt>
      <trkpt lat="44.24938" lon="5.71086">
        <ele>662</ele>
        <time>2019-06-17T10:30:23Z</time>
      </trkpt>
      <trkpt lat="44.24943" lon="5.71093">
        <ele>661</ele>
        <time>2019-06-17T10:30:24Z</time>
      </trkpt>
      <trkpt lat="44.24949" lon="5.71102">
        <ele>661</ele>
        <time>2019-06-17T10:30:25Z</time>
      </trkpt>
      <trkpt lat="44.24955" lon="5.7111">
        <ele>660</ele>
        <time>2019-06-17T10:30:26Z</time>
      </trkpt>
      <trkpt lat="44.24961" lon="5.71118">
        <ele>660</ele>
        <time>2019-06-17T10:30:27Z</time>
      </trkpt>
      <trkpt lat="44.24967" lon="5.71127">
        <ele>659</ele>
        <time>2019-06-17T10:30:28Z</time>
      </trkpt>
      <trkpt lat="44.24974" lon="5.71136">
        <ele>659</ele>
        <time>2019-06-17T10:30:29Z</time>
      </trkpt>
      <trkpt lat="44.2498" lon="5.71145">
        <ele>659</ele>
        <time>2019-06-17T10:30:30Z</time>
      </trkpt>
      <trkpt lat="44.24987" lon="5.71155">
        <ele>659</ele>
        <time>2019-06-17T10:30:31Z</time>
      </trkpt>
      <trkpt lat="44.24994" lon="5.71165">
        <ele>659</ele>
        <time>2019-06-17T10:30:32Z</time>
      </trkpt>
      <trkpt lat="44.25" lon="5.71174">
        <ele>659</ele>
        <time>2019-06-17T10:30:33Z</time>
      </trkpt>
      <trkpt lat="44.25007" lon="5.71184">
        <ele>658</ele>
        <time>2019-06-17T10:30:34Z</time>
      </trkpt>
      <trkpt lat="44.25015" lon="5.71195">
        <ele>658</ele>
        <time>2019-06-17T10:30:35Z</time>
      </trkpt>
      <trkpt lat="44.25022" lon="5.71206">
        <ele>658</ele>
        <time>2019-06-17T10:30:36Z</time>
      </trkpt>
      <trkpt lat="44.25029" lon="5.71218">
        <ele>658</ele>
        <time>2019-06-17T10:30:37Z</time>
      </trkpt>
      <trkpt lat="44.25035" lon="5.7123">
        <ele>658</ele>
        <time>2019-06-17T10:30:38Z</time>
      </trkpt>
      <trkpt lat="44.2504" lon="5.71243">
        <ele>658</ele>
        <time>2019-06-17T10:30:39Z</time>
      </trkpt>
      <trkpt lat="44.25045" lon="5.71257">
        <ele>657</ele>
        <time>2019-06-17T10:30:40Z</time>
      </trkpt>
      <trkpt lat="44.2505" lon="5.71271">
        <ele>657</ele>
        <time>2019-06-17T10:30:41Z</time>
      </trkpt>
      <trkpt lat="44.25055" lon="5.71285">
        <ele>657</ele>
        <time>2019-06-17T10:30:42Z</time>
      </trkpt>
      <trkpt lat="44.2506" lon="5.71299">
        <ele>657</ele>
        <time>2019-06-17T10:30:43Z</time>
      </trkpt>
      <trkpt lat="44.25066" lon="5.71312">
        <ele>656</ele>
        <time>2019-06-17T10:30:44Z</time>
      </trkpt>
      <trkpt lat="44.25072" lon="5.71326">
        <ele>656</ele>
        <time>2019-06-17T10:30:45Z</time>
      </trkpt>
      <trkpt lat="44.25078" lon="5.7134">
        <ele>655</ele>
        <time>2019-06-17T10:30:46Z</time>
      </trkpt>
      <trkpt lat="44.25084" lon="5.71353">
        <ele>655</ele>
        <time>2019-06-17T10:30:47Z</time>
      </trkpt>
      <trkpt lat="44.25089" lon="5.71366">
        <ele>654</ele>
        <time>2019-06-17T10:30:48Z</time>
      </trkpt>
      <trkpt lat="44.25094" lon="5.71379">
        <ele>654</ele>
        <time>2019-06-17T10:30:49Z</time>
      </trkpt>
      <trkpt lat="44.25099" lon="5.71391">
        <ele>653</ele>
        <time>2019-06-17T10:30:50Z</time>
      </trkpt>
      <trkpt lat="44.25103" lon="5.71402">
        <ele>653</ele>
        <time>2019-06-17T10:30:51Z</time>
      </trkpt>
      <trkpt lat="44.25108" lon="5.71413">
        <ele>653</ele>
        <time>2019-06-17T10:30:52Z</time>
      </trkpt>
      <trkpt lat="44.25113" lon="5.71423">
        <ele>653</ele>
        <time>2019-06-17T10:30:53Z</time>
      </trkpt>
      <trkpt lat="44.25119" lon="5.71432">
        <ele>653</ele>
        <time>2019-06-17T10:30:54Z</time>
      </trkpt>
      <trkpt lat="44.25126" lon="5.71441">
        <ele>653</ele>
        <time>2019-06-17T10:30:55Z</time>
      </trkpt>
      <trkpt lat="44.25133" lon="5.71449">
        <ele>653</ele>
        <time>2019-06-17T10:30:56Z</time>
      </trkpt>
      <trkpt lat="44.25139" lon="5.71456">
        <ele>653</ele>
        <time>2019-06-17T10:30:57Z</time>
      </trkpt>
      <trkpt lat="44.25146" lon="5.71463">
        <ele>653</ele>
        <time>2019-06-17T10:30:58Z</time>
      </trkpt>
      <trkpt lat="44.25153" lon="5.7147">
        <ele>653</ele>
        <time>2019-06-17T10:30:59Z</time>
      </trkpt>
      <trkpt lat="44.25161" lon="5.71477">
        <ele>653</ele>
        <time>2019-06-17T10:31:00Z</time>
      </trkpt>
      <trkpt lat="44.25168" lon="5.71485">
        <ele>653</ele>
        <time>2019-06-17T10:31:01Z</time>
      </trkpt>
      <trkpt lat="44.25176" lon="5.71493">
        <ele>653</ele>
        <time>2019-06-17T10:31:02Z</time>
      </trkpt>
      <trkpt lat="44.25183" lon="5.715">
        <ele>653</ele>
        <time>2019-06-17T10:31:03Z</time>
      </trkpt>
      <trkpt lat="44.2519" lon="5.71507">
        <ele>653</ele>
        <time>2019-06-17T10:31:04Z</time>
      </trkpt>
      <trkpt lat="44.25196" lon="5.71513">
        <ele>653</ele>
        <time>2019-06-17T10:31:05Z</time>
      </trkpt>
      <trkpt lat="44.25202" lon="5.7152">
        <ele>653</ele>
        <time>2019-06-17T10:31:06Z</time>
      </trkpt>
      <trkpt lat="44.25209" lon="5.71526">
        <ele>653</ele>
        <time>2019-06-17T10:31:07Z</time>
      </trkpt>
      <trkpt lat="44.25215" lon="5.71532">
        <ele>653</ele>
        <time>2019-06-17T10:31:08Z</time>
      </trkpt>
      <trkpt lat="44.25221" lon="5.71538">
        <ele>653</ele>
        <time>2019-06-17T10:31:09Z</time>
      </trkpt>
      <trkpt lat="44.25228" lon="5.71545">
        <ele>653</ele>
        <time>2019-06-17T10:31:10Z</time>
      </trkpt>
      <trkpt lat="44.25233" lon="5.7155">
        <ele>653</ele>
        <time>2019-06-17T10:31:11Z</time>
      </trkpt>
      <trkpt lat="44.2524" lon="5.71556">
        <ele>653</ele>
        <time>2019-06-17T10:31:12Z</time>
      </trkpt>
      <trkpt lat="44.25246" lon="5.71562">
        <ele>653</ele>
        <time>2019-06-17T10:31:13Z</time>
      </trkpt>
      <trkpt lat="44.25252" lon="5.71568">
        <ele>652</ele>
        <time>2019-06-17T10:31:14Z</time>
      </trkpt>
      <trkpt lat="44.25259" lon="5.71575">
        <ele>651</ele>
        <time>2019-06-17T10:31:15Z</time>
      </trkpt>
      <trkpt lat="44.25264" lon="5.71582">
        <ele>650</ele>
        <time>2019-06-17T10:31:16Z</time>
      </trkpt>
      <trkpt lat="44.2527" lon="5.71589">
        <ele>650</ele>
        <time>2019-06-17T10:31:17Z</time>
      </trkpt>
      <trkpt lat="44.25277" lon="5.71596">
        <ele>649</ele>
        <time>2019-06-17T10:31:18Z</time>
      </trkpt>
      <trkpt lat="44.25283" lon="5.71604">
        <ele>648</ele>
        <time>2019-06-17T10:31:19Z</time>
      </trkpt>
      <trkpt lat="44.25288" lon="5.7161">
        <ele>647</ele>
        <time>2019-06-17T10:31:20Z</time>
      </trkpt>
      <trkpt lat="44.25295" lon="5.71618">
        <ele>646</ele>
        <time>2019-06-17T10:31:21Z</time>
      </trkpt>
      <trkpt lat="44.25301" lon="5.71625">
        <ele>645</ele>
        <time>2019-06-17T10:31:22Z</time>
      </trkpt>
      <trkpt lat="44.25307" lon="5.71632">
        <ele>644</ele>
        <time>2019-06-17T10:31:23Z</time>
      </trkpt>
      <trkpt lat="44.25313" lon="5.71639">
        <ele>643</ele>
        <time>2019-06-17T10:31:24Z</time>
      </trkpt>
      <trkpt lat="44.25319" lon="5.71647">
        <ele>643</ele>
        <time>2019-06-17T10:31:25Z</time>
      </trkpt>
      <trkpt lat="44.25325" lon="5.71654">
        <ele>643</ele>
        <time>2019-06-17T10:31:26Z</time>
      </trkpt>
      <trkpt lat="44.25332" lon="5.71661">
        <ele>643</ele>
        <time>2019-06-17T10:31:27Z</time>
      </trkpt>
      <trkpt lat="44.25338" lon="5.71667">
        <ele>643</ele>
        <time>2019-06-17T10:31:28Z</time>
      </trkpt>
      <trkpt lat="44.25345" lon="5.71673">
        <ele>643</ele>
        <time>2019-06-17T10:31:29Z</time>
      </trkpt>
      <trkpt lat="44.25351" lon="5.71679">
        <ele>643</ele>
        <time>2019-06-17T10:31:30Z</time>
      </trkpt>
      <trkpt lat="44.25358" lon="5.71686">
        <ele>643</ele>
        <time>2019-06-17T10:31:31Z</time>
      </trkpt>
      <trkpt lat="44.25365" lon="5.71692">
        <ele>643</ele>
        <time>2019-06-17T10:31:32Z</time>
      </trkpt>
      <trkpt lat="44.25373" lon="5.71698">
        <ele>643</ele>
        <time>2019-06-17T10:31:33Z</time>
      </trkpt>
      <trkpt lat="44.25381" lon="5.71703">
        <ele>643</ele>
        <time>2019-06-17T10:31:34Z</time>
      </trkpt>
      <trkpt lat="44.25389" lon="5.71707">
        <ele>643</ele>
        <time>2019-06-17T10:31:35Z</time>
      </trkpt>
      <trkpt lat="44.25397" lon="5.7171">
        <ele>643</ele>
        <time>2019-06-17T10:31:36Z</time>
      </trkpt>
      <trkpt lat="44.25405" lon="5.71714">
        <ele>643</ele>
        <time>2019-06-17T10:31:37Z</time>
      </trkpt>
      <trkpt lat="44.25412" lon="5.71718">
        <ele>643</ele>
        <time>2019-06-17T10:31:38Z</time>
      </trkpt>
      <trkpt lat="44.25418" lon="5.71722">
        <ele>643</ele>
        <time>2019-06-17T10:31:39Z</time>
      </trkpt>
      <trkpt lat="44.25425" lon="5.71725">
        <ele>643</ele>
        <time>2019-06-17T10:31:40Z</time>
      </trkpt>
      <trkpt lat="44.25432" lon="5.71729">
        <ele>643</ele>
        <time>2019-06-17T10:31:41Z</time>
      </trkpt>
      <trkpt lat="44.25439" lon="5.71732">
        <ele>642</ele>
        <time>2019-06-17T10:31:42Z</time>
      </trkpt>
      <trkpt lat="44.25445" lon="5.71736">
        <ele>641</ele>
        <time>2019-06-17T10:31:43Z</time>
      </trkpt>
      <trkpt lat="44.25452" lon="5.71739">
        <ele>640</ele>
        <time>2019-06-17T10:31:44Z</time>
      </trkpt>
      <trkpt lat="44.25458" lon="5.71743">
        <ele>639</ele>
        <time>2019-06-17T10:31:45Z</time>
      </trkpt>
      <trkpt lat="44.25465" lon="5.71746">
        <ele>637</ele>
        <time>2019-06-17T10:31:46Z</time>
      </trkpt>
      <trkpt lat="44.25471" lon="5.7175">
        <ele>635</ele>
        <time>2019-06-17T10:31:47Z</time>
      </trkpt>
      <trkpt lat="44.25478" lon="5.71754">
        <ele>633</ele>
        <time>2019-06-17T10:31:48Z</time>
      </trkpt>
      <trkpt lat="44.25485" lon="5.71758">
        <ele>631</ele>
        <time>2019-06-17T10:31:49Z</time>
      </trkpt>
      <trkpt lat="44.25492" lon="5.71761">
        <ele>629</ele>
        <time>2019-06-17T10:31:50Z</time>
      </trkpt>
      <trkpt lat="44.25498" lon="5.71764">
        <ele>627</ele>
        <time>2019-06-17T10:31:51Z</time>
      </trkpt>
      <trkpt lat="44.25505" lon="5.71768">
        <ele>625</ele>
        <time>2019-06-17T10:31:52Z</time>
      </trkpt>
      <trkpt lat="44.25512" lon="5.71772">
        <ele>623</ele>
        <time>2019-06-17T10:31:53Z</time>
      </trkpt>
      <trkpt lat="44.25518" lon="5.71776">
        <ele>621</ele>
        <time>2019-06-17T10:31:54Z</time>
      </trkpt>
      <trkpt lat="44.25525" lon="5.71781">
        <ele>620</ele>
        <time>2019-06-17T10:31:55Z</time>
      </trkpt>
      <trkpt lat="44.25532" lon="5.71787">
        <ele>619</ele>
        <time>2019-06-17T10:31:56Z</time>
      </trkpt>
      <trkpt lat="44.25538" lon="5.71793">
        <ele>618</ele>
        <time>2019-06-17T10:31:57Z</time>
      </trkpt>
      <trkpt lat="44.25545" lon="5.71798">
        <ele>617</ele>
        <time>2019-06-17T10:31:58Z</time>
      </trkpt>
      <trkpt lat="44.25551" lon="5.71803">
        <ele>616</ele>
        <time>2019-06-17T10:31:59Z</time>
      </trkpt>
      <trkpt lat="44.25557" lon="5.71809">
        <ele>615</ele>
        <time>2019-06-17T10:32:00Z</time>
      </trkpt>
      <trkpt lat="44.25564" lon="5.71815">
        <ele>614</ele>
        <time>2019-06-17T10:32:01Z</time>
      </trkpt>
      <trkpt lat="44.25571" lon="5.71821">
        <ele>613</ele>
        <time>2019-06-17T10:32:02Z</time>
      </trkpt>
      <trkpt lat="44.25578" lon="5.71828">
        <ele>613</ele>
        <time>2019-06-17T10:32:03Z</time>
      </trkpt>
      <trkpt lat="44.25584" lon="5.71834">
        <ele>613</ele>
        <time>2019-06-17T10:32:04Z</time>
      </trkpt>
      <trkpt lat="44.25591" lon="5.7184">
        <ele>613</ele>
        <time>2019-06-17T10:32:05Z</time>
      </trkpt>
      <trkpt lat="44.25597" lon="5.71847">
        <ele>613</ele>
        <time>2019-06-17T10:32:06Z</time>
      </trkpt>
      <trkpt lat="44.25604" lon="5.71854">
        <ele>613</ele>
        <time>2019-06-17T10:32:07Z</time>
      </trkpt>
      <trkpt lat="44.25611" lon="5.71861">
        <ele>613</ele>
        <time>2019-06-17T10:32:08Z</time>
      </trkpt>
      <trkpt lat="44.25618" lon="5.71867">
        <ele>613</ele>
        <time>2019-06-17T10:32:09Z</time>
      </trkpt>
      <trkpt lat="44.25624" lon="5.71874">
        <ele>613</ele>
        <time>2019-06-17T10:32:10Z</time>
      </trkpt>
      <trkpt lat="44.25631" lon="5.71879">
        <ele>613</ele>
        <time>2019-06-17T10:32:11Z</time>
      </trkpt>
      <trkpt lat="44.25638" lon="5.71885">
        <ele>613</ele>
        <time>2019-06-17T10:32:12Z</time>
      </trkpt>
      <trkpt lat="44.25646" lon="5.7189">
        <ele>614</ele>
        <time>2019-06-17T10:32:13Z</time>
      </trkpt>
      <trkpt lat="44.25654" lon="5.71894">
        <ele>615</ele>
        <time>2019-06-17T10:32:14Z</time>
      </trkpt>
      <trkpt lat="44.25662" lon="5.71899">
        <ele>616</ele>
        <time>2019-06-17T10:32:15Z</time>
      </trkpt>
      <trkpt lat="44.2567" lon="5.71903">
        <ele>617</ele>
        <time>2019-06-17T10:32:16Z</time>
      </trkpt>
      <trkpt lat="44.25678" lon="5.71907">
        <ele>618</ele>
        <time>2019-06-17T10:32:17Z</time>
      </trkpt>
      <trkpt lat="44.25685" lon="5.71909">
        <ele>619</ele>
        <time>2019-06-17T10:32:18Z</time>
      </trkpt>
      <trkpt lat="44.25691" lon="5.71913">
        <ele>620</ele>
        <time>2019-06-17T10:32:19Z</time>
      </trkpt>
      <trkpt lat="44.25698" lon="5.71917">
        <ele>620</ele>
        <time>2019-06-17T10:32:20Z</time>
      </trkpt>
      <trkpt lat="44.25705" lon="5.71922">
        <ele>620</ele>
        <time>2019-06-17T10:32:21Z</time>
      </trkpt>
      <trkpt lat="44.25711" lon="5.71927">
        <ele>620</ele>
        <time>2019-06-17T10:32:22Z</time>
      </trkpt>
      <trkpt lat="44.25718" lon="5.71933">
        <ele>620</ele>
        <time>2019-06-17T10:32:23Z</time>
      </trkpt>
      <trkpt lat="44.25724" lon="5.71939">
        <ele>620</ele>
        <time>2019-06-17T10:32:24Z</time>
      </trkpt>
      <trkpt lat="44.2573" lon="5.71945">
        <ele>620</ele>
        <time>2019-06-17T10:32:25Z</time>
      </trkpt>
      <trkpt lat="44.25737" lon="5.71951">
        <ele>620</ele>
        <time>2019-06-17T10:32:26Z</time>
      </trkpt>
      <trkpt lat="44.25743" lon="5.71956">
        <ele>620</ele>
        <time>2019-06-17T10:32:27Z</time>
      </trkpt>
      <trkpt lat="44.25749" lon="5.71961">
        <ele>619</ele>
        <time>2019-06-17T10:32:28Z</time>
      </trkpt>
      <trkpt lat="44.25756" lon="5.71966">
        <ele>618</ele>
        <time>2019-06-17T10:32:29Z</time>
      </trkpt>
      <trkpt lat="44.25762" lon="5.7197">
        <ele>617</ele>
        <time>2019-06-17T10:32:30Z</time>
      </trkpt>
      <trkpt lat="44.25769" lon="5.71974">
        <ele>616</ele>
        <time>2019-06-17T10:32:31Z</time>
      </trkpt>
      <trkpt lat="44.25776" lon="5.71978">
        <ele>615</ele>
        <time>2019-06-17T10:32:32Z</time>
      </trkpt>
      <trkpt lat="44.25782" lon="5.71983">
        <ele>614</ele>
        <time>2019-06-17T10:32:33Z</time>
      </trkpt>
      <trkpt lat="44.2579" lon="5.71987">
        <ele>613</ele>
        <time>2019-06-17T10:32:34Z</time>
      </trkpt>
      <trkpt lat="44.25797" lon="5.71992">
        <ele>612</ele>
        <time>2019-06-17T10:32:35Z</time>
      </trkpt>
      <trkpt lat="44.25804" lon="5.71997">
        <ele>611</ele>
        <time>2019-06-17T10:32:36Z</time>
      </trkpt>
      <trkpt lat="44.25812" lon="5.72002">
        <ele>610</ele>
        <time>2019-06-17T10:32:37Z</time>
      </trkpt>
      <trkpt lat="44.25819" lon="5.72007">
        <ele>609</ele>
        <time>2019-06-17T10:32:38Z</time>
      </trkpt>
      <trkpt lat="44.25827" lon="5.72012">
        <ele>608</ele>
        <time>2019-06-17T10:32:39Z</time>
      </trkpt>
      <trkpt lat="44.25834" lon="5.72017">
        <ele>608</ele>
        <time>2019-06-17T10:32:40Z</time>
      </trkpt>
      <trkpt lat="44.25841" lon="5.72022">
        <ele>608</ele>
        <time>2019-06-17T10:32:41Z</time>
      </trkpt>
      <trkpt lat="44.25848" lon="5.72027">
        <ele>608</ele>
        <time>2019-06-17T10:32:42Z</time>
      </trkpt>
      <trkpt lat="44.25856" lon="5.72032">
        <ele>608</ele>
        <time>2019-06-17T10:32:43Z</time>
      </trkpt>
      <trkpt lat="44.25863" lon="5.72037">
        <ele>608</ele>
        <time>2019-06-17T10:32:44Z</time>
      </trkpt>
      <trkpt lat="44.2587" lon="5.72042">
        <ele>608</ele>
        <time>2019-06-17T10:32:45Z</time>
      </trkpt>
      <trkpt lat="44.25877" lon="5.72046">
        <ele>608</ele>
        <time>2019-06-17T10:32:46Z</time>
      </trkpt>
      <trkpt lat="44.25884" lon="5.72052">
        <ele>608</ele>
        <time>2019-06-17T10:32:47Z</time>
      </trkpt>
      <trkpt lat="44.2589" lon="5.72059">
        <ele>608</ele>
        <time>2019-06-17T10:32:48Z</time>
      </trkpt>
      <trkpt lat="44.25896" lon="5.72065">
        <ele>608</ele>
        <time>2019-06-17T10:32:49Z</time>
      </trkpt>
      <trkpt lat="44.25903" lon="5.72073">
        <ele>608</ele>
        <time>2019-06-17T10:32:50Z</time>
      </trkpt>
      <trkpt lat="44.25908" lon="5.72082">
        <ele>608</ele>
        <time>2019-06-17T10:32:51Z</time>
      </trkpt>
      <trkpt lat="44.25914" lon="5.72091">
        <ele>608</ele>
        <time>2019-06-17T10:32:52Z</time>
      </trkpt>
      <trkpt lat="44.25919" lon="5.72099">
        <ele>608</ele>
        <time>2019-06-17T10:32:53Z</time>
      </trkpt>
      <trkpt lat="44.25924" lon="5.72108">
        <ele>608</ele>
        <time>2019-06-17T10:32:54Z</time>
      </trkpt>
      <trkpt lat="44.25929" lon="5.72116">
        <ele>609</ele>
        <time>2019-06-17T10:32:55Z</time>
      </trkpt>
      <trkpt lat="44.25934" lon="5.72124">
        <ele>610</ele>
        <time>2019-06-17T10:32:56Z</time>
      </trkpt>
      <trkpt lat="44.25939" lon="5.72132">
        <ele>611</ele>
        <time>2019-06-17T10:32:57Z</time>
      </trkpt>
      <trkpt lat="44.25943" lon="5.72141">
        <ele>612</ele>
        <time>2019-06-17T10:32:58Z</time>
      </trkpt>
      <trkpt lat="44.25948" lon="5.72151">
        <ele>614</ele>
        <time>2019-06-17T10:32:59Z</time>
      </trkpt>
      <trkpt lat="44.25952" lon="5.72159">
        <ele>616</ele>
        <time>2019-06-17T10:33:00Z</time>
      </trkpt>
      <trkpt lat="44.25956" lon="5.72168">
        <ele>618</ele>
        <time>2019-06-17T10:33:01Z</time>
      </trkpt>
      <trkpt lat="44.2596" lon="5.72177">
        <ele>620</ele>
        <time>2019-06-17T10:33:02Z</time>
      </trkpt>
      <trkpt lat="44.25964" lon="5.72186">
        <ele>622</ele>
        <time>2019-06-17T10:33:03Z</time>
      </trkpt>
      <trkpt lat="44.25968" lon="5.72194">
        <ele>624</ele>
        <time>2019-06-17T10:33:04Z</time>
      </trkpt>
      <trkpt lat="44.25972" lon="5.72202">
        <ele>625</ele>
        <time>2019-06-17T10:33:05Z</time>
      </trkpt>
      <trkpt lat="44.25976" lon="5.7221">
        <ele>627</ele>
        <time>2019-06-17T10:33:06Z</time>
      </trkpt>
      <trkpt lat="44.2598" lon="5.72219">
        <ele>628</ele>
        <time>2019-06-17T10:33:07Z</time>
      </trkpt>
      <trkpt lat="44.25985" lon="5.72227">
        <ele>630</ele>
        <time>2019-06-17T10:33:08Z</time>
      </trkpt>
      <trkpt lat="44.25988" lon="5.72235">
        <ele>631</ele>
        <time>2019-06-17T10:33:09Z</time>
      </trkpt>
      <trkpt lat="44.25991" lon="5.72242">
        <ele>632</ele>
        <time>2019-06-17T10:33:10Z</time>
      </trkpt>
      <trkpt lat="44.25995" lon="5.7225">
        <ele>633</ele>
        <time>2019-06-17T10:33:11Z</time>
      </trkpt>
      <trkpt lat="44.25999" lon="5.72258">
        <ele>634</ele>
        <time>2019-06-17T10:33:12Z</time>
      </trkpt>
      <trkpt lat="44.26003" lon="5.72267">
        <ele>635</ele>
        <time>2019-06-17T10:33:13Z</time>
      </trkpt>
      <trkpt lat="44.26007" lon="5.72275">
        <ele>636</ele>
        <time>2019-06-17T10:33:14Z</time>
      </trkpt>
      <trkpt lat="44.26011" lon="5.72284">
        <ele>636</ele>
        <time>2019-06-17T10:33:15Z</time>
      </trkpt>
      <trkpt lat="44.26015" lon="5.72292">
        <ele>636</ele>
        <time>2019-06-17T10:33:16Z</time>
      </trkpt>
      <trkpt lat="44.26019" lon="5.72301">
        <ele>636</ele>
        <time>2019-06-17T10:33:17Z</time>
      </trkpt>
      <trkpt lat="44.26023" lon="5.7231">
        <ele>636</ele>
        <time>2019-06-17T10:33:18Z</time>
      </trkpt>
      <trkpt lat="44.26028" lon="5.72319">
        <ele>637</ele>
        <time>2019-06-17T10:33:19Z</time>
      </trkpt>
      <trkpt lat="44.26033" lon="5.72328">
        <ele>637</ele>
        <time>2019-06-17T10:33:20Z</time>
      </trkpt>
      <trkpt lat="44.26037" lon="5.72338">
        <ele>638</ele>
        <time>2019-06-17T10:33:21Z</time>
      </trkpt>
      <trkpt lat="44.26041" lon="5.72346">
        <ele>639</ele>
        <time>2019-06-17T10:33:22Z</time>
      </trkpt>
      <trkpt lat="44.26046" lon="5.72355">
        <ele>640</ele>
        <time>2019-06-17T10:33:23Z</time>
      </trkpt>
      <trkpt lat="44.26051" lon="5.72364">
        <ele>641</ele>
        <time>2019-06-17T10:33:24Z</time>
      </trkpt>
      <trkpt lat="44.26055" lon="5.72372">
        <ele>642</ele>
        <time>2019-06-17T10:33:25Z</time>
      </trkpt>
      <trkpt lat="44.26059" lon="5.72382">
        <ele>643</ele>
        <time>2019-06-17T10:33:26Z</time>
      </trkpt>
      <trkpt lat="44.26063" lon="5.72391">
        <ele>644</ele>
        <time>2019-06-17T10:33:27Z</time>
      </trkpt>
      <trkpt lat="44.26067" lon="5.724">
        <ele>644</ele>
        <time>2019-06-17T10:33:28Z</time>
      </trkpt>
      <trkpt lat="44.2607" lon="5.7241">
        <ele>644</ele>
        <time>2019-06-17T10:33:29Z</time>
      </trkpt>
      <trkpt lat="44.26073" lon="5.72419">
        <ele>645</ele>
        <time>2019-06-17T10:33:30Z</time>
      </trkpt>
      <trkpt lat="44.26076" lon="5.72429">
        <ele>645</ele>
        <time>2019-06-17T10:33:31Z</time>
      </trkpt>
      <trkpt lat="44.26078" lon="5.72439">
        <ele>645</ele>
        <time>2019-06-17T10:33:32Z</time>
      </trkpt>
      <trkpt lat="44.2608" lon="5.72448">
        <ele>645</ele>
        <time>2019-06-17T10:33:33Z</time>
      </trkpt>
      <trkpt lat="44.26083" lon="5.72458">
        <ele>645</ele>
        <time>2019-06-17T10:33:34Z</time>
      </trkpt>
      <trkpt lat="44.26086" lon="5.72468">
        <ele>645</ele>
        <time>2019-06-17T10:33:35Z</time>
      </trkpt>
      <trkpt lat="44.26088" lon="5.72477">
        <ele>645</ele>
        <time>2019-06-17T10:33:36Z</time>
      </trkpt>
      <trkpt lat="44.2609" lon="5.72487">
        <ele>645</ele>
        <time>2019-06-17T10:33:37Z</time>
      </trkpt>
      <trkpt lat="44.26091" lon="5.72497">
        <ele>645</ele>
        <time>2019-06-17T10:33:38Z</time>
      </trkpt>
      <trkpt lat="44.26092" lon="5.72506">
        <ele>645</ele>
        <time>2019-06-17T10:33:39Z</time>
      </trkpt>
      <trkpt lat="44.26094" lon="5.72516">
        <ele>645</ele>
        <time>2019-06-17T10:33:40Z</time>
      </trkpt>
      <trkpt lat="44.26096" lon="5.72525">
        <ele>645</ele>
        <time>2019-06-17T10:33:41Z</time>
      </trkpt>
      <trkpt lat="44.26097" lon="5.72534">
        <ele>645</ele>
        <time>2019-06-17T10:33:42Z</time>
      </trkpt>
      <trkpt lat="44.26098" lon="5.72543">
        <ele>645</ele>
        <time>2019-06-17T10:33:43Z</time>
      </trkpt>
      <trkpt lat="44.261" lon="5.72552">
        <ele>645</ele>
        <time>2019-06-17T10:33:44Z</time>
      </trkpt>
      <trkpt lat="44.26102" lon="5.72561">
        <ele>645</ele>
        <time>2019-06-17T10:33:45Z</time>
      </trkpt>
      <trkpt lat="44.26104" lon="5.7257">
        <ele>645</ele>
        <time>2019-06-17T10:33:46Z</time>
      </trkpt>
      <trkpt lat="44.26106" lon="5.72578">
        <ele>646</ele>
        <time>2019-06-17T10:33:47Z</time>
      </trkpt>
      <trkpt lat="44.26109" lon="5.72587">
        <ele>646</ele>
        <time>2019-06-17T10:33:48Z</time>
      </trkpt>
      <trkpt lat="44.2611" lon="5.72595">
        <ele>646</ele>
        <time>2019-06-17T10:33:49Z</time>
      </trkpt>
      <trkpt lat="44.26112" lon="5.72603">
        <ele>647</ele>
        <time>2019-06-17T10:33:50Z</time>
      </trkpt>
      <trkpt lat="44.26114" lon="5.72612">
        <ele>648</ele>
        <time>2019-06-17T10:33:51Z</time>
      </trkpt>
      <trkpt lat="44.26116" lon="5.7262">
        <ele>648</ele>
        <time>2019-06-17T10:33:52Z</time>
      </trkpt>
      <trkpt lat="44.26119" lon="5.72628">
        <ele>649</ele>
        <time>2019-06-17T10:33:53Z</time>
      </trkpt>
      <trkpt lat="44.26121" lon="5.72637">
        <ele>649</ele>
        <time>2019-06-17T10:33:54Z</time>
      </trkpt>
      <trkpt lat="44.26123" lon="5.72646">
        <ele>649</ele>
        <time>2019-06-17T10:33:55Z</time>
      </trkpt>
      <trkpt lat="44.26125" lon="5.72655">
        <ele>649</ele>
        <time>2019-06-17T10:33:56Z</time>
      </trkpt>
      <trkpt lat="44.26128" lon="5.72664">
        <ele>649</ele>
        <time>2019-06-17T10:33:57Z</time>
      </trkpt>
      <trkpt lat="44.2613" lon="5.72674">
        <ele>649</ele>
        <time>2019-06-17T10:33:58Z</time>
      </trkpt>
      <trkpt lat="44.26133" lon="5.72684">
        <ele>649</ele>
        <time>2019-06-17T10:33:59Z</time>
      </trkpt>
      <trkpt lat="44.26135" lon="5.72694">
        <ele>649</ele>
        <time>2019-06-17T10:34:00Z</time>
      </trkpt>
      <trkpt lat="44.26138" lon="5.72705">
        <ele>649</ele>
        <time>2019-06-17T10:34:01Z</time>
      </trkpt>
      <trkpt lat="44.2614" lon="5.72716">
        <ele>649</ele>
        <time>2019-06-17T10:34:02Z</time>
      </trkpt>
      <trkpt lat="44.26143" lon="5.72727">
        <ele>649</ele>
        <time>2019-06-17T10:34:03Z</time>
      </trkpt>
      <trkpt lat="44.26145" lon="5.72739">
        <ele>649</ele>
        <time>2019-06-17T10:34:04Z</time>
      </trkpt>
      <trkpt lat="44.26148" lon="5.7275">
        <ele>649</ele>
        <time>2019-06-17T10:34:05Z</time>
      </trkpt>
      <trkpt lat="44.26151" lon="5.72761">
        <ele>649</ele>
        <time>2019-06-17T10:34:06Z</time>
      </trkpt>
      <trkpt lat="44.26153" lon="5.72773">
        <ele>649</ele>
        <time>2019-06-17T10:34:07Z</time>
      </trkpt>
      <trkpt lat="44.26155" lon="5.72786">
        <ele>649</ele>
        <time>2019-06-17T10:34:08Z</time>
      </trkpt>
      <trkpt lat="44.26156" lon="5.72799">
        <ele>649</ele>
        <time>2019-06-17T10:34:09Z</time>
      </trkpt>
      <trkpt lat="44.26157" lon="5.72812">
        <ele>649</ele>
        <time>2019-06-17T10:34:10Z</time>
      </trkpt>
      <trkpt lat="44.26156" lon="5.72824">
        <ele>649</ele>
        <time>2019-06-17T10:34:11Z</time>
      </trkpt>
      <trkpt lat="44.26156" lon="5.72837">
        <ele>649</ele>
        <time>2019-06-17T10:34:12Z</time>
      </trkpt>
      <trkpt lat="44.26155" lon="5.7285">
        <ele>649</ele>
        <time>2019-06-17T10:34:13Z</time>
      </trkpt>
      <trkpt lat="44.26155" lon="5.72863">
        <ele>649</ele>
        <time>2019-06-17T10:34:14Z</time>
      </trkpt>
      <trkpt lat="44.26154" lon="5.72876">
        <ele>649</ele>
        <time>2019-06-17T10:34:15Z</time>
      </trkpt>
      <trkpt lat="44.26153" lon="5.72889">
        <ele>649</ele>
        <time>2019-06-17T10:34:16Z</time>
      </trkpt>
      <trkpt lat="44.26152" lon="5.72903">
        <ele>649</ele>
        <time>2019-06-17T10:34:17Z</time>
      </trkpt>
      <trkpt lat="44.26152" lon="5.72917">
        <ele>649</ele>
        <time>2019-06-17T10:34:18Z</time>
      </trkpt>
      <trkpt lat="44.26152" lon="5.72931">
        <ele>649</ele>
        <time>2019-06-17T10:34:19Z</time>
      </trkpt>
      <trkpt lat="44.26151" lon="5.72945">
        <ele>649</ele>
        <time>2019-06-17T10:34:20Z</time>
      </trkpt>
      <trkpt lat="44.26151" lon="5.7296">
        <ele>649</ele>
        <time>2019-06-17T10:34:21Z</time>
      </trkpt>
      <trkpt lat="44.2615" lon="5.72974">
        <ele>649</ele>
        <time>2019-06-17T10:34:22Z</time>
      </trkpt>
      <trkpt lat="44.2615" lon="5.72988">
        <ele>649</ele>
        <time>2019-06-17T10:34:23Z</time>
      </trkpt>
      <trkpt lat="44.26149" lon="5.73002">
        <ele>648</ele>
        <time>2019-06-17T10:34:24Z</time>
      </trkpt>
      <trkpt lat="44.26149" lon="5.73016">
        <ele>648</ele>
        <time>2019-06-17T10:34:25Z</time>
      </trkpt>
      <trkpt lat="44.26148" lon="5.7303">
        <ele>647</ele>
        <time>2019-06-17T10:34:26Z</time>
      </trkpt>
      <trkpt lat="44.26148" lon="5.73044">
        <ele>647</ele>
        <time>2019-06-17T10:34:27Z</time>
      </trkpt>
      <trkpt lat="44.26148" lon="5.73058">
        <ele>647</ele>
        <time>2019-06-17T10:34:28Z</time>
      </trkpt>
      <trkpt lat="44.26148" lon="5.73071">
        <ele>647</ele>
        <time>2019-06-17T10:34:29Z</time>
      </trkpt>
      <trkpt lat="44.26149" lon="5.73083">
        <ele>647</ele>
        <time>2019-06-17T10:34:30Z</time>
      </trkpt>
      <trkpt lat="44.2615" lon="5.73096">
        <ele>647</ele>
        <time>2019-06-17T10:34:31Z</time>
      </trkpt>
      <trkpt lat="44.26152" lon="5.73109">
        <ele>646</ele>
        <time>2019-06-17T10:34:32Z</time>
      </trkpt>
      <trkpt lat="44.26154" lon="5.73121">
        <ele>646</ele>
        <time>2019-06-17T10:34:33Z</time>
      </trkpt>
      <trkpt lat="44.26157" lon="5.73132">
        <ele>646</ele>
        <time>2019-06-17T10:34:34Z</time>
      </trkpt>
      <trkpt lat="44.26161" lon="5.73143">
        <ele>646</ele>
        <time>2019-06-17T10:34:35Z</time>
      </trkpt>
      <trkpt lat="44.26165" lon="5.73154">
        <ele>646</ele>
        <time>2019-06-17T10:34:36Z</time>
      </trkpt>
      <trkpt lat="44.26168" lon="5.73166">
        <ele>646</ele>
        <time>2019-06-17T10:34:37Z</time>
      </trkpt>
      <trkpt lat="44.26173" lon="5.73176">
        <ele>646</ele>
        <time>2019-06-17T10:34:38Z</time>
      </trkpt>
      <trkpt lat="44.26176" lon="5.73187">
        <ele>646</ele>
        <time>2019-06-17T10:34:39Z</time>
      </trkpt>
      <trkpt lat="44.2618" lon="5.73198">
        <ele>646</ele>
        <time>2019-06-17T10:34:40Z</time>
      </trkpt>
      <trkpt lat="44.26184" lon="5.73207">
        <ele>646</ele>
        <time>2019-06-17T10:34:41Z</time>
      </trkpt>
      <trkpt lat="44.26187" lon="5.73217">
        <ele>646</ele>
        <time>2019-06-17T10:34:42Z</time>
      </trkpt>
      <trkpt lat="44.2619" lon="5.73227">
        <ele>646</ele>
        <time>2019-06-17T10:34:43Z</time>
      </trkpt>
      <trkpt lat="44.26192" lon="5.73236">
        <ele>646</ele>
        <time>2019-06-17T10:34:44Z</time>
      </trkpt>
      <trkpt lat="44.26195" lon="5.73246">
        <ele>646</ele>
        <time>2019-06-17T10:34:45Z</time>
      </trkpt>
      <trkpt lat="44.262" lon="5.73254">
        <ele>646</ele>
        <time>2019-06-17T10:34:46Z</time>
      </trkpt>
      <trkpt lat="44.26204" lon="5.73264">
        <ele>646</ele>
        <time>2019-06-17T10:34:47Z</time>
      </trkpt>
      <trkpt lat="44.26207" lon="5.73272">
        <ele>647</ele>
        <time>2019-06-17T10:34:48Z</time>
      </trkpt>
      <trkpt lat="44.2621" lon="5.73281">
        <ele>647</ele>
        <time>2019-06-17T10:34:49Z</time>
      </trkpt>
      <trkpt lat="44.26212" lon="5.73289">
        <ele>648</ele>
        <time>2019-06-17T10:34:50Z</time>
      </trkpt>
      <trkpt lat="44.26215" lon="5.73298">
        <ele>648</ele>
        <time>2019-06-17T10:34:51Z</time>
      </trkpt>
      <trkpt lat="44.26218" lon="5.73307">
        <ele>648</ele>
        <time>2019-06-17T10:34:52Z</time>
      </trkpt>
      <trkpt lat="44.26221" lon="5.73315">
        <ele>648</ele>
        <time>2019-06-17T10:34:53Z</time>
      </trkpt>
      <trkpt lat="44.26224" lon="5.73323">
        <ele>648</ele>
        <time>2019-06-17T10:34:54Z</time>
      </trkpt>
      <trkpt lat="44.26228" lon="5.73331">
        <ele>648</ele>
        <time>2019-06-17T10:34:55Z</time>
      </trkpt>
      <trkpt lat="44.26231" lon="5.7334">
        <ele>648</ele>
        <time>2019-06-17T10:34:56Z</time>
      </trkpt>
      <trkpt lat="44.26234" lon="5.73349">
        <ele>648</ele>
        <time>2019-06-17T10:34:57Z</time>
      </trkpt>
      <trkpt lat="44.26236" lon="5.73357">
        <ele>648</ele>
        <time>2019-06-17T10:34:58Z</time>
      </trkpt>
      <trkpt lat="44.26239" lon="5.73365">
        <ele>649</ele>
        <time>2019-06-17T10:34:59Z</time>
      </trkpt>
      <trkpt lat="44.26241" lon="5.73373">
        <ele>649</ele>
        <time>2019-06-17T10:35:00Z</time>
      </trkpt>
      <trkpt lat="44.26243" lon="5.73381">
        <ele>649</ele>
        <time>2019-06-17T10:35:01Z</time>
      </trkpt>
      <trkpt lat="44.26245" lon="5.73389">
        <ele>649</ele>
        <time>2019-06-17T10:35:02Z</time>
      </trkpt>
      <trkpt lat="44.26247" lon="5.73397">
        <ele>649</ele>
        <time>2019-06-17T10:35:03Z</time>
      </trkpt>
      <trkpt lat="44.26249" lon="5.73405">
        <ele>649</ele>
        <time>2019-06-17T10:35:04Z</time>
      </trkpt>
      <trkpt lat="44.26251" lon="5.73413">
        <ele>649</ele>
        <time>2019-06-17T10:35:05Z</time>
      </trkpt>
      <trkpt lat="44.26254" lon="5.73421">
        <ele>649</ele>
        <time>2019-06-17T10:35:06Z</time>
      </trkpt>
      <trkpt lat="44.26256" lon="5.73429">
        <ele>649</ele>
        <time>2019-06-17T10:35:07Z</time>
      </trkpt>
      <trkpt lat="44.26257" lon="5.73438">
        <ele>649</ele>
        <time>2019-06-17T10:35:08Z</time>
      </trkpt>
      <trkpt lat="44.26259" lon="5.73446">
        <ele>649</ele>
        <time>2019-06-17T10:35:09Z</time>
      </trkpt>
      <trkpt lat="44.26261" lon="5.73454">
        <ele>649</ele>
        <time>2019-06-17T10:35:10Z</time>
      </trkpt>
      <trkpt lat="44.26263" lon="5.73463">
        <ele>649</ele>
        <time>2019-06-17T10:35:11Z</time>
      </trkpt>
      <trkpt lat="44.26264" lon="5.73471">
        <ele>649</ele>
        <time>2019-06-17T10:35:12Z</time>
      </trkpt>
      <trkpt lat="44.26265" lon="5.73479">
        <ele>649</ele>
        <time>2019-06-17T10:35:13Z</time>
      </trkpt>
      <trkpt lat="44.26266" lon="5.73488">
        <ele>649</ele>
        <time>2019-06-17T10:35:14Z</time>
      </trkpt>
      <trkpt lat="44.26267" lon="5.73496">
        <ele>649</ele>
        <time>2019-06-17T10:35:15Z</time>
      </trkpt>
      <trkpt lat="44.26269" lon="5.73505">
        <ele>649</ele>
        <time>2019-06-17T10:35:16Z</time>
      </trkpt>
      <trkpt lat="44.2627" lon="5.73514">
        <ele>649</ele>
        <time>2019-06-17T10:35:17Z</time>
      </trkpt>
      <trkpt lat="44.26271" lon="5.73522">
        <ele>649</ele>
        <time>2019-06-17T10:35:18Z</time>
      </trkpt>
      <trkpt lat="44.26272" lon="5.73531">
        <ele>649</ele>
        <time>2019-06-17T10:35:19Z</time>
      </trkpt>
      <trkpt lat="44.26273" lon="5.7354">
        <ele>649</ele>
        <time>2019-06-17T10:35:20Z</time>
      </trkpt>
      <trkpt lat="44.26274" lon="5.73549">
        <ele>649</ele>
        <time>2019-06-17T10:35:21Z</time>
      </trkpt>
      <trkpt lat="44.26275" lon="5.73558">
        <ele>648</ele>
        <time>2019-06-17T10:35:22Z</time>
      </trkpt>
      <trkpt lat="44.26276" lon="5.73567">
        <ele>648</ele>
        <time>2019-06-17T10:35:23Z</time>
      </trkpt>
      <trkpt lat="44.26278" lon="5.73576">
        <ele>648</ele>
        <time>2019-06-17T10:35:24Z</time>
      </trkpt>
      <trkpt lat="44.26279" lon="5.73585">
        <ele>648</ele>
        <time>2019-06-17T10:35:25Z</time>
      </trkpt>
      <trkpt lat="44.2628" lon="5.73594">
        <ele>647</ele>
        <time>2019-06-17T10:35:26Z</time>
      </trkpt>
      <trkpt lat="44.26281" lon="5.73603">
        <ele>647</ele>
        <time>2019-06-17T10:35:27Z</time>
      </trkpt>
      <trkpt lat="44.26282" lon="5.73613">
        <ele>647</ele>
        <time>2019-06-17T10:35:28Z</time>
      </trkpt>
      <trkpt lat="44.26284" lon="5.73622">
        <ele>647</ele>
        <time>2019-06-17T10:35:29Z</time>
      </trkpt>
      <trkpt lat="44.26285" lon="5.73632">
        <ele>646</ele>
        <time>2019-06-17T10:35:30Z</time>
      </trkpt>
      <trkpt lat="44.26286" lon="5.73642">
        <ele>646</ele>
        <time>2019-06-17T10:35:31Z</time>
      </trkpt>
      <trkpt lat="44.26287" lon="5.73652">
        <ele>646</ele>
        <time>2019-06-17T10:35:32Z</time>
      </trkpt>
      <trkpt lat="44.26289" lon="5.73661">
        <ele>646</ele>
        <time>2019-06-17T10:35:33Z</time>
      </trkpt>
      <trkpt lat="44.2629" lon="5.73671">
        <ele>645</ele>
        <time>2019-06-17T10:35:34Z</time>
      </trkpt>
      <trkpt lat="44.26292" lon="5.73681">
        <ele>645</ele>
        <time>2019-06-17T10:35:35Z</time>
      </trkpt>
      <trkpt lat="44.26293" lon="5.73691">
        <ele>645</ele>
        <time>2019-06-17T10:35:36Z</time>
      </trkpt>
      <trkpt lat="44.26294" lon="5.737">
        <ele>645</ele>
        <time>2019-06-17T10:35:37Z</time>
      </trkpt>
      <trkpt lat="44.26295" lon="5.7371">
        <ele>644</ele>
        <time>2019-06-17T10:35:38Z</time>
      </trkpt>
      <trkpt lat="44.26296" lon="5.7372">
        <ele>644</ele>
        <time>2019-06-17T10:35:39Z</time>
      </trkpt>
      <trkpt lat="44.26297" lon="5.73729">
        <ele>644</ele>
        <time>2019-06-17T10:35:40Z</time>
      </trkpt>
      <trkpt lat="44.26298" lon="5.73739">
        <ele>644</ele>
        <time>2019-06-17T10:35:41Z</time>
      </trkpt>
      <trkpt lat="44.26299" lon="5.73748">
        <ele>643</ele>
        <time>2019-06-17T10:35:42Z</time>
      </trkpt>
      <trkpt lat="44.263" lon="5.73758">
        <ele>643</ele>
        <time>2019-06-17T10:35:43Z</time>
      </trkpt>
      <trkpt lat="44.26302" lon="5.73768">
        <ele>643</ele>
        <time>2019-06-17T10:35:44Z</time>
      </trkpt>
      <trkpt lat="44.26303" lon="5.73777">
        <ele>643</ele>
        <time>2019-06-17T10:35:45Z</time>
      </trkpt>
      <trkpt lat="44.26304" lon="5.73786">
        <ele>643</ele>
        <time>2019-06-17T10:35:46Z</time>
      </trkpt>
      <trkpt lat="44.26305" lon="5.73796">
        <ele>643</ele>
        <time>2019-06-17T10:35:47Z</time>
      </trkpt>
      <trkpt lat="44.26306" lon="5.73805">
        <ele>643</ele>
        <time>2019-06-17T10:35:48Z</time>
      </trkpt>
      <trkpt lat="44.26307" lon="5.73814">
        <ele>643</ele>
        <time>2019-06-17T10:35:49Z</time>
      </trkpt>
      <trkpt lat="44.26308" lon="5.73824">
        <ele>643</ele>
        <time>2019-06-17T10:35:50Z</time>
      </trkpt>
      <trkpt lat="44.26308" lon="5.73833">
        <ele>643</ele>
        <time>2019-06-17T10:35:51Z</time>
      </trkpt>
      <trkpt lat="44.26309" lon="5.73842">
        <ele>643</ele>
        <time>2019-06-17T10:35:52Z</time>
      </trkpt>
      <trkpt lat="44.26309" lon="5.73851">
        <ele>643</ele>
        <time>2019-06-17T10:35:53Z</time>
      </trkpt>
      <trkpt lat="44.2631" lon="5.73861">
        <ele>643</ele>
        <time>2019-06-17T10:35:54Z</time>
      </trkpt>
      <trkpt lat="44.2631" lon="5.73869">
        <ele>643</ele>
        <time>2019-06-17T10:35:55Z</time>
      </trkpt>
      <trkpt lat="44.2631" lon="5.73878">
        <ele>643</ele>
        <time>2019-06-17T10:35:56Z</time>
      </trkpt>
      <trkpt lat="44.26311" lon="5.73887">
        <ele>643</ele>
        <time>2019-06-17T10:35:57Z</time>
      </trkpt>
      <trkpt lat="44.26313" lon="5.73896">
        <ele>643</ele>
        <time>2019-06-17T10:35:58Z</time>
      </trkpt>
      <trkpt lat="44.26313" lon="5.73905">
        <ele>643</ele>
        <time>2019-06-17T10:35:59Z</time>
      </trkpt>
      <trkpt lat="44.26314" lon="5.73913">
        <ele>643</ele>
        <time>2019-06-17T10:36:00Z</time>
      </trkpt>
      <trkpt lat="44.26314" lon="5.73922">
        <ele>643</ele>
        <time>2019-06-17T10:36:01Z</time>
      </trkpt>
      <trkpt lat="44.26315" lon="5.73931">
        <ele>643</ele>
        <time>2019-06-17T10:36:02Z</time>
      </trkpt>
      <trkpt lat="44.26315" lon="5.73939">
        <ele>643</ele>
        <time>2019-06-17T10:36:03Z</time>
      </trkpt>
      <trkpt lat="44.26315" lon="5.73948">
        <ele>643</ele>
        <time>2019-06-17T10:36:04Z</time>
      </trkpt>
      <trkpt lat="44.26316" lon="5.73957">
        <ele>643</ele>
        <time>2019-06-17T10:36:05Z</time>
      </trkpt>
      <trkpt lat="44.26316" lon="5.73966">
        <ele>643</ele>
        <time>2019-06-17T10:36:06Z</time>
      </trkpt>
      <trkpt lat="44.26317" lon="5.73975">
        <ele>643</ele>
        <time>2019-06-17T10:36:07Z</time>
      </trkpt>
      <trkpt lat="44.26318" lon="5.73984">
        <ele>643</ele>
        <time>2019-06-17T10:36:08Z</time>
      </trkpt>
      <trkpt lat="44.26319" lon="5.73993">
        <ele>643</ele>
        <time>2019-06-17T10:36:09Z</time>
      </trkpt>
      <trkpt lat="44.26319" lon="5.74002">
        <ele>643</ele>
        <time>2019-06-17T10:36:10Z</time>
      </trkpt>
      <trkpt lat="44.2632" lon="5.74011">
        <ele>643</ele>
        <time>2019-06-17T10:36:11Z</time>
      </trkpt>
      <trkpt lat="44.2632" lon="5.7402">
        <ele>643</ele>
        <time>2019-06-17T10:36:12Z</time>
      </trkpt>
      <trkpt lat="44.2632" lon="5.74029">
        <ele>643</ele>
        <time>2019-06-17T10:36:13Z</time>
      </trkpt>
      <trkpt lat="44.26321" lon="5.74039">
        <ele>643</ele>
        <time>2019-06-17T10:36:14Z</time>
      </trkpt>
      <trkpt lat="44.26321" lon="5.74048">
        <ele>643</ele>
        <time>2019-06-17T10:36:15Z</time>
      </trkpt>
      <trkpt lat="44.26323" lon="5.74058">
        <ele>643</ele>
        <time>2019-06-17T10:36:16Z</time>
      </trkpt>
      <trkpt lat="44.26323" lon="5.74067">
        <ele>643</ele>
        <time>2019-06-17T10:36:17Z</time>
      </trkpt>
      <trkpt lat="44.26324" lon="5.74077">
        <ele>643</ele>
        <time>2019-06-17T10:36:18Z</time>
      </trkpt>
      <trkpt lat="44.26324" lon="5.74087">
        <ele>643</ele>
        <time>2019-06-17T10:36:19Z</time>
      </trkpt>
      <trkpt lat="44.26324" lon="5.74097">
        <ele>643</ele>
        <time>2019-06-17T10:36:20Z</time>
      </trkpt>
      <trkpt lat="44.26325" lon="5.74107">
        <ele>643</ele>
        <time>2019-06-17T10:36:21Z</time>
      </trkpt>
      <trkpt lat="44.26326" lon="5.74117">
        <ele>643</ele>
        <time>2019-06-17T10:36:22Z</time>
      </trkpt>
      <trkpt lat="44.26326" lon="5.74127">
        <ele>643</ele>
        <time>2019-06-17T10:36:23Z</time>
      </trkpt>
      <trkpt lat="44.26327" lon="5.74137">
        <ele>643</ele>
        <time>2019-06-17T10:36:24Z</time>
      </trkpt>
      <trkpt lat="44.26328" lon="5.74147">
        <ele>643</ele>
        <time>2019-06-17T10:36:25Z</time>
      </trkpt>
      <trkpt lat="44.26329" lon="5.74157">
        <ele>643</ele>
        <time>2019-06-17T10:36:26Z</time>
      </trkpt>
      <trkpt lat="44.2633" lon="5.74168">
        <ele>643</ele>
        <time>2019-06-17T10:36:27Z</time>
      </trkpt>
      <trkpt lat="44.26331" lon="5.74178">
        <ele>643</ele>
        <time>2019-06-17T10:36:28Z</time>
      </trkpt>
      <trkpt lat="44.26332" lon="5.74188">
        <ele>643</ele>
        <time>2019-06-17T10:36:29Z</time>
      </trkpt>
      <trkpt lat="44.26333" lon="5.74198">
        <ele>643</ele>
        <time>2019-06-17T10:36:30Z</time>
      </trkpt>
      <trkpt lat="44.26334" lon="5.74208">
        <ele>643</ele>
        <time>2019-06-17T10:36:31Z</time>
      </trkpt>
      <trkpt lat="44.26334" lon="5.74218">
        <ele>643</ele>
        <time>2019-06-17T10:36:32Z</time>
      </trkpt>
      <trkpt lat="44.26335" lon="5.74228">
        <ele>643</ele>
        <time>2019-06-17T10:36:33Z</time>
      </trkpt>
      <trkpt lat="44.26336" lon="5.74239">
        <ele>643</ele>
        <time>2019-06-17T10:36:34Z</time>
      </trkpt>
      <trkpt lat="44.26336" lon="5.7425">
        <ele>643</ele>
        <time>2019-06-17T10:36:35Z</time>
      </trkpt>
      <trkpt lat="44.26336" lon="5.7426">
        <ele>643</ele>
        <time>2019-06-17T10:36:36Z</time>
      </trkpt>
      <trkpt lat="44.26337" lon="5.7427">
        <ele>643</ele>
        <time>2019-06-17T10:36:37Z</time>
      </trkpt>
      <trkpt lat="44.26337" lon="5.74281">
        <ele>643</ele>
        <time>2019-06-17T10:36:38Z</time>
      </trkpt>
      <trkpt lat="44.26338" lon="5.74291">
        <ele>643</ele>
        <time>2019-06-17T10:36:39Z</time>
      </trkpt>
      <trkpt lat="44.26339" lon="5.74301">
        <ele>643</ele>
        <time>2019-06-17T10:36:40Z</time>
      </trkpt>
      <trkpt lat="44.2634" lon="5.74312">
        <ele>643</ele>
        <time>2019-06-17T10:36:41Z</time>
      </trkpt>
      <trkpt lat="44.26341" lon="5.74322">
        <ele>643</ele>
        <time>2019-06-17T10:36:42Z</time>
      </trkpt>
      <trkpt lat="44.26342" lon="5.74332">
        <ele>643</ele>
        <time>2019-06-17T10:36:43Z</time>
      </trkpt>
      <trkpt lat="44.26343" lon="5.74343">
        <ele>643</ele>
        <time>2019-06-17T10:36:44Z</time>
      </trkpt>
      <trkpt lat="44.26345" lon="5.74353">
        <ele>643</ele>
        <time>2019-06-17T10:36:45Z</time>
      </trkpt>
      <trkpt lat="44.26348" lon="5.74364">
        <ele>643</ele>
        <time>2019-06-17T10:36:46Z</time>
      </trkpt>
      <trkpt lat="44.2635" lon="5.74375">
        <ele>643</ele>
        <time>2019-06-17T10:36:47Z</time>
      </trkpt>
      <trkpt lat="44.26352" lon="5.74387">
        <ele>643</ele>
        <time>2019-06-17T10:36:48Z</time>
      </trkpt>
      <trkpt lat="44.26355" lon="5.74399">
        <ele>643</ele>
        <time>2019-06-17T10:36:49Z</time>
      </trkpt>
      <trkpt lat="44.26357" lon="5.74412">
        <ele>642</ele>
        <time>2019-06-17T10:36:50Z</time>
      </trkpt>
      <trkpt lat="44.26358" lon="5.74425">
        <ele>642</ele>
        <time>2019-06-17T10:36:51Z</time>
      </trkpt>
      <trkpt lat="44.26358" lon="5.74439">
        <ele>641</ele>
        <time>2019-06-17T10:36:52Z</time>
      </trkpt>
      <trkpt lat="44.26355" lon="5.74452">
        <ele>640</ele>
        <time>2019-06-17T10:36:53Z</time>
      </trkpt>
      <trkpt lat="44.26349" lon="5.74463">
        <ele>640</ele>
        <time>2019-06-17T10:36:54Z</time>
      </trkpt>
      <trkpt lat="44.26342" lon="5.74472">
        <ele>639</ele>
        <time>2019-06-17T10:36:55Z</time>
      </trkpt>
      <trkpt lat="44.26335" lon="5.74481">
        <ele>639</ele>
        <time>2019-06-17T10:36:56Z</time>
      </trkpt>
      <trkpt lat="44.26329" lon="5.74492">
        <ele>639</ele>
        <time>2019-06-17T10:36:57Z</time>
      </trkpt>
      <trkpt lat="44.26323" lon="5.74502">
        <ele>638</ele>
        <time>2019-06-17T10:36:58Z</time>
      </trkpt>
      <trkpt lat="44.26318" lon="5.74513">
        <ele>638</ele>
        <time>2019-06-17T10:36:59Z</time>
      </trkpt>
      <trkpt lat="44.26313" lon="5.74524">
        <ele>638</ele>
        <time>2019-06-17T10:37:00Z</time>
      </trkpt>
      <trkpt lat="44.26307" lon="5.74535">
        <ele>638</ele>
        <time>2019-06-17T10:37:01Z</time>
      </trkpt>
      <trkpt lat="44.26303" lon="5.74545">
        <ele>638</ele>
        <time>2019-06-17T10:37:02Z</time>
      </trkpt>
      <trkpt lat="44.26298" lon="5.74556">
        <ele>638</ele>
        <time>2019-06-17T10:37:03Z</time>
      </trkpt>
      <trkpt lat="44.26293" lon="5.74566">
        <ele>638</ele>
        <time>2019-06-17T10:37:04Z</time>
      </trkpt>
      <trkpt lat="44.26288" lon="5.74577">
        <ele>638</ele>
        <time>2019-06-17T10:37:05Z</time>
      </trkpt>
      <trkpt lat="44.26284" lon="5.74587">
        <ele>638</ele>
        <time>2019-06-17T10:37:06Z</time>
      </trkpt>
      <trkpt lat="44.26279" lon="5.74598">
        <ele>637</ele>
        <time>2019-06-17T10:37:07Z</time>
      </trkpt>
      <trkpt lat="44.26276" lon="5.7461">
        <ele>637</ele>
        <time>2019-06-17T10:37:08Z</time>
      </trkpt>
      <trkpt lat="44.26275" lon="5.74622">
        <ele>637</ele>
        <time>2019-06-17T10:37:09Z</time>
      </trkpt>
      <trkpt lat="44.26275" lon="5.74635">
        <ele>636</ele>
        <time>2019-06-17T10:37:10Z</time>
      </trkpt>
      <trkpt lat="44.26277" lon="5.74648">
        <ele>636</ele>
        <time>2019-06-17T10:37:11Z</time>
      </trkpt>
      <trkpt lat="44.26281" lon="5.7466">
        <ele>636</ele>
        <time>2019-06-17T10:37:12Z</time>
      </trkpt>
      <trkpt lat="44.26285" lon="5.74672">
        <ele>635</ele>
        <time>2019-06-17T10:37:13Z</time>
      </trkpt>
      <trkpt lat="44.26289" lon="5.74684">
        <ele>634</ele>
        <time>2019-06-17T10:37:14Z</time>
      </trkpt>
      <trkpt lat="44.26294" lon="5.74695">
        <ele>634</ele>
        <time>2019-06-17T10:37:15Z</time>
      </trkpt>
      <trkpt lat="44.26299" lon="5.74708">
        <ele>633</ele>
        <time>2019-06-17T10:37:16Z</time>
      </trkpt>
      <trkpt lat="44.26304" lon="5.7472">
        <ele>632</ele>
        <time>2019-06-17T10:37:17Z</time>
      </trkpt>
      <trkpt lat="44.26309" lon="5.74733">
        <ele>632</ele>
        <time>2019-06-17T10:37:18Z</time>
      </trkpt>
      <trkpt lat="44.26314" lon="5.74746">
        <ele>631</ele>
        <time>2019-06-17T10:37:19Z</time>
      </trkpt>
      <trkpt lat="44.26319" lon="5.74758">
        <ele>631</ele>
        <time>2019-06-17T10:37:20Z</time>
      </trkpt>
      <trkpt lat="44.26325" lon="5.74771">
        <ele>631</ele>
        <time>2019-06-17T10:37:21Z</time>
      </trkpt>
      <trkpt lat="44.26331" lon="5.74784">
        <ele>631</ele>
        <time>2019-06-17T10:37:22Z</time>
      </trkpt>
      <trkpt lat="44.26337" lon="5.74795">
        <ele>630</ele>
        <time>2019-06-17T10:37:23Z</time>
      </trkpt>
      <trkpt lat="44.26344" lon="5.74807">
        <ele>630</ele>
        <time>2019-06-17T10:37:24Z</time>
      </trkpt>
      <trkpt lat="44.2635" lon="5.74818">
        <ele>630</ele>
        <time>2019-06-17T10:37:25Z</time>
      </trkpt>
      <trkpt lat="44.26357" lon="5.74829">
        <ele>629</ele>
        <time>2019-06-17T10:37:26Z</time>
      </trkpt>
      <trkpt lat="44.26364" lon="5.74841">
        <ele>629</ele>
        <time>2019-06-17T10:37:27Z</time>
      </trkpt>
      <trkpt lat="44.2637" lon="5.74853">
        <ele>628</ele>
        <time>2019-06-17T10:37:28Z</time>
      </trkpt>
      <trkpt lat="44.26377" lon="5.74866">
        <ele>628</ele>
        <time>2019-06-17T10:37:29Z</time>
      </trkpt>
      <trkpt lat="44.26382" lon="5.7488">
        <ele>627</ele>
        <time>2019-06-17T10:37:30Z</time>
      </trkpt>
      <trkpt lat="44.26385" lon="5.74894">
        <ele>627</ele>
        <time>2019-06-17T10:37:31Z</time>
      </trkpt>
      <trkpt lat="44.26388" lon="5.74908">
        <ele>626</ele>
        <time>2019-06-17T10:37:32Z</time>
      </trkpt>
      <trkpt lat="44.26391" lon="5.74923">
        <ele>626</ele>
        <time>2019-06-17T10:37:33Z</time>
      </trkpt>
      <trkpt lat="44.26395" lon="5.74936">
        <ele>626</ele>
        <time>2019-06-17T10:37:34Z</time>
      </trkpt>
      <trkpt lat="44.26399" lon="5.74949">
        <ele>625</ele>
        <time>2019-06-17T10:37:35Z</time>
      </trkpt>
      <trkpt lat="44.26404" lon="5.74962">
        <ele>625</ele>
        <time>2019-06-17T10:37:36Z</time>
      </trkpt>
      <trkpt lat="44.2641" lon="5.74974">
        <ele>624</ele>
        <time>2019-06-17T10:37:37Z</time>
      </trkpt>
      <trkpt lat="44.26416" lon="5.74986">
        <ele>624</ele>
        <time>2019-06-17T10:37:38Z</time>
      </trkpt>
      <trkpt lat="44.26423" lon="5.74997">
        <ele>623</ele>
        <time>2019-06-17T10:37:39Z</time>
      </trkpt>
      <trkpt lat="44.26429" lon="5.75009">
        <ele>623</ele>
        <time>2019-06-17T10:37:40Z</time>
      </trkpt>
      <trkpt lat="44.26435" lon="5.7502">
        <ele>623</ele>
        <time>2019-06-17T10:37:41Z</time>
      </trkpt>
      <trkpt lat="44.26442" lon="5.75031">
        <ele>622</ele>
        <time>2019-06-17T10:37:42Z</time>
      </trkpt>
      <trkpt lat="44.26448" lon="5.75042">
        <ele>622</ele>
        <time>2019-06-17T10:37:43Z</time>
      </trkpt>
      <trkpt lat="44.26455" lon="5.75053">
        <ele>621</ele>
        <time>2019-06-17T10:37:44Z</time>
      </trkpt>
      <trkpt lat="44.26462" lon="5.75064">
        <ele>621</ele>
        <time>2019-06-17T10:37:45Z</time>
      </trkpt>
      <trkpt lat="44.26468" lon="5.75075">
        <ele>621</ele>
        <time>2019-06-17T10:37:46Z</time>
      </trkpt>
      <trkpt lat="44.26474" lon="5.75086">
        <ele>621</ele>
        <time>2019-06-17T10:37:47Z</time>
      </trkpt>
      <trkpt lat="44.26481" lon="5.75097">
        <ele>620</ele>
        <time>2019-06-17T10:37:48Z</time>
      </trkpt>
      <trkpt lat="44.26488" lon="5.75107">
        <ele>620</ele>
        <time>2019-06-17T10:37:49Z</time>
      </trkpt>
      <trkpt lat="44.26495" lon="5.75118">
        <ele>620</ele>
        <time>2019-06-17T10:37:50Z</time>
      </trkpt>
      <trkpt lat="44.26501" lon="5.75128">
        <ele>620</ele>
        <time>2019-06-17T10:37:51Z</time>
      </trkpt>
      <trkpt lat="44.26508" lon="5.75138">
        <ele>619</ele>
        <time>2019-06-17T10:37:52Z</time>
      </trkpt>
      <trkpt lat="44.26514" lon="5.75147">
        <ele>619</ele>
        <time>2019-06-17T10:37:53Z</time>
      </trkpt>
      <trkpt lat="44.2652" lon="5.75157">
        <ele>619</ele>
        <time>2019-06-17T10:37:54Z</time>
      </trkpt>
      <trkpt lat="44.26526" lon="5.75167">
        <ele>618</ele>
        <time>2019-06-17T10:37:55Z</time>
      </trkpt>
      <trkpt lat="44.26532" lon="5.75176">
        <ele>617</ele>
        <time>2019-06-17T10:37:56Z</time>
      </trkpt>
      <trkpt lat="44.26539" lon="5.75187">
        <ele>617</ele>
        <time>2019-06-17T10:37:57Z</time>
      </trkpt>
      <trkpt lat="44.26545" lon="5.75196">
        <ele>616</ele>
        <time>2019-06-17T10:37:58Z</time>
      </trkpt>
      <trkpt lat="44.26551" lon="5.75205">
        <ele>616</ele>
        <time>2019-06-17T10:37:59Z</time>
      </trkpt>
      <trkpt lat="44.26556" lon="5.75215">
        <ele>615</ele>
        <time>2019-06-17T10:38:00Z</time>
      </trkpt>
      <trkpt lat="44.26562" lon="5.75226">
        <ele>615</ele>
        <time>2019-06-17T10:38:01Z</time>
      </trkpt>
      <trkpt lat="44.26568" lon="5.75237">
        <ele>614</ele>
        <time>2019-06-17T10:38:02Z</time>
      </trkpt>
      <trkpt lat="44.26574" lon="5.75249">
        <ele>614</ele>
        <time>2019-06-17T10:38:03Z</time>
      </trkpt>
      <trkpt lat="44.26578" lon="5.75261">
        <ele>614</ele>
        <time>2019-06-17T10:38:04Z</time>
      </trkpt>
      <trkpt lat="44.26582" lon="5.75273">
        <ele>614</ele>
        <time>2019-06-17T10:38:05Z</time>
      </trkpt>
      <trkpt lat="44.26586" lon="5.75285">
        <ele>614</ele>
        <time>2019-06-17T10:38:06Z</time>
      </trkpt>
      <trkpt lat="44.2659" lon="5.75297">
        <ele>614</ele>
        <time>2019-06-17T10:38:07Z</time>
      </trkpt>
      <trkpt lat="44.26594" lon="5.75309">
        <ele>614</ele>
        <time>2019-06-17T10:38:08Z</time>
      </trkpt>
      <trkpt lat="44.26598" lon="5.75321">
        <ele>614</ele>
        <time>2019-06-17T10:38:09Z</time>
      </trkpt>
      <trkpt lat="44.26603" lon="5.75332">
        <ele>614</ele>
        <time>2019-06-17T10:38:10Z</time>
      </trkpt>
      <trkpt lat="44.26608" lon="5.75344">
        <ele>614</ele>
        <time>2019-06-17T10:38:11Z</time>
      </trkpt>
      <trkpt lat="44.26612" lon="5.75355">
        <ele>613</ele>
        <time>2019-06-17T10:38:12Z</time>
      </trkpt>
      <trkpt lat="44.26617" lon="5.75366">
        <ele>613</ele>
        <time>2019-06-17T10:38:13Z</time>
      </trkpt>
      <trkpt lat="44.26623" lon="5.75375">
        <ele>613</ele>
        <time>2019-06-17T10:38:14Z</time>
      </trkpt>
      <trkpt lat="44.26629" lon="5.75385">
        <ele>612</ele>
        <time>2019-06-17T10:38:15Z</time>
      </trkpt>
      <trkpt lat="44.26634" lon="5.75393">
        <ele>612</ele>
        <time>2019-06-17T10:38:16Z</time>
      </trkpt>
      <trkpt lat="44.2664" lon="5.75401">
        <ele>611</ele>
        <time>2019-06-17T10:38:17Z</time>
      </trkpt>
      <trkpt lat="44.26645" lon="5.7541">
        <ele>610</ele>
        <time>2019-06-17T10:38:18Z</time>
      </trkpt>
      <trkpt lat="44.26651" lon="5.75419">
        <ele>609</ele>
        <time>2019-06-17T10:38:19Z</time>
      </trkpt>
      <trkpt lat="44.26656" lon="5.7543">
        <ele>608</ele>
        <time>2019-06-17T10:38:20Z</time>
      </trkpt>
      <trkpt lat="44.2666" lon="5.75443">
        <ele>608</ele>
        <time>2019-06-17T10:38:21Z</time>
      </trkpt>
      <trkpt lat="44.26663" lon="5.75454">
        <ele>608</ele>
        <time>2019-06-17T10:38:22Z</time>
      </trkpt>
      <trkpt lat="44.26665" lon="5.75466">
        <ele>608</ele>
        <time>2019-06-17T10:38:23Z</time>
      </trkpt>
      <trkpt lat="44.26668" lon="5.75477">
        <ele>608</ele>
        <time>2019-06-17T10:38:24Z</time>
      </trkpt>
      <trkpt lat="44.26671" lon="5.75488">
        <ele>608</ele>
        <time>2019-06-17T10:38:25Z</time>
      </trkpt>
      <trkpt lat="44.26673" lon="5.75499">
        <ele>608</ele>
        <time>2019-06-17T10:38:26Z</time>
      </trkpt>
      <trkpt lat="44.26675" lon="5.75509">
        <ele>608</ele>
        <time>2019-06-17T10:38:27Z</time>
      </trkpt>
      <trkpt lat="44.26677" lon="5.7552">
        <ele>608</ele>
        <time>2019-06-17T10:38:28Z</time>
      </trkpt>
      <trkpt lat="44.2668" lon="5.7553">
        <ele>608</ele>
        <time>2019-06-17T10:38:29Z</time>
      </trkpt>
      <trkpt lat="44.26681" lon="5.7554">
        <ele>607</ele>
        <time>2019-06-17T10:38:30Z</time>
      </trkpt>
      <trkpt lat="44.26683" lon="5.7555">
        <ele>606</ele>
        <time>2019-06-17T10:38:31Z</time>
      </trkpt>
      <trkpt lat="44.26683" lon="5.75559">
        <ele>605</ele>
        <time>2019-06-17T10:38:32Z</time>
      </trkpt>
      <trkpt lat="44.26685" lon="5.75568">
        <ele>603</ele>
        <time>2019-06-17T10:38:33Z</time>
      </trkpt>
      <trkpt lat="44.26686" lon="5.75577">
        <ele>601</ele>
        <time>2019-06-17T10:38:34Z</time>
      </trkpt>
      <trkpt lat="44.26687" lon="5.75586">
        <ele>600</ele>
        <time>2019-06-17T10:38:35Z</time>
      </trkpt>
      <trkpt lat="44.26688" lon="5.75595">
        <ele>599</ele>
        <time>2019-06-17T10:38:36Z</time>
      </trkpt>
      <trkpt lat="44.26688" lon="5.75604">
        <ele>598</ele>
        <time>2019-06-17T10:38:37Z</time>
      </trkpt>
      <trkpt lat="44.2669" lon="5.75611">
        <ele>597</ele>
        <time>2019-06-17T10:38:38Z</time>
      </trkpt>
      <trkpt lat="44.26692" lon="5.75619">
        <ele>596</ele>
        <time>2019-06-17T10:38:39Z</time>
      </trkpt>
      <trkpt lat="44.26696" lon="5.75625">
        <ele>596</ele>
        <time>2019-06-17T10:38:40Z</time>
      </trkpt>
      <trkpt lat="44.26699" lon="5.75631">
        <ele>596</ele>
        <time>2019-06-17T10:38:41Z</time>
      </trkpt>
      <trkpt lat="44.26704" lon="5.75635">
        <ele>596</ele>
        <time>2019-06-17T10:38:42Z</time>
      </trkpt>
      <trkpt lat="44.26708" lon="5.7564">
        <ele>596</ele>
        <time>2019-06-17T10:38:43Z</time>
      </trkpt>
      <trkpt lat="44.26712" lon="5.75645">
        <ele>596</ele>
        <time>2019-06-17T10:38:44Z</time>
      </trkpt>
      <trkpt lat="44.26715" lon="5.75652">
        <ele>596</ele>
        <time>2019-06-17T10:38:45Z</time>
      </trkpt>
      <trkpt lat="44.26717" lon="5.7566">
        <ele>597</ele>
        <time>2019-06-17T10:38:46Z</time>
      </trkpt>
      <trkpt lat="44.26719" lon="5.7567">
        <ele>598</ele>
        <time>2019-06-17T10:38:47Z</time>
      </trkpt>
      <trkpt lat="44.26719" lon="5.75678">
        <ele>599</ele>
        <time>2019-06-17T10:38:48Z</time>
      </trkpt>
      <trkpt lat="44.26716" lon="5.75685">
        <ele>600</ele>
        <time>2019-06-17T10:38:49Z</time>
      </trkpt>
      <trkpt lat="44.2671" lon="5.75692">
        <ele>601</ele>
        <time>2019-06-17T10:38:50Z</time>
      </trkpt>
      <trkpt lat="44.26705" lon="5.75699">
        <ele>602</ele>
        <time>2019-06-17T10:38:51Z</time>
      </trkpt>
      <trkpt lat="44.267" lon="5.75707">
        <ele>602</ele>
        <time>2019-06-17T10:38:52Z</time>
      </trkpt>
      <trkpt lat="44.26695" lon="5.75715">
        <ele>603</ele>
        <time>2019-06-17T10:38:53Z</time>
      </trkpt>
      <trkpt lat="44.26691" lon="5.75726">
        <ele>604</ele>
        <time>2019-06-17T10:38:54Z</time>
      </trkpt>
      <trkpt lat="44.26688" lon="5.75737">
        <ele>605</ele>
        <time>2019-06-17T10:38:55Z</time>
      </trkpt>
      <trkpt lat="44.26687" lon="5.75748">
        <ele>606</ele>
        <time>2019-06-17T10:38:56Z</time>
      </trkpt>
      <trkpt lat="44.26686" lon="5.7576">
        <ele>607</ele>
        <time>2019-06-17T10:38:57Z</time>
      </trkpt>
      <trkpt lat="44.26686" lon="5.75772">
        <ele>608</ele>
        <time>2019-06-17T10:38:58Z</time>
      </trkpt>
      <trkpt lat="44.26685" lon="5.75784">
        <ele>609</ele>
        <time>2019-06-17T10:38:59Z</time>
      </trkpt>
      <trkpt lat="44.26685" lon="5.75796">
        <ele>610</ele>
        <time>2019-06-17T10:39:00Z</time>
      </trkpt>
      <trkpt lat="44.26686" lon="5.75808">
        <ele>610</ele>
        <time>2019-06-17T10:39:01Z</time>
      </trkpt>
      <trkpt lat="44.26686" lon="5.75819">
        <ele>610</ele>
        <time>2019-06-17T10:39:02Z</time>
      </trkpt>
      <trkpt lat="44.26688" lon="5.75829">
        <ele>610</ele>
        <time>2019-06-17T10:39:03Z</time>
      </trkpt>
      <trkpt lat="44.26691" lon="5.75838">
        <ele>611</ele>
        <time>2019-06-17T10:39:04Z</time>
      </trkpt>
      <trkpt lat="44.26694" lon="5.75848">
        <ele>612</ele>
        <time>2019-06-17T10:39:05Z</time>
      </trkpt>
      <trkpt lat="44.26696" lon="5.75857">
        <ele>613</ele>
        <time>2019-06-17T10:39:06Z</time>
      </trkpt>
      <trkpt lat="44.26699" lon="5.75867">
        <ele>614</ele>
        <time>2019-06-17T10:39:07Z</time>
      </trkpt>
      <trkpt lat="44.26702" lon="5.75876">
        <ele>614</ele>
        <time>2019-06-17T10:39:08Z</time>
      </trkpt>
      <trkpt lat="44.26704" lon="5.75885">
        <ele>614</ele>
        <time>2019-06-17T10:39:09Z</time>
      </trkpt>
      <trkpt lat="44.26707" lon="5.75894">
        <ele>614</ele>
        <time>2019-06-17T10:39:10Z</time>
      </trkpt>
      <trkpt lat="44.26711" lon="5.75903">
        <ele>614</ele>
        <time>2019-06-17T10:39:11Z</time>
      </trkpt>
      <trkpt lat="44.26714" lon="5.75912">
        <ele>614</ele>
        <time>2019-06-17T10:39:12Z</time>
      </trkpt>
      <trkpt lat="44.26719" lon="5.7592">
        <ele>614</ele>
        <time>2019-06-17T10:39:13Z</time>
      </trkpt>
      <trkpt lat="44.26723" lon="5.75929">
        <ele>614</ele>
        <time>2019-06-17T10:39:14Z</time>
      </trkpt>
      <trkpt lat="44.26727" lon="5.75937">
        <ele>614</ele>
        <time>2019-06-17T10:39:15Z</time>
      </trkpt>
      <trkpt lat="44.26731" lon="5.75945">
        <ele>614</ele>
        <time>2019-06-17T10:39:16Z</time>
      </trkpt>
      <trkpt lat="44.26735" lon="5.75953">
        <ele>614</ele>
        <time>2019-06-17T10:39:17Z</time>
      </trkpt>
      <trkpt lat="44.26739" lon="5.75962">
        <ele>614</ele>
        <time>2019-06-17T10:39:18Z</time>
      </trkpt>
      <trkpt lat="44.26743" lon="5.75969">
        <ele>614</ele>
        <time>2019-06-17T10:39:19Z</time>
      </trkpt>
      <trkpt lat="44.26748" lon="5.75977">
        <ele>614</ele>
        <time>2019-06-17T10:39:20Z</time>
      </trkpt>
      <trkpt lat="44.26752" lon="5.75985">
        <ele>614</ele>
        <time>2019-06-17T10:39:21Z</time>
      </trkpt>
      <trkpt lat="44.26758" lon="5.75993">
        <ele>614</ele>
        <time>2019-06-17T10:39:22Z</time>
      </trkpt>
      <trkpt lat="44.26764" lon="5.76">
        <ele>614</ele>
        <time>2019-06-17T10:39:23Z</time>
      </trkpt>
      <trkpt lat="44.26769" lon="5.76007">
        <ele>614</ele>
        <time>2019-06-17T10:39:24Z</time>
      </trkpt>
      <trkpt lat="44.26775" lon="5.76013">
        <ele>614</ele>
        <time>2019-06-17T10:39:25Z</time>
      </trkpt>
      <trkpt lat="44.2678" lon="5.7602">
        <ele>614</ele>
        <time>2019-06-17T10:39:26Z</time>
      </trkpt>
      <trkpt lat="44.26785" lon="5.76026">
        <ele>614</ele>
        <time>2019-06-17T10:39:27Z</time>
      </trkpt>
      <trkpt lat="44.26791" lon="5.76032">
        <ele>614</ele>
        <time>2019-06-17T10:39:28Z</time>
      </trkpt>
      <trkpt lat="44.26796" lon="5.76039">
        <ele>614</ele>
        <time>2019-06-17T10:39:29Z</time>
      </trkpt>
      <trkpt lat="44.26801" lon="5.76045">
        <ele>614</ele>
        <time>2019-06-17T10:39:30Z</time>
      </trkpt>
      <trkpt lat="44.26807" lon="5.76051">
        <ele>614</ele>
        <time>2019-06-17T10:39:31Z</time>
      </trkpt>
      <trkpt lat="44.26812" lon="5.76058">
        <ele>614</ele>
        <time>2019-06-17T10:39:32Z</time>
      </trkpt>
      <trkpt lat="44.26818" lon="5.76064">
        <ele>614</ele>
        <time>2019-06-17T10:39:33Z</time>
      </trkpt>
      <trkpt lat="44.26823" lon="5.76071">
        <ele>614</ele>
        <time>2019-06-17T10:39:34Z</time>
      </trkpt>
      <trkpt lat="44.26828" lon="5.76079">
        <ele>614</ele>
        <time>2019-06-17T10:39:35Z</time>
      </trkpt>
      <trkpt lat="44.26833" lon="5.76086">
        <ele>614</ele>
        <time>2019-06-17T10:39:36Z</time>
      </trkpt>
      <trkpt lat="44.26838" lon="5.76093">
        <ele>614</ele>
        <time>2019-06-17T10:39:37Z</time>
      </trkpt>
      <trkpt lat="44.26842" lon="5.76101">
        <ele>614</ele>
        <time>2019-06-17T10:39:38Z</time>
      </trkpt>
      <trkpt lat="44.26846" lon="5.76109">
        <ele>614</ele>
        <time>2019-06-17T10:39:39Z</time>
      </trkpt>
      <trkpt lat="44.2685" lon="5.76118">
        <ele>613</ele>
        <time>2019-06-17T10:39:40Z</time>
      </trkpt>
      <trkpt lat="44.26854" lon="5.76126">
        <ele>613</ele>
        <time>2019-06-17T10:39:41Z</time>
      </trkpt>
      <trkpt lat="44.26858" lon="5.76135">
        <ele>612</ele>
        <time>2019-06-17T10:39:42Z</time>
      </trkpt>
      <trkpt lat="44.26861" lon="5.76145">
        <ele>611</ele>
        <time>2019-06-17T10:39:43Z</time>
      </trkpt>
      <trkpt lat="44.26864" lon="5.76154">
        <ele>610</ele>
        <time>2019-06-17T10:39:44Z</time>
      </trkpt>
      <trkpt lat="44.26865" lon="5.76163">
        <ele>609</ele>
        <time>2019-06-17T10:39:45Z</time>
      </trkpt>
      <trkpt lat="44.26868" lon="5.76173">
        <ele>608</ele>
        <time>2019-06-17T10:39:46Z</time>
      </trkpt>
      <trkpt lat="44.26869" lon="5.76182">
        <ele>607</ele>
        <time>2019-06-17T10:39:47Z</time>
      </trkpt>
      <trkpt lat="44.26869" lon="5.76192">
        <ele>606</ele>
        <time>2019-06-17T10:39:48Z</time>
      </trkpt>
      <trkpt lat="44.26869" lon="5.76202">
        <ele>605</ele>
        <time>2019-06-17T10:39:49Z</time>
      </trkpt>
      <trkpt lat="44.26868" lon="5.76212">
        <ele>604</ele>
        <time>2019-06-17T10:39:50Z</time>
      </trkpt>
      <trkpt lat="44.26866" lon="5.76221">
        <ele>603</ele>
        <time>2019-06-17T10:39:51Z</time>
      </trkpt>
      <trkpt lat="44.26864" lon="5.76231">
        <ele>602</ele>
        <time>2019-06-17T10:39:52Z</time>
      </trkpt>
      <trkpt lat="44.26862" lon="5.7624">
        <ele>602</ele>
        <time>2019-06-17T10:39:53Z</time>
      </trkpt>
      <trkpt lat="44.26857" lon="5.76248">
        <ele>602</ele>
        <time>2019-06-17T10:39:54Z</time>
      </trkpt>
      <trkpt lat="44.26853" lon="5.76255">
        <ele>602</ele>
        <time>2019-06-17T10:39:55Z</time>
      </trkpt>
      <trkpt lat="44.26848" lon="5.7626">
        <ele>602</ele>
        <time>2019-06-17T10:39:56Z</time>
      </trkpt>
      <trkpt lat="44.26843" lon="5.76265">
        <ele>602</ele>
        <time>2019-06-17T10:39:57Z</time>
      </trkpt>
      <trkpt lat="44.26837" lon="5.7627">
        <ele>602</ele>
        <time>2019-06-17T10:39:58Z</time>
      </trkpt>
      <trkpt lat="44.26831" lon="5.76274">
        <ele>602</ele>
        <time>2019-06-17T10:39:59Z</time>
      </trkpt>
      <trkpt lat="44.26823" lon="5.7628">
        <ele>602</ele>
        <time>2019-06-17T10:40:00Z</time>
      </trkpt>
      <trkpt lat="44.26815" lon="5.76284">
        <ele>602</ele>
        <time>2019-06-17T10:40:01Z</time>
      </trkpt>
      <trkpt lat="44.26807" lon="5.76288">
        <ele>602</ele>
        <time>2019-06-17T10:40:02Z</time>
      </trkpt>
      <trkpt lat="44.26799" lon="5.76291">
        <ele>602</ele>
        <time>2019-06-17T10:40:03Z</time>
      </trkpt>
      <trkpt lat="44.26791" lon="5.76294">
        <ele>602</ele>
        <time>2019-06-17T10:40:04Z</time>
      </trkpt>
      <trkpt lat="44.26783" lon="5.76297">
        <ele>603</ele>
        <time>2019-06-17T10:40:05Z</time>
      </trkpt>
      <trkpt lat="44.26776" lon="5.76299">
        <ele>603</ele>
        <time>2019-06-17T10:40:06Z</time>
      </trkpt>
      <trkpt lat="44.26769" lon="5.763">
        <ele>603</ele>
        <time>2019-06-17T10:40:07Z</time>
      </trkpt>
      <trkpt lat="44.26763" lon="5.763">
        <ele>604</ele>
        <time>2019-06-17T10:40:08Z</time>
      </trkpt>
      <trkpt lat="44.26757" lon="5.76301">
        <ele>605</ele>
        <time>2019-06-17T10:40:09Z</time>
      </trkpt>
      <trkpt lat="44.26751" lon="5.76301">
        <ele>606</ele>
        <time>2019-06-17T10:40:10Z</time>
      </trkpt>
      <trkpt lat="44.26744" lon="5.76303">
        <ele>607</ele>
        <time>2019-06-17T10:40:11Z</time>
      </trkpt>
      <trkpt lat="44.26738" lon="5.76305">
        <ele>608</ele>
        <time>2019-06-17T10:40:12Z</time>
      </trkpt>
      <trkpt lat="44.26731" lon="5.76307">
        <ele>609</ele>
        <time>2019-06-17T10:40:13Z</time>
      </trkpt>
      <trkpt lat="44.26724" lon="5.7631">
        <ele>610</ele>
        <time>2019-06-17T10:40:14Z</time>
      </trkpt>
      <trkpt lat="44.26717" lon="5.76313">
        <ele>611</ele>
        <time>2019-06-17T10:40:15Z</time>
      </trkpt>
      <trkpt lat="44.2671" lon="5.76316">
        <ele>611</ele>
        <time>2019-06-17T10:40:16Z</time>
      </trkpt>
      <trkpt lat="44.26703" lon="5.7632">
        <ele>611</ele>
        <time>2019-06-17T10:40:17Z</time>
      </trkpt>
      <trkpt lat="44.26697" lon="5.76323">
        <ele>611</ele>
        <time>2019-06-17T10:40:18Z</time>
      </trkpt>
      <trkpt lat="44.2669" lon="5.76326">
        <ele>611</ele>
        <time>2019-06-17T10:40:19Z</time>
      </trkpt>
      <trkpt lat="44.26683" lon="5.76329">
        <ele>611</ele>
        <time>2019-06-17T10:40:20Z</time>
      </trkpt>
      <trkpt lat="44.26677" lon="5.76332">
        <ele>611</ele>
        <time>2019-06-17T10:40:21Z</time>
      </trkpt>
      <trkpt lat="44.26671" lon="5.76335">
        <ele>610</ele>
        <time>2019-06-17T10:40:22Z</time>
      </trkpt>
      <trkpt lat="44.26664" lon="5.76338">
        <ele>609</ele>
        <time>2019-06-17T10:40:23Z</time>
      </trkpt>
      <trkpt lat="44.26658" lon="5.7634">
        <ele>608</ele>
        <time>2019-06-17T10:40:24Z</time>
      </trkpt>
      <trkpt lat="44.26651" lon="5.76342">
        <ele>607</ele>
        <time>2019-06-17T10:40:25Z</time>
      </trkpt>
      <trkpt lat="44.26645" lon="5.76343">
        <ele>606</ele>
        <time>2019-06-17T10:40:26Z</time>
      </trkpt>
      <trkpt lat="44.26638" lon="5.76345">
        <ele>605</ele>
        <time>2019-06-17T10:40:27Z</time>
      </trkpt>
      <trkpt lat="44.2663" lon="5.76347">
        <ele>604</ele>
        <time>2019-06-17T10:40:28Z</time>
      </trkpt>
      <trkpt lat="44.26624" lon="5.76349">
        <ele>603</ele>
        <time>2019-06-17T10:40:29Z</time>
      </trkpt>
      <trkpt lat="44.26617" lon="5.76351">
        <ele>602</ele>
        <time>2019-06-17T10:40:30Z</time>
      </trkpt>
      <trkpt lat="44.26609" lon="5.76353">
        <ele>600</ele>
        <time>2019-06-17T10:40:31Z</time>
      </trkpt>
      <trkpt lat="44.26602" lon="5.76355">
        <ele>599</ele>
        <time>2019-06-17T10:40:32Z</time>
      </trkpt>
      <trkpt lat="44.26595" lon="5.76356">
        <ele>597</ele>
        <time>2019-06-17T10:40:33Z</time>
      </trkpt>
      <trkpt lat="44.26588" lon="5.76358">
        <ele>595</ele>
        <time>2019-06-17T10:40:34Z</time>
      </trkpt>
      <trkpt lat="44.26582" lon="5.76361">
        <ele>594</ele>
        <time>2019-06-17T10:40:35Z</time>
      </trkpt>
      <trkpt lat="44.26576" lon="5.76365">
        <ele>592</ele>
        <time>2019-06-17T10:40:36Z</time>
      </trkpt>
      <trkpt lat="44.2657" lon="5.76371">
        <ele>590</ele>
        <time>2019-06-17T10:40:37Z</time>
      </trkpt>
      <trkpt lat="44.26564" lon="5.76379">
        <ele>589</ele>
        <time>2019-06-17T10:40:38Z</time>
      </trkpt>
      <trkpt lat="44.2656" lon="5.76388">
        <ele>588</ele>
        <time>2019-06-17T10:40:39Z</time>
      </trkpt>
      <trkpt lat="44.26556" lon="5.76396">
        <ele>587</ele>
        <time>2019-06-17T10:40:40Z</time>
      </trkpt>
      <trkpt lat="44.26553" lon="5.76404">
        <ele>586</ele>
        <time>2019-06-17T10:40:41Z</time>
      </trkpt>
      <trkpt lat="44.2655" lon="5.76414">
        <ele>585</ele>
        <time>2019-06-17T10:40:42Z</time>
      </trkpt>
      <trkpt lat="44.26547" lon="5.76422">
        <ele>585</ele>
        <time>2019-06-17T10:40:43Z</time>
      </trkpt>
      <trkpt lat="44.26544" lon="5.76432">
        <ele>585</ele>
        <time>2019-06-17T10:40:44Z</time>
      </trkpt>
      <trkpt lat="44.26543" lon="5.76443">
        <ele>585</ele>
        <time>2019-06-17T10:40:45Z</time>
      </trkpt>
      <trkpt lat="44.26542" lon="5.76454">
        <ele>585</ele>
        <time>2019-06-17T10:40:46Z</time>
      </trkpt>
      <trkpt lat="44.26545" lon="5.76463">
        <ele>585</ele>
        <time>2019-06-17T10:40:47Z</time>
      </trkpt>
      <trkpt lat="44.26548" lon="5.76472">
        <ele>586</ele>
        <time>2019-06-17T10:40:48Z</time>
      </trkpt>
      <trkpt lat="44.26554" lon="5.76478">
        <ele>587</ele>
        <time>2019-06-17T10:40:49Z</time>
      </trkpt>
      <trkpt lat="44.26562" lon="5.76483">
        <ele>588</ele>
        <time>2019-06-17T10:40:50Z</time>
      </trkpt>
      <trkpt lat="44.26569" lon="5.76487">
        <ele>589</ele>
        <time>2019-06-17T10:40:51Z</time>
      </trkpt>
      <trkpt lat="44.26576" lon="5.76492">
        <ele>590</ele>
        <time>2019-06-17T10:40:52Z</time>
      </trkpt>
      <trkpt lat="44.26583" lon="5.76499">
        <ele>591</ele>
        <time>2019-06-17T10:40:53Z</time>
      </trkpt>
      <trkpt lat="44.26589" lon="5.76506">
        <ele>592</ele>
        <time>2019-06-17T10:40:54Z</time>
      </trkpt>
      <trkpt lat="44.26595" lon="5.76515">
        <ele>593</ele>
        <time>2019-06-17T10:40:55Z</time>
      </trkpt>
      <trkpt lat="44.26601" lon="5.76525">
        <ele>594</ele>
        <time>2019-06-17T10:40:56Z</time>
      </trkpt>
      <trkpt lat="44.26606" lon="5.76535">
        <ele>595</ele>
        <time>2019-06-17T10:40:57Z</time>
      </trkpt>
      <trkpt lat="44.2661" lon="5.76545">
        <ele>596</ele>
        <time>2019-06-17T10:40:58Z</time>
      </trkpt>
      <trkpt lat="44.26614" lon="5.76555">
        <ele>596</ele>
        <time>2019-06-17T10:40:59Z</time>
      </trkpt>
      <trkpt lat="44.26618" lon="5.76566">
        <ele>596</ele>
        <time>2019-06-17T10:41:00Z</time>
      </trkpt>
      <trkpt lat="44.26623" lon="5.76576">
        <ele>596</ele>
        <time>2019-06-17T10:41:01Z</time>
      </trkpt>
      <trkpt lat="44.26628" lon="5.76586">
        <ele>596</ele>
        <time>2019-06-17T10:41:02Z</time>
      </trkpt>
      <trkpt lat="44.26635" lon="5.76621">
        <ele>596</ele>
        <time>2019-06-17T10:41:05Z</time>
      </trkpt>
      <trkpt lat="44.26625" lon="5.76676">
        <ele>596</ele>
        <time>2019-06-17T10:41:10Z</time>
      </trkpt>
      <trkpt lat="44.26616" lon="5.76685">
        <ele>596</ele>
        <time>2019-06-17T10:41:11Z</time>
      </trkpt>
      <trkpt lat="44.26601" lon="5.76702">
        <ele>595</ele>
        <time>2019-06-17T10:41:13Z</time>
      </trkpt>
      <trkpt lat="44.26592" lon="5.76708">
        <ele>594</ele>
        <time>2019-06-17T10:41:14Z</time>
      </trkpt>
      <trkpt lat="44.26584" lon="5.76714">
        <ele>593</ele>
        <time>2019-06-17T10:41:15Z</time>
      </trkpt>
      <trkpt lat="44.26577" lon="5.7672">
        <ele>592</ele>
        <time>2019-06-17T10:41:16Z</time>
      </trkpt>
      <trkpt lat="44.26568" lon="5.76726">
        <ele>591</ele>
        <time>2019-06-17T10:41:17Z</time>
      </trkpt>
      <trkpt lat="44.26563" lon="5.76736">
        <ele>590</ele>
        <time>2019-06-17T10:41:18Z</time>
      </trkpt>
      <trkpt lat="44.26556" lon="5.76749">
        <ele>589</ele>
        <time>2019-06-17T10:41:19Z</time>
      </trkpt>
      <trkpt lat="44.26551" lon="5.7676">
        <ele>588</ele>
        <time>2019-06-17T10:41:20Z</time>
      </trkpt>
      <trkpt lat="44.26546" lon="5.76772">
        <ele>587</ele>
        <time>2019-06-17T10:41:21Z</time>
      </trkpt>
      <trkpt lat="44.26541" lon="5.76785">
        <ele>586</ele>
        <time>2019-06-17T10:41:22Z</time>
      </trkpt>
      <trkpt lat="44.26535" lon="5.76795">
        <ele>586</ele>
        <time>2019-06-17T10:41:23Z</time>
      </trkpt>
      <trkpt lat="44.26526" lon="5.76807">
        <ele>586</ele>
        <time>2019-06-17T10:41:24Z</time>
      </trkpt>
      <trkpt lat="44.26518" lon="5.76815">
        <ele>586</ele>
        <time>2019-06-17T10:41:25Z</time>
      </trkpt>
      <trkpt lat="44.26508" lon="5.76822">
        <ele>586</ele>
        <time>2019-06-17T10:41:26Z</time>
      </trkpt>
      <trkpt lat="44.26499" lon="5.76827">
        <ele>587</ele>
        <time>2019-06-17T10:41:27Z</time>
      </trkpt>
      <trkpt lat="44.26489" lon="5.76832">
        <ele>588</ele>
        <time>2019-06-17T10:41:28Z</time>
      </trkpt>
      <trkpt lat="44.2648" lon="5.76836">
        <ele>588</ele>
        <time>2019-06-17T10:41:29Z</time>
      </trkpt>
      <trkpt lat="44.26471" lon="5.7684">
        <ele>589</ele>
        <time>2019-06-17T10:41:30Z</time>
      </trkpt>
      <trkpt lat="44.26463" lon="5.76844">
        <ele>589</ele>
        <time>2019-06-17T10:41:31Z</time>
      </trkpt>
      <trkpt lat="44.26456" lon="5.76848">
        <ele>590</ele>
        <time>2019-06-17T10:41:32Z</time>
      </trkpt>
      <trkpt lat="44.2645" lon="5.76853">
        <ele>591</ele>
        <time>2019-06-17T10:41:33Z</time>
      </trkpt>
      <trkpt lat="44.26452" lon="5.76875">
        <ele>592</ele>
        <time>2019-06-17T10:41:35Z</time>
      </trkpt>
      <trkpt lat="44.26458" lon="5.76884">
        <ele>593</ele>
        <time>2019-06-17T10:41:36Z</time>
      </trkpt>
      <trkpt lat="44.26566" lon="5.77013">
        <ele>594</ele>
        <time>2019-06-17T10:41:51Z</time>
      </trkpt>
      <trkpt lat="44.2658" lon="5.77022">
        <ele>596</ele>
        <time>2019-06-17T10:41:53Z</time>
      </trkpt>
      <trkpt lat="44.26589" lon="5.77022">
        <ele>599</ele>
        <time>2019-06-17T10:41:54Z</time>
      </trkpt>
      <trkpt lat="44.26613" lon="5.76985">
        <ele>602</ele>
        <time>2019-06-17T10:41:55Z</time>
      </trkpt>
      <trkpt lat="44.26623" lon="5.76981">
        <ele>605</ele>
        <time>2019-06-17T10:41:56Z</time>
      </trkpt>
      <trkpt lat="44.26635" lon="5.76978">
        <ele>608</ele>
        <time>2019-06-17T10:41:57Z</time>
      </trkpt>
      <trkpt lat="44.26645" lon="5.76978">
        <ele>611</ele>
        <time>2019-06-17T10:41:58Z</time>
      </trkpt>
      <trkpt lat="44.26654" lon="5.76978">
        <ele>613</ele>
        <time>2019-06-17T10:41:59Z</time>
      </trkpt>
      <trkpt lat="44.26661" lon="5.76979">
        <ele>615</ele>
        <time>2019-06-17T10:42:00Z</time>
      </trkpt>
      <trkpt lat="44.26667" lon="5.76979">
        <ele>617</ele>
        <time>2019-06-17T10:42:01Z</time>
      </trkpt>
      <trkpt lat="44.26675" lon="5.7698">
        <ele>619</ele>
        <time>2019-06-17T10:42:02Z</time>
      </trkpt>
      <trkpt lat="44.26685" lon="5.7698">
        <ele>620</ele>
        <time>2019-06-17T10:42:03Z</time>
      </trkpt>
      <trkpt lat="44.26695" lon="5.76981">
        <ele>620</ele>
        <time>2019-06-17T10:42:04Z</time>
      </trkpt>
      <trkpt lat="44.26702" lon="5.76987">
        <ele>620</ele>
        <time>2019-06-17T10:42:05Z</time>
      </trkpt>
      <trkpt lat="44.26709" lon="5.76994">
        <ele>619</ele>
        <time>2019-06-17T10:42:06Z</time>
      </trkpt>
      <trkpt lat="44.26714" lon="5.77003">
        <ele>618</ele>
        <time>2019-06-17T10:42:07Z</time>
      </trkpt>
      <trkpt lat="44.26717" lon="5.77014">
        <ele>617</ele>
        <time>2019-06-17T10:42:08Z</time>
      </trkpt>
      <trkpt lat="44.26715" lon="5.77028">
        <ele>616</ele>
        <time>2019-06-17T10:42:09Z</time>
      </trkpt>
      <trkpt lat="44.26714" lon="5.7704">
        <ele>615</ele>
        <time>2019-06-17T10:42:10Z</time>
      </trkpt>
      <trkpt lat="44.26714" lon="5.77051">
        <ele>613</ele>
        <time>2019-06-17T10:42:11Z</time>
      </trkpt>
      <trkpt lat="44.26713" lon="5.77063">
        <ele>611</ele>
        <time>2019-06-17T10:42:12Z</time>
      </trkpt>
      <trkpt lat="44.26712" lon="5.77073">
        <ele>609</ele>
        <time>2019-06-17T10:42:13Z</time>
      </trkpt>
      <trkpt lat="44.2671" lon="5.77085">
        <ele>607</ele>
        <time>2019-06-17T10:42:14Z</time>
      </trkpt>
      <trkpt lat="44.26706" lon="5.77092">
        <ele>605</ele>
        <time>2019-06-17T10:42:15Z</time>
      </trkpt>
      <trkpt lat="44.26702" lon="5.77098">
        <ele>603</ele>
        <time>2019-06-17T10:42:16Z</time>
      </trkpt>
      <trkpt lat="44.26697" lon="5.77104">
        <ele>600</ele>
        <time>2019-06-17T10:42:17Z</time>
      </trkpt>
      <trkpt lat="44.26692" lon="5.7711">
        <ele>597</ele>
        <time>2019-06-17T10:42:18Z</time>
      </trkpt>
      <trkpt lat="44.26687" lon="5.77116">
        <ele>594</ele>
        <time>2019-06-17T10:42:19Z</time>
      </trkpt>
      <trkpt lat="44.26682" lon="5.77122">
        <ele>590</ele>
        <time>2019-06-17T10:42:20Z</time>
      </trkpt>
      <trkpt lat="44.26677" lon="5.77128">
        <ele>586</ele>
        <time>2019-06-17T10:42:21Z</time>
      </trkpt>
      <trkpt lat="44.26672" lon="5.77133">
        <ele>582</ele>
        <time>2019-06-17T10:42:22Z</time>
      </trkpt>
      <trkpt lat="44.26668" lon="5.77139">
        <ele>579</ele>
        <time>2019-06-17T10:42:23Z</time>
      </trkpt>
      <trkpt lat="44.26663" lon="5.77144">
        <ele>575</ele>
        <time>2019-06-17T10:42:24Z</time>
      </trkpt>
      <trkpt lat="44.26659" lon="5.7715">
        <ele>571</ele>
        <time>2019-06-17T10:42:25Z</time>
      </trkpt>
      <trkpt lat="44.26654" lon="5.77157">
        <ele>568</ele>
        <time>2019-06-17T10:42:26Z</time>
      </trkpt>
      <trkpt lat="44.26649" lon="5.77163">
        <ele>565</ele>
        <time>2019-06-17T10:42:27Z</time>
      </trkpt>
      <trkpt lat="44.26641" lon="5.77171">
        <ele>562</ele>
        <time>2019-06-17T10:42:28Z</time>
      </trkpt>
      <trkpt lat="44.26634" lon="5.77179">
        <ele>559</ele>
        <time>2019-06-17T10:42:29Z</time>
      </trkpt>
      <trkpt lat="44.26627" lon="5.77185">
        <ele>557</ele>
        <time>2019-06-17T10:42:30Z</time>
      </trkpt>
      <trkpt lat="44.2662" lon="5.77191">
        <ele>555</ele>
        <time>2019-06-17T10:42:31Z</time>
      </trkpt>
      <trkpt lat="44.26614" lon="5.77197">
        <ele>553</ele>
        <time>2019-06-17T10:42:32Z</time>
      </trkpt>
      <trkpt lat="44.26607" lon="5.77204">
        <ele>552</ele>
        <time>2019-06-17T10:42:33Z</time>
      </trkpt>
      <trkpt lat="44.26601" lon="5.77211">
        <ele>551</ele>
        <time>2019-06-17T10:42:34Z</time>
      </trkpt>
      <trkpt lat="44.26596" lon="5.77219">
        <ele>550</ele>
        <time>2019-06-17T10:42:35Z</time>
      </trkpt>
      <trkpt lat="44.26593" lon="5.77229">
        <ele>549</ele>
        <time>2019-06-17T10:42:36Z</time>
      </trkpt>
      <trkpt lat="44.26591" lon="5.7724">
        <ele>549</ele>
        <time>2019-06-17T10:42:37Z</time>
      </trkpt>
      <trkpt lat="44.26592" lon="5.77248">
        <ele>549</ele>
        <time>2019-06-17T10:42:38Z</time>
      </trkpt>
      <trkpt lat="44.26596" lon="5.77257">
        <ele>550</ele>
        <time>2019-06-17T10:42:39Z</time>
      </trkpt>
      <trkpt lat="44.26601" lon="5.77265">
        <ele>551</ele>
        <time>2019-06-17T10:42:40Z</time>
      </trkpt>
      <trkpt lat="44.26607" lon="5.77272">
        <ele>553</ele>
        <time>2019-06-17T10:42:41Z</time>
      </trkpt>
      <trkpt lat="44.26614" lon="5.77279">
        <ele>555</ele>
        <time>2019-06-17T10:42:42Z</time>
      </trkpt>
      <trkpt lat="44.2662" lon="5.77285">
        <ele>557</ele>
        <time>2019-06-17T10:42:43Z</time>
      </trkpt>
      <trkpt lat="44.26625" lon="5.77291">
        <ele>559</ele>
        <time>2019-06-17T10:42:44Z</time>
      </trkpt>
      <trkpt lat="44.26632" lon="5.77297">
        <ele>561</ele>
        <time>2019-06-17T10:42:45Z</time>
      </trkpt>
      <trkpt lat="44.26638" lon="5.77303">
        <ele>563</ele>
        <time>2019-06-17T10:42:46Z</time>
      </trkpt>
      <trkpt lat="44.26644" lon="5.77309">
        <ele>565</ele>
        <time>2019-06-17T10:42:47Z</time>
      </trkpt>
      <trkpt lat="44.26648" lon="5.77315">
        <ele>567</ele>
        <time>2019-06-17T10:42:48Z</time>
      </trkpt>
      <trkpt lat="44.26655" lon="5.77322">
        <ele>569</ele>
        <time>2019-06-17T10:42:49Z</time>
      </trkpt>
      <trkpt lat="44.26662" lon="5.77329">
        <ele>571</ele>
        <time>2019-06-17T10:42:50Z</time>
      </trkpt>
      <trkpt lat="44.26666" lon="5.77336">
        <ele>573</ele>
        <time>2019-06-17T10:42:51Z</time>
      </trkpt>
      <trkpt lat="44.2667" lon="5.77345">
        <ele>575</ele>
        <time>2019-06-17T10:42:52Z</time>
      </trkpt>
      <trkpt lat="44.26673" lon="5.77355">
        <ele>577</ele>
        <time>2019-06-17T10:42:53Z</time>
      </trkpt>
      <trkpt lat="44.26679" lon="5.77383">
        <ele>579</ele>
        <time>2019-06-17T10:42:56Z</time>
      </trkpt>
      <trkpt lat="44.26692" lon="5.77408">
        <ele>581</ele>
        <time>2019-06-17T10:42:59Z</time>
      </trkpt>
      <trkpt lat="44.26699" lon="5.77416">
        <ele>583</ele>
        <time>2019-06-17T10:43:00Z</time>
      </trkpt>
      <trkpt lat="44.26704" lon="5.77424">
        <ele>585</ele>
        <time>2019-06-17T10:43:01Z</time>
      </trkpt>
      <trkpt lat="44.26709" lon="5.77432">
        <ele>586</ele>
        <time>2019-06-17T10:43:02Z</time>
      </trkpt>
      <trkpt lat="44.26714" lon="5.7744">
        <ele>587</ele>
        <time>2019-06-17T10:43:03Z</time>
      </trkpt>
      <trkpt lat="44.26719" lon="5.77449">
        <ele>588</ele>
        <time>2019-06-17T10:43:04Z</time>
      </trkpt>
      <trkpt lat="44.26723" lon="5.77457">
        <ele>589</ele>
        <time>2019-06-17T10:43:05Z</time>
      </trkpt>
      <trkpt lat="44.26727" lon="5.77463">
        <ele>590</ele>
        <time>2019-06-17T10:43:06Z</time>
      </trkpt>
      <trkpt lat="44.26731" lon="5.77469">
        <ele>591</ele>
        <time>2019-06-17T10:43:07Z</time>
      </trkpt>
      <trkpt lat="44.26736" lon="5.77477">
        <ele>592</ele>
        <time>2019-06-17T10:43:08Z</time>
      </trkpt>
      <trkpt lat="44.26744" lon="5.77491">
        <ele>593</ele>
        <time>2019-06-17T10:43:10Z</time>
      </trkpt>
      <trkpt lat="44.26749" lon="5.77499">
        <ele>594</ele>
        <time>2019-06-17T10:43:11Z</time>
      </trkpt>
      <trkpt lat="44.26751" lon="5.77507">
        <ele>595</ele>
        <time>2019-06-17T10:43:12Z</time>
      </trkpt>
      <trkpt lat="44.26756" lon="5.77514">
        <ele>596</ele>
        <time>2019-06-17T10:43:13Z</time>
      </trkpt>
      <trkpt lat="44.26761" lon="5.77522">
        <ele>596</ele>
        <time>2019-06-17T10:43:14Z</time>
      </trkpt>
      <trkpt lat="44.26765" lon="5.77528">
        <ele>596</ele>
        <time>2019-06-17T10:43:15Z</time>
      </trkpt>
      <trkpt lat="44.2677" lon="5.77534">
        <ele>596</ele>
        <time>2019-06-17T10:43:16Z</time>
      </trkpt>
      <trkpt lat="44.2678" lon="5.77545">
        <ele>596</ele>
        <time>2019-06-17T10:43:18Z</time>
      </trkpt>
      <trkpt lat="44.26784" lon="5.77549">
        <ele>596</ele>
        <time>2019-06-17T10:43:19Z</time>
      </trkpt>
      <trkpt lat="44.26812" lon="5.77556">
        <ele>595</ele>
        <time>2019-06-17T10:43:23Z</time>
      </trkpt>
      <trkpt lat="44.26818" lon="5.77554">
        <ele>594</ele>
        <time>2019-06-17T10:43:24Z</time>
      </trkpt>
      <trkpt lat="44.26824" lon="5.77549">
        <ele>593</ele>
        <time>2019-06-17T10:43:25Z</time>
      </trkpt>
      <trkpt lat="44.2683" lon="5.77544">
        <ele>593</ele>
        <time>2019-06-17T10:43:26Z</time>
      </trkpt>
      <trkpt lat="44.26836" lon="5.77541">
        <ele>593</ele>
        <time>2019-06-17T10:43:27Z</time>
      </trkpt>
      <trkpt lat="44.26842" lon="5.77537">
        <ele>593</ele>
        <time>2019-06-17T10:43:28Z</time>
      </trkpt>
      <trkpt lat="44.26848" lon="5.77534">
        <ele>592</ele>
        <time>2019-06-17T10:43:29Z</time>
      </trkpt>
      <trkpt lat="44.26854" lon="5.7753">
        <ele>591</ele>
        <time>2019-06-17T10:43:30Z</time>
      </trkpt>
      <trkpt lat="44.26861" lon="5.77526">
        <ele>591</ele>
        <time>2019-06-17T10:43:31Z</time>
      </trkpt>
      <trkpt lat="44.26867" lon="5.77522">
        <ele>591</ele>
        <time>2019-06-17T10:43:32Z</time>
      </trkpt>
      <trkpt lat="44.26872" lon="5.77517">
        <ele>591</ele>
        <time>2019-06-17T10:43:33Z</time>
      </trkpt>
      <trkpt lat="44.26878" lon="5.77513">
        <ele>590</ele>
        <time>2019-06-17T10:43:34Z</time>
      </trkpt>
      <trkpt lat="44.26884" lon="5.77508">
        <ele>589</ele>
        <time>2019-06-17T10:43:35Z</time>
      </trkpt>
      <trkpt lat="44.2689" lon="5.77503">
        <ele>588</ele>
        <time>2019-06-17T10:43:36Z</time>
      </trkpt>
      <trkpt lat="44.26896" lon="5.77498">
        <ele>587</ele>
        <time>2019-06-17T10:43:37Z</time>
      </trkpt>
      <trkpt lat="44.26902" lon="5.77493">
        <ele>587</ele>
        <time>2019-06-17T10:43:38Z</time>
      </trkpt>
      <trkpt lat="44.26907" lon="5.77489">
        <ele>587</ele>
        <time>2019-06-17T10:43:39Z</time>
      </trkpt>
      <trkpt lat="44.26913" lon="5.77484">
        <ele>586</ele>
        <time>2019-06-17T10:43:40Z</time>
      </trkpt>
      <trkpt lat="44.26919" lon="5.77479">
        <ele>586</ele>
        <time>2019-06-17T10:43:41Z</time>
      </trkpt>
      <trkpt lat="44.26925" lon="5.77474">
        <ele>585</ele>
        <time>2019-06-17T10:43:42Z</time>
      </trkpt>
      <trkpt lat="44.26932" lon="5.77469">
        <ele>584</ele>
        <time>2019-06-17T10:43:43Z</time>
      </trkpt>
      <trkpt lat="44.26939" lon="5.77466">
        <ele>583</ele>
        <time>2019-06-17T10:43:44Z</time>
      </trkpt>
      <trkpt lat="44.26947" lon="5.77462">
        <ele>583</ele>
        <time>2019-06-17T10:43:45Z</time>
      </trkpt>
      <trkpt lat="44.26954" lon="5.77459">
        <ele>583</ele>
        <time>2019-06-17T10:43:46Z</time>
      </trkpt>
      <trkpt lat="44.26962" lon="5.77457">
        <ele>583</ele>
        <time>2019-06-17T10:43:47Z</time>
      </trkpt>
      <trkpt lat="44.26968" lon="5.77454">
        <ele>584</ele>
        <time>2019-06-17T10:43:48Z</time>
      </trkpt>
      <trkpt lat="44.26975" lon="5.77451">
        <ele>585</ele>
        <time>2019-06-17T10:43:49Z</time>
      </trkpt>
      <trkpt lat="44.26981" lon="5.77447">
        <ele>586</ele>
        <time>2019-06-17T10:43:50Z</time>
      </trkpt>
      <trkpt lat="44.26988" lon="5.77444">
        <ele>587</ele>
        <time>2019-06-17T10:43:51Z</time>
      </trkpt>
      <trkpt lat="44.26995" lon="5.77442">
        <ele>588</ele>
        <time>2019-06-17T10:43:52Z</time>
      </trkpt>
      <trkpt lat="44.27002" lon="5.77444">
        <ele>589</ele>
        <time>2019-06-17T10:43:53Z</time>
      </trkpt>
      <trkpt lat="44.27008" lon="5.77448">
        <ele>590</ele>
        <time>2019-06-17T10:43:54Z</time>
      </trkpt>
      <trkpt lat="44.27015" lon="5.77452">
        <ele>591</ele>
        <time>2019-06-17T10:43:55Z</time>
      </trkpt>
      <trkpt lat="44.27021" lon="5.77457">
        <ele>592</ele>
        <time>2019-06-17T10:43:56Z</time>
      </trkpt>
      <trkpt lat="44.27026" lon="5.77461">
        <ele>593</ele>
        <time>2019-06-17T10:43:57Z</time>
      </trkpt>
      <trkpt lat="44.27032" lon="5.77466">
        <ele>594</ele>
        <time>2019-06-17T10:43:58Z</time>
      </trkpt>
      <trkpt lat="44.27037" lon="5.77473">
        <ele>595</ele>
        <time>2019-06-17T10:43:59Z</time>
      </trkpt>
      <trkpt lat="44.2704" lon="5.77481">
        <ele>596</ele>
        <time>2019-06-17T10:44:00Z</time>
      </trkpt>
      <trkpt lat="44.27044" lon="5.77488">
        <ele>597</ele>
        <time>2019-06-17T10:44:01Z</time>
      </trkpt>
      <trkpt lat="44.27049" lon="5.77494">
        <ele>597</ele>
        <time>2019-06-17T10:44:02Z</time>
      </trkpt>
      <trkpt lat="44.27055" lon="5.77499">
        <ele>597</ele>
        <time>2019-06-17T10:44:03Z</time>
      </trkpt>
      <trkpt lat="44.27062" lon="5.77501">
        <ele>598</ele>
        <time>2019-06-17T10:44:04Z</time>
      </trkpt>
      <trkpt lat="44.27069" lon="5.77503">
        <ele>598</ele>
        <time>2019-06-17T10:44:05Z</time>
      </trkpt>
      <trkpt lat="44.27075" lon="5.77506">
        <ele>598</ele>
        <time>2019-06-17T10:44:06Z</time>
      </trkpt>
      <trkpt lat="44.27081" lon="5.77512">
        <ele>598</ele>
        <time>2019-06-17T10:44:07Z</time>
      </trkpt>
      <trkpt lat="44.27087" lon="5.7752">
        <ele>598</ele>
        <time>2019-06-17T10:44:08Z</time>
      </trkpt>
      <trkpt lat="44.27092" lon="5.77528">
        <ele>598</ele>
        <time>2019-06-17T10:44:09Z</time>
      </trkpt>
      <trkpt lat="44.27097" lon="5.77537">
        <ele>597</ele>
        <time>2019-06-17T10:44:10Z</time>
      </trkpt>
      <trkpt lat="44.27102" lon="5.77546">
        <ele>596</ele>
        <time>2019-06-17T10:44:11Z</time>
      </trkpt>
      <trkpt lat="44.27107" lon="5.77557">
        <ele>595</ele>
        <time>2019-06-17T10:44:12Z</time>
      </trkpt>
      <trkpt lat="44.27112" lon="5.77568">
        <ele>594</ele>
        <time>2019-06-17T10:44:13Z</time>
      </trkpt>
      <trkpt lat="44.27116" lon="5.77579">
        <ele>593</ele>
        <time>2019-06-17T10:44:14Z</time>
      </trkpt>
      <trkpt lat="44.27118" lon="5.77591">
        <ele>592</ele>
        <time>2019-06-17T10:44:15Z</time>
      </trkpt>
      <trkpt lat="44.27119" lon="5.77602">
        <ele>591</ele>
        <time>2019-06-17T10:44:16Z</time>
      </trkpt>
      <trkpt lat="44.27119" lon="5.77614">
        <ele>591</ele>
        <time>2019-06-17T10:44:17Z</time>
      </trkpt>
      <trkpt lat="44.27122" lon="5.77626">
        <ele>591</ele>
        <time>2019-06-17T10:44:18Z</time>
      </trkpt>
      <trkpt lat="44.27124" lon="5.77638">
        <ele>591</ele>
        <time>2019-06-17T10:44:19Z</time>
      </trkpt>
      <trkpt lat="44.27126" lon="5.7765">
        <ele>591</ele>
        <time>2019-06-17T10:44:20Z</time>
      </trkpt>
      <trkpt lat="44.27129" lon="5.77662">
        <ele>591</ele>
        <time>2019-06-17T10:44:21Z</time>
      </trkpt>
      <trkpt lat="44.27132" lon="5.77673">
        <ele>591</ele>
        <time>2019-06-17T10:44:22Z</time>
      </trkpt>
      <trkpt lat="44.27136" lon="5.77683">
        <ele>591</ele>
        <time>2019-06-17T10:44:23Z</time>
      </trkpt>
      <trkpt lat="44.27141" lon="5.77693">
        <ele>591</ele>
        <time>2019-06-17T10:44:24Z</time>
      </trkpt>
      <trkpt lat="44.27148" lon="5.77701">
        <ele>591</ele>
        <time>2019-06-17T10:44:25Z</time>
      </trkpt>
      <trkpt lat="44.27156" lon="5.77708">
        <ele>591</ele>
        <time>2019-06-17T10:44:26Z</time>
      </trkpt>
      <trkpt lat="44.27163" lon="5.77714">
        <ele>591</ele>
        <time>2019-06-17T10:44:27Z</time>
      </trkpt>
      <trkpt lat="44.27171" lon="5.77719">
        <ele>591</ele>
        <time>2019-06-17T10:44:28Z</time>
      </trkpt>
      <trkpt lat="44.2718" lon="5.77726">
        <ele>591</ele>
        <time>2019-06-17T10:44:29Z</time>
      </trkpt>
      <trkpt lat="44.27188" lon="5.77733">
        <ele>591</ele>
        <time>2019-06-17T10:44:30Z</time>
      </trkpt>
      <trkpt lat="44.27197" lon="5.77738">
        <ele>591</ele>
        <time>2019-06-17T10:44:31Z</time>
      </trkpt>
      <trkpt lat="44.27205" lon="5.77744">
        <ele>591</ele>
        <time>2019-06-17T10:44:32Z</time>
      </trkpt>
      <trkpt lat="44.27214" lon="5.77749">
        <ele>591</ele>
        <time>2019-06-17T10:44:33Z</time>
      </trkpt>
      <trkpt lat="44.27223" lon="5.77753">
        <ele>591</ele>
        <time>2019-06-17T10:44:34Z</time>
      </trkpt>
      <trkpt lat="44.27232" lon="5.77755">
        <ele>591</ele>
        <time>2019-06-17T10:44:35Z</time>
      </trkpt>
      <trkpt lat="44.27241" lon="5.77754">
        <ele>591</ele>
        <time>2019-06-17T10:44:36Z</time>
      </trkpt>
      <trkpt lat="44.2725" lon="5.77751">
        <ele>591</ele>
        <time>2019-06-17T10:44:37Z</time>
      </trkpt>
      <trkpt lat="44.27258" lon="5.77748">
        <ele>591</ele>
        <time>2019-06-17T10:44:38Z</time>
      </trkpt>
      <trkpt lat="44.27267" lon="5.77745">
        <ele>591</ele>
        <time>2019-06-17T10:44:39Z</time>
      </trkpt>
      <trkpt lat="44.27277" lon="5.77742">
        <ele>591</ele>
        <time>2019-06-17T10:44:40Z</time>
      </trkpt>
      <trkpt lat="44.27285" lon="5.77742">
        <ele>591</ele>
        <time>2019-06-17T10:44:41Z</time>
      </trkpt>
      <trkpt lat="44.27291" lon="5.77746">
        <ele>591</ele>
        <time>2019-06-17T10:44:42Z</time>
      </trkpt>
      <trkpt lat="44.27296" lon="5.77753">
        <ele>591</ele>
        <time>2019-06-17T10:44:43Z</time>
      </trkpt>
      <trkpt lat="44.27299" lon="5.77761">
        <ele>591</ele>
        <time>2019-06-17T10:44:44Z</time>
      </trkpt>
      <trkpt lat="44.27301" lon="5.7777">
        <ele>591</ele>
        <time>2019-06-17T10:44:45Z</time>
      </trkpt>
      <trkpt lat="44.273" lon="5.77779">
        <ele>591</ele>
        <time>2019-06-17T10:44:46Z</time>
      </trkpt>
      <trkpt lat="44.27299" lon="5.77789">
        <ele>591</ele>
        <time>2019-06-17T10:44:47Z</time>
      </trkpt>
      <trkpt lat="44.273" lon="5.77798">
        <ele>591</ele>
        <time>2019-06-17T10:44:48Z</time>
      </trkpt>
      <trkpt lat="44.27303" lon="5.77806">
        <ele>591</ele>
        <time>2019-06-17T10:44:49Z</time>
      </trkpt>
      <trkpt lat="44.27307" lon="5.77812">
        <ele>591</ele>
        <time>2019-06-17T10:44:50Z</time>
      </trkpt>
      <trkpt lat="44.27312" lon="5.77819">
        <ele>591</ele>
        <time>2019-06-17T10:44:51Z</time>
      </trkpt>
      <trkpt lat="44.27317" lon="5.77823">
        <ele>591</ele>
        <time>2019-06-17T10:44:52Z</time>
      </trkpt>
      <trkpt lat="44.27322" lon="5.77828">
        <ele>590</ele>
        <time>2019-06-17T10:44:53Z</time>
      </trkpt>
      <trkpt lat="44.27328" lon="5.77833">
        <ele>589</ele>
        <time>2019-06-17T10:44:54Z</time>
      </trkpt>
      <trkpt lat="44.27334" lon="5.77838">
        <ele>588</ele>
        <time>2019-06-17T10:44:55Z</time>
      </trkpt>
      <trkpt lat="44.2734" lon="5.77844">
        <ele>587</ele>
        <time>2019-06-17T10:44:56Z</time>
      </trkpt>
      <trkpt lat="44.27346" lon="5.7785">
        <ele>586</ele>
        <time>2019-06-17T10:44:57Z</time>
      </trkpt>
      <trkpt lat="44.27352" lon="5.77856">
        <ele>586</ele>
        <time>2019-06-17T10:44:58Z</time>
      </trkpt>
      <trkpt lat="44.27358" lon="5.77863">
        <ele>586</ele>
        <time>2019-06-17T10:44:59Z</time>
      </trkpt>
      <trkpt lat="44.27364" lon="5.7787">
        <ele>585</ele>
        <time>2019-06-17T10:45:00Z</time>
      </trkpt>
      <trkpt lat="44.2737" lon="5.77877">
        <ele>584</ele>
        <time>2019-06-17T10:45:01Z</time>
      </trkpt>
      <trkpt lat="44.27376" lon="5.77884">
        <ele>584</ele>
        <time>2019-06-17T10:45:02Z</time>
      </trkpt>
      <trkpt lat="44.27382" lon="5.77892">
        <ele>583</ele>
        <time>2019-06-17T10:45:03Z</time>
      </trkpt>
      <trkpt lat="44.27388" lon="5.77899">
        <ele>583</ele>
        <time>2019-06-17T10:45:04Z</time>
      </trkpt>
      <trkpt lat="44.27394" lon="5.77907">
        <ele>582</ele>
        <time>2019-06-17T10:45:05Z</time>
      </trkpt>
      <trkpt lat="44.27399" lon="5.77915">
        <ele>581</ele>
        <time>2019-06-17T10:45:06Z</time>
      </trkpt>
      <trkpt lat="44.27405" lon="5.77925">
        <ele>580</ele>
        <time>2019-06-17T10:45:07Z</time>
      </trkpt>
      <trkpt lat="44.27407" lon="5.77935">
        <ele>579</ele>
        <time>2019-06-17T10:45:08Z</time>
      </trkpt>
      <trkpt lat="44.2741" lon="5.77946">
        <ele>578</ele>
        <time>2019-06-17T10:45:09Z</time>
      </trkpt>
      <trkpt lat="44.27411" lon="5.77957">
        <ele>577</ele>
        <time>2019-06-17T10:45:10Z</time>
      </trkpt>
      <trkpt lat="44.2741" lon="5.77968">
        <ele>576</ele>
        <time>2019-06-17T10:45:11Z</time>
      </trkpt>
      <trkpt lat="44.27409" lon="5.77979">
        <ele>575</ele>
        <time>2019-06-17T10:45:12Z</time>
      </trkpt>
      <trkpt lat="44.2741" lon="5.7799">
        <ele>574</ele>
        <time>2019-06-17T10:45:13Z</time>
      </trkpt>
      <trkpt lat="44.27412" lon="5.78001">
        <ele>573</ele>
        <time>2019-06-17T10:45:14Z</time>
      </trkpt>
      <trkpt lat="44.27414" lon="5.78012">
        <ele>572</ele>
        <time>2019-06-17T10:45:15Z</time>
      </trkpt>
      <trkpt lat="44.27416" lon="5.78022">
        <ele>571</ele>
        <time>2019-06-17T10:45:16Z</time>
      </trkpt>
      <trkpt lat="44.27419" lon="5.78032">
        <ele>571</ele>
        <time>2019-06-17T10:45:17Z</time>
      </trkpt>
      <trkpt lat="44.27423" lon="5.7804">
        <ele>571</ele>
        <time>2019-06-17T10:45:18Z</time>
      </trkpt>
      <trkpt lat="44.27428" lon="5.78048">
        <ele>571</ele>
        <time>2019-06-17T10:45:19Z</time>
      </trkpt>
      <trkpt lat="44.27433" lon="5.78055">
        <ele>570</ele>
        <time>2019-06-17T10:45:20Z</time>
      </trkpt>
      <trkpt lat="44.27439" lon="5.78062">
        <ele>570</ele>
        <time>2019-06-17T10:45:21Z</time>
      </trkpt>
      <trkpt lat="44.27445" lon="5.78069">
        <ele>569</ele>
        <time>2019-06-17T10:45:22Z</time>
      </trkpt>
      <trkpt lat="44.27452" lon="5.78077">
        <ele>568</ele>
        <time>2019-06-17T10:45:23Z</time>
      </trkpt>
      <trkpt lat="44.27458" lon="5.78084">
        <ele>568</ele>
        <time>2019-06-17T10:45:24Z</time>
      </trkpt>
      <trkpt lat="44.27465" lon="5.7809">
        <ele>567</ele>
        <time>2019-06-17T10:45:25Z</time>
      </trkpt>
      <trkpt lat="44.27471" lon="5.78097">
        <ele>567</ele>
        <time>2019-06-17T10:45:26Z</time>
      </trkpt>
      <trkpt lat="44.27478" lon="5.78103">
        <ele>566</ele>
        <time>2019-06-17T10:45:27Z</time>
      </trkpt>
      <trkpt lat="44.27484" lon="5.7811">
        <ele>565</ele>
        <time>2019-06-17T10:45:28Z</time>
      </trkpt>
      <trkpt lat="44.27489" lon="5.78117">
        <ele>564</ele>
        <time>2019-06-17T10:45:29Z</time>
      </trkpt>
      <trkpt lat="44.27495" lon="5.78125">
        <ele>563</ele>
        <time>2019-06-17T10:45:30Z</time>
      </trkpt>
      <trkpt lat="44.27501" lon="5.78132">
        <ele>562</ele>
        <time>2019-06-17T10:45:31Z</time>
      </trkpt>
      <trkpt lat="44.27506" lon="5.78138">
        <ele>561</ele>
        <time>2019-06-17T10:45:32Z</time>
      </trkpt>
      <trkpt lat="44.27513" lon="5.78146">
        <ele>561</ele>
        <time>2019-06-17T10:45:33Z</time>
      </trkpt>
      <trkpt lat="44.2752" lon="5.78153">
        <ele>561</ele>
        <time>2019-06-17T10:45:34Z</time>
      </trkpt>
      <trkpt lat="44.27526" lon="5.78161">
        <ele>560</ele>
        <time>2019-06-17T10:45:35Z</time>
      </trkpt>
      <trkpt lat="44.27532" lon="5.78169">
        <ele>559</ele>
        <time>2019-06-17T10:45:36Z</time>
      </trkpt>
      <trkpt lat="44.27537" lon="5.78178">
        <ele>558</ele>
        <time>2019-06-17T10:45:37Z</time>
      </trkpt>
      <trkpt lat="44.27542" lon="5.78188">
        <ele>557</ele>
        <time>2019-06-17T10:45:38Z</time>
      </trkpt>
      <trkpt lat="44.27546" lon="5.78198">
        <ele>556</ele>
        <time>2019-06-17T10:45:39Z</time>
      </trkpt>
      <trkpt lat="44.27548" lon="5.78209">
        <ele>555</ele>
        <time>2019-06-17T10:45:40Z</time>
      </trkpt>
      <trkpt lat="44.27549" lon="5.78221">
        <ele>554</ele>
        <time>2019-06-17T10:45:41Z</time>
      </trkpt>
      <trkpt lat="44.27549" lon="5.78234">
        <ele>553</ele>
        <time>2019-06-17T10:45:42Z</time>
      </trkpt>
      <trkpt lat="44.27548" lon="5.78246">
        <ele>553</ele>
        <time>2019-06-17T10:45:43Z</time>
      </trkpt>
      <trkpt lat="44.27546" lon="5.78257">
        <ele>553</ele>
        <time>2019-06-17T10:45:44Z</time>
      </trkpt>
      <trkpt lat="44.27542" lon="5.78268">
        <ele>553</ele>
        <time>2019-06-17T10:45:45Z</time>
      </trkpt>
      <trkpt lat="44.27535" lon="5.78276">
        <ele>553</ele>
        <time>2019-06-17T10:45:46Z</time>
      </trkpt>
      <trkpt lat="44.27527" lon="5.78281">
        <ele>554</ele>
        <time>2019-06-17T10:45:47Z</time>
      </trkpt>
      <trkpt lat="44.27518" lon="5.78285">
        <ele>555</ele>
        <time>2019-06-17T10:45:48Z</time>
      </trkpt>
      <trkpt lat="44.2751" lon="5.78289">
        <ele>556</ele>
        <time>2019-06-17T10:45:49Z</time>
      </trkpt>
      <trkpt lat="44.27502" lon="5.78293">
        <ele>557</ele>
        <time>2019-06-17T10:45:50Z</time>
      </trkpt>
      <trkpt lat="44.27495" lon="5.78299">
        <ele>558</ele>
        <time>2019-06-17T10:45:51Z</time>
      </trkpt>
      <trkpt lat="44.27488" lon="5.78306">
        <ele>559</ele>
        <time>2019-06-17T10:45:52Z</time>
      </trkpt>
      <trkpt lat="44.27481" lon="5.78315">
        <ele>560</ele>
        <time>2019-06-17T10:45:53Z</time>
      </trkpt>
      <trkpt lat="44.27475" lon="5.78324">
        <ele>561</ele>
        <time>2019-06-17T10:45:54Z</time>
      </trkpt>
      <trkpt lat="44.27469" lon="5.78334">
        <ele>562</ele>
        <time>2019-06-17T10:45:55Z</time>
      </trkpt>
      <trkpt lat="44.27465" lon="5.78344">
        <ele>563</ele>
        <time>2019-06-17T10:45:56Z</time>
      </trkpt>
      <trkpt lat="44.27463" lon="5.78355">
        <ele>564</ele>
        <time>2019-06-17T10:45:57Z</time>
      </trkpt>
      <trkpt lat="44.27461" lon="5.78366">
        <ele>565</ele>
        <time>2019-06-17T10:45:58Z</time>
      </trkpt>
      <trkpt lat="44.27464" lon="5.78377">
        <ele>566</ele>
        <time>2019-06-17T10:45:59Z</time>
      </trkpt>
      <trkpt lat="44.2747" lon="5.78385">
        <ele>567</ele>
        <time>2019-06-17T10:46:00Z</time>
      </trkpt>
      <trkpt lat="44.27475" lon="5.78391">
        <ele>568</ele>
        <time>2019-06-17T10:46:01Z</time>
      </trkpt>
      <trkpt lat="44.27485" lon="5.78397">
        <ele>569</ele>
        <time>2019-06-17T10:46:02Z</time>
      </trkpt>
      <trkpt lat="44.27494" lon="5.78403">
        <ele>570</ele>
        <time>2019-06-17T10:46:03Z</time>
      </trkpt>
      <trkpt lat="44.27502" lon="5.78407">
        <ele>571</ele>
        <time>2019-06-17T10:46:04Z</time>
      </trkpt>
      <trkpt lat="44.27511" lon="5.78411">
        <ele>572</ele>
        <time>2019-06-17T10:46:05Z</time>
      </trkpt>
      <trkpt lat="44.2752" lon="5.78414">
        <ele>573</ele>
        <time>2019-06-17T10:46:06Z</time>
      </trkpt>
      <trkpt lat="44.27531" lon="5.78417">
        <ele>574</ele>
        <time>2019-06-17T10:46:07Z</time>
      </trkpt>
      <trkpt lat="44.27541" lon="5.78418">
        <ele>575</ele>
        <time>2019-06-17T10:46:08Z</time>
      </trkpt>
      <trkpt lat="44.27551" lon="5.78418">
        <ele>576</ele>
        <time>2019-06-17T10:46:09Z</time>
      </trkpt>
      <trkpt lat="44.2756" lon="5.78416">
        <ele>577</ele>
        <time>2019-06-17T10:46:10Z</time>
      </trkpt>
      <trkpt lat="44.27569" lon="5.78412">
        <ele>578</ele>
        <time>2019-06-17T10:46:11Z</time>
      </trkpt>
      <trkpt lat="44.27578" lon="5.78408">
        <ele>579</ele>
        <time>2019-06-17T10:46:12Z</time>
      </trkpt>
      <trkpt lat="44.27587" lon="5.78403">
        <ele>580</ele>
        <time>2019-06-17T10:46:13Z</time>
      </trkpt>
      <trkpt lat="44.27596" lon="5.78398">
        <ele>581</ele>
        <time>2019-06-17T10:46:14Z</time>
      </trkpt>
      <trkpt lat="44.27605" lon="5.78392">
        <ele>581</ele>
        <time>2019-06-17T10:46:15Z</time>
      </trkpt>
      <trkpt lat="44.27613" lon="5.78386">
        <ele>581</ele>
        <time>2019-06-17T10:46:16Z</time>
      </trkpt>
      <trkpt lat="44.27622" lon="5.7838">
        <ele>581</ele>
        <time>2019-06-17T10:46:17Z</time>
      </trkpt>
      <trkpt lat="44.27631" lon="5.78373">
        <ele>581</ele>
        <time>2019-06-17T10:46:18Z</time>
      </trkpt>
      <trkpt lat="44.27639" lon="5.78367">
        <ele>581</ele>
        <time>2019-06-17T10:46:19Z</time>
      </trkpt>
      <trkpt lat="44.27647" lon="5.7836">
        <ele>581</ele>
        <time>2019-06-17T10:46:20Z</time>
      </trkpt>
      <trkpt lat="44.27655" lon="5.78355">
        <ele>581</ele>
        <time>2019-06-17T10:46:21Z</time>
      </trkpt>
      <trkpt lat="44.27663" lon="5.7835">
        <ele>581</ele>
        <time>2019-06-17T10:46:22Z</time>
      </trkpt>
      <trkpt lat="44.27672" lon="5.78345">
        <ele>581</ele>
        <time>2019-06-17T10:46:23Z</time>
      </trkpt>
      <trkpt lat="44.2768" lon="5.78339">
        <ele>581</ele>
        <time>2019-06-17T10:46:24Z</time>
      </trkpt>
      <trkpt lat="44.27687" lon="5.78331">
        <ele>581</ele>
        <time>2019-06-17T10:46:25Z</time>
      </trkpt>
      <trkpt lat="44.27694" lon="5.78323">
        <ele>581</ele>
        <time>2019-06-17T10:46:26Z</time>
      </trkpt>
      <trkpt lat="44.27702" lon="5.78315">
        <ele>581</ele>
        <time>2019-06-17T10:46:27Z</time>
      </trkpt>
      <trkpt lat="44.27709" lon="5.78307">
        <ele>580</ele>
        <time>2019-06-17T10:46:28Z</time>
      </trkpt>
      <trkpt lat="44.27716" lon="5.78299">
        <ele>580</ele>
        <time>2019-06-17T10:46:29Z</time>
      </trkpt>
      <trkpt lat="44.27723" lon="5.78291">
        <ele>580</ele>
        <time>2019-06-17T10:46:30Z</time>
      </trkpt>
      <trkpt lat="44.2773" lon="5.78283">
        <ele>579</ele>
        <time>2019-06-17T10:46:31Z</time>
      </trkpt>
      <trkpt lat="44.27737" lon="5.78275">
        <ele>578</ele>
        <time>2019-06-17T10:46:32Z</time>
      </trkpt>
      <trkpt lat="44.27745" lon="5.78268">
        <ele>578</ele>
        <time>2019-06-17T10:46:33Z</time>
      </trkpt>
      <trkpt lat="44.27752" lon="5.7826">
        <ele>578</ele>
        <time>2019-06-17T10:46:34Z</time>
      </trkpt>
      <trkpt lat="44.27759" lon="5.78253">
        <ele>577</ele>
        <time>2019-06-17T10:46:35Z</time>
      </trkpt>
      <trkpt lat="44.27766" lon="5.78245">
        <ele>577</ele>
        <time>2019-06-17T10:46:36Z</time>
      </trkpt>
      <trkpt lat="44.27772" lon="5.78237">
        <ele>576</ele>
        <time>2019-06-17T10:46:37Z</time>
      </trkpt>
      <trkpt lat="44.27779" lon="5.7823">
        <ele>575</ele>
        <time>2019-06-17T10:46:38Z</time>
      </trkpt>
      <trkpt lat="44.27786" lon="5.78223">
        <ele>575</ele>
        <time>2019-06-17T10:46:39Z</time>
      </trkpt>
      <trkpt lat="44.27794" lon="5.78216">
        <ele>574</ele>
        <time>2019-06-17T10:46:40Z</time>
      </trkpt>
      <trkpt lat="44.27802" lon="5.7821">
        <ele>573</ele>
        <time>2019-06-17T10:46:41Z</time>
      </trkpt>
      <trkpt lat="44.27811" lon="5.78205">
        <ele>573</ele>
        <time>2019-06-17T10:46:42Z</time>
      </trkpt>
      <trkpt lat="44.27819" lon="5.782">
        <ele>573</ele>
        <time>2019-06-17T10:46:43Z</time>
      </trkpt>
      <trkpt lat="44.27827" lon="5.78195">
        <ele>573</ele>
        <time>2019-06-17T10:46:44Z</time>
      </trkpt>
      <trkpt lat="44.27837" lon="5.78192">
        <ele>573</ele>
        <time>2019-06-17T10:46:45Z</time>
      </trkpt>
      <trkpt lat="44.27846" lon="5.7819">
        <ele>573</ele>
        <time>2019-06-17T10:46:46Z</time>
      </trkpt>
      <trkpt lat="44.27855" lon="5.78191">
        <ele>573</ele>
        <time>2019-06-17T10:46:47Z</time>
      </trkpt>
      <trkpt lat="44.27863" lon="5.78193">
        <ele>573</ele>
        <time>2019-06-17T10:46:48Z</time>
      </trkpt>
      <trkpt lat="44.27871" lon="5.78195">
        <ele>573</ele>
        <time>2019-06-17T10:46:49Z</time>
      </trkpt>
      <trkpt lat="44.27879" lon="5.782">
        <ele>572</ele>
        <time>2019-06-17T10:46:50Z</time>
      </trkpt>
      <trkpt lat="44.27885" lon="5.78207">
        <ele>571</ele>
        <time>2019-06-17T10:46:51Z</time>
      </trkpt>
      <trkpt lat="44.27891" lon="5.78217">
        <ele>570</ele>
        <time>2019-06-17T10:46:52Z</time>
      </trkpt>
      <trkpt lat="44.27897" lon="5.78226">
        <ele>569</ele>
        <time>2019-06-17T10:46:53Z</time>
      </trkpt>
      <trkpt lat="44.27902" lon="5.78236">
        <ele>568</ele>
        <time>2019-06-17T10:46:54Z</time>
      </trkpt>
      <trkpt lat="44.27908" lon="5.78245">
        <ele>567</ele>
        <time>2019-06-17T10:46:55Z</time>
      </trkpt>
      <trkpt lat="44.27913" lon="5.78255">
        <ele>566</ele>
        <time>2019-06-17T10:46:56Z</time>
      </trkpt>
      <trkpt lat="44.27918" lon="5.78265">
        <ele>565</ele>
        <time>2019-06-17T10:46:57Z</time>
      </trkpt>
      <trkpt lat="44.27923" lon="5.78276">
        <ele>564</ele>
        <time>2019-06-17T10:46:58Z</time>
      </trkpt>
      <trkpt lat="44.27927" lon="5.78287">
        <ele>563</ele>
        <time>2019-06-17T10:46:59Z</time>
      </trkpt>
      <trkpt lat="44.2793" lon="5.78299">
        <ele>562</ele>
        <time>2019-06-17T10:47:00Z</time>
      </trkpt>
      <trkpt lat="44.27933" lon="5.78311">
        <ele>561</ele>
        <time>2019-06-17T10:47:01Z</time>
      </trkpt>
      <trkpt lat="44.27936" lon="5.78324">
        <ele>560</ele>
        <time>2019-06-17T10:47:02Z</time>
      </trkpt>
      <trkpt lat="44.27939" lon="5.78337">
        <ele>559</ele>
        <time>2019-06-17T10:47:03Z</time>
      </trkpt>
      <trkpt lat="44.27941" lon="5.7835">
        <ele>558</ele>
        <time>2019-06-17T10:47:04Z</time>
      </trkpt>
      <trkpt lat="44.27943" lon="5.78362">
        <ele>557</ele>
        <time>2019-06-17T10:47:05Z</time>
      </trkpt>
      <trkpt lat="44.27945" lon="5.78374">
        <ele>556</ele>
        <time>2019-06-17T10:47:06Z</time>
      </trkpt>
      <trkpt lat="44.27948" lon="5.78386">
        <ele>556</ele>
        <time>2019-06-17T10:47:07Z</time>
      </trkpt>
      <trkpt lat="44.2795" lon="5.78399">
        <ele>555</ele>
        <time>2019-06-17T10:47:08Z</time>
      </trkpt>
      <trkpt lat="44.27951" lon="5.78411">
        <ele>555</ele>
        <time>2019-06-17T10:47:09Z</time>
      </trkpt>
      <trkpt lat="44.27953" lon="5.78425">
        <ele>555</ele>
        <time>2019-06-17T10:47:10Z</time>
      </trkpt>
      <trkpt lat="44.27956" lon="5.78438">
        <ele>555</ele>
        <time>2019-06-17T10:47:11Z</time>
      </trkpt>
      <trkpt lat="44.27958" lon="5.78451">
        <ele>555</ele>
        <time>2019-06-17T10:47:12Z</time>
      </trkpt>
      <trkpt lat="44.27959" lon="5.78463">
        <ele>555</ele>
        <time>2019-06-17T10:47:13Z</time>
      </trkpt>
      <trkpt lat="44.27961" lon="5.78476">
        <ele>555</ele>
        <time>2019-06-17T10:47:14Z</time>
      </trkpt>
      <trkpt lat="44.27962" lon="5.78488">
        <ele>555</ele>
        <time>2019-06-17T10:47:15Z</time>
      </trkpt>
      <trkpt lat="44.27963" lon="5.78501">
        <ele>555</ele>
        <time>2019-06-17T10:47:16Z</time>
      </trkpt>
      <trkpt lat="44.27964" lon="5.78513">
        <ele>555</ele>
        <time>2019-06-17T10:47:17Z</time>
      </trkpt>
      <trkpt lat="44.27965" lon="5.78526">
        <ele>555</ele>
        <time>2019-06-17T10:47:18Z</time>
      </trkpt>
      <trkpt lat="44.27965" lon="5.78538">
        <ele>555</ele>
        <time>2019-06-17T10:47:19Z</time>
      </trkpt>
      <trkpt lat="44.27964" lon="5.7855">
        <ele>555</ele>
        <time>2019-06-17T10:47:20Z</time>
      </trkpt>
      <trkpt lat="44.27963" lon="5.78562">
        <ele>555</ele>
        <time>2019-06-17T10:47:21Z</time>
      </trkpt>
      <trkpt lat="44.27962" lon="5.78573">
        <ele>556</ele>
        <time>2019-06-17T10:47:22Z</time>
      </trkpt>
      <trkpt lat="44.27961" lon="5.78584">
        <ele>556</ele>
        <time>2019-06-17T10:47:23Z</time>
      </trkpt>
      <trkpt lat="44.27959" lon="5.78595">
        <ele>557</ele>
        <time>2019-06-17T10:47:24Z</time>
      </trkpt>
      <trkpt lat="44.27958" lon="5.78606">
        <ele>557</ele>
        <time>2019-06-17T10:47:25Z</time>
      </trkpt>
      <trkpt lat="44.27955" lon="5.78615">
        <ele>557</ele>
        <time>2019-06-17T10:47:26Z</time>
      </trkpt>
      <trkpt lat="44.27952" lon="5.78624">
        <ele>557</ele>
        <time>2019-06-17T10:47:27Z</time>
      </trkpt>
      <trkpt lat="44.27948" lon="5.78632">
        <ele>557</ele>
        <time>2019-06-17T10:47:28Z</time>
      </trkpt>
      <trkpt lat="44.27944" lon="5.78639">
        <ele>557</ele>
        <time>2019-06-17T10:47:29Z</time>
      </trkpt>
      <trkpt lat="44.2794" lon="5.78644">
        <ele>557</ele>
        <time>2019-06-17T10:47:30Z</time>
      </trkpt>
      <trkpt lat="44.27936" lon="5.78649">
        <ele>557</ele>
        <time>2019-06-17T10:47:31Z</time>
      </trkpt>
      <trkpt lat="44.27933" lon="5.78655">
        <ele>557</ele>
        <time>2019-06-17T10:47:32Z</time>
      </trkpt>
      <trkpt lat="44.2793" lon="5.78661">
        <ele>556</ele>
        <time>2019-06-17T10:47:33Z</time>
      </trkpt>
      <trkpt lat="44.27927" lon="5.78669">
        <ele>555</ele>
        <time>2019-06-17T10:47:34Z</time>
      </trkpt>
      <trkpt lat="44.27925" lon="5.78677">
        <ele>554</ele>
        <time>2019-06-17T10:47:35Z</time>
      </trkpt>
      <trkpt lat="44.27924" lon="5.78685">
        <ele>554</ele>
        <time>2019-06-17T10:47:36Z</time>
      </trkpt>
      <trkpt lat="44.27923" lon="5.78692">
        <ele>554</ele>
        <time>2019-06-17T10:47:37Z</time>
      </trkpt>
      <trkpt lat="44.27925" lon="5.78702">
        <ele>554</ele>
        <time>2019-06-17T10:47:38Z</time>
      </trkpt>
      <trkpt lat="44.27925" lon="5.7871">
        <ele>554</ele>
        <time>2019-06-17T10:47:39Z</time>
      </trkpt>
      <trkpt lat="44.27925" lon="5.78718">
        <ele>554</ele>
        <time>2019-06-17T10:47:40Z</time>
      </trkpt>
      <trkpt lat="44.27926" lon="5.78726">
        <ele>554</ele>
        <time>2019-06-17T10:47:41Z</time>
      </trkpt>
      <trkpt lat="44.27928" lon="5.78734">
        <ele>554</ele>
        <time>2019-06-17T10:47:42Z</time>
      </trkpt>
      <trkpt lat="44.2793" lon="5.78742">
        <ele>554</ele>
        <time>2019-06-17T10:47:43Z</time>
      </trkpt>
      <trkpt lat="44.27932" lon="5.78749">
        <ele>554</ele>
        <time>2019-06-17T10:47:44Z</time>
      </trkpt>
      <trkpt lat="44.27935" lon="5.78757">
        <ele>554</ele>
        <time>2019-06-17T10:47:45Z</time>
      </trkpt>
      <trkpt lat="44.27937" lon="5.78764">
        <ele>554</ele>
        <time>2019-06-17T10:47:46Z</time>
      </trkpt>
      <trkpt lat="44.2794" lon="5.78771">
        <ele>554</ele>
        <time>2019-06-17T10:47:47Z</time>
      </trkpt>
      <trkpt lat="44.27943" lon="5.78778">
        <ele>553</ele>
        <time>2019-06-17T10:47:48Z</time>
      </trkpt>
      <trkpt lat="44.27946" lon="5.78785">
        <ele>552</ele>
        <time>2019-06-17T10:47:49Z</time>
      </trkpt>
      <trkpt lat="44.27948" lon="5.78792">
        <ele>552</ele>
        <time>2019-06-17T10:47:50Z</time>
      </trkpt>
      <trkpt lat="44.2795" lon="5.78798">
        <ele>551</ele>
        <time>2019-06-17T10:47:51Z</time>
      </trkpt>
      <trkpt lat="44.27953" lon="5.78805">
        <ele>551</ele>
        <time>2019-06-17T10:47:52Z</time>
      </trkpt>
      <trkpt lat="44.27954" lon="5.78813">
        <ele>550</ele>
        <time>2019-06-17T10:47:53Z</time>
      </trkpt>
      <trkpt lat="44.27956" lon="5.78821">
        <ele>550</ele>
        <time>2019-06-17T10:47:54Z</time>
      </trkpt>
      <trkpt lat="44.27958" lon="5.78829">
        <ele>549</ele>
        <time>2019-06-17T10:47:55Z</time>
      </trkpt>
      <trkpt lat="44.27959" lon="5.78836">
        <ele>549</ele>
        <time>2019-06-17T10:47:56Z</time>
      </trkpt>
      <trkpt lat="44.27961" lon="5.78844">
        <ele>549</ele>
        <time>2019-06-17T10:47:57Z</time>
      </trkpt>
      <trkpt lat="44.27962" lon="5.78852">
        <ele>549</ele>
        <time>2019-06-17T10:47:58Z</time>
      </trkpt>
      <trkpt lat="44.27963" lon="5.7886">
        <ele>549</ele>
        <time>2019-06-17T10:47:59Z</time>
      </trkpt>
      <trkpt lat="44.27964" lon="5.78868">
        <ele>549</ele>
        <time>2019-06-17T10:48:00Z</time>
      </trkpt>
      <trkpt lat="44.27964" lon="5.78876">
        <ele>549</ele>
        <time>2019-06-17T10:48:01Z</time>
      </trkpt>
      <trkpt lat="44.27965" lon="5.78884">
        <ele>549</ele>
        <time>2019-06-17T10:48:02Z</time>
      </trkpt>
      <trkpt lat="44.27965" lon="5.78892">
        <ele>549</ele>
        <time>2019-06-17T10:48:03Z</time>
      </trkpt>
      <trkpt lat="44.27965" lon="5.789">
        <ele>549</ele>
        <time>2019-06-17T10:48:04Z</time>
      </trkpt>
      <trkpt lat="44.27964" lon="5.78909">
        <ele>549</ele>
        <time>2019-06-17T10:48:05Z</time>
      </trkpt>
      <trkpt lat="44.27964" lon="5.78918">
        <ele>549</ele>
        <time>2019-06-17T10:48:06Z</time>
      </trkpt>
      <trkpt lat="44.27963" lon="5.78926">
        <ele>549</ele>
        <time>2019-06-17T10:48:07Z</time>
      </trkpt>
      <trkpt lat="44.27961" lon="5.78935">
        <ele>549</ele>
        <time>2019-06-17T10:48:08Z</time>
      </trkpt>
      <trkpt lat="44.27959" lon="5.78943">
        <ele>549</ele>
        <time>2019-06-17T10:48:09Z</time>
      </trkpt>
      <trkpt lat="44.27957" lon="5.78951">
        <ele>549</ele>
        <time>2019-06-17T10:48:10Z</time>
      </trkpt>
      <trkpt lat="44.27955" lon="5.78958">
        <ele>549</ele>
        <time>2019-06-17T10:48:11Z</time>
      </trkpt>
      <trkpt lat="44.27952" lon="5.78965">
        <ele>549</ele>
        <time>2019-06-17T10:48:12Z</time>
      </trkpt>
      <trkpt lat="44.27948" lon="5.78971">
        <ele>549</ele>
        <time>2019-06-17T10:48:13Z</time>
      </trkpt>
      <trkpt lat="44.27945" lon="5.78977">
        <ele>549</ele>
        <time>2019-06-17T10:48:14Z</time>
      </trkpt>
      <trkpt lat="44.2794" lon="5.78982">
        <ele>549</ele>
        <time>2019-06-17T10:48:15Z</time>
      </trkpt>
      <trkpt lat="44.27936" lon="5.78986">
        <ele>549</ele>
        <time>2019-06-17T10:48:16Z</time>
      </trkpt>
      <trkpt lat="44.27932" lon="5.78989">
        <ele>549</ele>
        <time>2019-06-17T10:48:17Z</time>
      </trkpt>
      <trkpt lat="44.27927" lon="5.78993">
        <ele>549</ele>
        <time>2019-06-17T10:48:18Z</time>
      </trkpt>
      <trkpt lat="44.27921" lon="5.78997">
        <ele>549</ele>
        <time>2019-06-17T10:48:19Z</time>
      </trkpt>
      <trkpt lat="44.27916" lon="5.78999">
        <ele>549</ele>
        <time>2019-06-17T10:48:20Z</time>
      </trkpt>
      <trkpt lat="44.27911" lon="5.79002">
        <ele>549</ele>
        <time>2019-06-17T10:48:21Z</time>
      </trkpt>
      <trkpt lat="44.27906" lon="5.79005">
        <ele>549</ele>
        <time>2019-06-17T10:48:22Z</time>
      </trkpt>
      <trkpt lat="44.27901" lon="5.79008">
        <ele>549</ele>
        <time>2019-06-17T10:48:23Z</time>
      </trkpt>
      <trkpt lat="44.27897" lon="5.7901">
        <ele>549</ele>
        <time>2019-06-17T10:48:24Z</time>
      </trkpt>
      <trkpt lat="44.27892" lon="5.79011">
        <ele>549</ele>
        <time>2019-06-17T10:48:25Z</time>
      </trkpt>
      <trkpt lat="44.27887" lon="5.79012">
        <ele>550</ele>
        <time>2019-06-17T10:48:26Z</time>
      </trkpt>
      <trkpt lat="44.27881" lon="5.79012">
        <ele>551</ele>
        <time>2019-06-17T10:48:27Z</time>
      </trkpt>
      <trkpt lat="44.27875" lon="5.79011">
        <ele>552</ele>
        <time>2019-06-17T10:48:28Z</time>
      </trkpt>
      <trkpt lat="44.2787" lon="5.79011">
        <ele>553</ele>
        <time>2019-06-17T10:48:29Z</time>
      </trkpt>
      <trkpt lat="44.27864" lon="5.7901">
        <ele>554</ele>
        <time>2019-06-17T10:48:30Z</time>
      </trkpt>
      <trkpt lat="44.27858" lon="5.79009">
        <ele>556</ele>
        <time>2019-06-17T10:48:31Z</time>
      </trkpt>
      <trkpt lat="44.27853" lon="5.79006">
        <ele>558</ele>
        <time>2019-06-17T10:48:32Z</time>
      </trkpt>
      <trkpt lat="44.27849" lon="5.79002">
        <ele>560</ele>
        <time>2019-06-17T10:48:33Z</time>
      </trkpt>
      <trkpt lat="44.27845" lon="5.78997">
        <ele>562</ele>
        <time>2019-06-17T10:48:34Z</time>
      </trkpt>
      <trkpt lat="44.2784" lon="5.78994">
        <ele>564</ele>
        <time>2019-06-17T10:48:35Z</time>
      </trkpt>
      <trkpt lat="44.27835" lon="5.78988">
        <ele>566</ele>
        <time>2019-06-17T10:48:36Z</time>
      </trkpt>
      <trkpt lat="44.27829" lon="5.78989">
        <ele>568</ele>
        <time>2019-06-17T10:48:37Z</time>
      </trkpt>
      <trkpt lat="44.27799" lon="5.79021">
        <ele>570</ele>
        <time>2019-06-17T10:48:43Z</time>
      </trkpt>
      <trkpt lat="44.278" lon="5.79036">
        <ele>572</ele>
        <time>2019-06-17T10:48:44Z</time>
      </trkpt>
      <trkpt lat="44.27798" lon="5.79046">
        <ele>573</ele>
        <time>2019-06-17T10:48:45Z</time>
      </trkpt>
      <trkpt lat="44.278" lon="5.79054">
        <ele>574</ele>
        <time>2019-06-17T10:48:46Z</time>
      </trkpt>
      <trkpt lat="44.27806" lon="5.79061">
        <ele>575</ele>
        <time>2019-06-17T10:48:47Z</time>
      </trkpt>
      <trkpt lat="44.27812" lon="5.79065">
        <ele>576</ele>
        <time>2019-06-17T10:48:48Z</time>
      </trkpt>
      <trkpt lat="44.27817" lon="5.79069">
        <ele>576</ele>
        <time>2019-06-17T10:48:49Z</time>
      </trkpt>
      <trkpt lat="44.27823" lon="5.79073">
        <ele>576</ele>
        <time>2019-06-17T10:48:50Z</time>
      </trkpt>
      <trkpt lat="44.27828" lon="5.79079">
        <ele>575</ele>
        <time>2019-06-17T10:48:51Z</time>
      </trkpt>
      <trkpt lat="44.27834" lon="5.79086">
        <ele>574</ele>
        <time>2019-06-17T10:48:52Z</time>
      </trkpt>
      <trkpt lat="44.27838" lon="5.79095">
        <ele>573</ele>
        <time>2019-06-17T10:48:53Z</time>
      </trkpt>
      <trkpt lat="44.27841" lon="5.79106">
        <ele>572</ele>
        <time>2019-06-17T10:48:54Z</time>
      </trkpt>
      <trkpt lat="44.27844" lon="5.79116">
        <ele>571</ele>
        <time>2019-06-17T10:48:55Z</time>
      </trkpt>
      <trkpt lat="44.27847" lon="5.79125">
        <ele>570</ele>
        <time>2019-06-17T10:48:56Z</time>
      </trkpt>
      <trkpt lat="44.27851" lon="5.79133">
        <ele>569</ele>
        <time>2019-06-17T10:48:57Z</time>
      </trkpt>
      <trkpt lat="44.27856" lon="5.79139">
        <ele>568</ele>
        <time>2019-06-17T10:48:58Z</time>
      </trkpt>
      <trkpt lat="44.27861" lon="5.79148">
        <ele>567</ele>
        <time>2019-06-17T10:48:59Z</time>
      </trkpt>
      <trkpt lat="44.27863" lon="5.79158">
        <ele>566</ele>
        <time>2019-06-17T10:49:00Z</time>
      </trkpt>
      <trkpt lat="44.27864" lon="5.7917">
        <ele>565</ele>
        <time>2019-06-17T10:49:01Z</time>
      </trkpt>
      <trkpt lat="44.27864" lon="5.79181">
        <ele>563</ele>
        <time>2019-06-17T10:49:02Z</time>
      </trkpt>
      <trkpt lat="44.27864" lon="5.79192">
        <ele>562</ele>
        <time>2019-06-17T10:49:03Z</time>
      </trkpt>
      <trkpt lat="44.27864" lon="5.79202">
        <ele>561</ele>
        <time>2019-06-17T10:49:04Z</time>
      </trkpt>
      <trkpt lat="44.27863" lon="5.79212">
        <ele>560</ele>
        <time>2019-06-17T10:49:05Z</time>
      </trkpt>
      <trkpt lat="44.27861" lon="5.79222">
        <ele>559</ele>
        <time>2019-06-17T10:49:06Z</time>
      </trkpt>
      <trkpt lat="44.27858" lon="5.79231">
        <ele>558</ele>
        <time>2019-06-17T10:49:07Z</time>
      </trkpt>
      <trkpt lat="44.27854" lon="5.7924">
        <ele>557</ele>
        <time>2019-06-17T10:49:08Z</time>
      </trkpt>
      <trkpt lat="44.2785" lon="5.79249">
        <ele>556</ele>
        <time>2019-06-17T10:49:09Z</time>
      </trkpt>
      <trkpt lat="44.27846" lon="5.79257">
        <ele>555</ele>
        <time>2019-06-17T10:49:10Z</time>
      </trkpt>
      <trkpt lat="44.27842" lon="5.79265">
        <ele>554</ele>
        <time>2019-06-17T10:49:11Z</time>
      </trkpt>
      <trkpt lat="44.27837" lon="5.79274">
        <ele>553</ele>
        <time>2019-06-17T10:49:12Z</time>
      </trkpt>
      <trkpt lat="44.27833" lon="5.79282">
        <ele>553</ele>
        <time>2019-06-17T10:49:13Z</time>
      </trkpt>
      <trkpt lat="44.27828" lon="5.7929">
        <ele>552</ele>
        <time>2019-06-17T10:49:14Z</time>
      </trkpt>
      <trkpt lat="44.27823" lon="5.79299">
        <ele>552</ele>
        <time>2019-06-17T10:49:15Z</time>
      </trkpt>
      <trkpt lat="44.27818" lon="5.79307">
        <ele>551</ele>
        <time>2019-06-17T10:49:16Z</time>
      </trkpt>
      <trkpt lat="44.27812" lon="5.79315">
        <ele>550</ele>
        <time>2019-06-17T10:49:17Z</time>
      </trkpt>
      <trkpt lat="44.27805" lon="5.79321">
        <ele>549</ele>
        <time>2019-06-17T10:49:18Z</time>
      </trkpt>
      <trkpt lat="44.27798" lon="5.79326">
        <ele>548</ele>
        <time>2019-06-17T10:49:19Z</time>
      </trkpt>
      <trkpt lat="44.27791" lon="5.79328">
        <ele>548</ele>
        <time>2019-06-17T10:49:20Z</time>
      </trkpt>
      <trkpt lat="44.27782" lon="5.7933">
        <ele>548</ele>
        <time>2019-06-17T10:49:21Z</time>
      </trkpt>
      <trkpt lat="44.27774" lon="5.79333">
        <ele>548</ele>
        <time>2019-06-17T10:49:22Z</time>
      </trkpt>
      <trkpt lat="44.27765" lon="5.79335">
        <ele>548</ele>
        <time>2019-06-17T10:49:23Z</time>
      </trkpt>
      <trkpt lat="44.27757" lon="5.79339">
        <ele>548</ele>
        <time>2019-06-17T10:49:24Z</time>
      </trkpt>
      <trkpt lat="44.27749" lon="5.79343">
        <ele>548</ele>
        <time>2019-06-17T10:49:25Z</time>
      </trkpt>
      <trkpt lat="44.27742" lon="5.79348">
        <ele>548</ele>
        <time>2019-06-17T10:49:26Z</time>
      </trkpt>
      <trkpt lat="44.27736" lon="5.79355">
        <ele>549</ele>
        <time>2019-06-17T10:49:27Z</time>
      </trkpt>
      <trkpt lat="44.27731" lon="5.79364">
        <ele>549</ele>
        <time>2019-06-17T10:49:28Z</time>
      </trkpt>
      <trkpt lat="44.27725" lon="5.79373">
        <ele>549</ele>
        <time>2019-06-17T10:49:29Z</time>
      </trkpt>
      <trkpt lat="44.2772" lon="5.79383">
        <ele>549</ele>
        <time>2019-06-17T10:49:30Z</time>
      </trkpt>
      <trkpt lat="44.27715" lon="5.79392">
        <ele>549</ele>
        <time>2019-06-17T10:49:31Z</time>
      </trkpt>
      <trkpt lat="44.27709" lon="5.79401">
        <ele>549</ele>
        <time>2019-06-17T10:49:32Z</time>
      </trkpt>
      <trkpt lat="44.27703" lon="5.7941">
        <ele>549</ele>
        <time>2019-06-17T10:49:33Z</time>
      </trkpt>
      <trkpt lat="44.27698" lon="5.79421">
        <ele>549</ele>
        <time>2019-06-17T10:49:34Z</time>
      </trkpt>
      <trkpt lat="44.27694" lon="5.79432">
        <ele>548</ele>
        <time>2019-06-17T10:49:35Z</time>
      </trkpt>
      <trkpt lat="44.2769" lon="5.79443">
        <ele>547</ele>
        <time>2019-06-17T10:49:36Z</time>
      </trkpt>
      <trkpt lat="44.27688" lon="5.79456">
        <ele>546</ele>
        <time>2019-06-17T10:49:37Z</time>
      </trkpt>
      <trkpt lat="44.27686" lon="5.79468">
        <ele>546</ele>
        <time>2019-06-17T10:49:38Z</time>
      </trkpt>
      <trkpt lat="44.27685" lon="5.79481">
        <ele>546</ele>
        <time>2019-06-17T10:49:39Z</time>
      </trkpt>
      <trkpt lat="44.27684" lon="5.79494">
        <ele>546</ele>
        <time>2019-06-17T10:49:40Z</time>
      </trkpt>
      <trkpt lat="44.27682" lon="5.79506">
        <ele>546</ele>
        <time>2019-06-17T10:49:41Z</time>
      </trkpt>
      <trkpt lat="44.27681" lon="5.79519">
        <ele>546</ele>
        <time>2019-06-17T10:49:42Z</time>
      </trkpt>
      <trkpt lat="44.27679" lon="5.79531">
        <ele>545</ele>
        <time>2019-06-17T10:49:43Z</time>
      </trkpt>
      <trkpt lat="44.27678" lon="5.79543">
        <ele>545</ele>
        <time>2019-06-17T10:49:44Z</time>
      </trkpt>
      <trkpt lat="44.27676" lon="5.79556">
        <ele>544</ele>
        <time>2019-06-17T10:49:45Z</time>
      </trkpt>
      <trkpt lat="44.27675" lon="5.7957">
        <ele>544</ele>
        <time>2019-06-17T10:49:46Z</time>
      </trkpt>
      <trkpt lat="44.27674" lon="5.79583">
        <ele>544</ele>
        <time>2019-06-17T10:49:47Z</time>
      </trkpt>
      <trkpt lat="44.27673" lon="5.79596">
        <ele>544</ele>
        <time>2019-06-17T10:49:48Z</time>
      </trkpt>
      <trkpt lat="44.27672" lon="5.7961">
        <ele>544</ele>
        <time>2019-06-17T10:49:49Z</time>
      </trkpt>
      <trkpt lat="44.27671" lon="5.79623">
        <ele>544</ele>
        <time>2019-06-17T10:49:50Z</time>
      </trkpt>
      <trkpt lat="44.2767" lon="5.79637">
        <ele>544</ele>
        <time>2019-06-17T10:49:51Z</time>
      </trkpt>
      <trkpt lat="44.2767" lon="5.79651">
        <ele>544</ele>
        <time>2019-06-17T10:49:52Z</time>
      </trkpt>
      <trkpt lat="44.2767" lon="5.79665">
        <ele>544</ele>
        <time>2019-06-17T10:49:53Z</time>
      </trkpt>
      <trkpt lat="44.2767" lon="5.79678">
        <ele>544</ele>
        <time>2019-06-17T10:49:54Z</time>
      </trkpt>
      <trkpt lat="44.2767" lon="5.79692">
        <ele>544</ele>
        <time>2019-06-17T10:49:55Z</time>
      </trkpt>
      <trkpt lat="44.27671" lon="5.79705">
        <ele>544</ele>
        <time>2019-06-17T10:49:56Z</time>
      </trkpt>
      <trkpt lat="44.27671" lon="5.79718">
        <ele>544</ele>
        <time>2019-06-17T10:49:57Z</time>
      </trkpt>
      <trkpt lat="44.27672" lon="5.79731">
        <ele>544</ele>
        <time>2019-06-17T10:49:58Z</time>
      </trkpt>
      <trkpt lat="44.27672" lon="5.79745">
        <ele>543</ele>
        <time>2019-06-17T10:49:59Z</time>
      </trkpt>
      <trkpt lat="44.27671" lon="5.79758">
        <ele>542</ele>
        <time>2019-06-17T10:50:00Z</time>
      </trkpt>
      <trkpt lat="44.27669" lon="5.7977">
        <ele>542</ele>
        <time>2019-06-17T10:50:01Z</time>
      </trkpt>
      <trkpt lat="44.27666" lon="5.79781">
        <ele>541</ele>
        <time>2019-06-17T10:50:02Z</time>
      </trkpt>
      <trkpt lat="44.27662" lon="5.79792">
        <ele>541</ele>
        <time>2019-06-17T10:50:03Z</time>
      </trkpt>
      <trkpt lat="44.27658" lon="5.79804">
        <ele>540</ele>
        <time>2019-06-17T10:50:04Z</time>
      </trkpt>
      <trkpt lat="44.27655" lon="5.79814">
        <ele>540</ele>
        <time>2019-06-17T10:50:05Z</time>
      </trkpt>
      <trkpt lat="44.27651" lon="5.79825">
        <ele>539</ele>
        <time>2019-06-17T10:50:06Z</time>
      </trkpt>
      <trkpt lat="44.27648" lon="5.79836">
        <ele>539</ele>
        <time>2019-06-17T10:50:07Z</time>
      </trkpt>
      <trkpt lat="44.27644" lon="5.79847">
        <ele>539</ele>
        <time>2019-06-17T10:50:08Z</time>
      </trkpt>
      <trkpt lat="44.2764" lon="5.79857">
        <ele>539</ele>
        <time>2019-06-17T10:50:09Z</time>
      </trkpt>
      <trkpt lat="44.27637" lon="5.79866">
        <ele>539</ele>
        <time>2019-06-17T10:50:10Z</time>
      </trkpt>
      <trkpt lat="44.27633" lon="5.79876">
        <ele>539</ele>
        <time>2019-06-17T10:50:11Z</time>
      </trkpt>
      <trkpt lat="44.2763" lon="5.79887">
        <ele>539</ele>
        <time>2019-06-17T10:50:12Z</time>
      </trkpt>
      <trkpt lat="44.27628" lon="5.79897">
        <ele>539</ele>
        <time>2019-06-17T10:50:13Z</time>
      </trkpt>
      <trkpt lat="44.27625" lon="5.79909">
        <ele>539</ele>
        <time>2019-06-17T10:50:14Z</time>
      </trkpt>
      <trkpt lat="44.27623" lon="5.7992">
        <ele>539</ele>
        <time>2019-06-17T10:50:15Z</time>
      </trkpt>
      <trkpt lat="44.2762" lon="5.7993">
        <ele>539</ele>
        <time>2019-06-17T10:50:16Z</time>
      </trkpt>
      <trkpt lat="44.27618" lon="5.79941">
        <ele>539</ele>
        <time>2019-06-17T10:50:17Z</time>
      </trkpt>
      <trkpt lat="44.27615" lon="5.79951">
        <ele>539</ele>
        <time>2019-06-17T10:50:18Z</time>
      </trkpt>
      <trkpt lat="44.27611" lon="5.79962">
        <ele>539</ele>
        <time>2019-06-17T10:50:19Z</time>
      </trkpt>
      <trkpt lat="44.27608" lon="5.79972">
        <ele>539</ele>
        <time>2019-06-17T10:50:20Z</time>
      </trkpt>
      <trkpt lat="44.27605" lon="5.79981">
        <ele>539</ele>
        <time>2019-06-17T10:50:21Z</time>
      </trkpt>
      <trkpt lat="44.27602" lon="5.79991">
        <ele>538</ele>
        <time>2019-06-17T10:50:22Z</time>
      </trkpt>
      <trkpt lat="44.27599" lon="5.8">
        <ele>538</ele>
        <time>2019-06-17T10:50:23Z</time>
      </trkpt>
      <trkpt lat="44.27594" lon="5.80009">
        <ele>537</ele>
        <time>2019-06-17T10:50:24Z</time>
      </trkpt>
      <trkpt lat="44.27589" lon="5.80017">
        <ele>536</ele>
        <time>2019-06-17T10:50:25Z</time>
      </trkpt>
      <trkpt lat="44.27584" lon="5.80025">
        <ele>535</ele>
        <time>2019-06-17T10:50:26Z</time>
      </trkpt>
      <trkpt lat="44.2758" lon="5.80033">
        <ele>534</ele>
        <time>2019-06-17T10:50:27Z</time>
      </trkpt>
      <trkpt lat="44.27575" lon="5.80041">
        <ele>533</ele>
        <time>2019-06-17T10:50:28Z</time>
      </trkpt>
      <trkpt lat="44.2757" lon="5.8005">
        <ele>532</ele>
        <time>2019-06-17T10:50:29Z</time>
      </trkpt>
      <trkpt lat="44.27565" lon="5.8006">
        <ele>531</ele>
        <time>2019-06-17T10:50:30Z</time>
      </trkpt>
      <trkpt lat="44.2756" lon="5.80071">
        <ele>531</ele>
        <time>2019-06-17T10:50:31Z</time>
      </trkpt>
      <trkpt lat="44.27555" lon="5.8008">
        <ele>531</ele>
        <time>2019-06-17T10:50:32Z</time>
      </trkpt>
      <trkpt lat="44.2755" lon="5.8009">
        <ele>531</ele>
        <time>2019-06-17T10:50:33Z</time>
      </trkpt>
      <trkpt lat="44.27544" lon="5.80099">
        <ele>531</ele>
        <time>2019-06-17T10:50:34Z</time>
      </trkpt>
      <trkpt lat="44.2754" lon="5.80109">
        <ele>531</ele>
        <time>2019-06-17T10:50:35Z</time>
      </trkpt>
      <trkpt lat="44.27534" lon="5.80118">
        <ele>531</ele>
        <time>2019-06-17T10:50:36Z</time>
      </trkpt>
      <trkpt lat="44.27528" lon="5.80127">
        <ele>531</ele>
        <time>2019-06-17T10:50:37Z</time>
      </trkpt>
      <trkpt lat="44.27524" lon="5.80137">
        <ele>531</ele>
        <time>2019-06-17T10:50:38Z</time>
      </trkpt>
      <trkpt lat="44.27519" lon="5.80149">
        <ele>531</ele>
        <time>2019-06-17T10:50:39Z</time>
      </trkpt>
      <trkpt lat="44.27514" lon="5.80159">
        <ele>531</ele>
        <time>2019-06-17T10:50:40Z</time>
      </trkpt>
      <trkpt lat="44.27508" lon="5.80169">
        <ele>531</ele>
        <time>2019-06-17T10:50:41Z</time>
      </trkpt>
      <trkpt lat="44.27502" lon="5.80179">
        <ele>531</ele>
        <time>2019-06-17T10:50:42Z</time>
      </trkpt>
      <trkpt lat="44.27497" lon="5.80188">
        <ele>531</ele>
        <time>2019-06-17T10:50:43Z</time>
      </trkpt>
      <trkpt lat="44.27491" lon="5.80198">
        <ele>531</ele>
        <time>2019-06-17T10:50:44Z</time>
      </trkpt>
      <trkpt lat="44.27486" lon="5.80208">
        <ele>531</ele>
        <time>2019-06-17T10:50:45Z</time>
      </trkpt>
      <trkpt lat="44.2748" lon="5.80218">
        <ele>531</ele>
        <time>2019-06-17T10:50:46Z</time>
      </trkpt>
      <trkpt lat="44.27475" lon="5.80228">
        <ele>531</ele>
        <time>2019-06-17T10:50:47Z</time>
      </trkpt>
      <trkpt lat="44.2747" lon="5.80238">
        <ele>531</ele>
        <time>2019-06-17T10:50:48Z</time>
      </trkpt>
      <trkpt lat="44.27466" lon="5.80249">
        <ele>531</ele>
        <time>2019-06-17T10:50:49Z</time>
      </trkpt>
      <trkpt lat="44.27462" lon="5.80261">
        <ele>531</ele>
        <time>2019-06-17T10:50:50Z</time>
      </trkpt>
      <trkpt lat="44.27457" lon="5.80272">
        <ele>531</ele>
        <time>2019-06-17T10:50:51Z</time>
      </trkpt>
      <trkpt lat="44.27453" lon="5.80284">
        <ele>531</ele>
        <time>2019-06-17T10:50:52Z</time>
      </trkpt>
      <trkpt lat="44.27448" lon="5.80295">
        <ele>531</ele>
        <time>2019-06-17T10:50:53Z</time>
      </trkpt>
      <trkpt lat="44.27444" lon="5.80307">
        <ele>531</ele>
        <time>2019-06-17T10:50:54Z</time>
      </trkpt>
      <trkpt lat="44.27439" lon="5.80319">
        <ele>531</ele>
        <time>2019-06-17T10:50:55Z</time>
      </trkpt>
      <trkpt lat="44.27436" lon="5.80332">
        <ele>531</ele>
        <time>2019-06-17T10:50:56Z</time>
      </trkpt>
      <trkpt lat="44.27432" lon="5.80345">
        <ele>531</ele>
        <time>2019-06-17T10:50:57Z</time>
      </trkpt>
      <trkpt lat="44.27428" lon="5.80358">
        <ele>531</ele>
        <time>2019-06-17T10:50:58Z</time>
      </trkpt>
      <trkpt lat="44.27424" lon="5.80371">
        <ele>531</ele>
        <time>2019-06-17T10:50:59Z</time>
      </trkpt>
      <trkpt lat="44.2742" lon="5.80385">
        <ele>531</ele>
        <time>2019-06-17T10:51:00Z</time>
      </trkpt>
      <trkpt lat="44.27416" lon="5.80399">
        <ele>531</ele>
        <time>2019-06-17T10:51:01Z</time>
      </trkpt>
      <trkpt lat="44.27412" lon="5.80412">
        <ele>531</ele>
        <time>2019-06-17T10:51:02Z</time>
      </trkpt>
      <trkpt lat="44.27408" lon="5.80424">
        <ele>531</ele>
        <time>2019-06-17T10:51:03Z</time>
      </trkpt>
      <trkpt lat="44.27404" lon="5.80437">
        <ele>531</ele>
        <time>2019-06-17T10:51:04Z</time>
      </trkpt>
      <trkpt lat="44.274" lon="5.80448">
        <ele>531</ele>
        <time>2019-06-17T10:51:05Z</time>
      </trkpt>
      <trkpt lat="44.27395" lon="5.80459">
        <ele>531</ele>
        <time>2019-06-17T10:51:06Z</time>
      </trkpt>
      <trkpt lat="44.27391" lon="5.8047">
        <ele>531</ele>
        <time>2019-06-17T10:51:07Z</time>
      </trkpt>
      <trkpt lat="44.27386" lon="5.8048">
        <ele>531</ele>
        <time>2019-06-17T10:51:08Z</time>
      </trkpt>
      <trkpt lat="44.2738" lon="5.8049">
        <ele>531</ele>
        <time>2019-06-17T10:51:09Z</time>
      </trkpt>
      <trkpt lat="44.27376" lon="5.80499">
        <ele>531</ele>
        <time>2019-06-17T10:51:10Z</time>
      </trkpt>
      <trkpt lat="44.2737" lon="5.80508">
        <ele>530</ele>
        <time>2019-06-17T10:51:11Z</time>
      </trkpt>
      <trkpt lat="44.27365" lon="5.80517">
        <ele>530</ele>
        <time>2019-06-17T10:51:12Z</time>
      </trkpt>
      <trkpt lat="44.2736" lon="5.80526">
        <ele>530</ele>
        <time>2019-06-17T10:51:13Z</time>
      </trkpt>
      <trkpt lat="44.27354" lon="5.80535">
        <ele>529</ele>
        <time>2019-06-17T10:51:14Z</time>
      </trkpt>
      <trkpt lat="44.27349" lon="5.80544">
        <ele>529</ele>
        <time>2019-06-17T10:51:15Z</time>
      </trkpt>
      <trkpt lat="44.27345" lon="5.80553">
        <ele>529</ele>
        <time>2019-06-17T10:51:16Z</time>
      </trkpt>
      <trkpt lat="44.2734" lon="5.80562">
        <ele>528</ele>
        <time>2019-06-17T10:51:17Z</time>
      </trkpt>
      <trkpt lat="44.27336" lon="5.80571">
        <ele>528</ele>
        <time>2019-06-17T10:51:18Z</time>
      </trkpt>
      <trkpt lat="44.27332" lon="5.80581">
        <ele>528</ele>
        <time>2019-06-17T10:51:19Z</time>
      </trkpt>
      <trkpt lat="44.27328" lon="5.80591">
        <ele>528</ele>
        <time>2019-06-17T10:51:20Z</time>
      </trkpt>
      <trkpt lat="44.27326" lon="5.80603">
        <ele>528</ele>
        <time>2019-06-17T10:51:21Z</time>
      </trkpt>
      <trkpt lat="44.27325" lon="5.80615">
        <ele>528</ele>
        <time>2019-06-17T10:51:22Z</time>
      </trkpt>
      <trkpt lat="44.27324" lon="5.80626">
        <ele>528</ele>
        <time>2019-06-17T10:51:23Z</time>
      </trkpt>
      <trkpt lat="44.27324" lon="5.80639">
        <ele>528</ele>
        <time>2019-06-17T10:51:24Z</time>
      </trkpt>
      <trkpt lat="44.27325" lon="5.80651">
        <ele>528</ele>
        <time>2019-06-17T10:51:25Z</time>
      </trkpt>
      <trkpt lat="44.27325" lon="5.80663">
        <ele>528</ele>
        <time>2019-06-17T10:51:26Z</time>
      </trkpt>
      <trkpt lat="44.27324" lon="5.80675">
        <ele>529</ele>
        <time>2019-06-17T10:51:27Z</time>
      </trkpt>
      <trkpt lat="44.2732" lon="5.80687">
        <ele>530</ele>
        <time>2019-06-17T10:51:28Z</time>
      </trkpt>
      <trkpt lat="44.27316" lon="5.80697">
        <ele>530</ele>
        <time>2019-06-17T10:51:29Z</time>
      </trkpt>
      <trkpt lat="44.2731" lon="5.80707">
        <ele>530</ele>
        <time>2019-06-17T10:51:30Z</time>
      </trkpt>
      <trkpt lat="44.27304" lon="5.80717">
        <ele>530</ele>
        <time>2019-06-17T10:51:31Z</time>
      </trkpt>
      <trkpt lat="44.27299" lon="5.80728">
        <ele>530</ele>
        <time>2019-06-17T10:51:32Z</time>
      </trkpt>
      <trkpt lat="44.27294" lon="5.80739">
        <ele>530</ele>
        <time>2019-06-17T10:51:33Z</time>
      </trkpt>
      <trkpt lat="44.2729" lon="5.80752">
        <ele>530</ele>
        <time>2019-06-17T10:51:34Z</time>
      </trkpt>
      <trkpt lat="44.27286" lon="5.80764">
        <ele>530</ele>
        <time>2019-06-17T10:51:35Z</time>
      </trkpt>
      <trkpt lat="44.27282" lon="5.80776">
        <ele>530</ele>
        <time>2019-06-17T10:51:36Z</time>
      </trkpt>
      <trkpt lat="44.27278" lon="5.80789">
        <ele>530</ele>
        <time>2019-06-17T10:51:37Z</time>
      </trkpt>
      <trkpt lat="44.27274" lon="5.808">
        <ele>530</ele>
        <time>2019-06-17T10:51:38Z</time>
      </trkpt>
      <trkpt lat="44.27271" lon="5.80812">
        <ele>530</ele>
        <time>2019-06-17T10:51:39Z</time>
      </trkpt>
      <trkpt lat="44.27267" lon="5.80824">
        <ele>530</ele>
        <time>2019-06-17T10:51:40Z</time>
      </trkpt>
      <trkpt lat="44.27263" lon="5.80835">
        <ele>530</ele>
        <time>2019-06-17T10:51:41Z</time>
      </trkpt>
      <trkpt lat="44.2726" lon="5.80847">
        <ele>530</ele>
        <time>2019-06-17T10:51:42Z</time>
      </trkpt>
      <trkpt lat="44.27258" lon="5.80859">
        <ele>530</ele>
        <time>2019-06-17T10:51:43Z</time>
      </trkpt>
      <trkpt lat="44.27255" lon="5.8087">
        <ele>530</ele>
        <time>2019-06-17T10:51:44Z</time>
      </trkpt>
      <trkpt lat="44.27252" lon="5.80882">
        <ele>530</ele>
        <time>2019-06-17T10:51:45Z</time>
      </trkpt>
      <trkpt lat="44.27249" lon="5.80893">
        <ele>530</ele>
        <time>2019-06-17T10:51:46Z</time>
      </trkpt>
      <trkpt lat="44.27246" lon="5.80904">
        <ele>530</ele>
        <time>2019-06-17T10:51:47Z</time>
      </trkpt>
      <trkpt lat="44.27243" lon="5.80916">
        <ele>530</ele>
        <time>2019-06-17T10:51:48Z</time>
      </trkpt>
      <trkpt lat="44.2724" lon="5.80927">
        <ele>530</ele>
        <time>2019-06-17T10:51:49Z</time>
      </trkpt>
      <trkpt lat="44.27237" lon="5.80938">
        <ele>530</ele>
        <time>2019-06-17T10:51:50Z</time>
      </trkpt>
      <trkpt lat="44.27235" lon="5.80949">
        <ele>530</ele>
        <time>2019-06-17T10:51:51Z</time>
      </trkpt>
      <trkpt lat="44.27232" lon="5.8096">
        <ele>530</ele>
        <time>2019-06-17T10:51:52Z</time>
      </trkpt>
      <trkpt lat="44.2723" lon="5.80971">
        <ele>530</ele>
        <time>2019-06-17T10:51:53Z</time>
      </trkpt>
      <trkpt lat="44.27227" lon="5.80981">
        <ele>530</ele>
        <time>2019-06-17T10:51:54Z</time>
      </trkpt>
      <trkpt lat="44.27226" lon="5.80992">
        <ele>530</ele>
        <time>2019-06-17T10:51:55Z</time>
      </trkpt>
      <trkpt lat="44.27224" lon="5.81003">
        <ele>530</ele>
        <time>2019-06-17T10:51:56Z</time>
      </trkpt>
      <trkpt lat="44.27222" lon="5.81013">
        <ele>530</ele>
        <time>2019-06-17T10:51:57Z</time>
      </trkpt>
      <trkpt lat="44.27221" lon="5.81023">
        <ele>530</ele>
        <time>2019-06-17T10:51:58Z</time>
      </trkpt>
      <trkpt lat="44.27219" lon="5.81033">
        <ele>530</ele>
        <time>2019-06-17T10:51:59Z</time>
      </trkpt>
      <trkpt lat="44.27218" lon="5.81042">
        <ele>530</ele>
        <time>2019-06-17T10:52:00Z</time>
      </trkpt>
      <trkpt lat="44.27217" lon="5.81051">
        <ele>530</ele>
        <time>2019-06-17T10:52:01Z</time>
      </trkpt>
      <trkpt lat="44.27216" lon="5.8106">
        <ele>530</ele>
        <time>2019-06-17T10:52:02Z</time>
      </trkpt>
      <trkpt lat="44.27215" lon="5.81069">
        <ele>530</ele>
        <time>2019-06-17T10:52:03Z</time>
      </trkpt>
      <trkpt lat="44.27215" lon="5.81077">
        <ele>530</ele>
        <time>2019-06-17T10:52:04Z</time>
      </trkpt>
      <trkpt lat="44.27215" lon="5.81085">
        <ele>530</ele>
        <time>2019-06-17T10:52:05Z</time>
      </trkpt>
      <trkpt lat="44.27215" lon="5.81094">
        <ele>530</ele>
        <time>2019-06-17T10:52:06Z</time>
      </trkpt>
      <trkpt lat="44.27215" lon="5.81101">
        <ele>530</ele>
        <time>2019-06-17T10:52:07Z</time>
      </trkpt>
      <trkpt lat="44.27215" lon="5.81109">
        <ele>530</ele>
        <time>2019-06-17T10:52:08Z</time>
      </trkpt>
      <trkpt lat="44.27215" lon="5.81117">
        <ele>530</ele>
        <time>2019-06-17T10:52:09Z</time>
      </trkpt>
      <trkpt lat="44.27216" lon="5.81124">
        <ele>530</ele>
        <time>2019-06-17T10:52:10Z</time>
      </trkpt>
      <trkpt lat="44.27216" lon="5.81131">
        <ele>530</ele>
        <time>2019-06-17T10:52:11Z</time>
      </trkpt>
      <trkpt lat="44.27216" lon="5.81138">
        <ele>530</ele>
        <time>2019-06-17T10:52:12Z</time>
      </trkpt>
      <trkpt lat="44.27217" lon="5.81145">
        <ele>530</ele>
        <time>2019-06-17T10:52:13Z</time>
      </trkpt>
      <trkpt lat="44.27219" lon="5.81151">
        <ele>530</ele>
        <time>2019-06-17T10:52:14Z</time>
      </trkpt>
      <trkpt lat="44.27221" lon="5.81158">
        <ele>530</ele>
        <time>2019-06-17T10:52:15Z</time>
      </trkpt>
      <trkpt lat="44.27225" lon="5.81163">
        <ele>531</ele>
        <time>2019-06-17T10:52:16Z</time>
      </trkpt>
      <trkpt lat="44.2723" lon="5.81168">
        <ele>531</ele>
        <time>2019-06-17T10:52:17Z</time>
      </trkpt>
      <trkpt lat="44.27235" lon="5.81172">
        <ele>532</ele>
        <time>2019-06-17T10:52:18Z</time>
      </trkpt>
      <trkpt lat="44.2724" lon="5.81177">
        <ele>532</ele>
        <time>2019-06-17T10:52:19Z</time>
      </trkpt>
      <trkpt lat="44.27245" lon="5.81181">
        <ele>532</ele>
        <time>2019-06-17T10:52:20Z</time>
      </trkpt>
      <trkpt lat="44.2725" lon="5.81186">
        <ele>533</ele>
        <time>2019-06-17T10:52:21Z</time>
      </trkpt>
      <trkpt lat="44.27254" lon="5.8119">
        <ele>533</ele>
        <time>2019-06-17T10:52:22Z</time>
      </trkpt>
      <trkpt lat="44.27259" lon="5.81195">
        <ele>533</ele>
        <time>2019-06-17T10:52:23Z</time>
      </trkpt>
      <trkpt lat="44.27263" lon="5.812">
        <ele>534</ele>
        <time>2019-06-17T10:52:24Z</time>
      </trkpt>
      <trkpt lat="44.27267" lon="5.81203">
        <ele>535</ele>
        <time>2019-06-17T10:52:25Z</time>
      </trkpt>
      <trkpt lat="44.27272" lon="5.81208">
        <ele>535</ele>
        <time>2019-06-17T10:52:26Z</time>
      </trkpt>
      <trkpt lat="44.27276" lon="5.81213">
        <ele>535</ele>
        <time>2019-06-17T10:52:27Z</time>
      </trkpt>
      <trkpt lat="44.27281" lon="5.81217">
        <ele>536</ele>
        <time>2019-06-17T10:52:28Z</time>
      </trkpt>
      <trkpt lat="44.27285" lon="5.81223">
        <ele>536</ele>
        <time>2019-06-17T10:52:29Z</time>
      </trkpt>
      <trkpt lat="44.27289" lon="5.81229">
        <ele>536</ele>
        <time>2019-06-17T10:52:30Z</time>
      </trkpt>
      <trkpt lat="44.27293" lon="5.81235">
        <ele>536</ele>
        <time>2019-06-17T10:52:31Z</time>
      </trkpt>
      <trkpt lat="44.27296" lon="5.81241">
        <ele>536</ele>
        <time>2019-06-17T10:52:32Z</time>
      </trkpt>
      <trkpt lat="44.27301" lon="5.81248">
        <ele>536</ele>
        <time>2019-06-17T10:52:33Z</time>
      </trkpt>
      <trkpt lat="44.27304" lon="5.81254">
        <ele>536</ele>
        <time>2019-06-17T10:52:34Z</time>
      </trkpt>
      <trkpt lat="44.27309" lon="5.81261">
        <ele>536</ele>
        <time>2019-06-17T10:52:35Z</time>
      </trkpt>
      <trkpt lat="44.27313" lon="5.81267">
        <ele>536</ele>
        <time>2019-06-17T10:52:36Z</time>
      </trkpt>
      <trkpt lat="44.27317" lon="5.81274">
        <ele>536</ele>
        <time>2019-06-17T10:52:37Z</time>
      </trkpt>
      <trkpt lat="44.27322" lon="5.8128">
        <ele>536</ele>
        <time>2019-06-17T10:52:38Z</time>
      </trkpt>
      <trkpt lat="44.27327" lon="5.81286">
        <ele>536</ele>
        <time>2019-06-17T10:52:39Z</time>
      </trkpt>
      <trkpt lat="44.27332" lon="5.81291">
        <ele>536</ele>
        <time>2019-06-17T10:52:40Z</time>
      </trkpt>
      <trkpt lat="44.27337" lon="5.81297">
        <ele>536</ele>
        <time>2019-06-17T10:52:41Z</time>
      </trkpt>
      <trkpt lat="44.27342" lon="5.81303">
        <ele>536</ele>
        <time>2019-06-17T10:52:42Z</time>
      </trkpt>
      <trkpt lat="44.27348" lon="5.81308">
        <ele>536</ele>
        <time>2019-06-17T10:52:43Z</time>
      </trkpt>
      <trkpt lat="44.27354" lon="5.81312">
        <ele>536</ele>
        <time>2019-06-17T10:52:44Z</time>
      </trkpt>
      <trkpt lat="44.27361" lon="5.81317">
        <ele>536</ele>
        <time>2019-06-17T10:52:45Z</time>
      </trkpt>
      <trkpt lat="44.27368" lon="5.81321">
        <ele>536</ele>
        <time>2019-06-17T10:52:46Z</time>
      </trkpt>
      <trkpt lat="44.27374" lon="5.81326">
        <ele>536</ele>
        <time>2019-06-17T10:52:47Z</time>
      </trkpt>
      <trkpt lat="44.2738" lon="5.8133">
        <ele>536</ele>
        <time>2019-06-17T10:52:48Z</time>
      </trkpt>
      <trkpt lat="44.27386" lon="5.81334">
        <ele>536</ele>
        <time>2019-06-17T10:52:49Z</time>
      </trkpt>
      <trkpt lat="44.27393" lon="5.81339">
        <ele>536</ele>
        <time>2019-06-17T10:52:50Z</time>
      </trkpt>
      <trkpt lat="44.274" lon="5.81343">
        <ele>536</ele>
        <time>2019-06-17T10:52:51Z</time>
      </trkpt>
      <trkpt lat="44.27407" lon="5.81347">
        <ele>536</ele>
        <time>2019-06-17T10:52:52Z</time>
      </trkpt>
      <trkpt lat="44.27414" lon="5.81351">
        <ele>536</ele>
        <time>2019-06-17T10:52:53Z</time>
      </trkpt>
      <trkpt lat="44.27421" lon="5.81356">
        <ele>536</ele>
        <time>2019-06-17T10:52:54Z</time>
      </trkpt>
      <trkpt lat="44.27428" lon="5.8136">
        <ele>536</ele>
        <time>2019-06-17T10:52:55Z</time>
      </trkpt>
      <trkpt lat="44.27435" lon="5.81364">
        <ele>536</ele>
        <time>2019-06-17T10:52:56Z</time>
      </trkpt>
      <trkpt lat="44.27443" lon="5.81369">
        <ele>536</ele>
        <time>2019-06-17T10:52:57Z</time>
      </trkpt>
      <trkpt lat="44.27449" lon="5.81374">
        <ele>536</ele>
        <time>2019-06-17T10:52:58Z</time>
      </trkpt>
      <trkpt lat="44.27457" lon="5.81378">
        <ele>536</ele>
        <time>2019-06-17T10:52:59Z</time>
      </trkpt>
      <trkpt lat="44.27464" lon="5.81383">
        <ele>536</ele>
        <time>2019-06-17T10:53:00Z</time>
      </trkpt>
      <trkpt lat="44.2747" lon="5.81389">
        <ele>536</ele>
        <time>2019-06-17T10:53:01Z</time>
      </trkpt>
      <trkpt lat="44.27477" lon="5.81394">
        <ele>536</ele>
        <time>2019-06-17T10:53:02Z</time>
      </trkpt>
      <trkpt lat="44.27484" lon="5.81401">
        <ele>536</ele>
        <time>2019-06-17T10:53:03Z</time>
      </trkpt>
      <trkpt lat="44.2749" lon="5.81407">
        <ele>536</ele>
        <time>2019-06-17T10:53:04Z</time>
      </trkpt>
      <trkpt lat="44.27496" lon="5.81413">
        <ele>536</ele>
        <time>2019-06-17T10:53:05Z</time>
      </trkpt>
      <trkpt lat="44.27502" lon="5.8142">
        <ele>536</ele>
        <time>2019-06-17T10:53:06Z</time>
      </trkpt>
      <trkpt lat="44.27507" lon="5.81427">
        <ele>536</ele>
        <time>2019-06-17T10:53:07Z</time>
      </trkpt>
      <trkpt lat="44.27513" lon="5.81435">
        <ele>536</ele>
        <time>2019-06-17T10:53:08Z</time>
      </trkpt>
      <trkpt lat="44.27519" lon="5.81442">
        <ele>536</ele>
        <time>2019-06-17T10:53:09Z</time>
      </trkpt>
      <trkpt lat="44.27525" lon="5.81449">
        <ele>536</ele>
        <time>2019-06-17T10:53:10Z</time>
      </trkpt>
      <trkpt lat="44.27531" lon="5.81456">
        <ele>536</ele>
        <time>2019-06-17T10:53:11Z</time>
      </trkpt>
      <trkpt lat="44.27536" lon="5.81463">
        <ele>536</ele>
        <time>2019-06-17T10:53:12Z</time>
      </trkpt>
      <trkpt lat="44.27541" lon="5.8147">
        <ele>536</ele>
        <time>2019-06-17T10:53:13Z</time>
      </trkpt>
      <trkpt lat="44.27546" lon="5.81476">
        <ele>536</ele>
        <time>2019-06-17T10:53:14Z</time>
      </trkpt>
      <trkpt lat="44.27551" lon="5.81482">
        <ele>536</ele>
        <time>2019-06-17T10:53:15Z</time>
      </trkpt>
      <trkpt lat="44.27556" lon="5.81487">
        <ele>536</ele>
        <time>2019-06-17T10:53:16Z</time>
      </trkpt>
      <trkpt lat="44.2756" lon="5.81492">
        <ele>536</ele>
        <time>2019-06-17T10:53:17Z</time>
      </trkpt>
      <trkpt lat="44.27565" lon="5.81499">
        <ele>536</ele>
        <time>2019-06-17T10:53:18Z</time>
      </trkpt>
      <trkpt lat="44.2757" lon="5.81505">
        <ele>536</ele>
        <time>2019-06-17T10:53:19Z</time>
      </trkpt>
      <trkpt lat="44.27574" lon="5.81511">
        <ele>536</ele>
        <time>2019-06-17T10:53:20Z</time>
      </trkpt>
      <trkpt lat="44.27579" lon="5.81518">
        <ele>536</ele>
        <time>2019-06-17T10:53:21Z</time>
      </trkpt>
      <trkpt lat="44.27583" lon="5.81524">
        <ele>537</ele>
        <time>2019-06-17T10:53:22Z</time>
      </trkpt>
      <trkpt lat="44.27589" lon="5.8153">
        <ele>537</ele>
        <time>2019-06-17T10:53:23Z</time>
      </trkpt>
      <trkpt lat="44.27593" lon="5.81536">
        <ele>537</ele>
        <time>2019-06-17T10:53:24Z</time>
      </trkpt>
      <trkpt lat="44.27598" lon="5.81541">
        <ele>537</ele>
        <time>2019-06-17T10:53:25Z</time>
      </trkpt>
      <trkpt lat="44.27602" lon="5.81547">
        <ele>537</ele>
        <time>2019-06-17T10:53:26Z</time>
      </trkpt>
      <trkpt lat="44.27607" lon="5.81553">
        <ele>538</ele>
        <time>2019-06-17T10:53:27Z</time>
      </trkpt>
      <trkpt lat="44.27611" lon="5.81559">
        <ele>538</ele>
        <time>2019-06-17T10:53:28Z</time>
      </trkpt>
      <trkpt lat="44.27616" lon="5.81564">
        <ele>538</ele>
        <time>2019-06-17T10:53:29Z</time>
      </trkpt>
      <trkpt lat="44.27621" lon="5.8157">
        <ele>538</ele>
        <time>2019-06-17T10:53:30Z</time>
      </trkpt>
      <trkpt lat="44.27626" lon="5.81575">
        <ele>538</ele>
        <time>2019-06-17T10:53:31Z</time>
      </trkpt>
      <trkpt lat="44.27631" lon="5.81581">
        <ele>538</ele>
        <time>2019-06-17T10:53:32Z</time>
      </trkpt>
      <trkpt lat="44.27636" lon="5.81588">
        <ele>538</ele>
        <time>2019-06-17T10:53:33Z</time>
      </trkpt>
      <trkpt lat="44.27641" lon="5.81593">
        <ele>538</ele>
        <time>2019-06-17T10:53:34Z</time>
      </trkpt>
      <trkpt lat="44.27645" lon="5.81598">
        <ele>538</ele>
        <time>2019-06-17T10:53:35Z</time>
      </trkpt>
      <trkpt lat="44.2765" lon="5.81604">
        <ele>538</ele>
        <time>2019-06-17T10:53:36Z</time>
      </trkpt>
      <trkpt lat="44.27655" lon="5.8161">
        <ele>538</ele>
        <time>2019-06-17T10:53:37Z</time>
      </trkpt>
      <trkpt lat="44.2766" lon="5.81616">
        <ele>538</ele>
        <time>2019-06-17T10:53:38Z</time>
      </trkpt>
      <trkpt lat="44.27666" lon="5.81622">
        <ele>538</ele>
        <time>2019-06-17T10:53:39Z</time>
      </trkpt>
      <trkpt lat="44.27671" lon="5.81628">
        <ele>538</ele>
        <time>2019-06-17T10:53:40Z</time>
      </trkpt>
      <trkpt lat="44.27677" lon="5.81635">
        <ele>538</ele>
        <time>2019-06-17T10:53:41Z</time>
      </trkpt>
      <trkpt lat="44.27682" lon="5.81641">
        <ele>538</ele>
        <time>2019-06-17T10:53:42Z</time>
      </trkpt>
      <trkpt lat="44.27688" lon="5.81647">
        <ele>538</ele>
        <time>2019-06-17T10:53:43Z</time>
      </trkpt>
      <trkpt lat="44.27693" lon="5.81653">
        <ele>538</ele>
        <time>2019-06-17T10:53:44Z</time>
      </trkpt>
      <trkpt lat="44.27698" lon="5.8166">
        <ele>538</ele>
        <time>2019-06-17T10:53:45Z</time>
      </trkpt>
      <trkpt lat="44.27704" lon="5.81666">
        <ele>538</ele>
        <time>2019-06-17T10:53:46Z</time>
      </trkpt>
      <trkpt lat="44.27709" lon="5.81673">
        <ele>538</ele>
        <time>2019-06-17T10:53:47Z</time>
      </trkpt>
      <trkpt lat="44.27714" lon="5.81679">
        <ele>538</ele>
        <time>2019-06-17T10:53:48Z</time>
      </trkpt>
      <trkpt lat="44.27719" lon="5.81686">
        <ele>538</ele>
        <time>2019-06-17T10:53:49Z</time>
      </trkpt>
      <trkpt lat="44.27723" lon="5.81693">
        <ele>538</ele>
        <time>2019-06-17T10:53:50Z</time>
      </trkpt>
      <trkpt lat="44.27728" lon="5.817">
        <ele>538</ele>
        <time>2019-06-17T10:53:51Z</time>
      </trkpt>
      <trkpt lat="44.27734" lon="5.81706">
        <ele>538</ele>
        <time>2019-06-17T10:53:52Z</time>
      </trkpt>
      <trkpt lat="44.2774" lon="5.81711">
        <ele>538</ele>
        <time>2019-06-17T10:53:53Z</time>
      </trkpt>
      <trkpt lat="44.27746" lon="5.81715">
        <ele>538</ele>
        <time>2019-06-17T10:53:54Z</time>
      </trkpt>
      <trkpt lat="44.27752" lon="5.81719">
        <ele>538</ele>
        <time>2019-06-17T10:53:55Z</time>
      </trkpt>
      <trkpt lat="44.27758" lon="5.81723">
        <ele>539</ele>
        <time>2019-06-17T10:53:56Z</time>
      </trkpt>
      <trkpt lat="44.27764" lon="5.81728">
        <ele>539</ele>
        <time>2019-06-17T10:53:57Z</time>
      </trkpt>
      <trkpt lat="44.2777" lon="5.81732">
        <ele>539</ele>
        <time>2019-06-17T10:53:58Z</time>
      </trkpt>
      <trkpt lat="44.27776" lon="5.81736">
        <ele>540</ele>
        <time>2019-06-17T10:53:59Z</time>
      </trkpt>
      <trkpt lat="44.27782" lon="5.81739">
        <ele>540</ele>
        <time>2019-06-17T10:54:00Z</time>
      </trkpt>
      <trkpt lat="44.27787" lon="5.81743">
        <ele>540</ele>
        <time>2019-06-17T10:54:01Z</time>
      </trkpt>
      <trkpt lat="44.27793" lon="5.81747">
        <ele>541</ele>
        <time>2019-06-17T10:54:02Z</time>
      </trkpt>
      <trkpt lat="44.27799" lon="5.81751">
        <ele>541</ele>
        <time>2019-06-17T10:54:03Z</time>
      </trkpt>
      <trkpt lat="44.27805" lon="5.81755">
        <ele>541</ele>
        <time>2019-06-17T10:54:04Z</time>
      </trkpt>
      <trkpt lat="44.2781" lon="5.81759">
        <ele>541</ele>
        <time>2019-06-17T10:54:05Z</time>
      </trkpt>
      <trkpt lat="44.27816" lon="5.81763">
        <ele>541</ele>
        <time>2019-06-17T10:54:06Z</time>
      </trkpt>
      <trkpt lat="44.27822" lon="5.81767">
        <ele>542</ele>
        <time>2019-06-17T10:54:07Z</time>
      </trkpt>
      <trkpt lat="44.27828" lon="5.8177">
        <ele>542</ele>
        <time>2019-06-17T10:54:08Z</time>
      </trkpt>
      <trkpt lat="44.27833" lon="5.81774">
        <ele>542</ele>
        <time>2019-06-17T10:54:09Z</time>
      </trkpt>
      <trkpt lat="44.27839" lon="5.81778">
        <ele>542</ele>
        <time>2019-06-17T10:54:10Z</time>
      </trkpt>
      <trkpt lat="44.27844" lon="5.81781">
        <ele>543</ele>
        <time>2019-06-17T10:54:11Z</time>
      </trkpt>
      <trkpt lat="44.2785" lon="5.81785">
        <ele>543</ele>
        <time>2019-06-17T10:54:12Z</time>
      </trkpt>
      <trkpt lat="44.27855" lon="5.81789">
        <ele>543</ele>
        <time>2019-06-17T10:54:13Z</time>
      </trkpt>
      <trkpt lat="44.27861" lon="5.81792">
        <ele>543</ele>
        <time>2019-06-17T10:54:14Z</time>
      </trkpt>
      <trkpt lat="44.27866" lon="5.81795">
        <ele>543</ele>
        <time>2019-06-17T10:54:15Z</time>
      </trkpt>
      <trkpt lat="44.27871" lon="5.81799">
        <ele>544</ele>
        <time>2019-06-17T10:54:16Z</time>
      </trkpt>
      <trkpt lat="44.27877" lon="5.81802">
        <ele>544</ele>
        <time>2019-06-17T10:54:17Z</time>
      </trkpt>
      <trkpt lat="44.27882" lon="5.81806">
        <ele>544</ele>
        <time>2019-06-17T10:54:18Z</time>
      </trkpt>
      <trkpt lat="44.27888" lon="5.81809">
        <ele>544</ele>
        <time>2019-06-17T10:54:19Z</time>
      </trkpt>
      <trkpt lat="44.27893" lon="5.81813">
        <ele>544</ele>
        <time>2019-06-17T10:54:20Z</time>
      </trkpt>
      <trkpt lat="44.27899" lon="5.81816">
        <ele>544</ele>
        <time>2019-06-17T10:54:21Z</time>
      </trkpt>
      <trkpt lat="44.27905" lon="5.8182">
        <ele>544</ele>
        <time>2019-06-17T10:54:22Z</time>
      </trkpt>
      <trkpt lat="44.2791" lon="5.81823">
        <ele>544</ele>
        <time>2019-06-17T10:54:23Z</time>
      </trkpt>
      <trkpt lat="44.27916" lon="5.81827">
        <ele>544</ele>
        <time>2019-06-17T10:54:24Z</time>
      </trkpt>
      <trkpt lat="44.27922" lon="5.81831">
        <ele>544</ele>
        <time>2019-06-17T10:54:25Z</time>
      </trkpt>
      <trkpt lat="44.27928" lon="5.81834">
        <ele>544</ele>
        <time>2019-06-17T10:54:26Z</time>
      </trkpt>
      <trkpt lat="44.27934" lon="5.81838">
        <ele>544</ele>
        <time>2019-06-17T10:54:27Z</time>
      </trkpt>
      <trkpt lat="44.27939" lon="5.81842">
        <ele>544</ele>
        <time>2019-06-17T10:54:28Z</time>
      </trkpt>
      <trkpt lat="44.27945" lon="5.81846">
        <ele>544</ele>
        <time>2019-06-17T10:54:29Z</time>
      </trkpt>
      <trkpt lat="44.27951" lon="5.81849">
        <ele>544</ele>
        <time>2019-06-17T10:54:30Z</time>
      </trkpt>
      <trkpt lat="44.27957" lon="5.81853">
        <ele>544</ele>
        <time>2019-06-17T10:54:31Z</time>
      </trkpt>
      <trkpt lat="44.27962" lon="5.81857">
        <ele>544</ele>
        <time>2019-06-17T10:54:32Z</time>
      </trkpt>
      <trkpt lat="44.27968" lon="5.8186">
        <ele>544</ele>
        <time>2019-06-17T10:54:33Z</time>
      </trkpt>
      <trkpt lat="44.27974" lon="5.81864">
        <ele>544</ele>
        <time>2019-06-17T10:54:34Z</time>
      </trkpt>
      <trkpt lat="44.2798" lon="5.81868">
        <ele>544</ele>
        <time>2019-06-17T10:54:35Z</time>
      </trkpt>
      <trkpt lat="44.27986" lon="5.81872">
        <ele>544</ele>
        <time>2019-06-17T10:54:36Z</time>
      </trkpt>
      <trkpt lat="44.27992" lon="5.81876">
        <ele>544</ele>
        <time>2019-06-17T10:54:37Z</time>
      </trkpt>
      <trkpt lat="44.27998" lon="5.8188">
        <ele>544</ele>
        <time>2019-06-17T10:54:38Z</time>
      </trkpt>
      <trkpt lat="44.28004" lon="5.81884">
        <ele>544</ele>
        <time>2019-06-17T10:54:39Z</time>
      </trkpt>
      <trkpt lat="44.28011" lon="5.81888">
        <ele>544</ele>
        <time>2019-06-17T10:54:40Z</time>
      </trkpt>
      <trkpt lat="44.28017" lon="5.81892">
        <ele>544</ele>
        <time>2019-06-17T10:54:41Z</time>
      </trkpt>
      <trkpt lat="44.28023" lon="5.81896">
        <ele>544</ele>
        <time>2019-06-17T10:54:42Z</time>
      </trkpt>
      <trkpt lat="44.2803" lon="5.819">
        <ele>544</ele>
        <time>2019-06-17T10:54:43Z</time>
      </trkpt>
      <trkpt lat="44.28036" lon="5.81904">
        <ele>544</ele>
        <time>2019-06-17T10:54:44Z</time>
      </trkpt>
      <trkpt lat="44.28042" lon="5.81908">
        <ele>544</ele>
        <time>2019-06-17T10:54:45Z</time>
      </trkpt>
      <trkpt lat="44.28048" lon="5.81912">
        <ele>544</ele>
        <time>2019-06-17T10:54:46Z</time>
      </trkpt>
      <trkpt lat="44.28054" lon="5.81916">
        <ele>544</ele>
        <time>2019-06-17T10:54:47Z</time>
      </trkpt>
      <trkpt lat="44.2806" lon="5.8192">
        <ele>544</ele>
        <time>2019-06-17T10:54:48Z</time>
      </trkpt>
      <trkpt lat="44.28067" lon="5.81924">
        <ele>544</ele>
        <time>2019-06-17T10:54:49Z</time>
      </trkpt>
      <trkpt lat="44.28072" lon="5.81928">
        <ele>544</ele>
        <time>2019-06-17T10:54:50Z</time>
      </trkpt>
      <trkpt lat="44.28079" lon="5.81932">
        <ele>544</ele>
        <time>2019-06-17T10:54:51Z</time>
      </trkpt>
      <trkpt lat="44.28085" lon="5.81936">
        <ele>544</ele>
        <time>2019-06-17T10:54:52Z</time>
      </trkpt>
      <trkpt lat="44.28091" lon="5.8194">
        <ele>544</ele>
        <time>2019-06-17T10:54:53Z</time>
      </trkpt>
      <trkpt lat="44.28096" lon="5.81944">
        <ele>545</ele>
        <time>2019-06-17T10:54:54Z</time>
      </trkpt>
      <trkpt lat="44.28102" lon="5.81947">
        <ele>545</ele>
        <time>2019-06-17T10:54:55Z</time>
      </trkpt>
      <trkpt lat="44.28108" lon="5.81951">
        <ele>545</ele>
        <time>2019-06-17T10:54:56Z</time>
      </trkpt>
      <trkpt lat="44.28114" lon="5.81954">
        <ele>545</ele>
        <time>2019-06-17T10:54:57Z</time>
      </trkpt>
      <trkpt lat="44.2812" lon="5.81958">
        <ele>545</ele>
        <time>2019-06-17T10:54:58Z</time>
      </trkpt>
      <trkpt lat="44.28126" lon="5.81962">
        <ele>545</ele>
        <time>2019-06-17T10:54:59Z</time>
      </trkpt>
      <trkpt lat="44.28132" lon="5.81966">
        <ele>545</ele>
        <time>2019-06-17T10:55:00Z</time>
      </trkpt>
      <trkpt lat="44.28138" lon="5.8197">
        <ele>545</ele>
        <time>2019-06-17T10:55:01Z</time>
      </trkpt>
      <trkpt lat="44.28144" lon="5.81974">
        <ele>545</ele>
        <time>2019-06-17T10:55:02Z</time>
      </trkpt>
      <trkpt lat="44.2815" lon="5.81977">
        <ele>545</ele>
        <time>2019-06-17T10:55:03Z</time>
      </trkpt>
      <trkpt lat="44.28156" lon="5.81981">
        <ele>545</ele>
        <time>2019-06-17T10:55:04Z</time>
      </trkpt>
      <trkpt lat="44.28162" lon="5.81984">
        <ele>545</ele>
        <time>2019-06-17T10:55:05Z</time>
      </trkpt>
      <trkpt lat="44.28168" lon="5.81988">
        <ele>545</ele>
        <time>2019-06-17T10:55:06Z</time>
      </trkpt>
      <trkpt lat="44.28174" lon="5.81992">
        <ele>545</ele>
        <time>2019-06-17T10:55:07Z</time>
      </trkpt>
      <trkpt lat="44.2818" lon="5.81996">
        <ele>545</ele>
        <time>2019-06-17T10:55:08Z</time>
      </trkpt>
      <trkpt lat="44.28186" lon="5.82">
        <ele>545</ele>
        <time>2019-06-17T10:55:09Z</time>
      </trkpt>
      <trkpt lat="44.28191" lon="5.82003">
        <ele>545</ele>
        <time>2019-06-17T10:55:10Z</time>
      </trkpt>
      <trkpt lat="44.28197" lon="5.82007">
        <ele>545</ele>
        <time>2019-06-17T10:55:11Z</time>
      </trkpt>
      <trkpt lat="44.28203" lon="5.8201">
        <ele>545</ele>
        <time>2019-06-17T10:55:12Z</time>
      </trkpt>
      <trkpt lat="44.28209" lon="5.82014">
        <ele>545</ele>
        <time>2019-06-17T10:55:13Z</time>
      </trkpt>
      <trkpt lat="44.28215" lon="5.82017">
        <ele>545</ele>
        <time>2019-06-17T10:55:14Z</time>
      </trkpt>
      <trkpt lat="44.28221" lon="5.8202">
        <ele>545</ele>
        <time>2019-06-17T10:55:15Z</time>
      </trkpt>
      <trkpt lat="44.28227" lon="5.82022">
        <ele>545</ele>
        <time>2019-06-17T10:55:16Z</time>
      </trkpt>
      <trkpt lat="44.28233" lon="5.82025">
        <ele>545</ele>
        <time>2019-06-17T10:55:17Z</time>
      </trkpt>
      <trkpt lat="44.28239" lon="5.82027">
        <ele>545</ele>
        <time>2019-06-17T10:55:18Z</time>
      </trkpt>
      <trkpt lat="44.28246" lon="5.82029">
        <ele>545</ele>
        <time>2019-06-17T10:55:19Z</time>
      </trkpt>
      <trkpt lat="44.28252" lon="5.8203">
        <ele>545</ele>
        <time>2019-06-17T10:55:20Z</time>
      </trkpt>
      <trkpt lat="44.28258" lon="5.82031">
        <ele>545</ele>
        <time>2019-06-17T10:55:21Z</time>
      </trkpt>
      <trkpt lat="44.28265" lon="5.82032">
        <ele>546</ele>
        <time>2019-06-17T10:55:22Z</time>
      </trkpt>
      <trkpt lat="44.28271" lon="5.82033">
        <ele>546</ele>
        <time>2019-06-17T10:55:23Z</time>
      </trkpt>
      <trkpt lat="44.28277" lon="5.82033">
        <ele>546</ele>
        <time>2019-06-17T10:55:24Z</time>
      </trkpt>
      <trkpt lat="44.28283" lon="5.82033">
        <ele>546</ele>
        <time>2019-06-17T10:55:25Z</time>
      </trkpt>
      <trkpt lat="44.28288" lon="5.82033">
        <ele>547</ele>
        <time>2019-06-17T10:55:26Z</time>
      </trkpt>
      <trkpt lat="44.28294" lon="5.82033">
        <ele>547</ele>
        <time>2019-06-17T10:55:27Z</time>
      </trkpt>
      <trkpt lat="44.283" lon="5.82033">
        <ele>547</ele>
        <time>2019-06-17T10:55:28Z</time>
      </trkpt>
      <trkpt lat="44.28307" lon="5.82033">
        <ele>547</ele>
        <time>2019-06-17T10:55:29Z</time>
      </trkpt>
      <trkpt lat="44.28313" lon="5.82033">
        <ele>547</ele>
        <time>2019-06-17T10:55:30Z</time>
      </trkpt>
      <trkpt lat="44.2832" lon="5.82033">
        <ele>547</ele>
        <time>2019-06-17T10:55:31Z</time>
      </trkpt>
      <trkpt lat="44.28326" lon="5.82033">
        <ele>547</ele>
        <time>2019-06-17T10:55:32Z</time>
      </trkpt>
      <trkpt lat="44.28332" lon="5.82033">
        <ele>547</ele>
        <time>2019-06-17T10:55:33Z</time>
      </trkpt>
      <trkpt lat="44.28339" lon="5.82033">
        <ele>547</ele>
        <time>2019-06-17T10:55:34Z</time>
      </trkpt>
      <trkpt lat="44.28345" lon="5.82032">
        <ele>547</ele>
        <time>2019-06-17T10:55:35Z</time>
      </trkpt>
      <trkpt lat="44.28352" lon="5.82032">
        <ele>547</ele>
        <time>2019-06-17T10:55:36Z</time>
      </trkpt>
      <trkpt lat="44.28358" lon="5.82032">
        <ele>547</ele>
        <time>2019-06-17T10:55:37Z</time>
      </trkpt>
      <trkpt lat="44.28365" lon="5.82033">
        <ele>547</ele>
        <time>2019-06-17T10:55:38Z</time>
      </trkpt>
      <trkpt lat="44.28372" lon="5.82033">
        <ele>547</ele>
        <time>2019-06-17T10:55:39Z</time>
      </trkpt>
      <trkpt lat="44.28379" lon="5.82034">
        <ele>547</ele>
        <time>2019-06-17T10:55:40Z</time>
      </trkpt>
      <trkpt lat="44.28386" lon="5.82035">
        <ele>547</ele>
        <time>2019-06-17T10:55:41Z</time>
      </trkpt>
      <trkpt lat="44.28392" lon="5.82036">
        <ele>547</ele>
        <time>2019-06-17T10:55:42Z</time>
      </trkpt>
      <trkpt lat="44.28399" lon="5.82036">
        <ele>547</ele>
        <time>2019-06-17T10:55:43Z</time>
      </trkpt>
      <trkpt lat="44.28406" lon="5.82037">
        <ele>547</ele>
        <time>2019-06-17T10:55:44Z</time>
      </trkpt>
      <trkpt lat="44.28413" lon="5.82039">
        <ele>547</ele>
        <time>2019-06-17T10:55:45Z</time>
      </trkpt>
      <trkpt lat="44.28419" lon="5.82041">
        <ele>547</ele>
        <time>2019-06-17T10:55:46Z</time>
      </trkpt>
      <trkpt lat="44.28426" lon="5.82042">
        <ele>547</ele>
        <time>2019-06-17T10:55:47Z</time>
      </trkpt>
      <trkpt lat="44.28432" lon="5.82044">
        <ele>547</ele>
        <time>2019-06-17T10:55:48Z</time>
      </trkpt>
      <trkpt lat="44.28438" lon="5.82046">
        <ele>547</ele>
        <time>2019-06-17T10:55:49Z</time>
      </trkpt>
      <trkpt lat="44.28444" lon="5.82048">
        <ele>547</ele>
        <time>2019-06-17T10:55:50Z</time>
      </trkpt>
      <trkpt lat="44.2845" lon="5.82051">
        <ele>547</ele>
        <time>2019-06-17T10:55:51Z</time>
      </trkpt>
      <trkpt lat="44.28456" lon="5.82054">
        <ele>547</ele>
        <time>2019-06-17T10:55:52Z</time>
      </trkpt>
      <trkpt lat="44.28462" lon="5.82056">
        <ele>547</ele>
        <time>2019-06-17T10:55:53Z</time>
      </trkpt>
      <trkpt lat="44.28468" lon="5.82058">
        <ele>547</ele>
        <time>2019-06-17T10:55:54Z</time>
      </trkpt>
      <trkpt lat="44.28474" lon="5.82061">
        <ele>547</ele>
        <time>2019-06-17T10:55:55Z</time>
      </trkpt>
      <trkpt lat="44.2848" lon="5.82064">
        <ele>547</ele>
        <time>2019-06-17T10:55:56Z</time>
      </trkpt>
      <trkpt lat="44.28485" lon="5.82067">
        <ele>547</ele>
        <time>2019-06-17T10:55:57Z</time>
      </trkpt>
      <trkpt lat="44.28491" lon="5.8207">
        <ele>548</ele>
        <time>2019-06-17T10:55:58Z</time>
      </trkpt>
      <trkpt lat="44.28497" lon="5.82073">
        <ele>548</ele>
        <time>2019-06-17T10:55:59Z</time>
      </trkpt>
      <trkpt lat="44.28502" lon="5.82076">
        <ele>548</ele>
        <time>2019-06-17T10:56:00Z</time>
      </trkpt>
      <trkpt lat="44.28508" lon="5.82079">
        <ele>548</ele>
        <time>2019-06-17T10:56:01Z</time>
      </trkpt>
      <trkpt lat="44.28513" lon="5.82081">
        <ele>549</ele>
        <time>2019-06-17T10:56:02Z</time>
      </trkpt>
      <trkpt lat="44.28519" lon="5.82084">
        <ele>549</ele>
        <time>2019-06-17T10:56:03Z</time>
      </trkpt>
      <trkpt lat="44.28524" lon="5.82087">
        <ele>549</ele>
        <time>2019-06-17T10:56:04Z</time>
      </trkpt>
      <trkpt lat="44.2853" lon="5.8209">
        <ele>549</ele>
        <time>2019-06-17T10:56:05Z</time>
      </trkpt>
      <trkpt lat="44.28535" lon="5.82092">
        <ele>549</ele>
        <time>2019-06-17T10:56:06Z</time>
      </trkpt>
      <trkpt lat="44.2854" lon="5.82095">
        <ele>550</ele>
        <time>2019-06-17T10:56:07Z</time>
      </trkpt>
      <trkpt lat="44.28545" lon="5.82097">
        <ele>550</ele>
        <time>2019-06-17T10:56:08Z</time>
      </trkpt>
      <trkpt lat="44.28551" lon="5.821">
        <ele>550</ele>
        <time>2019-06-17T10:56:09Z</time>
      </trkpt>
      <trkpt lat="44.28556" lon="5.82102">
        <ele>550</ele>
        <time>2019-06-17T10:56:10Z</time>
      </trkpt>
      <trkpt lat="44.28561" lon="5.82105">
        <ele>551</ele>
        <time>2019-06-17T10:56:11Z</time>
      </trkpt>
      <trkpt lat="44.28566" lon="5.82107">
        <ele>551</ele>
        <time>2019-06-17T10:56:12Z</time>
      </trkpt>
      <trkpt lat="44.28571" lon="5.8211">
        <ele>551</ele>
        <time>2019-06-17T10:56:13Z</time>
      </trkpt>
      <trkpt lat="44.28576" lon="5.82112">
        <ele>552</ele>
        <time>2019-06-17T10:56:14Z</time>
      </trkpt>
      <trkpt lat="44.28581" lon="5.82114">
        <ele>552</ele>
        <time>2019-06-17T10:56:15Z</time>
      </trkpt>
      <trkpt lat="44.28585" lon="5.82115">
        <ele>552</ele>
        <time>2019-06-17T10:56:16Z</time>
      </trkpt>
      <trkpt lat="44.2859" lon="5.82117">
        <ele>552</ele>
        <time>2019-06-17T10:56:17Z</time>
      </trkpt>
      <trkpt lat="44.28594" lon="5.82119">
        <ele>553</ele>
        <time>2019-06-17T10:56:18Z</time>
      </trkpt>
      <trkpt lat="44.28598" lon="5.8212">
        <ele>553</ele>
        <time>2019-06-17T10:56:19Z</time>
      </trkpt>
      <trkpt lat="44.28603" lon="5.82122">
        <ele>553</ele>
        <time>2019-06-17T10:56:20Z</time>
      </trkpt>
      <trkpt lat="44.28608" lon="5.82124">
        <ele>553</ele>
        <time>2019-06-17T10:56:21Z</time>
      </trkpt>
      <trkpt lat="44.28613" lon="5.82125">
        <ele>553</ele>
        <time>2019-06-17T10:56:22Z</time>
      </trkpt>
      <trkpt lat="44.28617" lon="5.82127">
        <ele>553</ele>
        <time>2019-06-17T10:56:23Z</time>
      </trkpt>
      <trkpt lat="44.28622" lon="5.82128">
        <ele>553</ele>
        <time>2019-06-17T10:56:24Z</time>
      </trkpt>
      <trkpt lat="44.28626" lon="5.8213">
        <ele>554</ele>
        <time>2019-06-17T10:56:25Z</time>
      </trkpt>
      <trkpt lat="44.28631" lon="5.82131">
        <ele>554</ele>
        <time>2019-06-17T10:56:26Z</time>
      </trkpt>
      <trkpt lat="44.28635" lon="5.82131">
        <ele>554</ele>
        <time>2019-06-17T10:56:27Z</time>
      </trkpt>
      <trkpt lat="44.28639" lon="5.82132">
        <ele>554</ele>
        <time>2019-06-17T10:56:28Z</time>
      </trkpt>
      <trkpt lat="44.28643" lon="5.82133">
        <ele>554</ele>
        <time>2019-06-17T10:56:29Z</time>
      </trkpt>
      <trkpt lat="44.28648" lon="5.82134">
        <ele>555</ele>
        <time>2019-06-17T10:56:30Z</time>
      </trkpt>
      <trkpt lat="44.28652" lon="5.82135">
        <ele>555</ele>
        <time>2019-06-17T10:56:31Z</time>
      </trkpt>
      <trkpt lat="44.28657" lon="5.82136">
        <ele>555</ele>
        <time>2019-06-17T10:56:32Z</time>
      </trkpt>
      <trkpt lat="44.28661" lon="5.82137">
        <ele>555</ele>
        <time>2019-06-17T10:56:33Z</time>
      </trkpt>
      <trkpt lat="44.28666" lon="5.82139">
        <ele>555</ele>
        <time>2019-06-17T10:56:34Z</time>
      </trkpt>
      <trkpt lat="44.2867" lon="5.82141">
        <ele>556</ele>
        <time>2019-06-17T10:56:35Z</time>
      </trkpt>
      <trkpt lat="44.28674" lon="5.82143">
        <ele>556</ele>
        <time>2019-06-17T10:56:36Z</time>
      </trkpt>
      <trkpt lat="44.28679" lon="5.82145">
        <ele>556</ele>
        <time>2019-06-17T10:56:37Z</time>
      </trkpt>
      <trkpt lat="44.28683" lon="5.82147">
        <ele>556</ele>
        <time>2019-06-17T10:56:38Z</time>
      </trkpt>
      <trkpt lat="44.28687" lon="5.82149">
        <ele>556</ele>
        <time>2019-06-17T10:56:39Z</time>
      </trkpt>
      <trkpt lat="44.28691" lon="5.82151">
        <ele>556</ele>
        <time>2019-06-17T10:56:40Z</time>
      </trkpt>
      <trkpt lat="44.28695" lon="5.82152">
        <ele>556</ele>
        <time>2019-06-17T10:56:41Z</time>
      </trkpt>
      <trkpt lat="44.287" lon="5.82154">
        <ele>557</ele>
        <time>2019-06-17T10:56:42Z</time>
      </trkpt>
      <trkpt lat="44.28705" lon="5.82156">
        <ele>557</ele>
        <time>2019-06-17T10:56:43Z</time>
      </trkpt>
      <trkpt lat="44.28709" lon="5.82158">
        <ele>557</ele>
        <time>2019-06-17T10:56:44Z</time>
      </trkpt>
      <trkpt lat="44.28713" lon="5.82159">
        <ele>557</ele>
        <time>2019-06-17T10:56:45Z</time>
      </trkpt>
      <trkpt lat="44.28718" lon="5.82161">
        <ele>557</ele>
        <time>2019-06-17T10:56:46Z</time>
      </trkpt>
      <trkpt lat="44.28722" lon="5.82163">
        <ele>557</ele>
        <time>2019-06-17T10:56:47Z</time>
      </trkpt>
      <trkpt lat="44.28727" lon="5.82165">
        <ele>558</ele>
        <time>2019-06-17T10:56:48Z</time>
      </trkpt>
      <trkpt lat="44.28731" lon="5.82167">
        <ele>558</ele>
        <time>2019-06-17T10:56:49Z</time>
      </trkpt>
      <trkpt lat="44.28735" lon="5.82169">
        <ele>558</ele>
        <time>2019-06-17T10:56:50Z</time>
      </trkpt>
      <trkpt lat="44.2874" lon="5.82172">
        <ele>559</ele>
        <time>2019-06-17T10:56:51Z</time>
      </trkpt>
      <trkpt lat="44.28745" lon="5.82174">
        <ele>559</ele>
        <time>2019-06-17T10:56:52Z</time>
      </trkpt>
      <trkpt lat="44.28749" lon="5.82177">
        <ele>559</ele>
        <time>2019-06-17T10:56:53Z</time>
      </trkpt>
      <trkpt lat="44.28754" lon="5.82179">
        <ele>560</ele>
        <time>2019-06-17T10:56:54Z</time>
      </trkpt>
      <trkpt lat="44.28758" lon="5.82181">
        <ele>560</ele>
        <time>2019-06-17T10:56:55Z</time>
      </trkpt>
      <trkpt lat="44.28762" lon="5.82183">
        <ele>560</ele>
        <time>2019-06-17T10:56:56Z</time>
      </trkpt>
      <trkpt lat="44.28766" lon="5.82186">
        <ele>561</ele>
        <time>2019-06-17T10:56:57Z</time>
      </trkpt>
      <trkpt lat="44.2877" lon="5.82188">
        <ele>561</ele>
        <time>2019-06-17T10:56:58Z</time>
      </trkpt>
      <trkpt lat="44.28774" lon="5.8219">
        <ele>561</ele>
        <time>2019-06-17T10:56:59Z</time>
      </trkpt>
      <trkpt lat="44.28778" lon="5.82192">
        <ele>561</ele>
        <time>2019-06-17T10:57:00Z</time>
      </trkpt>
      <trkpt lat="44.28782" lon="5.82195">
        <ele>562</ele>
        <time>2019-06-17T10:57:01Z</time>
      </trkpt>
      <trkpt lat="44.28786" lon="5.82198">
        <ele>562</ele>
        <time>2019-06-17T10:57:02Z</time>
      </trkpt>
      <trkpt lat="44.2879" lon="5.82201">
        <ele>562</ele>
        <time>2019-06-17T10:57:03Z</time>
      </trkpt>
      <trkpt lat="44.28794" lon="5.82204">
        <ele>563</ele>
        <time>2019-06-17T10:57:04Z</time>
      </trkpt>
      <trkpt lat="44.28798" lon="5.82206">
        <ele>563</ele>
        <time>2019-06-17T10:57:05Z</time>
      </trkpt>
      <trkpt lat="44.28802" lon="5.82209">
        <ele>564</ele>
        <time>2019-06-17T10:57:06Z</time>
      </trkpt>
      <trkpt lat="44.28806" lon="5.82212">
        <ele>564</ele>
        <time>2019-06-17T10:57:07Z</time>
      </trkpt>
      <trkpt lat="44.2881" lon="5.82215">
        <ele>565</ele>
        <time>2019-06-17T10:57:08Z</time>
      </trkpt>
      <trkpt lat="44.28813" lon="5.82217">
        <ele>565</ele>
        <time>2019-06-17T10:57:09Z</time>
      </trkpt>
      <trkpt lat="44.28817" lon="5.8222">
        <ele>565</ele>
        <time>2019-06-17T10:57:10Z</time>
      </trkpt>
      <trkpt lat="44.2882" lon="5.82223">
        <ele>565</ele>
        <time>2019-06-17T10:57:11Z</time>
      </trkpt>
      <trkpt lat="44.28824" lon="5.82227">
        <ele>566</ele>
        <time>2019-06-17T10:57:12Z</time>
      </trkpt>
      <trkpt lat="44.28828" lon="5.8223">
        <ele>566</ele>
        <time>2019-06-17T10:57:13Z</time>
      </trkpt>
      <trkpt lat="44.28833" lon="5.82234">
        <ele>566</ele>
        <time>2019-06-17T10:57:14Z</time>
      </trkpt>
      <trkpt lat="44.28837" lon="5.82238">
        <ele>566</ele>
        <time>2019-06-17T10:57:15Z</time>
      </trkpt>
      <trkpt lat="44.28842" lon="5.82243">
        <ele>566</ele>
        <time>2019-06-17T10:57:16Z</time>
      </trkpt>
      <trkpt lat="44.28846" lon="5.82247">
        <ele>567</ele>
        <time>2019-06-17T10:57:17Z</time>
      </trkpt>
      <trkpt lat="44.28851" lon="5.82252">
        <ele>567</ele>
        <time>2019-06-17T10:57:18Z</time>
      </trkpt>
      <trkpt lat="44.28855" lon="5.82256">
        <ele>567</ele>
        <time>2019-06-17T10:57:19Z</time>
      </trkpt>
      <trkpt lat="44.2886" lon="5.8226">
        <ele>567</ele>
        <time>2019-06-17T10:57:20Z</time>
      </trkpt>
      <trkpt lat="44.28865" lon="5.82265">
        <ele>568</ele>
        <time>2019-06-17T10:57:21Z</time>
      </trkpt>
      <trkpt lat="44.2887" lon="5.82269">
        <ele>568</ele>
        <time>2019-06-17T10:57:22Z</time>
      </trkpt>
      <trkpt lat="44.28874" lon="5.82272">
        <ele>568</ele>
        <time>2019-06-17T10:57:23Z</time>
      </trkpt>
      <trkpt lat="44.28879" lon="5.82276">
        <ele>568</ele>
        <time>2019-06-17T10:57:24Z</time>
      </trkpt>
      <trkpt lat="44.28884" lon="5.82279">
        <ele>568</ele>
        <time>2019-06-17T10:57:25Z</time>
      </trkpt>
      <trkpt lat="44.28889" lon="5.82282">
        <ele>568</ele>
        <time>2019-06-17T10:57:26Z</time>
      </trkpt>
      <trkpt lat="44.28895" lon="5.82285">
        <ele>568</ele>
        <time>2019-06-17T10:57:27Z</time>
      </trkpt>
      <trkpt lat="44.28901" lon="5.82289">
        <ele>568</ele>
        <time>2019-06-17T10:57:28Z</time>
      </trkpt>
      <trkpt lat="44.28907" lon="5.82291">
        <ele>568</ele>
        <time>2019-06-17T10:57:29Z</time>
      </trkpt>
      <trkpt lat="44.28913" lon="5.82293">
        <ele>568</ele>
        <time>2019-06-17T10:57:30Z</time>
      </trkpt>
      <trkpt lat="44.28919" lon="5.82295">
        <ele>568</ele>
        <time>2019-06-17T10:57:31Z</time>
      </trkpt>
      <trkpt lat="44.28926" lon="5.82296">
        <ele>568</ele>
        <time>2019-06-17T10:57:32Z</time>
      </trkpt>
      <trkpt lat="44.28933" lon="5.82297">
        <ele>568</ele>
        <time>2019-06-17T10:57:33Z</time>
      </trkpt>
      <trkpt lat="44.2894" lon="5.82297">
        <ele>568</ele>
        <time>2019-06-17T10:57:34Z</time>
      </trkpt>
      <trkpt lat="44.28947" lon="5.82297">
        <ele>568</ele>
        <time>2019-06-17T10:57:35Z</time>
      </trkpt>
      <trkpt lat="44.28955" lon="5.82297">
        <ele>568</ele>
        <time>2019-06-17T10:57:36Z</time>
      </trkpt>
      <trkpt lat="44.28962" lon="5.82297">
        <ele>568</ele>
        <time>2019-06-17T10:57:37Z</time>
      </trkpt>
      <trkpt lat="44.2897" lon="5.82296">
        <ele>568</ele>
        <time>2019-06-17T10:57:38Z</time>
      </trkpt>
      <trkpt lat="44.28978" lon="5.82296">
        <ele>568</ele>
        <time>2019-06-17T10:57:39Z</time>
      </trkpt>
      <trkpt lat="44.28986" lon="5.82295">
        <ele>568</ele>
        <time>2019-06-17T10:57:40Z</time>
      </trkpt>
      <trkpt lat="44.28995" lon="5.82294">
        <ele>568</ele>
        <time>2019-06-17T10:57:41Z</time>
      </trkpt>
      <trkpt lat="44.29003" lon="5.82293">
        <ele>568</ele>
        <time>2019-06-17T10:57:42Z</time>
      </trkpt>
      <trkpt lat="44.29012" lon="5.82293">
        <ele>568</ele>
        <time>2019-06-17T10:57:43Z</time>
      </trkpt>
      <trkpt lat="44.2902" lon="5.82292">
        <ele>568</ele>
        <time>2019-06-17T10:57:44Z</time>
      </trkpt>
      <trkpt lat="44.29028" lon="5.82292">
        <ele>568</ele>
        <time>2019-06-17T10:57:45Z</time>
      </trkpt>
      <trkpt lat="44.29037" lon="5.82291">
        <ele>567</ele>
        <time>2019-06-17T10:57:46Z</time>
      </trkpt>
      <trkpt lat="44.29046" lon="5.82291">
        <ele>567</ele>
        <time>2019-06-17T10:57:47Z</time>
      </trkpt>
      <trkpt lat="44.29055" lon="5.8229">
        <ele>567</ele>
        <time>2019-06-17T10:57:48Z</time>
      </trkpt>
      <trkpt lat="44.29063" lon="5.8229">
        <ele>566</ele>
        <time>2019-06-17T10:57:49Z</time>
      </trkpt>
      <trkpt lat="44.29073" lon="5.82289">
        <ele>566</ele>
        <time>2019-06-17T10:57:50Z</time>
      </trkpt>
      <trkpt lat="44.29082" lon="5.82288">
        <ele>566</ele>
        <time>2019-06-17T10:57:51Z</time>
      </trkpt>
      <trkpt lat="44.29091" lon="5.82287">
        <ele>565</ele>
        <time>2019-06-17T10:57:52Z</time>
      </trkpt>
      <trkpt lat="44.291" lon="5.82286">
        <ele>565</ele>
        <time>2019-06-17T10:57:53Z</time>
      </trkpt>
      <trkpt lat="44.29109" lon="5.82285">
        <ele>565</ele>
        <time>2019-06-17T10:57:54Z</time>
      </trkpt>
      <trkpt lat="44.29118" lon="5.82284">
        <ele>565</ele>
        <time>2019-06-17T10:57:55Z</time>
      </trkpt>
      <trkpt lat="44.29126" lon="5.82283">
        <ele>565</ele>
        <time>2019-06-17T10:57:56Z</time>
      </trkpt>
      <trkpt lat="44.29135" lon="5.82282">
        <ele>564</ele>
        <time>2019-06-17T10:57:57Z</time>
      </trkpt>
      <trkpt lat="44.29144" lon="5.82281">
        <ele>564</ele>
        <time>2019-06-17T10:57:58Z</time>
      </trkpt>
      <trkpt lat="44.29152" lon="5.8228">
        <ele>564</ele>
        <time>2019-06-17T10:57:59Z</time>
      </trkpt>
      <trkpt lat="44.29161" lon="5.82279">
        <ele>564</ele>
        <time>2019-06-17T10:58:00Z</time>
      </trkpt>
      <trkpt lat="44.29169" lon="5.82278">
        <ele>564</ele>
        <time>2019-06-17T10:58:01Z</time>
      </trkpt>
      <trkpt lat="44.29177" lon="5.82277">
        <ele>564</ele>
        <time>2019-06-17T10:58:02Z</time>
      </trkpt>
      <trkpt lat="44.29186" lon="5.82277">
        <ele>564</ele>
        <time>2019-06-17T10:58:03Z</time>
      </trkpt>
      <trkpt lat="44.29194" lon="5.82276">
        <ele>563</ele>
        <time>2019-06-17T10:58:04Z</time>
      </trkpt>
      <trkpt lat="44.29202" lon="5.82275">
        <ele>563</ele>
        <time>2019-06-17T10:58:05Z</time>
      </trkpt>
      <trkpt lat="44.2921" lon="5.82274">
        <ele>563</ele>
        <time>2019-06-17T10:58:06Z</time>
      </trkpt>
      <trkpt lat="44.29218" lon="5.82273">
        <ele>563</ele>
        <time>2019-06-17T10:58:07Z</time>
      </trkpt>
      <trkpt lat="44.29226" lon="5.82272">
        <ele>563</ele>
        <time>2019-06-17T10:58:08Z</time>
      </trkpt>
      <trkpt lat="44.29234" lon="5.8227">
        <ele>563</ele>
        <time>2019-06-17T10:58:09Z</time>
      </trkpt>
      <trkpt lat="44.29242" lon="5.82269">
        <ele>563</ele>
        <time>2019-06-17T10:58:10Z</time>
      </trkpt>
      <trkpt lat="44.2925" lon="5.82268">
        <ele>563</ele>
        <time>2019-06-17T10:58:11Z</time>
      </trkpt>
      <trkpt lat="44.29258" lon="5.82266">
        <ele>562</ele>
        <time>2019-06-17T10:58:12Z</time>
      </trkpt>
      <trkpt lat="44.29266" lon="5.82263">
        <ele>562</ele>
        <time>2019-06-17T10:58:13Z</time>
      </trkpt>
      <trkpt lat="44.29273" lon="5.8226">
        <ele>562</ele>
        <time>2019-06-17T10:58:14Z</time>
      </trkpt>
      <trkpt lat="44.2928" lon="5.82257">
        <ele>562</ele>
        <time>2019-06-17T10:58:15Z</time>
      </trkpt>
      <trkpt lat="44.29287" lon="5.82253">
        <ele>562</ele>
        <time>2019-06-17T10:58:16Z</time>
      </trkpt>
      <trkpt lat="44.29293" lon="5.8225">
        <ele>562</ele>
        <time>2019-06-17T10:58:17Z</time>
      </trkpt>
      <trkpt lat="44.293" lon="5.82246">
        <ele>562</ele>
        <time>2019-06-17T10:58:18Z</time>
      </trkpt>
      <trkpt lat="44.29306" lon="5.82243">
        <ele>562</ele>
        <time>2019-06-17T10:58:19Z</time>
      </trkpt>
      <trkpt lat="44.29313" lon="5.82241">
        <ele>562</ele>
        <time>2019-06-17T10:58:20Z</time>
      </trkpt>
      <trkpt lat="44.29319" lon="5.82239">
        <ele>562</ele>
        <time>2019-06-17T10:58:21Z</time>
      </trkpt>
      <trkpt lat="44.29325" lon="5.82237">
        <ele>562</ele>
        <time>2019-06-17T10:58:22Z</time>
      </trkpt>
      <trkpt lat="44.29331" lon="5.82234">
        <ele>562</ele>
        <time>2019-06-17T10:58:23Z</time>
      </trkpt>
      <trkpt lat="44.29336" lon="5.82232">
        <ele>562</ele>
        <time>2019-06-17T10:58:24Z</time>
      </trkpt>
      <trkpt lat="44.29342" lon="5.82229">
        <ele>562</ele>
        <time>2019-06-17T10:58:25Z</time>
      </trkpt>
      <trkpt lat="44.29348" lon="5.82226">
        <ele>562</ele>
        <time>2019-06-17T10:58:26Z</time>
      </trkpt>
      <trkpt lat="44.29353" lon="5.82224">
        <ele>562</ele>
        <time>2019-06-17T10:58:27Z</time>
      </trkpt>
      <trkpt lat="44.29359" lon="5.82221">
        <ele>562</ele>
        <time>2019-06-17T10:58:28Z</time>
      </trkpt>
      <trkpt lat="44.29364" lon="5.82217">
        <ele>562</ele>
        <time>2019-06-17T10:58:29Z</time>
      </trkpt>
      <trkpt lat="44.2937" lon="5.82212">
        <ele>562</ele>
        <time>2019-06-17T10:58:30Z</time>
      </trkpt>
      <trkpt lat="44.29375" lon="5.82207">
        <ele>562</ele>
        <time>2019-06-17T10:58:31Z</time>
      </trkpt>
      <trkpt lat="44.2938" lon="5.82202">
        <ele>562</ele>
        <time>2019-06-17T10:58:32Z</time>
      </trkpt>
      <trkpt lat="44.29386" lon="5.82197">
        <ele>562</ele>
        <time>2019-06-17T10:58:33Z</time>
      </trkpt>
      <trkpt lat="44.29391" lon="5.82191">
        <ele>562</ele>
        <time>2019-06-17T10:58:34Z</time>
      </trkpt>
      <trkpt lat="44.29396" lon="5.82185">
        <ele>562</ele>
        <time>2019-06-17T10:58:35Z</time>
      </trkpt>
      <trkpt lat="44.29402" lon="5.82179">
        <ele>562</ele>
        <time>2019-06-17T10:58:36Z</time>
      </trkpt>
      <trkpt lat="44.29407" lon="5.82172">
        <ele>562</ele>
        <time>2019-06-17T10:58:37Z</time>
      </trkpt>
      <trkpt lat="44.29413" lon="5.82166">
        <ele>562</ele>
        <time>2019-06-17T10:58:38Z</time>
      </trkpt>
      <trkpt lat="44.29418" lon="5.8216">
        <ele>562</ele>
        <time>2019-06-17T10:58:39Z</time>
      </trkpt>
      <trkpt lat="44.29424" lon="5.82153">
        <ele>562</ele>
        <time>2019-06-17T10:58:40Z</time>
      </trkpt>
      <trkpt lat="44.2943" lon="5.82147">
        <ele>562</ele>
        <time>2019-06-17T10:58:41Z</time>
      </trkpt>
      <trkpt lat="44.29436" lon="5.82141">
        <ele>562</ele>
        <time>2019-06-17T10:58:42Z</time>
      </trkpt>
      <trkpt lat="44.29441" lon="5.82135">
        <ele>562</ele>
        <time>2019-06-17T10:58:43Z</time>
      </trkpt>
      <trkpt lat="44.29447" lon="5.82129">
        <ele>561</ele>
        <time>2019-06-17T10:58:44Z</time>
      </trkpt>
      <trkpt lat="44.29454" lon="5.82124">
        <ele>561</ele>
        <time>2019-06-17T10:58:45Z</time>
      </trkpt>
      <trkpt lat="44.2946" lon="5.82119">
        <ele>561</ele>
        <time>2019-06-17T10:58:46Z</time>
      </trkpt>
      <trkpt lat="44.29467" lon="5.82115">
        <ele>561</ele>
        <time>2019-06-17T10:58:47Z</time>
      </trkpt>
      <trkpt lat="44.29474" lon="5.82112">
        <ele>561</ele>
        <time>2019-06-17T10:58:48Z</time>
      </trkpt>
      <trkpt lat="44.29481" lon="5.8211">
        <ele>561</ele>
        <time>2019-06-17T10:58:49Z</time>
      </trkpt>
      <trkpt lat="44.29489" lon="5.82108">
        <ele>561</ele>
        <time>2019-06-17T10:58:50Z</time>
      </trkpt>
      <trkpt lat="44.29496" lon="5.82108">
        <ele>561</ele>
        <time>2019-06-17T10:58:51Z</time>
      </trkpt>
      <trkpt lat="44.29503" lon="5.82108">
        <ele>561</ele>
        <time>2019-06-17T10:58:52Z</time>
      </trkpt>
      <trkpt lat="44.2951" lon="5.82108">
        <ele>561</ele>
        <time>2019-06-17T10:58:53Z</time>
      </trkpt>
      <trkpt lat="44.29517" lon="5.82109">
        <ele>561</ele>
        <time>2019-06-17T10:58:54Z</time>
      </trkpt>
      <trkpt lat="44.29525" lon="5.82109">
        <ele>561</ele>
        <time>2019-06-17T10:58:55Z</time>
      </trkpt>
      <trkpt lat="44.29532" lon="5.8211">
        <ele>561</ele>
        <time>2019-06-17T10:58:56Z</time>
      </trkpt>
      <trkpt lat="44.29539" lon="5.82111">
        <ele>560</ele>
        <time>2019-06-17T10:58:57Z</time>
      </trkpt>
      <trkpt lat="44.29547" lon="5.82113">
        <ele>560</ele>
        <time>2019-06-17T10:58:58Z</time>
      </trkpt>
      <trkpt lat="44.29554" lon="5.82115">
        <ele>560</ele>
        <time>2019-06-17T10:58:59Z</time>
      </trkpt>
      <trkpt lat="44.29562" lon="5.82116">
        <ele>560</ele>
        <time>2019-06-17T10:59:00Z</time>
      </trkpt>
      <trkpt lat="44.2957" lon="5.82119">
        <ele>560</ele>
        <time>2019-06-17T10:59:01Z</time>
      </trkpt>
      <trkpt lat="44.29577" lon="5.82121">
        <ele>560</ele>
        <time>2019-06-17T10:59:02Z</time>
      </trkpt>
      <trkpt lat="44.29585" lon="5.82125">
        <ele>560</ele>
        <time>2019-06-17T10:59:03Z</time>
      </trkpt>
      <trkpt lat="44.29592" lon="5.82128">
        <ele>560</ele>
        <time>2019-06-17T10:59:04Z</time>
      </trkpt>
      <trkpt lat="44.296" lon="5.82132">
        <ele>560</ele>
        <time>2019-06-17T10:59:05Z</time>
      </trkpt>
      <trkpt lat="44.29607" lon="5.82137">
        <ele>560</ele>
        <time>2019-06-17T10:59:06Z</time>
      </trkpt>
      <trkpt lat="44.29615" lon="5.82141">
        <ele>560</ele>
        <time>2019-06-17T10:59:07Z</time>
      </trkpt>
      <trkpt lat="44.29622" lon="5.82146">
        <ele>560</ele>
        <time>2019-06-17T10:59:08Z</time>
      </trkpt>
      <trkpt lat="44.29629" lon="5.82152">
        <ele>560</ele>
        <time>2019-06-17T10:59:09Z</time>
      </trkpt>
      <trkpt lat="44.29636" lon="5.82158">
        <ele>560</ele>
        <time>2019-06-17T10:59:10Z</time>
      </trkpt>
      <trkpt lat="44.29643" lon="5.82164">
        <ele>560</ele>
        <time>2019-06-17T10:59:11Z</time>
      </trkpt>
      <trkpt lat="44.2965" lon="5.82171">
        <ele>560</ele>
        <time>2019-06-17T10:59:12Z</time>
      </trkpt>
      <trkpt lat="44.29656" lon="5.82178">
        <ele>560</ele>
        <time>2019-06-17T10:59:13Z</time>
      </trkpt>
      <trkpt lat="44.29663" lon="5.82184">
        <ele>560</ele>
        <time>2019-06-17T10:59:14Z</time>
      </trkpt>
      <trkpt lat="44.2967" lon="5.82192">
        <ele>560</ele>
        <time>2019-06-17T10:59:15Z</time>
      </trkpt>
      <trkpt lat="44.29676" lon="5.82198">
        <ele>560</ele>
        <time>2019-06-17T10:59:16Z</time>
      </trkpt>
      <trkpt lat="44.29682" lon="5.82205">
        <ele>560</ele>
        <time>2019-06-17T10:59:17Z</time>
      </trkpt>
      <trkpt lat="44.29689" lon="5.82211">
        <ele>560</ele>
        <time>2019-06-17T10:59:18Z</time>
      </trkpt>
      <trkpt lat="44.29695" lon="5.82217">
        <ele>560</ele>
        <time>2019-06-17T10:59:19Z</time>
      </trkpt>
      <trkpt lat="44.29702" lon="5.82223">
        <ele>560</ele>
        <time>2019-06-17T10:59:20Z</time>
      </trkpt>
      <trkpt lat="44.29708" lon="5.82228">
        <ele>560</ele>
        <time>2019-06-17T10:59:21Z</time>
      </trkpt>
      <trkpt lat="44.29715" lon="5.82232">
        <ele>560</ele>
        <time>2019-06-17T10:59:22Z</time>
      </trkpt>
      <trkpt lat="44.29721" lon="5.82237">
        <ele>560</ele>
        <time>2019-06-17T10:59:23Z</time>
      </trkpt>
      <trkpt lat="44.29728" lon="5.82241">
        <ele>560</ele>
        <time>2019-06-17T10:59:24Z</time>
      </trkpt>
      <trkpt lat="44.29735" lon="5.82245">
        <ele>560</ele>
        <time>2019-06-17T10:59:25Z</time>
      </trkpt>
      <trkpt lat="44.29742" lon="5.82249">
        <ele>560</ele>
        <time>2019-06-17T10:59:26Z</time>
      </trkpt>
      <trkpt lat="44.29749" lon="5.82252">
        <ele>560</ele>
        <time>2019-06-17T10:59:27Z</time>
      </trkpt>
      <trkpt lat="44.29757" lon="5.82254">
        <ele>560</ele>
        <time>2019-06-17T10:59:28Z</time>
      </trkpt>
      <trkpt lat="44.29764" lon="5.82256">
        <ele>560</ele>
        <time>2019-06-17T10:59:29Z</time>
      </trkpt>
      <trkpt lat="44.29771" lon="5.82258">
        <ele>560</ele>
        <time>2019-06-17T10:59:30Z</time>
      </trkpt>
      <trkpt lat="44.29778" lon="5.82259">
        <ele>560</ele>
        <time>2019-06-17T10:59:31Z</time>
      </trkpt>
      <trkpt lat="44.29785" lon="5.82261">
        <ele>560</ele>
        <time>2019-06-17T10:59:32Z</time>
      </trkpt>
      <trkpt lat="44.29793" lon="5.82262">
        <ele>560</ele>
        <time>2019-06-17T10:59:33Z</time>
      </trkpt>
      <trkpt lat="44.298" lon="5.82263">
        <ele>560</ele>
        <time>2019-06-17T10:59:34Z</time>
      </trkpt>
      <trkpt lat="44.29807" lon="5.82264">
        <ele>560</ele>
        <time>2019-06-17T10:59:35Z</time>
      </trkpt>
      <trkpt lat="44.29815" lon="5.82266">
        <ele>560</ele>
        <time>2019-06-17T10:59:36Z</time>
      </trkpt>
      <trkpt lat="44.29823" lon="5.82267">
        <ele>560</ele>
        <time>2019-06-17T10:59:37Z</time>
      </trkpt>
      <trkpt lat="44.2983" lon="5.82268">
        <ele>560</ele>
        <time>2019-06-17T10:59:38Z</time>
      </trkpt>
      <trkpt lat="44.29838" lon="5.8227">
        <ele>560</ele>
        <time>2019-06-17T10:59:39Z</time>
      </trkpt>
      <trkpt lat="44.29845" lon="5.82272">
        <ele>560</ele>
        <time>2019-06-17T10:59:40Z</time>
      </trkpt>
      <trkpt lat="44.29853" lon="5.82275">
        <ele>560</ele>
        <time>2019-06-17T10:59:41Z</time>
      </trkpt>
      <trkpt lat="44.2986" lon="5.82278">
        <ele>560</ele>
        <time>2019-06-17T10:59:42Z</time>
      </trkpt>
      <trkpt lat="44.29868" lon="5.82281">
        <ele>560</ele>
        <time>2019-06-17T10:59:43Z</time>
      </trkpt>
      <trkpt lat="44.29875" lon="5.82284">
        <ele>560</ele>
        <time>2019-06-17T10:59:44Z</time>
      </trkpt>
      <trkpt lat="44.29882" lon="5.82289">
        <ele>560</ele>
        <time>2019-06-17T10:59:45Z</time>
      </trkpt>
      <trkpt lat="44.29889" lon="5.82293">
        <ele>560</ele>
        <time>2019-06-17T10:59:46Z</time>
      </trkpt>
      <trkpt lat="44.29896" lon="5.82297">
        <ele>560</ele>
        <time>2019-06-17T10:59:47Z</time>
      </trkpt>
      <trkpt lat="44.29903" lon="5.82301">
        <ele>560</ele>
        <time>2019-06-17T10:59:48Z</time>
      </trkpt>
      <trkpt lat="44.2991" lon="5.82304">
        <ele>560</ele>
        <time>2019-06-17T10:59:49Z</time>
      </trkpt>
      <trkpt lat="44.29917" lon="5.82308">
        <ele>560</ele>
        <time>2019-06-17T10:59:50Z</time>
      </trkpt>
      <trkpt lat="44.29924" lon="5.82312">
        <ele>560</ele>
        <time>2019-06-17T10:59:51Z</time>
      </trkpt>
      <trkpt lat="44.29931" lon="5.82315">
        <ele>560</ele>
        <time>2019-06-17T10:59:52Z</time>
      </trkpt>
      <trkpt lat="44.29938" lon="5.82319">
        <ele>560</ele>
        <time>2019-06-17T10:59:53Z</time>
      </trkpt>
      <trkpt lat="44.29944" lon="5.82322">
        <ele>560</ele>
        <time>2019-06-17T10:59:54Z</time>
      </trkpt>
      <trkpt lat="44.29951" lon="5.82325">
        <ele>560</ele>
        <time>2019-06-17T10:59:55Z</time>
      </trkpt>
      <trkpt lat="44.29958" lon="5.82327">
        <ele>560</ele>
        <time>2019-06-17T10:59:56Z</time>
      </trkpt>
      <trkpt lat="44.29964" lon="5.8233">
        <ele>560</ele>
        <time>2019-06-17T10:59:57Z</time>
      </trkpt>
      <trkpt lat="44.29971" lon="5.82332">
        <ele>560</ele>
        <time>2019-06-17T10:59:58Z</time>
      </trkpt>
      <trkpt lat="44.29977" lon="5.82335">
        <ele>560</ele>
        <time>2019-06-17T10:59:59Z</time>
      </trkpt>
      <trkpt lat="44.29984" lon="5.82337">
        <ele>560</ele>
        <time>2019-06-17T11:00:00Z</time>
      </trkpt>
      <trkpt lat="44.2999" lon="5.82339">
        <ele>560</ele>
        <time>2019-06-17T11:00:01Z</time>
      </trkpt>
      <trkpt lat="44.29997" lon="5.82341">
        <ele>560</ele>
        <time>2019-06-17T11:00:02Z</time>
      </trkpt>
      <trkpt lat="44.30003" lon="5.82343">
        <ele>560</ele>
        <time>2019-06-17T11:00:03Z</time>
      </trkpt>
      <trkpt lat="44.3001" lon="5.82345">
        <ele>560</ele>
        <time>2019-06-17T11:00:04Z</time>
      </trkpt>
      <trkpt lat="44.30017" lon="5.82346">
        <ele>560</ele>
        <time>2019-06-17T11:00:05Z</time>
      </trkpt>
      <trkpt lat="44.30023" lon="5.82348">
        <ele>560</ele>
        <time>2019-06-17T11:00:06Z</time>
      </trkpt>
      <trkpt lat="44.3003" lon="5.82349">
        <ele>560</ele>
        <time>2019-06-17T11:00:07Z</time>
      </trkpt>
      <trkpt lat="44.30037" lon="5.8235">
        <ele>560</ele>
        <time>2019-06-17T11:00:08Z</time>
      </trkpt>
      <trkpt lat="44.30043" lon="5.82351">
        <ele>560</ele>
        <time>2019-06-17T11:00:09Z</time>
      </trkpt>
      <trkpt lat="44.3005" lon="5.82353">
        <ele>560</ele>
        <time>2019-06-17T11:00:10Z</time>
      </trkpt>
      <trkpt lat="44.30057" lon="5.82354">
        <ele>560</ele>
        <time>2019-06-17T11:00:11Z</time>
      </trkpt>
      <trkpt lat="44.30064" lon="5.82355">
        <ele>560</ele>
        <time>2019-06-17T11:00:12Z</time>
      </trkpt>
      <trkpt lat="44.30071" lon="5.82356">
        <ele>560</ele>
        <time>2019-06-17T11:00:13Z</time>
      </trkpt>
      <trkpt lat="44.30078" lon="5.82356">
        <ele>560</ele>
        <time>2019-06-17T11:00:14Z</time>
      </trkpt>
      <trkpt lat="44.30085" lon="5.82357">
        <ele>560</ele>
        <time>2019-06-17T11:00:15Z</time>
      </trkpt>
      <trkpt lat="44.30093" lon="5.82357">
        <ele>560</ele>
        <time>2019-06-17T11:00:16Z</time>
      </trkpt>
      <trkpt lat="44.30099" lon="5.82357">
        <ele>560</ele>
        <time>2019-06-17T11:00:17Z</time>
      </trkpt>
      <trkpt lat="44.30107" lon="5.82357">
        <ele>560</ele>
        <time>2019-06-17T11:00:18Z</time>
      </trkpt>
      <trkpt lat="44.30114" lon="5.82357">
        <ele>560</ele>
        <time>2019-06-17T11:00:19Z</time>
      </trkpt>
      <trkpt lat="44.30121" lon="5.82357">
        <ele>560</ele>
        <time>2019-06-17T11:00:20Z</time>
      </trkpt>
      <trkpt lat="44.30128" lon="5.82358">
        <ele>560</ele>
        <time>2019-06-17T11:00:21Z</time>
      </trkpt>
      <trkpt lat="44.30136" lon="5.82358">
        <ele>560</ele>
        <time>2019-06-17T11:00:22Z</time>
      </trkpt>
      <trkpt lat="44.30143" lon="5.82359">
        <ele>560</ele>
        <time>2019-06-17T11:00:23Z</time>
      </trkpt>
      <trkpt lat="44.30151" lon="5.82359">
        <ele>560</ele>
        <time>2019-06-17T11:00:24Z</time>
      </trkpt>
      <trkpt lat="44.30158" lon="5.8236">
        <ele>560</ele>
        <time>2019-06-17T11:00:25Z</time>
      </trkpt>
      <trkpt lat="44.30166" lon="5.8236">
        <ele>560</ele>
        <time>2019-06-17T11:00:26Z</time>
      </trkpt>
      <trkpt lat="44.30173" lon="5.82361">
        <ele>560</ele>
        <time>2019-06-17T11:00:27Z</time>
      </trkpt>
      <trkpt lat="44.30181" lon="5.82361">
        <ele>560</ele>
        <time>2019-06-17T11:00:28Z</time>
      </trkpt>
      <trkpt lat="44.30188" lon="5.82362">
        <ele>560</ele>
        <time>2019-06-17T11:00:29Z</time>
      </trkpt>
      <trkpt lat="44.30196" lon="5.82362">
        <ele>560</ele>
        <time>2019-06-17T11:00:30Z</time>
      </trkpt>
      <trkpt lat="44.30204" lon="5.82363">
        <ele>560</ele>
        <time>2019-06-17T11:00:31Z</time>
      </trkpt>
      <trkpt lat="44.30211" lon="5.82363">
        <ele>560</ele>
        <time>2019-06-17T11:00:32Z</time>
      </trkpt>
      <trkpt lat="44.30219" lon="5.82363">
        <ele>560</ele>
        <time>2019-06-17T11:00:33Z</time>
      </trkpt>
      <trkpt lat="44.30226" lon="5.82363">
        <ele>560</ele>
        <time>2019-06-17T11:00:34Z</time>
      </trkpt>
      <trkpt lat="44.30233" lon="5.82363">
        <ele>560</ele>
        <time>2019-06-17T11:00:35Z</time>
      </trkpt>
      <trkpt lat="44.30241" lon="5.82362">
        <ele>560</ele>
        <time>2019-06-17T11:00:36Z</time>
      </trkpt>
      <trkpt lat="44.30249" lon="5.82361">
        <ele>560</ele>
        <time>2019-06-17T11:00:37Z</time>
      </trkpt>
      <trkpt lat="44.30256" lon="5.8236">
        <ele>560</ele>
        <time>2019-06-17T11:00:38Z</time>
      </trkpt>
      <trkpt lat="44.30264" lon="5.82359">
        <ele>560</ele>
        <time>2019-06-17T11:00:39Z</time>
      </trkpt>
      <trkpt lat="44.30272" lon="5.82357">
        <ele>560</ele>
        <time>2019-06-17T11:00:40Z</time>
      </trkpt>
      <trkpt lat="44.30279" lon="5.82356">
        <ele>560</ele>
        <time>2019-06-17T11:00:41Z</time>
      </trkpt>
      <trkpt lat="44.30287" lon="5.82354">
        <ele>560</ele>
        <time>2019-06-17T11:00:42Z</time>
      </trkpt>
      <trkpt lat="44.30295" lon="5.82353">
        <ele>560</ele>
        <time>2019-06-17T11:00:43Z</time>
      </trkpt>
      <trkpt lat="44.30302" lon="5.82351">
        <ele>560</ele>
        <time>2019-06-17T11:00:44Z</time>
      </trkpt>
      <trkpt lat="44.3031" lon="5.8235">
        <ele>560</ele>
        <time>2019-06-17T11:00:45Z</time>
      </trkpt>
      <trkpt lat="44.30318" lon="5.82348">
        <ele>560</ele>
        <time>2019-06-17T11:00:46Z</time>
      </trkpt>
      <trkpt lat="44.30326" lon="5.82347">
        <ele>560</ele>
        <time>2019-06-17T11:00:47Z</time>
      </trkpt>
      <trkpt lat="44.30334" lon="5.82345">
        <ele>560</ele>
        <time>2019-06-17T11:00:48Z</time>
      </trkpt>
      <trkpt lat="44.30341" lon="5.82344">
        <ele>560</ele>
        <time>2019-06-17T11:00:49Z</time>
      </trkpt>
      <trkpt lat="44.30349" lon="5.82342">
        <ele>560</ele>
        <time>2019-06-17T11:00:50Z</time>
      </trkpt>
      <trkpt lat="44.30357" lon="5.8234">
        <ele>560</ele>
        <time>2019-06-17T11:00:51Z</time>
      </trkpt>
      <trkpt lat="44.30365" lon="5.82339">
        <ele>560</ele>
        <time>2019-06-17T11:00:52Z</time>
      </trkpt>
      <trkpt lat="44.30373" lon="5.82337">
        <ele>560</ele>
        <time>2019-06-17T11:00:53Z</time>
      </trkpt>
      <trkpt lat="44.30381" lon="5.82336">
        <ele>560</ele>
        <time>2019-06-17T11:00:54Z</time>
      </trkpt>
      <trkpt lat="44.30389" lon="5.82335">
        <ele>560</ele>
        <time>2019-06-17T11:00:55Z</time>
      </trkpt>
      <trkpt lat="44.30397" lon="5.82334">
        <ele>560</ele>
        <time>2019-06-17T11:00:56Z</time>
      </trkpt>
      <trkpt lat="44.30405" lon="5.82333">
        <ele>560</ele>
        <time>2019-06-17T11:00:57Z</time>
      </trkpt>
      <trkpt lat="44.30413" lon="5.82332">
        <ele>560</ele>
        <time>2019-06-17T11:00:58Z</time>
      </trkpt>
      <trkpt lat="44.30421" lon="5.82331">
        <ele>560</ele>
        <time>2019-06-17T11:00:59Z</time>
      </trkpt>
      <trkpt lat="44.30429" lon="5.82331">
        <ele>560</ele>
        <time>2019-06-17T11:01:00Z</time>
      </trkpt>
      <trkpt lat="44.30437" lon="5.82331">
        <ele>560</ele>
        <time>2019-06-17T11:01:01Z</time>
      </trkpt>
      <trkpt lat="44.30445" lon="5.82331">
        <ele>560</ele>
        <time>2019-06-17T11:01:02Z</time>
      </trkpt>
      <trkpt lat="44.30453" lon="5.82331">
        <ele>560</ele>
        <time>2019-06-17T11:01:03Z</time>
      </trkpt>
      <trkpt lat="44.30462" lon="5.8233">
        <ele>560</ele>
        <time>2019-06-17T11:01:04Z</time>
      </trkpt>
      <trkpt lat="44.3047" lon="5.8233">
        <ele>560</ele>
        <time>2019-06-17T11:01:05Z</time>
      </trkpt>
      <trkpt lat="44.30477" lon="5.8233">
        <ele>560</ele>
        <time>2019-06-17T11:01:06Z</time>
      </trkpt>
      <trkpt lat="44.30485" lon="5.8233">
        <ele>560</ele>
        <time>2019-06-17T11:01:07Z</time>
      </trkpt>
      <trkpt lat="44.30493" lon="5.8233">
        <ele>560</ele>
        <time>2019-06-17T11:01:08Z</time>
      </trkpt>
      <trkpt lat="44.305" lon="5.82329">
        <ele>560</ele>
        <time>2019-06-17T11:01:09Z</time>
      </trkpt>
      <trkpt lat="44.30508" lon="5.82328">
        <ele>560</ele>
        <time>2019-06-17T11:01:10Z</time>
      </trkpt>
      <trkpt lat="44.30516" lon="5.82328">
        <ele>560</ele>
        <time>2019-06-17T11:01:11Z</time>
      </trkpt>
      <trkpt lat="44.30523" lon="5.82327">
        <ele>560</ele>
        <time>2019-06-17T11:01:12Z</time>
      </trkpt>
      <trkpt lat="44.30531" lon="5.82326">
        <ele>560</ele>
        <time>2019-06-17T11:01:13Z</time>
      </trkpt>
      <trkpt lat="44.30538" lon="5.82325">
        <ele>560</ele>
        <time>2019-06-17T11:01:14Z</time>
      </trkpt>
      <trkpt lat="44.30545" lon="5.82324">
        <ele>560</ele>
        <time>2019-06-17T11:01:15Z</time>
      </trkpt>
      <trkpt lat="44.30553" lon="5.82323">
        <ele>560</ele>
        <time>2019-06-17T11:01:16Z</time>
      </trkpt>
      <trkpt lat="44.3056" lon="5.82322">
        <ele>560</ele>
        <time>2019-06-17T11:01:17Z</time>
      </trkpt>
      <trkpt lat="44.30567" lon="5.8232">
        <ele>560</ele>
        <time>2019-06-17T11:01:18Z</time>
      </trkpt>
      <trkpt lat="44.30574" lon="5.82319">
        <ele>560</ele>
        <time>2019-06-17T11:01:19Z</time>
      </trkpt>
      <trkpt lat="44.30581" lon="5.82318">
        <ele>560</ele>
        <time>2019-06-17T11:01:20Z</time>
      </trkpt>
      <trkpt lat="44.30589" lon="5.82317">
        <ele>560</ele>
        <time>2019-06-17T11:01:21Z</time>
      </trkpt>
      <trkpt lat="44.30595" lon="5.82317">
        <ele>560</ele>
        <time>2019-06-17T11:01:22Z</time>
      </trkpt>
      <trkpt lat="44.30603" lon="5.82316">
        <ele>560</ele>
        <time>2019-06-17T11:01:23Z</time>
      </trkpt>
      <trkpt lat="44.3061" lon="5.82314">
        <ele>560</ele>
        <time>2019-06-17T11:01:24Z</time>
      </trkpt>
      <trkpt lat="44.30616" lon="5.82312">
        <ele>560</ele>
        <time>2019-06-17T11:01:25Z</time>
      </trkpt>
      <trkpt lat="44.30623" lon="5.8231">
        <ele>560</ele>
        <time>2019-06-17T11:01:26Z</time>
      </trkpt>
      <trkpt lat="44.30629" lon="5.82307">
        <ele>560</ele>
        <time>2019-06-17T11:01:27Z</time>
      </trkpt>
      <trkpt lat="44.30636" lon="5.82304">
        <ele>560</ele>
        <time>2019-06-17T11:01:28Z</time>
      </trkpt>
      <trkpt lat="44.30642" lon="5.82301">
        <ele>560</ele>
        <time>2019-06-17T11:01:29Z</time>
      </trkpt>
      <trkpt lat="44.30648" lon="5.82297">
        <ele>560</ele>
        <time>2019-06-17T11:01:30Z</time>
      </trkpt>
      <trkpt lat="44.30654" lon="5.82293">
        <ele>560</ele>
        <time>2019-06-17T11:01:31Z</time>
      </trkpt>
      <trkpt lat="44.30659" lon="5.82289">
        <ele>560</ele>
        <time>2019-06-17T11:01:32Z</time>
      </trkpt>
      <trkpt lat="44.30665" lon="5.82284">
        <ele>560</ele>
        <time>2019-06-17T11:01:33Z</time>
      </trkpt>
      <trkpt lat="44.3067" lon="5.82279">
        <ele>560</ele>
        <time>2019-06-17T11:01:34Z</time>
      </trkpt>
      <trkpt lat="44.30675" lon="5.82273">
        <ele>560</ele>
        <time>2019-06-17T11:01:35Z</time>
      </trkpt>
      <trkpt lat="44.3068" lon="5.82268">
        <ele>560</ele>
        <time>2019-06-17T11:01:36Z</time>
      </trkpt>
      <trkpt lat="44.30685" lon="5.82262">
        <ele>560</ele>
        <time>2019-06-17T11:01:37Z</time>
      </trkpt>
      <trkpt lat="44.3069" lon="5.82255">
        <ele>560</ele>
        <time>2019-06-17T11:01:38Z</time>
      </trkpt>
      <trkpt lat="44.30695" lon="5.82248">
        <ele>560</ele>
        <time>2019-06-17T11:01:39Z</time>
      </trkpt>
      <trkpt lat="44.30699" lon="5.82241">
        <ele>560</ele>
        <time>2019-06-17T11:01:40Z</time>
      </trkpt>
      <trkpt lat="44.30704" lon="5.82234">
        <ele>560</ele>
        <time>2019-06-17T11:01:41Z</time>
      </trkpt>
      <trkpt lat="44.30708" lon="5.82227">
        <ele>560</ele>
        <time>2019-06-17T11:01:42Z</time>
      </trkpt>
      <trkpt lat="44.30712" lon="5.82219">
        <ele>560</ele>
        <time>2019-06-17T11:01:43Z</time>
      </trkpt>
      <trkpt lat="44.30716" lon="5.8221">
        <ele>560</ele>
        <time>2019-06-17T11:01:44Z</time>
      </trkpt>
      <trkpt lat="44.3072" lon="5.82202">
        <ele>560</ele>
        <time>2019-06-17T11:01:45Z</time>
      </trkpt>
      <trkpt lat="44.30723" lon="5.82193">
        <ele>560</ele>
        <time>2019-06-17T11:01:46Z</time>
      </trkpt>
      <trkpt lat="44.30727" lon="5.82184">
        <ele>560</ele>
        <time>2019-06-17T11:01:47Z</time>
      </trkpt>
      <trkpt lat="44.3073" lon="5.82174">
        <ele>560</ele>
        <time>2019-06-17T11:01:48Z</time>
      </trkpt>
      <trkpt lat="44.30733" lon="5.82165">
        <ele>560</ele>
        <time>2019-06-17T11:01:49Z</time>
      </trkpt>
      <trkpt lat="44.30736" lon="5.82155">
        <ele>559</ele>
        <time>2019-06-17T11:01:50Z</time>
      </trkpt>
      <trkpt lat="44.3074" lon="5.82146">
        <ele>559</ele>
        <time>2019-06-17T11:01:51Z</time>
      </trkpt>
      <trkpt lat="44.30743" lon="5.82136">
        <ele>559</ele>
        <time>2019-06-17T11:01:52Z</time>
      </trkpt>
      <trkpt lat="44.30746" lon="5.82126">
        <ele>558</ele>
        <time>2019-06-17T11:01:53Z</time>
      </trkpt>
      <trkpt lat="44.30751" lon="5.82117">
        <ele>558</ele>
        <time>2019-06-17T11:01:54Z</time>
      </trkpt>
      <trkpt lat="44.30756" lon="5.82108">
        <ele>558</ele>
        <time>2019-06-17T11:01:55Z</time>
      </trkpt>
      <trkpt lat="44.30761" lon="5.821">
        <ele>557</ele>
        <time>2019-06-17T11:01:56Z</time>
      </trkpt>
      <trkpt lat="44.30768" lon="5.82094">
        <ele>557</ele>
        <time>2019-06-17T11:01:57Z</time>
      </trkpt>
      <trkpt lat="44.30774" lon="5.82089">
        <ele>557</ele>
        <time>2019-06-17T11:01:58Z</time>
      </trkpt>
      <trkpt lat="44.30781" lon="5.82085">
        <ele>557</ele>
        <time>2019-06-17T11:01:59Z</time>
      </trkpt>
      <trkpt lat="44.30788" lon="5.82082">
        <ele>557</ele>
        <time>2019-06-17T11:02:00Z</time>
      </trkpt>
      <trkpt lat="44.30796" lon="5.8208">
        <ele>557</ele>
        <time>2019-06-17T11:02:01Z</time>
      </trkpt>
      <trkpt lat="44.30803" lon="5.82078">
        <ele>557</ele>
        <time>2019-06-17T11:02:02Z</time>
      </trkpt>
      <trkpt lat="44.3081" lon="5.82076">
        <ele>557</ele>
        <time>2019-06-17T11:02:03Z</time>
      </trkpt>
      <trkpt lat="44.30817" lon="5.82074">
        <ele>557</ele>
        <time>2019-06-17T11:02:04Z</time>
      </trkpt>
      <trkpt lat="44.30824" lon="5.82073">
        <ele>557</ele>
        <time>2019-06-17T11:02:05Z</time>
      </trkpt>
      <trkpt lat="44.30831" lon="5.82071">
        <ele>557</ele>
        <time>2019-06-17T11:02:06Z</time>
      </trkpt>
      <trkpt lat="44.30838" lon="5.82069">
        <ele>557</ele>
        <time>2019-06-17T11:02:07Z</time>
      </trkpt>
      <trkpt lat="44.30845" lon="5.82067">
        <ele>556</ele>
        <time>2019-06-17T11:02:08Z</time>
      </trkpt>
      <trkpt lat="44.30852" lon="5.82065">
        <ele>556</ele>
        <time>2019-06-17T11:02:09Z</time>
      </trkpt>
      <trkpt lat="44.30859" lon="5.82062">
        <ele>556</ele>
        <time>2019-06-17T11:02:10Z</time>
      </trkpt>
      <trkpt lat="44.30866" lon="5.8206">
        <ele>556</ele>
        <time>2019-06-17T11:02:11Z</time>
      </trkpt>
      <trkpt lat="44.30873" lon="5.82057">
        <ele>555</ele>
        <time>2019-06-17T11:02:12Z</time>
      </trkpt>
      <trkpt lat="44.3088" lon="5.82055">
        <ele>555</ele>
        <time>2019-06-17T11:02:13Z</time>
      </trkpt>
      <trkpt lat="44.30888" lon="5.82052">
        <ele>555</ele>
        <time>2019-06-17T11:02:14Z</time>
      </trkpt>
      <trkpt lat="44.30896" lon="5.82049">
        <ele>554</ele>
        <time>2019-06-17T11:02:15Z</time>
      </trkpt>
      <trkpt lat="44.30904" lon="5.82046">
        <ele>554</ele>
        <time>2019-06-17T11:02:16Z</time>
      </trkpt>
      <trkpt lat="44.30913" lon="5.82045">
        <ele>554</ele>
        <time>2019-06-17T11:02:17Z</time>
      </trkpt>
      <trkpt lat="44.30921" lon="5.82045">
        <ele>554</ele>
        <time>2019-06-17T11:02:18Z</time>
      </trkpt>
      <trkpt lat="44.30929" lon="5.82045">
        <ele>554</ele>
        <time>2019-06-17T11:02:19Z</time>
      </trkpt>
      <trkpt lat="44.30937" lon="5.82046">
        <ele>553</ele>
        <time>2019-06-17T11:02:20Z</time>
      </trkpt>
      <trkpt lat="44.30946" lon="5.82049">
        <ele>553</ele>
        <time>2019-06-17T11:02:21Z</time>
      </trkpt>
      <trkpt lat="44.30954" lon="5.82052">
        <ele>553</ele>
        <time>2019-06-17T11:02:22Z</time>
      </trkpt>
      <trkpt lat="44.30962" lon="5.82056">
        <ele>553</ele>
        <time>2019-06-17T11:02:23Z</time>
      </trkpt>
      <trkpt lat="44.3097" lon="5.8206">
        <ele>553</ele>
        <time>2019-06-17T11:02:24Z</time>
      </trkpt>
      <trkpt lat="44.30977" lon="5.82065">
        <ele>553</ele>
        <time>2019-06-17T11:02:25Z</time>
      </trkpt>
      <trkpt lat="44.30984" lon="5.82071">
        <ele>553</ele>
        <time>2019-06-17T11:02:26Z</time>
      </trkpt>
      <trkpt lat="44.30991" lon="5.82077">
        <ele>553</ele>
        <time>2019-06-17T11:02:27Z</time>
      </trkpt>
      <trkpt lat="44.30997" lon="5.82084">
        <ele>553</ele>
        <time>2019-06-17T11:02:28Z</time>
      </trkpt>
      <trkpt lat="44.31003" lon="5.8209">
        <ele>553</ele>
        <time>2019-06-17T11:02:29Z</time>
      </trkpt>
      <trkpt lat="44.31009" lon="5.82098">
        <ele>553</ele>
        <time>2019-06-17T11:02:30Z</time>
      </trkpt>
      <trkpt lat="44.31015" lon="5.82105">
        <ele>553</ele>
        <time>2019-06-17T11:02:31Z</time>
      </trkpt>
      <trkpt lat="44.3102" lon="5.82113">
        <ele>553</ele>
        <time>2019-06-17T11:02:32Z</time>
      </trkpt>
      <trkpt lat="44.31025" lon="5.8212">
        <ele>553</ele>
        <time>2019-06-17T11:02:33Z</time>
      </trkpt>
      <trkpt lat="44.31031" lon="5.82127">
        <ele>553</ele>
        <time>2019-06-17T11:02:34Z</time>
      </trkpt>
      <trkpt lat="44.31037" lon="5.82134">
        <ele>553</ele>
        <time>2019-06-17T11:02:35Z</time>
      </trkpt>
      <trkpt lat="44.31042" lon="5.82141">
        <ele>553</ele>
        <time>2019-06-17T11:02:36Z</time>
      </trkpt>
      <trkpt lat="44.31047" lon="5.82148">
        <ele>553</ele>
        <time>2019-06-17T11:02:37Z</time>
      </trkpt>
      <trkpt lat="44.31052" lon="5.82155">
        <ele>553</ele>
        <time>2019-06-17T11:02:38Z</time>
      </trkpt>
      <trkpt lat="44.31057" lon="5.8216">
        <ele>553</ele>
        <time>2019-06-17T11:02:39Z</time>
      </trkpt>
      <trkpt lat="44.31062" lon="5.82166">
        <ele>553</ele>
        <time>2019-06-17T11:02:40Z</time>
      </trkpt>
      <trkpt lat="44.31067" lon="5.82173">
        <ele>553</ele>
        <time>2019-06-17T11:02:41Z</time>
      </trkpt>
      <trkpt lat="44.31072" lon="5.82179">
        <ele>553</ele>
        <time>2019-06-17T11:02:42Z</time>
      </trkpt>
      <trkpt lat="44.31078" lon="5.82187">
        <ele>553</ele>
        <time>2019-06-17T11:02:43Z</time>
      </trkpt>
      <trkpt lat="44.31085" lon="5.82195">
        <ele>553</ele>
        <time>2019-06-17T11:02:44Z</time>
      </trkpt>
      <trkpt lat="44.31091" lon="5.82202">
        <ele>553</ele>
        <time>2019-06-17T11:02:45Z</time>
      </trkpt>
      <trkpt lat="44.31098" lon="5.8221">
        <ele>553</ele>
        <time>2019-06-17T11:02:46Z</time>
      </trkpt>
      <trkpt lat="44.31105" lon="5.82218">
        <ele>553</ele>
        <time>2019-06-17T11:02:47Z</time>
      </trkpt>
      <trkpt lat="44.31109" lon="5.82225">
        <ele>553</ele>
        <time>2019-06-17T11:02:48Z</time>
      </trkpt>
      <trkpt lat="44.31114" lon="5.82233">
        <ele>553</ele>
        <time>2019-06-17T11:02:49Z</time>
      </trkpt>
      <trkpt lat="44.31119" lon="5.82239">
        <ele>553</ele>
        <time>2019-06-17T11:02:50Z</time>
      </trkpt>
      <trkpt lat="44.31124" lon="5.82245">
        <ele>553</ele>
        <time>2019-06-17T11:02:51Z</time>
      </trkpt>
      <trkpt lat="44.31129" lon="5.82252">
        <ele>553</ele>
        <time>2019-06-17T11:02:52Z</time>
      </trkpt>
      <trkpt lat="44.31133" lon="5.82258">
        <ele>553</ele>
        <time>2019-06-17T11:02:53Z</time>
      </trkpt>
      <trkpt lat="44.31138" lon="5.82263">
        <ele>553</ele>
        <time>2019-06-17T11:02:54Z</time>
      </trkpt>
      <trkpt lat="44.31143" lon="5.82269">
        <ele>553</ele>
        <time>2019-06-17T11:02:55Z</time>
      </trkpt>
      <trkpt lat="44.31147" lon="5.82274">
        <ele>554</ele>
        <time>2019-06-17T11:02:56Z</time>
      </trkpt>
      <trkpt lat="44.3115" lon="5.82279">
        <ele>554</ele>
        <time>2019-06-17T11:02:57Z</time>
      </trkpt>
      <trkpt lat="44.31152" lon="5.82286">
        <ele>554</ele>
        <time>2019-06-17T11:02:58Z</time>
      </trkpt>
      <trkpt lat="44.31153" lon="5.82294">
        <ele>554</ele>
        <time>2019-06-17T11:02:59Z</time>
      </trkpt>
      <trkpt lat="44.31152" lon="5.82301">
        <ele>554</ele>
        <time>2019-06-17T11:03:00Z</time>
      </trkpt>
      <trkpt lat="44.31148" lon="5.82308">
        <ele>554</ele>
        <time>2019-06-17T11:03:01Z</time>
      </trkpt>
      <trkpt lat="44.31144" lon="5.82313">
        <ele>554</ele>
        <time>2019-06-17T11:03:02Z</time>
      </trkpt>
      <trkpt lat="44.31139" lon="5.82319">
        <ele>554</ele>
        <time>2019-06-17T11:03:03Z</time>
      </trkpt>
      <trkpt lat="44.31134" lon="5.82325">
        <ele>554</ele>
        <time>2019-06-17T11:03:04Z</time>
      </trkpt>
      <trkpt lat="44.31129" lon="5.82331">
        <ele>554</ele>
        <time>2019-06-17T11:03:05Z</time>
      </trkpt>
      <trkpt lat="44.31124" lon="5.82337">
        <ele>554</ele>
        <time>2019-06-17T11:03:06Z</time>
      </trkpt>
      <trkpt lat="44.3112" lon="5.82343">
        <ele>554</ele>
        <time>2019-06-17T11:03:07Z</time>
      </trkpt>
      <trkpt lat="44.31115" lon="5.82349">
        <ele>554</ele>
        <time>2019-06-17T11:03:08Z</time>
      </trkpt>
      <trkpt lat="44.31111" lon="5.82356">
        <ele>554</ele>
        <time>2019-06-17T11:03:09Z</time>
      </trkpt>
      <trkpt lat="44.31107" lon="5.82363">
        <ele>554</ele>
        <time>2019-06-17T11:03:10Z</time>
      </trkpt>
      <trkpt lat="44.31105" lon="5.82371">
        <ele>554</ele>
        <time>2019-06-17T11:03:11Z</time>
      </trkpt>
      <trkpt lat="44.31104" lon="5.82379">
        <ele>554</ele>
        <time>2019-06-17T11:03:12Z</time>
      </trkpt>
      <trkpt lat="44.31104" lon="5.82388">
        <ele>554</ele>
        <time>2019-06-17T11:03:13Z</time>
      </trkpt>
      <trkpt lat="44.31104" lon="5.82396">
        <ele>554</ele>
        <time>2019-06-17T11:03:14Z</time>
      </trkpt>
      <trkpt lat="44.31104" lon="5.82405">
        <ele>554</ele>
        <time>2019-06-17T11:03:15Z</time>
      </trkpt>
      <trkpt lat="44.31103" lon="5.82412">
        <ele>554</ele>
        <time>2019-06-17T11:03:16Z</time>
      </trkpt>
      <trkpt lat="44.311" lon="5.82418">
        <ele>554</ele>
        <time>2019-06-17T11:03:17Z</time>
      </trkpt>
      <trkpt lat="44.31097" lon="5.82424">
        <ele>554</ele>
        <time>2019-06-17T11:03:18Z</time>
      </trkpt>
      <trkpt lat="44.31095" lon="5.8243">
        <ele>554</ele>
        <time>2019-06-17T11:03:19Z</time>
      </trkpt>
      <trkpt lat="44.31092" lon="5.82435">
        <ele>554</ele>
        <time>2019-06-17T11:03:20Z</time>
      </trkpt>
      <trkpt lat="44.3109" lon="5.8244">
        <ele>554</ele>
        <time>2019-06-17T11:03:21Z</time>
      </trkpt>
      <trkpt lat="44.31088" lon="5.82446">
        <ele>554</ele>
        <time>2019-06-17T11:03:22Z</time>
      </trkpt>
      <trkpt lat="44.31086" lon="5.82451">
        <ele>555</ele>
        <time>2019-06-17T11:03:23Z</time>
      </trkpt>
      <trkpt lat="44.31084" lon="5.82456">
        <ele>555</ele>
        <time>2019-06-17T11:03:24Z</time>
      </trkpt>
      <trkpt lat="44.31082" lon="5.82462">
        <ele>555</ele>
        <time>2019-06-17T11:03:25Z</time>
      </trkpt>
      <trkpt lat="44.31079" lon="5.82468">
        <ele>555</ele>
        <time>2019-06-17T11:03:26Z</time>
      </trkpt>
      <trkpt lat="44.31076" lon="5.82475">
        <ele>555</ele>
        <time>2019-06-17T11:03:27Z</time>
      </trkpt>
      <trkpt lat="44.31074" lon="5.82482">
        <ele>555</ele>
        <time>2019-06-17T11:03:28Z</time>
      </trkpt>
      <trkpt lat="44.31073" lon="5.82491">
        <ele>555</ele>
        <time>2019-06-17T11:03:29Z</time>
      </trkpt>
      <trkpt lat="44.31072" lon="5.82499">
        <ele>555</ele>
        <time>2019-06-17T11:03:30Z</time>
      </trkpt>
      <trkpt lat="44.31073" lon="5.82508">
        <ele>555</ele>
        <time>2019-06-17T11:03:31Z</time>
      </trkpt>
      <trkpt lat="44.31076" lon="5.82515">
        <ele>555</ele>
        <time>2019-06-17T11:03:32Z</time>
      </trkpt>
      <trkpt lat="44.31079" lon="5.82521">
        <ele>555</ele>
        <time>2019-06-17T11:03:33Z</time>
      </trkpt>
      <trkpt lat="44.31084" lon="5.82526">
        <ele>555</ele>
        <time>2019-06-17T11:03:34Z</time>
      </trkpt>
      <trkpt lat="44.31088" lon="5.82531">
        <ele>555</ele>
        <time>2019-06-17T11:03:35Z</time>
      </trkpt>
      <trkpt lat="44.31092" lon="5.82534">
        <ele>555</ele>
        <time>2019-06-17T11:03:36Z</time>
      </trkpt>
      <trkpt lat="44.31097" lon="5.82536">
        <ele>555</ele>
        <time>2019-06-17T11:03:37Z</time>
      </trkpt>
      <trkpt lat="44.31103" lon="5.82541">
        <ele>555</ele>
        <time>2019-06-17T11:03:38Z</time>
      </trkpt>
      <trkpt lat="44.3111" lon="5.82546">
        <ele>555</ele>
        <time>2019-06-17T11:03:39Z</time>
      </trkpt>
      <trkpt lat="44.31116" lon="5.82551">
        <ele>555</ele>
        <time>2019-06-17T11:03:40Z</time>
      </trkpt>
      <trkpt lat="44.31122" lon="5.82554">
        <ele>556</ele>
        <time>2019-06-17T11:03:41Z</time>
      </trkpt>
      <trkpt lat="44.31129" lon="5.82558">
        <ele>556</ele>
        <time>2019-06-17T11:03:42Z</time>
      </trkpt>
      <trkpt lat="44.31135" lon="5.82561">
        <ele>556</ele>
        <time>2019-06-17T11:03:43Z</time>
      </trkpt>
      <trkpt lat="44.3114" lon="5.82563">
        <ele>557</ele>
        <time>2019-06-17T11:03:44Z</time>
      </trkpt>
      <trkpt lat="44.31146" lon="5.82566">
        <ele>557</ele>
        <time>2019-06-17T11:03:45Z</time>
      </trkpt>
      <trkpt lat="44.31152" lon="5.82569">
        <ele>558</ele>
        <time>2019-06-17T11:03:46Z</time>
      </trkpt>
      <trkpt lat="44.31158" lon="5.82573">
        <ele>558</ele>
        <time>2019-06-17T11:03:47Z</time>
      </trkpt>
      <trkpt lat="44.31164" lon="5.82575">
        <ele>559</ele>
        <time>2019-06-17T11:03:48Z</time>
      </trkpt>
      <trkpt lat="44.3117" lon="5.82577">
        <ele>559</ele>
        <time>2019-06-17T11:03:49Z</time>
      </trkpt>
      <trkpt lat="44.31176" lon="5.8258">
        <ele>560</ele>
        <time>2019-06-17T11:03:50Z</time>
      </trkpt>
      <trkpt lat="44.31182" lon="5.82582">
        <ele>560</ele>
        <time>2019-06-17T11:03:51Z</time>
      </trkpt>
      <trkpt lat="44.31188" lon="5.82585">
        <ele>561</ele>
        <time>2019-06-17T11:03:52Z</time>
      </trkpt>
      <trkpt lat="44.31192" lon="5.82588">
        <ele>561</ele>
        <time>2019-06-17T11:03:53Z</time>
      </trkpt>
      <trkpt lat="44.31197" lon="5.82591">
        <ele>562</ele>
        <time>2019-06-17T11:03:54Z</time>
      </trkpt>
      <trkpt lat="44.31203" lon="5.82594">
        <ele>562</ele>
        <time>2019-06-17T11:03:55Z</time>
      </trkpt>
      <trkpt lat="44.31209" lon="5.82598">
        <ele>562</ele>
        <time>2019-06-17T11:03:56Z</time>
      </trkpt>
      <trkpt lat="44.31215" lon="5.82602">
        <ele>562</ele>
        <time>2019-06-17T11:03:57Z</time>
      </trkpt>
      <trkpt lat="44.3122" lon="5.82604">
        <ele>562</ele>
        <time>2019-06-17T11:03:58Z</time>
      </trkpt>
      <trkpt lat="44.31224" lon="5.82607">
        <ele>562</ele>
        <time>2019-06-17T11:03:59Z</time>
      </trkpt>
      <trkpt lat="44.31229" lon="5.82609">
        <ele>562</ele>
        <time>2019-06-17T11:04:00Z</time>
      </trkpt>
      <trkpt lat="44.31234" lon="5.82612">
        <ele>562</ele>
        <time>2019-06-17T11:04:01Z</time>
      </trkpt>
      <trkpt lat="44.31239" lon="5.82615">
        <ele>562</ele>
        <time>2019-06-17T11:04:02Z</time>
      </trkpt>
      <trkpt lat="44.31243" lon="5.82616">
        <ele>562</ele>
        <time>2019-06-17T11:04:03Z</time>
      </trkpt>
      <trkpt lat="44.31247" lon="5.82617">
        <ele>563</ele>
        <time>2019-06-17T11:04:04Z</time>
      </trkpt>
      <trkpt lat="44.31252" lon="5.8262">
        <ele>563</ele>
        <time>2019-06-17T11:04:05Z</time>
      </trkpt>
      <trkpt lat="44.31257" lon="5.82622">
        <ele>563</ele>
        <time>2019-06-17T11:04:06Z</time>
      </trkpt>
      <trkpt lat="44.31262" lon="5.82624">
        <ele>564</ele>
        <time>2019-06-17T11:04:07Z</time>
      </trkpt>
      <trkpt lat="44.31266" lon="5.82628">
        <ele>564</ele>
        <time>2019-06-17T11:04:08Z</time>
      </trkpt>
      <trkpt lat="44.31271" lon="5.82632">
        <ele>564</ele>
        <time>2019-06-17T11:04:09Z</time>
      </trkpt>
      <trkpt lat="44.31276" lon="5.82635">
        <ele>565</ele>
        <time>2019-06-17T11:04:10Z</time>
      </trkpt>
      <trkpt lat="44.31281" lon="5.82639">
        <ele>565</ele>
        <time>2019-06-17T11:04:11Z</time>
      </trkpt>
      <trkpt lat="44.31285" lon="5.82642">
        <ele>565</ele>
        <time>2019-06-17T11:04:12Z</time>
      </trkpt>
      <trkpt lat="44.31289" lon="5.82645">
        <ele>565</ele>
        <time>2019-06-17T11:04:13Z</time>
      </trkpt>
      <trkpt lat="44.31293" lon="5.82648">
        <ele>565</ele>
        <time>2019-06-17T11:04:14Z</time>
      </trkpt>
      <trkpt lat="44.31297" lon="5.8265">
        <ele>565</ele>
        <time>2019-06-17T11:04:15Z</time>
      </trkpt>
      <trkpt lat="44.313" lon="5.82653">
        <ele>565</ele>
        <time>2019-06-17T11:04:16Z</time>
      </trkpt>
      <trkpt lat="44.31304" lon="5.82656">
        <ele>565</ele>
        <time>2019-06-17T11:04:17Z</time>
      </trkpt>
      <trkpt lat="44.31307" lon="5.82659">
        <ele>565</ele>
        <time>2019-06-17T11:04:18Z</time>
      </trkpt>
      <trkpt lat="44.3131" lon="5.82662">
        <ele>565</ele>
        <time>2019-06-17T11:04:19Z</time>
      </trkpt>
      <trkpt lat="44.31312" lon="5.82663">
        <ele>565</ele>
        <time>2019-06-17T11:04:20Z</time>
      </trkpt>
      <trkpt lat="44.31315" lon="5.82664">
        <ele>565</ele>
        <time>2019-06-17T11:04:21Z</time>
      </trkpt>
      <trkpt lat="44.31318" lon="5.82665">
        <ele>565</ele>
        <time>2019-06-17T11:04:22Z</time>
      </trkpt>
      <trkpt lat="44.3132" lon="5.82667">
        <ele>565</ele>
        <time>2019-06-17T11:04:23Z</time>
      </trkpt>
      <trkpt lat="44.31322" lon="5.82668">
        <ele>565</ele>
        <time>2019-06-17T11:04:24Z</time>
      </trkpt>
      <trkpt lat="44.31324" lon="5.82669">
        <ele>565</ele>
        <time>2019-06-17T11:04:25Z</time>
      </trkpt>
      <trkpt lat="44.31326" lon="5.82671">
        <ele>565</ele>
        <time>2019-06-17T11:04:26Z</time>
      </trkpt>
      <trkpt lat="44.31329" lon="5.82673">
        <ele>565</ele>
        <time>2019-06-17T11:04:27Z</time>
      </trkpt>
      <trkpt lat="44.31331" lon="5.82674">
        <ele>565</ele>
        <time>2019-06-17T11:04:28Z</time>
      </trkpt>
      <trkpt lat="44.31335" lon="5.82676">
        <ele>565</ele>
        <time>2019-06-17T11:04:29Z</time>
      </trkpt>
      <trkpt lat="44.31338" lon="5.82678">
        <ele>565</ele>
        <time>2019-06-17T11:04:30Z</time>
      </trkpt>
      <trkpt lat="44.31341" lon="5.8268">
        <ele>565</ele>
        <time>2019-06-17T11:04:31Z</time>
      </trkpt>
      <trkpt lat="44.31345" lon="5.82681">
        <ele>565</ele>
        <time>2019-06-17T11:04:32Z</time>
      </trkpt>
      <trkpt lat="44.31348" lon="5.82681">
        <ele>565</ele>
        <time>2019-06-17T11:04:33Z</time>
      </trkpt>
      <trkpt lat="44.31351" lon="5.82683">
        <ele>565</ele>
        <time>2019-06-17T11:04:34Z</time>
      </trkpt>
      <trkpt lat="44.31353" lon="5.82685">
        <ele>565</ele>
        <time>2019-06-17T11:04:35Z</time>
      </trkpt>
      <trkpt lat="44.31355" lon="5.82688">
        <ele>565</ele>
        <time>2019-06-17T11:04:36Z</time>
      </trkpt>
      <trkpt lat="44.31357" lon="5.82692">
        <ele>565</ele>
        <time>2019-06-17T11:04:37Z</time>
      </trkpt>
      <trkpt lat="44.31358" lon="5.82696">
        <ele>565</ele>
        <time>2019-06-17T11:04:38Z</time>
      </trkpt>
      <trkpt lat="44.3136" lon="5.82701">
        <ele>565</ele>
        <time>2019-06-17T11:04:39Z</time>
      </trkpt>
      <trkpt lat="44.31362" lon="5.82705">
        <ele>565</ele>
        <time>2019-06-17T11:04:40Z</time>
      </trkpt>
      <trkpt lat="44.31367" lon="5.8271">
        <ele>565</ele>
        <time>2019-06-17T11:04:41Z</time>
      </trkpt>
      <trkpt lat="44.31371" lon="5.82715">
        <ele>565</ele>
        <time>2019-06-17T11:04:42Z</time>
      </trkpt>
      <trkpt lat="44.31374" lon="5.82721">
        <ele>565</ele>
        <time>2019-06-17T11:04:43Z</time>
      </trkpt>
      <trkpt lat="44.31375" lon="5.82727">
        <ele>565</ele>
        <time>2019-06-17T11:04:44Z</time>
      </trkpt>
      <trkpt lat="44.31377" lon="5.82733">
        <ele>565</ele>
        <time>2019-06-17T11:04:45Z</time>
      </trkpt>
      <trkpt lat="44.31377" lon="5.82739">
        <ele>565</ele>
        <time>2019-06-17T11:04:46Z</time>
      </trkpt>
      <trkpt lat="44.31378" lon="5.82746">
        <ele>565</ele>
        <time>2019-06-17T11:04:47Z</time>
      </trkpt>
      <trkpt lat="44.31377" lon="5.82752">
        <ele>565</ele>
        <time>2019-06-17T11:04:48Z</time>
      </trkpt>
      <trkpt lat="44.31378" lon="5.82758">
        <ele>565</ele>
        <time>2019-06-17T11:04:49Z</time>
      </trkpt>
      <trkpt lat="44.31378" lon="5.82764">
        <ele>565</ele>
        <time>2019-06-17T11:04:50Z</time>
      </trkpt>
      <trkpt lat="44.31377" lon="5.82771">
        <ele>565</ele>
        <time>2019-06-17T11:04:51Z</time>
      </trkpt>
      <trkpt lat="44.31377" lon="5.82778">
        <ele>565</ele>
        <time>2019-06-17T11:04:52Z</time>
      </trkpt>
      <trkpt lat="44.31379" lon="5.82784">
        <ele>565</ele>
        <time>2019-06-17T11:04:53Z</time>
      </trkpt>
      <trkpt lat="44.31378" lon="5.82791">
        <ele>566</ele>
        <time>2019-06-17T11:04:54Z</time>
      </trkpt>
      <trkpt lat="44.31377" lon="5.82797">
        <ele>566</ele>
        <time>2019-06-17T11:04:55Z</time>
      </trkpt>
      <trkpt lat="44.31377" lon="5.82804">
        <ele>566</ele>
        <time>2019-06-17T11:04:56Z</time>
      </trkpt>
      <trkpt lat="44.31377" lon="5.82811">
        <ele>566</ele>
        <time>2019-06-17T11:04:57Z</time>
      </trkpt>
      <trkpt lat="44.31376" lon="5.82817">
        <ele>566</ele>
        <time>2019-06-17T11:04:58Z</time>
      </trkpt>
      <trkpt lat="44.31375" lon="5.82824">
        <ele>566</ele>
        <time>2019-06-17T11:04:59Z</time>
      </trkpt>
      <trkpt lat="44.31374" lon="5.82831">
        <ele>567</ele>
        <time>2019-06-17T11:05:00Z</time>
      </trkpt>
      <trkpt lat="44.31374" lon="5.82837">
        <ele>567</ele>
        <time>2019-06-17T11:05:01Z</time>
      </trkpt>
      <trkpt lat="44.31373" lon="5.82844">
        <ele>567</ele>
        <time>2019-06-17T11:05:02Z</time>
      </trkpt>
      <trkpt lat="44.31372" lon="5.82851">
        <ele>567</ele>
        <time>2019-06-17T11:05:03Z</time>
      </trkpt>
      <trkpt lat="44.31372" lon="5.82858">
        <ele>567</ele>
        <time>2019-06-17T11:05:04Z</time>
      </trkpt>
      <trkpt lat="44.31371" lon="5.82865">
        <ele>567</ele>
        <time>2019-06-17T11:05:05Z</time>
      </trkpt>
      <trkpt lat="44.31369" lon="5.82872">
        <ele>567</ele>
        <time>2019-06-17T11:05:06Z</time>
      </trkpt>
      <trkpt lat="44.31369" lon="5.82878">
        <ele>567</ele>
        <time>2019-06-17T11:05:07Z</time>
      </trkpt>
      <trkpt lat="44.31368" lon="5.82885">
        <ele>567</ele>
        <time>2019-06-17T11:05:08Z</time>
      </trkpt>
      <trkpt lat="44.31366" lon="5.82893">
        <ele>567</ele>
        <time>2019-06-17T11:05:09Z</time>
      </trkpt>
      <trkpt lat="44.31365" lon="5.829">
        <ele>567</ele>
        <time>2019-06-17T11:05:10Z</time>
      </trkpt>
      <trkpt lat="44.31364" lon="5.82907">
        <ele>567</ele>
        <time>2019-06-17T11:05:11Z</time>
      </trkpt>
      <trkpt lat="44.31363" lon="5.82915">
        <ele>567</ele>
        <time>2019-06-17T11:05:12Z</time>
      </trkpt>
      <trkpt lat="44.31362" lon="5.82922">
        <ele>567</ele>
        <time>2019-06-17T11:05:13Z</time>
      </trkpt>
      <trkpt lat="44.31361" lon="5.82929">
        <ele>567</ele>
        <time>2019-06-17T11:05:14Z</time>
      </trkpt>
      <trkpt lat="44.31359" lon="5.82937">
        <ele>567</ele>
        <time>2019-06-17T11:05:15Z</time>
      </trkpt>
      <trkpt lat="44.31358" lon="5.82944">
        <ele>567</ele>
        <time>2019-06-17T11:05:16Z</time>
      </trkpt>
      <trkpt lat="44.31357" lon="5.82951">
        <ele>567</ele>
        <time>2019-06-17T11:05:17Z</time>
      </trkpt>
      <trkpt lat="44.31356" lon="5.82958">
        <ele>567</ele>
        <time>2019-06-17T11:05:18Z</time>
      </trkpt>
      <trkpt lat="44.31356" lon="5.82965">
        <ele>567</ele>
        <time>2019-06-17T11:05:19Z</time>
      </trkpt>
      <trkpt lat="44.31355" lon="5.82972">
        <ele>567</ele>
        <time>2019-06-17T11:05:20Z</time>
      </trkpt>
      <trkpt lat="44.31354" lon="5.82979">
        <ele>567</ele>
        <time>2019-06-17T11:05:21Z</time>
      </trkpt>
      <trkpt lat="44.31353" lon="5.82986">
        <ele>567</ele>
        <time>2019-06-17T11:05:22Z</time>
      </trkpt>
      <trkpt lat="44.31352" lon="5.82992">
        <ele>567</ele>
        <time>2019-06-17T11:05:23Z</time>
      </trkpt>
      <trkpt lat="44.31351" lon="5.82999">
        <ele>567</ele>
        <time>2019-06-17T11:05:24Z</time>
      </trkpt>
      <trkpt lat="44.31351" lon="5.83005">
        <ele>567</ele>
        <time>2019-06-17T11:05:25Z</time>
      </trkpt>
      <trkpt lat="44.3135" lon="5.83011">
        <ele>567</ele>
        <time>2019-06-17T11:05:26Z</time>
      </trkpt>
      <trkpt lat="44.3135" lon="5.83017">
        <ele>567</ele>
        <time>2019-06-17T11:05:27Z</time>
      </trkpt>
      <trkpt lat="44.31349" lon="5.83023">
        <ele>567</ele>
        <time>2019-06-17T11:05:28Z</time>
      </trkpt>
      <trkpt lat="44.31349" lon="5.83029">
        <ele>567</ele>
        <time>2019-06-17T11:05:29Z</time>
      </trkpt>
      <trkpt lat="44.31348" lon="5.83035">
        <ele>567</ele>
        <time>2019-06-17T11:05:30Z</time>
      </trkpt>
      <trkpt lat="44.31347" lon="5.83041">
        <ele>567</ele>
        <time>2019-06-17T11:05:31Z</time>
      </trkpt>
      <trkpt lat="44.31346" lon="5.83048">
        <ele>567</ele>
        <time>2019-06-17T11:05:32Z</time>
      </trkpt>
      <trkpt lat="44.31344" lon="5.83054">
        <ele>567</ele>
        <time>2019-06-17T11:05:33Z</time>
      </trkpt>
      <trkpt lat="44.31343" lon="5.8306">
        <ele>567</ele>
        <time>2019-06-17T11:05:34Z</time>
      </trkpt>
      <trkpt lat="44.31341" lon="5.83066">
        <ele>567</ele>
        <time>2019-06-17T11:05:35Z</time>
      </trkpt>
      <trkpt lat="44.3134" lon="5.83073">
        <ele>567</ele>
        <time>2019-06-17T11:05:36Z</time>
      </trkpt>
      <trkpt lat="44.3134" lon="5.83079">
        <ele>567</ele>
        <time>2019-06-17T11:05:37Z</time>
      </trkpt>
      <trkpt lat="44.3134" lon="5.83085">
        <ele>567</ele>
        <time>2019-06-17T11:05:38Z</time>
      </trkpt>
      <trkpt lat="44.3134" lon="5.8309">
        <ele>567</ele>
        <time>2019-06-17T11:05:39Z</time>
      </trkpt>
      <trkpt lat="44.3134" lon="5.83096">
        <ele>567</ele>
        <time>2019-06-17T11:05:40Z</time>
      </trkpt>
      <trkpt lat="44.31342" lon="5.83101">
        <ele>567</ele>
        <time>2019-06-17T11:05:41Z</time>
      </trkpt>
      <trkpt lat="44.31343" lon="5.83105">
        <ele>567</ele>
        <time>2019-06-17T11:05:42Z</time>
      </trkpt>
      <trkpt lat="44.31345" lon="5.83107">
        <ele>567</ele>
        <time>2019-06-17T11:05:43Z</time>
      </trkpt>
      <trkpt lat="44.31347" lon="5.83107">
        <ele>567</ele>
        <time>2019-06-17T11:05:44Z</time>
      </trkpt>
      <trkpt lat="44.3135" lon="5.83104">
        <ele>567</ele>
        <time>2019-06-17T11:05:45Z</time>
      </trkpt>
      <trkpt lat="44.31352" lon="5.83103">
        <ele>567</ele>
        <time>2019-06-17T11:05:46Z</time>
      </trkpt>
      <trkpt lat="44.31355" lon="5.831">
        <ele>567</ele>
        <time>2019-06-17T11:05:47Z</time>
      </trkpt>
      <trkpt lat="44.31356" lon="5.83098">
        <ele>567</ele>
        <time>2019-06-17T11:05:48Z</time>
      </trkpt>
      <trkpt lat="44.31358" lon="5.83095">
        <ele>567</ele>
        <time>2019-06-17T11:05:49Z</time>
      </trkpt>
      <trkpt lat="44.31359" lon="5.83091">
        <ele>567</ele>
        <time>2019-06-17T11:05:50Z</time>
      </trkpt>
      <trkpt lat="44.31361" lon="5.83087">
        <ele>567</ele>
        <time>2019-06-17T11:05:51Z</time>
      </trkpt>
      <trkpt lat="44.31363" lon="5.83082">
        <ele>567</ele>
        <time>2019-06-17T11:05:52Z</time>
      </trkpt>
      <trkpt lat="44.31365" lon="5.83076">
        <ele>567</ele>
        <time>2019-06-17T11:05:53Z</time>
      </trkpt>
      <trkpt lat="44.31368" lon="5.8307">
        <ele>567</ele>
        <time>2019-06-17T11:05:54Z</time>
      </trkpt>
      <trkpt lat="44.31371" lon="5.83063">
        <ele>567</ele>
        <time>2019-06-17T11:05:55Z</time>
      </trkpt>
      <trkpt lat="44.31374" lon="5.83057">
        <ele>567</ele>
        <time>2019-06-17T11:05:56Z</time>
      </trkpt>
      <trkpt lat="44.31377" lon="5.83051">
        <ele>567</ele>
        <time>2019-06-17T11:05:57Z</time>
      </trkpt>
      <trkpt lat="44.31381" lon="5.83044">
        <ele>567</ele>
        <time>2019-06-17T11:05:58Z</time>
      </trkpt>
      <trkpt lat="44.31386" lon="5.83038">
        <ele>567</ele>
        <time>2019-06-17T11:05:59Z</time>
      </trkpt>
      <trkpt lat="44.3139" lon="5.83031">
        <ele>567</ele>
        <time>2019-06-17T11:06:00Z</time>
      </trkpt>
      <trkpt lat="44.31395" lon="5.83025">
        <ele>567</ele>
        <time>2019-06-17T11:06:01Z</time>
      </trkpt>
      <trkpt lat="44.31399" lon="5.83018">
        <ele>567</ele>
        <time>2019-06-17T11:06:02Z</time>
      </trkpt>
      <trkpt lat="44.31403" lon="5.83011">
        <ele>567</ele>
        <time>2019-06-17T11:06:03Z</time>
      </trkpt>
      <trkpt lat="44.31408" lon="5.83005">
        <ele>567</ele>
        <time>2019-06-17T11:06:04Z</time>
      </trkpt>
      <trkpt lat="44.31412" lon="5.82999">
        <ele>567</ele>
        <time>2019-06-17T11:06:05Z</time>
      </trkpt>
      <trkpt lat="44.31416" lon="5.82993">
        <ele>567</ele>
        <time>2019-06-17T11:06:06Z</time>
      </trkpt>
      <trkpt lat="44.31421" lon="5.82986">
        <ele>567</ele>
        <time>2019-06-17T11:06:07Z</time>
      </trkpt>
      <trkpt lat="44.31425" lon="5.82981">
        <ele>567</ele>
        <time>2019-06-17T11:06:08Z</time>
      </trkpt>
      <trkpt lat="44.31429" lon="5.82974">
        <ele>567</ele>
        <time>2019-06-17T11:06:09Z</time>
      </trkpt>
      <trkpt lat="44.31433" lon="5.82969">
        <ele>567</ele>
        <time>2019-06-17T11:06:10Z</time>
      </trkpt>
      <trkpt lat="44.31438" lon="5.82962">
        <ele>567</ele>
        <time>2019-06-17T11:06:11Z</time>
      </trkpt>
      <trkpt lat="44.31442" lon="5.82956">
        <ele>567</ele>
        <time>2019-06-17T11:06:12Z</time>
      </trkpt>
      <trkpt lat="44.31445" lon="5.8295">
        <ele>567</ele>
        <time>2019-06-17T11:06:13Z</time>
      </trkpt>
      <trkpt lat="44.3145" lon="5.82945">
        <ele>567</ele>
        <time>2019-06-17T11:06:14Z</time>
      </trkpt>
      <trkpt lat="44.31453" lon="5.82939">
        <ele>567</ele>
        <time>2019-06-17T11:06:15Z</time>
      </trkpt>
      <trkpt lat="44.31457" lon="5.82934">
        <ele>567</ele>
        <time>2019-06-17T11:06:16Z</time>
      </trkpt>
      <trkpt lat="44.31461" lon="5.82928">
        <ele>567</ele>
        <time>2019-06-17T11:06:17Z</time>
      </trkpt>
      <trkpt lat="44.31464" lon="5.82923">
        <ele>567</ele>
        <time>2019-06-17T11:06:18Z</time>
      </trkpt>
      <trkpt lat="44.31468" lon="5.82917">
        <ele>567</ele>
        <time>2019-06-17T11:06:19Z</time>
      </trkpt>
      <trkpt lat="44.31472" lon="5.82911">
        <ele>566</ele>
        <time>2019-06-17T11:06:20Z</time>
      </trkpt>
      <trkpt lat="44.31476" lon="5.82906">
        <ele>566</ele>
        <time>2019-06-17T11:06:21Z</time>
      </trkpt>
      <trkpt lat="44.3148" lon="5.82901">
        <ele>566</ele>
        <time>2019-06-17T11:06:22Z</time>
      </trkpt>
      <trkpt lat="44.31483" lon="5.82896">
        <ele>566</ele>
        <time>2019-06-17T11:06:23Z</time>
      </trkpt>
      <trkpt lat="44.31487" lon="5.8289">
        <ele>565</ele>
        <time>2019-06-17T11:06:24Z</time>
      </trkpt>
      <trkpt lat="44.31491" lon="5.82884">
        <ele>565</ele>
        <time>2019-06-17T11:06:25Z</time>
      </trkpt>
      <trkpt lat="44.31496" lon="5.82879">
        <ele>565</ele>
        <time>2019-06-17T11:06:26Z</time>
      </trkpt>
      <trkpt lat="44.31501" lon="5.82875">
        <ele>565</ele>
        <time>2019-06-17T11:06:27Z</time>
      </trkpt>
      <trkpt lat="44.31506" lon="5.82874">
        <ele>565</ele>
        <time>2019-06-17T11:06:28Z</time>
      </trkpt>
      <trkpt lat="44.3151" lon="5.82873">
        <ele>565</ele>
        <time>2019-06-17T11:06:29Z</time>
      </trkpt>
      <trkpt lat="44.31514" lon="5.82876">
        <ele>565</ele>
        <time>2019-06-17T11:06:30Z</time>
      </trkpt>
      <trkpt lat="44.31517" lon="5.8288">
        <ele>565</ele>
        <time>2019-06-17T11:06:31Z</time>
      </trkpt>
      <trkpt lat="44.31521" lon="5.82883">
        <ele>565</ele>
        <time>2019-06-17T11:06:32Z</time>
      </trkpt>
      <trkpt lat="44.31526" lon="5.82887">
        <ele>565</ele>
        <time>2019-06-17T11:06:33Z</time>
      </trkpt>
      <trkpt lat="44.3153" lon="5.82891">
        <ele>565</ele>
        <time>2019-06-17T11:06:34Z</time>
      </trkpt>
      <trkpt lat="44.31534" lon="5.82895">
        <ele>565</ele>
        <time>2019-06-17T11:06:35Z</time>
      </trkpt>
      <trkpt lat="44.31538" lon="5.82899">
        <ele>565</ele>
        <time>2019-06-17T11:06:36Z</time>
      </trkpt>
      <trkpt lat="44.31541" lon="5.82902">
        <ele>566</ele>
        <time>2019-06-17T11:06:37Z</time>
      </trkpt>
      <trkpt lat="44.31545" lon="5.82906">
        <ele>567</ele>
        <time>2019-06-17T11:06:38Z</time>
      </trkpt>
      <trkpt lat="44.31548" lon="5.82909">
        <ele>568</ele>
        <time>2019-06-17T11:06:39Z</time>
      </trkpt>
      <trkpt lat="44.31551" lon="5.82911">
        <ele>568</ele>
        <time>2019-06-17T11:06:40Z</time>
      </trkpt>
      <trkpt lat="44.31555" lon="5.82913">
        <ele>568</ele>
        <time>2019-06-17T11:06:41Z</time>
      </trkpt>
      <trkpt lat="44.31558" lon="5.82915">
        <ele>568</ele>
        <time>2019-06-17T11:06:42Z</time>
      </trkpt>
      <trkpt lat="44.31561" lon="5.82916">
        <ele>568</ele>
        <time>2019-06-17T11:06:43Z</time>
      </trkpt>
      <trkpt lat="44.31564" lon="5.8292">
        <ele>568</ele>
        <time>2019-06-17T11:06:44Z</time>
      </trkpt>
      <trkpt lat="44.31567" lon="5.82923">
        <ele>568</ele>
        <time>2019-06-17T11:06:45Z</time>
      </trkpt>
      <trkpt lat="44.3157" lon="5.82926">
        <ele>568</ele>
        <time>2019-06-17T11:06:46Z</time>
      </trkpt>
      <trkpt lat="44.31575" lon="5.82929">
        <ele>568</ele>
        <time>2019-06-17T11:06:47Z</time>
      </trkpt>
      <trkpt lat="44.31579" lon="5.82932">
        <ele>568</ele>
        <time>2019-06-17T11:06:48Z</time>
      </trkpt>
      <trkpt lat="44.31582" lon="5.82934">
        <ele>569</ele>
        <time>2019-06-17T11:06:49Z</time>
      </trkpt>
      <trkpt lat="44.31584" lon="5.82937">
        <ele>569</ele>
        <time>2019-06-17T11:06:50Z</time>
      </trkpt>
      <trkpt lat="44.31586" lon="5.82939">
        <ele>569</ele>
        <time>2019-06-17T11:06:51Z</time>
      </trkpt>
      <trkpt lat="44.31589" lon="5.82941">
        <ele>569</ele>
        <time>2019-06-17T11:06:52Z</time>
      </trkpt>
      <trkpt lat="44.31591" lon="5.82942">
        <ele>569</ele>
        <time>2019-06-17T11:06:53Z</time>
      </trkpt>
      <trkpt lat="44.31593" lon="5.82943">
        <ele>569</ele>
        <time>2019-06-17T11:06:54Z</time>
      </trkpt>
      <trkpt lat="44.31594" lon="5.82944">
        <ele>569</ele>
        <time>2019-06-17T11:06:55Z</time>
      </trkpt>
      <trkpt lat="44.31596" lon="5.82944">
        <ele>569</ele>
        <time>2019-06-17T11:06:56Z</time>
      </trkpt>
      <trkpt lat="44.31597" lon="5.82945">
        <ele>569</ele>
        <time>2019-06-17T11:06:58Z</time>
      </trkpt>
      <trkpt lat="44.31597" lon="5.82944">
        <ele>568</ele>
        <time>2019-06-17T11:07:05Z</time>
      </trkpt>
    </trkseg>
  </trk>
</gpx>